<?xml version="1.0" encoding="UTF-8" standalone="no" ?>
<gpx xmlns="http://www.topografix.com/GPX/1/1" xmlns:xsi="http://www.w3.org/2001/XMLSchema-instance" xsi:schemaLocation="http://www.topografix.com/GPX/1/1 http://www.topografix.com/GPX/1/1/gpx.xsd" version="1.1" creator="VisuGPX - https://www.visugpx.com">
  <metadata>
    <name>col d'Espraoux dans les Hautes-Alpes</name>
    <desc><![CDATA[Belle sortie de 61 km avec l'ascension du col d'Espraoux (12 km de monté à une moyenne de 4,7 %). ]]></desc>
  </metadata>
  <trk>
    <name><![CDATA[col d'espraoux]]></name>
    <trkseg>
      <trkpt lat="44.31597" lon="5.82943">
        <ele>567</ele>
        <time>2019-06-25T07:20:32Z</time>
      </trkpt>
      <trkpt lat="44.3157" lon="5.82924">
        <ele>569</ele>
        <time>2019-06-25T07:21:02Z</time>
      </trkpt>
      <trkpt lat="44.31567" lon="5.82922">
        <ele>568</ele>
        <time>2019-06-25T07:21:03Z</time>
      </trkpt>
      <trkpt lat="44.31562" lon="5.8292">
        <ele>568</ele>
        <time>2019-06-25T07:21:04Z</time>
      </trkpt>
      <trkpt lat="44.31559" lon="5.82917">
        <ele>568</ele>
        <time>2019-06-25T07:21:05Z</time>
      </trkpt>
      <trkpt lat="44.31556" lon="5.82915">
        <ele>568</ele>
        <time>2019-06-25T07:21:06Z</time>
      </trkpt>
      <trkpt lat="44.31553" lon="5.82913">
        <ele>568</ele>
        <time>2019-06-25T07:21:07Z</time>
      </trkpt>
      <trkpt lat="44.31551" lon="5.82912">
        <ele>568</ele>
        <time>2019-06-25T07:21:08Z</time>
      </trkpt>
      <trkpt lat="44.31548" lon="5.82911">
        <ele>568</ele>
        <time>2019-06-25T07:21:09Z</time>
      </trkpt>
      <trkpt lat="44.31546" lon="5.82909">
        <ele>568</ele>
        <time>2019-06-25T07:21:10Z</time>
      </trkpt>
      <trkpt lat="44.31543" lon="5.82907">
        <ele>568</ele>
        <time>2019-06-25T07:21:11Z</time>
      </trkpt>
      <trkpt lat="44.3154" lon="5.82904">
        <ele>568</ele>
        <time>2019-06-25T07:21:12Z</time>
      </trkpt>
      <trkpt lat="44.31538" lon="5.829">
        <ele>568</ele>
        <time>2019-06-25T07:21:13Z</time>
      </trkpt>
      <trkpt lat="44.31535" lon="5.82897">
        <ele>568</ele>
        <time>2019-06-25T07:21:14Z</time>
      </trkpt>
      <trkpt lat="44.31533" lon="5.82894">
        <ele>568</ele>
        <time>2019-06-25T07:21:15Z</time>
      </trkpt>
      <trkpt lat="44.3153" lon="5.8289">
        <ele>568</ele>
        <time>2019-06-25T07:21:16Z</time>
      </trkpt>
      <trkpt lat="44.31528" lon="5.82887">
        <ele>568</ele>
        <time>2019-06-25T07:21:17Z</time>
      </trkpt>
      <trkpt lat="44.31525" lon="5.82885">
        <ele>568</ele>
        <time>2019-06-25T07:21:18Z</time>
      </trkpt>
      <trkpt lat="44.31522" lon="5.82883">
        <ele>568</ele>
        <time>2019-06-25T07:21:19Z</time>
      </trkpt>
      <trkpt lat="44.31519" lon="5.8288">
        <ele>568</ele>
        <time>2019-06-25T07:21:20Z</time>
      </trkpt>
      <trkpt lat="44.31517" lon="5.82878">
        <ele>568</ele>
        <time>2019-06-25T07:21:21Z</time>
      </trkpt>
      <trkpt lat="44.31514" lon="5.82876">
        <ele>568</ele>
        <time>2019-06-25T07:21:22Z</time>
      </trkpt>
      <trkpt lat="44.31511" lon="5.82874">
        <ele>568</ele>
        <time>2019-06-25T07:21:23Z</time>
      </trkpt>
      <trkpt lat="44.31508" lon="5.82873">
        <ele>568</ele>
        <time>2019-06-25T07:21:24Z</time>
      </trkpt>
      <trkpt lat="44.31505" lon="5.82873">
        <ele>568</ele>
        <time>2019-06-25T07:21:25Z</time>
      </trkpt>
      <trkpt lat="44.31501" lon="5.82874">
        <ele>568</ele>
        <time>2019-06-25T07:21:26Z</time>
      </trkpt>
      <trkpt lat="44.31498" lon="5.82876">
        <ele>568</ele>
        <time>2019-06-25T07:21:27Z</time>
      </trkpt>
      <trkpt lat="44.31496" lon="5.82879">
        <ele>568</ele>
        <time>2019-06-25T07:21:28Z</time>
      </trkpt>
      <trkpt lat="44.31494" lon="5.82883">
        <ele>568</ele>
        <time>2019-06-25T07:21:29Z</time>
      </trkpt>
      <trkpt lat="44.31492" lon="5.82887">
        <ele>568</ele>
        <time>2019-06-25T07:21:30Z</time>
      </trkpt>
      <trkpt lat="44.3149" lon="5.8289">
        <ele>568</ele>
        <time>2019-06-25T07:21:31Z</time>
      </trkpt>
      <trkpt lat="44.31488" lon="5.82894">
        <ele>568</ele>
        <time>2019-06-25T07:21:32Z</time>
      </trkpt>
      <trkpt lat="44.31486" lon="5.82898">
        <ele>568</ele>
        <time>2019-06-25T07:21:33Z</time>
      </trkpt>
      <trkpt lat="44.31485" lon="5.82901">
        <ele>568</ele>
        <time>2019-06-25T07:21:34Z</time>
      </trkpt>
      <trkpt lat="44.31482" lon="5.82905">
        <ele>568</ele>
        <time>2019-06-25T07:21:35Z</time>
      </trkpt>
      <trkpt lat="44.3148" lon="5.82909">
        <ele>568</ele>
        <time>2019-06-25T07:21:36Z</time>
      </trkpt>
      <trkpt lat="44.31477" lon="5.82913">
        <ele>568</ele>
        <time>2019-06-25T07:21:37Z</time>
      </trkpt>
      <trkpt lat="44.31475" lon="5.82916">
        <ele>568</ele>
        <time>2019-06-25T07:21:38Z</time>
      </trkpt>
      <trkpt lat="44.31472" lon="5.8292">
        <ele>568</ele>
        <time>2019-06-25T07:21:39Z</time>
      </trkpt>
      <trkpt lat="44.31469" lon="5.82923">
        <ele>568</ele>
        <time>2019-06-25T07:21:40Z</time>
      </trkpt>
      <trkpt lat="44.31467" lon="5.82928">
        <ele>568</ele>
        <time>2019-06-25T07:21:41Z</time>
      </trkpt>
      <trkpt lat="44.31464" lon="5.82932">
        <ele>568</ele>
        <time>2019-06-25T07:21:42Z</time>
      </trkpt>
      <trkpt lat="44.31462" lon="5.82936">
        <ele>568</ele>
        <time>2019-06-25T07:21:43Z</time>
      </trkpt>
      <trkpt lat="44.31459" lon="5.8294">
        <ele>568</ele>
        <time>2019-06-25T07:21:44Z</time>
      </trkpt>
      <trkpt lat="44.31456" lon="5.82943">
        <ele>568</ele>
        <time>2019-06-25T07:21:45Z</time>
      </trkpt>
      <trkpt lat="44.31453" lon="5.82947">
        <ele>568</ele>
        <time>2019-06-25T07:21:46Z</time>
      </trkpt>
      <trkpt lat="44.3145" lon="5.82952">
        <ele>568</ele>
        <time>2019-06-25T07:21:47Z</time>
      </trkpt>
      <trkpt lat="44.31447" lon="5.82956">
        <ele>568</ele>
        <time>2019-06-25T07:21:48Z</time>
      </trkpt>
      <trkpt lat="44.31444" lon="5.8296">
        <ele>568</ele>
        <time>2019-06-25T07:21:49Z</time>
      </trkpt>
      <trkpt lat="44.31441" lon="5.82965">
        <ele>568</ele>
        <time>2019-06-25T07:21:50Z</time>
      </trkpt>
      <trkpt lat="44.31438" lon="5.82969">
        <ele>568</ele>
        <time>2019-06-25T07:21:51Z</time>
      </trkpt>
      <trkpt lat="44.31435" lon="5.82973">
        <ele>568</ele>
        <time>2019-06-25T07:21:52Z</time>
      </trkpt>
      <trkpt lat="44.31432" lon="5.82978">
        <ele>568</ele>
        <time>2019-06-25T07:21:53Z</time>
      </trkpt>
      <trkpt lat="44.31429" lon="5.82983">
        <ele>568</ele>
        <time>2019-06-25T07:21:54Z</time>
      </trkpt>
      <trkpt lat="44.31426" lon="5.82987">
        <ele>568</ele>
        <time>2019-06-25T07:21:55Z</time>
      </trkpt>
      <trkpt lat="44.31423" lon="5.82991">
        <ele>568</ele>
        <time>2019-06-25T07:21:56Z</time>
      </trkpt>
      <trkpt lat="44.3142" lon="5.82996">
        <ele>568</ele>
        <time>2019-06-25T07:21:57Z</time>
      </trkpt>
      <trkpt lat="44.31417" lon="5.83001">
        <ele>568</ele>
        <time>2019-06-25T07:21:58Z</time>
      </trkpt>
      <trkpt lat="44.31414" lon="5.83005">
        <ele>568</ele>
        <time>2019-06-25T07:21:59Z</time>
      </trkpt>
      <trkpt lat="44.31411" lon="5.8301">
        <ele>568</ele>
        <time>2019-06-25T07:22:00Z</time>
      </trkpt>
      <trkpt lat="44.31408" lon="5.83015">
        <ele>568</ele>
        <time>2019-06-25T07:22:01Z</time>
      </trkpt>
      <trkpt lat="44.31404" lon="5.83019">
        <ele>568</ele>
        <time>2019-06-25T07:22:02Z</time>
      </trkpt>
      <trkpt lat="44.31401" lon="5.83024">
        <ele>568</ele>
        <time>2019-06-25T07:22:03Z</time>
      </trkpt>
      <trkpt lat="44.31398" lon="5.83028">
        <ele>568</ele>
        <time>2019-06-25T07:22:04Z</time>
      </trkpt>
      <trkpt lat="44.31395" lon="5.83033">
        <ele>568</ele>
        <time>2019-06-25T07:22:05Z</time>
      </trkpt>
      <trkpt lat="44.31393" lon="5.83037">
        <ele>568</ele>
        <time>2019-06-25T07:22:06Z</time>
      </trkpt>
      <trkpt lat="44.3139" lon="5.83041">
        <ele>568</ele>
        <time>2019-06-25T07:22:07Z</time>
      </trkpt>
      <trkpt lat="44.31387" lon="5.83045">
        <ele>568</ele>
        <time>2019-06-25T07:22:08Z</time>
      </trkpt>
      <trkpt lat="44.31384" lon="5.83049">
        <ele>568</ele>
        <time>2019-06-25T07:22:09Z</time>
      </trkpt>
      <trkpt lat="44.31381" lon="5.83053">
        <ele>568</ele>
        <time>2019-06-25T07:22:10Z</time>
      </trkpt>
      <trkpt lat="44.31378" lon="5.83057">
        <ele>568</ele>
        <time>2019-06-25T07:22:11Z</time>
      </trkpt>
      <trkpt lat="44.31376" lon="5.83061">
        <ele>568</ele>
        <time>2019-06-25T07:22:12Z</time>
      </trkpt>
      <trkpt lat="44.31374" lon="5.83065">
        <ele>568</ele>
        <time>2019-06-25T07:22:13Z</time>
      </trkpt>
      <trkpt lat="44.31372" lon="5.8307">
        <ele>568</ele>
        <time>2019-06-25T07:22:14Z</time>
      </trkpt>
      <trkpt lat="44.3137" lon="5.83074">
        <ele>568</ele>
        <time>2019-06-25T07:22:15Z</time>
      </trkpt>
      <trkpt lat="44.31369" lon="5.83079">
        <ele>568</ele>
        <time>2019-06-25T07:22:16Z</time>
      </trkpt>
      <trkpt lat="44.31367" lon="5.83083">
        <ele>568</ele>
        <time>2019-06-25T07:22:17Z</time>
      </trkpt>
      <trkpt lat="44.31366" lon="5.83088">
        <ele>568</ele>
        <time>2019-06-25T07:22:18Z</time>
      </trkpt>
      <trkpt lat="44.31365" lon="5.83094">
        <ele>568</ele>
        <time>2019-06-25T07:22:19Z</time>
      </trkpt>
      <trkpt lat="44.31364" lon="5.83098">
        <ele>568</ele>
        <time>2019-06-25T07:22:20Z</time>
      </trkpt>
      <trkpt lat="44.31363" lon="5.83101">
        <ele>568</ele>
        <time>2019-06-25T07:22:21Z</time>
      </trkpt>
      <trkpt lat="44.31361" lon="5.83103">
        <ele>568</ele>
        <time>2019-06-25T07:22:22Z</time>
      </trkpt>
      <trkpt lat="44.31358" lon="5.83104">
        <ele>568</ele>
        <time>2019-06-25T07:22:23Z</time>
      </trkpt>
      <trkpt lat="44.31356" lon="5.83105">
        <ele>568</ele>
        <time>2019-06-25T07:22:24Z</time>
      </trkpt>
      <trkpt lat="44.31353" lon="5.83105">
        <ele>568</ele>
        <time>2019-06-25T07:22:25Z</time>
      </trkpt>
      <trkpt lat="44.31351" lon="5.83103">
        <ele>568</ele>
        <time>2019-06-25T07:22:26Z</time>
      </trkpt>
      <trkpt lat="44.3135" lon="5.83099">
        <ele>568</ele>
        <time>2019-06-25T07:22:27Z</time>
      </trkpt>
      <trkpt lat="44.3135" lon="5.83095">
        <ele>568</ele>
        <time>2019-06-25T07:22:28Z</time>
      </trkpt>
      <trkpt lat="44.3135" lon="5.8309">
        <ele>568</ele>
        <time>2019-06-25T07:22:29Z</time>
      </trkpt>
      <trkpt lat="44.3135" lon="5.83085">
        <ele>568</ele>
        <time>2019-06-25T07:22:30Z</time>
      </trkpt>
      <trkpt lat="44.3135" lon="5.8308">
        <ele>568</ele>
        <time>2019-06-25T07:22:31Z</time>
      </trkpt>
      <trkpt lat="44.3135" lon="5.83075">
        <ele>568</ele>
        <time>2019-06-25T07:22:32Z</time>
      </trkpt>
      <trkpt lat="44.31351" lon="5.8307">
        <ele>568</ele>
        <time>2019-06-25T07:22:33Z</time>
      </trkpt>
      <trkpt lat="44.31352" lon="5.83065">
        <ele>568</ele>
        <time>2019-06-25T07:22:34Z</time>
      </trkpt>
      <trkpt lat="44.31353" lon="5.83059">
        <ele>568</ele>
        <time>2019-06-25T07:22:35Z</time>
      </trkpt>
      <trkpt lat="44.31355" lon="5.83053">
        <ele>568</ele>
        <time>2019-06-25T07:22:36Z</time>
      </trkpt>
      <trkpt lat="44.31356" lon="5.83047">
        <ele>567</ele>
        <time>2019-06-25T07:22:37Z</time>
      </trkpt>
      <trkpt lat="44.31358" lon="5.83041">
        <ele>566</ele>
        <time>2019-06-25T07:22:38Z</time>
      </trkpt>
      <trkpt lat="44.31359" lon="5.83036">
        <ele>565</ele>
        <time>2019-06-25T07:22:39Z</time>
      </trkpt>
      <trkpt lat="44.3136" lon="5.83029">
        <ele>565</ele>
        <time>2019-06-25T07:22:40Z</time>
      </trkpt>
      <trkpt lat="44.31361" lon="5.83023">
        <ele>565</ele>
        <time>2019-06-25T07:22:41Z</time>
      </trkpt>
      <trkpt lat="44.31362" lon="5.83017">
        <ele>564</ele>
        <time>2019-06-25T07:22:42Z</time>
      </trkpt>
      <trkpt lat="44.31364" lon="5.8301">
        <ele>564</ele>
        <time>2019-06-25T07:22:43Z</time>
      </trkpt>
      <trkpt lat="44.31365" lon="5.83004">
        <ele>564</ele>
        <time>2019-06-25T07:22:44Z</time>
      </trkpt>
      <trkpt lat="44.31366" lon="5.82998">
        <ele>563</ele>
        <time>2019-06-25T07:22:45Z</time>
      </trkpt>
      <trkpt lat="44.31366" lon="5.8299">
        <ele>563</ele>
        <time>2019-06-25T07:22:46Z</time>
      </trkpt>
      <trkpt lat="44.31366" lon="5.82982">
        <ele>563</ele>
        <time>2019-06-25T07:22:47Z</time>
      </trkpt>
      <trkpt lat="44.31367" lon="5.82975">
        <ele>563</ele>
        <time>2019-06-25T07:22:48Z</time>
      </trkpt>
      <trkpt lat="44.31368" lon="5.82966">
        <ele>563</ele>
        <time>2019-06-25T07:22:49Z</time>
      </trkpt>
      <trkpt lat="44.31369" lon="5.82958">
        <ele>563</ele>
        <time>2019-06-25T07:22:50Z</time>
      </trkpt>
      <trkpt lat="44.3137" lon="5.82949">
        <ele>563</ele>
        <time>2019-06-25T07:22:51Z</time>
      </trkpt>
      <trkpt lat="44.31371" lon="5.8294">
        <ele>563</ele>
        <time>2019-06-25T07:22:52Z</time>
      </trkpt>
      <trkpt lat="44.31371" lon="5.82931">
        <ele>563</ele>
        <time>2019-06-25T07:22:53Z</time>
      </trkpt>
      <trkpt lat="44.31372" lon="5.82922">
        <ele>563</ele>
        <time>2019-06-25T07:22:54Z</time>
      </trkpt>
      <trkpt lat="44.31373" lon="5.82913">
        <ele>563</ele>
        <time>2019-06-25T07:22:55Z</time>
      </trkpt>
      <trkpt lat="44.31374" lon="5.82904">
        <ele>563</ele>
        <time>2019-06-25T07:22:56Z</time>
      </trkpt>
      <trkpt lat="44.31375" lon="5.82896">
        <ele>563</ele>
        <time>2019-06-25T07:22:57Z</time>
      </trkpt>
      <trkpt lat="44.31375" lon="5.82888">
        <ele>563</ele>
        <time>2019-06-25T07:22:58Z</time>
      </trkpt>
      <trkpt lat="44.31376" lon="5.8288">
        <ele>563</ele>
        <time>2019-06-25T07:22:59Z</time>
      </trkpt>
      <trkpt lat="44.31377" lon="5.82871">
        <ele>563</ele>
        <time>2019-06-25T07:23:00Z</time>
      </trkpt>
      <trkpt lat="44.31377" lon="5.82863">
        <ele>563</ele>
        <time>2019-06-25T07:23:01Z</time>
      </trkpt>
      <trkpt lat="44.31378" lon="5.82855">
        <ele>563</ele>
        <time>2019-06-25T07:23:02Z</time>
      </trkpt>
      <trkpt lat="44.31379" lon="5.82846">
        <ele>563</ele>
        <time>2019-06-25T07:23:03Z</time>
      </trkpt>
      <trkpt lat="44.31379" lon="5.82838">
        <ele>563</ele>
        <time>2019-06-25T07:23:04Z</time>
      </trkpt>
      <trkpt lat="44.3138" lon="5.8283">
        <ele>563</ele>
        <time>2019-06-25T07:23:05Z</time>
      </trkpt>
      <trkpt lat="44.31381" lon="5.82822">
        <ele>563</ele>
        <time>2019-06-25T07:23:06Z</time>
      </trkpt>
      <trkpt lat="44.31382" lon="5.82813">
        <ele>563</ele>
        <time>2019-06-25T07:23:07Z</time>
      </trkpt>
      <trkpt lat="44.31383" lon="5.82805">
        <ele>563</ele>
        <time>2019-06-25T07:23:08Z</time>
      </trkpt>
      <trkpt lat="44.31384" lon="5.82797">
        <ele>563</ele>
        <time>2019-06-25T07:23:09Z</time>
      </trkpt>
      <trkpt lat="44.31384" lon="5.82789">
        <ele>563</ele>
        <time>2019-06-25T07:23:10Z</time>
      </trkpt>
      <trkpt lat="44.31384" lon="5.82782">
        <ele>562</ele>
        <time>2019-06-25T07:23:11Z</time>
      </trkpt>
      <trkpt lat="44.31385" lon="5.82774">
        <ele>562</ele>
        <time>2019-06-25T07:23:12Z</time>
      </trkpt>
      <trkpt lat="44.31385" lon="5.82766">
        <ele>561</ele>
        <time>2019-06-25T07:23:13Z</time>
      </trkpt>
      <trkpt lat="44.31384" lon="5.82759">
        <ele>561</ele>
        <time>2019-06-25T07:23:14Z</time>
      </trkpt>
      <trkpt lat="44.31384" lon="5.82751">
        <ele>561</ele>
        <time>2019-06-25T07:23:15Z</time>
      </trkpt>
      <trkpt lat="44.31383" lon="5.82744">
        <ele>561</ele>
        <time>2019-06-25T07:23:16Z</time>
      </trkpt>
      <trkpt lat="44.31382" lon="5.82736">
        <ele>561</ele>
        <time>2019-06-25T07:23:17Z</time>
      </trkpt>
      <trkpt lat="44.31382" lon="5.82728">
        <ele>561</ele>
        <time>2019-06-25T07:23:18Z</time>
      </trkpt>
      <trkpt lat="44.31382" lon="5.82721">
        <ele>561</ele>
        <time>2019-06-25T07:23:19Z</time>
      </trkpt>
      <trkpt lat="44.3138" lon="5.82714">
        <ele>561</ele>
        <time>2019-06-25T07:23:20Z</time>
      </trkpt>
      <trkpt lat="44.31379" lon="5.82706">
        <ele>561</ele>
        <time>2019-06-25T07:23:21Z</time>
      </trkpt>
      <trkpt lat="44.31379" lon="5.82699">
        <ele>561</ele>
        <time>2019-06-25T07:23:22Z</time>
      </trkpt>
      <trkpt lat="44.31379" lon="5.82691">
        <ele>561</ele>
        <time>2019-06-25T07:23:23Z</time>
      </trkpt>
      <trkpt lat="44.3138" lon="5.82684">
        <ele>561</ele>
        <time>2019-06-25T07:23:24Z</time>
      </trkpt>
      <trkpt lat="44.31382" lon="5.82677">
        <ele>561</ele>
        <time>2019-06-25T07:23:25Z</time>
      </trkpt>
      <trkpt lat="44.31384" lon="5.8267">
        <ele>561</ele>
        <time>2019-06-25T07:23:26Z</time>
      </trkpt>
      <trkpt lat="44.31386" lon="5.82664">
        <ele>561</ele>
        <time>2019-06-25T07:23:27Z</time>
      </trkpt>
      <trkpt lat="44.31389" lon="5.82658">
        <ele>561</ele>
        <time>2019-06-25T07:23:28Z</time>
      </trkpt>
      <trkpt lat="44.31392" lon="5.82653">
        <ele>561</ele>
        <time>2019-06-25T07:23:29Z</time>
      </trkpt>
      <trkpt lat="44.31395" lon="5.82646">
        <ele>561</ele>
        <time>2019-06-25T07:23:30Z</time>
      </trkpt>
      <trkpt lat="44.31397" lon="5.82639">
        <ele>561</ele>
        <time>2019-06-25T07:23:31Z</time>
      </trkpt>
      <trkpt lat="44.31399" lon="5.82632">
        <ele>561</ele>
        <time>2019-06-25T07:23:32Z</time>
      </trkpt>
      <trkpt lat="44.31401" lon="5.82625">
        <ele>561</ele>
        <time>2019-06-25T07:23:33Z</time>
      </trkpt>
      <trkpt lat="44.31403" lon="5.82618">
        <ele>562</ele>
        <time>2019-06-25T07:23:34Z</time>
      </trkpt>
      <trkpt lat="44.31405" lon="5.82611">
        <ele>563</ele>
        <time>2019-06-25T07:23:35Z</time>
      </trkpt>
      <trkpt lat="44.31406" lon="5.82604">
        <ele>563</ele>
        <time>2019-06-25T07:23:36Z</time>
      </trkpt>
      <trkpt lat="44.31408" lon="5.82596">
        <ele>564</ele>
        <time>2019-06-25T07:23:37Z</time>
      </trkpt>
      <trkpt lat="44.31409" lon="5.82589">
        <ele>564</ele>
        <time>2019-06-25T07:23:38Z</time>
      </trkpt>
      <trkpt lat="44.31411" lon="5.82582">
        <ele>564</ele>
        <time>2019-06-25T07:23:39Z</time>
      </trkpt>
      <trkpt lat="44.31412" lon="5.82574">
        <ele>564</ele>
        <time>2019-06-25T07:23:40Z</time>
      </trkpt>
      <trkpt lat="44.31414" lon="5.82567">
        <ele>565</ele>
        <time>2019-06-25T07:23:41Z</time>
      </trkpt>
      <trkpt lat="44.31415" lon="5.8256">
        <ele>565</ele>
        <time>2019-06-25T07:23:42Z</time>
      </trkpt>
      <trkpt lat="44.31417" lon="5.82553">
        <ele>565</ele>
        <time>2019-06-25T07:23:43Z</time>
      </trkpt>
      <trkpt lat="44.31419" lon="5.82547">
        <ele>565</ele>
        <time>2019-06-25T07:23:44Z</time>
      </trkpt>
      <trkpt lat="44.3142" lon="5.8254">
        <ele>566</ele>
        <time>2019-06-25T07:23:45Z</time>
      </trkpt>
      <trkpt lat="44.31421" lon="5.82533">
        <ele>567</ele>
        <time>2019-06-25T07:23:46Z</time>
      </trkpt>
      <trkpt lat="44.31422" lon="5.82526">
        <ele>568</ele>
        <time>2019-06-25T07:23:47Z</time>
      </trkpt>
      <trkpt lat="44.31424" lon="5.82519">
        <ele>569</ele>
        <time>2019-06-25T07:23:48Z</time>
      </trkpt>
      <trkpt lat="44.31425" lon="5.82511">
        <ele>570</ele>
        <time>2019-06-25T07:23:49Z</time>
      </trkpt>
      <trkpt lat="44.31427" lon="5.82504">
        <ele>571</ele>
        <time>2019-06-25T07:23:50Z</time>
      </trkpt>
      <trkpt lat="44.31428" lon="5.82498">
        <ele>572</ele>
        <time>2019-06-25T07:23:51Z</time>
      </trkpt>
      <trkpt lat="44.3143" lon="5.82492">
        <ele>572</ele>
        <time>2019-06-25T07:23:52Z</time>
      </trkpt>
      <trkpt lat="44.31432" lon="5.82485">
        <ele>572</ele>
        <time>2019-06-25T07:23:53Z</time>
      </trkpt>
      <trkpt lat="44.31433" lon="5.82478">
        <ele>572</ele>
        <time>2019-06-25T07:23:54Z</time>
      </trkpt>
      <trkpt lat="44.31435" lon="5.82471">
        <ele>572</ele>
        <time>2019-06-25T07:23:55Z</time>
      </trkpt>
      <trkpt lat="44.31435" lon="5.82464">
        <ele>572</ele>
        <time>2019-06-25T07:23:55Z</time>
      </trkpt>
      <trkpt lat="44.31437" lon="5.82457">
        <ele>572</ele>
        <time>2019-06-25T07:23:57Z</time>
      </trkpt>
      <trkpt lat="44.31438" lon="5.8245">
        <ele>573</ele>
        <time>2019-06-25T07:23:58Z</time>
      </trkpt>
      <trkpt lat="44.3144" lon="5.82443">
        <ele>574</ele>
        <time>2019-06-25T07:23:59Z</time>
      </trkpt>
      <trkpt lat="44.31441" lon="5.82436">
        <ele>574</ele>
        <time>2019-06-25T07:24:00Z</time>
      </trkpt>
      <trkpt lat="44.31442" lon="5.82429">
        <ele>574</ele>
        <time>2019-06-25T07:24:01Z</time>
      </trkpt>
      <trkpt lat="44.31442" lon="5.82422">
        <ele>574</ele>
        <time>2019-06-25T07:24:02Z</time>
      </trkpt>
      <trkpt lat="44.31442" lon="5.82416">
        <ele>574</ele>
        <time>2019-06-25T07:24:03Z</time>
      </trkpt>
      <trkpt lat="44.31443" lon="5.82409">
        <ele>574</ele>
        <time>2019-06-25T07:24:04Z</time>
      </trkpt>
      <trkpt lat="44.31443" lon="5.82403">
        <ele>574</ele>
        <time>2019-06-25T07:24:05Z</time>
      </trkpt>
      <trkpt lat="44.31444" lon="5.82397">
        <ele>574</ele>
        <time>2019-06-25T07:24:06Z</time>
      </trkpt>
      <trkpt lat="44.31444" lon="5.82391">
        <ele>574</ele>
        <time>2019-06-25T07:24:07Z</time>
      </trkpt>
      <trkpt lat="44.31444" lon="5.82385">
        <ele>574</ele>
        <time>2019-06-25T07:24:08Z</time>
      </trkpt>
      <trkpt lat="44.31445" lon="5.82379">
        <ele>574</ele>
        <time>2019-06-25T07:24:09Z</time>
      </trkpt>
      <trkpt lat="44.31446" lon="5.82375">
        <ele>574</ele>
        <time>2019-06-25T07:24:10Z</time>
      </trkpt>
      <trkpt lat="44.31448" lon="5.82371">
        <ele>573</ele>
        <time>2019-06-25T07:24:11Z</time>
      </trkpt>
      <trkpt lat="44.31449" lon="5.82368">
        <ele>572</ele>
        <time>2019-06-25T07:24:12Z</time>
      </trkpt>
      <trkpt lat="44.31451" lon="5.82366">
        <ele>571</ele>
        <time>2019-06-25T07:24:13Z</time>
      </trkpt>
      <trkpt lat="44.31453" lon="5.82367">
        <ele>571</ele>
        <time>2019-06-25T07:24:14Z</time>
      </trkpt>
      <trkpt lat="44.31456" lon="5.82371">
        <ele>571</ele>
        <time>2019-06-25T07:24:15Z</time>
      </trkpt>
      <trkpt lat="44.31459" lon="5.82375">
        <ele>571</ele>
        <time>2019-06-25T07:24:16Z</time>
      </trkpt>
      <trkpt lat="44.31464" lon="5.82379">
        <ele>571</ele>
        <time>2019-06-25T07:24:17Z</time>
      </trkpt>
      <trkpt lat="44.31468" lon="5.82383">
        <ele>571</ele>
        <time>2019-06-25T07:24:18Z</time>
      </trkpt>
      <trkpt lat="44.31473" lon="5.82387">
        <ele>571</ele>
        <time>2019-06-25T07:24:19Z</time>
      </trkpt>
      <trkpt lat="44.31477" lon="5.82392">
        <ele>571</ele>
        <time>2019-06-25T07:24:20Z</time>
      </trkpt>
      <trkpt lat="44.31482" lon="5.82397">
        <ele>571</ele>
        <time>2019-06-25T07:24:21Z</time>
      </trkpt>
      <trkpt lat="44.31486" lon="5.82402">
        <ele>571</ele>
        <time>2019-06-25T07:24:22Z</time>
      </trkpt>
      <trkpt lat="44.31491" lon="5.82408">
        <ele>571</ele>
        <time>2019-06-25T07:24:23Z</time>
      </trkpt>
      <trkpt lat="44.31495" lon="5.82414">
        <ele>571</ele>
        <time>2019-06-25T07:24:24Z</time>
      </trkpt>
      <trkpt lat="44.31498" lon="5.8242">
        <ele>571</ele>
        <time>2019-06-25T07:24:25Z</time>
      </trkpt>
      <trkpt lat="44.31503" lon="5.82426">
        <ele>571</ele>
        <time>2019-06-25T07:24:26Z</time>
      </trkpt>
      <trkpt lat="44.31508" lon="5.82432">
        <ele>571</ele>
        <time>2019-06-25T07:24:27Z</time>
      </trkpt>
      <trkpt lat="44.31513" lon="5.82438">
        <ele>571</ele>
        <time>2019-06-25T07:24:28Z</time>
      </trkpt>
      <trkpt lat="44.31519" lon="5.82443">
        <ele>571</ele>
        <time>2019-06-25T07:24:29Z</time>
      </trkpt>
      <trkpt lat="44.31525" lon="5.82448">
        <ele>571</ele>
        <time>2019-06-25T07:24:30Z</time>
      </trkpt>
      <trkpt lat="44.31531" lon="5.82454">
        <ele>571</ele>
        <time>2019-06-25T07:24:31Z</time>
      </trkpt>
      <trkpt lat="44.31536" lon="5.8246">
        <ele>571</ele>
        <time>2019-06-25T07:24:32Z</time>
      </trkpt>
      <trkpt lat="44.31541" lon="5.82465">
        <ele>571</ele>
        <time>2019-06-25T07:24:33Z</time>
      </trkpt>
      <trkpt lat="44.31546" lon="5.82471">
        <ele>571</ele>
        <time>2019-06-25T07:24:34Z</time>
      </trkpt>
      <trkpt lat="44.31551" lon="5.82476">
        <ele>571</ele>
        <time>2019-06-25T07:24:35Z</time>
      </trkpt>
      <trkpt lat="44.31555" lon="5.8248">
        <ele>571</ele>
        <time>2019-06-25T07:24:36Z</time>
      </trkpt>
      <trkpt lat="44.3156" lon="5.82485">
        <ele>572</ele>
        <time>2019-06-25T07:24:37Z</time>
      </trkpt>
      <trkpt lat="44.31564" lon="5.8249">
        <ele>573</ele>
        <time>2019-06-25T07:24:38Z</time>
      </trkpt>
      <trkpt lat="44.31569" lon="5.82495">
        <ele>573</ele>
        <time>2019-06-25T07:24:39Z</time>
      </trkpt>
      <trkpt lat="44.31573" lon="5.82499">
        <ele>574</ele>
        <time>2019-06-25T07:24:40Z</time>
      </trkpt>
      <trkpt lat="44.31578" lon="5.82504">
        <ele>574</ele>
        <time>2019-06-25T07:24:41Z</time>
      </trkpt>
      <trkpt lat="44.31582" lon="5.82507">
        <ele>575</ele>
        <time>2019-06-25T07:24:42Z</time>
      </trkpt>
      <trkpt lat="44.31587" lon="5.82512">
        <ele>575</ele>
        <time>2019-06-25T07:24:43Z</time>
      </trkpt>
      <trkpt lat="44.31592" lon="5.82517">
        <ele>575</ele>
        <time>2019-06-25T07:24:44Z</time>
      </trkpt>
      <trkpt lat="44.31597" lon="5.82522">
        <ele>575</ele>
        <time>2019-06-25T07:24:45Z</time>
      </trkpt>
      <trkpt lat="44.31601" lon="5.82526">
        <ele>575</ele>
        <time>2019-06-25T07:24:46Z</time>
      </trkpt>
      <trkpt lat="44.31605" lon="5.82531">
        <ele>575</ele>
        <time>2019-06-25T07:24:47Z</time>
      </trkpt>
      <trkpt lat="44.3161" lon="5.82535">
        <ele>575</ele>
        <time>2019-06-25T07:24:48Z</time>
      </trkpt>
      <trkpt lat="44.31613" lon="5.82539">
        <ele>575</ele>
        <time>2019-06-25T07:24:49Z</time>
      </trkpt>
      <trkpt lat="44.31617" lon="5.82542">
        <ele>575</ele>
        <time>2019-06-25T07:24:50Z</time>
      </trkpt>
      <trkpt lat="44.31621" lon="5.82546">
        <ele>575</ele>
        <time>2019-06-25T07:24:51Z</time>
      </trkpt>
      <trkpt lat="44.31632" lon="5.82559">
        <ele>575</ele>
        <time>2019-06-25T07:24:54Z</time>
      </trkpt>
      <trkpt lat="44.31638" lon="5.82565">
        <ele>575</ele>
        <time>2019-06-25T07:24:55Z</time>
      </trkpt>
      <trkpt lat="44.31642" lon="5.8257">
        <ele>575</ele>
        <time>2019-06-25T07:24:56Z</time>
      </trkpt>
      <trkpt lat="44.31646" lon="5.82575">
        <ele>575</ele>
        <time>2019-06-25T07:24:57Z</time>
      </trkpt>
      <trkpt lat="44.31652" lon="5.8258">
        <ele>575</ele>
        <time>2019-06-25T07:24:58Z</time>
      </trkpt>
      <trkpt lat="44.31658" lon="5.82585">
        <ele>575</ele>
        <time>2019-06-25T07:24:59Z</time>
      </trkpt>
      <trkpt lat="44.31664" lon="5.82589">
        <ele>575</ele>
        <time>2019-06-25T07:25:00Z</time>
      </trkpt>
      <trkpt lat="44.31668" lon="5.82594">
        <ele>575</ele>
        <time>2019-06-25T07:25:01Z</time>
      </trkpt>
      <trkpt lat="44.31673" lon="5.82599">
        <ele>574</ele>
        <time>2019-06-25T07:25:02Z</time>
      </trkpt>
      <trkpt lat="44.31677" lon="5.82604">
        <ele>573</ele>
        <time>2019-06-25T07:25:03Z</time>
      </trkpt>
      <trkpt lat="44.31681" lon="5.82609">
        <ele>573</ele>
        <time>2019-06-25T07:25:04Z</time>
      </trkpt>
      <trkpt lat="44.31686" lon="5.82613">
        <ele>572</ele>
        <time>2019-06-25T07:25:05Z</time>
      </trkpt>
      <trkpt lat="44.31691" lon="5.82618">
        <ele>572</ele>
        <time>2019-06-25T07:25:06Z</time>
      </trkpt>
      <trkpt lat="44.31695" lon="5.82622">
        <ele>572</ele>
        <time>2019-06-25T07:25:07Z</time>
      </trkpt>
      <trkpt lat="44.31699" lon="5.82626">
        <ele>572</ele>
        <time>2019-06-25T07:25:08Z</time>
      </trkpt>
      <trkpt lat="44.31702" lon="5.8263">
        <ele>572</ele>
        <time>2019-06-25T07:25:09Z</time>
      </trkpt>
      <trkpt lat="44.31707" lon="5.82635">
        <ele>572</ele>
        <time>2019-06-25T07:25:10Z</time>
      </trkpt>
      <trkpt lat="44.31712" lon="5.82639">
        <ele>571</ele>
        <time>2019-06-25T07:25:11Z</time>
      </trkpt>
      <trkpt lat="44.31716" lon="5.82644">
        <ele>571</ele>
        <time>2019-06-25T07:25:12Z</time>
      </trkpt>
      <trkpt lat="44.31721" lon="5.82648">
        <ele>571</ele>
        <time>2019-06-25T07:25:13Z</time>
      </trkpt>
      <trkpt lat="44.31725" lon="5.82652">
        <ele>571</ele>
        <time>2019-06-25T07:25:14Z</time>
      </trkpt>
      <trkpt lat="44.3173" lon="5.82656">
        <ele>571</ele>
        <time>2019-06-25T07:25:15Z</time>
      </trkpt>
      <trkpt lat="44.31734" lon="5.8266">
        <ele>571</ele>
        <time>2019-06-25T07:25:16Z</time>
      </trkpt>
      <trkpt lat="44.31738" lon="5.82665">
        <ele>571</ele>
        <time>2019-06-25T07:25:17Z</time>
      </trkpt>
      <trkpt lat="44.31742" lon="5.82669">
        <ele>571</ele>
        <time>2019-06-25T07:25:18Z</time>
      </trkpt>
      <trkpt lat="44.31746" lon="5.82673">
        <ele>571</ele>
        <time>2019-06-25T07:25:19Z</time>
      </trkpt>
      <trkpt lat="44.31751" lon="5.82677">
        <ele>571</ele>
        <time>2019-06-25T07:25:20Z</time>
      </trkpt>
      <trkpt lat="44.31755" lon="5.82681">
        <ele>571</ele>
        <time>2019-06-25T07:25:21Z</time>
      </trkpt>
      <trkpt lat="44.31759" lon="5.82685">
        <ele>571</ele>
        <time>2019-06-25T07:25:22Z</time>
      </trkpt>
      <trkpt lat="44.31763" lon="5.8269">
        <ele>571</ele>
        <time>2019-06-25T07:25:23Z</time>
      </trkpt>
      <trkpt lat="44.31768" lon="5.82694">
        <ele>571</ele>
        <time>2019-06-25T07:25:24Z</time>
      </trkpt>
      <trkpt lat="44.31771" lon="5.82698">
        <ele>571</ele>
        <time>2019-06-25T07:25:25Z</time>
      </trkpt>
      <trkpt lat="44.31774" lon="5.82702">
        <ele>571</ele>
        <time>2019-06-25T07:25:26Z</time>
      </trkpt>
      <trkpt lat="44.31778" lon="5.82707">
        <ele>571</ele>
        <time>2019-06-25T07:25:27Z</time>
      </trkpt>
      <trkpt lat="44.31782" lon="5.82711">
        <ele>571</ele>
        <time>2019-06-25T07:25:28Z</time>
      </trkpt>
      <trkpt lat="44.31787" lon="5.82716">
        <ele>571</ele>
        <time>2019-06-25T07:25:29Z</time>
      </trkpt>
      <trkpt lat="44.31792" lon="5.8272">
        <ele>571</ele>
        <time>2019-06-25T07:25:30Z</time>
      </trkpt>
      <trkpt lat="44.31797" lon="5.82724">
        <ele>571</ele>
        <time>2019-06-25T07:25:31Z</time>
      </trkpt>
      <trkpt lat="44.31801" lon="5.82728">
        <ele>571</ele>
        <time>2019-06-25T07:25:32Z</time>
      </trkpt>
      <trkpt lat="44.31805" lon="5.82732">
        <ele>571</ele>
        <time>2019-06-25T07:25:33Z</time>
      </trkpt>
      <trkpt lat="44.31809" lon="5.82736">
        <ele>571</ele>
        <time>2019-06-25T07:25:34Z</time>
      </trkpt>
      <trkpt lat="44.31813" lon="5.8274">
        <ele>571</ele>
        <time>2019-06-25T07:25:35Z</time>
      </trkpt>
      <trkpt lat="44.31817" lon="5.82744">
        <ele>571</ele>
        <time>2019-06-25T07:25:36Z</time>
      </trkpt>
      <trkpt lat="44.31821" lon="5.82748">
        <ele>571</ele>
        <time>2019-06-25T07:25:37Z</time>
      </trkpt>
      <trkpt lat="44.31826" lon="5.82752">
        <ele>571</ele>
        <time>2019-06-25T07:25:38Z</time>
      </trkpt>
      <trkpt lat="44.31832" lon="5.82756">
        <ele>571</ele>
        <time>2019-06-25T07:25:39Z</time>
      </trkpt>
      <trkpt lat="44.31836" lon="5.82759">
        <ele>571</ele>
        <time>2019-06-25T07:25:40Z</time>
      </trkpt>
      <trkpt lat="44.31841" lon="5.82762">
        <ele>571</ele>
        <time>2019-06-25T07:25:41Z</time>
      </trkpt>
      <trkpt lat="44.31845" lon="5.82764">
        <ele>571</ele>
        <time>2019-06-25T07:25:42Z</time>
      </trkpt>
      <trkpt lat="44.31851" lon="5.82766">
        <ele>571</ele>
        <time>2019-06-25T07:25:43Z</time>
      </trkpt>
      <trkpt lat="44.31856" lon="5.82768">
        <ele>571</ele>
        <time>2019-06-25T07:25:44Z</time>
      </trkpt>
      <trkpt lat="44.31862" lon="5.8277">
        <ele>571</ele>
        <time>2019-06-25T07:25:45Z</time>
      </trkpt>
      <trkpt lat="44.31867" lon="5.82772">
        <ele>571</ele>
        <time>2019-06-25T07:25:46Z</time>
      </trkpt>
      <trkpt lat="44.31873" lon="5.82773">
        <ele>571</ele>
        <time>2019-06-25T07:25:47Z</time>
      </trkpt>
      <trkpt lat="44.31879" lon="5.82773">
        <ele>571</ele>
        <time>2019-06-25T07:25:48Z</time>
      </trkpt>
      <trkpt lat="44.31884" lon="5.82774">
        <ele>571</ele>
        <time>2019-06-25T07:25:49Z</time>
      </trkpt>
      <trkpt lat="44.31889" lon="5.82774">
        <ele>571</ele>
        <time>2019-06-25T07:25:50Z</time>
      </trkpt>
      <trkpt lat="44.31894" lon="5.82774">
        <ele>571</ele>
        <time>2019-06-25T07:25:51Z</time>
      </trkpt>
      <trkpt lat="44.319" lon="5.82774">
        <ele>571</ele>
        <time>2019-06-25T07:25:52Z</time>
      </trkpt>
      <trkpt lat="44.31905" lon="5.82774">
        <ele>571</ele>
        <time>2019-06-25T07:25:53Z</time>
      </trkpt>
      <trkpt lat="44.3191" lon="5.82774">
        <ele>571</ele>
        <time>2019-06-25T07:25:54Z</time>
      </trkpt>
      <trkpt lat="44.31914" lon="5.82774">
        <ele>571</ele>
        <time>2019-06-25T07:25:55Z</time>
      </trkpt>
      <trkpt lat="44.31919" lon="5.82774">
        <ele>571</ele>
        <time>2019-06-25T07:25:56Z</time>
      </trkpt>
      <trkpt lat="44.31924" lon="5.82774">
        <ele>571</ele>
        <time>2019-06-25T07:25:57Z</time>
      </trkpt>
      <trkpt lat="44.31929" lon="5.82774">
        <ele>571</ele>
        <time>2019-06-25T07:25:58Z</time>
      </trkpt>
      <trkpt lat="44.31935" lon="5.82775">
        <ele>571</ele>
        <time>2019-06-25T07:25:59Z</time>
      </trkpt>
      <trkpt lat="44.3194" lon="5.82776">
        <ele>571</ele>
        <time>2019-06-25T07:26:00Z</time>
      </trkpt>
      <trkpt lat="44.31945" lon="5.82778">
        <ele>571</ele>
        <time>2019-06-25T07:26:01Z</time>
      </trkpt>
      <trkpt lat="44.31949" lon="5.82779">
        <ele>571</ele>
        <time>2019-06-25T07:26:02Z</time>
      </trkpt>
      <trkpt lat="44.31954" lon="5.82781">
        <ele>571</ele>
        <time>2019-06-25T07:26:03Z</time>
      </trkpt>
      <trkpt lat="44.31958" lon="5.82783">
        <ele>571</ele>
        <time>2019-06-25T07:26:04Z</time>
      </trkpt>
      <trkpt lat="44.31963" lon="5.82785">
        <ele>571</ele>
        <time>2019-06-25T07:26:05Z</time>
      </trkpt>
      <trkpt lat="44.31968" lon="5.82787">
        <ele>571</ele>
        <time>2019-06-25T07:26:06Z</time>
      </trkpt>
      <trkpt lat="44.31973" lon="5.82788">
        <ele>571</ele>
        <time>2019-06-25T07:26:07Z</time>
      </trkpt>
      <trkpt lat="44.31977" lon="5.8279">
        <ele>571</ele>
        <time>2019-06-25T07:26:08Z</time>
      </trkpt>
      <trkpt lat="44.31982" lon="5.82792">
        <ele>571</ele>
        <time>2019-06-25T07:26:09Z</time>
      </trkpt>
      <trkpt lat="44.31985" lon="5.82794">
        <ele>571</ele>
        <time>2019-06-25T07:26:10Z</time>
      </trkpt>
      <trkpt lat="44.3199" lon="5.82795">
        <ele>571</ele>
        <time>2019-06-25T07:26:11Z</time>
      </trkpt>
      <trkpt lat="44.31995" lon="5.82797">
        <ele>571</ele>
        <time>2019-06-25T07:26:12Z</time>
      </trkpt>
      <trkpt lat="44.31999" lon="5.82799">
        <ele>571</ele>
        <time>2019-06-25T07:26:13Z</time>
      </trkpt>
      <trkpt lat="44.32003" lon="5.82801">
        <ele>571</ele>
        <time>2019-06-25T07:26:14Z</time>
      </trkpt>
      <trkpt lat="44.32008" lon="5.82803">
        <ele>571</ele>
        <time>2019-06-25T07:26:15Z</time>
      </trkpt>
      <trkpt lat="44.32012" lon="5.82805">
        <ele>571</ele>
        <time>2019-06-25T07:26:16Z</time>
      </trkpt>
      <trkpt lat="44.32016" lon="5.82808">
        <ele>571</ele>
        <time>2019-06-25T07:26:17Z</time>
      </trkpt>
      <trkpt lat="44.32019" lon="5.8281">
        <ele>571</ele>
        <time>2019-06-25T07:26:18Z</time>
      </trkpt>
      <trkpt lat="44.32023" lon="5.82812">
        <ele>571</ele>
        <time>2019-06-25T07:26:19Z</time>
      </trkpt>
      <trkpt lat="44.32027" lon="5.82814">
        <ele>571</ele>
        <time>2019-06-25T07:26:20Z</time>
      </trkpt>
      <trkpt lat="44.3203" lon="5.82817">
        <ele>571</ele>
        <time>2019-06-25T07:26:21Z</time>
      </trkpt>
      <trkpt lat="44.32033" lon="5.8282">
        <ele>571</ele>
        <time>2019-06-25T07:26:22Z</time>
      </trkpt>
      <trkpt lat="44.32037" lon="5.82822">
        <ele>571</ele>
        <time>2019-06-25T07:26:23Z</time>
      </trkpt>
      <trkpt lat="44.3204" lon="5.82825">
        <ele>571</ele>
        <time>2019-06-25T07:26:24Z</time>
      </trkpt>
      <trkpt lat="44.32044" lon="5.82827">
        <ele>571</ele>
        <time>2019-06-25T07:26:25Z</time>
      </trkpt>
      <trkpt lat="44.32048" lon="5.82829">
        <ele>571</ele>
        <time>2019-06-25T07:26:26Z</time>
      </trkpt>
      <trkpt lat="44.32051" lon="5.82831">
        <ele>571</ele>
        <time>2019-06-25T07:26:27Z</time>
      </trkpt>
      <trkpt lat="44.32055" lon="5.82833">
        <ele>572</ele>
        <time>2019-06-25T07:26:28Z</time>
      </trkpt>
      <trkpt lat="44.32058" lon="5.82835">
        <ele>572</ele>
        <time>2019-06-25T07:26:29Z</time>
      </trkpt>
      <trkpt lat="44.32061" lon="5.82837">
        <ele>573</ele>
        <time>2019-06-25T07:26:30Z</time>
      </trkpt>
      <trkpt lat="44.32064" lon="5.82839">
        <ele>574</ele>
        <time>2019-06-25T07:26:31Z</time>
      </trkpt>
      <trkpt lat="44.32066" lon="5.82841">
        <ele>575</ele>
        <time>2019-06-25T07:26:32Z</time>
      </trkpt>
      <trkpt lat="44.32069" lon="5.82843">
        <ele>576</ele>
        <time>2019-06-25T07:26:33Z</time>
      </trkpt>
      <trkpt lat="44.32071" lon="5.82845">
        <ele>577</ele>
        <time>2019-06-25T07:26:34Z</time>
      </trkpt>
      <trkpt lat="44.32074" lon="5.82847">
        <ele>578</ele>
        <time>2019-06-25T07:26:35Z</time>
      </trkpt>
      <trkpt lat="44.32078" lon="5.82849">
        <ele>579</ele>
        <time>2019-06-25T07:26:36Z</time>
      </trkpt>
      <trkpt lat="44.32081" lon="5.8285">
        <ele>580</ele>
        <time>2019-06-25T07:26:37Z</time>
      </trkpt>
      <trkpt lat="44.32084" lon="5.82851">
        <ele>581</ele>
        <time>2019-06-25T07:26:38Z</time>
      </trkpt>
      <trkpt lat="44.32088" lon="5.82853">
        <ele>582</ele>
        <time>2019-06-25T07:26:39Z</time>
      </trkpt>
      <trkpt lat="44.32091" lon="5.82854">
        <ele>583</ele>
        <time>2019-06-25T07:26:40Z</time>
      </trkpt>
      <trkpt lat="44.32095" lon="5.82855">
        <ele>583</ele>
        <time>2019-06-25T07:26:41Z</time>
      </trkpt>
      <trkpt lat="44.32097" lon="5.82855">
        <ele>584</ele>
        <time>2019-06-25T07:26:42Z</time>
      </trkpt>
      <trkpt lat="44.321" lon="5.82857">
        <ele>585</ele>
        <time>2019-06-25T07:26:43Z</time>
      </trkpt>
      <trkpt lat="44.32103" lon="5.82858">
        <ele>585</ele>
        <time>2019-06-25T07:26:44Z</time>
      </trkpt>
      <trkpt lat="44.32106" lon="5.8286">
        <ele>585</ele>
        <time>2019-06-25T07:26:45Z</time>
      </trkpt>
      <trkpt lat="44.32109" lon="5.82861">
        <ele>585</ele>
        <time>2019-06-25T07:26:46Z</time>
      </trkpt>
      <trkpt lat="44.32113" lon="5.82862">
        <ele>585</ele>
        <time>2019-06-25T07:26:47Z</time>
      </trkpt>
      <trkpt lat="44.32117" lon="5.82863">
        <ele>585</ele>
        <time>2019-06-25T07:26:48Z</time>
      </trkpt>
      <trkpt lat="44.32121" lon="5.82865">
        <ele>585</ele>
        <time>2019-06-25T07:26:49Z</time>
      </trkpt>
      <trkpt lat="44.32125" lon="5.82866">
        <ele>585</ele>
        <time>2019-06-25T07:26:50Z</time>
      </trkpt>
      <trkpt lat="44.32129" lon="5.82868">
        <ele>585</ele>
        <time>2019-06-25T07:26:51Z</time>
      </trkpt>
      <trkpt lat="44.32133" lon="5.82869">
        <ele>585</ele>
        <time>2019-06-25T07:26:52Z</time>
      </trkpt>
      <trkpt lat="44.32138" lon="5.8287">
        <ele>585</ele>
        <time>2019-06-25T07:26:53Z</time>
      </trkpt>
      <trkpt lat="44.32142" lon="5.82871">
        <ele>585</ele>
        <time>2019-06-25T07:26:54Z</time>
      </trkpt>
      <trkpt lat="44.32146" lon="5.82872">
        <ele>585</ele>
        <time>2019-06-25T07:26:55Z</time>
      </trkpt>
      <trkpt lat="44.32151" lon="5.82873">
        <ele>585</ele>
        <time>2019-06-25T07:26:56Z</time>
      </trkpt>
      <trkpt lat="44.32155" lon="5.82875">
        <ele>585</ele>
        <time>2019-06-25T07:26:57Z</time>
      </trkpt>
      <trkpt lat="44.3216" lon="5.82877">
        <ele>585</ele>
        <time>2019-06-25T07:26:58Z</time>
      </trkpt>
      <trkpt lat="44.32164" lon="5.82879">
        <ele>585</ele>
        <time>2019-06-25T07:26:59Z</time>
      </trkpt>
      <trkpt lat="44.32169" lon="5.82881">
        <ele>585</ele>
        <time>2019-06-25T07:27:00Z</time>
      </trkpt>
      <trkpt lat="44.32173" lon="5.82883">
        <ele>585</ele>
        <time>2019-06-25T07:27:01Z</time>
      </trkpt>
      <trkpt lat="44.32177" lon="5.82885">
        <ele>585</ele>
        <time>2019-06-25T07:27:02Z</time>
      </trkpt>
      <trkpt lat="44.32181" lon="5.82887">
        <ele>585</ele>
        <time>2019-06-25T07:27:03Z</time>
      </trkpt>
      <trkpt lat="44.32185" lon="5.8289">
        <ele>585</ele>
        <time>2019-06-25T07:27:04Z</time>
      </trkpt>
      <trkpt lat="44.32189" lon="5.82892">
        <ele>585</ele>
        <time>2019-06-25T07:27:05Z</time>
      </trkpt>
      <trkpt lat="44.32193" lon="5.82893">
        <ele>585</ele>
        <time>2019-06-25T07:27:06Z</time>
      </trkpt>
      <trkpt lat="44.32198" lon="5.82895">
        <ele>585</ele>
        <time>2019-06-25T07:27:07Z</time>
      </trkpt>
      <trkpt lat="44.32202" lon="5.82897">
        <ele>585</ele>
        <time>2019-06-25T07:27:08Z</time>
      </trkpt>
      <trkpt lat="44.32207" lon="5.82899">
        <ele>585</ele>
        <time>2019-06-25T07:27:09Z</time>
      </trkpt>
      <trkpt lat="44.32211" lon="5.82901">
        <ele>585</ele>
        <time>2019-06-25T07:27:10Z</time>
      </trkpt>
      <trkpt lat="44.32215" lon="5.82903">
        <ele>585</ele>
        <time>2019-06-25T07:27:11Z</time>
      </trkpt>
      <trkpt lat="44.3222" lon="5.82905">
        <ele>585</ele>
        <time>2019-06-25T07:27:12Z</time>
      </trkpt>
      <trkpt lat="44.32225" lon="5.82908">
        <ele>585</ele>
        <time>2019-06-25T07:27:13Z</time>
      </trkpt>
      <trkpt lat="44.3223" lon="5.8291">
        <ele>585</ele>
        <time>2019-06-25T07:27:14Z</time>
      </trkpt>
      <trkpt lat="44.32234" lon="5.82912">
        <ele>585</ele>
        <time>2019-06-25T07:27:15Z</time>
      </trkpt>
      <trkpt lat="44.32238" lon="5.82914">
        <ele>585</ele>
        <time>2019-06-25T07:27:16Z</time>
      </trkpt>
      <trkpt lat="44.32243" lon="5.82916">
        <ele>585</ele>
        <time>2019-06-25T07:27:17Z</time>
      </trkpt>
      <trkpt lat="44.32246" lon="5.82919">
        <ele>585</ele>
        <time>2019-06-25T07:27:18Z</time>
      </trkpt>
      <trkpt lat="44.3225" lon="5.82921">
        <ele>585</ele>
        <time>2019-06-25T07:27:19Z</time>
      </trkpt>
      <trkpt lat="44.32254" lon="5.82923">
        <ele>585</ele>
        <time>2019-06-25T07:27:20Z</time>
      </trkpt>
      <trkpt lat="44.32259" lon="5.82925">
        <ele>585</ele>
        <time>2019-06-25T07:27:21Z</time>
      </trkpt>
      <trkpt lat="44.32264" lon="5.82928">
        <ele>585</ele>
        <time>2019-06-25T07:27:22Z</time>
      </trkpt>
      <trkpt lat="44.32267" lon="5.8293">
        <ele>585</ele>
        <time>2019-06-25T07:27:23Z</time>
      </trkpt>
      <trkpt lat="44.32272" lon="5.82933">
        <ele>585</ele>
        <time>2019-06-25T07:27:24Z</time>
      </trkpt>
      <trkpt lat="44.32276" lon="5.82934">
        <ele>585</ele>
        <time>2019-06-25T07:27:25Z</time>
      </trkpt>
      <trkpt lat="44.32281" lon="5.82936">
        <ele>585</ele>
        <time>2019-06-25T07:27:26Z</time>
      </trkpt>
      <trkpt lat="44.32285" lon="5.82938">
        <ele>585</ele>
        <time>2019-06-25T07:27:27Z</time>
      </trkpt>
      <trkpt lat="44.32288" lon="5.82941">
        <ele>585</ele>
        <time>2019-06-25T07:27:28Z</time>
      </trkpt>
      <trkpt lat="44.32291" lon="5.82943">
        <ele>585</ele>
        <time>2019-06-25T07:27:29Z</time>
      </trkpt>
      <trkpt lat="44.32295" lon="5.82945">
        <ele>585</ele>
        <time>2019-06-25T07:27:30Z</time>
      </trkpt>
      <trkpt lat="44.32299" lon="5.82947">
        <ele>585</ele>
        <time>2019-06-25T07:27:31Z</time>
      </trkpt>
      <trkpt lat="44.32303" lon="5.82949">
        <ele>585</ele>
        <time>2019-06-25T07:27:32Z</time>
      </trkpt>
      <trkpt lat="44.32307" lon="5.82951">
        <ele>585</ele>
        <time>2019-06-25T07:27:33Z</time>
      </trkpt>
      <trkpt lat="44.32311" lon="5.82954">
        <ele>585</ele>
        <time>2019-06-25T07:27:34Z</time>
      </trkpt>
      <trkpt lat="44.32315" lon="5.82956">
        <ele>585</ele>
        <time>2019-06-25T07:27:35Z</time>
      </trkpt>
      <trkpt lat="44.32318" lon="5.82958">
        <ele>585</ele>
        <time>2019-06-25T07:27:36Z</time>
      </trkpt>
      <trkpt lat="44.32322" lon="5.8296">
        <ele>585</ele>
        <time>2019-06-25T07:27:37Z</time>
      </trkpt>
      <trkpt lat="44.32326" lon="5.82962">
        <ele>585</ele>
        <time>2019-06-25T07:27:38Z</time>
      </trkpt>
      <trkpt lat="44.3233" lon="5.82964">
        <ele>585</ele>
        <time>2019-06-25T07:27:39Z</time>
      </trkpt>
      <trkpt lat="44.32334" lon="5.82967">
        <ele>585</ele>
        <time>2019-06-25T07:27:40Z</time>
      </trkpt>
      <trkpt lat="44.32338" lon="5.8297">
        <ele>585</ele>
        <time>2019-06-25T07:27:41Z</time>
      </trkpt>
      <trkpt lat="44.32341" lon="5.82973">
        <ele>585</ele>
        <time>2019-06-25T07:27:42Z</time>
      </trkpt>
      <trkpt lat="44.32344" lon="5.82977">
        <ele>585</ele>
        <time>2019-06-25T07:27:43Z</time>
      </trkpt>
      <trkpt lat="44.32348" lon="5.82981">
        <ele>585</ele>
        <time>2019-06-25T07:27:44Z</time>
      </trkpt>
      <trkpt lat="44.32352" lon="5.82985">
        <ele>585</ele>
        <time>2019-06-25T07:27:45Z</time>
      </trkpt>
      <trkpt lat="44.32356" lon="5.82989">
        <ele>585</ele>
        <time>2019-06-25T07:27:46Z</time>
      </trkpt>
      <trkpt lat="44.32359" lon="5.82994">
        <ele>585</ele>
        <time>2019-06-25T07:27:47Z</time>
      </trkpt>
      <trkpt lat="44.32362" lon="5.82999">
        <ele>585</ele>
        <time>2019-06-25T07:27:48Z</time>
      </trkpt>
      <trkpt lat="44.32365" lon="5.83004">
        <ele>585</ele>
        <time>2019-06-25T07:27:49Z</time>
      </trkpt>
      <trkpt lat="44.32367" lon="5.83009">
        <ele>585</ele>
        <time>2019-06-25T07:27:50Z</time>
      </trkpt>
      <trkpt lat="44.3237" lon="5.83015">
        <ele>585</ele>
        <time>2019-06-25T07:27:51Z</time>
      </trkpt>
      <trkpt lat="44.32371" lon="5.83021">
        <ele>585</ele>
        <time>2019-06-25T07:27:52Z</time>
      </trkpt>
      <trkpt lat="44.32373" lon="5.83028">
        <ele>585</ele>
        <time>2019-06-25T07:27:53Z</time>
      </trkpt>
      <trkpt lat="44.32375" lon="5.83034">
        <ele>585</ele>
        <time>2019-06-25T07:27:54Z</time>
      </trkpt>
      <trkpt lat="44.32376" lon="5.83041">
        <ele>585</ele>
        <time>2019-06-25T07:27:55Z</time>
      </trkpt>
      <trkpt lat="44.32378" lon="5.83047">
        <ele>585</ele>
        <time>2019-06-25T07:27:56Z</time>
      </trkpt>
      <trkpt lat="44.32381" lon="5.83054">
        <ele>585</ele>
        <time>2019-06-25T07:27:57Z</time>
      </trkpt>
      <trkpt lat="44.32383" lon="5.83061">
        <ele>585</ele>
        <time>2019-06-25T07:27:58Z</time>
      </trkpt>
      <trkpt lat="44.32385" lon="5.83068">
        <ele>585</ele>
        <time>2019-06-25T07:27:59Z</time>
      </trkpt>
      <trkpt lat="44.32388" lon="5.83075">
        <ele>585</ele>
        <time>2019-06-25T07:28:00Z</time>
      </trkpt>
      <trkpt lat="44.32391" lon="5.83081">
        <ele>585</ele>
        <time>2019-06-25T07:28:01Z</time>
      </trkpt>
      <trkpt lat="44.32395" lon="5.83088">
        <ele>585</ele>
        <time>2019-06-25T07:28:02Z</time>
      </trkpt>
      <trkpt lat="44.32399" lon="5.83095">
        <ele>585</ele>
        <time>2019-06-25T07:28:03Z</time>
      </trkpt>
      <trkpt lat="44.32402" lon="5.83101">
        <ele>585</ele>
        <time>2019-06-25T07:28:04Z</time>
      </trkpt>
      <trkpt lat="44.32407" lon="5.83108">
        <ele>585</ele>
        <time>2019-06-25T07:28:05Z</time>
      </trkpt>
      <trkpt lat="44.32411" lon="5.83113">
        <ele>585</ele>
        <time>2019-06-25T07:28:06Z</time>
      </trkpt>
      <trkpt lat="44.32416" lon="5.83119">
        <ele>585</ele>
        <time>2019-06-25T07:28:07Z</time>
      </trkpt>
      <trkpt lat="44.32421" lon="5.83124">
        <ele>585</ele>
        <time>2019-06-25T07:28:08Z</time>
      </trkpt>
      <trkpt lat="44.32425" lon="5.83129">
        <ele>585</ele>
        <time>2019-06-25T07:28:09Z</time>
      </trkpt>
      <trkpt lat="44.3243" lon="5.83134">
        <ele>585</ele>
        <time>2019-06-25T07:28:10Z</time>
      </trkpt>
      <trkpt lat="44.32435" lon="5.83138">
        <ele>585</ele>
        <time>2019-06-25T07:28:11Z</time>
      </trkpt>
      <trkpt lat="44.32441" lon="5.83143">
        <ele>585</ele>
        <time>2019-06-25T07:28:12Z</time>
      </trkpt>
      <trkpt lat="44.32446" lon="5.83148">
        <ele>585</ele>
        <time>2019-06-25T07:28:13Z</time>
      </trkpt>
      <trkpt lat="44.32451" lon="5.83152">
        <ele>585</ele>
        <time>2019-06-25T07:28:14Z</time>
      </trkpt>
      <trkpt lat="44.32456" lon="5.83156">
        <ele>585</ele>
        <time>2019-06-25T07:28:15Z</time>
      </trkpt>
      <trkpt lat="44.32461" lon="5.8316">
        <ele>585</ele>
        <time>2019-06-25T07:28:16Z</time>
      </trkpt>
      <trkpt lat="44.32466" lon="5.83165">
        <ele>585</ele>
        <time>2019-06-25T07:28:17Z</time>
      </trkpt>
      <trkpt lat="44.32471" lon="5.83169">
        <ele>585</ele>
        <time>2019-06-25T07:28:18Z</time>
      </trkpt>
      <trkpt lat="44.32476" lon="5.83172">
        <ele>585</ele>
        <time>2019-06-25T07:28:19Z</time>
      </trkpt>
      <trkpt lat="44.32481" lon="5.83176">
        <ele>585</ele>
        <time>2019-06-25T07:28:20Z</time>
      </trkpt>
      <trkpt lat="44.32487" lon="5.83179">
        <ele>585</ele>
        <time>2019-06-25T07:28:21Z</time>
      </trkpt>
      <trkpt lat="44.32492" lon="5.83183">
        <ele>585</ele>
        <time>2019-06-25T07:28:22Z</time>
      </trkpt>
      <trkpt lat="44.32498" lon="5.83186">
        <ele>585</ele>
        <time>2019-06-25T07:28:23Z</time>
      </trkpt>
      <trkpt lat="44.32504" lon="5.83189">
        <ele>585</ele>
        <time>2019-06-25T07:28:24Z</time>
      </trkpt>
      <trkpt lat="44.32509" lon="5.83191">
        <ele>585</ele>
        <time>2019-06-25T07:28:25Z</time>
      </trkpt>
      <trkpt lat="44.32515" lon="5.83194">
        <ele>585</ele>
        <time>2019-06-25T07:28:26Z</time>
      </trkpt>
      <trkpt lat="44.32521" lon="5.83197">
        <ele>585</ele>
        <time>2019-06-25T07:28:27Z</time>
      </trkpt>
      <trkpt lat="44.32527" lon="5.832">
        <ele>585</ele>
        <time>2019-06-25T07:28:28Z</time>
      </trkpt>
      <trkpt lat="44.32533" lon="5.83202">
        <ele>585</ele>
        <time>2019-06-25T07:28:29Z</time>
      </trkpt>
      <trkpt lat="44.32538" lon="5.83205">
        <ele>585</ele>
        <time>2019-06-25T07:28:30Z</time>
      </trkpt>
      <trkpt lat="44.32544" lon="5.83207">
        <ele>585</ele>
        <time>2019-06-25T07:28:31Z</time>
      </trkpt>
      <trkpt lat="44.3255" lon="5.8321">
        <ele>585</ele>
        <time>2019-06-25T07:28:32Z</time>
      </trkpt>
      <trkpt lat="44.32555" lon="5.83212">
        <ele>585</ele>
        <time>2019-06-25T07:28:33Z</time>
      </trkpt>
      <trkpt lat="44.32561" lon="5.83215">
        <ele>585</ele>
        <time>2019-06-25T07:28:34Z</time>
      </trkpt>
      <trkpt lat="44.32567" lon="5.83217">
        <ele>585</ele>
        <time>2019-06-25T07:28:35Z</time>
      </trkpt>
      <trkpt lat="44.32573" lon="5.8322">
        <ele>585</ele>
        <time>2019-06-25T07:28:36Z</time>
      </trkpt>
      <trkpt lat="44.32578" lon="5.83222">
        <ele>585</ele>
        <time>2019-06-25T07:28:37Z</time>
      </trkpt>
      <trkpt lat="44.32584" lon="5.83225">
        <ele>585</ele>
        <time>2019-06-25T07:28:38Z</time>
      </trkpt>
      <trkpt lat="44.3259" lon="5.83227">
        <ele>585</ele>
        <time>2019-06-25T07:28:39Z</time>
      </trkpt>
      <trkpt lat="44.32595" lon="5.8323">
        <ele>585</ele>
        <time>2019-06-25T07:28:40Z</time>
      </trkpt>
      <trkpt lat="44.326" lon="5.83233">
        <ele>585</ele>
        <time>2019-06-25T07:28:41Z</time>
      </trkpt>
      <trkpt lat="44.32605" lon="5.83237">
        <ele>585</ele>
        <time>2019-06-25T07:28:42Z</time>
      </trkpt>
      <trkpt lat="44.32611" lon="5.8324">
        <ele>585</ele>
        <time>2019-06-25T07:28:43Z</time>
      </trkpt>
      <trkpt lat="44.32616" lon="5.83243">
        <ele>585</ele>
        <time>2019-06-25T07:28:44Z</time>
      </trkpt>
      <trkpt lat="44.3262" lon="5.83247">
        <ele>585</ele>
        <time>2019-06-25T07:28:45Z</time>
      </trkpt>
      <trkpt lat="44.32625" lon="5.83251">
        <ele>585</ele>
        <time>2019-06-25T07:28:46Z</time>
      </trkpt>
      <trkpt lat="44.3263" lon="5.83254">
        <ele>585</ele>
        <time>2019-06-25T07:28:47Z</time>
      </trkpt>
      <trkpt lat="44.32635" lon="5.83257">
        <ele>585</ele>
        <time>2019-06-25T07:28:48Z</time>
      </trkpt>
      <trkpt lat="44.3264" lon="5.83261">
        <ele>585</ele>
        <time>2019-06-25T07:28:49Z</time>
      </trkpt>
      <trkpt lat="44.32645" lon="5.83264">
        <ele>585</ele>
        <time>2019-06-25T07:28:50Z</time>
      </trkpt>
      <trkpt lat="44.3265" lon="5.83268">
        <ele>585</ele>
        <time>2019-06-25T07:28:51Z</time>
      </trkpt>
      <trkpt lat="44.32655" lon="5.83272">
        <ele>585</ele>
        <time>2019-06-25T07:28:52Z</time>
      </trkpt>
      <trkpt lat="44.32659" lon="5.83276">
        <ele>585</ele>
        <time>2019-06-25T07:28:53Z</time>
      </trkpt>
      <trkpt lat="44.32664" lon="5.83279">
        <ele>585</ele>
        <time>2019-06-25T07:28:54Z</time>
      </trkpt>
      <trkpt lat="44.32669" lon="5.83283">
        <ele>585</ele>
        <time>2019-06-25T07:28:55Z</time>
      </trkpt>
      <trkpt lat="44.32675" lon="5.83286">
        <ele>585</ele>
        <time>2019-06-25T07:28:56Z</time>
      </trkpt>
      <trkpt lat="44.32679" lon="5.83289">
        <ele>585</ele>
        <time>2019-06-25T07:28:57Z</time>
      </trkpt>
      <trkpt lat="44.32684" lon="5.83293">
        <ele>585</ele>
        <time>2019-06-25T07:28:58Z</time>
      </trkpt>
      <trkpt lat="44.3269" lon="5.83296">
        <ele>585</ele>
        <time>2019-06-25T07:28:59Z</time>
      </trkpt>
      <trkpt lat="44.32695" lon="5.833">
        <ele>585</ele>
        <time>2019-06-25T07:29:00Z</time>
      </trkpt>
      <trkpt lat="44.32701" lon="5.83303">
        <ele>585</ele>
        <time>2019-06-25T07:29:01Z</time>
      </trkpt>
      <trkpt lat="44.32706" lon="5.83307">
        <ele>585</ele>
        <time>2019-06-25T07:29:02Z</time>
      </trkpt>
      <trkpt lat="44.32711" lon="5.83311">
        <ele>585</ele>
        <time>2019-06-25T07:29:03Z</time>
      </trkpt>
      <trkpt lat="44.32716" lon="5.83315">
        <ele>585</ele>
        <time>2019-06-25T07:29:04Z</time>
      </trkpt>
      <trkpt lat="44.32721" lon="5.83318">
        <ele>585</ele>
        <time>2019-06-25T07:29:05Z</time>
      </trkpt>
      <trkpt lat="44.32727" lon="5.83322">
        <ele>585</ele>
        <time>2019-06-25T07:29:06Z</time>
      </trkpt>
      <trkpt lat="44.32731" lon="5.83325">
        <ele>585</ele>
        <time>2019-06-25T07:29:07Z</time>
      </trkpt>
      <trkpt lat="44.32737" lon="5.83329">
        <ele>585</ele>
        <time>2019-06-25T07:29:08Z</time>
      </trkpt>
      <trkpt lat="44.32741" lon="5.83332">
        <ele>585</ele>
        <time>2019-06-25T07:29:09Z</time>
      </trkpt>
      <trkpt lat="44.32746" lon="5.83335">
        <ele>585</ele>
        <time>2019-06-25T07:29:10Z</time>
      </trkpt>
      <trkpt lat="44.32751" lon="5.83338">
        <ele>585</ele>
        <time>2019-06-25T07:29:11Z</time>
      </trkpt>
      <trkpt lat="44.32756" lon="5.83342">
        <ele>585</ele>
        <time>2019-06-25T07:29:12Z</time>
      </trkpt>
      <trkpt lat="44.32761" lon="5.83346">
        <ele>585</ele>
        <time>2019-06-25T07:29:13Z</time>
      </trkpt>
      <trkpt lat="44.32766" lon="5.83349">
        <ele>585</ele>
        <time>2019-06-25T07:29:14Z</time>
      </trkpt>
      <trkpt lat="44.32771" lon="5.83353">
        <ele>585</ele>
        <time>2019-06-25T07:29:15Z</time>
      </trkpt>
      <trkpt lat="44.32776" lon="5.83356">
        <ele>585</ele>
        <time>2019-06-25T07:29:16Z</time>
      </trkpt>
      <trkpt lat="44.32782" lon="5.83359">
        <ele>585</ele>
        <time>2019-06-25T07:29:17Z</time>
      </trkpt>
      <trkpt lat="44.32786" lon="5.83363">
        <ele>586</ele>
        <time>2019-06-25T07:29:18Z</time>
      </trkpt>
      <trkpt lat="44.3279" lon="5.83366">
        <ele>586</ele>
        <time>2019-06-25T07:29:19Z</time>
      </trkpt>
      <trkpt lat="44.32795" lon="5.83369">
        <ele>586</ele>
        <time>2019-06-25T07:29:19Z</time>
      </trkpt>
      <trkpt lat="44.328" lon="5.83372">
        <ele>586</ele>
        <time>2019-06-25T07:29:21Z</time>
      </trkpt>
      <trkpt lat="44.32805" lon="5.83375">
        <ele>586</ele>
        <time>2019-06-25T07:29:22Z</time>
      </trkpt>
      <trkpt lat="44.32809" lon="5.83378">
        <ele>586</ele>
        <time>2019-06-25T07:29:23Z</time>
      </trkpt>
      <trkpt lat="44.32814" lon="5.83381">
        <ele>586</ele>
        <time>2019-06-25T07:29:24Z</time>
      </trkpt>
      <trkpt lat="44.32819" lon="5.83383">
        <ele>586</ele>
        <time>2019-06-25T07:29:25Z</time>
      </trkpt>
      <trkpt lat="44.32824" lon="5.83384">
        <ele>586</ele>
        <time>2019-06-25T07:29:26Z</time>
      </trkpt>
      <trkpt lat="44.32829" lon="5.83386">
        <ele>586</ele>
        <time>2019-06-25T07:29:27Z</time>
      </trkpt>
      <trkpt lat="44.32833" lon="5.83388">
        <ele>586</ele>
        <time>2019-06-25T07:29:28Z</time>
      </trkpt>
      <trkpt lat="44.32838" lon="5.83389">
        <ele>586</ele>
        <time>2019-06-25T07:29:29Z</time>
      </trkpt>
      <trkpt lat="44.32843" lon="5.83389">
        <ele>586</ele>
        <time>2019-06-25T07:29:30Z</time>
      </trkpt>
      <trkpt lat="44.32848" lon="5.8339">
        <ele>586</ele>
        <time>2019-06-25T07:29:31Z</time>
      </trkpt>
      <trkpt lat="44.32853" lon="5.8339">
        <ele>586</ele>
        <time>2019-06-25T07:29:32Z</time>
      </trkpt>
      <trkpt lat="44.32858" lon="5.83391">
        <ele>586</ele>
        <time>2019-06-25T07:29:33Z</time>
      </trkpt>
      <trkpt lat="44.32864" lon="5.83392">
        <ele>586</ele>
        <time>2019-06-25T07:29:34Z</time>
      </trkpt>
      <trkpt lat="44.32869" lon="5.83392">
        <ele>586</ele>
        <time>2019-06-25T07:29:35Z</time>
      </trkpt>
      <trkpt lat="44.32873" lon="5.83392">
        <ele>586</ele>
        <time>2019-06-25T07:29:36Z</time>
      </trkpt>
      <trkpt lat="44.32878" lon="5.83392">
        <ele>586</ele>
        <time>2019-06-25T07:29:37Z</time>
      </trkpt>
      <trkpt lat="44.32883" lon="5.83392">
        <ele>586</ele>
        <time>2019-06-25T07:29:38Z</time>
      </trkpt>
      <trkpt lat="44.32888" lon="5.83392">
        <ele>586</ele>
        <time>2019-06-25T07:29:39Z</time>
      </trkpt>
      <trkpt lat="44.32893" lon="5.83393">
        <ele>586</ele>
        <time>2019-06-25T07:29:40Z</time>
      </trkpt>
      <trkpt lat="44.32898" lon="5.83393">
        <ele>586</ele>
        <time>2019-06-25T07:29:40Z</time>
      </trkpt>
      <trkpt lat="44.32903" lon="5.83393">
        <ele>586</ele>
        <time>2019-06-25T07:29:42Z</time>
      </trkpt>
      <trkpt lat="44.32907" lon="5.83394">
        <ele>586</ele>
        <time>2019-06-25T07:29:43Z</time>
      </trkpt>
      <trkpt lat="44.32912" lon="5.83394">
        <ele>586</ele>
        <time>2019-06-25T07:29:44Z</time>
      </trkpt>
      <trkpt lat="44.32916" lon="5.83395">
        <ele>586</ele>
        <time>2019-06-25T07:29:45Z</time>
      </trkpt>
      <trkpt lat="44.32921" lon="5.83395">
        <ele>586</ele>
        <time>2019-06-25T07:29:46Z</time>
      </trkpt>
      <trkpt lat="44.32925" lon="5.83395">
        <ele>586</ele>
        <time>2019-06-25T07:29:47Z</time>
      </trkpt>
      <trkpt lat="44.3293" lon="5.83396">
        <ele>586</ele>
        <time>2019-06-25T07:29:48Z</time>
      </trkpt>
      <trkpt lat="44.32934" lon="5.83396">
        <ele>586</ele>
        <time>2019-06-25T07:29:49Z</time>
      </trkpt>
      <trkpt lat="44.32938" lon="5.83397">
        <ele>586</ele>
        <time>2019-06-25T07:29:49Z</time>
      </trkpt>
      <trkpt lat="44.32943" lon="5.83397">
        <ele>586</ele>
        <time>2019-06-25T07:29:51Z</time>
      </trkpt>
      <trkpt lat="44.32948" lon="5.83397">
        <ele>586</ele>
        <time>2019-06-25T07:29:52Z</time>
      </trkpt>
      <trkpt lat="44.32952" lon="5.83397">
        <ele>586</ele>
        <time>2019-06-25T07:29:53Z</time>
      </trkpt>
      <trkpt lat="44.32956" lon="5.83398">
        <ele>586</ele>
        <time>2019-06-25T07:29:54Z</time>
      </trkpt>
      <trkpt lat="44.32961" lon="5.83398">
        <ele>586</ele>
        <time>2019-06-25T07:29:55Z</time>
      </trkpt>
      <trkpt lat="44.32965" lon="5.83398">
        <ele>586</ele>
        <time>2019-06-25T07:29:56Z</time>
      </trkpt>
      <trkpt lat="44.3297" lon="5.83398">
        <ele>586</ele>
        <time>2019-06-25T07:29:57Z</time>
      </trkpt>
      <trkpt lat="44.32975" lon="5.83399">
        <ele>586</ele>
        <time>2019-06-25T07:29:58Z</time>
      </trkpt>
      <trkpt lat="44.32979" lon="5.83399">
        <ele>586</ele>
        <time>2019-06-25T07:29:59Z</time>
      </trkpt>
      <trkpt lat="44.32984" lon="5.83399">
        <ele>586</ele>
        <time>2019-06-25T07:30:00Z</time>
      </trkpt>
      <trkpt lat="44.32988" lon="5.834">
        <ele>586</ele>
        <time>2019-06-25T07:30:01Z</time>
      </trkpt>
      <trkpt lat="44.32993" lon="5.834">
        <ele>586</ele>
        <time>2019-06-25T07:30:02Z</time>
      </trkpt>
      <trkpt lat="44.32998" lon="5.834">
        <ele>586</ele>
        <time>2019-06-25T07:30:03Z</time>
      </trkpt>
      <trkpt lat="44.33002" lon="5.834">
        <ele>586</ele>
        <time>2019-06-25T07:30:04Z</time>
      </trkpt>
      <trkpt lat="44.33007" lon="5.834">
        <ele>586</ele>
        <time>2019-06-25T07:30:05Z</time>
      </trkpt>
      <trkpt lat="44.33012" lon="5.834">
        <ele>587</ele>
        <time>2019-06-25T07:30:06Z</time>
      </trkpt>
      <trkpt lat="44.33017" lon="5.83401">
        <ele>587</ele>
        <time>2019-06-25T07:30:07Z</time>
      </trkpt>
      <trkpt lat="44.33022" lon="5.83401">
        <ele>587</ele>
        <time>2019-06-25T07:30:08Z</time>
      </trkpt>
      <trkpt lat="44.33027" lon="5.83402">
        <ele>587</ele>
        <time>2019-06-25T07:30:09Z</time>
      </trkpt>
      <trkpt lat="44.33032" lon="5.83402">
        <ele>587</ele>
        <time>2019-06-25T07:30:10Z</time>
      </trkpt>
      <trkpt lat="44.33037" lon="5.83403">
        <ele>587</ele>
        <time>2019-06-25T07:30:11Z</time>
      </trkpt>
      <trkpt lat="44.33042" lon="5.83403">
        <ele>587</ele>
        <time>2019-06-25T07:30:12Z</time>
      </trkpt>
      <trkpt lat="44.33048" lon="5.83403">
        <ele>588</ele>
        <time>2019-06-25T07:30:13Z</time>
      </trkpt>
      <trkpt lat="44.33053" lon="5.83403">
        <ele>588</ele>
        <time>2019-06-25T07:30:14Z</time>
      </trkpt>
      <trkpt lat="44.33059" lon="5.83403">
        <ele>588</ele>
        <time>2019-06-25T07:30:15Z</time>
      </trkpt>
      <trkpt lat="44.33065" lon="5.83404">
        <ele>588</ele>
        <time>2019-06-25T07:30:16Z</time>
      </trkpt>
      <trkpt lat="44.3307" lon="5.83404">
        <ele>588</ele>
        <time>2019-06-25T07:30:17Z</time>
      </trkpt>
      <trkpt lat="44.33076" lon="5.83404">
        <ele>588</ele>
        <time>2019-06-25T07:30:18Z</time>
      </trkpt>
      <trkpt lat="44.33083" lon="5.83404">
        <ele>588</ele>
        <time>2019-06-25T07:30:19Z</time>
      </trkpt>
      <trkpt lat="44.33088" lon="5.83403">
        <ele>588</ele>
        <time>2019-06-25T07:30:20Z</time>
      </trkpt>
      <trkpt lat="44.33094" lon="5.83403">
        <ele>588</ele>
        <time>2019-06-25T07:30:21Z</time>
      </trkpt>
      <trkpt lat="44.331" lon="5.83402">
        <ele>588</ele>
        <time>2019-06-25T07:30:22Z</time>
      </trkpt>
      <trkpt lat="44.33106" lon="5.83402">
        <ele>588</ele>
        <time>2019-06-25T07:30:23Z</time>
      </trkpt>
      <trkpt lat="44.33112" lon="5.83401">
        <ele>588</ele>
        <time>2019-06-25T07:30:24Z</time>
      </trkpt>
      <trkpt lat="44.33118" lon="5.83401">
        <ele>588</ele>
        <time>2019-06-25T07:30:25Z</time>
      </trkpt>
      <trkpt lat="44.33123" lon="5.834">
        <ele>588</ele>
        <time>2019-06-25T07:30:26Z</time>
      </trkpt>
      <trkpt lat="44.33129" lon="5.83399">
        <ele>588</ele>
        <time>2019-06-25T07:30:27Z</time>
      </trkpt>
      <trkpt lat="44.33134" lon="5.83398">
        <ele>588</ele>
        <time>2019-06-25T07:30:28Z</time>
      </trkpt>
      <trkpt lat="44.3314" lon="5.83398">
        <ele>588</ele>
        <time>2019-06-25T07:30:29Z</time>
      </trkpt>
      <trkpt lat="44.33146" lon="5.83397">
        <ele>588</ele>
        <time>2019-06-25T07:30:30Z</time>
      </trkpt>
      <trkpt lat="44.33151" lon="5.83396">
        <ele>588</ele>
        <time>2019-06-25T07:30:31Z</time>
      </trkpt>
      <trkpt lat="44.33156" lon="5.83395">
        <ele>588</ele>
        <time>2019-06-25T07:30:32Z</time>
      </trkpt>
      <trkpt lat="44.33161" lon="5.83394">
        <ele>588</ele>
        <time>2019-06-25T07:30:33Z</time>
      </trkpt>
      <trkpt lat="44.33166" lon="5.83393">
        <ele>588</ele>
        <time>2019-06-25T07:30:34Z</time>
      </trkpt>
      <trkpt lat="44.33171" lon="5.83392">
        <ele>588</ele>
        <time>2019-06-25T07:30:35Z</time>
      </trkpt>
      <trkpt lat="44.33177" lon="5.83392">
        <ele>588</ele>
        <time>2019-06-25T07:30:36Z</time>
      </trkpt>
      <trkpt lat="44.33182" lon="5.83391">
        <ele>588</ele>
        <time>2019-06-25T07:30:37Z</time>
      </trkpt>
      <trkpt lat="44.33187" lon="5.8339">
        <ele>588</ele>
        <time>2019-06-25T07:30:38Z</time>
      </trkpt>
      <trkpt lat="44.33192" lon="5.83389">
        <ele>588</ele>
        <time>2019-06-25T07:30:39Z</time>
      </trkpt>
      <trkpt lat="44.33198" lon="5.83389">
        <ele>588</ele>
        <time>2019-06-25T07:30:40Z</time>
      </trkpt>
      <trkpt lat="44.33203" lon="5.83388">
        <ele>588</ele>
        <time>2019-06-25T07:30:41Z</time>
      </trkpt>
      <trkpt lat="44.33208" lon="5.83387">
        <ele>588</ele>
        <time>2019-06-25T07:30:42Z</time>
      </trkpt>
      <trkpt lat="44.33213" lon="5.83386">
        <ele>588</ele>
        <time>2019-06-25T07:30:43Z</time>
      </trkpt>
      <trkpt lat="44.33218" lon="5.83385">
        <ele>588</ele>
        <time>2019-06-25T07:30:44Z</time>
      </trkpt>
      <trkpt lat="44.33223" lon="5.83385">
        <ele>588</ele>
        <time>2019-06-25T07:30:45Z</time>
      </trkpt>
      <trkpt lat="44.33228" lon="5.83384">
        <ele>589</ele>
        <time>2019-06-25T07:30:46Z</time>
      </trkpt>
      <trkpt lat="44.33232" lon="5.83383">
        <ele>589</ele>
        <time>2019-06-25T07:30:47Z</time>
      </trkpt>
      <trkpt lat="44.33237" lon="5.83383">
        <ele>589</ele>
        <time>2019-06-25T07:30:48Z</time>
      </trkpt>
      <trkpt lat="44.33242" lon="5.83382">
        <ele>589</ele>
        <time>2019-06-25T07:30:49Z</time>
      </trkpt>
      <trkpt lat="44.33247" lon="5.83381">
        <ele>589</ele>
        <time>2019-06-25T07:30:50Z</time>
      </trkpt>
      <trkpt lat="44.33252" lon="5.83381">
        <ele>589</ele>
        <time>2019-06-25T07:30:51Z</time>
      </trkpt>
      <trkpt lat="44.33257" lon="5.8338">
        <ele>589</ele>
        <time>2019-06-25T07:30:52Z</time>
      </trkpt>
      <trkpt lat="44.33262" lon="5.83379">
        <ele>589</ele>
        <time>2019-06-25T07:30:53Z</time>
      </trkpt>
      <trkpt lat="44.33267" lon="5.83379">
        <ele>589</ele>
        <time>2019-06-25T07:30:54Z</time>
      </trkpt>
      <trkpt lat="44.33272" lon="5.83378">
        <ele>590</ele>
        <time>2019-06-25T07:30:55Z</time>
      </trkpt>
      <trkpt lat="44.33277" lon="5.83377">
        <ele>590</ele>
        <time>2019-06-25T07:30:56Z</time>
      </trkpt>
      <trkpt lat="44.33282" lon="5.83376">
        <ele>590</ele>
        <time>2019-06-25T07:30:57Z</time>
      </trkpt>
      <trkpt lat="44.33287" lon="5.83375">
        <ele>590</ele>
        <time>2019-06-25T07:30:57Z</time>
      </trkpt>
      <trkpt lat="44.33292" lon="5.83375">
        <ele>590</ele>
        <time>2019-06-25T07:30:59Z</time>
      </trkpt>
      <trkpt lat="44.33297" lon="5.83374">
        <ele>590</ele>
        <time>2019-06-25T07:31:00Z</time>
      </trkpt>
      <trkpt lat="44.33302" lon="5.83373">
        <ele>590</ele>
        <time>2019-06-25T07:31:01Z</time>
      </trkpt>
      <trkpt lat="44.33307" lon="5.83373">
        <ele>591</ele>
        <time>2019-06-25T07:31:02Z</time>
      </trkpt>
      <trkpt lat="44.33312" lon="5.83372">
        <ele>591</ele>
        <time>2019-06-25T07:31:03Z</time>
      </trkpt>
      <trkpt lat="44.33317" lon="5.83371">
        <ele>591</ele>
        <time>2019-06-25T07:31:04Z</time>
      </trkpt>
      <trkpt lat="44.33322" lon="5.8337">
        <ele>591</ele>
        <time>2019-06-25T07:31:05Z</time>
      </trkpt>
      <trkpt lat="44.33327" lon="5.8337">
        <ele>591</ele>
        <time>2019-06-25T07:31:06Z</time>
      </trkpt>
      <trkpt lat="44.33332" lon="5.83369">
        <ele>591</ele>
        <time>2019-06-25T07:31:07Z</time>
      </trkpt>
      <trkpt lat="44.33337" lon="5.83368">
        <ele>591</ele>
        <time>2019-06-25T07:31:08Z</time>
      </trkpt>
      <trkpt lat="44.33342" lon="5.83367">
        <ele>591</ele>
        <time>2019-06-25T07:31:09Z</time>
      </trkpt>
      <trkpt lat="44.33347" lon="5.83366">
        <ele>592</ele>
        <time>2019-06-25T07:31:10Z</time>
      </trkpt>
      <trkpt lat="44.33352" lon="5.83366">
        <ele>592</ele>
        <time>2019-06-25T07:31:11Z</time>
      </trkpt>
      <trkpt lat="44.33357" lon="5.83365">
        <ele>592</ele>
        <time>2019-06-25T07:31:12Z</time>
      </trkpt>
      <trkpt lat="44.33362" lon="5.83364">
        <ele>592</ele>
        <time>2019-06-25T07:31:13Z</time>
      </trkpt>
      <trkpt lat="44.33367" lon="5.83364">
        <ele>592</ele>
        <time>2019-06-25T07:31:14Z</time>
      </trkpt>
      <trkpt lat="44.33372" lon="5.83363">
        <ele>592</ele>
        <time>2019-06-25T07:31:15Z</time>
      </trkpt>
      <trkpt lat="44.33377" lon="5.83362">
        <ele>592</ele>
        <time>2019-06-25T07:31:16Z</time>
      </trkpt>
      <trkpt lat="44.33382" lon="5.83361">
        <ele>592</ele>
        <time>2019-06-25T07:31:17Z</time>
      </trkpt>
      <trkpt lat="44.33387" lon="5.8336">
        <ele>592</ele>
        <time>2019-06-25T07:31:17Z</time>
      </trkpt>
      <trkpt lat="44.33392" lon="5.83359">
        <ele>592</ele>
        <time>2019-06-25T07:31:19Z</time>
      </trkpt>
      <trkpt lat="44.33397" lon="5.83359">
        <ele>592</ele>
        <time>2019-06-25T07:31:20Z</time>
      </trkpt>
      <trkpt lat="44.33402" lon="5.83358">
        <ele>592</ele>
        <time>2019-06-25T07:31:21Z</time>
      </trkpt>
      <trkpt lat="44.33407" lon="5.83358">
        <ele>592</ele>
        <time>2019-06-25T07:31:22Z</time>
      </trkpt>
      <trkpt lat="44.33412" lon="5.83357">
        <ele>592</ele>
        <time>2019-06-25T07:31:23Z</time>
      </trkpt>
      <trkpt lat="44.33417" lon="5.83357">
        <ele>592</ele>
        <time>2019-06-25T07:31:24Z</time>
      </trkpt>
      <trkpt lat="44.33422" lon="5.83356">
        <ele>592</ele>
        <time>2019-06-25T07:31:25Z</time>
      </trkpt>
      <trkpt lat="44.33427" lon="5.83355">
        <ele>592</ele>
        <time>2019-06-25T07:31:26Z</time>
      </trkpt>
      <trkpt lat="44.33432" lon="5.83354">
        <ele>592</ele>
        <time>2019-06-25T07:31:27Z</time>
      </trkpt>
      <trkpt lat="44.33437" lon="5.83353">
        <ele>592</ele>
        <time>2019-06-25T07:31:28Z</time>
      </trkpt>
      <trkpt lat="44.33442" lon="5.83353">
        <ele>592</ele>
        <time>2019-06-25T07:31:29Z</time>
      </trkpt>
      <trkpt lat="44.33448" lon="5.83352">
        <ele>592</ele>
        <time>2019-06-25T07:31:30Z</time>
      </trkpt>
      <trkpt lat="44.33453" lon="5.83352">
        <ele>592</ele>
        <time>2019-06-25T07:31:31Z</time>
      </trkpt>
      <trkpt lat="44.33458" lon="5.83351">
        <ele>592</ele>
        <time>2019-06-25T07:31:32Z</time>
      </trkpt>
      <trkpt lat="44.33463" lon="5.83351">
        <ele>592</ele>
        <time>2019-06-25T07:31:33Z</time>
      </trkpt>
      <trkpt lat="44.33468" lon="5.8335">
        <ele>592</ele>
        <time>2019-06-25T07:31:34Z</time>
      </trkpt>
      <trkpt lat="44.33473" lon="5.8335">
        <ele>592</ele>
        <time>2019-06-25T07:31:35Z</time>
      </trkpt>
      <trkpt lat="44.33478" lon="5.8335">
        <ele>593</ele>
        <time>2019-06-25T07:31:36Z</time>
      </trkpt>
      <trkpt lat="44.33484" lon="5.83351">
        <ele>593</ele>
        <time>2019-06-25T07:31:37Z</time>
      </trkpt>
      <trkpt lat="44.33494" lon="5.83351">
        <ele>593</ele>
        <time>2019-06-25T07:31:39Z</time>
      </trkpt>
      <trkpt lat="44.33499" lon="5.83352">
        <ele>593</ele>
        <time>2019-06-25T07:31:40Z</time>
      </trkpt>
      <trkpt lat="44.33504" lon="5.83352">
        <ele>593</ele>
        <time>2019-06-25T07:31:41Z</time>
      </trkpt>
      <trkpt lat="44.33509" lon="5.83353">
        <ele>593</ele>
        <time>2019-06-25T07:31:42Z</time>
      </trkpt>
      <trkpt lat="44.33514" lon="5.83353">
        <ele>594</ele>
        <time>2019-06-25T07:31:43Z</time>
      </trkpt>
      <trkpt lat="44.33518" lon="5.83354">
        <ele>594</ele>
        <time>2019-06-25T07:31:44Z</time>
      </trkpt>
      <trkpt lat="44.33524" lon="5.83354">
        <ele>594</ele>
        <time>2019-06-25T07:31:45Z</time>
      </trkpt>
      <trkpt lat="44.33528" lon="5.83355">
        <ele>594</ele>
        <time>2019-06-25T07:31:46Z</time>
      </trkpt>
      <trkpt lat="44.33533" lon="5.83356">
        <ele>594</ele>
        <time>2019-06-25T07:31:47Z</time>
      </trkpt>
      <trkpt lat="44.33537" lon="5.83356">
        <ele>595</ele>
        <time>2019-06-25T07:31:48Z</time>
      </trkpt>
      <trkpt lat="44.33541" lon="5.83356">
        <ele>595</ele>
        <time>2019-06-25T07:31:49Z</time>
      </trkpt>
      <trkpt lat="44.33546" lon="5.83357">
        <ele>595</ele>
        <time>2019-06-25T07:31:50Z</time>
      </trkpt>
      <trkpt lat="44.3355" lon="5.83358">
        <ele>595</ele>
        <time>2019-06-25T07:31:51Z</time>
      </trkpt>
      <trkpt lat="44.33554" lon="5.83358">
        <ele>596</ele>
        <time>2019-06-25T07:31:52Z</time>
      </trkpt>
      <trkpt lat="44.33559" lon="5.83359">
        <ele>596</ele>
        <time>2019-06-25T07:31:53Z</time>
      </trkpt>
      <trkpt lat="44.33562" lon="5.83359">
        <ele>596</ele>
        <time>2019-06-25T07:31:53Z</time>
      </trkpt>
      <trkpt lat="44.33566" lon="5.8336">
        <ele>596</ele>
        <time>2019-06-25T07:31:55Z</time>
      </trkpt>
      <trkpt lat="44.3357" lon="5.8336">
        <ele>596</ele>
        <time>2019-06-25T07:31:56Z</time>
      </trkpt>
      <trkpt lat="44.33574" lon="5.83361">
        <ele>596</ele>
        <time>2019-06-25T07:31:57Z</time>
      </trkpt>
      <trkpt lat="44.33578" lon="5.83361">
        <ele>596</ele>
        <time>2019-06-25T07:31:58Z</time>
      </trkpt>
      <trkpt lat="44.33583" lon="5.83361">
        <ele>596</ele>
        <time>2019-06-25T07:31:59Z</time>
      </trkpt>
      <trkpt lat="44.33587" lon="5.83362">
        <ele>596</ele>
        <time>2019-06-25T07:32:00Z</time>
      </trkpt>
      <trkpt lat="44.3359" lon="5.83363">
        <ele>596</ele>
        <time>2019-06-25T07:32:01Z</time>
      </trkpt>
      <trkpt lat="44.33595" lon="5.83363">
        <ele>596</ele>
        <time>2019-06-25T07:32:02Z</time>
      </trkpt>
      <trkpt lat="44.33601" lon="5.83364">
        <ele>596</ele>
        <time>2019-06-25T07:32:03Z</time>
      </trkpt>
      <trkpt lat="44.33605" lon="5.83364">
        <ele>596</ele>
        <time>2019-06-25T07:32:04Z</time>
      </trkpt>
      <trkpt lat="44.3361" lon="5.83364">
        <ele>596</ele>
        <time>2019-06-25T07:32:05Z</time>
      </trkpt>
      <trkpt lat="44.33614" lon="5.83364">
        <ele>596</ele>
        <time>2019-06-25T07:32:06Z</time>
      </trkpt>
      <trkpt lat="44.33619" lon="5.83365">
        <ele>596</ele>
        <time>2019-06-25T07:32:07Z</time>
      </trkpt>
      <trkpt lat="44.33624" lon="5.83365">
        <ele>596</ele>
        <time>2019-06-25T07:32:08Z</time>
      </trkpt>
      <trkpt lat="44.33628" lon="5.83365">
        <ele>596</ele>
        <time>2019-06-25T07:32:09Z</time>
      </trkpt>
      <trkpt lat="44.33632" lon="5.83365">
        <ele>597</ele>
        <time>2019-06-25T07:32:10Z</time>
      </trkpt>
      <trkpt lat="44.33636" lon="5.83366">
        <ele>597</ele>
        <time>2019-06-25T07:32:11Z</time>
      </trkpt>
      <trkpt lat="44.3364" lon="5.83367">
        <ele>597</ele>
        <time>2019-06-25T07:32:12Z</time>
      </trkpt>
      <trkpt lat="44.33644" lon="5.83368">
        <ele>597</ele>
        <time>2019-06-25T07:32:13Z</time>
      </trkpt>
      <trkpt lat="44.33648" lon="5.83368">
        <ele>597</ele>
        <time>2019-06-25T07:32:14Z</time>
      </trkpt>
      <trkpt lat="44.33651" lon="5.83369">
        <ele>597</ele>
        <time>2019-06-25T07:32:15Z</time>
      </trkpt>
      <trkpt lat="44.33655" lon="5.83369">
        <ele>597</ele>
        <time>2019-06-25T07:32:16Z</time>
      </trkpt>
      <trkpt lat="44.33659" lon="5.8337">
        <ele>597</ele>
        <time>2019-06-25T07:32:17Z</time>
      </trkpt>
      <trkpt lat="44.33663" lon="5.8337">
        <ele>597</ele>
        <time>2019-06-25T07:32:18Z</time>
      </trkpt>
      <trkpt lat="44.33667" lon="5.8337">
        <ele>597</ele>
        <time>2019-06-25T07:32:19Z</time>
      </trkpt>
      <trkpt lat="44.33672" lon="5.83371">
        <ele>597</ele>
        <time>2019-06-25T07:32:20Z</time>
      </trkpt>
      <trkpt lat="44.33675" lon="5.83371">
        <ele>597</ele>
        <time>2019-06-25T07:32:21Z</time>
      </trkpt>
      <trkpt lat="44.3368" lon="5.83372">
        <ele>597</ele>
        <time>2019-06-25T07:32:22Z</time>
      </trkpt>
      <trkpt lat="44.33684" lon="5.83372">
        <ele>597</ele>
        <time>2019-06-25T07:32:23Z</time>
      </trkpt>
      <trkpt lat="44.33688" lon="5.83373">
        <ele>597</ele>
        <time>2019-06-25T07:32:24Z</time>
      </trkpt>
      <trkpt lat="44.33692" lon="5.83374">
        <ele>597</ele>
        <time>2019-06-25T07:32:25Z</time>
      </trkpt>
      <trkpt lat="44.33697" lon="5.83374">
        <ele>597</ele>
        <time>2019-06-25T07:32:26Z</time>
      </trkpt>
      <trkpt lat="44.33701" lon="5.83375">
        <ele>597</ele>
        <time>2019-06-25T07:32:27Z</time>
      </trkpt>
      <trkpt lat="44.33705" lon="5.83375">
        <ele>597</ele>
        <time>2019-06-25T07:32:28Z</time>
      </trkpt>
      <trkpt lat="44.33709" lon="5.83375">
        <ele>597</ele>
        <time>2019-06-25T07:32:29Z</time>
      </trkpt>
      <trkpt lat="44.33714" lon="5.83376">
        <ele>597</ele>
        <time>2019-06-25T07:32:30Z</time>
      </trkpt>
      <trkpt lat="44.33718" lon="5.83377">
        <ele>597</ele>
        <time>2019-06-25T07:32:31Z</time>
      </trkpt>
      <trkpt lat="44.33722" lon="5.83377">
        <ele>597</ele>
        <time>2019-06-25T07:32:32Z</time>
      </trkpt>
      <trkpt lat="44.33726" lon="5.83377">
        <ele>597</ele>
        <time>2019-06-25T07:32:33Z</time>
      </trkpt>
      <trkpt lat="44.3373" lon="5.83378">
        <ele>597</ele>
        <time>2019-06-25T07:32:34Z</time>
      </trkpt>
      <trkpt lat="44.33735" lon="5.83378">
        <ele>597</ele>
        <time>2019-06-25T07:32:35Z</time>
      </trkpt>
      <trkpt lat="44.3374" lon="5.83379">
        <ele>597</ele>
        <time>2019-06-25T07:32:36Z</time>
      </trkpt>
      <trkpt lat="44.33744" lon="5.83379">
        <ele>597</ele>
        <time>2019-06-25T07:32:37Z</time>
      </trkpt>
      <trkpt lat="44.33749" lon="5.8338">
        <ele>597</ele>
        <time>2019-06-25T07:32:38Z</time>
      </trkpt>
      <trkpt lat="44.33753" lon="5.8338">
        <ele>598</ele>
        <time>2019-06-25T07:32:39Z</time>
      </trkpt>
      <trkpt lat="44.33758" lon="5.83381">
        <ele>598</ele>
        <time>2019-06-25T07:32:40Z</time>
      </trkpt>
      <trkpt lat="44.33763" lon="5.83381">
        <ele>598</ele>
        <time>2019-06-25T07:32:41Z</time>
      </trkpt>
      <trkpt lat="44.33768" lon="5.83381">
        <ele>598</ele>
        <time>2019-06-25T07:32:42Z</time>
      </trkpt>
      <trkpt lat="44.33772" lon="5.83382">
        <ele>599</ele>
        <time>2019-06-25T07:32:43Z</time>
      </trkpt>
      <trkpt lat="44.33777" lon="5.83383">
        <ele>599</ele>
        <time>2019-06-25T07:32:44Z</time>
      </trkpt>
      <trkpt lat="44.33781" lon="5.83383">
        <ele>599</ele>
        <time>2019-06-25T07:32:45Z</time>
      </trkpt>
      <trkpt lat="44.33786" lon="5.83384">
        <ele>600</ele>
        <time>2019-06-25T07:32:46Z</time>
      </trkpt>
      <trkpt lat="44.33791" lon="5.83385">
        <ele>600</ele>
        <time>2019-06-25T07:32:47Z</time>
      </trkpt>
      <trkpt lat="44.33795" lon="5.83386">
        <ele>600</ele>
        <time>2019-06-25T07:32:48Z</time>
      </trkpt>
      <trkpt lat="44.33799" lon="5.83387">
        <ele>601</ele>
        <time>2019-06-25T07:32:49Z</time>
      </trkpt>
      <trkpt lat="44.33804" lon="5.83388">
        <ele>601</ele>
        <time>2019-06-25T07:32:50Z</time>
      </trkpt>
      <trkpt lat="44.33808" lon="5.83389">
        <ele>601</ele>
        <time>2019-06-25T07:32:51Z</time>
      </trkpt>
      <trkpt lat="44.33812" lon="5.8339">
        <ele>601</ele>
        <time>2019-06-25T07:32:52Z</time>
      </trkpt>
      <trkpt lat="44.33816" lon="5.83391">
        <ele>602</ele>
        <time>2019-06-25T07:32:53Z</time>
      </trkpt>
      <trkpt lat="44.3382" lon="5.83392">
        <ele>602</ele>
        <time>2019-06-25T07:32:54Z</time>
      </trkpt>
      <trkpt lat="44.33825" lon="5.83392">
        <ele>602</ele>
        <time>2019-06-25T07:32:55Z</time>
      </trkpt>
      <trkpt lat="44.33829" lon="5.83393">
        <ele>602</ele>
        <time>2019-06-25T07:32:56Z</time>
      </trkpt>
      <trkpt lat="44.33833" lon="5.83394">
        <ele>602</ele>
        <time>2019-06-25T07:32:57Z</time>
      </trkpt>
      <trkpt lat="44.33838" lon="5.83395">
        <ele>602</ele>
        <time>2019-06-25T07:32:58Z</time>
      </trkpt>
      <trkpt lat="44.33842" lon="5.83396">
        <ele>602</ele>
        <time>2019-06-25T07:32:59Z</time>
      </trkpt>
      <trkpt lat="44.33846" lon="5.83397">
        <ele>602</ele>
        <time>2019-06-25T07:33:00Z</time>
      </trkpt>
      <trkpt lat="44.3385" lon="5.83398">
        <ele>602</ele>
        <time>2019-06-25T07:33:01Z</time>
      </trkpt>
      <trkpt lat="44.33855" lon="5.83399">
        <ele>602</ele>
        <time>2019-06-25T07:33:02Z</time>
      </trkpt>
      <trkpt lat="44.33859" lon="5.834">
        <ele>602</ele>
        <time>2019-06-25T07:33:03Z</time>
      </trkpt>
      <trkpt lat="44.33863" lon="5.83401">
        <ele>602</ele>
        <time>2019-06-25T07:33:04Z</time>
      </trkpt>
      <trkpt lat="44.33868" lon="5.83402">
        <ele>602</ele>
        <time>2019-06-25T07:33:05Z</time>
      </trkpt>
      <trkpt lat="44.33872" lon="5.83403">
        <ele>602</ele>
        <time>2019-06-25T07:33:06Z</time>
      </trkpt>
      <trkpt lat="44.33877" lon="5.83404">
        <ele>602</ele>
        <time>2019-06-25T07:33:07Z</time>
      </trkpt>
      <trkpt lat="44.33881" lon="5.83405">
        <ele>602</ele>
        <time>2019-06-25T07:33:08Z</time>
      </trkpt>
      <trkpt lat="44.33885" lon="5.83406">
        <ele>602</ele>
        <time>2019-06-25T07:33:09Z</time>
      </trkpt>
      <trkpt lat="44.3389" lon="5.83407">
        <ele>602</ele>
        <time>2019-06-25T07:33:10Z</time>
      </trkpt>
      <trkpt lat="44.33894" lon="5.83408">
        <ele>602</ele>
        <time>2019-06-25T07:33:11Z</time>
      </trkpt>
      <trkpt lat="44.33899" lon="5.83408">
        <ele>602</ele>
        <time>2019-06-25T07:33:12Z</time>
      </trkpt>
      <trkpt lat="44.33903" lon="5.8341">
        <ele>602</ele>
        <time>2019-06-25T07:33:13Z</time>
      </trkpt>
      <trkpt lat="44.33907" lon="5.83411">
        <ele>602</ele>
        <time>2019-06-25T07:33:14Z</time>
      </trkpt>
      <trkpt lat="44.33911" lon="5.83412">
        <ele>602</ele>
        <time>2019-06-25T07:33:15Z</time>
      </trkpt>
      <trkpt lat="44.33915" lon="5.83413">
        <ele>602</ele>
        <time>2019-06-25T07:33:16Z</time>
      </trkpt>
      <trkpt lat="44.3392" lon="5.83414">
        <ele>602</ele>
        <time>2019-06-25T07:33:17Z</time>
      </trkpt>
      <trkpt lat="44.33924" lon="5.83415">
        <ele>602</ele>
        <time>2019-06-25T07:33:18Z</time>
      </trkpt>
      <trkpt lat="44.33928" lon="5.83416">
        <ele>602</ele>
        <time>2019-06-25T07:33:19Z</time>
      </trkpt>
      <trkpt lat="44.33932" lon="5.83417">
        <ele>602</ele>
        <time>2019-06-25T07:33:20Z</time>
      </trkpt>
      <trkpt lat="44.33936" lon="5.83418">
        <ele>602</ele>
        <time>2019-06-25T07:33:21Z</time>
      </trkpt>
      <trkpt lat="44.3394" lon="5.8342">
        <ele>602</ele>
        <time>2019-06-25T07:33:22Z</time>
      </trkpt>
      <trkpt lat="44.33944" lon="5.83422">
        <ele>602</ele>
        <time>2019-06-25T07:33:23Z</time>
      </trkpt>
      <trkpt lat="44.33948" lon="5.83424">
        <ele>602</ele>
        <time>2019-06-25T07:33:24Z</time>
      </trkpt>
      <trkpt lat="44.33952" lon="5.83426">
        <ele>602</ele>
        <time>2019-06-25T07:33:25Z</time>
      </trkpt>
      <trkpt lat="44.33956" lon="5.83427">
        <ele>602</ele>
        <time>2019-06-25T07:33:26Z</time>
      </trkpt>
      <trkpt lat="44.3396" lon="5.8343">
        <ele>602</ele>
        <time>2019-06-25T07:33:27Z</time>
      </trkpt>
      <trkpt lat="44.33964" lon="5.83433">
        <ele>602</ele>
        <time>2019-06-25T07:33:28Z</time>
      </trkpt>
      <trkpt lat="44.33968" lon="5.83436">
        <ele>603</ele>
        <time>2019-06-25T07:33:29Z</time>
      </trkpt>
      <trkpt lat="44.33971" lon="5.83439">
        <ele>603</ele>
        <time>2019-06-25T07:33:30Z</time>
      </trkpt>
      <trkpt lat="44.33975" lon="5.83442">
        <ele>603</ele>
        <time>2019-06-25T07:33:31Z</time>
      </trkpt>
      <trkpt lat="44.33979" lon="5.83445">
        <ele>604</ele>
        <time>2019-06-25T07:33:32Z</time>
      </trkpt>
      <trkpt lat="44.33982" lon="5.83448">
        <ele>604</ele>
        <time>2019-06-25T07:33:33Z</time>
      </trkpt>
      <trkpt lat="44.33985" lon="5.83451">
        <ele>604</ele>
        <time>2019-06-25T07:33:34Z</time>
      </trkpt>
      <trkpt lat="44.33989" lon="5.83455">
        <ele>605</ele>
        <time>2019-06-25T07:33:35Z</time>
      </trkpt>
      <trkpt lat="44.33992" lon="5.83458">
        <ele>605</ele>
        <time>2019-06-25T07:33:36Z</time>
      </trkpt>
      <trkpt lat="44.33995" lon="5.83461">
        <ele>605</ele>
        <time>2019-06-25T07:33:37Z</time>
      </trkpt>
      <trkpt lat="44.33998" lon="5.83464">
        <ele>606</ele>
        <time>2019-06-25T07:33:38Z</time>
      </trkpt>
      <trkpt lat="44.34002" lon="5.83467">
        <ele>606</ele>
        <time>2019-06-25T07:33:39Z</time>
      </trkpt>
      <trkpt lat="44.34005" lon="5.83471">
        <ele>606</ele>
        <time>2019-06-25T07:33:40Z</time>
      </trkpt>
      <trkpt lat="44.34008" lon="5.83474">
        <ele>606</ele>
        <time>2019-06-25T07:33:41Z</time>
      </trkpt>
      <trkpt lat="44.34012" lon="5.83478">
        <ele>607</ele>
        <time>2019-06-25T07:33:42Z</time>
      </trkpt>
      <trkpt lat="44.34015" lon="5.83481">
        <ele>607</ele>
        <time>2019-06-25T07:33:43Z</time>
      </trkpt>
      <trkpt lat="44.34018" lon="5.83485">
        <ele>607</ele>
        <time>2019-06-25T07:33:44Z</time>
      </trkpt>
      <trkpt lat="44.34021" lon="5.83488">
        <ele>607</ele>
        <time>2019-06-25T07:33:45Z</time>
      </trkpt>
      <trkpt lat="44.34025" lon="5.83491">
        <ele>608</ele>
        <time>2019-06-25T07:33:46Z</time>
      </trkpt>
      <trkpt lat="44.34028" lon="5.83495">
        <ele>608</ele>
        <time>2019-06-25T07:33:47Z</time>
      </trkpt>
      <trkpt lat="44.34032" lon="5.83498">
        <ele>608</ele>
        <time>2019-06-25T07:33:48Z</time>
      </trkpt>
      <trkpt lat="44.34035" lon="5.83501">
        <ele>608</ele>
        <time>2019-06-25T07:33:49Z</time>
      </trkpt>
      <trkpt lat="44.34038" lon="5.83505">
        <ele>608</ele>
        <time>2019-06-25T07:33:50Z</time>
      </trkpt>
      <trkpt lat="44.34042" lon="5.83508">
        <ele>608</ele>
        <time>2019-06-25T07:33:51Z</time>
      </trkpt>
      <trkpt lat="44.34045" lon="5.83512">
        <ele>609</ele>
        <time>2019-06-25T07:33:52Z</time>
      </trkpt>
      <trkpt lat="44.34048" lon="5.83515">
        <ele>609</ele>
        <time>2019-06-25T07:33:53Z</time>
      </trkpt>
      <trkpt lat="44.34052" lon="5.83519">
        <ele>609</ele>
        <time>2019-06-25T07:33:54Z</time>
      </trkpt>
      <trkpt lat="44.34055" lon="5.83522">
        <ele>609</ele>
        <time>2019-06-25T07:33:55Z</time>
      </trkpt>
      <trkpt lat="44.34058" lon="5.83526">
        <ele>609</ele>
        <time>2019-06-25T07:33:56Z</time>
      </trkpt>
      <trkpt lat="44.34062" lon="5.83529">
        <ele>609</ele>
        <time>2019-06-25T07:33:57Z</time>
      </trkpt>
      <trkpt lat="44.34066" lon="5.83532">
        <ele>609</ele>
        <time>2019-06-25T07:33:58Z</time>
      </trkpt>
      <trkpt lat="44.34069" lon="5.83535">
        <ele>610</ele>
        <time>2019-06-25T07:33:59Z</time>
      </trkpt>
      <trkpt lat="44.34072" lon="5.83539">
        <ele>610</ele>
        <time>2019-06-25T07:34:00Z</time>
      </trkpt>
      <trkpt lat="44.34076" lon="5.83542">
        <ele>610</ele>
        <time>2019-06-25T07:34:01Z</time>
      </trkpt>
      <trkpt lat="44.34079" lon="5.83545">
        <ele>610</ele>
        <time>2019-06-25T07:34:02Z</time>
      </trkpt>
      <trkpt lat="44.34082" lon="5.83549">
        <ele>610</ele>
        <time>2019-06-25T07:34:03Z</time>
      </trkpt>
      <trkpt lat="44.34086" lon="5.83552">
        <ele>610</ele>
        <time>2019-06-25T07:34:04Z</time>
      </trkpt>
      <trkpt lat="44.34089" lon="5.83556">
        <ele>611</ele>
        <time>2019-06-25T07:34:05Z</time>
      </trkpt>
      <trkpt lat="44.34093" lon="5.83559">
        <ele>611</ele>
        <time>2019-06-25T07:34:06Z</time>
      </trkpt>
      <trkpt lat="44.34096" lon="5.83563">
        <ele>611</ele>
        <time>2019-06-25T07:34:07Z</time>
      </trkpt>
      <trkpt lat="44.341" lon="5.83566">
        <ele>611</ele>
        <time>2019-06-25T07:34:08Z</time>
      </trkpt>
      <trkpt lat="44.34103" lon="5.8357">
        <ele>611</ele>
        <time>2019-06-25T07:34:09Z</time>
      </trkpt>
      <trkpt lat="44.34107" lon="5.83574">
        <ele>611</ele>
        <time>2019-06-25T07:34:10Z</time>
      </trkpt>
      <trkpt lat="44.34111" lon="5.83578">
        <ele>611</ele>
        <time>2019-06-25T07:34:11Z</time>
      </trkpt>
      <trkpt lat="44.34115" lon="5.83581">
        <ele>612</ele>
        <time>2019-06-25T07:34:12Z</time>
      </trkpt>
      <trkpt lat="44.34119" lon="5.83585">
        <ele>612</ele>
        <time>2019-06-25T07:34:13Z</time>
      </trkpt>
      <trkpt lat="44.34123" lon="5.8359">
        <ele>612</ele>
        <time>2019-06-25T07:34:14Z</time>
      </trkpt>
      <trkpt lat="44.34127" lon="5.83594">
        <ele>612</ele>
        <time>2019-06-25T07:34:15Z</time>
      </trkpt>
      <trkpt lat="44.34131" lon="5.83598">
        <ele>612</ele>
        <time>2019-06-25T07:34:16Z</time>
      </trkpt>
      <trkpt lat="44.34135" lon="5.83603">
        <ele>612</ele>
        <time>2019-06-25T07:34:17Z</time>
      </trkpt>
      <trkpt lat="44.3414" lon="5.83607">
        <ele>612</ele>
        <time>2019-06-25T07:34:18Z</time>
      </trkpt>
      <trkpt lat="44.34145" lon="5.83612">
        <ele>612</ele>
        <time>2019-06-25T07:34:19Z</time>
      </trkpt>
      <trkpt lat="44.3415" lon="5.83616">
        <ele>612</ele>
        <time>2019-06-25T07:34:20Z</time>
      </trkpt>
      <trkpt lat="44.34156" lon="5.83621">
        <ele>612</ele>
        <time>2019-06-25T07:34:21Z</time>
      </trkpt>
      <trkpt lat="44.34161" lon="5.83626">
        <ele>612</ele>
        <time>2019-06-25T07:34:22Z</time>
      </trkpt>
      <trkpt lat="44.34165" lon="5.83631">
        <ele>612</ele>
        <time>2019-06-25T07:34:23Z</time>
      </trkpt>
      <trkpt lat="44.3417" lon="5.83636">
        <ele>612</ele>
        <time>2019-06-25T07:34:24Z</time>
      </trkpt>
      <trkpt lat="44.34176" lon="5.8364">
        <ele>612</ele>
        <time>2019-06-25T07:34:25Z</time>
      </trkpt>
      <trkpt lat="44.34181" lon="5.83645">
        <ele>612</ele>
        <time>2019-06-25T07:34:26Z</time>
      </trkpt>
      <trkpt lat="44.34186" lon="5.8365">
        <ele>612</ele>
        <time>2019-06-25T07:34:27Z</time>
      </trkpt>
      <trkpt lat="44.3419" lon="5.83656">
        <ele>613</ele>
        <time>2019-06-25T07:34:28Z</time>
      </trkpt>
      <trkpt lat="44.34195" lon="5.83661">
        <ele>613</ele>
        <time>2019-06-25T07:34:29Z</time>
      </trkpt>
      <trkpt lat="44.34199" lon="5.83666">
        <ele>613</ele>
        <time>2019-06-25T07:34:30Z</time>
      </trkpt>
      <trkpt lat="44.34203" lon="5.83672">
        <ele>613</ele>
        <time>2019-06-25T07:34:31Z</time>
      </trkpt>
      <trkpt lat="44.34208" lon="5.83677">
        <ele>613</ele>
        <time>2019-06-25T07:34:32Z</time>
      </trkpt>
      <trkpt lat="44.34212" lon="5.83682">
        <ele>614</ele>
        <time>2019-06-25T07:34:33Z</time>
      </trkpt>
      <trkpt lat="44.34216" lon="5.83688">
        <ele>614</ele>
        <time>2019-06-25T07:34:34Z</time>
      </trkpt>
      <trkpt lat="44.3422" lon="5.83693">
        <ele>614</ele>
        <time>2019-06-25T07:34:35Z</time>
      </trkpt>
      <trkpt lat="44.34224" lon="5.83698">
        <ele>614</ele>
        <time>2019-06-25T07:34:36Z</time>
      </trkpt>
      <trkpt lat="44.34227" lon="5.83703">
        <ele>614</ele>
        <time>2019-06-25T07:34:37Z</time>
      </trkpt>
      <trkpt lat="44.34231" lon="5.83708">
        <ele>614</ele>
        <time>2019-06-25T07:34:38Z</time>
      </trkpt>
      <trkpt lat="44.34235" lon="5.83713">
        <ele>614</ele>
        <time>2019-06-25T07:34:39Z</time>
      </trkpt>
      <trkpt lat="44.3424" lon="5.83718">
        <ele>614</ele>
        <time>2019-06-25T07:34:40Z</time>
      </trkpt>
      <trkpt lat="44.34243" lon="5.83723">
        <ele>614</ele>
        <time>2019-06-25T07:34:41Z</time>
      </trkpt>
      <trkpt lat="44.34247" lon="5.83728">
        <ele>614</ele>
        <time>2019-06-25T07:34:42Z</time>
      </trkpt>
      <trkpt lat="44.34251" lon="5.83733">
        <ele>614</ele>
        <time>2019-06-25T07:34:43Z</time>
      </trkpt>
      <trkpt lat="44.34255" lon="5.83738">
        <ele>614</ele>
        <time>2019-06-25T07:34:44Z</time>
      </trkpt>
      <trkpt lat="44.34259" lon="5.83742">
        <ele>614</ele>
        <time>2019-06-25T07:34:45Z</time>
      </trkpt>
      <trkpt lat="44.34262" lon="5.83747">
        <ele>615</ele>
        <time>2019-06-25T07:34:46Z</time>
      </trkpt>
      <trkpt lat="44.34266" lon="5.83752">
        <ele>615</ele>
        <time>2019-06-25T07:34:47Z</time>
      </trkpt>
      <trkpt lat="44.3427" lon="5.83756">
        <ele>615</ele>
        <time>2019-06-25T07:34:48Z</time>
      </trkpt>
      <trkpt lat="44.34274" lon="5.83761">
        <ele>615</ele>
        <time>2019-06-25T07:34:49Z</time>
      </trkpt>
      <trkpt lat="44.34278" lon="5.83766">
        <ele>615</ele>
        <time>2019-06-25T07:34:50Z</time>
      </trkpt>
      <trkpt lat="44.34282" lon="5.8377">
        <ele>616</ele>
        <time>2019-06-25T07:34:51Z</time>
      </trkpt>
      <trkpt lat="44.34285" lon="5.83775">
        <ele>616</ele>
        <time>2019-06-25T07:34:52Z</time>
      </trkpt>
      <trkpt lat="44.34288" lon="5.8378">
        <ele>616</ele>
        <time>2019-06-25T07:34:53Z</time>
      </trkpt>
      <trkpt lat="44.34292" lon="5.83784">
        <ele>616</ele>
        <time>2019-06-25T07:34:54Z</time>
      </trkpt>
      <trkpt lat="44.34296" lon="5.83789">
        <ele>616</ele>
        <time>2019-06-25T07:34:55Z</time>
      </trkpt>
      <trkpt lat="44.343" lon="5.83794">
        <ele>616</ele>
        <time>2019-06-25T07:34:56Z</time>
      </trkpt>
      <trkpt lat="44.34303" lon="5.83799">
        <ele>616</ele>
        <time>2019-06-25T07:34:57Z</time>
      </trkpt>
      <trkpt lat="44.34307" lon="5.83804">
        <ele>616</ele>
        <time>2019-06-25T07:34:58Z</time>
      </trkpt>
      <trkpt lat="44.34311" lon="5.83808">
        <ele>616</ele>
        <time>2019-06-25T07:34:59Z</time>
      </trkpt>
      <trkpt lat="44.34314" lon="5.83813">
        <ele>616</ele>
        <time>2019-06-25T07:35:00Z</time>
      </trkpt>
      <trkpt lat="44.34319" lon="5.83818">
        <ele>616</ele>
        <time>2019-06-25T07:35:01Z</time>
      </trkpt>
      <trkpt lat="44.34322" lon="5.83823">
        <ele>616</ele>
        <time>2019-06-25T07:35:02Z</time>
      </trkpt>
      <trkpt lat="44.34326" lon="5.83827">
        <ele>616</ele>
        <time>2019-06-25T07:35:02Z</time>
      </trkpt>
      <trkpt lat="44.3433" lon="5.83832">
        <ele>616</ele>
        <time>2019-06-25T07:35:04Z</time>
      </trkpt>
      <trkpt lat="44.34333" lon="5.83837">
        <ele>616</ele>
        <time>2019-06-25T07:35:05Z</time>
      </trkpt>
      <trkpt lat="44.34337" lon="5.83842">
        <ele>616</ele>
        <time>2019-06-25T07:35:06Z</time>
      </trkpt>
      <trkpt lat="44.34341" lon="5.83846">
        <ele>616</ele>
        <time>2019-06-25T07:35:07Z</time>
      </trkpt>
      <trkpt lat="44.34344" lon="5.83851">
        <ele>616</ele>
        <time>2019-06-25T07:35:08Z</time>
      </trkpt>
      <trkpt lat="44.34348" lon="5.83856">
        <ele>616</ele>
        <time>2019-06-25T07:35:09Z</time>
      </trkpt>
      <trkpt lat="44.34352" lon="5.83861">
        <ele>616</ele>
        <time>2019-06-25T07:35:10Z</time>
      </trkpt>
      <trkpt lat="44.34356" lon="5.83865">
        <ele>616</ele>
        <time>2019-06-25T07:35:11Z</time>
      </trkpt>
      <trkpt lat="44.34359" lon="5.8387">
        <ele>617</ele>
        <time>2019-06-25T07:35:12Z</time>
      </trkpt>
      <trkpt lat="44.34363" lon="5.83875">
        <ele>617</ele>
        <time>2019-06-25T07:35:13Z</time>
      </trkpt>
      <trkpt lat="44.34366" lon="5.8388">
        <ele>617</ele>
        <time>2019-06-25T07:35:14Z</time>
      </trkpt>
      <trkpt lat="44.3437" lon="5.83884">
        <ele>617</ele>
        <time>2019-06-25T07:35:15Z</time>
      </trkpt>
      <trkpt lat="44.34373" lon="5.83889">
        <ele>617</ele>
        <time>2019-06-25T07:35:16Z</time>
      </trkpt>
      <trkpt lat="44.34377" lon="5.83894">
        <ele>617</ele>
        <time>2019-06-25T07:35:17Z</time>
      </trkpt>
      <trkpt lat="44.34381" lon="5.83899">
        <ele>617</ele>
        <time>2019-06-25T07:35:18Z</time>
      </trkpt>
      <trkpt lat="44.34385" lon="5.83904">
        <ele>617</ele>
        <time>2019-06-25T07:35:19Z</time>
      </trkpt>
      <trkpt lat="44.34388" lon="5.83909">
        <ele>617</ele>
        <time>2019-06-25T07:35:20Z</time>
      </trkpt>
      <trkpt lat="44.34392" lon="5.83913">
        <ele>617</ele>
        <time>2019-06-25T07:35:21Z</time>
      </trkpt>
      <trkpt lat="44.34396" lon="5.83918">
        <ele>617</ele>
        <time>2019-06-25T07:35:22Z</time>
      </trkpt>
      <trkpt lat="44.34399" lon="5.83923">
        <ele>617</ele>
        <time>2019-06-25T07:35:23Z</time>
      </trkpt>
      <trkpt lat="44.34403" lon="5.83927">
        <ele>617</ele>
        <time>2019-06-25T07:35:24Z</time>
      </trkpt>
      <trkpt lat="44.34407" lon="5.83932">
        <ele>618</ele>
        <time>2019-06-25T07:35:25Z</time>
      </trkpt>
      <trkpt lat="44.3441" lon="5.83937">
        <ele>618</ele>
        <time>2019-06-25T07:35:26Z</time>
      </trkpt>
      <trkpt lat="44.34414" lon="5.83942">
        <ele>618</ele>
        <time>2019-06-25T07:35:27Z</time>
      </trkpt>
      <trkpt lat="44.34418" lon="5.83947">
        <ele>618</ele>
        <time>2019-06-25T07:35:28Z</time>
      </trkpt>
      <trkpt lat="44.34422" lon="5.83952">
        <ele>618</ele>
        <time>2019-06-25T07:35:29Z</time>
      </trkpt>
      <trkpt lat="44.34426" lon="5.83957">
        <ele>618</ele>
        <time>2019-06-25T07:35:30Z</time>
      </trkpt>
      <trkpt lat="44.3443" lon="5.83962">
        <ele>618</ele>
        <time>2019-06-25T07:35:31Z</time>
      </trkpt>
      <trkpt lat="44.34433" lon="5.83967">
        <ele>618</ele>
        <time>2019-06-25T07:35:32Z</time>
      </trkpt>
      <trkpt lat="44.34437" lon="5.83972">
        <ele>618</ele>
        <time>2019-06-25T07:35:33Z</time>
      </trkpt>
      <trkpt lat="44.34441" lon="5.83977">
        <ele>618</ele>
        <time>2019-06-25T07:35:34Z</time>
      </trkpt>
      <trkpt lat="44.34445" lon="5.83982">
        <ele>618</ele>
        <time>2019-06-25T07:35:35Z</time>
      </trkpt>
      <trkpt lat="44.34449" lon="5.83988">
        <ele>618</ele>
        <time>2019-06-25T07:35:36Z</time>
      </trkpt>
      <trkpt lat="44.34453" lon="5.83993">
        <ele>618</ele>
        <time>2019-06-25T07:35:37Z</time>
      </trkpt>
      <trkpt lat="44.34457" lon="5.83998">
        <ele>618</ele>
        <time>2019-06-25T07:35:38Z</time>
      </trkpt>
      <trkpt lat="44.34461" lon="5.84003">
        <ele>618</ele>
        <time>2019-06-25T07:35:39Z</time>
      </trkpt>
      <trkpt lat="44.34465" lon="5.84008">
        <ele>618</ele>
        <time>2019-06-25T07:35:40Z</time>
      </trkpt>
      <trkpt lat="44.34469" lon="5.84013">
        <ele>618</ele>
        <time>2019-06-25T07:35:41Z</time>
      </trkpt>
      <trkpt lat="44.34473" lon="5.84018">
        <ele>618</ele>
        <time>2019-06-25T07:35:42Z</time>
      </trkpt>
      <trkpt lat="44.34477" lon="5.84024">
        <ele>618</ele>
        <time>2019-06-25T07:35:43Z</time>
      </trkpt>
      <trkpt lat="44.34481" lon="5.84029">
        <ele>618</ele>
        <time>2019-06-25T07:35:44Z</time>
      </trkpt>
      <trkpt lat="44.34486" lon="5.84034">
        <ele>618</ele>
        <time>2019-06-25T07:35:45Z</time>
      </trkpt>
      <trkpt lat="44.34489" lon="5.8404">
        <ele>618</ele>
        <time>2019-06-25T07:35:46Z</time>
      </trkpt>
      <trkpt lat="44.34494" lon="5.84045">
        <ele>618</ele>
        <time>2019-06-25T07:35:47Z</time>
      </trkpt>
      <trkpt lat="44.34499" lon="5.84051">
        <ele>618</ele>
        <time>2019-06-25T07:35:48Z</time>
      </trkpt>
      <trkpt lat="44.34503" lon="5.84057">
        <ele>618</ele>
        <time>2019-06-25T07:35:49Z</time>
      </trkpt>
      <trkpt lat="44.34507" lon="5.84063">
        <ele>618</ele>
        <time>2019-06-25T07:35:50Z</time>
      </trkpt>
      <trkpt lat="44.34512" lon="5.84068">
        <ele>618</ele>
        <time>2019-06-25T07:35:51Z</time>
      </trkpt>
      <trkpt lat="44.34516" lon="5.84074">
        <ele>618</ele>
        <time>2019-06-25T07:35:52Z</time>
      </trkpt>
      <trkpt lat="44.3452" lon="5.8408">
        <ele>618</ele>
        <time>2019-06-25T07:35:53Z</time>
      </trkpt>
      <trkpt lat="44.34525" lon="5.84086">
        <ele>618</ele>
        <time>2019-06-25T07:35:54Z</time>
      </trkpt>
      <trkpt lat="44.34529" lon="5.84091">
        <ele>618</ele>
        <time>2019-06-25T07:35:55Z</time>
      </trkpt>
      <trkpt lat="44.34534" lon="5.84096">
        <ele>618</ele>
        <time>2019-06-25T07:35:56Z</time>
      </trkpt>
      <trkpt lat="44.34538" lon="5.84102">
        <ele>618</ele>
        <time>2019-06-25T07:35:57Z</time>
      </trkpt>
      <trkpt lat="44.34542" lon="5.84108">
        <ele>618</ele>
        <time>2019-06-25T07:35:58Z</time>
      </trkpt>
      <trkpt lat="44.34546" lon="5.84113">
        <ele>618</ele>
        <time>2019-06-25T07:35:59Z</time>
      </trkpt>
      <trkpt lat="44.3455" lon="5.84119">
        <ele>618</ele>
        <time>2019-06-25T07:36:00Z</time>
      </trkpt>
      <trkpt lat="44.34555" lon="5.84125">
        <ele>618</ele>
        <time>2019-06-25T07:36:01Z</time>
      </trkpt>
      <trkpt lat="44.34559" lon="5.8413">
        <ele>618</ele>
        <time>2019-06-25T07:36:02Z</time>
      </trkpt>
      <trkpt lat="44.34563" lon="5.84136">
        <ele>618</ele>
        <time>2019-06-25T07:36:03Z</time>
      </trkpt>
      <trkpt lat="44.34567" lon="5.84142">
        <ele>618</ele>
        <time>2019-06-25T07:36:04Z</time>
      </trkpt>
      <trkpt lat="44.34571" lon="5.84148">
        <ele>618</ele>
        <time>2019-06-25T07:36:05Z</time>
      </trkpt>
      <trkpt lat="44.34576" lon="5.84154">
        <ele>618</ele>
        <time>2019-06-25T07:36:06Z</time>
      </trkpt>
      <trkpt lat="44.34579" lon="5.84159">
        <ele>618</ele>
        <time>2019-06-25T07:36:07Z</time>
      </trkpt>
      <trkpt lat="44.34584" lon="5.84165">
        <ele>618</ele>
        <time>2019-06-25T07:36:08Z</time>
      </trkpt>
      <trkpt lat="44.34587" lon="5.84171">
        <ele>618</ele>
        <time>2019-06-25T07:36:09Z</time>
      </trkpt>
      <trkpt lat="44.34591" lon="5.84177">
        <ele>618</ele>
        <time>2019-06-25T07:36:10Z</time>
      </trkpt>
      <trkpt lat="44.34594" lon="5.84183">
        <ele>618</ele>
        <time>2019-06-25T07:36:11Z</time>
      </trkpt>
      <trkpt lat="44.34597" lon="5.84189">
        <ele>618</ele>
        <time>2019-06-25T07:36:12Z</time>
      </trkpt>
      <trkpt lat="44.346" lon="5.84195">
        <ele>618</ele>
        <time>2019-06-25T07:36:13Z</time>
      </trkpt>
      <trkpt lat="44.34603" lon="5.84201">
        <ele>618</ele>
        <time>2019-06-25T07:36:14Z</time>
      </trkpt>
      <trkpt lat="44.34606" lon="5.84207">
        <ele>618</ele>
        <time>2019-06-25T07:36:15Z</time>
      </trkpt>
      <trkpt lat="44.34608" lon="5.84214">
        <ele>618</ele>
        <time>2019-06-25T07:36:16Z</time>
      </trkpt>
      <trkpt lat="44.3461" lon="5.84221">
        <ele>618</ele>
        <time>2019-06-25T07:36:17Z</time>
      </trkpt>
      <trkpt lat="44.34613" lon="5.84227">
        <ele>618</ele>
        <time>2019-06-25T07:36:18Z</time>
      </trkpt>
      <trkpt lat="44.34615" lon="5.84234">
        <ele>618</ele>
        <time>2019-06-25T07:36:19Z</time>
      </trkpt>
      <trkpt lat="44.34616" lon="5.8424">
        <ele>618</ele>
        <time>2019-06-25T07:36:20Z</time>
      </trkpt>
      <trkpt lat="44.34618" lon="5.84246">
        <ele>618</ele>
        <time>2019-06-25T07:36:21Z</time>
      </trkpt>
      <trkpt lat="44.34619" lon="5.84253">
        <ele>618</ele>
        <time>2019-06-25T07:36:22Z</time>
      </trkpt>
      <trkpt lat="44.3462" lon="5.8426">
        <ele>618</ele>
        <time>2019-06-25T07:36:23Z</time>
      </trkpt>
      <trkpt lat="44.34621" lon="5.84266">
        <ele>618</ele>
        <time>2019-06-25T07:36:24Z</time>
      </trkpt>
      <trkpt lat="44.34623" lon="5.84273">
        <ele>618</ele>
        <time>2019-06-25T07:36:25Z</time>
      </trkpt>
      <trkpt lat="44.34624" lon="5.84279">
        <ele>618</ele>
        <time>2019-06-25T07:36:26Z</time>
      </trkpt>
      <trkpt lat="44.34625" lon="5.84286">
        <ele>618</ele>
        <time>2019-06-25T07:36:27Z</time>
      </trkpt>
      <trkpt lat="44.34626" lon="5.84293">
        <ele>618</ele>
        <time>2019-06-25T07:36:28Z</time>
      </trkpt>
      <trkpt lat="44.34628" lon="5.843">
        <ele>618</ele>
        <time>2019-06-25T07:36:29Z</time>
      </trkpt>
      <trkpt lat="44.3463" lon="5.84307">
        <ele>618</ele>
        <time>2019-06-25T07:36:30Z</time>
      </trkpt>
      <trkpt lat="44.34631" lon="5.84314">
        <ele>618</ele>
        <time>2019-06-25T07:36:31Z</time>
      </trkpt>
      <trkpt lat="44.34633" lon="5.8432">
        <ele>618</ele>
        <time>2019-06-25T07:36:32Z</time>
      </trkpt>
      <trkpt lat="44.34634" lon="5.84327">
        <ele>619</ele>
        <time>2019-06-25T07:36:33Z</time>
      </trkpt>
      <trkpt lat="44.34636" lon="5.84333">
        <ele>619</ele>
        <time>2019-06-25T07:36:34Z</time>
      </trkpt>
      <trkpt lat="44.34637" lon="5.8434">
        <ele>619</ele>
        <time>2019-06-25T07:36:35Z</time>
      </trkpt>
      <trkpt lat="44.34639" lon="5.84346">
        <ele>620</ele>
        <time>2019-06-25T07:36:35Z</time>
      </trkpt>
      <trkpt lat="44.34641" lon="5.84352">
        <ele>620</ele>
        <time>2019-06-25T07:36:37Z</time>
      </trkpt>
      <trkpt lat="44.34643" lon="5.84359">
        <ele>620</ele>
        <time>2019-06-25T07:36:38Z</time>
      </trkpt>
      <trkpt lat="44.34645" lon="5.84365">
        <ele>620</ele>
        <time>2019-06-25T07:36:39Z</time>
      </trkpt>
      <trkpt lat="44.34648" lon="5.84371">
        <ele>621</ele>
        <time>2019-06-25T07:36:40Z</time>
      </trkpt>
      <trkpt lat="44.3465" lon="5.84377">
        <ele>621</ele>
        <time>2019-06-25T07:36:41Z</time>
      </trkpt>
      <trkpt lat="44.34653" lon="5.84383">
        <ele>621</ele>
        <time>2019-06-25T07:36:41Z</time>
      </trkpt>
      <trkpt lat="44.34655" lon="5.84389">
        <ele>621</ele>
        <time>2019-06-25T07:36:43Z</time>
      </trkpt>
      <trkpt lat="44.34658" lon="5.84394">
        <ele>621</ele>
        <time>2019-06-25T07:36:44Z</time>
      </trkpt>
      <trkpt lat="44.34661" lon="5.844">
        <ele>621</ele>
        <time>2019-06-25T07:36:45Z</time>
      </trkpt>
      <trkpt lat="44.34664" lon="5.84406">
        <ele>622</ele>
        <time>2019-06-25T07:36:46Z</time>
      </trkpt>
      <trkpt lat="44.34667" lon="5.84411">
        <ele>622</ele>
        <time>2019-06-25T07:36:47Z</time>
      </trkpt>
      <trkpt lat="44.3467" lon="5.84416">
        <ele>622</ele>
        <time>2019-06-25T07:36:48Z</time>
      </trkpt>
      <trkpt lat="44.34674" lon="5.84422">
        <ele>622</ele>
        <time>2019-06-25T07:36:49Z</time>
      </trkpt>
      <trkpt lat="44.34677" lon="5.84426">
        <ele>623</ele>
        <time>2019-06-25T07:36:50Z</time>
      </trkpt>
      <trkpt lat="44.34681" lon="5.84431">
        <ele>623</ele>
        <time>2019-06-25T07:36:51Z</time>
      </trkpt>
      <trkpt lat="44.34684" lon="5.84436">
        <ele>623</ele>
        <time>2019-06-25T07:36:52Z</time>
      </trkpt>
      <trkpt lat="44.34688" lon="5.8444">
        <ele>623</ele>
        <time>2019-06-25T07:36:53Z</time>
      </trkpt>
      <trkpt lat="44.34691" lon="5.84445">
        <ele>623</ele>
        <time>2019-06-25T07:36:54Z</time>
      </trkpt>
      <trkpt lat="44.34695" lon="5.84449">
        <ele>624</ele>
        <time>2019-06-25T07:36:55Z</time>
      </trkpt>
      <trkpt lat="44.34698" lon="5.84453">
        <ele>624</ele>
        <time>2019-06-25T07:36:56Z</time>
      </trkpt>
      <trkpt lat="44.34701" lon="5.84457">
        <ele>624</ele>
        <time>2019-06-25T07:36:57Z</time>
      </trkpt>
      <trkpt lat="44.34705" lon="5.84461">
        <ele>624</ele>
        <time>2019-06-25T07:36:58Z</time>
      </trkpt>
      <trkpt lat="44.34708" lon="5.84466">
        <ele>624</ele>
        <time>2019-06-25T07:36:59Z</time>
      </trkpt>
      <trkpt lat="44.34712" lon="5.8447">
        <ele>624</ele>
        <time>2019-06-25T07:37:00Z</time>
      </trkpt>
      <trkpt lat="44.34715" lon="5.84474">
        <ele>624</ele>
        <time>2019-06-25T07:37:01Z</time>
      </trkpt>
      <trkpt lat="44.34719" lon="5.84479">
        <ele>624</ele>
        <time>2019-06-25T07:37:02Z</time>
      </trkpt>
      <trkpt lat="44.34723" lon="5.84483">
        <ele>624</ele>
        <time>2019-06-25T07:37:03Z</time>
      </trkpt>
      <trkpt lat="44.34726" lon="5.84488">
        <ele>624</ele>
        <time>2019-06-25T07:37:04Z</time>
      </trkpt>
      <trkpt lat="44.3473" lon="5.84492">
        <ele>624</ele>
        <time>2019-06-25T07:37:05Z</time>
      </trkpt>
      <trkpt lat="44.34734" lon="5.84496">
        <ele>624</ele>
        <time>2019-06-25T07:37:06Z</time>
      </trkpt>
      <trkpt lat="44.34738" lon="5.84501">
        <ele>624</ele>
        <time>2019-06-25T07:37:07Z</time>
      </trkpt>
      <trkpt lat="44.34742" lon="5.84505">
        <ele>625</ele>
        <time>2019-06-25T07:37:08Z</time>
      </trkpt>
      <trkpt lat="44.34745" lon="5.84509">
        <ele>625</ele>
        <time>2019-06-25T07:37:09Z</time>
      </trkpt>
      <trkpt lat="44.34749" lon="5.84514">
        <ele>625</ele>
        <time>2019-06-25T07:37:10Z</time>
      </trkpt>
      <trkpt lat="44.34753" lon="5.84518">
        <ele>625</ele>
        <time>2019-06-25T07:37:11Z</time>
      </trkpt>
      <trkpt lat="44.34756" lon="5.84523">
        <ele>625</ele>
        <time>2019-06-25T07:37:12Z</time>
      </trkpt>
      <trkpt lat="44.3476" lon="5.84527">
        <ele>625</ele>
        <time>2019-06-25T07:37:13Z</time>
      </trkpt>
      <trkpt lat="44.34764" lon="5.84531">
        <ele>625</ele>
        <time>2019-06-25T07:37:14Z</time>
      </trkpt>
      <trkpt lat="44.34768" lon="5.84536">
        <ele>625</ele>
        <time>2019-06-25T07:37:15Z</time>
      </trkpt>
      <trkpt lat="44.34771" lon="5.84541">
        <ele>625</ele>
        <time>2019-06-25T07:37:16Z</time>
      </trkpt>
      <trkpt lat="44.34775" lon="5.84545">
        <ele>626</ele>
        <time>2019-06-25T07:37:17Z</time>
      </trkpt>
      <trkpt lat="44.34779" lon="5.8455">
        <ele>626</ele>
        <time>2019-06-25T07:37:18Z</time>
      </trkpt>
      <trkpt lat="44.34783" lon="5.84554">
        <ele>626</ele>
        <time>2019-06-25T07:37:19Z</time>
      </trkpt>
      <trkpt lat="44.34787" lon="5.84558">
        <ele>626</ele>
        <time>2019-06-25T07:37:20Z</time>
      </trkpt>
      <trkpt lat="44.34791" lon="5.84563">
        <ele>626</ele>
        <time>2019-06-25T07:37:21Z</time>
      </trkpt>
      <trkpt lat="44.34795" lon="5.84567">
        <ele>626</ele>
        <time>2019-06-25T07:37:22Z</time>
      </trkpt>
      <trkpt lat="44.34798" lon="5.84572">
        <ele>626</ele>
        <time>2019-06-25T07:37:23Z</time>
      </trkpt>
      <trkpt lat="44.34802" lon="5.84577">
        <ele>626</ele>
        <time>2019-06-25T07:37:24Z</time>
      </trkpt>
      <trkpt lat="44.34806" lon="5.84582">
        <ele>626</ele>
        <time>2019-06-25T07:37:25Z</time>
      </trkpt>
      <trkpt lat="44.3481" lon="5.84586">
        <ele>626</ele>
        <time>2019-06-25T07:37:26Z</time>
      </trkpt>
      <trkpt lat="44.34814" lon="5.84591">
        <ele>626</ele>
        <time>2019-06-25T07:37:27Z</time>
      </trkpt>
      <trkpt lat="44.34818" lon="5.84596">
        <ele>627</ele>
        <time>2019-06-25T07:37:28Z</time>
      </trkpt>
      <trkpt lat="44.34822" lon="5.846">
        <ele>627</ele>
        <time>2019-06-25T07:37:29Z</time>
      </trkpt>
      <trkpt lat="44.34826" lon="5.84605">
        <ele>627</ele>
        <time>2019-06-25T07:37:30Z</time>
      </trkpt>
      <trkpt lat="44.34829" lon="5.8461">
        <ele>627</ele>
        <time>2019-06-25T07:37:31Z</time>
      </trkpt>
      <trkpt lat="44.34833" lon="5.84615">
        <ele>627</ele>
        <time>2019-06-25T07:37:32Z</time>
      </trkpt>
      <trkpt lat="44.34837" lon="5.84621">
        <ele>627</ele>
        <time>2019-06-25T07:37:33Z</time>
      </trkpt>
      <trkpt lat="44.3484" lon="5.84626">
        <ele>627</ele>
        <time>2019-06-25T07:37:34Z</time>
      </trkpt>
      <trkpt lat="44.34844" lon="5.84632">
        <ele>627</ele>
        <time>2019-06-25T07:37:35Z</time>
      </trkpt>
      <trkpt lat="44.34848" lon="5.84637">
        <ele>627</ele>
        <time>2019-06-25T07:37:36Z</time>
      </trkpt>
      <trkpt lat="44.34851" lon="5.84643">
        <ele>627</ele>
        <time>2019-06-25T07:37:37Z</time>
      </trkpt>
      <trkpt lat="44.34854" lon="5.84648">
        <ele>627</ele>
        <time>2019-06-25T07:37:38Z</time>
      </trkpt>
      <trkpt lat="44.34858" lon="5.84654">
        <ele>627</ele>
        <time>2019-06-25T07:37:39Z</time>
      </trkpt>
      <trkpt lat="44.34861" lon="5.8466">
        <ele>627</ele>
        <time>2019-06-25T07:37:40Z</time>
      </trkpt>
      <trkpt lat="44.34864" lon="5.84665">
        <ele>627</ele>
        <time>2019-06-25T07:37:41Z</time>
      </trkpt>
      <trkpt lat="44.34867" lon="5.84671">
        <ele>627</ele>
        <time>2019-06-25T07:37:42Z</time>
      </trkpt>
      <trkpt lat="44.3487" lon="5.84677">
        <ele>627</ele>
        <time>2019-06-25T07:37:43Z</time>
      </trkpt>
      <trkpt lat="44.34874" lon="5.84683">
        <ele>627</ele>
        <time>2019-06-25T07:37:43Z</time>
      </trkpt>
      <trkpt lat="44.34877" lon="5.84688">
        <ele>627</ele>
        <time>2019-06-25T07:37:45Z</time>
      </trkpt>
      <trkpt lat="44.3488" lon="5.84694">
        <ele>627</ele>
        <time>2019-06-25T07:37:46Z</time>
      </trkpt>
      <trkpt lat="44.34884" lon="5.84699">
        <ele>627</ele>
        <time>2019-06-25T07:37:47Z</time>
      </trkpt>
      <trkpt lat="44.34887" lon="5.84705">
        <ele>627</ele>
        <time>2019-06-25T07:37:48Z</time>
      </trkpt>
      <trkpt lat="44.34891" lon="5.8471">
        <ele>627</ele>
        <time>2019-06-25T07:37:49Z</time>
      </trkpt>
      <trkpt lat="44.34895" lon="5.84715">
        <ele>627</ele>
        <time>2019-06-25T07:37:50Z</time>
      </trkpt>
      <trkpt lat="44.34899" lon="5.8472">
        <ele>627</ele>
        <time>2019-06-25T07:37:51Z</time>
      </trkpt>
      <trkpt lat="44.34903" lon="5.84725">
        <ele>628</ele>
        <time>2019-06-25T07:37:52Z</time>
      </trkpt>
      <trkpt lat="44.34906" lon="5.84729">
        <ele>628</ele>
        <time>2019-06-25T07:37:53Z</time>
      </trkpt>
      <trkpt lat="44.3491" lon="5.84734">
        <ele>628</ele>
        <time>2019-06-25T07:37:54Z</time>
      </trkpt>
      <trkpt lat="44.34914" lon="5.84738">
        <ele>628</ele>
        <time>2019-06-25T07:37:55Z</time>
      </trkpt>
      <trkpt lat="44.34918" lon="5.84742">
        <ele>628</ele>
        <time>2019-06-25T07:37:56Z</time>
      </trkpt>
      <trkpt lat="44.34922" lon="5.84746">
        <ele>628</ele>
        <time>2019-06-25T07:37:56Z</time>
      </trkpt>
      <trkpt lat="44.34926" lon="5.8475">
        <ele>628</ele>
        <time>2019-06-25T07:37:58Z</time>
      </trkpt>
      <trkpt lat="44.3493" lon="5.84754">
        <ele>628</ele>
        <time>2019-06-25T07:37:59Z</time>
      </trkpt>
      <trkpt lat="44.34934" lon="5.84758">
        <ele>628</ele>
        <time>2019-06-25T07:37:59Z</time>
      </trkpt>
      <trkpt lat="44.34939" lon="5.84761">
        <ele>628</ele>
        <time>2019-06-25T07:38:01Z</time>
      </trkpt>
      <trkpt lat="44.34943" lon="5.84765">
        <ele>628</ele>
        <time>2019-06-25T07:38:02Z</time>
      </trkpt>
      <trkpt lat="44.34948" lon="5.84769">
        <ele>628</ele>
        <time>2019-06-25T07:38:03Z</time>
      </trkpt>
      <trkpt lat="44.34952" lon="5.84773">
        <ele>628</ele>
        <time>2019-06-25T07:38:04Z</time>
      </trkpt>
      <trkpt lat="44.34956" lon="5.84777">
        <ele>629</ele>
        <time>2019-06-25T07:38:05Z</time>
      </trkpt>
      <trkpt lat="44.34961" lon="5.84781">
        <ele>629</ele>
        <time>2019-06-25T07:38:06Z</time>
      </trkpt>
      <trkpt lat="44.34965" lon="5.84785">
        <ele>629</ele>
        <time>2019-06-25T07:38:07Z</time>
      </trkpt>
      <trkpt lat="44.34969" lon="5.84789">
        <ele>629</ele>
        <time>2019-06-25T07:38:08Z</time>
      </trkpt>
      <trkpt lat="44.34973" lon="5.84793">
        <ele>629</ele>
        <time>2019-06-25T07:38:09Z</time>
      </trkpt>
      <trkpt lat="44.34977" lon="5.84797">
        <ele>630</ele>
        <time>2019-06-25T07:38:10Z</time>
      </trkpt>
      <trkpt lat="44.34982" lon="5.848">
        <ele>630</ele>
        <time>2019-06-25T07:38:11Z</time>
      </trkpt>
      <trkpt lat="44.34986" lon="5.84804">
        <ele>630</ele>
        <time>2019-06-25T07:38:12Z</time>
      </trkpt>
      <trkpt lat="44.3499" lon="5.84808">
        <ele>630</ele>
        <time>2019-06-25T07:38:13Z</time>
      </trkpt>
      <trkpt lat="44.34994" lon="5.84812">
        <ele>630</ele>
        <time>2019-06-25T07:38:14Z</time>
      </trkpt>
      <trkpt lat="44.34998" lon="5.84816">
        <ele>630</ele>
        <time>2019-06-25T07:38:15Z</time>
      </trkpt>
      <trkpt lat="44.35001" lon="5.8482">
        <ele>630</ele>
        <time>2019-06-25T07:38:16Z</time>
      </trkpt>
      <trkpt lat="44.35005" lon="5.84824">
        <ele>630</ele>
        <time>2019-06-25T07:38:17Z</time>
      </trkpt>
      <trkpt lat="44.35009" lon="5.84828">
        <ele>630</ele>
        <time>2019-06-25T07:38:18Z</time>
      </trkpt>
      <trkpt lat="44.35013" lon="5.84831">
        <ele>630</ele>
        <time>2019-06-25T07:38:19Z</time>
      </trkpt>
      <trkpt lat="44.35017" lon="5.84835">
        <ele>630</ele>
        <time>2019-06-25T07:38:20Z</time>
      </trkpt>
      <trkpt lat="44.3502" lon="5.8484">
        <ele>631</ele>
        <time>2019-06-25T07:38:21Z</time>
      </trkpt>
      <trkpt lat="44.35024" lon="5.84844">
        <ele>631</ele>
        <time>2019-06-25T07:38:22Z</time>
      </trkpt>
      <trkpt lat="44.35027" lon="5.84848">
        <ele>631</ele>
        <time>2019-06-25T07:38:23Z</time>
      </trkpt>
      <trkpt lat="44.3503" lon="5.84852">
        <ele>631</ele>
        <time>2019-06-25T07:38:24Z</time>
      </trkpt>
      <trkpt lat="44.35034" lon="5.84857">
        <ele>632</ele>
        <time>2019-06-25T07:38:24Z</time>
      </trkpt>
      <trkpt lat="44.35038" lon="5.84861">
        <ele>632</ele>
        <time>2019-06-25T07:38:26Z</time>
      </trkpt>
      <trkpt lat="44.35041" lon="5.84866">
        <ele>632</ele>
        <time>2019-06-25T07:38:27Z</time>
      </trkpt>
      <trkpt lat="44.35046" lon="5.8487">
        <ele>632</ele>
        <time>2019-06-25T07:38:28Z</time>
      </trkpt>
      <trkpt lat="44.35049" lon="5.84874">
        <ele>632</ele>
        <time>2019-06-25T07:38:29Z</time>
      </trkpt>
      <trkpt lat="44.35052" lon="5.84879">
        <ele>632</ele>
        <time>2019-06-25T07:38:30Z</time>
      </trkpt>
      <trkpt lat="44.35055" lon="5.84884">
        <ele>632</ele>
        <time>2019-06-25T07:38:31Z</time>
      </trkpt>
      <trkpt lat="44.35057" lon="5.84888">
        <ele>632</ele>
        <time>2019-06-25T07:38:32Z</time>
      </trkpt>
      <trkpt lat="44.3506" lon="5.84893">
        <ele>632</ele>
        <time>2019-06-25T07:38:33Z</time>
      </trkpt>
      <trkpt lat="44.35063" lon="5.84898">
        <ele>632</ele>
        <time>2019-06-25T07:38:34Z</time>
      </trkpt>
      <trkpt lat="44.35066" lon="5.84902">
        <ele>632</ele>
        <time>2019-06-25T07:38:35Z</time>
      </trkpt>
      <trkpt lat="44.35069" lon="5.84907">
        <ele>632</ele>
        <time>2019-06-25T07:38:36Z</time>
      </trkpt>
      <trkpt lat="44.35073" lon="5.84912">
        <ele>632</ele>
        <time>2019-06-25T07:38:37Z</time>
      </trkpt>
      <trkpt lat="44.35076" lon="5.84917">
        <ele>632</ele>
        <time>2019-06-25T07:38:38Z</time>
      </trkpt>
      <trkpt lat="44.35079" lon="5.84922">
        <ele>632</ele>
        <time>2019-06-25T07:38:39Z</time>
      </trkpt>
      <trkpt lat="44.35082" lon="5.84927">
        <ele>632</ele>
        <time>2019-06-25T07:38:40Z</time>
      </trkpt>
      <trkpt lat="44.35085" lon="5.84932">
        <ele>633</ele>
        <time>2019-06-25T07:38:41Z</time>
      </trkpt>
      <trkpt lat="44.35087" lon="5.84937">
        <ele>633</ele>
        <time>2019-06-25T07:38:42Z</time>
      </trkpt>
      <trkpt lat="44.35089" lon="5.84942">
        <ele>633</ele>
        <time>2019-06-25T07:38:43Z</time>
      </trkpt>
      <trkpt lat="44.35092" lon="5.84947">
        <ele>633</ele>
        <time>2019-06-25T07:38:43Z</time>
      </trkpt>
      <trkpt lat="44.35094" lon="5.84952">
        <ele>633</ele>
        <time>2019-06-25T07:38:45Z</time>
      </trkpt>
      <trkpt lat="44.35097" lon="5.84958">
        <ele>633</ele>
        <time>2019-06-25T07:38:46Z</time>
      </trkpt>
      <trkpt lat="44.35099" lon="5.84963">
        <ele>633</ele>
        <time>2019-06-25T07:38:47Z</time>
      </trkpt>
      <trkpt lat="44.35101" lon="5.84969">
        <ele>634</ele>
        <time>2019-06-25T07:38:48Z</time>
      </trkpt>
      <trkpt lat="44.35103" lon="5.84974">
        <ele>634</ele>
        <time>2019-06-25T07:38:49Z</time>
      </trkpt>
      <trkpt lat="44.35105" lon="5.8498">
        <ele>634</ele>
        <time>2019-06-25T07:38:50Z</time>
      </trkpt>
      <trkpt lat="44.35107" lon="5.84985">
        <ele>634</ele>
        <time>2019-06-25T07:38:51Z</time>
      </trkpt>
      <trkpt lat="44.35111" lon="5.84991">
        <ele>635</ele>
        <time>2019-06-25T07:38:52Z</time>
      </trkpt>
      <trkpt lat="44.35114" lon="5.84996">
        <ele>635</ele>
        <time>2019-06-25T07:38:53Z</time>
      </trkpt>
      <trkpt lat="44.35117" lon="5.85002">
        <ele>635</ele>
        <time>2019-06-25T07:38:54Z</time>
      </trkpt>
      <trkpt lat="44.35119" lon="5.85007">
        <ele>635</ele>
        <time>2019-06-25T07:38:55Z</time>
      </trkpt>
      <trkpt lat="44.35122" lon="5.85013">
        <ele>636</ele>
        <time>2019-06-25T07:38:56Z</time>
      </trkpt>
      <trkpt lat="44.35124" lon="5.85018">
        <ele>636</ele>
        <time>2019-06-25T07:38:57Z</time>
      </trkpt>
      <trkpt lat="44.35126" lon="5.85023">
        <ele>636</ele>
        <time>2019-06-25T07:38:58Z</time>
      </trkpt>
      <trkpt lat="44.35129" lon="5.85029">
        <ele>636</ele>
        <time>2019-06-25T07:38:59Z</time>
      </trkpt>
      <trkpt lat="44.35131" lon="5.85035">
        <ele>636</ele>
        <time>2019-06-25T07:39:00Z</time>
      </trkpt>
      <trkpt lat="44.35134" lon="5.8504">
        <ele>636</ele>
        <time>2019-06-25T07:39:01Z</time>
      </trkpt>
      <trkpt lat="44.35137" lon="5.85045">
        <ele>636</ele>
        <time>2019-06-25T07:39:02Z</time>
      </trkpt>
      <trkpt lat="44.3514" lon="5.8505">
        <ele>636</ele>
        <time>2019-06-25T07:39:03Z</time>
      </trkpt>
      <trkpt lat="44.35143" lon="5.85055">
        <ele>637</ele>
        <time>2019-06-25T07:39:04Z</time>
      </trkpt>
      <trkpt lat="44.35146" lon="5.8506">
        <ele>637</ele>
        <time>2019-06-25T07:39:05Z</time>
      </trkpt>
      <trkpt lat="44.35149" lon="5.85065">
        <ele>637</ele>
        <time>2019-06-25T07:39:06Z</time>
      </trkpt>
      <trkpt lat="44.35152" lon="5.85069">
        <ele>637</ele>
        <time>2019-06-25T07:39:07Z</time>
      </trkpt>
      <trkpt lat="44.35156" lon="5.85073">
        <ele>637</ele>
        <time>2019-06-25T07:39:08Z</time>
      </trkpt>
      <trkpt lat="44.35159" lon="5.85077">
        <ele>637</ele>
        <time>2019-06-25T07:39:09Z</time>
      </trkpt>
      <trkpt lat="44.35163" lon="5.85082">
        <ele>637</ele>
        <time>2019-06-25T07:39:10Z</time>
      </trkpt>
      <trkpt lat="44.35167" lon="5.85086">
        <ele>637</ele>
        <time>2019-06-25T07:39:11Z</time>
      </trkpt>
      <trkpt lat="44.3517" lon="5.8509">
        <ele>638</ele>
        <time>2019-06-25T07:39:12Z</time>
      </trkpt>
      <trkpt lat="44.35175" lon="5.85095">
        <ele>638</ele>
        <time>2019-06-25T07:39:13Z</time>
      </trkpt>
      <trkpt lat="44.35179" lon="5.85099">
        <ele>638</ele>
        <time>2019-06-25T07:39:14Z</time>
      </trkpt>
      <trkpt lat="44.35183" lon="5.85104">
        <ele>638</ele>
        <time>2019-06-25T07:39:15Z</time>
      </trkpt>
      <trkpt lat="44.35187" lon="5.85109">
        <ele>638</ele>
        <time>2019-06-25T07:39:16Z</time>
      </trkpt>
      <trkpt lat="44.35191" lon="5.85113">
        <ele>638</ele>
        <time>2019-06-25T07:39:17Z</time>
      </trkpt>
      <trkpt lat="44.35195" lon="5.85118">
        <ele>638</ele>
        <time>2019-06-25T07:39:18Z</time>
      </trkpt>
      <trkpt lat="44.35199" lon="5.85123">
        <ele>638</ele>
        <time>2019-06-25T07:39:19Z</time>
      </trkpt>
      <trkpt lat="44.35203" lon="5.85128">
        <ele>638</ele>
        <time>2019-06-25T07:39:20Z</time>
      </trkpt>
      <trkpt lat="44.35206" lon="5.85133">
        <ele>638</ele>
        <time>2019-06-25T07:39:21Z</time>
      </trkpt>
      <trkpt lat="44.3521" lon="5.85139">
        <ele>638</ele>
        <time>2019-06-25T07:39:22Z</time>
      </trkpt>
      <trkpt lat="44.35214" lon="5.85145">
        <ele>638</ele>
        <time>2019-06-25T07:39:23Z</time>
      </trkpt>
      <trkpt lat="44.35218" lon="5.8515">
        <ele>638</ele>
        <time>2019-06-25T07:39:24Z</time>
      </trkpt>
      <trkpt lat="44.35222" lon="5.85156">
        <ele>639</ele>
        <time>2019-06-25T07:39:25Z</time>
      </trkpt>
      <trkpt lat="44.35225" lon="5.85162">
        <ele>639</ele>
        <time>2019-06-25T07:39:26Z</time>
      </trkpt>
      <trkpt lat="44.35227" lon="5.85169">
        <ele>639</ele>
        <time>2019-06-25T07:39:27Z</time>
      </trkpt>
      <trkpt lat="44.3523" lon="5.85175">
        <ele>639</ele>
        <time>2019-06-25T07:39:28Z</time>
      </trkpt>
      <trkpt lat="44.35233" lon="5.85181">
        <ele>640</ele>
        <time>2019-06-25T07:39:29Z</time>
      </trkpt>
      <trkpt lat="44.35235" lon="5.85188">
        <ele>640</ele>
        <time>2019-06-25T07:39:30Z</time>
      </trkpt>
      <trkpt lat="44.35236" lon="5.85194">
        <ele>640</ele>
        <time>2019-06-25T07:39:31Z</time>
      </trkpt>
      <trkpt lat="44.35239" lon="5.85201">
        <ele>640</ele>
        <time>2019-06-25T07:39:32Z</time>
      </trkpt>
      <trkpt lat="44.3524" lon="5.85207">
        <ele>640</ele>
        <time>2019-06-25T07:39:33Z</time>
      </trkpt>
      <trkpt lat="44.35242" lon="5.85213">
        <ele>640</ele>
        <time>2019-06-25T07:39:34Z</time>
      </trkpt>
      <trkpt lat="44.35244" lon="5.85219">
        <ele>640</ele>
        <time>2019-06-25T07:39:35Z</time>
      </trkpt>
      <trkpt lat="44.35246" lon="5.85226">
        <ele>640</ele>
        <time>2019-06-25T07:39:36Z</time>
      </trkpt>
      <trkpt lat="44.35247" lon="5.85232">
        <ele>640</ele>
        <time>2019-06-25T07:39:37Z</time>
      </trkpt>
      <trkpt lat="44.35249" lon="5.85238">
        <ele>640</ele>
        <time>2019-06-25T07:39:38Z</time>
      </trkpt>
      <trkpt lat="44.35251" lon="5.85244">
        <ele>641</ele>
        <time>2019-06-25T07:39:39Z</time>
      </trkpt>
      <trkpt lat="44.35253" lon="5.8525">
        <ele>641</ele>
        <time>2019-06-25T07:39:40Z</time>
      </trkpt>
      <trkpt lat="44.35255" lon="5.85256">
        <ele>641</ele>
        <time>2019-06-25T07:39:41Z</time>
      </trkpt>
      <trkpt lat="44.35257" lon="5.85262">
        <ele>641</ele>
        <time>2019-06-25T07:39:42Z</time>
      </trkpt>
      <trkpt lat="44.35258" lon="5.85267">
        <ele>641</ele>
        <time>2019-06-25T07:39:43Z</time>
      </trkpt>
      <trkpt lat="44.3526" lon="5.85273">
        <ele>641</ele>
        <time>2019-06-25T07:39:44Z</time>
      </trkpt>
      <trkpt lat="44.35262" lon="5.85279">
        <ele>642</ele>
        <time>2019-06-25T07:39:45Z</time>
      </trkpt>
      <trkpt lat="44.35263" lon="5.85285">
        <ele>642</ele>
        <time>2019-06-25T07:39:46Z</time>
      </trkpt>
      <trkpt lat="44.35265" lon="5.8529">
        <ele>642</ele>
        <time>2019-06-25T07:39:47Z</time>
      </trkpt>
      <trkpt lat="44.35267" lon="5.85296">
        <ele>642</ele>
        <time>2019-06-25T07:39:48Z</time>
      </trkpt>
      <trkpt lat="44.35269" lon="5.85301">
        <ele>642</ele>
        <time>2019-06-25T07:39:49Z</time>
      </trkpt>
      <trkpt lat="44.35271" lon="5.85307">
        <ele>642</ele>
        <time>2019-06-25T07:39:50Z</time>
      </trkpt>
      <trkpt lat="44.35273" lon="5.85313">
        <ele>642</ele>
        <time>2019-06-25T07:39:51Z</time>
      </trkpt>
      <trkpt lat="44.35275" lon="5.85318">
        <ele>643</ele>
        <time>2019-06-25T07:39:52Z</time>
      </trkpt>
      <trkpt lat="44.35277" lon="5.85324">
        <ele>643</ele>
        <time>2019-06-25T07:39:53Z</time>
      </trkpt>
      <trkpt lat="44.35279" lon="5.85329">
        <ele>643</ele>
        <time>2019-06-25T07:39:54Z</time>
      </trkpt>
      <trkpt lat="44.35281" lon="5.85335">
        <ele>644</ele>
        <time>2019-06-25T07:39:55Z</time>
      </trkpt>
      <trkpt lat="44.35282" lon="5.8534">
        <ele>644</ele>
        <time>2019-06-25T07:39:56Z</time>
      </trkpt>
      <trkpt lat="44.35284" lon="5.85346">
        <ele>644</ele>
        <time>2019-06-25T07:39:57Z</time>
      </trkpt>
      <trkpt lat="44.35286" lon="5.85352">
        <ele>644</ele>
        <time>2019-06-25T07:39:58Z</time>
      </trkpt>
      <trkpt lat="44.35288" lon="5.85358">
        <ele>645</ele>
        <time>2019-06-25T07:39:59Z</time>
      </trkpt>
      <trkpt lat="44.35291" lon="5.85364">
        <ele>645</ele>
        <time>2019-06-25T07:40:00Z</time>
      </trkpt>
      <trkpt lat="44.35292" lon="5.8537">
        <ele>645</ele>
        <time>2019-06-25T07:40:01Z</time>
      </trkpt>
      <trkpt lat="44.35294" lon="5.85376">
        <ele>645</ele>
        <time>2019-06-25T07:40:02Z</time>
      </trkpt>
      <trkpt lat="44.35297" lon="5.85382">
        <ele>645</ele>
        <time>2019-06-25T07:40:03Z</time>
      </trkpt>
      <trkpt lat="44.35299" lon="5.85388">
        <ele>645</ele>
        <time>2019-06-25T07:40:04Z</time>
      </trkpt>
      <trkpt lat="44.353" lon="5.85393">
        <ele>645</ele>
        <time>2019-06-25T07:40:05Z</time>
      </trkpt>
      <trkpt lat="44.35303" lon="5.85399">
        <ele>645</ele>
        <time>2019-06-25T07:40:06Z</time>
      </trkpt>
      <trkpt lat="44.35305" lon="5.85405">
        <ele>646</ele>
        <time>2019-06-25T07:40:07Z</time>
      </trkpt>
      <trkpt lat="44.35307" lon="5.85411">
        <ele>646</ele>
        <time>2019-06-25T07:40:08Z</time>
      </trkpt>
      <trkpt lat="44.35309" lon="5.85417">
        <ele>646</ele>
        <time>2019-06-25T07:40:09Z</time>
      </trkpt>
      <trkpt lat="44.35311" lon="5.85423">
        <ele>646</ele>
        <time>2019-06-25T07:40:10Z</time>
      </trkpt>
      <trkpt lat="44.35314" lon="5.85429">
        <ele>646</ele>
        <time>2019-06-25T07:40:11Z</time>
      </trkpt>
      <trkpt lat="44.35317" lon="5.85434">
        <ele>646</ele>
        <time>2019-06-25T07:40:12Z</time>
      </trkpt>
      <trkpt lat="44.3532" lon="5.85439">
        <ele>646</ele>
        <time>2019-06-25T07:40:13Z</time>
      </trkpt>
      <trkpt lat="44.35323" lon="5.85445">
        <ele>646</ele>
        <time>2019-06-25T07:40:14Z</time>
      </trkpt>
      <trkpt lat="44.35326" lon="5.8545">
        <ele>646</ele>
        <time>2019-06-25T07:40:15Z</time>
      </trkpt>
      <trkpt lat="44.3533" lon="5.85455">
        <ele>646</ele>
        <time>2019-06-25T07:40:16Z</time>
      </trkpt>
      <trkpt lat="44.35333" lon="5.8546">
        <ele>646</ele>
        <time>2019-06-25T07:40:17Z</time>
      </trkpt>
      <trkpt lat="44.35337" lon="5.85464">
        <ele>646</ele>
        <time>2019-06-25T07:40:18Z</time>
      </trkpt>
      <trkpt lat="44.3534" lon="5.85469">
        <ele>646</ele>
        <time>2019-06-25T07:40:19Z</time>
      </trkpt>
      <trkpt lat="44.35343" lon="5.85473">
        <ele>647</ele>
        <time>2019-06-25T07:40:20Z</time>
      </trkpt>
      <trkpt lat="44.35347" lon="5.85477">
        <ele>647</ele>
        <time>2019-06-25T07:40:21Z</time>
      </trkpt>
      <trkpt lat="44.35351" lon="5.85482">
        <ele>647</ele>
        <time>2019-06-25T07:40:22Z</time>
      </trkpt>
      <trkpt lat="44.35354" lon="5.85486">
        <ele>647</ele>
        <time>2019-06-25T07:40:23Z</time>
      </trkpt>
      <trkpt lat="44.35358" lon="5.8549">
        <ele>647</ele>
        <time>2019-06-25T07:40:24Z</time>
      </trkpt>
      <trkpt lat="44.35363" lon="5.85495">
        <ele>647</ele>
        <time>2019-06-25T07:40:25Z</time>
      </trkpt>
      <trkpt lat="44.35366" lon="5.85499">
        <ele>647</ele>
        <time>2019-06-25T07:40:26Z</time>
      </trkpt>
      <trkpt lat="44.3537" lon="5.85503">
        <ele>647</ele>
        <time>2019-06-25T07:40:27Z</time>
      </trkpt>
      <trkpt lat="44.35374" lon="5.85507">
        <ele>647</ele>
        <time>2019-06-25T07:40:28Z</time>
      </trkpt>
      <trkpt lat="44.35377" lon="5.85511">
        <ele>648</ele>
        <time>2019-06-25T07:40:29Z</time>
      </trkpt>
      <trkpt lat="44.35381" lon="5.85515">
        <ele>648</ele>
        <time>2019-06-25T07:40:30Z</time>
      </trkpt>
      <trkpt lat="44.35385" lon="5.85519">
        <ele>648</ele>
        <time>2019-06-25T07:40:31Z</time>
      </trkpt>
      <trkpt lat="44.35388" lon="5.85523">
        <ele>648</ele>
        <time>2019-06-25T07:40:32Z</time>
      </trkpt>
      <trkpt lat="44.35392" lon="5.85527">
        <ele>648</ele>
        <time>2019-06-25T07:40:33Z</time>
      </trkpt>
      <trkpt lat="44.35395" lon="5.85531">
        <ele>649</ele>
        <time>2019-06-25T07:40:34Z</time>
      </trkpt>
      <trkpt lat="44.35398" lon="5.85535">
        <ele>649</ele>
        <time>2019-06-25T07:40:35Z</time>
      </trkpt>
      <trkpt lat="44.35402" lon="5.85538">
        <ele>649</ele>
        <time>2019-06-25T07:40:36Z</time>
      </trkpt>
      <trkpt lat="44.35405" lon="5.85542">
        <ele>649</ele>
        <time>2019-06-25T07:40:37Z</time>
      </trkpt>
      <trkpt lat="44.35409" lon="5.85546">
        <ele>649</ele>
        <time>2019-06-25T07:40:38Z</time>
      </trkpt>
      <trkpt lat="44.35412" lon="5.8555">
        <ele>649</ele>
        <time>2019-06-25T07:40:39Z</time>
      </trkpt>
      <trkpt lat="44.35416" lon="5.85554">
        <ele>649</ele>
        <time>2019-06-25T07:40:40Z</time>
      </trkpt>
      <trkpt lat="44.35419" lon="5.85558">
        <ele>650</ele>
        <time>2019-06-25T07:40:41Z</time>
      </trkpt>
      <trkpt lat="44.35423" lon="5.85563">
        <ele>650</ele>
        <time>2019-06-25T07:40:42Z</time>
      </trkpt>
      <trkpt lat="44.35427" lon="5.85567">
        <ele>650</ele>
        <time>2019-06-25T07:40:43Z</time>
      </trkpt>
      <trkpt lat="44.3543" lon="5.8557">
        <ele>650</ele>
        <time>2019-06-25T07:40:44Z</time>
      </trkpt>
      <trkpt lat="44.35434" lon="5.85574">
        <ele>650</ele>
        <time>2019-06-25T07:40:45Z</time>
      </trkpt>
      <trkpt lat="44.35437" lon="5.85578">
        <ele>650</ele>
        <time>2019-06-25T07:40:46Z</time>
      </trkpt>
      <trkpt lat="44.35441" lon="5.85582">
        <ele>650</ele>
        <time>2019-06-25T07:40:47Z</time>
      </trkpt>
      <trkpt lat="44.35444" lon="5.85586">
        <ele>650</ele>
        <time>2019-06-25T07:40:48Z</time>
      </trkpt>
      <trkpt lat="44.35448" lon="5.8559">
        <ele>650</ele>
        <time>2019-06-25T07:40:49Z</time>
      </trkpt>
      <trkpt lat="44.35451" lon="5.85593">
        <ele>651</ele>
        <time>2019-06-25T07:40:50Z</time>
      </trkpt>
      <trkpt lat="44.35454" lon="5.85597">
        <ele>651</ele>
        <time>2019-06-25T07:40:51Z</time>
      </trkpt>
      <trkpt lat="44.35458" lon="5.85601">
        <ele>651</ele>
        <time>2019-06-25T07:40:52Z</time>
      </trkpt>
      <trkpt lat="44.35461" lon="5.85604">
        <ele>651</ele>
        <time>2019-06-25T07:40:53Z</time>
      </trkpt>
      <trkpt lat="44.35464" lon="5.85607">
        <ele>651</ele>
        <time>2019-06-25T07:40:54Z</time>
      </trkpt>
      <trkpt lat="44.35467" lon="5.85611">
        <ele>651</ele>
        <time>2019-06-25T07:40:55Z</time>
      </trkpt>
      <trkpt lat="44.3547" lon="5.85614">
        <ele>651</ele>
        <time>2019-06-25T07:40:56Z</time>
      </trkpt>
      <trkpt lat="44.35474" lon="5.85618">
        <ele>651</ele>
        <time>2019-06-25T07:40:57Z</time>
      </trkpt>
      <trkpt lat="44.35477" lon="5.85622">
        <ele>652</ele>
        <time>2019-06-25T07:40:58Z</time>
      </trkpt>
      <trkpt lat="44.3548" lon="5.85625">
        <ele>652</ele>
        <time>2019-06-25T07:40:59Z</time>
      </trkpt>
      <trkpt lat="44.35483" lon="5.85629">
        <ele>652</ele>
        <time>2019-06-25T07:41:00Z</time>
      </trkpt>
      <trkpt lat="44.35486" lon="5.85632">
        <ele>652</ele>
        <time>2019-06-25T07:41:01Z</time>
      </trkpt>
      <trkpt lat="44.35489" lon="5.85635">
        <ele>652</ele>
        <time>2019-06-25T07:41:02Z</time>
      </trkpt>
      <trkpt lat="44.35492" lon="5.85639">
        <ele>652</ele>
        <time>2019-06-25T07:41:03Z</time>
      </trkpt>
      <trkpt lat="44.35495" lon="5.85642">
        <ele>652</ele>
        <time>2019-06-25T07:41:04Z</time>
      </trkpt>
      <trkpt lat="44.35498" lon="5.85645">
        <ele>652</ele>
        <time>2019-06-25T07:41:05Z</time>
      </trkpt>
      <trkpt lat="44.35501" lon="5.85649">
        <ele>652</ele>
        <time>2019-06-25T07:41:06Z</time>
      </trkpt>
      <trkpt lat="44.35505" lon="5.85652">
        <ele>653</ele>
        <time>2019-06-25T07:41:07Z</time>
      </trkpt>
      <trkpt lat="44.35508" lon="5.85655">
        <ele>653</ele>
        <time>2019-06-25T07:41:08Z</time>
      </trkpt>
      <trkpt lat="44.35511" lon="5.85659">
        <ele>653</ele>
        <time>2019-06-25T07:41:09Z</time>
      </trkpt>
      <trkpt lat="44.35514" lon="5.85663">
        <ele>653</ele>
        <time>2019-06-25T07:41:10Z</time>
      </trkpt>
      <trkpt lat="44.35517" lon="5.85666">
        <ele>653</ele>
        <time>2019-06-25T07:41:11Z</time>
      </trkpt>
      <trkpt lat="44.3552" lon="5.8567">
        <ele>653</ele>
        <time>2019-06-25T07:41:12Z</time>
      </trkpt>
      <trkpt lat="44.35523" lon="5.85673">
        <ele>653</ele>
        <time>2019-06-25T07:41:13Z</time>
      </trkpt>
      <trkpt lat="44.35526" lon="5.85676">
        <ele>653</ele>
        <time>2019-06-25T07:41:14Z</time>
      </trkpt>
      <trkpt lat="44.35529" lon="5.85679">
        <ele>654</ele>
        <time>2019-06-25T07:41:15Z</time>
      </trkpt>
      <trkpt lat="44.35532" lon="5.85683">
        <ele>654</ele>
        <time>2019-06-25T07:41:16Z</time>
      </trkpt>
      <trkpt lat="44.35535" lon="5.85686">
        <ele>654</ele>
        <time>2019-06-25T07:41:17Z</time>
      </trkpt>
      <trkpt lat="44.35538" lon="5.85689">
        <ele>654</ele>
        <time>2019-06-25T07:41:18Z</time>
      </trkpt>
      <trkpt lat="44.35541" lon="5.85693">
        <ele>654</ele>
        <time>2019-06-25T07:41:19Z</time>
      </trkpt>
      <trkpt lat="44.35544" lon="5.85696">
        <ele>654</ele>
        <time>2019-06-25T07:41:20Z</time>
      </trkpt>
      <trkpt lat="44.35547" lon="5.857">
        <ele>655</ele>
        <time>2019-06-25T07:41:21Z</time>
      </trkpt>
      <trkpt lat="44.3555" lon="5.85703">
        <ele>655</ele>
        <time>2019-06-25T07:41:22Z</time>
      </trkpt>
      <trkpt lat="44.35553" lon="5.85706">
        <ele>655</ele>
        <time>2019-06-25T07:41:23Z</time>
      </trkpt>
      <trkpt lat="44.35556" lon="5.8571">
        <ele>655</ele>
        <time>2019-06-25T07:41:24Z</time>
      </trkpt>
      <trkpt lat="44.35559" lon="5.85713">
        <ele>655</ele>
        <time>2019-06-25T07:41:25Z</time>
      </trkpt>
      <trkpt lat="44.35562" lon="5.85717">
        <ele>655</ele>
        <time>2019-06-25T07:41:26Z</time>
      </trkpt>
      <trkpt lat="44.35566" lon="5.8572">
        <ele>655</ele>
        <time>2019-06-25T07:41:27Z</time>
      </trkpt>
      <trkpt lat="44.35569" lon="5.85723">
        <ele>655</ele>
        <time>2019-06-25T07:41:28Z</time>
      </trkpt>
      <trkpt lat="44.35572" lon="5.85727">
        <ele>656</ele>
        <time>2019-06-25T07:41:29Z</time>
      </trkpt>
      <trkpt lat="44.35575" lon="5.85731">
        <ele>656</ele>
        <time>2019-06-25T07:41:30Z</time>
      </trkpt>
      <trkpt lat="44.35579" lon="5.85734">
        <ele>656</ele>
        <time>2019-06-25T07:41:31Z</time>
      </trkpt>
      <trkpt lat="44.35582" lon="5.85738">
        <ele>656</ele>
        <time>2019-06-25T07:41:32Z</time>
      </trkpt>
      <trkpt lat="44.35585" lon="5.85741">
        <ele>657</ele>
        <time>2019-06-25T07:41:33Z</time>
      </trkpt>
      <trkpt lat="44.35588" lon="5.85745">
        <ele>657</ele>
        <time>2019-06-25T07:41:34Z</time>
      </trkpt>
      <trkpt lat="44.35591" lon="5.85748">
        <ele>657</ele>
        <time>2019-06-25T07:41:35Z</time>
      </trkpt>
      <trkpt lat="44.35595" lon="5.85752">
        <ele>658</ele>
        <time>2019-06-25T07:41:36Z</time>
      </trkpt>
      <trkpt lat="44.35598" lon="5.85755">
        <ele>658</ele>
        <time>2019-06-25T07:41:37Z</time>
      </trkpt>
      <trkpt lat="44.35601" lon="5.85759">
        <ele>658</ele>
        <time>2019-06-25T07:41:38Z</time>
      </trkpt>
      <trkpt lat="44.35605" lon="5.85763">
        <ele>658</ele>
        <time>2019-06-25T07:41:39Z</time>
      </trkpt>
      <trkpt lat="44.35608" lon="5.85768">
        <ele>659</ele>
        <time>2019-06-25T07:41:40Z</time>
      </trkpt>
      <trkpt lat="44.35612" lon="5.85772">
        <ele>659</ele>
        <time>2019-06-25T07:41:41Z</time>
      </trkpt>
      <trkpt lat="44.35615" lon="5.85777">
        <ele>659</ele>
        <time>2019-06-25T07:41:42Z</time>
      </trkpt>
      <trkpt lat="44.35619" lon="5.85781">
        <ele>659</ele>
        <time>2019-06-25T07:41:43Z</time>
      </trkpt>
      <trkpt lat="44.35622" lon="5.85786">
        <ele>659</ele>
        <time>2019-06-25T07:41:44Z</time>
      </trkpt>
      <trkpt lat="44.35625" lon="5.8579">
        <ele>659</ele>
        <time>2019-06-25T07:41:45Z</time>
      </trkpt>
      <trkpt lat="44.35628" lon="5.85794">
        <ele>660</ele>
        <time>2019-06-25T07:41:46Z</time>
      </trkpt>
      <trkpt lat="44.3563" lon="5.85798">
        <ele>660</ele>
        <time>2019-06-25T07:41:47Z</time>
      </trkpt>
      <trkpt lat="44.35633" lon="5.85803">
        <ele>660</ele>
        <time>2019-06-25T07:41:48Z</time>
      </trkpt>
      <trkpt lat="44.35635" lon="5.85807">
        <ele>660</ele>
        <time>2019-06-25T07:41:49Z</time>
      </trkpt>
      <trkpt lat="44.35638" lon="5.85811">
        <ele>660</ele>
        <time>2019-06-25T07:41:50Z</time>
      </trkpt>
      <trkpt lat="44.3564" lon="5.85815">
        <ele>661</ele>
        <time>2019-06-25T07:41:51Z</time>
      </trkpt>
      <trkpt lat="44.35643" lon="5.85819">
        <ele>661</ele>
        <time>2019-06-25T07:41:52Z</time>
      </trkpt>
      <trkpt lat="44.35646" lon="5.85824">
        <ele>661</ele>
        <time>2019-06-25T07:41:53Z</time>
      </trkpt>
      <trkpt lat="44.35648" lon="5.85828">
        <ele>661</ele>
        <time>2019-06-25T07:41:54Z</time>
      </trkpt>
      <trkpt lat="44.35651" lon="5.85833">
        <ele>661</ele>
        <time>2019-06-25T07:41:55Z</time>
      </trkpt>
      <trkpt lat="44.35654" lon="5.85837">
        <ele>661</ele>
        <time>2019-06-25T07:41:56Z</time>
      </trkpt>
      <trkpt lat="44.35657" lon="5.85842">
        <ele>661</ele>
        <time>2019-06-25T07:41:57Z</time>
      </trkpt>
      <trkpt lat="44.35659" lon="5.85846">
        <ele>662</ele>
        <time>2019-06-25T07:41:58Z</time>
      </trkpt>
      <trkpt lat="44.35661" lon="5.8585">
        <ele>662</ele>
        <time>2019-06-25T07:41:59Z</time>
      </trkpt>
      <trkpt lat="44.35664" lon="5.85854">
        <ele>662</ele>
        <time>2019-06-25T07:42:00Z</time>
      </trkpt>
      <trkpt lat="44.35666" lon="5.85859">
        <ele>662</ele>
        <time>2019-06-25T07:42:01Z</time>
      </trkpt>
      <trkpt lat="44.35669" lon="5.85863">
        <ele>662</ele>
        <time>2019-06-25T07:42:02Z</time>
      </trkpt>
      <trkpt lat="44.35671" lon="5.85867">
        <ele>662</ele>
        <time>2019-06-25T07:42:03Z</time>
      </trkpt>
      <trkpt lat="44.35674" lon="5.85872">
        <ele>662</ele>
        <time>2019-06-25T07:42:04Z</time>
      </trkpt>
      <trkpt lat="44.35676" lon="5.85876">
        <ele>662</ele>
        <time>2019-06-25T07:42:05Z</time>
      </trkpt>
      <trkpt lat="44.35679" lon="5.8588">
        <ele>663</ele>
        <time>2019-06-25T07:42:06Z</time>
      </trkpt>
      <trkpt lat="44.35682" lon="5.85884">
        <ele>663</ele>
        <time>2019-06-25T07:42:07Z</time>
      </trkpt>
      <trkpt lat="44.35684" lon="5.85887">
        <ele>663</ele>
        <time>2019-06-25T07:42:08Z</time>
      </trkpt>
      <trkpt lat="44.35687" lon="5.85892">
        <ele>663</ele>
        <time>2019-06-25T07:42:09Z</time>
      </trkpt>
      <trkpt lat="44.35689" lon="5.85896">
        <ele>663</ele>
        <time>2019-06-25T07:42:10Z</time>
      </trkpt>
      <trkpt lat="44.35691" lon="5.859">
        <ele>664</ele>
        <time>2019-06-25T07:42:11Z</time>
      </trkpt>
      <trkpt lat="44.35694" lon="5.85904">
        <ele>664</ele>
        <time>2019-06-25T07:42:12Z</time>
      </trkpt>
      <trkpt lat="44.35696" lon="5.85908">
        <ele>664</ele>
        <time>2019-06-25T07:42:13Z</time>
      </trkpt>
      <trkpt lat="44.35698" lon="5.85912">
        <ele>664</ele>
        <time>2019-06-25T07:42:14Z</time>
      </trkpt>
      <trkpt lat="44.35701" lon="5.85917">
        <ele>664</ele>
        <time>2019-06-25T07:42:15Z</time>
      </trkpt>
      <trkpt lat="44.35704" lon="5.85921">
        <ele>664</ele>
        <time>2019-06-25T07:42:15Z</time>
      </trkpt>
      <trkpt lat="44.35706" lon="5.85925">
        <ele>664</ele>
        <time>2019-06-25T07:42:17Z</time>
      </trkpt>
      <trkpt lat="44.35709" lon="5.85928">
        <ele>664</ele>
        <time>2019-06-25T07:42:18Z</time>
      </trkpt>
      <trkpt lat="44.35711" lon="5.85932">
        <ele>664</ele>
        <time>2019-06-25T07:42:19Z</time>
      </trkpt>
      <trkpt lat="44.35714" lon="5.85937">
        <ele>664</ele>
        <time>2019-06-25T07:42:20Z</time>
      </trkpt>
      <trkpt lat="44.35716" lon="5.85941">
        <ele>664</ele>
        <time>2019-06-25T07:42:20Z</time>
      </trkpt>
      <trkpt lat="44.35719" lon="5.85945">
        <ele>664</ele>
        <time>2019-06-25T07:42:22Z</time>
      </trkpt>
      <trkpt lat="44.35722" lon="5.8595">
        <ele>664</ele>
        <time>2019-06-25T07:42:23Z</time>
      </trkpt>
      <trkpt lat="44.35724" lon="5.85954">
        <ele>664</ele>
        <time>2019-06-25T07:42:24Z</time>
      </trkpt>
      <trkpt lat="44.35727" lon="5.85958">
        <ele>664</ele>
        <time>2019-06-25T07:42:25Z</time>
      </trkpt>
      <trkpt lat="44.3573" lon="5.85963">
        <ele>664</ele>
        <time>2019-06-25T07:42:26Z</time>
      </trkpt>
      <trkpt lat="44.35732" lon="5.85967">
        <ele>664</ele>
        <time>2019-06-25T07:42:27Z</time>
      </trkpt>
      <trkpt lat="44.35736" lon="5.85971">
        <ele>664</ele>
        <time>2019-06-25T07:42:27Z</time>
      </trkpt>
      <trkpt lat="44.35738" lon="5.85976">
        <ele>664</ele>
        <time>2019-06-25T07:42:29Z</time>
      </trkpt>
      <trkpt lat="44.35741" lon="5.8598">
        <ele>664</ele>
        <time>2019-06-25T07:42:30Z</time>
      </trkpt>
      <trkpt lat="44.35744" lon="5.85984">
        <ele>664</ele>
        <time>2019-06-25T07:42:31Z</time>
      </trkpt>
      <trkpt lat="44.35747" lon="5.85988">
        <ele>664</ele>
        <time>2019-06-25T07:42:32Z</time>
      </trkpt>
      <trkpt lat="44.35749" lon="5.85993">
        <ele>664</ele>
        <time>2019-06-25T07:42:33Z</time>
      </trkpt>
      <trkpt lat="44.35752" lon="5.85997">
        <ele>664</ele>
        <time>2019-06-25T07:42:34Z</time>
      </trkpt>
      <trkpt lat="44.35755" lon="5.86002">
        <ele>664</ele>
        <time>2019-06-25T07:42:35Z</time>
      </trkpt>
      <trkpt lat="44.35758" lon="5.86007">
        <ele>664</ele>
        <time>2019-06-25T07:42:36Z</time>
      </trkpt>
      <trkpt lat="44.3576" lon="5.86012">
        <ele>664</ele>
        <time>2019-06-25T07:42:37Z</time>
      </trkpt>
      <trkpt lat="44.35763" lon="5.86017">
        <ele>664</ele>
        <time>2019-06-25T07:42:38Z</time>
      </trkpt>
      <trkpt lat="44.35766" lon="5.86022">
        <ele>664</ele>
        <time>2019-06-25T07:42:39Z</time>
      </trkpt>
      <trkpt lat="44.35769" lon="5.86026">
        <ele>664</ele>
        <time>2019-06-25T07:42:40Z</time>
      </trkpt>
      <trkpt lat="44.35772" lon="5.86031">
        <ele>664</ele>
        <time>2019-06-25T07:42:41Z</time>
      </trkpt>
      <trkpt lat="44.35775" lon="5.86036">
        <ele>664</ele>
        <time>2019-06-25T07:42:42Z</time>
      </trkpt>
      <trkpt lat="44.35777" lon="5.86042">
        <ele>664</ele>
        <time>2019-06-25T07:42:43Z</time>
      </trkpt>
      <trkpt lat="44.35779" lon="5.86047">
        <ele>664</ele>
        <time>2019-06-25T07:42:44Z</time>
      </trkpt>
      <trkpt lat="44.35781" lon="5.86053">
        <ele>664</ele>
        <time>2019-06-25T07:42:45Z</time>
      </trkpt>
      <trkpt lat="44.35783" lon="5.86059">
        <ele>664</ele>
        <time>2019-06-25T07:42:46Z</time>
      </trkpt>
      <trkpt lat="44.35785" lon="5.86064">
        <ele>664</ele>
        <time>2019-06-25T07:42:47Z</time>
      </trkpt>
      <trkpt lat="44.35786" lon="5.86071">
        <ele>664</ele>
        <time>2019-06-25T07:42:48Z</time>
      </trkpt>
      <trkpt lat="44.35788" lon="5.86077">
        <ele>664</ele>
        <time>2019-06-25T07:42:49Z</time>
      </trkpt>
      <trkpt lat="44.35789" lon="5.86083">
        <ele>664</ele>
        <time>2019-06-25T07:42:50Z</time>
      </trkpt>
      <trkpt lat="44.35791" lon="5.86089">
        <ele>664</ele>
        <time>2019-06-25T07:42:51Z</time>
      </trkpt>
      <trkpt lat="44.35792" lon="5.86095">
        <ele>664</ele>
        <time>2019-06-25T07:42:51Z</time>
      </trkpt>
      <trkpt lat="44.35793" lon="5.86101">
        <ele>664</ele>
        <time>2019-06-25T07:42:53Z</time>
      </trkpt>
      <trkpt lat="44.35794" lon="5.86107">
        <ele>664</ele>
        <time>2019-06-25T07:42:54Z</time>
      </trkpt>
      <trkpt lat="44.35796" lon="5.86114">
        <ele>664</ele>
        <time>2019-06-25T07:42:55Z</time>
      </trkpt>
      <trkpt lat="44.35797" lon="5.8612">
        <ele>664</ele>
        <time>2019-06-25T07:42:56Z</time>
      </trkpt>
      <trkpt lat="44.35798" lon="5.86126">
        <ele>664</ele>
        <time>2019-06-25T07:42:57Z</time>
      </trkpt>
      <trkpt lat="44.35799" lon="5.86132">
        <ele>664</ele>
        <time>2019-06-25T07:42:58Z</time>
      </trkpt>
      <trkpt lat="44.35801" lon="5.86139">
        <ele>664</ele>
        <time>2019-06-25T07:42:59Z</time>
      </trkpt>
      <trkpt lat="44.35802" lon="5.86145">
        <ele>664</ele>
        <time>2019-06-25T07:43:00Z</time>
      </trkpt>
      <trkpt lat="44.35803" lon="5.86152">
        <ele>664</ele>
        <time>2019-06-25T07:43:01Z</time>
      </trkpt>
      <trkpt lat="44.35804" lon="5.86158">
        <ele>664</ele>
        <time>2019-06-25T07:43:02Z</time>
      </trkpt>
      <trkpt lat="44.35805" lon="5.86165">
        <ele>664</ele>
        <time>2019-06-25T07:43:03Z</time>
      </trkpt>
      <trkpt lat="44.35807" lon="5.86171">
        <ele>664</ele>
        <time>2019-06-25T07:43:04Z</time>
      </trkpt>
      <trkpt lat="44.35808" lon="5.86177">
        <ele>664</ele>
        <time>2019-06-25T07:43:05Z</time>
      </trkpt>
      <trkpt lat="44.35809" lon="5.86183">
        <ele>664</ele>
        <time>2019-06-25T07:43:06Z</time>
      </trkpt>
      <trkpt lat="44.35811" lon="5.86189">
        <ele>664</ele>
        <time>2019-06-25T07:43:07Z</time>
      </trkpt>
      <trkpt lat="44.35812" lon="5.86195">
        <ele>664</ele>
        <time>2019-06-25T07:43:08Z</time>
      </trkpt>
      <trkpt lat="44.35814" lon="5.862">
        <ele>664</ele>
        <time>2019-06-25T07:43:09Z</time>
      </trkpt>
      <trkpt lat="44.35816" lon="5.86206">
        <ele>664</ele>
        <time>2019-06-25T07:43:10Z</time>
      </trkpt>
      <trkpt lat="44.35817" lon="5.86212">
        <ele>664</ele>
        <time>2019-06-25T07:43:11Z</time>
      </trkpt>
      <trkpt lat="44.35819" lon="5.86217">
        <ele>664</ele>
        <time>2019-06-25T07:43:11Z</time>
      </trkpt>
      <trkpt lat="44.35821" lon="5.86223">
        <ele>664</ele>
        <time>2019-06-25T07:43:12Z</time>
      </trkpt>
      <trkpt lat="44.35823" lon="5.86229">
        <ele>664</ele>
        <time>2019-06-25T07:43:14Z</time>
      </trkpt>
      <trkpt lat="44.35825" lon="5.86234">
        <ele>664</ele>
        <time>2019-06-25T07:43:14Z</time>
      </trkpt>
      <trkpt lat="44.35827" lon="5.8624">
        <ele>664</ele>
        <time>2019-06-25T07:43:15Z</time>
      </trkpt>
      <trkpt lat="44.35829" lon="5.86246">
        <ele>664</ele>
        <time>2019-06-25T07:43:17Z</time>
      </trkpt>
      <trkpt lat="44.35832" lon="5.86251">
        <ele>664</ele>
        <time>2019-06-25T07:43:18Z</time>
      </trkpt>
      <trkpt lat="44.35834" lon="5.86257">
        <ele>664</ele>
        <time>2019-06-25T07:43:18Z</time>
      </trkpt>
      <trkpt lat="44.35837" lon="5.86262">
        <ele>664</ele>
        <time>2019-06-25T07:43:20Z</time>
      </trkpt>
      <trkpt lat="44.35839" lon="5.86268">
        <ele>665</ele>
        <time>2019-06-25T07:43:20Z</time>
      </trkpt>
      <trkpt lat="44.35842" lon="5.86273">
        <ele>665</ele>
        <time>2019-06-25T07:43:21Z</time>
      </trkpt>
      <trkpt lat="44.35844" lon="5.86279">
        <ele>665</ele>
        <time>2019-06-25T07:43:22Z</time>
      </trkpt>
      <trkpt lat="44.35847" lon="5.86284">
        <ele>665</ele>
        <time>2019-06-25T07:43:23Z</time>
      </trkpt>
      <trkpt lat="44.3585" lon="5.8629">
        <ele>665</ele>
        <time>2019-06-25T07:43:25Z</time>
      </trkpt>
      <trkpt lat="44.35853" lon="5.86296">
        <ele>665</ele>
        <time>2019-06-25T07:43:26Z</time>
      </trkpt>
      <trkpt lat="44.35855" lon="5.86301">
        <ele>665</ele>
        <time>2019-06-25T07:43:27Z</time>
      </trkpt>
      <trkpt lat="44.35858" lon="5.86307">
        <ele>665</ele>
        <time>2019-06-25T07:43:27Z</time>
      </trkpt>
      <trkpt lat="44.35861" lon="5.86313">
        <ele>665</ele>
        <time>2019-06-25T07:43:28Z</time>
      </trkpt>
      <trkpt lat="44.35863" lon="5.86319">
        <ele>665</ele>
        <time>2019-06-25T07:43:30Z</time>
      </trkpt>
      <trkpt lat="44.35865" lon="5.86325">
        <ele>666</ele>
        <time>2019-06-25T07:43:31Z</time>
      </trkpt>
      <trkpt lat="44.35868" lon="5.86331">
        <ele>666</ele>
        <time>2019-06-25T07:43:31Z</time>
      </trkpt>
      <trkpt lat="44.3587" lon="5.86337">
        <ele>666</ele>
        <time>2019-06-25T07:43:33Z</time>
      </trkpt>
      <trkpt lat="44.35872" lon="5.86343">
        <ele>666</ele>
        <time>2019-06-25T07:43:33Z</time>
      </trkpt>
      <trkpt lat="44.35874" lon="5.86349">
        <ele>666</ele>
        <time>2019-06-25T07:43:34Z</time>
      </trkpt>
      <trkpt lat="44.35876" lon="5.86356">
        <ele>666</ele>
        <time>2019-06-25T07:43:36Z</time>
      </trkpt>
      <trkpt lat="44.35877" lon="5.86363">
        <ele>666</ele>
        <time>2019-06-25T07:43:36Z</time>
      </trkpt>
      <trkpt lat="44.35879" lon="5.8637">
        <ele>666</ele>
        <time>2019-06-25T07:43:37Z</time>
      </trkpt>
      <trkpt lat="44.35881" lon="5.86377">
        <ele>666</ele>
        <time>2019-06-25T07:43:38Z</time>
      </trkpt>
      <trkpt lat="44.35882" lon="5.86384">
        <ele>666</ele>
        <time>2019-06-25T07:43:39Z</time>
      </trkpt>
      <trkpt lat="44.35883" lon="5.86391">
        <ele>666</ele>
        <time>2019-06-25T07:43:41Z</time>
      </trkpt>
      <trkpt lat="44.35884" lon="5.86398">
        <ele>666</ele>
        <time>2019-06-25T07:43:41Z</time>
      </trkpt>
      <trkpt lat="44.35886" lon="5.86405">
        <ele>666</ele>
        <time>2019-06-25T07:43:42Z</time>
      </trkpt>
      <trkpt lat="44.35887" lon="5.86412">
        <ele>666</ele>
        <time>2019-06-25T07:43:43Z</time>
      </trkpt>
      <trkpt lat="44.35889" lon="5.86419">
        <ele>666</ele>
        <time>2019-06-25T07:43:44Z</time>
      </trkpt>
      <trkpt lat="44.35891" lon="5.86426">
        <ele>666</ele>
        <time>2019-06-25T07:43:46Z</time>
      </trkpt>
      <trkpt lat="44.35893" lon="5.86434">
        <ele>666</ele>
        <time>2019-06-25T07:43:46Z</time>
      </trkpt>
      <trkpt lat="44.35895" lon="5.86441">
        <ele>666</ele>
        <time>2019-06-25T07:43:47Z</time>
      </trkpt>
      <trkpt lat="44.35896" lon="5.86449">
        <ele>666</ele>
        <time>2019-06-25T07:43:49Z</time>
      </trkpt>
      <trkpt lat="44.35898" lon="5.86456">
        <ele>666</ele>
        <time>2019-06-25T07:43:49Z</time>
      </trkpt>
      <trkpt lat="44.35899" lon="5.86463">
        <ele>666</ele>
        <time>2019-06-25T07:43:51Z</time>
      </trkpt>
      <trkpt lat="44.35901" lon="5.86471">
        <ele>666</ele>
        <time>2019-06-25T07:43:51Z</time>
      </trkpt>
      <trkpt lat="44.35903" lon="5.86479">
        <ele>666</ele>
        <time>2019-06-25T07:43:52Z</time>
      </trkpt>
      <trkpt lat="44.35904" lon="5.86486">
        <ele>666</ele>
        <time>2019-06-25T07:43:53Z</time>
      </trkpt>
      <trkpt lat="44.35906" lon="5.86494">
        <ele>666</ele>
        <time>2019-06-25T07:43:54Z</time>
      </trkpt>
      <trkpt lat="44.35907" lon="5.86502">
        <ele>666</ele>
        <time>2019-06-25T07:43:56Z</time>
      </trkpt>
      <trkpt lat="44.35909" lon="5.8651">
        <ele>666</ele>
        <time>2019-06-25T07:43:56Z</time>
      </trkpt>
      <trkpt lat="44.35911" lon="5.86517">
        <ele>666</ele>
        <time>2019-06-25T07:43:57Z</time>
      </trkpt>
      <trkpt lat="44.35912" lon="5.86525">
        <ele>666</ele>
        <time>2019-06-25T07:43:58Z</time>
      </trkpt>
      <trkpt lat="44.35914" lon="5.86533">
        <ele>666</ele>
        <time>2019-06-25T07:43:59Z</time>
      </trkpt>
      <trkpt lat="44.35916" lon="5.86541">
        <ele>666</ele>
        <time>2019-06-25T07:44:01Z</time>
      </trkpt>
      <trkpt lat="44.35918" lon="5.86549">
        <ele>666</ele>
        <time>2019-06-25T07:44:01Z</time>
      </trkpt>
      <trkpt lat="44.35919" lon="5.86557">
        <ele>666</ele>
        <time>2019-06-25T07:44:02Z</time>
      </trkpt>
      <trkpt lat="44.35921" lon="5.86565">
        <ele>666</ele>
        <time>2019-06-25T07:44:03Z</time>
      </trkpt>
      <trkpt lat="44.35923" lon="5.86573">
        <ele>666</ele>
        <time>2019-06-25T07:44:04Z</time>
      </trkpt>
      <trkpt lat="44.35924" lon="5.86581">
        <ele>666</ele>
        <time>2019-06-25T07:44:06Z</time>
      </trkpt>
      <trkpt lat="44.35926" lon="5.86589">
        <ele>666</ele>
        <time>2019-06-25T07:44:06Z</time>
      </trkpt>
      <trkpt lat="44.35928" lon="5.86597">
        <ele>666</ele>
        <time>2019-06-25T07:44:07Z</time>
      </trkpt>
      <trkpt lat="44.3593" lon="5.86606">
        <ele>666</ele>
        <time>2019-06-25T07:44:08Z</time>
      </trkpt>
      <trkpt lat="44.35931" lon="5.86614">
        <ele>666</ele>
        <time>2019-06-25T07:44:09Z</time>
      </trkpt>
      <trkpt lat="44.35933" lon="5.86622">
        <ele>666</ele>
        <time>2019-06-25T07:44:11Z</time>
      </trkpt>
      <trkpt lat="44.35935" lon="5.8663">
        <ele>666</ele>
        <time>2019-06-25T07:44:11Z</time>
      </trkpt>
      <trkpt lat="44.35936" lon="5.86638">
        <ele>666</ele>
        <time>2019-06-25T07:44:12Z</time>
      </trkpt>
      <trkpt lat="44.35939" lon="5.86646">
        <ele>666</ele>
        <time>2019-06-25T07:44:13Z</time>
      </trkpt>
      <trkpt lat="44.35941" lon="5.86654">
        <ele>666</ele>
        <time>2019-06-25T07:44:14Z</time>
      </trkpt>
      <trkpt lat="44.35942" lon="5.86662">
        <ele>666</ele>
        <time>2019-06-25T07:44:16Z</time>
      </trkpt>
      <trkpt lat="44.35945" lon="5.8667">
        <ele>666</ele>
        <time>2019-06-25T07:44:16Z</time>
      </trkpt>
      <trkpt lat="44.35947" lon="5.86678">
        <ele>666</ele>
        <time>2019-06-25T07:44:17Z</time>
      </trkpt>
      <trkpt lat="44.35949" lon="5.86686">
        <ele>666</ele>
        <time>2019-06-25T07:44:18Z</time>
      </trkpt>
      <trkpt lat="44.35952" lon="5.86694">
        <ele>666</ele>
        <time>2019-06-25T07:44:19Z</time>
      </trkpt>
      <trkpt lat="44.35955" lon="5.86702">
        <ele>666</ele>
        <time>2019-06-25T07:44:21Z</time>
      </trkpt>
      <trkpt lat="44.35958" lon="5.8671">
        <ele>666</ele>
        <time>2019-06-25T07:44:21Z</time>
      </trkpt>
      <trkpt lat="44.35962" lon="5.86717">
        <ele>666</ele>
        <time>2019-06-25T07:44:22Z</time>
      </trkpt>
      <trkpt lat="44.35965" lon="5.86725">
        <ele>666</ele>
        <time>2019-06-25T07:44:23Z</time>
      </trkpt>
      <trkpt lat="44.35968" lon="5.86733">
        <ele>666</ele>
        <time>2019-06-25T07:44:24Z</time>
      </trkpt>
      <trkpt lat="44.35971" lon="5.8674">
        <ele>666</ele>
        <time>2019-06-25T07:44:26Z</time>
      </trkpt>
      <trkpt lat="44.35975" lon="5.86748">
        <ele>666</ele>
        <time>2019-06-25T07:44:26Z</time>
      </trkpt>
      <trkpt lat="44.35979" lon="5.86756">
        <ele>666</ele>
        <time>2019-06-25T07:44:27Z</time>
      </trkpt>
      <trkpt lat="44.35983" lon="5.86764">
        <ele>666</ele>
        <time>2019-06-25T07:44:28Z</time>
      </trkpt>
      <trkpt lat="44.35986" lon="5.86772">
        <ele>666</ele>
        <time>2019-06-25T07:44:29Z</time>
      </trkpt>
      <trkpt lat="44.3599" lon="5.86781">
        <ele>666</ele>
        <time>2019-06-25T07:44:31Z</time>
      </trkpt>
      <trkpt lat="44.35994" lon="5.86789">
        <ele>666</ele>
        <time>2019-06-25T07:44:31Z</time>
      </trkpt>
      <trkpt lat="44.35998" lon="5.86797">
        <ele>666</ele>
        <time>2019-06-25T07:44:33Z</time>
      </trkpt>
      <trkpt lat="44.36002" lon="5.86805">
        <ele>666</ele>
        <time>2019-06-25T07:44:33Z</time>
      </trkpt>
      <trkpt lat="44.36005" lon="5.86814">
        <ele>666</ele>
        <time>2019-06-25T07:44:34Z</time>
      </trkpt>
      <trkpt lat="44.36009" lon="5.86822">
        <ele>666</ele>
        <time>2019-06-25T07:44:36Z</time>
      </trkpt>
      <trkpt lat="44.36013" lon="5.86831">
        <ele>666</ele>
        <time>2019-06-25T07:44:36Z</time>
      </trkpt>
      <trkpt lat="44.36018" lon="5.86839">
        <ele>665</ele>
        <time>2019-06-25T07:44:37Z</time>
      </trkpt>
      <trkpt lat="44.36022" lon="5.86848">
        <ele>665</ele>
        <time>2019-06-25T07:44:38Z</time>
      </trkpt>
      <trkpt lat="44.36027" lon="5.86857">
        <ele>665</ele>
        <time>2019-06-25T07:44:39Z</time>
      </trkpt>
      <trkpt lat="44.36031" lon="5.86866">
        <ele>665</ele>
        <time>2019-06-25T07:44:41Z</time>
      </trkpt>
      <trkpt lat="44.36036" lon="5.86876">
        <ele>665</ele>
        <time>2019-06-25T07:44:41Z</time>
      </trkpt>
      <trkpt lat="44.36041" lon="5.86885">
        <ele>664</ele>
        <time>2019-06-25T07:44:42Z</time>
      </trkpt>
      <trkpt lat="44.36045" lon="5.86895">
        <ele>664</ele>
        <time>2019-06-25T07:44:43Z</time>
      </trkpt>
      <trkpt lat="44.3605" lon="5.86904">
        <ele>664</ele>
        <time>2019-06-25T07:44:44Z</time>
      </trkpt>
      <trkpt lat="44.36055" lon="5.86914">
        <ele>664</ele>
        <time>2019-06-25T07:44:46Z</time>
      </trkpt>
      <trkpt lat="44.36059" lon="5.86924">
        <ele>663</ele>
        <time>2019-06-25T07:44:46Z</time>
      </trkpt>
      <trkpt lat="44.36064" lon="5.86934">
        <ele>663</ele>
        <time>2019-06-25T07:44:47Z</time>
      </trkpt>
      <trkpt lat="44.36069" lon="5.86943">
        <ele>663</ele>
        <time>2019-06-25T07:44:48Z</time>
      </trkpt>
      <trkpt lat="44.36074" lon="5.86954">
        <ele>662</ele>
        <time>2019-06-25T07:44:49Z</time>
      </trkpt>
      <trkpt lat="44.36079" lon="5.86964">
        <ele>662</ele>
        <time>2019-06-25T07:44:51Z</time>
      </trkpt>
      <trkpt lat="44.36084" lon="5.86975">
        <ele>661</ele>
        <time>2019-06-25T07:44:51Z</time>
      </trkpt>
      <trkpt lat="44.36089" lon="5.86986">
        <ele>661</ele>
        <time>2019-06-25T07:44:52Z</time>
      </trkpt>
      <trkpt lat="44.36093" lon="5.86997">
        <ele>660</ele>
        <time>2019-06-25T07:44:53Z</time>
      </trkpt>
      <trkpt lat="44.36097" lon="5.87009">
        <ele>660</ele>
        <time>2019-06-25T07:44:54Z</time>
      </trkpt>
      <trkpt lat="44.36102" lon="5.87021">
        <ele>659</ele>
        <time>2019-06-25T07:44:56Z</time>
      </trkpt>
      <trkpt lat="44.36106" lon="5.87035">
        <ele>659</ele>
        <time>2019-06-25T07:44:56Z</time>
      </trkpt>
      <trkpt lat="44.36109" lon="5.87048">
        <ele>658</ele>
        <time>2019-06-25T07:44:57Z</time>
      </trkpt>
      <trkpt lat="44.36111" lon="5.87062">
        <ele>657</ele>
        <time>2019-06-25T07:44:58Z</time>
      </trkpt>
      <trkpt lat="44.36114" lon="5.87076">
        <ele>656</ele>
        <time>2019-06-25T07:44:59Z</time>
      </trkpt>
      <trkpt lat="44.36116" lon="5.8709">
        <ele>655</ele>
        <time>2019-06-25T07:45:00Z</time>
      </trkpt>
      <trkpt lat="44.36118" lon="5.87105">
        <ele>654</ele>
        <time>2019-06-25T07:45:01Z</time>
      </trkpt>
      <trkpt lat="44.3612" lon="5.8712">
        <ele>653</ele>
        <time>2019-06-25T07:45:02Z</time>
      </trkpt>
      <trkpt lat="44.36123" lon="5.87134">
        <ele>652</ele>
        <time>2019-06-25T07:45:03Z</time>
      </trkpt>
      <trkpt lat="44.36125" lon="5.87149">
        <ele>651</ele>
        <time>2019-06-25T07:45:04Z</time>
      </trkpt>
      <trkpt lat="44.36127" lon="5.87164">
        <ele>650</ele>
        <time>2019-06-25T07:45:05Z</time>
      </trkpt>
      <trkpt lat="44.36129" lon="5.87179">
        <ele>649</ele>
        <time>2019-06-25T07:45:06Z</time>
      </trkpt>
      <trkpt lat="44.36132" lon="5.87194">
        <ele>648</ele>
        <time>2019-06-25T07:45:07Z</time>
      </trkpt>
      <trkpt lat="44.36134" lon="5.87209">
        <ele>647</ele>
        <time>2019-06-25T07:45:08Z</time>
      </trkpt>
      <trkpt lat="44.36137" lon="5.87224">
        <ele>646</ele>
        <time>2019-06-25T07:45:09Z</time>
      </trkpt>
      <trkpt lat="44.3614" lon="5.87239">
        <ele>645</ele>
        <time>2019-06-25T07:45:10Z</time>
      </trkpt>
      <trkpt lat="44.36144" lon="5.87253">
        <ele>644</ele>
        <time>2019-06-25T07:45:11Z</time>
      </trkpt>
      <trkpt lat="44.3615" lon="5.87267">
        <ele>643</ele>
        <time>2019-06-25T07:45:12Z</time>
      </trkpt>
      <trkpt lat="44.36157" lon="5.8728">
        <ele>642</ele>
        <time>2019-06-25T07:45:13Z</time>
      </trkpt>
      <trkpt lat="44.36164" lon="5.87293">
        <ele>642</ele>
        <time>2019-06-25T07:45:14Z</time>
      </trkpt>
      <trkpt lat="44.36172" lon="5.87306">
        <ele>641</ele>
        <time>2019-06-25T07:45:15Z</time>
      </trkpt>
      <trkpt lat="44.36179" lon="5.8732">
        <ele>640</ele>
        <time>2019-06-25T07:45:16Z</time>
      </trkpt>
      <trkpt lat="44.36187" lon="5.87333">
        <ele>639</ele>
        <time>2019-06-25T07:45:17Z</time>
      </trkpt>
      <trkpt lat="44.36195" lon="5.87347">
        <ele>638</ele>
        <time>2019-06-25T07:45:18Z</time>
      </trkpt>
      <trkpt lat="44.36202" lon="5.87362">
        <ele>637</ele>
        <time>2019-06-25T07:45:19Z</time>
      </trkpt>
      <trkpt lat="44.36207" lon="5.87377">
        <ele>636</ele>
        <time>2019-06-25T07:45:20Z</time>
      </trkpt>
      <trkpt lat="44.36209" lon="5.87392">
        <ele>635</ele>
        <time>2019-06-25T07:45:21Z</time>
      </trkpt>
      <trkpt lat="44.36208" lon="5.87408">
        <ele>635</ele>
        <time>2019-06-25T07:45:22Z</time>
      </trkpt>
      <trkpt lat="44.36204" lon="5.87422">
        <ele>634</ele>
        <time>2019-06-25T07:45:23Z</time>
      </trkpt>
      <trkpt lat="44.362" lon="5.87436">
        <ele>633</ele>
        <time>2019-06-25T07:45:24Z</time>
      </trkpt>
      <trkpt lat="44.36197" lon="5.87451">
        <ele>632</ele>
        <time>2019-06-25T07:45:25Z</time>
      </trkpt>
      <trkpt lat="44.36194" lon="5.87465">
        <ele>631</ele>
        <time>2019-06-25T07:45:26Z</time>
      </trkpt>
      <trkpt lat="44.36193" lon="5.8748">
        <ele>630</ele>
        <time>2019-06-25T07:45:27Z</time>
      </trkpt>
      <trkpt lat="44.36193" lon="5.87495">
        <ele>629</ele>
        <time>2019-06-25T07:45:28Z</time>
      </trkpt>
      <trkpt lat="44.36193" lon="5.87509">
        <ele>629</ele>
        <time>2019-06-25T07:45:29Z</time>
      </trkpt>
      <trkpt lat="44.36194" lon="5.87524">
        <ele>629</ele>
        <time>2019-06-25T07:45:30Z</time>
      </trkpt>
      <trkpt lat="44.36196" lon="5.87539">
        <ele>629</ele>
        <time>2019-06-25T07:45:31Z</time>
      </trkpt>
      <trkpt lat="44.36197" lon="5.87553">
        <ele>628</ele>
        <time>2019-06-25T07:45:33Z</time>
      </trkpt>
      <trkpt lat="44.36199" lon="5.87567">
        <ele>628</ele>
        <time>2019-06-25T07:45:33Z</time>
      </trkpt>
      <trkpt lat="44.36201" lon="5.87581">
        <ele>628</ele>
        <time>2019-06-25T07:45:34Z</time>
      </trkpt>
      <trkpt lat="44.36204" lon="5.87596">
        <ele>628</ele>
        <time>2019-06-25T07:45:35Z</time>
      </trkpt>
      <trkpt lat="44.36208" lon="5.87609">
        <ele>627</ele>
        <time>2019-06-25T07:45:36Z</time>
      </trkpt>
      <trkpt lat="44.36211" lon="5.87623">
        <ele>627</ele>
        <time>2019-06-25T07:45:37Z</time>
      </trkpt>
      <trkpt lat="44.36215" lon="5.87637">
        <ele>626</ele>
        <time>2019-06-25T07:45:38Z</time>
      </trkpt>
      <trkpt lat="44.36217" lon="5.87651">
        <ele>626</ele>
        <time>2019-06-25T07:45:39Z</time>
      </trkpt>
      <trkpt lat="44.36218" lon="5.87666">
        <ele>626</ele>
        <time>2019-06-25T07:45:40Z</time>
      </trkpt>
      <trkpt lat="44.36219" lon="5.87681">
        <ele>625</ele>
        <time>2019-06-25T07:45:41Z</time>
      </trkpt>
      <trkpt lat="44.36219" lon="5.87696">
        <ele>625</ele>
        <time>2019-06-25T07:45:42Z</time>
      </trkpt>
      <trkpt lat="44.36219" lon="5.87711">
        <ele>624</ele>
        <time>2019-06-25T07:45:43Z</time>
      </trkpt>
      <trkpt lat="44.3622" lon="5.87726">
        <ele>624</ele>
        <time>2019-06-25T07:45:44Z</time>
      </trkpt>
      <trkpt lat="44.36221" lon="5.87741">
        <ele>624</ele>
        <time>2019-06-25T07:45:45Z</time>
      </trkpt>
      <trkpt lat="44.36222" lon="5.87755">
        <ele>624</ele>
        <time>2019-06-25T07:45:46Z</time>
      </trkpt>
      <trkpt lat="44.36224" lon="5.8777">
        <ele>623</ele>
        <time>2019-06-25T07:45:47Z</time>
      </trkpt>
      <trkpt lat="44.36227" lon="5.87784">
        <ele>623</ele>
        <time>2019-06-25T07:45:48Z</time>
      </trkpt>
      <trkpt lat="44.3623" lon="5.87797">
        <ele>623</ele>
        <time>2019-06-25T07:45:49Z</time>
      </trkpt>
      <trkpt lat="44.36234" lon="5.87811">
        <ele>623</ele>
        <time>2019-06-25T07:45:50Z</time>
      </trkpt>
      <trkpt lat="44.36237" lon="5.87824">
        <ele>622</ele>
        <time>2019-06-25T07:45:51Z</time>
      </trkpt>
      <trkpt lat="44.3624" lon="5.87838">
        <ele>622</ele>
        <time>2019-06-25T07:45:52Z</time>
      </trkpt>
      <trkpt lat="44.36243" lon="5.87851">
        <ele>622</ele>
        <time>2019-06-25T07:45:53Z</time>
      </trkpt>
      <trkpt lat="44.36247" lon="5.87864">
        <ele>622</ele>
        <time>2019-06-25T07:45:54Z</time>
      </trkpt>
      <trkpt lat="44.36249" lon="5.87878">
        <ele>622</ele>
        <time>2019-06-25T07:45:55Z</time>
      </trkpt>
      <trkpt lat="44.3625" lon="5.8789">
        <ele>622</ele>
        <time>2019-06-25T07:45:56Z</time>
      </trkpt>
      <trkpt lat="44.3625" lon="5.87903">
        <ele>621</ele>
        <time>2019-06-25T07:45:57Z</time>
      </trkpt>
      <trkpt lat="44.3625" lon="5.87915">
        <ele>621</ele>
        <time>2019-06-25T07:45:58Z</time>
      </trkpt>
      <trkpt lat="44.36249" lon="5.87927">
        <ele>621</ele>
        <time>2019-06-25T07:45:59Z</time>
      </trkpt>
      <trkpt lat="44.36248" lon="5.87938">
        <ele>621</ele>
        <time>2019-06-25T07:46:01Z</time>
      </trkpt>
      <trkpt lat="44.36246" lon="5.8795">
        <ele>621</ele>
        <time>2019-06-25T07:46:01Z</time>
      </trkpt>
      <trkpt lat="44.36245" lon="5.87961">
        <ele>621</ele>
        <time>2019-06-25T07:46:02Z</time>
      </trkpt>
      <trkpt lat="44.36245" lon="5.87973">
        <ele>621</ele>
        <time>2019-06-25T07:46:03Z</time>
      </trkpt>
      <trkpt lat="44.36247" lon="5.87986">
        <ele>621</ele>
        <time>2019-06-25T07:46:04Z</time>
      </trkpt>
      <trkpt lat="44.36249" lon="5.87998">
        <ele>620</ele>
        <time>2019-06-25T07:46:06Z</time>
      </trkpt>
      <trkpt lat="44.36252" lon="5.88011">
        <ele>620</ele>
        <time>2019-06-25T07:46:06Z</time>
      </trkpt>
      <trkpt lat="44.36256" lon="5.88023">
        <ele>619</ele>
        <time>2019-06-25T07:46:07Z</time>
      </trkpt>
      <trkpt lat="44.36261" lon="5.88035">
        <ele>619</ele>
        <time>2019-06-25T07:46:08Z</time>
      </trkpt>
      <trkpt lat="44.36265" lon="5.88047">
        <ele>619</ele>
        <time>2019-06-25T07:46:09Z</time>
      </trkpt>
      <trkpt lat="44.36269" lon="5.88059">
        <ele>618</ele>
        <time>2019-06-25T07:46:11Z</time>
      </trkpt>
      <trkpt lat="44.36273" lon="5.88072">
        <ele>618</ele>
        <time>2019-06-25T07:46:11Z</time>
      </trkpt>
      <trkpt lat="44.36276" lon="5.88084">
        <ele>618</ele>
        <time>2019-06-25T07:46:12Z</time>
      </trkpt>
      <trkpt lat="44.3628" lon="5.88095">
        <ele>618</ele>
        <time>2019-06-25T07:46:13Z</time>
      </trkpt>
      <trkpt lat="44.36283" lon="5.88107">
        <ele>618</ele>
        <time>2019-06-25T07:46:14Z</time>
      </trkpt>
      <trkpt lat="44.36285" lon="5.88118">
        <ele>617</ele>
        <time>2019-06-25T07:46:15Z</time>
      </trkpt>
      <trkpt lat="44.36288" lon="5.88128">
        <ele>617</ele>
        <time>2019-06-25T07:46:16Z</time>
      </trkpt>
      <trkpt lat="44.36291" lon="5.88138">
        <ele>617</ele>
        <time>2019-06-25T07:46:17Z</time>
      </trkpt>
      <trkpt lat="44.36294" lon="5.88148">
        <ele>616</ele>
        <time>2019-06-25T07:46:18Z</time>
      </trkpt>
      <trkpt lat="44.36296" lon="5.88158">
        <ele>616</ele>
        <time>2019-06-25T07:46:20Z</time>
      </trkpt>
      <trkpt lat="44.36298" lon="5.88167">
        <ele>616</ele>
        <time>2019-06-25T07:46:21Z</time>
      </trkpt>
      <trkpt lat="44.36301" lon="5.88176">
        <ele>615</ele>
        <time>2019-06-25T07:46:21Z</time>
      </trkpt>
      <trkpt lat="44.36305" lon="5.88186">
        <ele>614</ele>
        <time>2019-06-25T07:46:22Z</time>
      </trkpt>
      <trkpt lat="44.36307" lon="5.88195">
        <ele>614</ele>
        <time>2019-06-25T07:46:23Z</time>
      </trkpt>
      <trkpt lat="44.36309" lon="5.88205">
        <ele>613</ele>
        <time>2019-06-25T07:46:24Z</time>
      </trkpt>
      <trkpt lat="44.36311" lon="5.88215">
        <ele>612</ele>
        <time>2019-06-25T07:46:26Z</time>
      </trkpt>
      <trkpt lat="44.36313" lon="5.88226">
        <ele>611</ele>
        <time>2019-06-25T07:46:26Z</time>
      </trkpt>
      <trkpt lat="44.36316" lon="5.88236">
        <ele>611</ele>
        <time>2019-06-25T07:46:27Z</time>
      </trkpt>
      <trkpt lat="44.36318" lon="5.88247">
        <ele>610</ele>
        <time>2019-06-25T07:46:28Z</time>
      </trkpt>
      <trkpt lat="44.36319" lon="5.88258">
        <ele>609</ele>
        <time>2019-06-25T07:46:29Z</time>
      </trkpt>
      <trkpt lat="44.36321" lon="5.88268">
        <ele>609</ele>
        <time>2019-06-25T07:46:31Z</time>
      </trkpt>
      <trkpt lat="44.36323" lon="5.88278">
        <ele>609</ele>
        <time>2019-06-25T07:46:31Z</time>
      </trkpt>
      <trkpt lat="44.36325" lon="5.88289">
        <ele>609</ele>
        <time>2019-06-25T07:46:33Z</time>
      </trkpt>
      <trkpt lat="44.36328" lon="5.883">
        <ele>609</ele>
        <time>2019-06-25T07:46:33Z</time>
      </trkpt>
      <trkpt lat="44.36331" lon="5.88311">
        <ele>609</ele>
        <time>2019-06-25T07:46:34Z</time>
      </trkpt>
      <trkpt lat="44.36335" lon="5.88322">
        <ele>609</ele>
        <time>2019-06-25T07:46:36Z</time>
      </trkpt>
      <trkpt lat="44.36338" lon="5.88333">
        <ele>609</ele>
        <time>2019-06-25T07:46:36Z</time>
      </trkpt>
      <trkpt lat="44.36343" lon="5.88344">
        <ele>609</ele>
        <time>2019-06-25T07:46:37Z</time>
      </trkpt>
      <trkpt lat="44.36348" lon="5.88356">
        <ele>609</ele>
        <time>2019-06-25T07:46:38Z</time>
      </trkpt>
      <trkpt lat="44.36351" lon="5.88368">
        <ele>609</ele>
        <time>2019-06-25T07:46:39Z</time>
      </trkpt>
      <trkpt lat="44.36356" lon="5.88379">
        <ele>609</ele>
        <time>2019-06-25T07:46:41Z</time>
      </trkpt>
      <trkpt lat="44.36359" lon="5.8839">
        <ele>609</ele>
        <time>2019-06-25T07:46:41Z</time>
      </trkpt>
      <trkpt lat="44.36363" lon="5.884">
        <ele>609</ele>
        <time>2019-06-25T07:46:42Z</time>
      </trkpt>
      <trkpt lat="44.36367" lon="5.8841">
        <ele>609</ele>
        <time>2019-06-25T07:46:43Z</time>
      </trkpt>
      <trkpt lat="44.36371" lon="5.88421">
        <ele>609</ele>
        <time>2019-06-25T07:46:44Z</time>
      </trkpt>
      <trkpt lat="44.36373" lon="5.88431">
        <ele>609</ele>
        <time>2019-06-25T07:46:46Z</time>
      </trkpt>
      <trkpt lat="44.36374" lon="5.88441">
        <ele>609</ele>
        <time>2019-06-25T07:46:46Z</time>
      </trkpt>
      <trkpt lat="44.36375" lon="5.88451">
        <ele>609</ele>
        <time>2019-06-25T07:46:47Z</time>
      </trkpt>
      <trkpt lat="44.36375" lon="5.88461">
        <ele>609</ele>
        <time>2019-06-25T07:46:48Z</time>
      </trkpt>
      <trkpt lat="44.36375" lon="5.8847">
        <ele>609</ele>
        <time>2019-06-25T07:46:49Z</time>
      </trkpt>
      <trkpt lat="44.36374" lon="5.88479">
        <ele>609</ele>
        <time>2019-06-25T07:46:51Z</time>
      </trkpt>
      <trkpt lat="44.36375" lon="5.88488">
        <ele>609</ele>
        <time>2019-06-25T07:46:51Z</time>
      </trkpt>
      <trkpt lat="44.36375" lon="5.88497">
        <ele>609</ele>
        <time>2019-06-25T07:46:52Z</time>
      </trkpt>
      <trkpt lat="44.36375" lon="5.88504">
        <ele>609</ele>
        <time>2019-06-25T07:46:53Z</time>
      </trkpt>
      <trkpt lat="44.36374" lon="5.88512">
        <ele>609</ele>
        <time>2019-06-25T07:46:54Z</time>
      </trkpt>
      <trkpt lat="44.36373" lon="5.88519">
        <ele>609</ele>
        <time>2019-06-25T07:46:56Z</time>
      </trkpt>
      <trkpt lat="44.36372" lon="5.88526">
        <ele>609</ele>
        <time>2019-06-25T07:46:56Z</time>
      </trkpt>
      <trkpt lat="44.36372" lon="5.88534">
        <ele>609</ele>
        <time>2019-06-25T07:46:57Z</time>
      </trkpt>
      <trkpt lat="44.36372" lon="5.88542">
        <ele>609</ele>
        <time>2019-06-25T07:46:58Z</time>
      </trkpt>
      <trkpt lat="44.36372" lon="5.8855">
        <ele>609</ele>
        <time>2019-06-25T07:46:59Z</time>
      </trkpt>
      <trkpt lat="44.36372" lon="5.88558">
        <ele>609</ele>
        <time>2019-06-25T07:47:01Z</time>
      </trkpt>
      <trkpt lat="44.36371" lon="5.88566">
        <ele>609</ele>
        <time>2019-06-25T07:47:01Z</time>
      </trkpt>
      <trkpt lat="44.3637" lon="5.88575">
        <ele>609</ele>
        <time>2019-06-25T07:47:02Z</time>
      </trkpt>
      <trkpt lat="44.3637" lon="5.88583">
        <ele>609</ele>
        <time>2019-06-25T07:47:03Z</time>
      </trkpt>
      <trkpt lat="44.3637" lon="5.88592">
        <ele>609</ele>
        <time>2019-06-25T07:47:04Z</time>
      </trkpt>
      <trkpt lat="44.3637" lon="5.886">
        <ele>609</ele>
        <time>2019-06-25T07:47:06Z</time>
      </trkpt>
      <trkpt lat="44.3637" lon="5.88608">
        <ele>609</ele>
        <time>2019-06-25T07:47:06Z</time>
      </trkpt>
      <trkpt lat="44.36369" lon="5.88617">
        <ele>609</ele>
        <time>2019-06-25T07:47:07Z</time>
      </trkpt>
      <trkpt lat="44.36369" lon="5.88626">
        <ele>609</ele>
        <time>2019-06-25T07:47:08Z</time>
      </trkpt>
      <trkpt lat="44.36369" lon="5.88635">
        <ele>609</ele>
        <time>2019-06-25T07:47:09Z</time>
      </trkpt>
      <trkpt lat="44.36368" lon="5.88644">
        <ele>610</ele>
        <time>2019-06-25T07:47:11Z</time>
      </trkpt>
      <trkpt lat="44.36366" lon="5.88652">
        <ele>610</ele>
        <time>2019-06-25T07:47:11Z</time>
      </trkpt>
      <trkpt lat="44.36364" lon="5.8866">
        <ele>610</ele>
        <time>2019-06-25T07:47:12Z</time>
      </trkpt>
      <trkpt lat="44.36362" lon="5.88668">
        <ele>610</ele>
        <time>2019-06-25T07:47:13Z</time>
      </trkpt>
      <trkpt lat="44.36359" lon="5.88676">
        <ele>610</ele>
        <time>2019-06-25T07:47:14Z</time>
      </trkpt>
      <trkpt lat="44.36356" lon="5.88682">
        <ele>610</ele>
        <time>2019-06-25T07:47:16Z</time>
      </trkpt>
      <trkpt lat="44.36353" lon="5.88689">
        <ele>610</ele>
        <time>2019-06-25T07:47:16Z</time>
      </trkpt>
      <trkpt lat="44.3635" lon="5.88695">
        <ele>610</ele>
        <time>2019-06-25T07:47:17Z</time>
      </trkpt>
      <trkpt lat="44.36348" lon="5.88702">
        <ele>610</ele>
        <time>2019-06-25T07:47:18Z</time>
      </trkpt>
      <trkpt lat="44.36346" lon="5.88709">
        <ele>610</ele>
        <time>2019-06-25T07:47:19Z</time>
      </trkpt>
      <trkpt lat="44.36344" lon="5.88716">
        <ele>610</ele>
        <time>2019-06-25T07:47:21Z</time>
      </trkpt>
      <trkpt lat="44.36342" lon="5.88723">
        <ele>610</ele>
        <time>2019-06-25T07:47:21Z</time>
      </trkpt>
      <trkpt lat="44.36341" lon="5.88729">
        <ele>610</ele>
        <time>2019-06-25T07:47:22Z</time>
      </trkpt>
      <trkpt lat="44.3634" lon="5.88736">
        <ele>610</ele>
        <time>2019-06-25T07:47:23Z</time>
      </trkpt>
      <trkpt lat="44.36339" lon="5.88744">
        <ele>610</ele>
        <time>2019-06-25T07:47:24Z</time>
      </trkpt>
      <trkpt lat="44.36339" lon="5.88751">
        <ele>610</ele>
        <time>2019-06-25T07:47:26Z</time>
      </trkpt>
      <trkpt lat="44.36339" lon="5.88759">
        <ele>610</ele>
        <time>2019-06-25T07:47:26Z</time>
      </trkpt>
      <trkpt lat="44.3634" lon="5.88767">
        <ele>610</ele>
        <time>2019-06-25T07:47:27Z</time>
      </trkpt>
      <trkpt lat="44.36342" lon="5.88775">
        <ele>610</ele>
        <time>2019-06-25T07:47:28Z</time>
      </trkpt>
      <trkpt lat="44.36343" lon="5.88783">
        <ele>610</ele>
        <time>2019-06-25T07:47:29Z</time>
      </trkpt>
      <trkpt lat="44.36346" lon="5.88792">
        <ele>610</ele>
        <time>2019-06-25T07:47:31Z</time>
      </trkpt>
      <trkpt lat="44.36348" lon="5.888">
        <ele>610</ele>
        <time>2019-06-25T07:47:31Z</time>
      </trkpt>
      <trkpt lat="44.36351" lon="5.88809">
        <ele>610</ele>
        <time>2019-06-25T07:47:33Z</time>
      </trkpt>
      <trkpt lat="44.36354" lon="5.88818">
        <ele>610</ele>
        <time>2019-06-25T07:47:33Z</time>
      </trkpt>
      <trkpt lat="44.36358" lon="5.88827">
        <ele>610</ele>
        <time>2019-06-25T07:47:34Z</time>
      </trkpt>
      <trkpt lat="44.36361" lon="5.88836">
        <ele>610</ele>
        <time>2019-06-25T07:47:36Z</time>
      </trkpt>
      <trkpt lat="44.36364" lon="5.88845">
        <ele>610</ele>
        <time>2019-06-25T07:47:36Z</time>
      </trkpt>
      <trkpt lat="44.36368" lon="5.88855">
        <ele>610</ele>
        <time>2019-06-25T07:47:37Z</time>
      </trkpt>
      <trkpt lat="44.36372" lon="5.88864">
        <ele>610</ele>
        <time>2019-06-25T07:47:38Z</time>
      </trkpt>
      <trkpt lat="44.36375" lon="5.88873">
        <ele>610</ele>
        <time>2019-06-25T07:47:39Z</time>
      </trkpt>
      <trkpt lat="44.36378" lon="5.88882">
        <ele>610</ele>
        <time>2019-06-25T07:47:40Z</time>
      </trkpt>
      <trkpt lat="44.36382" lon="5.88892">
        <ele>610</ele>
        <time>2019-06-25T07:47:41Z</time>
      </trkpt>
      <trkpt lat="44.36386" lon="5.88901">
        <ele>610</ele>
        <time>2019-06-25T07:47:42Z</time>
      </trkpt>
      <trkpt lat="44.3639" lon="5.8891">
        <ele>610</ele>
        <time>2019-06-25T07:47:43Z</time>
      </trkpt>
      <trkpt lat="44.36393" lon="5.8892">
        <ele>610</ele>
        <time>2019-06-25T07:47:44Z</time>
      </trkpt>
      <trkpt lat="44.36397" lon="5.88931">
        <ele>610</ele>
        <time>2019-06-25T07:47:46Z</time>
      </trkpt>
      <trkpt lat="44.36401" lon="5.8894">
        <ele>610</ele>
        <time>2019-06-25T07:47:46Z</time>
      </trkpt>
      <trkpt lat="44.36405" lon="5.8895">
        <ele>610</ele>
        <time>2019-06-25T07:47:47Z</time>
      </trkpt>
      <trkpt lat="44.36408" lon="5.8896">
        <ele>610</ele>
        <time>2019-06-25T07:47:48Z</time>
      </trkpt>
      <trkpt lat="44.36412" lon="5.8897">
        <ele>610</ele>
        <time>2019-06-25T07:47:49Z</time>
      </trkpt>
      <trkpt lat="44.36414" lon="5.8898">
        <ele>610</ele>
        <time>2019-06-25T07:47:50Z</time>
      </trkpt>
      <trkpt lat="44.36419" lon="5.88988">
        <ele>610</ele>
        <time>2019-06-25T07:47:51Z</time>
      </trkpt>
      <trkpt lat="44.36423" lon="5.88996">
        <ele>610</ele>
        <time>2019-06-25T07:47:52Z</time>
      </trkpt>
      <trkpt lat="44.36427" lon="5.89004">
        <ele>610</ele>
        <time>2019-06-25T07:47:53Z</time>
      </trkpt>
      <trkpt lat="44.3643" lon="5.89012">
        <ele>610</ele>
        <time>2019-06-25T07:47:54Z</time>
      </trkpt>
      <trkpt lat="44.36433" lon="5.8902">
        <ele>610</ele>
        <time>2019-06-25T07:47:55Z</time>
      </trkpt>
      <trkpt lat="44.36436" lon="5.89028">
        <ele>610</ele>
        <time>2019-06-25T07:47:56Z</time>
      </trkpt>
      <trkpt lat="44.36439" lon="5.89036">
        <ele>610</ele>
        <time>2019-06-25T07:47:57Z</time>
      </trkpt>
      <trkpt lat="44.36442" lon="5.89044">
        <ele>610</ele>
        <time>2019-06-25T07:47:58Z</time>
      </trkpt>
      <trkpt lat="44.36445" lon="5.89052">
        <ele>610</ele>
        <time>2019-06-25T07:47:59Z</time>
      </trkpt>
      <trkpt lat="44.36449" lon="5.89061">
        <ele>610</ele>
        <time>2019-06-25T07:48:00Z</time>
      </trkpt>
      <trkpt lat="44.36452" lon="5.8907">
        <ele>610</ele>
        <time>2019-06-25T07:48:01Z</time>
      </trkpt>
      <trkpt lat="44.36456" lon="5.89079">
        <ele>610</ele>
        <time>2019-06-25T07:48:02Z</time>
      </trkpt>
      <trkpt lat="44.36459" lon="5.89089">
        <ele>610</ele>
        <time>2019-06-25T07:48:03Z</time>
      </trkpt>
      <trkpt lat="44.36463" lon="5.89099">
        <ele>610</ele>
        <time>2019-06-25T07:48:04Z</time>
      </trkpt>
      <trkpt lat="44.36467" lon="5.8911">
        <ele>610</ele>
        <time>2019-06-25T07:48:05Z</time>
      </trkpt>
      <trkpt lat="44.3647" lon="5.8912">
        <ele>610</ele>
        <time>2019-06-25T07:48:06Z</time>
      </trkpt>
      <trkpt lat="44.36474" lon="5.8913">
        <ele>610</ele>
        <time>2019-06-25T07:48:07Z</time>
      </trkpt>
      <trkpt lat="44.36478" lon="5.8914">
        <ele>609</ele>
        <time>2019-06-25T07:48:08Z</time>
      </trkpt>
      <trkpt lat="44.36482" lon="5.8915">
        <ele>608</ele>
        <time>2019-06-25T07:48:09Z</time>
      </trkpt>
      <trkpt lat="44.36486" lon="5.89161">
        <ele>608</ele>
        <time>2019-06-25T07:48:11Z</time>
      </trkpt>
      <trkpt lat="44.36489" lon="5.89171">
        <ele>608</ele>
        <time>2019-06-25T07:48:11Z</time>
      </trkpt>
      <trkpt lat="44.36493" lon="5.8918">
        <ele>608</ele>
        <time>2019-06-25T07:48:12Z</time>
      </trkpt>
      <trkpt lat="44.36497" lon="5.8919">
        <ele>608</ele>
        <time>2019-06-25T07:48:13Z</time>
      </trkpt>
      <trkpt lat="44.365" lon="5.892">
        <ele>608</ele>
        <time>2019-06-25T07:48:14Z</time>
      </trkpt>
      <trkpt lat="44.36504" lon="5.8921">
        <ele>607</ele>
        <time>2019-06-25T07:48:15Z</time>
      </trkpt>
      <trkpt lat="44.36508" lon="5.89219">
        <ele>607</ele>
        <time>2019-06-25T07:48:16Z</time>
      </trkpt>
      <trkpt lat="44.36512" lon="5.89229">
        <ele>607</ele>
        <time>2019-06-25T07:48:17Z</time>
      </trkpt>
      <trkpt lat="44.36516" lon="5.89239">
        <ele>606</ele>
        <time>2019-06-25T07:48:18Z</time>
      </trkpt>
      <trkpt lat="44.3652" lon="5.89249">
        <ele>606</ele>
        <time>2019-06-25T07:48:19Z</time>
      </trkpt>
      <trkpt lat="44.36524" lon="5.89259">
        <ele>605</ele>
        <time>2019-06-25T07:48:20Z</time>
      </trkpt>
      <trkpt lat="44.36527" lon="5.8927">
        <ele>605</ele>
        <time>2019-06-25T07:48:21Z</time>
      </trkpt>
      <trkpt lat="44.36531" lon="5.89282">
        <ele>604</ele>
        <time>2019-06-25T07:48:22Z</time>
      </trkpt>
      <trkpt lat="44.36534" lon="5.89294">
        <ele>603</ele>
        <time>2019-06-25T07:48:23Z</time>
      </trkpt>
      <trkpt lat="44.36538" lon="5.89306">
        <ele>602</ele>
        <time>2019-06-25T07:48:24Z</time>
      </trkpt>
      <trkpt lat="44.36542" lon="5.89319">
        <ele>602</ele>
        <time>2019-06-25T07:48:25Z</time>
      </trkpt>
      <trkpt lat="44.36545" lon="5.89332">
        <ele>601</ele>
        <time>2019-06-25T07:48:26Z</time>
      </trkpt>
      <trkpt lat="44.36547" lon="5.89345">
        <ele>600</ele>
        <time>2019-06-25T07:48:27Z</time>
      </trkpt>
      <trkpt lat="44.36549" lon="5.89358">
        <ele>599</ele>
        <time>2019-06-25T07:48:28Z</time>
      </trkpt>
      <trkpt lat="44.36551" lon="5.89371">
        <ele>599</ele>
        <time>2019-06-25T07:48:29Z</time>
      </trkpt>
      <trkpt lat="44.36552" lon="5.89382">
        <ele>599</ele>
        <time>2019-06-25T07:48:30Z</time>
      </trkpt>
      <trkpt lat="44.36552" lon="5.89392">
        <ele>599</ele>
        <time>2019-06-25T07:48:31Z</time>
      </trkpt>
      <trkpt lat="44.36554" lon="5.89403">
        <ele>599</ele>
        <time>2019-06-25T07:48:33Z</time>
      </trkpt>
      <trkpt lat="44.36557" lon="5.89413">
        <ele>599</ele>
        <time>2019-06-25T07:48:33Z</time>
      </trkpt>
      <trkpt lat="44.3656" lon="5.89422">
        <ele>599</ele>
        <time>2019-06-25T07:48:34Z</time>
      </trkpt>
      <trkpt lat="44.36564" lon="5.89431">
        <ele>599</ele>
        <time>2019-06-25T07:48:35Z</time>
      </trkpt>
      <trkpt lat="44.36567" lon="5.8944">
        <ele>599</ele>
        <time>2019-06-25T07:48:36Z</time>
      </trkpt>
      <trkpt lat="44.36571" lon="5.89449">
        <ele>599</ele>
        <time>2019-06-25T07:48:37Z</time>
      </trkpt>
      <trkpt lat="44.36575" lon="5.89457">
        <ele>599</ele>
        <time>2019-06-25T07:48:38Z</time>
      </trkpt>
      <trkpt lat="44.36578" lon="5.89464">
        <ele>599</ele>
        <time>2019-06-25T07:48:39Z</time>
      </trkpt>
      <trkpt lat="44.36583" lon="5.89471">
        <ele>599</ele>
        <time>2019-06-25T07:48:40Z</time>
      </trkpt>
      <trkpt lat="44.36587" lon="5.89478">
        <ele>599</ele>
        <time>2019-06-25T07:48:41Z</time>
      </trkpt>
      <trkpt lat="44.36592" lon="5.89486">
        <ele>599</ele>
        <time>2019-06-25T07:48:42Z</time>
      </trkpt>
      <trkpt lat="44.36597" lon="5.89492">
        <ele>599</ele>
        <time>2019-06-25T07:48:43Z</time>
      </trkpt>
      <trkpt lat="44.36601" lon="5.89499">
        <ele>599</ele>
        <time>2019-06-25T07:48:44Z</time>
      </trkpt>
      <trkpt lat="44.36605" lon="5.89506">
        <ele>599</ele>
        <time>2019-06-25T07:48:45Z</time>
      </trkpt>
      <trkpt lat="44.3661" lon="5.89514">
        <ele>599</ele>
        <time>2019-06-25T07:48:46Z</time>
      </trkpt>
      <trkpt lat="44.36615" lon="5.8952">
        <ele>599</ele>
        <time>2019-06-25T07:48:47Z</time>
      </trkpt>
      <trkpt lat="44.36619" lon="5.89528">
        <ele>599</ele>
        <time>2019-06-25T07:48:48Z</time>
      </trkpt>
      <trkpt lat="44.36623" lon="5.89535">
        <ele>599</ele>
        <time>2019-06-25T07:48:49Z</time>
      </trkpt>
      <trkpt lat="44.36628" lon="5.89542">
        <ele>599</ele>
        <time>2019-06-25T07:48:50Z</time>
      </trkpt>
      <trkpt lat="44.36633" lon="5.8955">
        <ele>599</ele>
        <time>2019-06-25T07:48:51Z</time>
      </trkpt>
      <trkpt lat="44.36637" lon="5.89558">
        <ele>599</ele>
        <time>2019-06-25T07:48:52Z</time>
      </trkpt>
      <trkpt lat="44.36642" lon="5.89566">
        <ele>599</ele>
        <time>2019-06-25T07:48:53Z</time>
      </trkpt>
      <trkpt lat="44.36648" lon="5.89573">
        <ele>599</ele>
        <time>2019-06-25T07:48:54Z</time>
      </trkpt>
      <trkpt lat="44.36652" lon="5.8958">
        <ele>599</ele>
        <time>2019-06-25T07:48:55Z</time>
      </trkpt>
      <trkpt lat="44.36657" lon="5.89587">
        <ele>599</ele>
        <time>2019-06-25T07:48:56Z</time>
      </trkpt>
      <trkpt lat="44.36662" lon="5.89595">
        <ele>599</ele>
        <time>2019-06-25T07:48:57Z</time>
      </trkpt>
      <trkpt lat="44.36666" lon="5.89602">
        <ele>599</ele>
        <time>2019-06-25T07:48:58Z</time>
      </trkpt>
      <trkpt lat="44.3667" lon="5.89608">
        <ele>599</ele>
        <time>2019-06-25T07:48:59Z</time>
      </trkpt>
      <trkpt lat="44.36674" lon="5.89614">
        <ele>599</ele>
        <time>2019-06-25T07:49:00Z</time>
      </trkpt>
      <trkpt lat="44.36678" lon="5.8962">
        <ele>599</ele>
        <time>2019-06-25T07:49:01Z</time>
      </trkpt>
      <trkpt lat="44.36681" lon="5.89626">
        <ele>599</ele>
        <time>2019-06-25T07:49:02Z</time>
      </trkpt>
      <trkpt lat="44.36685" lon="5.89632">
        <ele>599</ele>
        <time>2019-06-25T07:49:03Z</time>
      </trkpt>
      <trkpt lat="44.36689" lon="5.89638">
        <ele>599</ele>
        <time>2019-06-25T07:49:04Z</time>
      </trkpt>
      <trkpt lat="44.36693" lon="5.89644">
        <ele>599</ele>
        <time>2019-06-25T07:49:05Z</time>
      </trkpt>
      <trkpt lat="44.36696" lon="5.89649">
        <ele>599</ele>
        <time>2019-06-25T07:49:06Z</time>
      </trkpt>
      <trkpt lat="44.367" lon="5.89655">
        <ele>599</ele>
        <time>2019-06-25T07:49:07Z</time>
      </trkpt>
      <trkpt lat="44.36703" lon="5.89661">
        <ele>599</ele>
        <time>2019-06-25T07:49:08Z</time>
      </trkpt>
      <trkpt lat="44.36707" lon="5.89667">
        <ele>599</ele>
        <time>2019-06-25T07:49:09Z</time>
      </trkpt>
      <trkpt lat="44.36711" lon="5.89672">
        <ele>599</ele>
        <time>2019-06-25T07:49:10Z</time>
      </trkpt>
      <trkpt lat="44.36715" lon="5.89678">
        <ele>599</ele>
        <time>2019-06-25T07:49:11Z</time>
      </trkpt>
      <trkpt lat="44.36719" lon="5.89684">
        <ele>599</ele>
        <time>2019-06-25T07:49:12Z</time>
      </trkpt>
      <trkpt lat="44.36723" lon="5.8969">
        <ele>599</ele>
        <time>2019-06-25T07:49:13Z</time>
      </trkpt>
      <trkpt lat="44.36726" lon="5.89696">
        <ele>599</ele>
        <time>2019-06-25T07:49:14Z</time>
      </trkpt>
      <trkpt lat="44.3673" lon="5.89702">
        <ele>599</ele>
        <time>2019-06-25T07:49:15Z</time>
      </trkpt>
      <trkpt lat="44.36734" lon="5.89708">
        <ele>599</ele>
        <time>2019-06-25T07:49:16Z</time>
      </trkpt>
      <trkpt lat="44.36738" lon="5.89714">
        <ele>599</ele>
        <time>2019-06-25T07:49:17Z</time>
      </trkpt>
      <trkpt lat="44.36742" lon="5.8972">
        <ele>600</ele>
        <time>2019-06-25T07:49:18Z</time>
      </trkpt>
      <trkpt lat="44.36745" lon="5.89726">
        <ele>600</ele>
        <time>2019-06-25T07:49:19Z</time>
      </trkpt>
      <trkpt lat="44.36749" lon="5.89732">
        <ele>600</ele>
        <time>2019-06-25T07:49:20Z</time>
      </trkpt>
      <trkpt lat="44.36752" lon="5.89738">
        <ele>600</ele>
        <time>2019-06-25T07:49:21Z</time>
      </trkpt>
      <trkpt lat="44.36756" lon="5.89744">
        <ele>601</ele>
        <time>2019-06-25T07:49:22Z</time>
      </trkpt>
      <trkpt lat="44.36759" lon="5.8975">
        <ele>601</ele>
        <time>2019-06-25T07:49:23Z</time>
      </trkpt>
      <trkpt lat="44.36763" lon="5.89755">
        <ele>601</ele>
        <time>2019-06-25T07:49:24Z</time>
      </trkpt>
      <trkpt lat="44.36766" lon="5.89761">
        <ele>601</ele>
        <time>2019-06-25T07:49:25Z</time>
      </trkpt>
      <trkpt lat="44.36769" lon="5.89767">
        <ele>601</ele>
        <time>2019-06-25T07:49:26Z</time>
      </trkpt>
      <trkpt lat="44.36772" lon="5.89773">
        <ele>602</ele>
        <time>2019-06-25T07:49:27Z</time>
      </trkpt>
      <trkpt lat="44.36775" lon="5.89779">
        <ele>602</ele>
        <time>2019-06-25T07:49:28Z</time>
      </trkpt>
      <trkpt lat="44.36778" lon="5.89786">
        <ele>602</ele>
        <time>2019-06-25T07:49:29Z</time>
      </trkpt>
      <trkpt lat="44.36781" lon="5.89793">
        <ele>602</ele>
        <time>2019-06-25T07:49:30Z</time>
      </trkpt>
      <trkpt lat="44.36784" lon="5.898">
        <ele>602</ele>
        <time>2019-06-25T07:49:31Z</time>
      </trkpt>
      <trkpt lat="44.36787" lon="5.89807">
        <ele>602</ele>
        <time>2019-06-25T07:49:33Z</time>
      </trkpt>
      <trkpt lat="44.3679" lon="5.89815">
        <ele>602</ele>
        <time>2019-06-25T07:49:33Z</time>
      </trkpt>
      <trkpt lat="44.36792" lon="5.89823">
        <ele>602</ele>
        <time>2019-06-25T07:49:34Z</time>
      </trkpt>
      <trkpt lat="44.36795" lon="5.89831">
        <ele>602</ele>
        <time>2019-06-25T07:49:35Z</time>
      </trkpt>
      <trkpt lat="44.36798" lon="5.89839">
        <ele>602</ele>
        <time>2019-06-25T07:49:36Z</time>
      </trkpt>
      <trkpt lat="44.36802" lon="5.89847">
        <ele>602</ele>
        <time>2019-06-25T07:49:37Z</time>
      </trkpt>
      <trkpt lat="44.36807" lon="5.89855">
        <ele>602</ele>
        <time>2019-06-25T07:49:38Z</time>
      </trkpt>
      <trkpt lat="44.36812" lon="5.89863">
        <ele>602</ele>
        <time>2019-06-25T07:49:39Z</time>
      </trkpt>
      <trkpt lat="44.36817" lon="5.89872">
        <ele>602</ele>
        <time>2019-06-25T07:49:40Z</time>
      </trkpt>
      <trkpt lat="44.36823" lon="5.8988">
        <ele>602</ele>
        <time>2019-06-25T07:49:41Z</time>
      </trkpt>
      <trkpt lat="44.36829" lon="5.89887">
        <ele>602</ele>
        <time>2019-06-25T07:49:42Z</time>
      </trkpt>
      <trkpt lat="44.36835" lon="5.89894">
        <ele>602</ele>
        <time>2019-06-25T07:49:43Z</time>
      </trkpt>
      <trkpt lat="44.36841" lon="5.89901">
        <ele>602</ele>
        <time>2019-06-25T07:49:44Z</time>
      </trkpt>
      <trkpt lat="44.36847" lon="5.89908">
        <ele>602</ele>
        <time>2019-06-25T07:49:45Z</time>
      </trkpt>
      <trkpt lat="44.36854" lon="5.89913">
        <ele>602</ele>
        <time>2019-06-25T07:49:46Z</time>
      </trkpt>
      <trkpt lat="44.3686" lon="5.89918">
        <ele>602</ele>
        <time>2019-06-25T07:49:47Z</time>
      </trkpt>
      <trkpt lat="44.36866" lon="5.89923">
        <ele>602</ele>
        <time>2019-06-25T07:49:48Z</time>
      </trkpt>
      <trkpt lat="44.36872" lon="5.89927">
        <ele>602</ele>
        <time>2019-06-25T07:49:49Z</time>
      </trkpt>
      <trkpt lat="44.36877" lon="5.8993">
        <ele>602</ele>
        <time>2019-06-25T07:49:50Z</time>
      </trkpt>
      <trkpt lat="44.36883" lon="5.89934">
        <ele>602</ele>
        <time>2019-06-25T07:49:51Z</time>
      </trkpt>
      <trkpt lat="44.36888" lon="5.89937">
        <ele>602</ele>
        <time>2019-06-25T07:49:52Z</time>
      </trkpt>
      <trkpt lat="44.36893" lon="5.8994">
        <ele>602</ele>
        <time>2019-06-25T07:49:53Z</time>
      </trkpt>
      <trkpt lat="44.36898" lon="5.89944">
        <ele>602</ele>
        <time>2019-06-25T07:49:54Z</time>
      </trkpt>
      <trkpt lat="44.36903" lon="5.89947">
        <ele>602</ele>
        <time>2019-06-25T07:49:55Z</time>
      </trkpt>
      <trkpt lat="44.36908" lon="5.89949">
        <ele>602</ele>
        <time>2019-06-25T07:49:56Z</time>
      </trkpt>
      <trkpt lat="44.36912" lon="5.89952">
        <ele>602</ele>
        <time>2019-06-25T07:49:57Z</time>
      </trkpt>
      <trkpt lat="44.36917" lon="5.89955">
        <ele>602</ele>
        <time>2019-06-25T07:49:58Z</time>
      </trkpt>
      <trkpt lat="44.36922" lon="5.89957">
        <ele>602</ele>
        <time>2019-06-25T07:49:59Z</time>
      </trkpt>
      <trkpt lat="44.36927" lon="5.89959">
        <ele>602</ele>
        <time>2019-06-25T07:50:00Z</time>
      </trkpt>
      <trkpt lat="44.36932" lon="5.89962">
        <ele>602</ele>
        <time>2019-06-25T07:50:01Z</time>
      </trkpt>
      <trkpt lat="44.36937" lon="5.89965">
        <ele>602</ele>
        <time>2019-06-25T07:50:02Z</time>
      </trkpt>
      <trkpt lat="44.36942" lon="5.89968">
        <ele>602</ele>
        <time>2019-06-25T07:50:03Z</time>
      </trkpt>
      <trkpt lat="44.36946" lon="5.89972">
        <ele>602</ele>
        <time>2019-06-25T07:50:04Z</time>
      </trkpt>
      <trkpt lat="44.36951" lon="5.89975">
        <ele>602</ele>
        <time>2019-06-25T07:50:05Z</time>
      </trkpt>
      <trkpt lat="44.36956" lon="5.89978">
        <ele>602</ele>
        <time>2019-06-25T07:50:06Z</time>
      </trkpt>
      <trkpt lat="44.3696" lon="5.89981">
        <ele>602</ele>
        <time>2019-06-25T07:50:07Z</time>
      </trkpt>
      <trkpt lat="44.36964" lon="5.89983">
        <ele>602</ele>
        <time>2019-06-25T07:50:08Z</time>
      </trkpt>
      <trkpt lat="44.36968" lon="5.89985">
        <ele>602</ele>
        <time>2019-06-25T07:50:09Z</time>
      </trkpt>
      <trkpt lat="44.36972" lon="5.89987">
        <ele>602</ele>
        <time>2019-06-25T07:50:10Z</time>
      </trkpt>
      <trkpt lat="44.36976" lon="5.89989">
        <ele>602</ele>
        <time>2019-06-25T07:50:11Z</time>
      </trkpt>
      <trkpt lat="44.3698" lon="5.8999">
        <ele>602</ele>
        <time>2019-06-25T07:50:12Z</time>
      </trkpt>
      <trkpt lat="44.36983" lon="5.89992">
        <ele>602</ele>
        <time>2019-06-25T07:50:13Z</time>
      </trkpt>
      <trkpt lat="44.36987" lon="5.89993">
        <ele>602</ele>
        <time>2019-06-25T07:50:14Z</time>
      </trkpt>
      <trkpt lat="44.3699" lon="5.89995">
        <ele>603</ele>
        <time>2019-06-25T07:50:15Z</time>
      </trkpt>
      <trkpt lat="44.36994" lon="5.89997">
        <ele>603</ele>
        <time>2019-06-25T07:50:16Z</time>
      </trkpt>
      <trkpt lat="44.36998" lon="5.89999">
        <ele>603</ele>
        <time>2019-06-25T07:50:17Z</time>
      </trkpt>
      <trkpt lat="44.37001" lon="5.9">
        <ele>603</ele>
        <time>2019-06-25T07:50:18Z</time>
      </trkpt>
      <trkpt lat="44.37006" lon="5.90002">
        <ele>603</ele>
        <time>2019-06-25T07:50:19Z</time>
      </trkpt>
      <trkpt lat="44.3701" lon="5.90004">
        <ele>603</ele>
        <time>2019-06-25T07:50:20Z</time>
      </trkpt>
      <trkpt lat="44.37014" lon="5.90006">
        <ele>603</ele>
        <time>2019-06-25T07:50:21Z</time>
      </trkpt>
      <trkpt lat="44.37019" lon="5.90007">
        <ele>603</ele>
        <time>2019-06-25T07:50:22Z</time>
      </trkpt>
      <trkpt lat="44.37023" lon="5.90008">
        <ele>603</ele>
        <time>2019-06-25T07:50:23Z</time>
      </trkpt>
      <trkpt lat="44.37027" lon="5.90009">
        <ele>603</ele>
        <time>2019-06-25T07:50:24Z</time>
      </trkpt>
      <trkpt lat="44.37032" lon="5.90011">
        <ele>603</ele>
        <time>2019-06-25T07:50:25Z</time>
      </trkpt>
      <trkpt lat="44.37036" lon="5.90012">
        <ele>603</ele>
        <time>2019-06-25T07:50:26Z</time>
      </trkpt>
      <trkpt lat="44.37041" lon="5.90013">
        <ele>603</ele>
        <time>2019-06-25T07:50:27Z</time>
      </trkpt>
      <trkpt lat="44.37047" lon="5.90014">
        <ele>603</ele>
        <time>2019-06-25T07:50:28Z</time>
      </trkpt>
      <trkpt lat="44.37052" lon="5.90014">
        <ele>603</ele>
        <time>2019-06-25T07:50:29Z</time>
      </trkpt>
      <trkpt lat="44.37057" lon="5.90013">
        <ele>603</ele>
        <time>2019-06-25T07:50:30Z</time>
      </trkpt>
      <trkpt lat="44.37063" lon="5.90011">
        <ele>603</ele>
        <time>2019-06-25T07:50:31Z</time>
      </trkpt>
      <trkpt lat="44.37069" lon="5.90009">
        <ele>603</ele>
        <time>2019-06-25T07:50:33Z</time>
      </trkpt>
      <trkpt lat="44.37076" lon="5.90006">
        <ele>603</ele>
        <time>2019-06-25T07:50:33Z</time>
      </trkpt>
      <trkpt lat="44.37082" lon="5.90002">
        <ele>603</ele>
        <time>2019-06-25T07:50:34Z</time>
      </trkpt>
      <trkpt lat="44.37089" lon="5.89998">
        <ele>603</ele>
        <time>2019-06-25T07:50:35Z</time>
      </trkpt>
      <trkpt lat="44.37095" lon="5.89992">
        <ele>603</ele>
        <time>2019-06-25T07:50:36Z</time>
      </trkpt>
      <trkpt lat="44.37101" lon="5.89984">
        <ele>603</ele>
        <time>2019-06-25T07:50:37Z</time>
      </trkpt>
      <trkpt lat="44.37106" lon="5.89977">
        <ele>603</ele>
        <time>2019-06-25T07:50:38Z</time>
      </trkpt>
      <trkpt lat="44.37112" lon="5.89969">
        <ele>603</ele>
        <time>2019-06-25T07:50:39Z</time>
      </trkpt>
      <trkpt lat="44.37119" lon="5.89961">
        <ele>603</ele>
        <time>2019-06-25T07:50:40Z</time>
      </trkpt>
      <trkpt lat="44.37126" lon="5.89955">
        <ele>603</ele>
        <time>2019-06-25T07:50:41Z</time>
      </trkpt>
      <trkpt lat="44.37133" lon="5.89951">
        <ele>603</ele>
        <time>2019-06-25T07:50:42Z</time>
      </trkpt>
      <trkpt lat="44.37141" lon="5.89948">
        <ele>603</ele>
        <time>2019-06-25T07:50:43Z</time>
      </trkpt>
      <trkpt lat="44.3715" lon="5.89947">
        <ele>603</ele>
        <time>2019-06-25T07:50:44Z</time>
      </trkpt>
      <trkpt lat="44.37157" lon="5.89948">
        <ele>603</ele>
        <time>2019-06-25T07:50:45Z</time>
      </trkpt>
      <trkpt lat="44.37165" lon="5.89951">
        <ele>603</ele>
        <time>2019-06-25T07:50:46Z</time>
      </trkpt>
      <trkpt lat="44.37172" lon="5.89955">
        <ele>602</ele>
        <time>2019-06-25T07:50:47Z</time>
      </trkpt>
      <trkpt lat="44.37178" lon="5.8996">
        <ele>602</ele>
        <time>2019-06-25T07:50:48Z</time>
      </trkpt>
      <trkpt lat="44.37184" lon="5.89963">
        <ele>602</ele>
        <time>2019-06-25T07:50:49Z</time>
      </trkpt>
      <trkpt lat="44.37189" lon="5.89965">
        <ele>602</ele>
        <time>2019-06-25T07:50:50Z</time>
      </trkpt>
      <trkpt lat="44.37193" lon="5.89964">
        <ele>602</ele>
        <time>2019-06-25T07:50:51Z</time>
      </trkpt>
      <trkpt lat="44.37196" lon="5.89961">
        <ele>602</ele>
        <time>2019-06-25T07:50:52Z</time>
      </trkpt>
      <trkpt lat="44.37197" lon="5.89959">
        <ele>602</ele>
        <time>2019-06-25T07:50:53Z</time>
      </trkpt>
      <trkpt lat="44.37197" lon="5.89957">
        <ele>602</ele>
        <time>2019-06-25T07:50:54Z</time>
      </trkpt>
      <trkpt lat="44.37195" lon="5.89957">
        <ele>602</ele>
        <time>2019-06-25T07:50:56Z</time>
      </trkpt>
      <trkpt lat="44.37194" lon="5.89958">
        <ele>602</ele>
        <time>2019-06-25T07:50:57Z</time>
      </trkpt>
      <trkpt lat="44.37194" lon="5.89961">
        <ele>602</ele>
        <time>2019-06-25T07:50:59Z</time>
      </trkpt>
      <trkpt lat="44.37194" lon="5.89963">
        <ele>602</ele>
        <time>2019-06-25T07:51:00Z</time>
      </trkpt>
      <trkpt lat="44.37194" lon="5.89965">
        <ele>602</ele>
        <time>2019-06-25T07:51:01Z</time>
      </trkpt>
      <trkpt lat="44.37194" lon="5.89967">
        <ele>602</ele>
        <time>2019-06-25T07:51:02Z</time>
      </trkpt>
      <trkpt lat="44.37193" lon="5.8997">
        <ele>602</ele>
        <time>2019-06-25T07:51:03Z</time>
      </trkpt>
      <trkpt lat="44.37193" lon="5.89974">
        <ele>602</ele>
        <time>2019-06-25T07:51:04Z</time>
      </trkpt>
      <trkpt lat="44.37193" lon="5.89978">
        <ele>602</ele>
        <time>2019-06-25T07:51:05Z</time>
      </trkpt>
      <trkpt lat="44.37195" lon="5.89981">
        <ele>602</ele>
        <time>2019-06-25T07:51:06Z</time>
      </trkpt>
      <trkpt lat="44.37197" lon="5.89985">
        <ele>602</ele>
        <time>2019-06-25T07:51:07Z</time>
      </trkpt>
      <trkpt lat="44.372" lon="5.89989">
        <ele>602</ele>
        <time>2019-06-25T07:51:08Z</time>
      </trkpt>
      <trkpt lat="44.37202" lon="5.89992">
        <ele>602</ele>
        <time>2019-06-25T07:51:09Z</time>
      </trkpt>
      <trkpt lat="44.37206" lon="5.89996">
        <ele>602</ele>
        <time>2019-06-25T07:51:10Z</time>
      </trkpt>
      <trkpt lat="44.37209" lon="5.9">
        <ele>602</ele>
        <time>2019-06-25T07:51:11Z</time>
      </trkpt>
      <trkpt lat="44.37212" lon="5.90004">
        <ele>602</ele>
        <time>2019-06-25T07:51:12Z</time>
      </trkpt>
      <trkpt lat="44.37215" lon="5.90009">
        <ele>602</ele>
        <time>2019-06-25T07:51:13Z</time>
      </trkpt>
      <trkpt lat="44.37219" lon="5.90014">
        <ele>602</ele>
        <time>2019-06-25T07:51:14Z</time>
      </trkpt>
      <trkpt lat="44.37222" lon="5.90018">
        <ele>602</ele>
        <time>2019-06-25T07:51:15Z</time>
      </trkpt>
      <trkpt lat="44.37225" lon="5.90023">
        <ele>602</ele>
        <time>2019-06-25T07:51:16Z</time>
      </trkpt>
      <trkpt lat="44.37229" lon="5.90027">
        <ele>602</ele>
        <time>2019-06-25T07:51:17Z</time>
      </trkpt>
      <trkpt lat="44.37232" lon="5.90032">
        <ele>602</ele>
        <time>2019-06-25T07:51:18Z</time>
      </trkpt>
      <trkpt lat="44.37235" lon="5.90036">
        <ele>602</ele>
        <time>2019-06-25T07:51:19Z</time>
      </trkpt>
      <trkpt lat="44.37238" lon="5.90041">
        <ele>602</ele>
        <time>2019-06-25T07:51:20Z</time>
      </trkpt>
      <trkpt lat="44.37241" lon="5.90046">
        <ele>602</ele>
        <time>2019-06-25T07:51:21Z</time>
      </trkpt>
      <trkpt lat="44.37244" lon="5.90051">
        <ele>602</ele>
        <time>2019-06-25T07:51:22Z</time>
      </trkpt>
      <trkpt lat="44.37247" lon="5.90056">
        <ele>602</ele>
        <time>2019-06-25T07:51:23Z</time>
      </trkpt>
      <trkpt lat="44.3725" lon="5.90061">
        <ele>602</ele>
        <time>2019-06-25T07:51:24Z</time>
      </trkpt>
      <trkpt lat="44.37253" lon="5.90066">
        <ele>602</ele>
        <time>2019-06-25T07:51:25Z</time>
      </trkpt>
      <trkpt lat="44.37257" lon="5.9007">
        <ele>602</ele>
        <time>2019-06-25T07:51:26Z</time>
      </trkpt>
      <trkpt lat="44.3726" lon="5.90075">
        <ele>602</ele>
        <time>2019-06-25T07:51:27Z</time>
      </trkpt>
      <trkpt lat="44.37263" lon="5.9008">
        <ele>602</ele>
        <time>2019-06-25T07:51:28Z</time>
      </trkpt>
      <trkpt lat="44.37267" lon="5.90085">
        <ele>602</ele>
        <time>2019-06-25T07:51:29Z</time>
      </trkpt>
      <trkpt lat="44.3727" lon="5.90089">
        <ele>602</ele>
        <time>2019-06-25T07:51:30Z</time>
      </trkpt>
      <trkpt lat="44.37274" lon="5.90094">
        <ele>602</ele>
        <time>2019-06-25T07:51:31Z</time>
      </trkpt>
      <trkpt lat="44.37278" lon="5.90099">
        <ele>602</ele>
        <time>2019-06-25T07:51:32Z</time>
      </trkpt>
      <trkpt lat="44.37281" lon="5.90104">
        <ele>602</ele>
        <time>2019-06-25T07:51:33Z</time>
      </trkpt>
      <trkpt lat="44.37285" lon="5.90108">
        <ele>602</ele>
        <time>2019-06-25T07:51:34Z</time>
      </trkpt>
      <trkpt lat="44.37288" lon="5.90113">
        <ele>602</ele>
        <time>2019-06-25T07:51:35Z</time>
      </trkpt>
      <trkpt lat="44.37291" lon="5.90117">
        <ele>602</ele>
        <time>2019-06-25T07:51:36Z</time>
      </trkpt>
      <trkpt lat="44.37294" lon="5.90122">
        <ele>602</ele>
        <time>2019-06-25T07:51:37Z</time>
      </trkpt>
      <trkpt lat="44.37298" lon="5.90126">
        <ele>602</ele>
        <time>2019-06-25T07:51:38Z</time>
      </trkpt>
      <trkpt lat="44.37301" lon="5.9013">
        <ele>602</ele>
        <time>2019-06-25T07:51:39Z</time>
      </trkpt>
      <trkpt lat="44.37304" lon="5.90135">
        <ele>602</ele>
        <time>2019-06-25T07:51:40Z</time>
      </trkpt>
      <trkpt lat="44.37308" lon="5.90139">
        <ele>602</ele>
        <time>2019-06-25T07:51:41Z</time>
      </trkpt>
      <trkpt lat="44.37311" lon="5.90144">
        <ele>602</ele>
        <time>2019-06-25T07:51:42Z</time>
      </trkpt>
      <trkpt lat="44.37314" lon="5.90148">
        <ele>602</ele>
        <time>2019-06-25T07:51:43Z</time>
      </trkpt>
      <trkpt lat="44.37318" lon="5.90152">
        <ele>602</ele>
        <time>2019-06-25T07:51:44Z</time>
      </trkpt>
      <trkpt lat="44.37321" lon="5.90157">
        <ele>602</ele>
        <time>2019-06-25T07:51:45Z</time>
      </trkpt>
      <trkpt lat="44.37324" lon="5.90161">
        <ele>602</ele>
        <time>2019-06-25T07:51:46Z</time>
      </trkpt>
      <trkpt lat="44.37328" lon="5.90165">
        <ele>602</ele>
        <time>2019-06-25T07:51:47Z</time>
      </trkpt>
      <trkpt lat="44.37331" lon="5.90169">
        <ele>602</ele>
        <time>2019-06-25T07:51:48Z</time>
      </trkpt>
      <trkpt lat="44.37334" lon="5.90173">
        <ele>602</ele>
        <time>2019-06-25T07:51:49Z</time>
      </trkpt>
      <trkpt lat="44.37337" lon="5.90177">
        <ele>602</ele>
        <time>2019-06-25T07:51:50Z</time>
      </trkpt>
      <trkpt lat="44.37341" lon="5.90181">
        <ele>602</ele>
        <time>2019-06-25T07:51:51Z</time>
      </trkpt>
      <trkpt lat="44.37344" lon="5.90185">
        <ele>602</ele>
        <time>2019-06-25T07:51:52Z</time>
      </trkpt>
      <trkpt lat="44.37347" lon="5.90189">
        <ele>602</ele>
        <time>2019-06-25T07:51:53Z</time>
      </trkpt>
      <trkpt lat="44.3735" lon="5.90193">
        <ele>602</ele>
        <time>2019-06-25T07:51:54Z</time>
      </trkpt>
      <trkpt lat="44.37353" lon="5.90197">
        <ele>602</ele>
        <time>2019-06-25T07:51:55Z</time>
      </trkpt>
      <trkpt lat="44.37356" lon="5.90201">
        <ele>602</ele>
        <time>2019-06-25T07:51:56Z</time>
      </trkpt>
      <trkpt lat="44.37359" lon="5.90205">
        <ele>602</ele>
        <time>2019-06-25T07:51:57Z</time>
      </trkpt>
      <trkpt lat="44.37362" lon="5.90209">
        <ele>602</ele>
        <time>2019-06-25T07:51:58Z</time>
      </trkpt>
      <trkpt lat="44.37365" lon="5.90213">
        <ele>602</ele>
        <time>2019-06-25T07:51:59Z</time>
      </trkpt>
      <trkpt lat="44.37369" lon="5.90217">
        <ele>602</ele>
        <time>2019-06-25T07:52:00Z</time>
      </trkpt>
      <trkpt lat="44.37372" lon="5.90221">
        <ele>602</ele>
        <time>2019-06-25T07:52:01Z</time>
      </trkpt>
      <trkpt lat="44.37375" lon="5.90225">
        <ele>602</ele>
        <time>2019-06-25T07:52:02Z</time>
      </trkpt>
      <trkpt lat="44.37378" lon="5.90229">
        <ele>602</ele>
        <time>2019-06-25T07:52:03Z</time>
      </trkpt>
      <trkpt lat="44.37381" lon="5.90233">
        <ele>602</ele>
        <time>2019-06-25T07:52:04Z</time>
      </trkpt>
      <trkpt lat="44.37385" lon="5.90237">
        <ele>603</ele>
        <time>2019-06-25T07:52:05Z</time>
      </trkpt>
      <trkpt lat="44.37388" lon="5.90241">
        <ele>603</ele>
        <time>2019-06-25T07:52:06Z</time>
      </trkpt>
      <trkpt lat="44.37391" lon="5.90245">
        <ele>603</ele>
        <time>2019-06-25T07:52:07Z</time>
      </trkpt>
      <trkpt lat="44.37394" lon="5.90249">
        <ele>603</ele>
        <time>2019-06-25T07:52:08Z</time>
      </trkpt>
      <trkpt lat="44.37398" lon="5.90253">
        <ele>604</ele>
        <time>2019-06-25T07:52:09Z</time>
      </trkpt>
      <trkpt lat="44.37401" lon="5.90257">
        <ele>604</ele>
        <time>2019-06-25T07:52:10Z</time>
      </trkpt>
      <trkpt lat="44.37405" lon="5.90261">
        <ele>604</ele>
        <time>2019-06-25T07:52:11Z</time>
      </trkpt>
      <trkpt lat="44.37408" lon="5.90265">
        <ele>604</ele>
        <time>2019-06-25T07:52:12Z</time>
      </trkpt>
      <trkpt lat="44.37411" lon="5.90269">
        <ele>604</ele>
        <time>2019-06-25T07:52:13Z</time>
      </trkpt>
      <trkpt lat="44.37415" lon="5.90273">
        <ele>604</ele>
        <time>2019-06-25T07:52:14Z</time>
      </trkpt>
      <trkpt lat="44.37418" lon="5.90276">
        <ele>604</ele>
        <time>2019-06-25T07:52:15Z</time>
      </trkpt>
      <trkpt lat="44.37421" lon="5.9028">
        <ele>604</ele>
        <time>2019-06-25T07:52:16Z</time>
      </trkpt>
      <trkpt lat="44.37424" lon="5.90285">
        <ele>604</ele>
        <time>2019-06-25T07:52:17Z</time>
      </trkpt>
      <trkpt lat="44.37428" lon="5.90289">
        <ele>604</ele>
        <time>2019-06-25T07:52:18Z</time>
      </trkpt>
      <trkpt lat="44.37431" lon="5.90293">
        <ele>604</ele>
        <time>2019-06-25T07:52:19Z</time>
      </trkpt>
      <trkpt lat="44.37434" lon="5.90297">
        <ele>604</ele>
        <time>2019-06-25T07:52:20Z</time>
      </trkpt>
      <trkpt lat="44.37437" lon="5.90302">
        <ele>605</ele>
        <time>2019-06-25T07:52:21Z</time>
      </trkpt>
      <trkpt lat="44.3744" lon="5.90306">
        <ele>605</ele>
        <time>2019-06-25T07:52:22Z</time>
      </trkpt>
      <trkpt lat="44.37443" lon="5.9031">
        <ele>605</ele>
        <time>2019-06-25T07:52:23Z</time>
      </trkpt>
      <trkpt lat="44.37447" lon="5.90314">
        <ele>605</ele>
        <time>2019-06-25T07:52:24Z</time>
      </trkpt>
      <trkpt lat="44.3745" lon="5.90318">
        <ele>605</ele>
        <time>2019-06-25T07:52:25Z</time>
      </trkpt>
      <trkpt lat="44.37453" lon="5.90323">
        <ele>606</ele>
        <time>2019-06-25T07:52:26Z</time>
      </trkpt>
      <trkpt lat="44.37456" lon="5.90326">
        <ele>606</ele>
        <time>2019-06-25T07:52:27Z</time>
      </trkpt>
      <trkpt lat="44.37459" lon="5.90331">
        <ele>606</ele>
        <time>2019-06-25T07:52:28Z</time>
      </trkpt>
      <trkpt lat="44.37462" lon="5.90335">
        <ele>606</ele>
        <time>2019-06-25T07:52:29Z</time>
      </trkpt>
      <trkpt lat="44.37465" lon="5.90339">
        <ele>606</ele>
        <time>2019-06-25T07:52:30Z</time>
      </trkpt>
      <trkpt lat="44.37468" lon="5.90343">
        <ele>607</ele>
        <time>2019-06-25T07:52:31Z</time>
      </trkpt>
      <trkpt lat="44.37472" lon="5.90347">
        <ele>607</ele>
        <time>2019-06-25T07:52:33Z</time>
      </trkpt>
      <trkpt lat="44.37475" lon="5.90351">
        <ele>607</ele>
        <time>2019-06-25T07:52:33Z</time>
      </trkpt>
      <trkpt lat="44.37478" lon="5.90355">
        <ele>607</ele>
        <time>2019-06-25T07:52:34Z</time>
      </trkpt>
      <trkpt lat="44.37481" lon="5.90359">
        <ele>608</ele>
        <time>2019-06-25T07:52:35Z</time>
      </trkpt>
      <trkpt lat="44.37484" lon="5.90364">
        <ele>608</ele>
        <time>2019-06-25T07:52:36Z</time>
      </trkpt>
      <trkpt lat="44.37488" lon="5.90368">
        <ele>608</ele>
        <time>2019-06-25T07:52:37Z</time>
      </trkpt>
      <trkpt lat="44.37491" lon="5.90373">
        <ele>608</ele>
        <time>2019-06-25T07:52:38Z</time>
      </trkpt>
      <trkpt lat="44.37495" lon="5.90377">
        <ele>608</ele>
        <time>2019-06-25T07:52:39Z</time>
      </trkpt>
      <trkpt lat="44.37498" lon="5.90382">
        <ele>608</ele>
        <time>2019-06-25T07:52:40Z</time>
      </trkpt>
      <trkpt lat="44.37502" lon="5.90386">
        <ele>608</ele>
        <time>2019-06-25T07:52:41Z</time>
      </trkpt>
      <trkpt lat="44.37506" lon="5.9039">
        <ele>608</ele>
        <time>2019-06-25T07:52:42Z</time>
      </trkpt>
      <trkpt lat="44.37509" lon="5.90395">
        <ele>608</ele>
        <time>2019-06-25T07:52:43Z</time>
      </trkpt>
      <trkpt lat="44.37513" lon="5.904">
        <ele>608</ele>
        <time>2019-06-25T07:52:44Z</time>
      </trkpt>
      <trkpt lat="44.37516" lon="5.90404">
        <ele>609</ele>
        <time>2019-06-25T07:52:45Z</time>
      </trkpt>
      <trkpt lat="44.3752" lon="5.90409">
        <ele>609</ele>
        <time>2019-06-25T07:52:46Z</time>
      </trkpt>
      <trkpt lat="44.37524" lon="5.90413">
        <ele>609</ele>
        <time>2019-06-25T07:52:47Z</time>
      </trkpt>
      <trkpt lat="44.37527" lon="5.90418">
        <ele>609</ele>
        <time>2019-06-25T07:52:48Z</time>
      </trkpt>
      <trkpt lat="44.37531" lon="5.90422">
        <ele>610</ele>
        <time>2019-06-25T07:52:49Z</time>
      </trkpt>
      <trkpt lat="44.37535" lon="5.90426">
        <ele>610</ele>
        <time>2019-06-25T07:52:50Z</time>
      </trkpt>
      <trkpt lat="44.37538" lon="5.90431">
        <ele>610</ele>
        <time>2019-06-25T07:52:51Z</time>
      </trkpt>
      <trkpt lat="44.37542" lon="5.90436">
        <ele>611</ele>
        <time>2019-06-25T07:52:52Z</time>
      </trkpt>
      <trkpt lat="44.37546" lon="5.9044">
        <ele>611</ele>
        <time>2019-06-25T07:52:53Z</time>
      </trkpt>
      <trkpt lat="44.3755" lon="5.90444">
        <ele>611</ele>
        <time>2019-06-25T07:52:54Z</time>
      </trkpt>
      <trkpt lat="44.37555" lon="5.90448">
        <ele>611</ele>
        <time>2019-06-25T07:52:55Z</time>
      </trkpt>
      <trkpt lat="44.37559" lon="5.90452">
        <ele>612</ele>
        <time>2019-06-25T07:52:56Z</time>
      </trkpt>
      <trkpt lat="44.37564" lon="5.90456">
        <ele>612</ele>
        <time>2019-06-25T07:52:57Z</time>
      </trkpt>
      <trkpt lat="44.37569" lon="5.90459">
        <ele>612</ele>
        <time>2019-06-25T07:52:58Z</time>
      </trkpt>
      <trkpt lat="44.37574" lon="5.90463">
        <ele>612</ele>
        <time>2019-06-25T07:52:59Z</time>
      </trkpt>
      <trkpt lat="44.37579" lon="5.90467">
        <ele>612</ele>
        <time>2019-06-25T07:53:00Z</time>
      </trkpt>
      <trkpt lat="44.37584" lon="5.9047">
        <ele>612</ele>
        <time>2019-06-25T07:53:01Z</time>
      </trkpt>
      <trkpt lat="44.37589" lon="5.90474">
        <ele>612</ele>
        <time>2019-06-25T07:53:02Z</time>
      </trkpt>
      <trkpt lat="44.37594" lon="5.90477">
        <ele>612</ele>
        <time>2019-06-25T07:53:03Z</time>
      </trkpt>
      <trkpt lat="44.37599" lon="5.9048">
        <ele>612</ele>
        <time>2019-06-25T07:53:04Z</time>
      </trkpt>
      <trkpt lat="44.37604" lon="5.90484">
        <ele>612</ele>
        <time>2019-06-25T07:53:05Z</time>
      </trkpt>
      <trkpt lat="44.37609" lon="5.90487">
        <ele>612</ele>
        <time>2019-06-25T07:53:06Z</time>
      </trkpt>
      <trkpt lat="44.37615" lon="5.9049">
        <ele>612</ele>
        <time>2019-06-25T07:53:07Z</time>
      </trkpt>
      <trkpt lat="44.3762" lon="5.90494">
        <ele>612</ele>
        <time>2019-06-25T07:53:08Z</time>
      </trkpt>
      <trkpt lat="44.37626" lon="5.90497">
        <ele>612</ele>
        <time>2019-06-25T07:53:09Z</time>
      </trkpt>
      <trkpt lat="44.37631" lon="5.90501">
        <ele>612</ele>
        <time>2019-06-25T07:53:10Z</time>
      </trkpt>
      <trkpt lat="44.37637" lon="5.90505">
        <ele>612</ele>
        <time>2019-06-25T07:53:11Z</time>
      </trkpt>
      <trkpt lat="44.37642" lon="5.90508">
        <ele>612</ele>
        <time>2019-06-25T07:53:12Z</time>
      </trkpt>
      <trkpt lat="44.37648" lon="5.90511">
        <ele>612</ele>
        <time>2019-06-25T07:53:13Z</time>
      </trkpt>
      <trkpt lat="44.37653" lon="5.90515">
        <ele>612</ele>
        <time>2019-06-25T07:53:14Z</time>
      </trkpt>
      <trkpt lat="44.37658" lon="5.90519">
        <ele>612</ele>
        <time>2019-06-25T07:53:15Z</time>
      </trkpt>
      <trkpt lat="44.37664" lon="5.90522">
        <ele>612</ele>
        <time>2019-06-25T07:53:16Z</time>
      </trkpt>
      <trkpt lat="44.37669" lon="5.90526">
        <ele>613</ele>
        <time>2019-06-25T07:53:17Z</time>
      </trkpt>
      <trkpt lat="44.37675" lon="5.9053">
        <ele>613</ele>
        <time>2019-06-25T07:53:18Z</time>
      </trkpt>
      <trkpt lat="44.3768" lon="5.90534">
        <ele>613</ele>
        <time>2019-06-25T07:53:19Z</time>
      </trkpt>
      <trkpt lat="44.37685" lon="5.90539">
        <ele>613</ele>
        <time>2019-06-25T07:53:20Z</time>
      </trkpt>
      <trkpt lat="44.3769" lon="5.90544">
        <ele>613</ele>
        <time>2019-06-25T07:53:21Z</time>
      </trkpt>
      <trkpt lat="44.37695" lon="5.90548">
        <ele>613</ele>
        <time>2019-06-25T07:53:22Z</time>
      </trkpt>
      <trkpt lat="44.377" lon="5.90554">
        <ele>613</ele>
        <time>2019-06-25T07:53:23Z</time>
      </trkpt>
      <trkpt lat="44.37704" lon="5.90559">
        <ele>613</ele>
        <time>2019-06-25T07:53:24Z</time>
      </trkpt>
      <trkpt lat="44.37709" lon="5.90565">
        <ele>613</ele>
        <time>2019-06-25T07:53:25Z</time>
      </trkpt>
      <trkpt lat="44.37713" lon="5.9057">
        <ele>613</ele>
        <time>2019-06-25T07:53:26Z</time>
      </trkpt>
      <trkpt lat="44.37717" lon="5.90576">
        <ele>613</ele>
        <time>2019-06-25T07:53:27Z</time>
      </trkpt>
      <trkpt lat="44.37721" lon="5.90582">
        <ele>613</ele>
        <time>2019-06-25T07:53:28Z</time>
      </trkpt>
      <trkpt lat="44.37725" lon="5.90589">
        <ele>613</ele>
        <time>2019-06-25T07:53:29Z</time>
      </trkpt>
      <trkpt lat="44.37729" lon="5.90595">
        <ele>613</ele>
        <time>2019-06-25T07:53:30Z</time>
      </trkpt>
      <trkpt lat="44.37733" lon="5.90601">
        <ele>613</ele>
        <time>2019-06-25T07:53:31Z</time>
      </trkpt>
      <trkpt lat="44.37737" lon="5.90608">
        <ele>613</ele>
        <time>2019-06-25T07:53:33Z</time>
      </trkpt>
      <trkpt lat="44.37741" lon="5.90614">
        <ele>613</ele>
        <time>2019-06-25T07:53:33Z</time>
      </trkpt>
      <trkpt lat="44.37746" lon="5.90621">
        <ele>613</ele>
        <time>2019-06-25T07:53:34Z</time>
      </trkpt>
      <trkpt lat="44.3775" lon="5.90627">
        <ele>613</ele>
        <time>2019-06-25T07:53:35Z</time>
      </trkpt>
      <trkpt lat="44.37755" lon="5.90633">
        <ele>613</ele>
        <time>2019-06-25T07:53:36Z</time>
      </trkpt>
      <trkpt lat="44.3776" lon="5.90639">
        <ele>613</ele>
        <time>2019-06-25T07:53:37Z</time>
      </trkpt>
      <trkpt lat="44.37765" lon="5.90645">
        <ele>613</ele>
        <time>2019-06-25T07:53:38Z</time>
      </trkpt>
      <trkpt lat="44.37771" lon="5.9065">
        <ele>613</ele>
        <time>2019-06-25T07:53:39Z</time>
      </trkpt>
      <trkpt lat="44.37776" lon="5.90655">
        <ele>613</ele>
        <time>2019-06-25T07:53:40Z</time>
      </trkpt>
      <trkpt lat="44.37782" lon="5.9066">
        <ele>613</ele>
        <time>2019-06-25T07:53:41Z</time>
      </trkpt>
      <trkpt lat="44.37788" lon="5.90666">
        <ele>613</ele>
        <time>2019-06-25T07:53:42Z</time>
      </trkpt>
      <trkpt lat="44.37793" lon="5.90671">
        <ele>613</ele>
        <time>2019-06-25T07:53:43Z</time>
      </trkpt>
      <trkpt lat="44.37799" lon="5.90676">
        <ele>613</ele>
        <time>2019-06-25T07:53:44Z</time>
      </trkpt>
      <trkpt lat="44.37804" lon="5.90681">
        <ele>613</ele>
        <time>2019-06-25T07:53:45Z</time>
      </trkpt>
      <trkpt lat="44.3781" lon="5.90687">
        <ele>613</ele>
        <time>2019-06-25T07:53:46Z</time>
      </trkpt>
      <trkpt lat="44.37816" lon="5.90692">
        <ele>613</ele>
        <time>2019-06-25T07:53:47Z</time>
      </trkpt>
      <trkpt lat="44.37822" lon="5.90697">
        <ele>613</ele>
        <time>2019-06-25T07:53:48Z</time>
      </trkpt>
      <trkpt lat="44.37827" lon="5.90702">
        <ele>613</ele>
        <time>2019-06-25T07:53:49Z</time>
      </trkpt>
      <trkpt lat="44.37833" lon="5.90708">
        <ele>613</ele>
        <time>2019-06-25T07:53:50Z</time>
      </trkpt>
      <trkpt lat="44.37838" lon="5.90713">
        <ele>613</ele>
        <time>2019-06-25T07:53:51Z</time>
      </trkpt>
      <trkpt lat="44.37843" lon="5.90718">
        <ele>613</ele>
        <time>2019-06-25T07:53:52Z</time>
      </trkpt>
      <trkpt lat="44.37849" lon="5.90723">
        <ele>613</ele>
        <time>2019-06-25T07:53:53Z</time>
      </trkpt>
      <trkpt lat="44.37854" lon="5.90728">
        <ele>613</ele>
        <time>2019-06-25T07:53:54Z</time>
      </trkpt>
      <trkpt lat="44.3786" lon="5.90733">
        <ele>613</ele>
        <time>2019-06-25T07:53:55Z</time>
      </trkpt>
      <trkpt lat="44.37865" lon="5.90738">
        <ele>613</ele>
        <time>2019-06-25T07:53:56Z</time>
      </trkpt>
      <trkpt lat="44.37871" lon="5.90743">
        <ele>613</ele>
        <time>2019-06-25T07:53:57Z</time>
      </trkpt>
      <trkpt lat="44.37876" lon="5.90748">
        <ele>613</ele>
        <time>2019-06-25T07:53:58Z</time>
      </trkpt>
      <trkpt lat="44.37881" lon="5.90753">
        <ele>613</ele>
        <time>2019-06-25T07:53:59Z</time>
      </trkpt>
      <trkpt lat="44.37887" lon="5.90758">
        <ele>613</ele>
        <time>2019-06-25T07:54:00Z</time>
      </trkpt>
      <trkpt lat="44.37892" lon="5.90763">
        <ele>613</ele>
        <time>2019-06-25T07:54:01Z</time>
      </trkpt>
      <trkpt lat="44.37897" lon="5.90768">
        <ele>613</ele>
        <time>2019-06-25T07:54:02Z</time>
      </trkpt>
      <trkpt lat="44.37903" lon="5.90773">
        <ele>613</ele>
        <time>2019-06-25T07:54:03Z</time>
      </trkpt>
      <trkpt lat="44.37908" lon="5.90779">
        <ele>613</ele>
        <time>2019-06-25T07:54:04Z</time>
      </trkpt>
      <trkpt lat="44.37913" lon="5.90784">
        <ele>613</ele>
        <time>2019-06-25T07:54:05Z</time>
      </trkpt>
      <trkpt lat="44.37918" lon="5.9079">
        <ele>613</ele>
        <time>2019-06-25T07:54:06Z</time>
      </trkpt>
      <trkpt lat="44.37923" lon="5.90797">
        <ele>613</ele>
        <time>2019-06-25T07:54:07Z</time>
      </trkpt>
      <trkpt lat="44.37927" lon="5.90804">
        <ele>613</ele>
        <time>2019-06-25T07:54:08Z</time>
      </trkpt>
      <trkpt lat="44.37931" lon="5.90811">
        <ele>613</ele>
        <time>2019-06-25T07:54:09Z</time>
      </trkpt>
      <trkpt lat="44.37936" lon="5.90819">
        <ele>613</ele>
        <time>2019-06-25T07:54:10Z</time>
      </trkpt>
      <trkpt lat="44.3794" lon="5.90826">
        <ele>613</ele>
        <time>2019-06-25T07:54:11Z</time>
      </trkpt>
      <trkpt lat="44.37944" lon="5.90834">
        <ele>613</ele>
        <time>2019-06-25T07:54:12Z</time>
      </trkpt>
      <trkpt lat="44.37948" lon="5.90842">
        <ele>613</ele>
        <time>2019-06-25T07:54:13Z</time>
      </trkpt>
      <trkpt lat="44.37951" lon="5.90851">
        <ele>613</ele>
        <time>2019-06-25T07:54:14Z</time>
      </trkpt>
      <trkpt lat="44.37954" lon="5.90859">
        <ele>613</ele>
        <time>2019-06-25T07:54:15Z</time>
      </trkpt>
      <trkpt lat="44.37958" lon="5.90868">
        <ele>613</ele>
        <time>2019-06-25T07:54:16Z</time>
      </trkpt>
      <trkpt lat="44.37961" lon="5.90876">
        <ele>613</ele>
        <time>2019-06-25T07:54:17Z</time>
      </trkpt>
      <trkpt lat="44.37965" lon="5.90884">
        <ele>613</ele>
        <time>2019-06-25T07:54:18Z</time>
      </trkpt>
      <trkpt lat="44.37968" lon="5.90893">
        <ele>613</ele>
        <time>2019-06-25T07:54:19Z</time>
      </trkpt>
      <trkpt lat="44.37972" lon="5.90901">
        <ele>613</ele>
        <time>2019-06-25T07:54:20Z</time>
      </trkpt>
      <trkpt lat="44.37975" lon="5.90909">
        <ele>613</ele>
        <time>2019-06-25T07:54:21Z</time>
      </trkpt>
      <trkpt lat="44.37979" lon="5.90917">
        <ele>613</ele>
        <time>2019-06-25T07:54:22Z</time>
      </trkpt>
      <trkpt lat="44.37983" lon="5.90925">
        <ele>613</ele>
        <time>2019-06-25T07:54:23Z</time>
      </trkpt>
      <trkpt lat="44.37987" lon="5.90933">
        <ele>613</ele>
        <time>2019-06-25T07:54:24Z</time>
      </trkpt>
      <trkpt lat="44.3799" lon="5.90941">
        <ele>613</ele>
        <time>2019-06-25T07:54:25Z</time>
      </trkpt>
      <trkpt lat="44.37994" lon="5.90948">
        <ele>613</ele>
        <time>2019-06-25T07:54:26Z</time>
      </trkpt>
      <trkpt lat="44.37998" lon="5.90956">
        <ele>613</ele>
        <time>2019-06-25T07:54:27Z</time>
      </trkpt>
      <trkpt lat="44.38001" lon="5.90964">
        <ele>613</ele>
        <time>2019-06-25T07:54:28Z</time>
      </trkpt>
      <trkpt lat="44.38005" lon="5.90972">
        <ele>613</ele>
        <time>2019-06-25T07:54:29Z</time>
      </trkpt>
      <trkpt lat="44.38008" lon="5.9098">
        <ele>613</ele>
        <time>2019-06-25T07:54:30Z</time>
      </trkpt>
      <trkpt lat="44.38012" lon="5.90988">
        <ele>613</ele>
        <time>2019-06-25T07:54:31Z</time>
      </trkpt>
      <trkpt lat="44.38015" lon="5.90996">
        <ele>613</ele>
        <time>2019-06-25T07:54:33Z</time>
      </trkpt>
      <trkpt lat="44.38018" lon="5.91003">
        <ele>613</ele>
        <time>2019-06-25T07:54:33Z</time>
      </trkpt>
      <trkpt lat="44.38021" lon="5.91011">
        <ele>613</ele>
        <time>2019-06-25T07:54:34Z</time>
      </trkpt>
      <trkpt lat="44.38024" lon="5.91019">
        <ele>613</ele>
        <time>2019-06-25T07:54:35Z</time>
      </trkpt>
      <trkpt lat="44.38027" lon="5.91026">
        <ele>613</ele>
        <time>2019-06-25T07:54:36Z</time>
      </trkpt>
      <trkpt lat="44.3803" lon="5.91034">
        <ele>613</ele>
        <time>2019-06-25T07:54:37Z</time>
      </trkpt>
      <trkpt lat="44.38034" lon="5.91042">
        <ele>613</ele>
        <time>2019-06-25T07:54:38Z</time>
      </trkpt>
      <trkpt lat="44.38036" lon="5.9105">
        <ele>613</ele>
        <time>2019-06-25T07:54:39Z</time>
      </trkpt>
      <trkpt lat="44.38039" lon="5.91057">
        <ele>613</ele>
        <time>2019-06-25T07:54:40Z</time>
      </trkpt>
      <trkpt lat="44.38042" lon="5.91065">
        <ele>613</ele>
        <time>2019-06-25T07:54:41Z</time>
      </trkpt>
      <trkpt lat="44.38046" lon="5.91073">
        <ele>613</ele>
        <time>2019-06-25T07:54:42Z</time>
      </trkpt>
      <trkpt lat="44.38049" lon="5.9108">
        <ele>613</ele>
        <time>2019-06-25T07:54:43Z</time>
      </trkpt>
      <trkpt lat="44.38052" lon="5.91087">
        <ele>613</ele>
        <time>2019-06-25T07:54:44Z</time>
      </trkpt>
      <trkpt lat="44.38055" lon="5.91094">
        <ele>613</ele>
        <time>2019-06-25T07:54:45Z</time>
      </trkpt>
      <trkpt lat="44.38057" lon="5.91102">
        <ele>613</ele>
        <time>2019-06-25T07:54:46Z</time>
      </trkpt>
      <trkpt lat="44.3806" lon="5.91109">
        <ele>613</ele>
        <time>2019-06-25T07:54:47Z</time>
      </trkpt>
      <trkpt lat="44.38063" lon="5.91117">
        <ele>613</ele>
        <time>2019-06-25T07:54:48Z</time>
      </trkpt>
      <trkpt lat="44.38066" lon="5.91124">
        <ele>613</ele>
        <time>2019-06-25T07:54:49Z</time>
      </trkpt>
      <trkpt lat="44.38069" lon="5.91132">
        <ele>613</ele>
        <time>2019-06-25T07:54:50Z</time>
      </trkpt>
      <trkpt lat="44.38072" lon="5.91139">
        <ele>613</ele>
        <time>2019-06-25T07:54:51Z</time>
      </trkpt>
      <trkpt lat="44.38076" lon="5.91147">
        <ele>613</ele>
        <time>2019-06-25T07:54:52Z</time>
      </trkpt>
      <trkpt lat="44.38079" lon="5.91155">
        <ele>613</ele>
        <time>2019-06-25T07:54:53Z</time>
      </trkpt>
      <trkpt lat="44.38082" lon="5.91163">
        <ele>613</ele>
        <time>2019-06-25T07:54:54Z</time>
      </trkpt>
      <trkpt lat="44.38085" lon="5.91171">
        <ele>613</ele>
        <time>2019-06-25T07:54:55Z</time>
      </trkpt>
      <trkpt lat="44.38088" lon="5.91179">
        <ele>613</ele>
        <time>2019-06-25T07:54:56Z</time>
      </trkpt>
      <trkpt lat="44.38091" lon="5.91187">
        <ele>613</ele>
        <time>2019-06-25T07:54:57Z</time>
      </trkpt>
      <trkpt lat="44.38094" lon="5.91195">
        <ele>613</ele>
        <time>2019-06-25T07:54:58Z</time>
      </trkpt>
      <trkpt lat="44.38097" lon="5.91203">
        <ele>613</ele>
        <time>2019-06-25T07:54:59Z</time>
      </trkpt>
      <trkpt lat="44.38101" lon="5.91211">
        <ele>613</ele>
        <time>2019-06-25T07:55:00Z</time>
      </trkpt>
      <trkpt lat="44.38104" lon="5.91218">
        <ele>613</ele>
        <time>2019-06-25T07:55:01Z</time>
      </trkpt>
      <trkpt lat="44.38107" lon="5.91226">
        <ele>613</ele>
        <time>2019-06-25T07:55:02Z</time>
      </trkpt>
      <trkpt lat="44.3811" lon="5.91234">
        <ele>613</ele>
        <time>2019-06-25T07:55:03Z</time>
      </trkpt>
      <trkpt lat="44.38114" lon="5.91242">
        <ele>613</ele>
        <time>2019-06-25T07:55:04Z</time>
      </trkpt>
      <trkpt lat="44.38117" lon="5.9125">
        <ele>613</ele>
        <time>2019-06-25T07:55:05Z</time>
      </trkpt>
      <trkpt lat="44.3812" lon="5.91258">
        <ele>613</ele>
        <time>2019-06-25T07:55:06Z</time>
      </trkpt>
      <trkpt lat="44.38123" lon="5.91265">
        <ele>613</ele>
        <time>2019-06-25T07:55:07Z</time>
      </trkpt>
      <trkpt lat="44.38126" lon="5.91273">
        <ele>613</ele>
        <time>2019-06-25T07:55:08Z</time>
      </trkpt>
      <trkpt lat="44.3813" lon="5.91281">
        <ele>613</ele>
        <time>2019-06-25T07:55:09Z</time>
      </trkpt>
      <trkpt lat="44.38133" lon="5.91289">
        <ele>613</ele>
        <time>2019-06-25T07:55:10Z</time>
      </trkpt>
      <trkpt lat="44.38136" lon="5.91297">
        <ele>613</ele>
        <time>2019-06-25T07:55:11Z</time>
      </trkpt>
      <trkpt lat="44.38139" lon="5.91305">
        <ele>613</ele>
        <time>2019-06-25T07:55:12Z</time>
      </trkpt>
      <trkpt lat="44.38142" lon="5.91313">
        <ele>613</ele>
        <time>2019-06-25T07:55:13Z</time>
      </trkpt>
      <trkpt lat="44.38145" lon="5.91321">
        <ele>613</ele>
        <time>2019-06-25T07:55:14Z</time>
      </trkpt>
      <trkpt lat="44.38149" lon="5.91329">
        <ele>613</ele>
        <time>2019-06-25T07:55:15Z</time>
      </trkpt>
      <trkpt lat="44.38152" lon="5.91336">
        <ele>613</ele>
        <time>2019-06-25T07:55:16Z</time>
      </trkpt>
      <trkpt lat="44.38156" lon="5.91344">
        <ele>613</ele>
        <time>2019-06-25T07:55:17Z</time>
      </trkpt>
      <trkpt lat="44.38159" lon="5.91352">
        <ele>613</ele>
        <time>2019-06-25T07:55:18Z</time>
      </trkpt>
      <trkpt lat="44.38163" lon="5.9136">
        <ele>613</ele>
        <time>2019-06-25T07:55:19Z</time>
      </trkpt>
      <trkpt lat="44.38167" lon="5.91367">
        <ele>613</ele>
        <time>2019-06-25T07:55:20Z</time>
      </trkpt>
      <trkpt lat="44.38171" lon="5.91375">
        <ele>613</ele>
        <time>2019-06-25T07:55:21Z</time>
      </trkpt>
      <trkpt lat="44.38175" lon="5.91383">
        <ele>613</ele>
        <time>2019-06-25T07:55:22Z</time>
      </trkpt>
      <trkpt lat="44.38179" lon="5.91391">
        <ele>613</ele>
        <time>2019-06-25T07:55:23Z</time>
      </trkpt>
      <trkpt lat="44.38183" lon="5.91398">
        <ele>613</ele>
        <time>2019-06-25T07:55:24Z</time>
      </trkpt>
      <trkpt lat="44.38187" lon="5.91405">
        <ele>613</ele>
        <time>2019-06-25T07:55:25Z</time>
      </trkpt>
      <trkpt lat="44.3819" lon="5.91413">
        <ele>613</ele>
        <time>2019-06-25T07:55:26Z</time>
      </trkpt>
      <trkpt lat="44.38195" lon="5.9142">
        <ele>613</ele>
        <time>2019-06-25T07:55:27Z</time>
      </trkpt>
      <trkpt lat="44.38199" lon="5.91427">
        <ele>613</ele>
        <time>2019-06-25T07:55:28Z</time>
      </trkpt>
      <trkpt lat="44.38203" lon="5.91434">
        <ele>613</ele>
        <time>2019-06-25T07:55:29Z</time>
      </trkpt>
      <trkpt lat="44.38207" lon="5.91442">
        <ele>613</ele>
        <time>2019-06-25T07:55:30Z</time>
      </trkpt>
      <trkpt lat="44.3821" lon="5.91449">
        <ele>613</ele>
        <time>2019-06-25T07:55:31Z</time>
      </trkpt>
      <trkpt lat="44.38214" lon="5.91456">
        <ele>613</ele>
        <time>2019-06-25T07:55:33Z</time>
      </trkpt>
      <trkpt lat="44.38218" lon="5.91464">
        <ele>613</ele>
        <time>2019-06-25T07:55:33Z</time>
      </trkpt>
      <trkpt lat="44.38221" lon="5.91471">
        <ele>613</ele>
        <time>2019-06-25T07:55:34Z</time>
      </trkpt>
      <trkpt lat="44.38225" lon="5.91478">
        <ele>613</ele>
        <time>2019-06-25T07:55:35Z</time>
      </trkpt>
      <trkpt lat="44.38229" lon="5.91485">
        <ele>613</ele>
        <time>2019-06-25T07:55:36Z</time>
      </trkpt>
      <trkpt lat="44.38232" lon="5.91492">
        <ele>613</ele>
        <time>2019-06-25T07:55:37Z</time>
      </trkpt>
      <trkpt lat="44.38236" lon="5.91499">
        <ele>613</ele>
        <time>2019-06-25T07:55:38Z</time>
      </trkpt>
      <trkpt lat="44.3824" lon="5.91506">
        <ele>613</ele>
        <time>2019-06-25T07:55:39Z</time>
      </trkpt>
      <trkpt lat="44.38244" lon="5.91514">
        <ele>613</ele>
        <time>2019-06-25T07:55:40Z</time>
      </trkpt>
      <trkpt lat="44.38248" lon="5.91521">
        <ele>613</ele>
        <time>2019-06-25T07:55:41Z</time>
      </trkpt>
      <trkpt lat="44.38251" lon="5.91528">
        <ele>613</ele>
        <time>2019-06-25T07:55:42Z</time>
      </trkpt>
      <trkpt lat="44.38255" lon="5.91535">
        <ele>613</ele>
        <time>2019-06-25T07:55:43Z</time>
      </trkpt>
      <trkpt lat="44.38259" lon="5.91542">
        <ele>613</ele>
        <time>2019-06-25T07:55:44Z</time>
      </trkpt>
      <trkpt lat="44.38262" lon="5.91549">
        <ele>612</ele>
        <time>2019-06-25T07:55:45Z</time>
      </trkpt>
      <trkpt lat="44.38266" lon="5.91556">
        <ele>612</ele>
        <time>2019-06-25T07:55:46Z</time>
      </trkpt>
      <trkpt lat="44.38269" lon="5.91562">
        <ele>612</ele>
        <time>2019-06-25T07:55:47Z</time>
      </trkpt>
      <trkpt lat="44.38273" lon="5.91569">
        <ele>612</ele>
        <time>2019-06-25T07:55:48Z</time>
      </trkpt>
      <trkpt lat="44.38277" lon="5.91576">
        <ele>612</ele>
        <time>2019-06-25T07:55:49Z</time>
      </trkpt>
      <trkpt lat="44.3828" lon="5.91582">
        <ele>612</ele>
        <time>2019-06-25T07:55:50Z</time>
      </trkpt>
      <trkpt lat="44.38284" lon="5.91589">
        <ele>612</ele>
        <time>2019-06-25T07:55:51Z</time>
      </trkpt>
      <trkpt lat="44.38288" lon="5.91596">
        <ele>612</ele>
        <time>2019-06-25T07:55:52Z</time>
      </trkpt>
      <trkpt lat="44.38291" lon="5.91603">
        <ele>612</ele>
        <time>2019-06-25T07:55:53Z</time>
      </trkpt>
      <trkpt lat="44.38295" lon="5.9161">
        <ele>612</ele>
        <time>2019-06-25T07:55:54Z</time>
      </trkpt>
      <trkpt lat="44.38299" lon="5.91617">
        <ele>612</ele>
        <time>2019-06-25T07:55:55Z</time>
      </trkpt>
      <trkpt lat="44.38303" lon="5.91624">
        <ele>612</ele>
        <time>2019-06-25T07:55:56Z</time>
      </trkpt>
      <trkpt lat="44.38307" lon="5.91631">
        <ele>612</ele>
        <time>2019-06-25T07:55:57Z</time>
      </trkpt>
      <trkpt lat="44.38311" lon="5.91639">
        <ele>612</ele>
        <time>2019-06-25T07:55:58Z</time>
      </trkpt>
      <trkpt lat="44.38315" lon="5.91646">
        <ele>612</ele>
        <time>2019-06-25T07:55:59Z</time>
      </trkpt>
      <trkpt lat="44.38319" lon="5.91653">
        <ele>611</ele>
        <time>2019-06-25T07:56:00Z</time>
      </trkpt>
      <trkpt lat="44.38322" lon="5.9166">
        <ele>611</ele>
        <time>2019-06-25T07:56:01Z</time>
      </trkpt>
      <trkpt lat="44.38326" lon="5.91668">
        <ele>611</ele>
        <time>2019-06-25T07:56:02Z</time>
      </trkpt>
      <trkpt lat="44.3833" lon="5.91675">
        <ele>611</ele>
        <time>2019-06-25T07:56:03Z</time>
      </trkpt>
      <trkpt lat="44.38334" lon="5.91682">
        <ele>611</ele>
        <time>2019-06-25T07:56:04Z</time>
      </trkpt>
      <trkpt lat="44.38338" lon="5.9169">
        <ele>611</ele>
        <time>2019-06-25T07:56:05Z</time>
      </trkpt>
      <trkpt lat="44.38342" lon="5.91698">
        <ele>611</ele>
        <time>2019-06-25T07:56:06Z</time>
      </trkpt>
      <trkpt lat="44.38345" lon="5.91705">
        <ele>611</ele>
        <time>2019-06-25T07:56:07Z</time>
      </trkpt>
      <trkpt lat="44.3835" lon="5.91713">
        <ele>611</ele>
        <time>2019-06-25T07:56:08Z</time>
      </trkpt>
      <trkpt lat="44.38354" lon="5.9172">
        <ele>611</ele>
        <time>2019-06-25T07:56:09Z</time>
      </trkpt>
      <trkpt lat="44.38358" lon="5.91727">
        <ele>611</ele>
        <time>2019-06-25T07:56:10Z</time>
      </trkpt>
      <trkpt lat="44.38362" lon="5.91735">
        <ele>611</ele>
        <time>2019-06-25T07:56:11Z</time>
      </trkpt>
      <trkpt lat="44.38366" lon="5.91743">
        <ele>611</ele>
        <time>2019-06-25T07:56:12Z</time>
      </trkpt>
      <trkpt lat="44.38369" lon="5.9175">
        <ele>611</ele>
        <time>2019-06-25T07:56:13Z</time>
      </trkpt>
      <trkpt lat="44.38374" lon="5.91757">
        <ele>611</ele>
        <time>2019-06-25T07:56:14Z</time>
      </trkpt>
      <trkpt lat="44.38377" lon="5.91765">
        <ele>611</ele>
        <time>2019-06-25T07:56:15Z</time>
      </trkpt>
      <trkpt lat="44.38382" lon="5.91773">
        <ele>611</ele>
        <time>2019-06-25T07:56:16Z</time>
      </trkpt>
      <trkpt lat="44.38386" lon="5.91781">
        <ele>611</ele>
        <time>2019-06-25T07:56:17Z</time>
      </trkpt>
      <trkpt lat="44.38391" lon="5.91788">
        <ele>611</ele>
        <time>2019-06-25T07:56:18Z</time>
      </trkpt>
      <trkpt lat="44.38395" lon="5.91795">
        <ele>611</ele>
        <time>2019-06-25T07:56:19Z</time>
      </trkpt>
      <trkpt lat="44.38399" lon="5.91803">
        <ele>611</ele>
        <time>2019-06-25T07:56:20Z</time>
      </trkpt>
      <trkpt lat="44.38403" lon="5.91811">
        <ele>611</ele>
        <time>2019-06-25T07:56:21Z</time>
      </trkpt>
      <trkpt lat="44.38408" lon="5.91819">
        <ele>611</ele>
        <time>2019-06-25T07:56:22Z</time>
      </trkpt>
      <trkpt lat="44.38412" lon="5.91826">
        <ele>611</ele>
        <time>2019-06-25T07:56:23Z</time>
      </trkpt>
      <trkpt lat="44.38416" lon="5.91834">
        <ele>611</ele>
        <time>2019-06-25T07:56:24Z</time>
      </trkpt>
      <trkpt lat="44.3842" lon="5.91842">
        <ele>611</ele>
        <time>2019-06-25T07:56:25Z</time>
      </trkpt>
      <trkpt lat="44.38425" lon="5.9185">
        <ele>611</ele>
        <time>2019-06-25T07:56:26Z</time>
      </trkpt>
      <trkpt lat="44.38429" lon="5.91857">
        <ele>611</ele>
        <time>2019-06-25T07:56:27Z</time>
      </trkpt>
      <trkpt lat="44.38433" lon="5.91865">
        <ele>611</ele>
        <time>2019-06-25T07:56:28Z</time>
      </trkpt>
      <trkpt lat="44.38437" lon="5.91873">
        <ele>611</ele>
        <time>2019-06-25T07:56:29Z</time>
      </trkpt>
      <trkpt lat="44.38441" lon="5.91882">
        <ele>611</ele>
        <time>2019-06-25T07:56:30Z</time>
      </trkpt>
      <trkpt lat="44.38445" lon="5.9189">
        <ele>611</ele>
        <time>2019-06-25T07:56:31Z</time>
      </trkpt>
      <trkpt lat="44.38449" lon="5.91898">
        <ele>611</ele>
        <time>2019-06-25T07:56:33Z</time>
      </trkpt>
      <trkpt lat="44.38454" lon="5.91907">
        <ele>611</ele>
        <time>2019-06-25T07:56:33Z</time>
      </trkpt>
      <trkpt lat="44.38459" lon="5.91915">
        <ele>611</ele>
        <time>2019-06-25T07:56:34Z</time>
      </trkpt>
      <trkpt lat="44.38463" lon="5.91923">
        <ele>611</ele>
        <time>2019-06-25T07:56:35Z</time>
      </trkpt>
      <trkpt lat="44.38468" lon="5.91932">
        <ele>611</ele>
        <time>2019-06-25T07:56:36Z</time>
      </trkpt>
      <trkpt lat="44.38472" lon="5.9194">
        <ele>611</ele>
        <time>2019-06-25T07:56:37Z</time>
      </trkpt>
      <trkpt lat="44.38477" lon="5.91949">
        <ele>611</ele>
        <time>2019-06-25T07:56:38Z</time>
      </trkpt>
      <trkpt lat="44.38481" lon="5.91957">
        <ele>611</ele>
        <time>2019-06-25T07:56:39Z</time>
      </trkpt>
      <trkpt lat="44.38486" lon="5.91965">
        <ele>611</ele>
        <time>2019-06-25T07:56:40Z</time>
      </trkpt>
      <trkpt lat="44.38491" lon="5.91973">
        <ele>611</ele>
        <time>2019-06-25T07:56:41Z</time>
      </trkpt>
      <trkpt lat="44.38495" lon="5.91982">
        <ele>611</ele>
        <time>2019-06-25T07:56:42Z</time>
      </trkpt>
      <trkpt lat="44.385" lon="5.9199">
        <ele>611</ele>
        <time>2019-06-25T07:56:43Z</time>
      </trkpt>
      <trkpt lat="44.38505" lon="5.91998">
        <ele>611</ele>
        <time>2019-06-25T07:56:44Z</time>
      </trkpt>
      <trkpt lat="44.38509" lon="5.92007">
        <ele>611</ele>
        <time>2019-06-25T07:56:45Z</time>
      </trkpt>
      <trkpt lat="44.38514" lon="5.92017">
        <ele>611</ele>
        <time>2019-06-25T07:56:46Z</time>
      </trkpt>
      <trkpt lat="44.38519" lon="5.92026">
        <ele>611</ele>
        <time>2019-06-25T07:56:47Z</time>
      </trkpt>
      <trkpt lat="44.38524" lon="5.92034">
        <ele>611</ele>
        <time>2019-06-25T07:56:48Z</time>
      </trkpt>
      <trkpt lat="44.38529" lon="5.92043">
        <ele>611</ele>
        <time>2019-06-25T07:56:49Z</time>
      </trkpt>
      <trkpt lat="44.38533" lon="5.92052">
        <ele>611</ele>
        <time>2019-06-25T07:56:50Z</time>
      </trkpt>
      <trkpt lat="44.38538" lon="5.92061">
        <ele>610</ele>
        <time>2019-06-25T07:56:51Z</time>
      </trkpt>
      <trkpt lat="44.38543" lon="5.9207">
        <ele>610</ele>
        <time>2019-06-25T07:56:52Z</time>
      </trkpt>
      <trkpt lat="44.38547" lon="5.92078">
        <ele>610</ele>
        <time>2019-06-25T07:56:53Z</time>
      </trkpt>
      <trkpt lat="44.38552" lon="5.92087">
        <ele>610</ele>
        <time>2019-06-25T07:56:54Z</time>
      </trkpt>
      <trkpt lat="44.38556" lon="5.92096">
        <ele>609</ele>
        <time>2019-06-25T07:56:55Z</time>
      </trkpt>
      <trkpt lat="44.3856" lon="5.92105">
        <ele>609</ele>
        <time>2019-06-25T07:56:56Z</time>
      </trkpt>
      <trkpt lat="44.38564" lon="5.92114">
        <ele>609</ele>
        <time>2019-06-25T07:56:57Z</time>
      </trkpt>
      <trkpt lat="44.38567" lon="5.92124">
        <ele>609</ele>
        <time>2019-06-25T07:56:58Z</time>
      </trkpt>
      <trkpt lat="44.3857" lon="5.92134">
        <ele>609</ele>
        <time>2019-06-25T07:56:59Z</time>
      </trkpt>
      <trkpt lat="44.38573" lon="5.92143">
        <ele>609</ele>
        <time>2019-06-25T07:57:00Z</time>
      </trkpt>
      <trkpt lat="44.38576" lon="5.92153">
        <ele>608</ele>
        <time>2019-06-25T07:57:01Z</time>
      </trkpt>
      <trkpt lat="44.38579" lon="5.92162">
        <ele>608</ele>
        <time>2019-06-25T07:57:02Z</time>
      </trkpt>
      <trkpt lat="44.38582" lon="5.92171">
        <ele>608</ele>
        <time>2019-06-25T07:57:03Z</time>
      </trkpt>
      <trkpt lat="44.38585" lon="5.9218">
        <ele>608</ele>
        <time>2019-06-25T07:57:04Z</time>
      </trkpt>
      <trkpt lat="44.38588" lon="5.92189">
        <ele>608</ele>
        <time>2019-06-25T07:57:05Z</time>
      </trkpt>
      <trkpt lat="44.3859" lon="5.92198">
        <ele>608</ele>
        <time>2019-06-25T07:57:06Z</time>
      </trkpt>
      <trkpt lat="44.38593" lon="5.92206">
        <ele>608</ele>
        <time>2019-06-25T07:57:07Z</time>
      </trkpt>
      <trkpt lat="44.38596" lon="5.92215">
        <ele>608</ele>
        <time>2019-06-25T07:57:08Z</time>
      </trkpt>
      <trkpt lat="44.38598" lon="5.92223">
        <ele>608</ele>
        <time>2019-06-25T07:57:09Z</time>
      </trkpt>
      <trkpt lat="44.38601" lon="5.92231">
        <ele>608</ele>
        <time>2019-06-25T07:57:10Z</time>
      </trkpt>
      <trkpt lat="44.38603" lon="5.92239">
        <ele>608</ele>
        <time>2019-06-25T07:57:11Z</time>
      </trkpt>
      <trkpt lat="44.38605" lon="5.92246">
        <ele>608</ele>
        <time>2019-06-25T07:57:12Z</time>
      </trkpt>
      <trkpt lat="44.38608" lon="5.92254">
        <ele>608</ele>
        <time>2019-06-25T07:57:13Z</time>
      </trkpt>
      <trkpt lat="44.3861" lon="5.92261">
        <ele>608</ele>
        <time>2019-06-25T07:57:14Z</time>
      </trkpt>
      <trkpt lat="44.38613" lon="5.92268">
        <ele>608</ele>
        <time>2019-06-25T07:57:15Z</time>
      </trkpt>
      <trkpt lat="44.38615" lon="5.92274">
        <ele>608</ele>
        <time>2019-06-25T07:57:16Z</time>
      </trkpt>
      <trkpt lat="44.38618" lon="5.9228">
        <ele>608</ele>
        <time>2019-06-25T07:57:17Z</time>
      </trkpt>
      <trkpt lat="44.3862" lon="5.92287">
        <ele>608</ele>
        <time>2019-06-25T07:57:18Z</time>
      </trkpt>
      <trkpt lat="44.38623" lon="5.92293">
        <ele>608</ele>
        <time>2019-06-25T07:57:19Z</time>
      </trkpt>
      <trkpt lat="44.38625" lon="5.92299">
        <ele>608</ele>
        <time>2019-06-25T07:57:20Z</time>
      </trkpt>
      <trkpt lat="44.38628" lon="5.92305">
        <ele>608</ele>
        <time>2019-06-25T07:57:21Z</time>
      </trkpt>
      <trkpt lat="44.38631" lon="5.92312">
        <ele>608</ele>
        <time>2019-06-25T07:57:22Z</time>
      </trkpt>
      <trkpt lat="44.38633" lon="5.92318">
        <ele>608</ele>
        <time>2019-06-25T07:57:23Z</time>
      </trkpt>
      <trkpt lat="44.38636" lon="5.92325">
        <ele>608</ele>
        <time>2019-06-25T07:57:24Z</time>
      </trkpt>
      <trkpt lat="44.38639" lon="5.92331">
        <ele>608</ele>
        <time>2019-06-25T07:57:25Z</time>
      </trkpt>
      <trkpt lat="44.38641" lon="5.92338">
        <ele>608</ele>
        <time>2019-06-25T07:57:26Z</time>
      </trkpt>
      <trkpt lat="44.38643" lon="5.92346">
        <ele>608</ele>
        <time>2019-06-25T07:57:27Z</time>
      </trkpt>
      <trkpt lat="44.38645" lon="5.92353">
        <ele>608</ele>
        <time>2019-06-25T07:57:28Z</time>
      </trkpt>
      <trkpt lat="44.38647" lon="5.9236">
        <ele>608</ele>
        <time>2019-06-25T07:57:29Z</time>
      </trkpt>
      <trkpt lat="44.38649" lon="5.92368">
        <ele>608</ele>
        <time>2019-06-25T07:57:30Z</time>
      </trkpt>
      <trkpt lat="44.38651" lon="5.92375">
        <ele>608</ele>
        <time>2019-06-25T07:57:31Z</time>
      </trkpt>
      <trkpt lat="44.38653" lon="5.92383">
        <ele>608</ele>
        <time>2019-06-25T07:57:33Z</time>
      </trkpt>
      <trkpt lat="44.38654" lon="5.92391">
        <ele>608</ele>
        <time>2019-06-25T07:57:33Z</time>
      </trkpt>
      <trkpt lat="44.38656" lon="5.92399">
        <ele>608</ele>
        <time>2019-06-25T07:57:34Z</time>
      </trkpt>
      <trkpt lat="44.38657" lon="5.92407">
        <ele>608</ele>
        <time>2019-06-25T07:57:35Z</time>
      </trkpt>
      <trkpt lat="44.38658" lon="5.92415">
        <ele>608</ele>
        <time>2019-06-25T07:57:36Z</time>
      </trkpt>
      <trkpt lat="44.38659" lon="5.92424">
        <ele>608</ele>
        <time>2019-06-25T07:57:37Z</time>
      </trkpt>
      <trkpt lat="44.38659" lon="5.92432">
        <ele>608</ele>
        <time>2019-06-25T07:57:38Z</time>
      </trkpt>
      <trkpt lat="44.3866" lon="5.92441">
        <ele>608</ele>
        <time>2019-06-25T07:57:39Z</time>
      </trkpt>
      <trkpt lat="44.3866" lon="5.9245">
        <ele>608</ele>
        <time>2019-06-25T07:57:40Z</time>
      </trkpt>
      <trkpt lat="44.3866" lon="5.92459">
        <ele>608</ele>
        <time>2019-06-25T07:57:41Z</time>
      </trkpt>
      <trkpt lat="44.3866" lon="5.92467">
        <ele>608</ele>
        <time>2019-06-25T07:57:42Z</time>
      </trkpt>
      <trkpt lat="44.38661" lon="5.92477">
        <ele>608</ele>
        <time>2019-06-25T07:57:43Z</time>
      </trkpt>
      <trkpt lat="44.38661" lon="5.92486">
        <ele>608</ele>
        <time>2019-06-25T07:57:44Z</time>
      </trkpt>
      <trkpt lat="44.38661" lon="5.92495">
        <ele>608</ele>
        <time>2019-06-25T07:57:45Z</time>
      </trkpt>
      <trkpt lat="44.38662" lon="5.92504">
        <ele>608</ele>
        <time>2019-06-25T07:57:46Z</time>
      </trkpt>
      <trkpt lat="44.38662" lon="5.92513">
        <ele>608</ele>
        <time>2019-06-25T07:57:47Z</time>
      </trkpt>
      <trkpt lat="44.38662" lon="5.92522">
        <ele>608</ele>
        <time>2019-06-25T07:57:48Z</time>
      </trkpt>
      <trkpt lat="44.38663" lon="5.92531">
        <ele>608</ele>
        <time>2019-06-25T07:57:49Z</time>
      </trkpt>
      <trkpt lat="44.38664" lon="5.9254">
        <ele>608</ele>
        <time>2019-06-25T07:57:50Z</time>
      </trkpt>
      <trkpt lat="44.38665" lon="5.9255">
        <ele>608</ele>
        <time>2019-06-25T07:57:51Z</time>
      </trkpt>
      <trkpt lat="44.38666" lon="5.9256">
        <ele>608</ele>
        <time>2019-06-25T07:57:52Z</time>
      </trkpt>
      <trkpt lat="44.38668" lon="5.9257">
        <ele>607</ele>
        <time>2019-06-25T07:57:53Z</time>
      </trkpt>
      <trkpt lat="44.3867" lon="5.9258">
        <ele>607</ele>
        <time>2019-06-25T07:57:54Z</time>
      </trkpt>
      <trkpt lat="44.38673" lon="5.92591">
        <ele>607</ele>
        <time>2019-06-25T07:57:55Z</time>
      </trkpt>
      <trkpt lat="44.38675" lon="5.92601">
        <ele>607</ele>
        <time>2019-06-25T07:57:56Z</time>
      </trkpt>
      <trkpt lat="44.38677" lon="5.92612">
        <ele>606</ele>
        <time>2019-06-25T07:57:57Z</time>
      </trkpt>
      <trkpt lat="44.3868" lon="5.92623">
        <ele>606</ele>
        <time>2019-06-25T07:57:58Z</time>
      </trkpt>
      <trkpt lat="44.38683" lon="5.92634">
        <ele>605</ele>
        <time>2019-06-25T07:57:59Z</time>
      </trkpt>
      <trkpt lat="44.38686" lon="5.92646">
        <ele>605</ele>
        <time>2019-06-25T07:58:00Z</time>
      </trkpt>
      <trkpt lat="44.38689" lon="5.92657">
        <ele>604</ele>
        <time>2019-06-25T07:58:01Z</time>
      </trkpt>
      <trkpt lat="44.38691" lon="5.92668">
        <ele>604</ele>
        <time>2019-06-25T07:58:02Z</time>
      </trkpt>
      <trkpt lat="44.38694" lon="5.9268">
        <ele>603</ele>
        <time>2019-06-25T07:58:03Z</time>
      </trkpt>
      <trkpt lat="44.38696" lon="5.92692">
        <ele>603</ele>
        <time>2019-06-25T07:58:04Z</time>
      </trkpt>
      <trkpt lat="44.38697" lon="5.92704">
        <ele>602</ele>
        <time>2019-06-25T07:58:05Z</time>
      </trkpt>
      <trkpt lat="44.38698" lon="5.92716">
        <ele>602</ele>
        <time>2019-06-25T07:58:06Z</time>
      </trkpt>
      <trkpt lat="44.38698" lon="5.92728">
        <ele>602</ele>
        <time>2019-06-25T07:58:07Z</time>
      </trkpt>
      <trkpt lat="44.38697" lon="5.9274">
        <ele>601</ele>
        <time>2019-06-25T07:58:08Z</time>
      </trkpt>
      <trkpt lat="44.38695" lon="5.92752">
        <ele>601</ele>
        <time>2019-06-25T07:58:09Z</time>
      </trkpt>
      <trkpt lat="44.38693" lon="5.92764">
        <ele>601</ele>
        <time>2019-06-25T07:58:10Z</time>
      </trkpt>
      <trkpt lat="44.38691" lon="5.92775">
        <ele>601</ele>
        <time>2019-06-25T07:58:11Z</time>
      </trkpt>
      <trkpt lat="44.38689" lon="5.92786">
        <ele>600</ele>
        <time>2019-06-25T07:58:12Z</time>
      </trkpt>
      <trkpt lat="44.38687" lon="5.92797">
        <ele>600</ele>
        <time>2019-06-25T07:58:13Z</time>
      </trkpt>
      <trkpt lat="44.38685" lon="5.92808">
        <ele>600</ele>
        <time>2019-06-25T07:58:14Z</time>
      </trkpt>
      <trkpt lat="44.38684" lon="5.92819">
        <ele>600</ele>
        <time>2019-06-25T07:58:15Z</time>
      </trkpt>
      <trkpt lat="44.38684" lon="5.9283">
        <ele>600</ele>
        <time>2019-06-25T07:58:16Z</time>
      </trkpt>
      <trkpt lat="44.38684" lon="5.9284">
        <ele>600</ele>
        <time>2019-06-25T07:58:17Z</time>
      </trkpt>
      <trkpt lat="44.38684" lon="5.92851">
        <ele>600</ele>
        <time>2019-06-25T07:58:18Z</time>
      </trkpt>
      <trkpt lat="44.38684" lon="5.92861">
        <ele>600</ele>
        <time>2019-06-25T07:58:19Z</time>
      </trkpt>
      <trkpt lat="44.38684" lon="5.92872">
        <ele>600</ele>
        <time>2019-06-25T07:58:20Z</time>
      </trkpt>
      <trkpt lat="44.38684" lon="5.92882">
        <ele>600</ele>
        <time>2019-06-25T07:58:21Z</time>
      </trkpt>
      <trkpt lat="44.38683" lon="5.92893">
        <ele>599</ele>
        <time>2019-06-25T07:58:22Z</time>
      </trkpt>
      <trkpt lat="44.38683" lon="5.92903">
        <ele>599</ele>
        <time>2019-06-25T07:58:23Z</time>
      </trkpt>
      <trkpt lat="44.38681" lon="5.92913">
        <ele>599</ele>
        <time>2019-06-25T07:58:24Z</time>
      </trkpt>
      <trkpt lat="44.38679" lon="5.92924">
        <ele>598</ele>
        <time>2019-06-25T07:58:25Z</time>
      </trkpt>
      <trkpt lat="44.38677" lon="5.92934">
        <ele>598</ele>
        <time>2019-06-25T07:58:26Z</time>
      </trkpt>
      <trkpt lat="44.38675" lon="5.92943">
        <ele>598</ele>
        <time>2019-06-25T07:58:27Z</time>
      </trkpt>
      <trkpt lat="44.38672" lon="5.92953">
        <ele>597</ele>
        <time>2019-06-25T07:58:28Z</time>
      </trkpt>
      <trkpt lat="44.3867" lon="5.92964">
        <ele>597</ele>
        <time>2019-06-25T07:58:29Z</time>
      </trkpt>
      <trkpt lat="44.38668" lon="5.92974">
        <ele>597</ele>
        <time>2019-06-25T07:58:30Z</time>
      </trkpt>
      <trkpt lat="44.38666" lon="5.92984">
        <ele>596</ele>
        <time>2019-06-25T07:58:31Z</time>
      </trkpt>
      <trkpt lat="44.38665" lon="5.92995">
        <ele>596</ele>
        <time>2019-06-25T07:58:33Z</time>
      </trkpt>
      <trkpt lat="44.38665" lon="5.93006">
        <ele>596</ele>
        <time>2019-06-25T07:58:33Z</time>
      </trkpt>
      <trkpt lat="44.38665" lon="5.93016">
        <ele>596</ele>
        <time>2019-06-25T07:58:34Z</time>
      </trkpt>
      <trkpt lat="44.38666" lon="5.93027">
        <ele>596</ele>
        <time>2019-06-25T07:58:35Z</time>
      </trkpt>
      <trkpt lat="44.38667" lon="5.93038">
        <ele>596</ele>
        <time>2019-06-25T07:58:36Z</time>
      </trkpt>
      <trkpt lat="44.38669" lon="5.93048">
        <ele>596</ele>
        <time>2019-06-25T07:58:37Z</time>
      </trkpt>
      <trkpt lat="44.38671" lon="5.93058">
        <ele>596</ele>
        <time>2019-06-25T07:58:38Z</time>
      </trkpt>
      <trkpt lat="44.38673" lon="5.93069">
        <ele>596</ele>
        <time>2019-06-25T07:58:39Z</time>
      </trkpt>
      <trkpt lat="44.38675" lon="5.93079">
        <ele>596</ele>
        <time>2019-06-25T07:58:40Z</time>
      </trkpt>
      <trkpt lat="44.38677" lon="5.9309">
        <ele>595</ele>
        <time>2019-06-25T07:58:41Z</time>
      </trkpt>
      <trkpt lat="44.38679" lon="5.931">
        <ele>595</ele>
        <time>2019-06-25T07:58:42Z</time>
      </trkpt>
      <trkpt lat="44.38681" lon="5.93111">
        <ele>595</ele>
        <time>2019-06-25T07:58:43Z</time>
      </trkpt>
      <trkpt lat="44.38683" lon="5.93121">
        <ele>595</ele>
        <time>2019-06-25T07:58:44Z</time>
      </trkpt>
      <trkpt lat="44.38684" lon="5.93131">
        <ele>595</ele>
        <time>2019-06-25T07:58:45Z</time>
      </trkpt>
      <trkpt lat="44.38686" lon="5.93142">
        <ele>595</ele>
        <time>2019-06-25T07:58:46Z</time>
      </trkpt>
      <trkpt lat="44.38688" lon="5.93152">
        <ele>595</ele>
        <time>2019-06-25T07:58:47Z</time>
      </trkpt>
      <trkpt lat="44.38691" lon="5.93162">
        <ele>595</ele>
        <time>2019-06-25T07:58:48Z</time>
      </trkpt>
      <trkpt lat="44.38693" lon="5.93173">
        <ele>595</ele>
        <time>2019-06-25T07:58:49Z</time>
      </trkpt>
      <trkpt lat="44.38695" lon="5.93183">
        <ele>594</ele>
        <time>2019-06-25T07:58:50Z</time>
      </trkpt>
      <trkpt lat="44.38698" lon="5.93193">
        <ele>594</ele>
        <time>2019-06-25T07:58:51Z</time>
      </trkpt>
      <trkpt lat="44.38701" lon="5.93203">
        <ele>594</ele>
        <time>2019-06-25T07:58:52Z</time>
      </trkpt>
      <trkpt lat="44.38703" lon="5.93213">
        <ele>594</ele>
        <time>2019-06-25T07:58:53Z</time>
      </trkpt>
      <trkpt lat="44.38706" lon="5.93223">
        <ele>593</ele>
        <time>2019-06-25T07:58:54Z</time>
      </trkpt>
      <trkpt lat="44.38708" lon="5.93233">
        <ele>593</ele>
        <time>2019-06-25T07:58:55Z</time>
      </trkpt>
      <trkpt lat="44.38711" lon="5.93243">
        <ele>593</ele>
        <time>2019-06-25T07:58:56Z</time>
      </trkpt>
      <trkpt lat="44.38713" lon="5.93253">
        <ele>593</ele>
        <time>2019-06-25T07:58:57Z</time>
      </trkpt>
      <trkpt lat="44.38716" lon="5.93264">
        <ele>592</ele>
        <time>2019-06-25T07:58:58Z</time>
      </trkpt>
      <trkpt lat="44.38718" lon="5.93275">
        <ele>592</ele>
        <time>2019-06-25T07:58:59Z</time>
      </trkpt>
      <trkpt lat="44.3872" lon="5.93286">
        <ele>592</ele>
        <time>2019-06-25T07:59:00Z</time>
      </trkpt>
      <trkpt lat="44.38721" lon="5.93297">
        <ele>592</ele>
        <time>2019-06-25T07:59:01Z</time>
      </trkpt>
      <trkpt lat="44.38722" lon="5.93309">
        <ele>592</ele>
        <time>2019-06-25T07:59:02Z</time>
      </trkpt>
      <trkpt lat="44.38723" lon="5.9332">
        <ele>591</ele>
        <time>2019-06-25T07:59:03Z</time>
      </trkpt>
      <trkpt lat="44.38723" lon="5.93332">
        <ele>591</ele>
        <time>2019-06-25T07:59:04Z</time>
      </trkpt>
      <trkpt lat="44.38723" lon="5.93343">
        <ele>591</ele>
        <time>2019-06-25T07:59:05Z</time>
      </trkpt>
      <trkpt lat="44.38723" lon="5.93355">
        <ele>591</ele>
        <time>2019-06-25T07:59:06Z</time>
      </trkpt>
      <trkpt lat="44.38722" lon="5.93366">
        <ele>590</ele>
        <time>2019-06-25T07:59:07Z</time>
      </trkpt>
      <trkpt lat="44.38721" lon="5.93377">
        <ele>590</ele>
        <time>2019-06-25T07:59:08Z</time>
      </trkpt>
      <trkpt lat="44.3872" lon="5.93389">
        <ele>589</ele>
        <time>2019-06-25T07:59:09Z</time>
      </trkpt>
      <trkpt lat="44.3872" lon="5.934">
        <ele>589</ele>
        <time>2019-06-25T07:59:10Z</time>
      </trkpt>
      <trkpt lat="44.38719" lon="5.93412">
        <ele>588</ele>
        <time>2019-06-25T07:59:11Z</time>
      </trkpt>
      <trkpt lat="44.38719" lon="5.93424">
        <ele>588</ele>
        <time>2019-06-25T07:59:12Z</time>
      </trkpt>
      <trkpt lat="44.38719" lon="5.93436">
        <ele>587</ele>
        <time>2019-06-25T07:59:13Z</time>
      </trkpt>
      <trkpt lat="44.38719" lon="5.93449">
        <ele>586</ele>
        <time>2019-06-25T07:59:14Z</time>
      </trkpt>
      <trkpt lat="44.38718" lon="5.93461">
        <ele>586</ele>
        <time>2019-06-25T07:59:15Z</time>
      </trkpt>
      <trkpt lat="44.38717" lon="5.93473">
        <ele>585</ele>
        <time>2019-06-25T07:59:16Z</time>
      </trkpt>
      <trkpt lat="44.38716" lon="5.93486">
        <ele>585</ele>
        <time>2019-06-25T07:59:17Z</time>
      </trkpt>
      <trkpt lat="44.38715" lon="5.93499">
        <ele>584</ele>
        <time>2019-06-25T07:59:18Z</time>
      </trkpt>
      <trkpt lat="44.38715" lon="5.93512">
        <ele>583</ele>
        <time>2019-06-25T07:59:19Z</time>
      </trkpt>
      <trkpt lat="44.38714" lon="5.93525">
        <ele>583</ele>
        <time>2019-06-25T07:59:20Z</time>
      </trkpt>
      <trkpt lat="44.38713" lon="5.93538">
        <ele>582</ele>
        <time>2019-06-25T07:59:21Z</time>
      </trkpt>
      <trkpt lat="44.38712" lon="5.93551">
        <ele>582</ele>
        <time>2019-06-25T07:59:22Z</time>
      </trkpt>
      <trkpt lat="44.38712" lon="5.93564">
        <ele>581</ele>
        <time>2019-06-25T07:59:23Z</time>
      </trkpt>
      <trkpt lat="44.38711" lon="5.93576">
        <ele>581</ele>
        <time>2019-06-25T07:59:24Z</time>
      </trkpt>
      <trkpt lat="44.38711" lon="5.93587">
        <ele>581</ele>
        <time>2019-06-25T07:59:25Z</time>
      </trkpt>
      <trkpt lat="44.38713" lon="5.93597">
        <ele>580</ele>
        <time>2019-06-25T07:59:26Z</time>
      </trkpt>
      <trkpt lat="44.38716" lon="5.93605">
        <ele>580</ele>
        <time>2019-06-25T07:59:27Z</time>
      </trkpt>
      <trkpt lat="44.38721" lon="5.9361">
        <ele>580</ele>
        <time>2019-06-25T07:59:28Z</time>
      </trkpt>
      <trkpt lat="44.38727" lon="5.93614">
        <ele>580</ele>
        <time>2019-06-25T07:59:29Z</time>
      </trkpt>
      <trkpt lat="44.38732" lon="5.93619">
        <ele>580</ele>
        <time>2019-06-25T07:59:30Z</time>
      </trkpt>
      <trkpt lat="44.38738" lon="5.93624">
        <ele>580</ele>
        <time>2019-06-25T07:59:31Z</time>
      </trkpt>
      <trkpt lat="44.38744" lon="5.93628">
        <ele>580</ele>
        <time>2019-06-25T07:59:33Z</time>
      </trkpt>
      <trkpt lat="44.3875" lon="5.93633">
        <ele>580</ele>
        <time>2019-06-25T07:59:33Z</time>
      </trkpt>
      <trkpt lat="44.38757" lon="5.93638">
        <ele>580</ele>
        <time>2019-06-25T07:59:34Z</time>
      </trkpt>
      <trkpt lat="44.38763" lon="5.93643">
        <ele>580</ele>
        <time>2019-06-25T07:59:35Z</time>
      </trkpt>
      <trkpt lat="44.38769" lon="5.93648">
        <ele>580</ele>
        <time>2019-06-25T07:59:36Z</time>
      </trkpt>
      <trkpt lat="44.38776" lon="5.93653">
        <ele>580</ele>
        <time>2019-06-25T07:59:37Z</time>
      </trkpt>
      <trkpt lat="44.38782" lon="5.93658">
        <ele>580</ele>
        <time>2019-06-25T07:59:38Z</time>
      </trkpt>
      <trkpt lat="44.38788" lon="5.93664">
        <ele>580</ele>
        <time>2019-06-25T07:59:39Z</time>
      </trkpt>
      <trkpt lat="44.38794" lon="5.93669">
        <ele>579</ele>
        <time>2019-06-25T07:59:40Z</time>
      </trkpt>
      <trkpt lat="44.38801" lon="5.93674">
        <ele>579</ele>
        <time>2019-06-25T07:59:41Z</time>
      </trkpt>
      <trkpt lat="44.38807" lon="5.9368">
        <ele>579</ele>
        <time>2019-06-25T07:59:42Z</time>
      </trkpt>
      <trkpt lat="44.38814" lon="5.93685">
        <ele>579</ele>
        <time>2019-06-25T07:59:43Z</time>
      </trkpt>
      <trkpt lat="44.3882" lon="5.93691">
        <ele>579</ele>
        <time>2019-06-25T07:59:44Z</time>
      </trkpt>
      <trkpt lat="44.38826" lon="5.93697">
        <ele>579</ele>
        <time>2019-06-25T07:59:45Z</time>
      </trkpt>
      <trkpt lat="44.38833" lon="5.93702">
        <ele>579</ele>
        <time>2019-06-25T07:59:46Z</time>
      </trkpt>
      <trkpt lat="44.38839" lon="5.93707">
        <ele>579</ele>
        <time>2019-06-25T07:59:47Z</time>
      </trkpt>
      <trkpt lat="44.38845" lon="5.93712">
        <ele>579</ele>
        <time>2019-06-25T07:59:48Z</time>
      </trkpt>
      <trkpt lat="44.38851" lon="5.93717">
        <ele>579</ele>
        <time>2019-06-25T07:59:49Z</time>
      </trkpt>
      <trkpt lat="44.38857" lon="5.93722">
        <ele>579</ele>
        <time>2019-06-25T07:59:50Z</time>
      </trkpt>
      <trkpt lat="44.38863" lon="5.93727">
        <ele>579</ele>
        <time>2019-06-25T07:59:51Z</time>
      </trkpt>
      <trkpt lat="44.38869" lon="5.93732">
        <ele>579</ele>
        <time>2019-06-25T07:59:52Z</time>
      </trkpt>
      <trkpt lat="44.38875" lon="5.93737">
        <ele>579</ele>
        <time>2019-06-25T07:59:53Z</time>
      </trkpt>
      <trkpt lat="44.38881" lon="5.93741">
        <ele>579</ele>
        <time>2019-06-25T07:59:54Z</time>
      </trkpt>
      <trkpt lat="44.38887" lon="5.93746">
        <ele>579</ele>
        <time>2019-06-25T07:59:55Z</time>
      </trkpt>
      <trkpt lat="44.38892" lon="5.93751">
        <ele>579</ele>
        <time>2019-06-25T07:59:56Z</time>
      </trkpt>
      <trkpt lat="44.38898" lon="5.93755">
        <ele>579</ele>
        <time>2019-06-25T07:59:57Z</time>
      </trkpt>
      <trkpt lat="44.38904" lon="5.9376">
        <ele>579</ele>
        <time>2019-06-25T07:59:58Z</time>
      </trkpt>
      <trkpt lat="44.38909" lon="5.93765">
        <ele>579</ele>
        <time>2019-06-25T07:59:59Z</time>
      </trkpt>
      <trkpt lat="44.38915" lon="5.93769">
        <ele>579</ele>
        <time>2019-06-25T08:00:00Z</time>
      </trkpt>
      <trkpt lat="44.38921" lon="5.93774">
        <ele>579</ele>
        <time>2019-06-25T08:00:01Z</time>
      </trkpt>
      <trkpt lat="44.38926" lon="5.93779">
        <ele>579</ele>
        <time>2019-06-25T08:00:02Z</time>
      </trkpt>
      <trkpt lat="44.38932" lon="5.93783">
        <ele>579</ele>
        <time>2019-06-25T08:00:03Z</time>
      </trkpt>
      <trkpt lat="44.38937" lon="5.93788">
        <ele>579</ele>
        <time>2019-06-25T08:00:04Z</time>
      </trkpt>
      <trkpt lat="44.38943" lon="5.93793">
        <ele>579</ele>
        <time>2019-06-25T08:00:05Z</time>
      </trkpt>
      <trkpt lat="44.38948" lon="5.93797">
        <ele>579</ele>
        <time>2019-06-25T08:00:06Z</time>
      </trkpt>
      <trkpt lat="44.38954" lon="5.93802">
        <ele>579</ele>
        <time>2019-06-25T08:00:07Z</time>
      </trkpt>
      <trkpt lat="44.38959" lon="5.93806">
        <ele>579</ele>
        <time>2019-06-25T08:00:08Z</time>
      </trkpt>
      <trkpt lat="44.38964" lon="5.93811">
        <ele>579</ele>
        <time>2019-06-25T08:00:09Z</time>
      </trkpt>
      <trkpt lat="44.3897" lon="5.93815">
        <ele>579</ele>
        <time>2019-06-25T08:00:10Z</time>
      </trkpt>
      <trkpt lat="44.38975" lon="5.9382">
        <ele>579</ele>
        <time>2019-06-25T08:00:11Z</time>
      </trkpt>
      <trkpt lat="44.3898" lon="5.93824">
        <ele>579</ele>
        <time>2019-06-25T08:00:12Z</time>
      </trkpt>
      <trkpt lat="44.38985" lon="5.93829">
        <ele>579</ele>
        <time>2019-06-25T08:00:13Z</time>
      </trkpt>
      <trkpt lat="44.38991" lon="5.93833">
        <ele>579</ele>
        <time>2019-06-25T08:00:14Z</time>
      </trkpt>
      <trkpt lat="44.38996" lon="5.93838">
        <ele>579</ele>
        <time>2019-06-25T08:00:15Z</time>
      </trkpt>
      <trkpt lat="44.39001" lon="5.93842">
        <ele>579</ele>
        <time>2019-06-25T08:00:16Z</time>
      </trkpt>
      <trkpt lat="44.39006" lon="5.93847">
        <ele>578</ele>
        <time>2019-06-25T08:00:17Z</time>
      </trkpt>
      <trkpt lat="44.39011" lon="5.93851">
        <ele>578</ele>
        <time>2019-06-25T08:00:18Z</time>
      </trkpt>
      <trkpt lat="44.39017" lon="5.93855">
        <ele>578</ele>
        <time>2019-06-25T08:00:19Z</time>
      </trkpt>
      <trkpt lat="44.39022" lon="5.9386">
        <ele>578</ele>
        <time>2019-06-25T08:00:20Z</time>
      </trkpt>
      <trkpt lat="44.39027" lon="5.93864">
        <ele>578</ele>
        <time>2019-06-25T08:00:21Z</time>
      </trkpt>
      <trkpt lat="44.39032" lon="5.93869">
        <ele>578</ele>
        <time>2019-06-25T08:00:22Z</time>
      </trkpt>
      <trkpt lat="44.39038" lon="5.93873">
        <ele>578</ele>
        <time>2019-06-25T08:00:23Z</time>
      </trkpt>
      <trkpt lat="44.39043" lon="5.93877">
        <ele>578</ele>
        <time>2019-06-25T08:00:24Z</time>
      </trkpt>
      <trkpt lat="44.39048" lon="5.93881">
        <ele>578</ele>
        <time>2019-06-25T08:00:25Z</time>
      </trkpt>
      <trkpt lat="44.39053" lon="5.93885">
        <ele>578</ele>
        <time>2019-06-25T08:00:26Z</time>
      </trkpt>
      <trkpt lat="44.39059" lon="5.9389">
        <ele>578</ele>
        <time>2019-06-25T08:00:27Z</time>
      </trkpt>
      <trkpt lat="44.39064" lon="5.93894">
        <ele>578</ele>
        <time>2019-06-25T08:00:28Z</time>
      </trkpt>
      <trkpt lat="44.39069" lon="5.93899">
        <ele>578</ele>
        <time>2019-06-25T08:00:29Z</time>
      </trkpt>
      <trkpt lat="44.39074" lon="5.93903">
        <ele>578</ele>
        <time>2019-06-25T08:00:30Z</time>
      </trkpt>
      <trkpt lat="44.39079" lon="5.93907">
        <ele>578</ele>
        <time>2019-06-25T08:00:31Z</time>
      </trkpt>
      <trkpt lat="44.39084" lon="5.93912">
        <ele>578</ele>
        <time>2019-06-25T08:00:33Z</time>
      </trkpt>
      <trkpt lat="44.39089" lon="5.93917">
        <ele>578</ele>
        <time>2019-06-25T08:00:33Z</time>
      </trkpt>
      <trkpt lat="44.39094" lon="5.93921">
        <ele>578</ele>
        <time>2019-06-25T08:00:34Z</time>
      </trkpt>
      <trkpt lat="44.391" lon="5.93925">
        <ele>578</ele>
        <time>2019-06-25T08:00:35Z</time>
      </trkpt>
      <trkpt lat="44.39104" lon="5.93929">
        <ele>578</ele>
        <time>2019-06-25T08:00:36Z</time>
      </trkpt>
      <trkpt lat="44.39109" lon="5.93934">
        <ele>578</ele>
        <time>2019-06-25T08:00:37Z</time>
      </trkpt>
      <trkpt lat="44.39114" lon="5.93938">
        <ele>578</ele>
        <time>2019-06-25T08:00:38Z</time>
      </trkpt>
      <trkpt lat="44.39119" lon="5.93942">
        <ele>578</ele>
        <time>2019-06-25T08:00:39Z</time>
      </trkpt>
      <trkpt lat="44.39124" lon="5.93947">
        <ele>578</ele>
        <time>2019-06-25T08:00:40Z</time>
      </trkpt>
      <trkpt lat="44.39129" lon="5.93951">
        <ele>578</ele>
        <time>2019-06-25T08:00:41Z</time>
      </trkpt>
      <trkpt lat="44.39134" lon="5.93956">
        <ele>578</ele>
        <time>2019-06-25T08:00:42Z</time>
      </trkpt>
      <trkpt lat="44.39139" lon="5.9396">
        <ele>578</ele>
        <time>2019-06-25T08:00:43Z</time>
      </trkpt>
      <trkpt lat="44.39144" lon="5.93964">
        <ele>578</ele>
        <time>2019-06-25T08:00:44Z</time>
      </trkpt>
      <trkpt lat="44.39149" lon="5.93968">
        <ele>578</ele>
        <time>2019-06-25T08:00:45Z</time>
      </trkpt>
      <trkpt lat="44.39154" lon="5.93972">
        <ele>578</ele>
        <time>2019-06-25T08:00:46Z</time>
      </trkpt>
      <trkpt lat="44.39159" lon="5.93976">
        <ele>578</ele>
        <time>2019-06-25T08:00:47Z</time>
      </trkpt>
      <trkpt lat="44.39164" lon="5.93981">
        <ele>578</ele>
        <time>2019-06-25T08:00:48Z</time>
      </trkpt>
      <trkpt lat="44.39169" lon="5.93985">
        <ele>578</ele>
        <time>2019-06-25T08:00:49Z</time>
      </trkpt>
      <trkpt lat="44.39174" lon="5.93989">
        <ele>578</ele>
        <time>2019-06-25T08:00:50Z</time>
      </trkpt>
      <trkpt lat="44.39179" lon="5.93993">
        <ele>578</ele>
        <time>2019-06-25T08:00:51Z</time>
      </trkpt>
      <trkpt lat="44.39184" lon="5.93997">
        <ele>578</ele>
        <time>2019-06-25T08:00:52Z</time>
      </trkpt>
      <trkpt lat="44.39188" lon="5.94001">
        <ele>578</ele>
        <time>2019-06-25T08:00:53Z</time>
      </trkpt>
      <trkpt lat="44.39193" lon="5.94005">
        <ele>578</ele>
        <time>2019-06-25T08:00:54Z</time>
      </trkpt>
      <trkpt lat="44.39198" lon="5.94009">
        <ele>578</ele>
        <time>2019-06-25T08:00:55Z</time>
      </trkpt>
      <trkpt lat="44.39203" lon="5.94014">
        <ele>578</ele>
        <time>2019-06-25T08:00:56Z</time>
      </trkpt>
      <trkpt lat="44.39208" lon="5.94018">
        <ele>578</ele>
        <time>2019-06-25T08:00:57Z</time>
      </trkpt>
      <trkpt lat="44.39213" lon="5.94022">
        <ele>578</ele>
        <time>2019-06-25T08:00:58Z</time>
      </trkpt>
      <trkpt lat="44.39218" lon="5.94026">
        <ele>578</ele>
        <time>2019-06-25T08:00:59Z</time>
      </trkpt>
      <trkpt lat="44.39223" lon="5.9403">
        <ele>578</ele>
        <time>2019-06-25T08:01:00Z</time>
      </trkpt>
      <trkpt lat="44.39228" lon="5.94033">
        <ele>578</ele>
        <time>2019-06-25T08:01:01Z</time>
      </trkpt>
      <trkpt lat="44.39232" lon="5.94037">
        <ele>578</ele>
        <time>2019-06-25T08:01:02Z</time>
      </trkpt>
      <trkpt lat="44.39237" lon="5.94041">
        <ele>578</ele>
        <time>2019-06-25T08:01:03Z</time>
      </trkpt>
      <trkpt lat="44.39242" lon="5.94045">
        <ele>578</ele>
        <time>2019-06-25T08:01:04Z</time>
      </trkpt>
      <trkpt lat="44.39247" lon="5.94049">
        <ele>578</ele>
        <time>2019-06-25T08:01:05Z</time>
      </trkpt>
      <trkpt lat="44.39252" lon="5.94053">
        <ele>578</ele>
        <time>2019-06-25T08:01:06Z</time>
      </trkpt>
      <trkpt lat="44.39257" lon="5.94057">
        <ele>578</ele>
        <time>2019-06-25T08:01:07Z</time>
      </trkpt>
      <trkpt lat="44.39262" lon="5.94062">
        <ele>578</ele>
        <time>2019-06-25T08:01:08Z</time>
      </trkpt>
      <trkpt lat="44.39267" lon="5.94066">
        <ele>578</ele>
        <time>2019-06-25T08:01:09Z</time>
      </trkpt>
      <trkpt lat="44.39272" lon="5.9407">
        <ele>578</ele>
        <time>2019-06-25T08:01:10Z</time>
      </trkpt>
      <trkpt lat="44.39277" lon="5.94074">
        <ele>578</ele>
        <time>2019-06-25T08:01:11Z</time>
      </trkpt>
      <trkpt lat="44.39282" lon="5.94078">
        <ele>578</ele>
        <time>2019-06-25T08:01:12Z</time>
      </trkpt>
      <trkpt lat="44.39287" lon="5.94082">
        <ele>578</ele>
        <time>2019-06-25T08:01:13Z</time>
      </trkpt>
      <trkpt lat="44.39291" lon="5.94086">
        <ele>578</ele>
        <time>2019-06-25T08:01:14Z</time>
      </trkpt>
      <trkpt lat="44.39296" lon="5.9409">
        <ele>578</ele>
        <time>2019-06-25T08:01:15Z</time>
      </trkpt>
      <trkpt lat="44.39301" lon="5.94093">
        <ele>578</ele>
        <time>2019-06-25T08:01:16Z</time>
      </trkpt>
      <trkpt lat="44.39306" lon="5.94098">
        <ele>578</ele>
        <time>2019-06-25T08:01:17Z</time>
      </trkpt>
      <trkpt lat="44.39311" lon="5.94101">
        <ele>578</ele>
        <time>2019-06-25T08:01:18Z</time>
      </trkpt>
      <trkpt lat="44.39315" lon="5.94105">
        <ele>578</ele>
        <time>2019-06-25T08:01:19Z</time>
      </trkpt>
      <trkpt lat="44.3932" lon="5.94109">
        <ele>578</ele>
        <time>2019-06-25T08:01:20Z</time>
      </trkpt>
      <trkpt lat="44.39325" lon="5.94113">
        <ele>578</ele>
        <time>2019-06-25T08:01:21Z</time>
      </trkpt>
      <trkpt lat="44.3933" lon="5.94117">
        <ele>578</ele>
        <time>2019-06-25T08:01:22Z</time>
      </trkpt>
      <trkpt lat="44.39334" lon="5.94121">
        <ele>578</ele>
        <time>2019-06-25T08:01:23Z</time>
      </trkpt>
      <trkpt lat="44.39339" lon="5.94124">
        <ele>578</ele>
        <time>2019-06-25T08:01:24Z</time>
      </trkpt>
      <trkpt lat="44.39344" lon="5.94128">
        <ele>578</ele>
        <time>2019-06-25T08:01:25Z</time>
      </trkpt>
      <trkpt lat="44.39348" lon="5.94132">
        <ele>578</ele>
        <time>2019-06-25T08:01:26Z</time>
      </trkpt>
      <trkpt lat="44.39352" lon="5.94135">
        <ele>578</ele>
        <time>2019-06-25T08:01:27Z</time>
      </trkpt>
      <trkpt lat="44.39357" lon="5.94139">
        <ele>578</ele>
        <time>2019-06-25T08:01:28Z</time>
      </trkpt>
      <trkpt lat="44.39362" lon="5.94142">
        <ele>578</ele>
        <time>2019-06-25T08:01:29Z</time>
      </trkpt>
      <trkpt lat="44.39366" lon="5.94146">
        <ele>578</ele>
        <time>2019-06-25T08:01:30Z</time>
      </trkpt>
      <trkpt lat="44.3937" lon="5.94149">
        <ele>578</ele>
        <time>2019-06-25T08:01:31Z</time>
      </trkpt>
      <trkpt lat="44.39375" lon="5.94152">
        <ele>578</ele>
        <time>2019-06-25T08:01:33Z</time>
      </trkpt>
      <trkpt lat="44.39379" lon="5.94156">
        <ele>578</ele>
        <time>2019-06-25T08:01:33Z</time>
      </trkpt>
      <trkpt lat="44.39383" lon="5.94159">
        <ele>578</ele>
        <time>2019-06-25T08:01:34Z</time>
      </trkpt>
      <trkpt lat="44.39387" lon="5.94162">
        <ele>578</ele>
        <time>2019-06-25T08:01:35Z</time>
      </trkpt>
      <trkpt lat="44.39391" lon="5.94165">
        <ele>578</ele>
        <time>2019-06-25T08:01:36Z</time>
      </trkpt>
      <trkpt lat="44.39395" lon="5.94169">
        <ele>578</ele>
        <time>2019-06-25T08:01:37Z</time>
      </trkpt>
      <trkpt lat="44.39399" lon="5.94173">
        <ele>578</ele>
        <time>2019-06-25T08:01:38Z</time>
      </trkpt>
      <trkpt lat="44.39404" lon="5.94177">
        <ele>578</ele>
        <time>2019-06-25T08:01:39Z</time>
      </trkpt>
      <trkpt lat="44.39408" lon="5.94181">
        <ele>578</ele>
        <time>2019-06-25T08:01:40Z</time>
      </trkpt>
      <trkpt lat="44.39413" lon="5.94185">
        <ele>578</ele>
        <time>2019-06-25T08:01:41Z</time>
      </trkpt>
      <trkpt lat="44.39417" lon="5.9419">
        <ele>578</ele>
        <time>2019-06-25T08:01:42Z</time>
      </trkpt>
      <trkpt lat="44.39422" lon="5.94194">
        <ele>578</ele>
        <time>2019-06-25T08:01:43Z</time>
      </trkpt>
      <trkpt lat="44.39426" lon="5.94199">
        <ele>578</ele>
        <time>2019-06-25T08:01:44Z</time>
      </trkpt>
      <trkpt lat="44.39431" lon="5.94203">
        <ele>578</ele>
        <time>2019-06-25T08:01:45Z</time>
      </trkpt>
      <trkpt lat="44.39436" lon="5.94207">
        <ele>578</ele>
        <time>2019-06-25T08:01:46Z</time>
      </trkpt>
      <trkpt lat="44.39441" lon="5.94211">
        <ele>578</ele>
        <time>2019-06-25T08:01:47Z</time>
      </trkpt>
      <trkpt lat="44.39446" lon="5.94215">
        <ele>578</ele>
        <time>2019-06-25T08:01:48Z</time>
      </trkpt>
      <trkpt lat="44.39451" lon="5.94219">
        <ele>578</ele>
        <time>2019-06-25T08:01:49Z</time>
      </trkpt>
      <trkpt lat="44.39456" lon="5.94224">
        <ele>578</ele>
        <time>2019-06-25T08:01:50Z</time>
      </trkpt>
      <trkpt lat="44.3946" lon="5.94228">
        <ele>578</ele>
        <time>2019-06-25T08:01:51Z</time>
      </trkpt>
      <trkpt lat="44.39465" lon="5.94232">
        <ele>578</ele>
        <time>2019-06-25T08:01:52Z</time>
      </trkpt>
      <trkpt lat="44.3947" lon="5.94236">
        <ele>578</ele>
        <time>2019-06-25T08:01:53Z</time>
      </trkpt>
      <trkpt lat="44.39475" lon="5.9424">
        <ele>578</ele>
        <time>2019-06-25T08:01:54Z</time>
      </trkpt>
      <trkpt lat="44.3948" lon="5.94243">
        <ele>578</ele>
        <time>2019-06-25T08:01:55Z</time>
      </trkpt>
      <trkpt lat="44.39485" lon="5.94248">
        <ele>578</ele>
        <time>2019-06-25T08:01:56Z</time>
      </trkpt>
      <trkpt lat="44.3949" lon="5.94252">
        <ele>578</ele>
        <time>2019-06-25T08:01:57Z</time>
      </trkpt>
      <trkpt lat="44.39495" lon="5.94256">
        <ele>578</ele>
        <time>2019-06-25T08:01:58Z</time>
      </trkpt>
      <trkpt lat="44.395" lon="5.94261">
        <ele>578</ele>
        <time>2019-06-25T08:01:59Z</time>
      </trkpt>
      <trkpt lat="44.39505" lon="5.94265">
        <ele>578</ele>
        <time>2019-06-25T08:02:00Z</time>
      </trkpt>
      <trkpt lat="44.3951" lon="5.94269">
        <ele>578</ele>
        <time>2019-06-25T08:02:01Z</time>
      </trkpt>
      <trkpt lat="44.39515" lon="5.94273">
        <ele>578</ele>
        <time>2019-06-25T08:02:02Z</time>
      </trkpt>
      <trkpt lat="44.3952" lon="5.94277">
        <ele>578</ele>
        <time>2019-06-25T08:02:03Z</time>
      </trkpt>
      <trkpt lat="44.39525" lon="5.9428">
        <ele>578</ele>
        <time>2019-06-25T08:02:04Z</time>
      </trkpt>
      <trkpt lat="44.3953" lon="5.94285">
        <ele>578</ele>
        <time>2019-06-25T08:02:05Z</time>
      </trkpt>
      <trkpt lat="44.39535" lon="5.94289">
        <ele>578</ele>
        <time>2019-06-25T08:02:06Z</time>
      </trkpt>
      <trkpt lat="44.3954" lon="5.94293">
        <ele>578</ele>
        <time>2019-06-25T08:02:07Z</time>
      </trkpt>
      <trkpt lat="44.39545" lon="5.94297">
        <ele>578</ele>
        <time>2019-06-25T08:02:08Z</time>
      </trkpt>
      <trkpt lat="44.3955" lon="5.94301">
        <ele>578</ele>
        <time>2019-06-25T08:02:09Z</time>
      </trkpt>
      <trkpt lat="44.39555" lon="5.94306">
        <ele>578</ele>
        <time>2019-06-25T08:02:10Z</time>
      </trkpt>
      <trkpt lat="44.3956" lon="5.9431">
        <ele>578</ele>
        <time>2019-06-25T08:02:11Z</time>
      </trkpt>
      <trkpt lat="44.39565" lon="5.94314">
        <ele>578</ele>
        <time>2019-06-25T08:02:12Z</time>
      </trkpt>
      <trkpt lat="44.3957" lon="5.94319">
        <ele>578</ele>
        <time>2019-06-25T08:02:13Z</time>
      </trkpt>
      <trkpt lat="44.39575" lon="5.94323">
        <ele>578</ele>
        <time>2019-06-25T08:02:14Z</time>
      </trkpt>
      <trkpt lat="44.39581" lon="5.94328">
        <ele>578</ele>
        <time>2019-06-25T08:02:15Z</time>
      </trkpt>
      <trkpt lat="44.39585" lon="5.94332">
        <ele>578</ele>
        <time>2019-06-25T08:02:16Z</time>
      </trkpt>
      <trkpt lat="44.3959" lon="5.94336">
        <ele>578</ele>
        <time>2019-06-25T08:02:17Z</time>
      </trkpt>
      <trkpt lat="44.39595" lon="5.94341">
        <ele>578</ele>
        <time>2019-06-25T08:02:18Z</time>
      </trkpt>
      <trkpt lat="44.396" lon="5.94345">
        <ele>578</ele>
        <time>2019-06-25T08:02:19Z</time>
      </trkpt>
      <trkpt lat="44.39605" lon="5.94349">
        <ele>578</ele>
        <time>2019-06-25T08:02:20Z</time>
      </trkpt>
      <trkpt lat="44.3961" lon="5.94353">
        <ele>578</ele>
        <time>2019-06-25T08:02:21Z</time>
      </trkpt>
      <trkpt lat="44.39615" lon="5.94356">
        <ele>578</ele>
        <time>2019-06-25T08:02:22Z</time>
      </trkpt>
      <trkpt lat="44.39621" lon="5.94359">
        <ele>578</ele>
        <time>2019-06-25T08:02:23Z</time>
      </trkpt>
      <trkpt lat="44.39626" lon="5.94363">
        <ele>578</ele>
        <time>2019-06-25T08:02:24Z</time>
      </trkpt>
      <trkpt lat="44.3963" lon="5.94366">
        <ele>578</ele>
        <time>2019-06-25T08:02:25Z</time>
      </trkpt>
      <trkpt lat="44.39635" lon="5.94369">
        <ele>578</ele>
        <time>2019-06-25T08:02:26Z</time>
      </trkpt>
      <trkpt lat="44.39639" lon="5.94372">
        <ele>578</ele>
        <time>2019-06-25T08:02:27Z</time>
      </trkpt>
      <trkpt lat="44.39644" lon="5.94375">
        <ele>578</ele>
        <time>2019-06-25T08:02:28Z</time>
      </trkpt>
      <trkpt lat="44.39648" lon="5.94378">
        <ele>578</ele>
        <time>2019-06-25T08:02:29Z</time>
      </trkpt>
      <trkpt lat="44.39653" lon="5.94381">
        <ele>578</ele>
        <time>2019-06-25T08:02:30Z</time>
      </trkpt>
      <trkpt lat="44.39657" lon="5.94384">
        <ele>578</ele>
        <time>2019-06-25T08:02:31Z</time>
      </trkpt>
      <trkpt lat="44.39661" lon="5.94387">
        <ele>578</ele>
        <time>2019-06-25T08:02:33Z</time>
      </trkpt>
      <trkpt lat="44.39666" lon="5.94389">
        <ele>578</ele>
        <time>2019-06-25T08:02:33Z</time>
      </trkpt>
      <trkpt lat="44.3967" lon="5.94392">
        <ele>578</ele>
        <time>2019-06-25T08:02:34Z</time>
      </trkpt>
      <trkpt lat="44.39674" lon="5.94395">
        <ele>578</ele>
        <time>2019-06-25T08:02:35Z</time>
      </trkpt>
      <trkpt lat="44.39678" lon="5.94397">
        <ele>578</ele>
        <time>2019-06-25T08:02:36Z</time>
      </trkpt>
      <trkpt lat="44.39682" lon="5.944">
        <ele>578</ele>
        <time>2019-06-25T08:02:37Z</time>
      </trkpt>
      <trkpt lat="44.39686" lon="5.94403">
        <ele>578</ele>
        <time>2019-06-25T08:02:38Z</time>
      </trkpt>
      <trkpt lat="44.3969" lon="5.94406">
        <ele>578</ele>
        <time>2019-06-25T08:02:39Z</time>
      </trkpt>
      <trkpt lat="44.39693" lon="5.94408">
        <ele>578</ele>
        <time>2019-06-25T08:02:40Z</time>
      </trkpt>
      <trkpt lat="44.39697" lon="5.9441">
        <ele>578</ele>
        <time>2019-06-25T08:02:41Z</time>
      </trkpt>
      <trkpt lat="44.39701" lon="5.94412">
        <ele>578</ele>
        <time>2019-06-25T08:02:42Z</time>
      </trkpt>
      <trkpt lat="44.39705" lon="5.94414">
        <ele>578</ele>
        <time>2019-06-25T08:02:43Z</time>
      </trkpt>
      <trkpt lat="44.39708" lon="5.94417">
        <ele>578</ele>
        <time>2019-06-25T08:02:44Z</time>
      </trkpt>
      <trkpt lat="44.39712" lon="5.94419">
        <ele>578</ele>
        <time>2019-06-25T08:02:45Z</time>
      </trkpt>
      <trkpt lat="44.39716" lon="5.94421">
        <ele>578</ele>
        <time>2019-06-25T08:02:46Z</time>
      </trkpt>
      <trkpt lat="44.3972" lon="5.94423">
        <ele>578</ele>
        <time>2019-06-25T08:02:47Z</time>
      </trkpt>
      <trkpt lat="44.39724" lon="5.94425">
        <ele>578</ele>
        <time>2019-06-25T08:02:48Z</time>
      </trkpt>
      <trkpt lat="44.39727" lon="5.94427">
        <ele>578</ele>
        <time>2019-06-25T08:02:49Z</time>
      </trkpt>
      <trkpt lat="44.39731" lon="5.94429">
        <ele>578</ele>
        <time>2019-06-25T08:02:50Z</time>
      </trkpt>
      <trkpt lat="44.39734" lon="5.94431">
        <ele>578</ele>
        <time>2019-06-25T08:02:51Z</time>
      </trkpt>
      <trkpt lat="44.39738" lon="5.94434">
        <ele>578</ele>
        <time>2019-06-25T08:02:52Z</time>
      </trkpt>
      <trkpt lat="44.39741" lon="5.94436">
        <ele>578</ele>
        <time>2019-06-25T08:02:53Z</time>
      </trkpt>
      <trkpt lat="44.39745" lon="5.94438">
        <ele>578</ele>
        <time>2019-06-25T08:02:54Z</time>
      </trkpt>
      <trkpt lat="44.39748" lon="5.9444">
        <ele>578</ele>
        <time>2019-06-25T08:02:55Z</time>
      </trkpt>
      <trkpt lat="44.39751" lon="5.94442">
        <ele>578</ele>
        <time>2019-06-25T08:02:56Z</time>
      </trkpt>
      <trkpt lat="44.39755" lon="5.94444">
        <ele>578</ele>
        <time>2019-06-25T08:02:57Z</time>
      </trkpt>
      <trkpt lat="44.39758" lon="5.94446">
        <ele>578</ele>
        <time>2019-06-25T08:02:58Z</time>
      </trkpt>
      <trkpt lat="44.39761" lon="5.94448">
        <ele>578</ele>
        <time>2019-06-25T08:02:59Z</time>
      </trkpt>
      <trkpt lat="44.39764" lon="5.9445">
        <ele>578</ele>
        <time>2019-06-25T08:03:00Z</time>
      </trkpt>
      <trkpt lat="44.39768" lon="5.94452">
        <ele>578</ele>
        <time>2019-06-25T08:03:01Z</time>
      </trkpt>
      <trkpt lat="44.39772" lon="5.94454">
        <ele>578</ele>
        <time>2019-06-25T08:03:02Z</time>
      </trkpt>
      <trkpt lat="44.39775" lon="5.94456">
        <ele>578</ele>
        <time>2019-06-25T08:03:03Z</time>
      </trkpt>
      <trkpt lat="44.39778" lon="5.94458">
        <ele>578</ele>
        <time>2019-06-25T08:03:04Z</time>
      </trkpt>
      <trkpt lat="44.39782" lon="5.94461">
        <ele>578</ele>
        <time>2019-06-25T08:03:05Z</time>
      </trkpt>
      <trkpt lat="44.39785" lon="5.94463">
        <ele>579</ele>
        <time>2019-06-25T08:03:06Z</time>
      </trkpt>
      <trkpt lat="44.39788" lon="5.94466">
        <ele>579</ele>
        <time>2019-06-25T08:03:07Z</time>
      </trkpt>
      <trkpt lat="44.3979" lon="5.94468">
        <ele>579</ele>
        <time>2019-06-25T08:03:08Z</time>
      </trkpt>
      <trkpt lat="44.39793" lon="5.94471">
        <ele>579</ele>
        <time>2019-06-25T08:03:09Z</time>
      </trkpt>
      <trkpt lat="44.39796" lon="5.94474">
        <ele>580</ele>
        <time>2019-06-25T08:03:10Z</time>
      </trkpt>
      <trkpt lat="44.39799" lon="5.94476">
        <ele>580</ele>
        <time>2019-06-25T08:03:11Z</time>
      </trkpt>
      <trkpt lat="44.39802" lon="5.94479">
        <ele>580</ele>
        <time>2019-06-25T08:03:12Z</time>
      </trkpt>
      <trkpt lat="44.39805" lon="5.94481">
        <ele>580</ele>
        <time>2019-06-25T08:03:13Z</time>
      </trkpt>
      <trkpt lat="44.39808" lon="5.94483">
        <ele>580</ele>
        <time>2019-06-25T08:03:14Z</time>
      </trkpt>
      <trkpt lat="44.39811" lon="5.94485">
        <ele>581</ele>
        <time>2019-06-25T08:03:15Z</time>
      </trkpt>
      <trkpt lat="44.39814" lon="5.94488">
        <ele>581</ele>
        <time>2019-06-25T08:03:16Z</time>
      </trkpt>
      <trkpt lat="44.39817" lon="5.9449">
        <ele>581</ele>
        <time>2019-06-25T08:03:17Z</time>
      </trkpt>
      <trkpt lat="44.3982" lon="5.94493">
        <ele>581</ele>
        <time>2019-06-25T08:03:18Z</time>
      </trkpt>
      <trkpt lat="44.39823" lon="5.94496">
        <ele>581</ele>
        <time>2019-06-25T08:03:19Z</time>
      </trkpt>
      <trkpt lat="44.39826" lon="5.94498">
        <ele>582</ele>
        <time>2019-06-25T08:03:20Z</time>
      </trkpt>
      <trkpt lat="44.39828" lon="5.945">
        <ele>582</ele>
        <time>2019-06-25T08:03:21Z</time>
      </trkpt>
      <trkpt lat="44.39831" lon="5.94503">
        <ele>582</ele>
        <time>2019-06-25T08:03:22Z</time>
      </trkpt>
      <trkpt lat="44.39834" lon="5.94506">
        <ele>582</ele>
        <time>2019-06-25T08:03:23Z</time>
      </trkpt>
      <trkpt lat="44.39837" lon="5.94508">
        <ele>583</ele>
        <time>2019-06-25T08:03:24Z</time>
      </trkpt>
      <trkpt lat="44.3984" lon="5.9451">
        <ele>583</ele>
        <time>2019-06-25T08:03:25Z</time>
      </trkpt>
      <trkpt lat="44.39843" lon="5.94513">
        <ele>583</ele>
        <time>2019-06-25T08:03:26Z</time>
      </trkpt>
      <trkpt lat="44.39846" lon="5.94515">
        <ele>583</ele>
        <time>2019-06-25T08:03:27Z</time>
      </trkpt>
      <trkpt lat="44.39849" lon="5.94518">
        <ele>583</ele>
        <time>2019-06-25T08:03:28Z</time>
      </trkpt>
      <trkpt lat="44.39851" lon="5.94521">
        <ele>583</ele>
        <time>2019-06-25T08:03:29Z</time>
      </trkpt>
      <trkpt lat="44.39854" lon="5.94524">
        <ele>583</ele>
        <time>2019-06-25T08:03:30Z</time>
      </trkpt>
      <trkpt lat="44.39857" lon="5.94526">
        <ele>584</ele>
        <time>2019-06-25T08:03:31Z</time>
      </trkpt>
      <trkpt lat="44.3986" lon="5.94529">
        <ele>584</ele>
        <time>2019-06-25T08:03:33Z</time>
      </trkpt>
      <trkpt lat="44.39862" lon="5.94532">
        <ele>584</ele>
        <time>2019-06-25T08:03:33Z</time>
      </trkpt>
      <trkpt lat="44.39865" lon="5.94535">
        <ele>585</ele>
        <time>2019-06-25T08:03:34Z</time>
      </trkpt>
      <trkpt lat="44.39868" lon="5.94537">
        <ele>585</ele>
        <time>2019-06-25T08:03:35Z</time>
      </trkpt>
      <trkpt lat="44.3987" lon="5.9454">
        <ele>585</ele>
        <time>2019-06-25T08:03:36Z</time>
      </trkpt>
      <trkpt lat="44.39872" lon="5.94543">
        <ele>586</ele>
        <time>2019-06-25T08:03:37Z</time>
      </trkpt>
      <trkpt lat="44.39875" lon="5.94545">
        <ele>586</ele>
        <time>2019-06-25T08:03:38Z</time>
      </trkpt>
      <trkpt lat="44.39877" lon="5.94548">
        <ele>586</ele>
        <time>2019-06-25T08:03:39Z</time>
      </trkpt>
      <trkpt lat="44.3988" lon="5.9455">
        <ele>586</ele>
        <time>2019-06-25T08:03:40Z</time>
      </trkpt>
      <trkpt lat="44.39883" lon="5.94552">
        <ele>587</ele>
        <time>2019-06-25T08:03:41Z</time>
      </trkpt>
      <trkpt lat="44.39886" lon="5.94554">
        <ele>587</ele>
        <time>2019-06-25T08:03:42Z</time>
      </trkpt>
      <trkpt lat="44.39888" lon="5.94557">
        <ele>587</ele>
        <time>2019-06-25T08:03:43Z</time>
      </trkpt>
      <trkpt lat="44.39891" lon="5.94559">
        <ele>587</ele>
        <time>2019-06-25T08:03:44Z</time>
      </trkpt>
      <trkpt lat="44.39894" lon="5.94562">
        <ele>588</ele>
        <time>2019-06-25T08:03:45Z</time>
      </trkpt>
      <trkpt lat="44.39897" lon="5.94564">
        <ele>588</ele>
        <time>2019-06-25T08:03:46Z</time>
      </trkpt>
      <trkpt lat="44.399" lon="5.94566">
        <ele>588</ele>
        <time>2019-06-25T08:03:47Z</time>
      </trkpt>
      <trkpt lat="44.39902" lon="5.94568">
        <ele>588</ele>
        <time>2019-06-25T08:03:48Z</time>
      </trkpt>
      <trkpt lat="44.39905" lon="5.9457">
        <ele>588</ele>
        <time>2019-06-25T08:03:49Z</time>
      </trkpt>
      <trkpt lat="44.39908" lon="5.94572">
        <ele>588</ele>
        <time>2019-06-25T08:03:50Z</time>
      </trkpt>
      <trkpt lat="44.39911" lon="5.94574">
        <ele>588</ele>
        <time>2019-06-25T08:03:51Z</time>
      </trkpt>
      <trkpt lat="44.39914" lon="5.94576">
        <ele>588</ele>
        <time>2019-06-25T08:03:52Z</time>
      </trkpt>
      <trkpt lat="44.39917" lon="5.94578">
        <ele>588</ele>
        <time>2019-06-25T08:03:53Z</time>
      </trkpt>
      <trkpt lat="44.39919" lon="5.94579">
        <ele>589</ele>
        <time>2019-06-25T08:03:54Z</time>
      </trkpt>
      <trkpt lat="44.39922" lon="5.94581">
        <ele>589</ele>
        <time>2019-06-25T08:03:55Z</time>
      </trkpt>
      <trkpt lat="44.39925" lon="5.94582">
        <ele>589</ele>
        <time>2019-06-25T08:03:56Z</time>
      </trkpt>
      <trkpt lat="44.39928" lon="5.94584">
        <ele>589</ele>
        <time>2019-06-25T08:03:57Z</time>
      </trkpt>
      <trkpt lat="44.3993" lon="5.94586">
        <ele>590</ele>
        <time>2019-06-25T08:03:58Z</time>
      </trkpt>
      <trkpt lat="44.39933" lon="5.94587">
        <ele>590</ele>
        <time>2019-06-25T08:03:59Z</time>
      </trkpt>
      <trkpt lat="44.39936" lon="5.94588">
        <ele>590</ele>
        <time>2019-06-25T08:04:00Z</time>
      </trkpt>
      <trkpt lat="44.39939" lon="5.9459">
        <ele>590</ele>
        <time>2019-06-25T08:04:01Z</time>
      </trkpt>
      <trkpt lat="44.39942" lon="5.94591">
        <ele>591</ele>
        <time>2019-06-25T08:04:02Z</time>
      </trkpt>
      <trkpt lat="44.39945" lon="5.94593">
        <ele>591</ele>
        <time>2019-06-25T08:04:03Z</time>
      </trkpt>
      <trkpt lat="44.39948" lon="5.94594">
        <ele>591</ele>
        <time>2019-06-25T08:04:04Z</time>
      </trkpt>
      <trkpt lat="44.39951" lon="5.94596">
        <ele>591</ele>
        <time>2019-06-25T08:04:05Z</time>
      </trkpt>
      <trkpt lat="44.39954" lon="5.94597">
        <ele>592</ele>
        <time>2019-06-25T08:04:06Z</time>
      </trkpt>
      <trkpt lat="44.39957" lon="5.94598">
        <ele>592</ele>
        <time>2019-06-25T08:04:07Z</time>
      </trkpt>
      <trkpt lat="44.3996" lon="5.94599">
        <ele>592</ele>
        <time>2019-06-25T08:04:08Z</time>
      </trkpt>
      <trkpt lat="44.39964" lon="5.94601">
        <ele>592</ele>
        <time>2019-06-25T08:04:09Z</time>
      </trkpt>
      <trkpt lat="44.39967" lon="5.94602">
        <ele>592</ele>
        <time>2019-06-25T08:04:10Z</time>
      </trkpt>
      <trkpt lat="44.3997" lon="5.94603">
        <ele>592</ele>
        <time>2019-06-25T08:04:11Z</time>
      </trkpt>
      <trkpt lat="44.39973" lon="5.94605">
        <ele>593</ele>
        <time>2019-06-25T08:04:12Z</time>
      </trkpt>
      <trkpt lat="44.39977" lon="5.94606">
        <ele>593</ele>
        <time>2019-06-25T08:04:13Z</time>
      </trkpt>
      <trkpt lat="44.3998" lon="5.94608">
        <ele>593</ele>
        <time>2019-06-25T08:04:14Z</time>
      </trkpt>
      <trkpt lat="44.39983" lon="5.94609">
        <ele>593</ele>
        <time>2019-06-25T08:04:15Z</time>
      </trkpt>
      <trkpt lat="44.39987" lon="5.94611">
        <ele>593</ele>
        <time>2019-06-25T08:04:16Z</time>
      </trkpt>
      <trkpt lat="44.3999" lon="5.94613">
        <ele>593</ele>
        <time>2019-06-25T08:04:17Z</time>
      </trkpt>
      <trkpt lat="44.39994" lon="5.94614">
        <ele>594</ele>
        <time>2019-06-25T08:04:18Z</time>
      </trkpt>
      <trkpt lat="44.39998" lon="5.94615">
        <ele>594</ele>
        <time>2019-06-25T08:04:19Z</time>
      </trkpt>
      <trkpt lat="44.40001" lon="5.94617">
        <ele>594</ele>
        <time>2019-06-25T08:04:20Z</time>
      </trkpt>
      <trkpt lat="44.40005" lon="5.94618">
        <ele>594</ele>
        <time>2019-06-25T08:04:21Z</time>
      </trkpt>
      <trkpt lat="44.40009" lon="5.9462">
        <ele>594</ele>
        <time>2019-06-25T08:04:22Z</time>
      </trkpt>
      <trkpt lat="44.40012" lon="5.94622">
        <ele>594</ele>
        <time>2019-06-25T08:04:23Z</time>
      </trkpt>
      <trkpt lat="44.40016" lon="5.94624">
        <ele>594</ele>
        <time>2019-06-25T08:04:24Z</time>
      </trkpt>
      <trkpt lat="44.4002" lon="5.94626">
        <ele>594</ele>
        <time>2019-06-25T08:04:25Z</time>
      </trkpt>
      <trkpt lat="44.40024" lon="5.94627">
        <ele>594</ele>
        <time>2019-06-25T08:04:26Z</time>
      </trkpt>
      <trkpt lat="44.40028" lon="5.94629">
        <ele>594</ele>
        <time>2019-06-25T08:04:27Z</time>
      </trkpt>
      <trkpt lat="44.40032" lon="5.94631">
        <ele>594</ele>
        <time>2019-06-25T08:04:28Z</time>
      </trkpt>
      <trkpt lat="44.40036" lon="5.94632">
        <ele>594</ele>
        <time>2019-06-25T08:04:29Z</time>
      </trkpt>
      <trkpt lat="44.40041" lon="5.94634">
        <ele>595</ele>
        <time>2019-06-25T08:04:30Z</time>
      </trkpt>
      <trkpt lat="44.40045" lon="5.94636">
        <ele>595</ele>
        <time>2019-06-25T08:04:31Z</time>
      </trkpt>
      <trkpt lat="44.40049" lon="5.94638">
        <ele>595</ele>
        <time>2019-06-25T08:04:32Z</time>
      </trkpt>
      <trkpt lat="44.40054" lon="5.9464">
        <ele>595</ele>
        <time>2019-06-25T08:04:33Z</time>
      </trkpt>
      <trkpt lat="44.40059" lon="5.94641">
        <ele>595</ele>
        <time>2019-06-25T08:04:34Z</time>
      </trkpt>
      <trkpt lat="44.40063" lon="5.94643">
        <ele>595</ele>
        <time>2019-06-25T08:04:35Z</time>
      </trkpt>
      <trkpt lat="44.40067" lon="5.94646">
        <ele>595</ele>
        <time>2019-06-25T08:04:36Z</time>
      </trkpt>
      <trkpt lat="44.40071" lon="5.94648">
        <ele>595</ele>
        <time>2019-06-25T08:04:37Z</time>
      </trkpt>
      <trkpt lat="44.40076" lon="5.94651">
        <ele>595</ele>
        <time>2019-06-25T08:04:38Z</time>
      </trkpt>
      <trkpt lat="44.40081" lon="5.94654">
        <ele>595</ele>
        <time>2019-06-25T08:04:39Z</time>
      </trkpt>
      <trkpt lat="44.40086" lon="5.94657">
        <ele>596</ele>
        <time>2019-06-25T08:04:40Z</time>
      </trkpt>
      <trkpt lat="44.40091" lon="5.94659">
        <ele>596</ele>
        <time>2019-06-25T08:04:41Z</time>
      </trkpt>
      <trkpt lat="44.40096" lon="5.94662">
        <ele>596</ele>
        <time>2019-06-25T08:04:42Z</time>
      </trkpt>
      <trkpt lat="44.40101" lon="5.94666">
        <ele>596</ele>
        <time>2019-06-25T08:04:43Z</time>
      </trkpt>
      <trkpt lat="44.40105" lon="5.94669">
        <ele>596</ele>
        <time>2019-06-25T08:04:44Z</time>
      </trkpt>
      <trkpt lat="44.4011" lon="5.94672">
        <ele>596</ele>
        <time>2019-06-25T08:04:45Z</time>
      </trkpt>
      <trkpt lat="44.40115" lon="5.94675">
        <ele>596</ele>
        <time>2019-06-25T08:04:46Z</time>
      </trkpt>
      <trkpt lat="44.40119" lon="5.94678">
        <ele>596</ele>
        <time>2019-06-25T08:04:47Z</time>
      </trkpt>
      <trkpt lat="44.40124" lon="5.94682">
        <ele>597</ele>
        <time>2019-06-25T08:04:48Z</time>
      </trkpt>
      <trkpt lat="44.40129" lon="5.94685">
        <ele>597</ele>
        <time>2019-06-25T08:04:49Z</time>
      </trkpt>
      <trkpt lat="44.40134" lon="5.94688">
        <ele>597</ele>
        <time>2019-06-25T08:04:50Z</time>
      </trkpt>
      <trkpt lat="44.40139" lon="5.94691">
        <ele>597</ele>
        <time>2019-06-25T08:04:51Z</time>
      </trkpt>
      <trkpt lat="44.40143" lon="5.94694">
        <ele>597</ele>
        <time>2019-06-25T08:04:52Z</time>
      </trkpt>
      <trkpt lat="44.40148" lon="5.94698">
        <ele>597</ele>
        <time>2019-06-25T08:04:53Z</time>
      </trkpt>
      <trkpt lat="44.40153" lon="5.94701">
        <ele>597</ele>
        <time>2019-06-25T08:04:54Z</time>
      </trkpt>
      <trkpt lat="44.40157" lon="5.94705">
        <ele>597</ele>
        <time>2019-06-25T08:04:55Z</time>
      </trkpt>
      <trkpt lat="44.40162" lon="5.94709">
        <ele>597</ele>
        <time>2019-06-25T08:04:56Z</time>
      </trkpt>
      <trkpt lat="44.40167" lon="5.94712">
        <ele>597</ele>
        <time>2019-06-25T08:04:57Z</time>
      </trkpt>
      <trkpt lat="44.40172" lon="5.94716">
        <ele>597</ele>
        <time>2019-06-25T08:04:58Z</time>
      </trkpt>
      <trkpt lat="44.40177" lon="5.9472">
        <ele>597</ele>
        <time>2019-06-25T08:04:59Z</time>
      </trkpt>
      <trkpt lat="44.40181" lon="5.94723">
        <ele>597</ele>
        <time>2019-06-25T08:05:00Z</time>
      </trkpt>
      <trkpt lat="44.40186" lon="5.94727">
        <ele>597</ele>
        <time>2019-06-25T08:05:01Z</time>
      </trkpt>
      <trkpt lat="44.4019" lon="5.94732">
        <ele>597</ele>
        <time>2019-06-25T08:05:02Z</time>
      </trkpt>
      <trkpt lat="44.40194" lon="5.94736">
        <ele>597</ele>
        <time>2019-06-25T08:05:03Z</time>
      </trkpt>
      <trkpt lat="44.40198" lon="5.94741">
        <ele>598</ele>
        <time>2019-06-25T08:05:04Z</time>
      </trkpt>
      <trkpt lat="44.40202" lon="5.94745">
        <ele>598</ele>
        <time>2019-06-25T08:05:05Z</time>
      </trkpt>
      <trkpt lat="44.40207" lon="5.9475">
        <ele>598</ele>
        <time>2019-06-25T08:05:06Z</time>
      </trkpt>
      <trkpt lat="44.40211" lon="5.94755">
        <ele>598</ele>
        <time>2019-06-25T08:05:07Z</time>
      </trkpt>
      <trkpt lat="44.40215" lon="5.9476">
        <ele>598</ele>
        <time>2019-06-25T08:05:08Z</time>
      </trkpt>
      <trkpt lat="44.40219" lon="5.94765">
        <ele>598</ele>
        <time>2019-06-25T08:05:09Z</time>
      </trkpt>
      <trkpt lat="44.40223" lon="5.9477">
        <ele>598</ele>
        <time>2019-06-25T08:05:10Z</time>
      </trkpt>
      <trkpt lat="44.40227" lon="5.94775">
        <ele>598</ele>
        <time>2019-06-25T08:05:11Z</time>
      </trkpt>
      <trkpt lat="44.4023" lon="5.9478">
        <ele>598</ele>
        <time>2019-06-25T08:05:12Z</time>
      </trkpt>
      <trkpt lat="44.40234" lon="5.94786">
        <ele>598</ele>
        <time>2019-06-25T08:05:13Z</time>
      </trkpt>
      <trkpt lat="44.40237" lon="5.94791">
        <ele>598</ele>
        <time>2019-06-25T08:05:14Z</time>
      </trkpt>
      <trkpt lat="44.40241" lon="5.94797">
        <ele>598</ele>
        <time>2019-06-25T08:05:15Z</time>
      </trkpt>
      <trkpt lat="44.40245" lon="5.94802">
        <ele>598</ele>
        <time>2019-06-25T08:05:16Z</time>
      </trkpt>
      <trkpt lat="44.40248" lon="5.94808">
        <ele>598</ele>
        <time>2019-06-25T08:05:17Z</time>
      </trkpt>
      <trkpt lat="44.40252" lon="5.94813">
        <ele>598</ele>
        <time>2019-06-25T08:05:18Z</time>
      </trkpt>
      <trkpt lat="44.40256" lon="5.94819">
        <ele>598</ele>
        <time>2019-06-25T08:05:19Z</time>
      </trkpt>
      <trkpt lat="44.4026" lon="5.94826">
        <ele>598</ele>
        <time>2019-06-25T08:05:20Z</time>
      </trkpt>
      <trkpt lat="44.40263" lon="5.94833">
        <ele>598</ele>
        <time>2019-06-25T08:05:21Z</time>
      </trkpt>
      <trkpt lat="44.40266" lon="5.94839">
        <ele>598</ele>
        <time>2019-06-25T08:05:22Z</time>
      </trkpt>
      <trkpt lat="44.40269" lon="5.94846">
        <ele>598</ele>
        <time>2019-06-25T08:05:23Z</time>
      </trkpt>
      <trkpt lat="44.40272" lon="5.94852">
        <ele>598</ele>
        <time>2019-06-25T08:05:24Z</time>
      </trkpt>
      <trkpt lat="44.40275" lon="5.94858">
        <ele>598</ele>
        <time>2019-06-25T08:05:25Z</time>
      </trkpt>
      <trkpt lat="44.40278" lon="5.94864">
        <ele>598</ele>
        <time>2019-06-25T08:05:26Z</time>
      </trkpt>
      <trkpt lat="44.40281" lon="5.9487">
        <ele>598</ele>
        <time>2019-06-25T08:05:27Z</time>
      </trkpt>
      <trkpt lat="44.40285" lon="5.94876">
        <ele>598</ele>
        <time>2019-06-25T08:05:28Z</time>
      </trkpt>
      <trkpt lat="44.40288" lon="5.94883">
        <ele>598</ele>
        <time>2019-06-25T08:05:29Z</time>
      </trkpt>
      <trkpt lat="44.40291" lon="5.94889">
        <ele>598</ele>
        <time>2019-06-25T08:05:30Z</time>
      </trkpt>
      <trkpt lat="44.40294" lon="5.94895">
        <ele>598</ele>
        <time>2019-06-25T08:05:31Z</time>
      </trkpt>
      <trkpt lat="44.40297" lon="5.94902">
        <ele>598</ele>
        <time>2019-06-25T08:05:33Z</time>
      </trkpt>
      <trkpt lat="44.403" lon="5.94908">
        <ele>598</ele>
        <time>2019-06-25T08:05:33Z</time>
      </trkpt>
      <trkpt lat="44.40304" lon="5.94915">
        <ele>598</ele>
        <time>2019-06-25T08:05:34Z</time>
      </trkpt>
      <trkpt lat="44.40307" lon="5.94921">
        <ele>598</ele>
        <time>2019-06-25T08:05:35Z</time>
      </trkpt>
      <trkpt lat="44.4031" lon="5.94928">
        <ele>598</ele>
        <time>2019-06-25T08:05:36Z</time>
      </trkpt>
      <trkpt lat="44.40313" lon="5.94935">
        <ele>598</ele>
        <time>2019-06-25T08:05:37Z</time>
      </trkpt>
      <trkpt lat="44.40317" lon="5.94942">
        <ele>598</ele>
        <time>2019-06-25T08:05:38Z</time>
      </trkpt>
      <trkpt lat="44.4032" lon="5.94949">
        <ele>598</ele>
        <time>2019-06-25T08:05:39Z</time>
      </trkpt>
      <trkpt lat="44.40324" lon="5.94956">
        <ele>598</ele>
        <time>2019-06-25T08:05:40Z</time>
      </trkpt>
      <trkpt lat="44.40327" lon="5.94964">
        <ele>598</ele>
        <time>2019-06-25T08:05:41Z</time>
      </trkpt>
      <trkpt lat="44.4033" lon="5.94971">
        <ele>598</ele>
        <time>2019-06-25T08:05:42Z</time>
      </trkpt>
      <trkpt lat="44.40334" lon="5.94978">
        <ele>598</ele>
        <time>2019-06-25T08:05:43Z</time>
      </trkpt>
      <trkpt lat="44.40338" lon="5.94985">
        <ele>598</ele>
        <time>2019-06-25T08:05:44Z</time>
      </trkpt>
      <trkpt lat="44.40343" lon="5.94989">
        <ele>598</ele>
        <time>2019-06-25T08:05:45Z</time>
      </trkpt>
      <trkpt lat="44.40349" lon="5.94992">
        <ele>598</ele>
        <time>2019-06-25T08:05:46Z</time>
      </trkpt>
      <trkpt lat="44.40355" lon="5.94995">
        <ele>598</ele>
        <time>2019-06-25T08:05:47Z</time>
      </trkpt>
      <trkpt lat="44.40361" lon="5.94999">
        <ele>598</ele>
        <time>2019-06-25T08:05:48Z</time>
      </trkpt>
      <trkpt lat="44.40366" lon="5.95003">
        <ele>598</ele>
        <time>2019-06-25T08:05:49Z</time>
      </trkpt>
      <trkpt lat="44.40371" lon="5.95008">
        <ele>598</ele>
        <time>2019-06-25T08:05:50Z</time>
      </trkpt>
      <trkpt lat="44.40376" lon="5.95013">
        <ele>598</ele>
        <time>2019-06-25T08:05:51Z</time>
      </trkpt>
      <trkpt lat="44.40381" lon="5.95018">
        <ele>598</ele>
        <time>2019-06-25T08:05:52Z</time>
      </trkpt>
      <trkpt lat="44.40385" lon="5.95022">
        <ele>598</ele>
        <time>2019-06-25T08:05:53Z</time>
      </trkpt>
      <trkpt lat="44.4039" lon="5.95026">
        <ele>598</ele>
        <time>2019-06-25T08:05:54Z</time>
      </trkpt>
      <trkpt lat="44.40395" lon="5.9503">
        <ele>598</ele>
        <time>2019-06-25T08:05:55Z</time>
      </trkpt>
      <trkpt lat="44.40399" lon="5.95033">
        <ele>598</ele>
        <time>2019-06-25T08:05:56Z</time>
      </trkpt>
      <trkpt lat="44.40403" lon="5.95036">
        <ele>598</ele>
        <time>2019-06-25T08:05:57Z</time>
      </trkpt>
      <trkpt lat="44.40407" lon="5.95039">
        <ele>598</ele>
        <time>2019-06-25T08:05:58Z</time>
      </trkpt>
      <trkpt lat="44.40411" lon="5.95041">
        <ele>598</ele>
        <time>2019-06-25T08:05:59Z</time>
      </trkpt>
      <trkpt lat="44.40414" lon="5.95044">
        <ele>598</ele>
        <time>2019-06-25T08:06:00Z</time>
      </trkpt>
      <trkpt lat="44.40418" lon="5.95047">
        <ele>598</ele>
        <time>2019-06-25T08:06:01Z</time>
      </trkpt>
      <trkpt lat="44.40422" lon="5.95049">
        <ele>598</ele>
        <time>2019-06-25T08:06:02Z</time>
      </trkpt>
      <trkpt lat="44.40425" lon="5.95052">
        <ele>598</ele>
        <time>2019-06-25T08:06:03Z</time>
      </trkpt>
      <trkpt lat="44.40429" lon="5.95054">
        <ele>598</ele>
        <time>2019-06-25T08:06:04Z</time>
      </trkpt>
      <trkpt lat="44.40432" lon="5.95056">
        <ele>598</ele>
        <time>2019-06-25T08:06:05Z</time>
      </trkpt>
      <trkpt lat="44.40436" lon="5.95058">
        <ele>598</ele>
        <time>2019-06-25T08:06:06Z</time>
      </trkpt>
      <trkpt lat="44.4044" lon="5.9506">
        <ele>598</ele>
        <time>2019-06-25T08:06:07Z</time>
      </trkpt>
      <trkpt lat="44.40443" lon="5.95062">
        <ele>598</ele>
        <time>2019-06-25T08:06:08Z</time>
      </trkpt>
      <trkpt lat="44.40447" lon="5.95064">
        <ele>598</ele>
        <time>2019-06-25T08:06:09Z</time>
      </trkpt>
      <trkpt lat="44.40451" lon="5.95066">
        <ele>598</ele>
        <time>2019-06-25T08:06:10Z</time>
      </trkpt>
      <trkpt lat="44.40454" lon="5.95069">
        <ele>598</ele>
        <time>2019-06-25T08:06:11Z</time>
      </trkpt>
      <trkpt lat="44.40458" lon="5.95071">
        <ele>598</ele>
        <time>2019-06-25T08:06:12Z</time>
      </trkpt>
      <trkpt lat="44.40462" lon="5.95073">
        <ele>598</ele>
        <time>2019-06-25T08:06:13Z</time>
      </trkpt>
      <trkpt lat="44.40465" lon="5.95075">
        <ele>598</ele>
        <time>2019-06-25T08:06:14Z</time>
      </trkpt>
      <trkpt lat="44.40469" lon="5.95077">
        <ele>598</ele>
        <time>2019-06-25T08:06:15Z</time>
      </trkpt>
      <trkpt lat="44.40473" lon="5.95079">
        <ele>598</ele>
        <time>2019-06-25T08:06:16Z</time>
      </trkpt>
      <trkpt lat="44.40476" lon="5.9508">
        <ele>598</ele>
        <time>2019-06-25T08:06:17Z</time>
      </trkpt>
      <trkpt lat="44.4048" lon="5.95082">
        <ele>598</ele>
        <time>2019-06-25T08:06:18Z</time>
      </trkpt>
      <trkpt lat="44.40483" lon="5.95084">
        <ele>598</ele>
        <time>2019-06-25T08:06:19Z</time>
      </trkpt>
      <trkpt lat="44.40487" lon="5.95084">
        <ele>598</ele>
        <time>2019-06-25T08:06:20Z</time>
      </trkpt>
      <trkpt lat="44.4049" lon="5.95085">
        <ele>598</ele>
        <time>2019-06-25T08:06:21Z</time>
      </trkpt>
      <trkpt lat="44.40494" lon="5.95085">
        <ele>598</ele>
        <time>2019-06-25T08:06:22Z</time>
      </trkpt>
      <trkpt lat="44.40497" lon="5.95085">
        <ele>598</ele>
        <time>2019-06-25T08:06:23Z</time>
      </trkpt>
      <trkpt lat="44.405" lon="5.95084">
        <ele>598</ele>
        <time>2019-06-25T08:06:24Z</time>
      </trkpt>
      <trkpt lat="44.40503" lon="5.95084">
        <ele>598</ele>
        <time>2019-06-25T08:06:25Z</time>
      </trkpt>
      <trkpt lat="44.40506" lon="5.95083">
        <ele>598</ele>
        <time>2019-06-25T08:06:26Z</time>
      </trkpt>
      <trkpt lat="44.40508" lon="5.95082">
        <ele>598</ele>
        <time>2019-06-25T08:06:27Z</time>
      </trkpt>
      <trkpt lat="44.40511" lon="5.95081">
        <ele>598</ele>
        <time>2019-06-25T08:06:28Z</time>
      </trkpt>
      <trkpt lat="44.40513" lon="5.95081">
        <ele>598</ele>
        <time>2019-06-25T08:06:29Z</time>
      </trkpt>
      <trkpt lat="44.40516" lon="5.95081">
        <ele>599</ele>
        <time>2019-06-25T08:06:30Z</time>
      </trkpt>
      <trkpt lat="44.40518" lon="5.9508">
        <ele>599</ele>
        <time>2019-06-25T08:06:31Z</time>
      </trkpt>
      <trkpt lat="44.4052" lon="5.9508">
        <ele>600</ele>
        <time>2019-06-25T08:06:33Z</time>
      </trkpt>
      <trkpt lat="44.40523" lon="5.95079">
        <ele>600</ele>
        <time>2019-06-25T08:06:33Z</time>
      </trkpt>
      <trkpt lat="44.40525" lon="5.95078">
        <ele>600</ele>
        <time>2019-06-25T08:06:34Z</time>
      </trkpt>
      <trkpt lat="44.40528" lon="5.95078">
        <ele>601</ele>
        <time>2019-06-25T08:06:35Z</time>
      </trkpt>
      <trkpt lat="44.4053" lon="5.95077">
        <ele>601</ele>
        <time>2019-06-25T08:06:36Z</time>
      </trkpt>
      <trkpt lat="44.40533" lon="5.95076">
        <ele>601</ele>
        <time>2019-06-25T08:06:37Z</time>
      </trkpt>
      <trkpt lat="44.40535" lon="5.95076">
        <ele>602</ele>
        <time>2019-06-25T08:06:38Z</time>
      </trkpt>
      <trkpt lat="44.40538" lon="5.95075">
        <ele>602</ele>
        <time>2019-06-25T08:06:39Z</time>
      </trkpt>
      <trkpt lat="44.4054" lon="5.95075">
        <ele>602</ele>
        <time>2019-06-25T08:06:40Z</time>
      </trkpt>
      <trkpt lat="44.40543" lon="5.95074">
        <ele>602</ele>
        <time>2019-06-25T08:06:41Z</time>
      </trkpt>
      <trkpt lat="44.40546" lon="5.95073">
        <ele>603</ele>
        <time>2019-06-25T08:06:42Z</time>
      </trkpt>
      <trkpt lat="44.40548" lon="5.95073">
        <ele>603</ele>
        <time>2019-06-25T08:06:43Z</time>
      </trkpt>
      <trkpt lat="44.40551" lon="5.95073">
        <ele>603</ele>
        <time>2019-06-25T08:06:44Z</time>
      </trkpt>
      <trkpt lat="44.40554" lon="5.95073">
        <ele>603</ele>
        <time>2019-06-25T08:06:45Z</time>
      </trkpt>
      <trkpt lat="44.40556" lon="5.95072">
        <ele>604</ele>
        <time>2019-06-25T08:06:46Z</time>
      </trkpt>
      <trkpt lat="44.40559" lon="5.95072">
        <ele>604</ele>
        <time>2019-06-25T08:06:47Z</time>
      </trkpt>
      <trkpt lat="44.40562" lon="5.95071">
        <ele>604</ele>
        <time>2019-06-25T08:06:48Z</time>
      </trkpt>
      <trkpt lat="44.40564" lon="5.95071">
        <ele>604</ele>
        <time>2019-06-25T08:06:49Z</time>
      </trkpt>
      <trkpt lat="44.40567" lon="5.95071">
        <ele>605</ele>
        <time>2019-06-25T08:06:50Z</time>
      </trkpt>
      <trkpt lat="44.4057" lon="5.95071">
        <ele>605</ele>
        <time>2019-06-25T08:06:51Z</time>
      </trkpt>
      <trkpt lat="44.40573" lon="5.95071">
        <ele>605</ele>
        <time>2019-06-25T08:06:52Z</time>
      </trkpt>
      <trkpt lat="44.40576" lon="5.95071">
        <ele>605</ele>
        <time>2019-06-25T08:06:53Z</time>
      </trkpt>
      <trkpt lat="44.40579" lon="5.95071">
        <ele>605</ele>
        <time>2019-06-25T08:06:54Z</time>
      </trkpt>
      <trkpt lat="44.40582" lon="5.9507">
        <ele>605</ele>
        <time>2019-06-25T08:06:55Z</time>
      </trkpt>
      <trkpt lat="44.40585" lon="5.9507">
        <ele>605</ele>
        <time>2019-06-25T08:06:56Z</time>
      </trkpt>
      <trkpt lat="44.40589" lon="5.95069">
        <ele>605</ele>
        <time>2019-06-25T08:06:57Z</time>
      </trkpt>
      <trkpt lat="44.40592" lon="5.95069">
        <ele>605</ele>
        <time>2019-06-25T08:06:58Z</time>
      </trkpt>
      <trkpt lat="44.40594" lon="5.95069">
        <ele>605</ele>
        <time>2019-06-25T08:06:59Z</time>
      </trkpt>
      <trkpt lat="44.40597" lon="5.95068">
        <ele>605</ele>
        <time>2019-06-25T08:07:00Z</time>
      </trkpt>
      <trkpt lat="44.40599" lon="5.95068">
        <ele>605</ele>
        <time>2019-06-25T08:07:01Z</time>
      </trkpt>
      <trkpt lat="44.40602" lon="5.95068">
        <ele>605</ele>
        <time>2019-06-25T08:07:02Z</time>
      </trkpt>
      <trkpt lat="44.40604" lon="5.95067">
        <ele>605</ele>
        <time>2019-06-25T08:07:03Z</time>
      </trkpt>
      <trkpt lat="44.40607" lon="5.95067">
        <ele>605</ele>
        <time>2019-06-25T08:07:04Z</time>
      </trkpt>
      <trkpt lat="44.40609" lon="5.95067">
        <ele>605</ele>
        <time>2019-06-25T08:07:05Z</time>
      </trkpt>
      <trkpt lat="44.40612" lon="5.95066">
        <ele>605</ele>
        <time>2019-06-25T08:07:06Z</time>
      </trkpt>
      <trkpt lat="44.40614" lon="5.95065">
        <ele>606</ele>
        <time>2019-06-25T08:07:07Z</time>
      </trkpt>
      <trkpt lat="44.40617" lon="5.95065">
        <ele>606</ele>
        <time>2019-06-25T08:07:08Z</time>
      </trkpt>
      <trkpt lat="44.40619" lon="5.95064">
        <ele>606</ele>
        <time>2019-06-25T08:07:09Z</time>
      </trkpt>
      <trkpt lat="44.40622" lon="5.95063">
        <ele>606</ele>
        <time>2019-06-25T08:07:10Z</time>
      </trkpt>
      <trkpt lat="44.40625" lon="5.95062">
        <ele>607</ele>
        <time>2019-06-25T08:07:11Z</time>
      </trkpt>
      <trkpt lat="44.40627" lon="5.95061">
        <ele>607</ele>
        <time>2019-06-25T08:07:12Z</time>
      </trkpt>
      <trkpt lat="44.4063" lon="5.9506">
        <ele>607</ele>
        <time>2019-06-25T08:07:13Z</time>
      </trkpt>
      <trkpt lat="44.40632" lon="5.95059">
        <ele>607</ele>
        <time>2019-06-25T08:07:14Z</time>
      </trkpt>
      <trkpt lat="44.40634" lon="5.95058">
        <ele>608</ele>
        <time>2019-06-25T08:07:15Z</time>
      </trkpt>
      <trkpt lat="44.40636" lon="5.95057">
        <ele>608</ele>
        <time>2019-06-25T08:07:16Z</time>
      </trkpt>
      <trkpt lat="44.40638" lon="5.95057">
        <ele>608</ele>
        <time>2019-06-25T08:07:17Z</time>
      </trkpt>
      <trkpt lat="44.4064" lon="5.95057">
        <ele>608</ele>
        <time>2019-06-25T08:07:18Z</time>
      </trkpt>
      <trkpt lat="44.40642" lon="5.95056">
        <ele>608</ele>
        <time>2019-06-25T08:07:19Z</time>
      </trkpt>
      <trkpt lat="44.40644" lon="5.95055">
        <ele>608</ele>
        <time>2019-06-25T08:07:20Z</time>
      </trkpt>
      <trkpt lat="44.40646" lon="5.95054">
        <ele>608</ele>
        <time>2019-06-25T08:07:21Z</time>
      </trkpt>
      <trkpt lat="44.40648" lon="5.95053">
        <ele>608</ele>
        <time>2019-06-25T08:07:22Z</time>
      </trkpt>
      <trkpt lat="44.4065" lon="5.95052">
        <ele>608</ele>
        <time>2019-06-25T08:07:23Z</time>
      </trkpt>
      <trkpt lat="44.40652" lon="5.9505">
        <ele>609</ele>
        <time>2019-06-25T08:07:24Z</time>
      </trkpt>
      <trkpt lat="44.40655" lon="5.95049">
        <ele>609</ele>
        <time>2019-06-25T08:07:25Z</time>
      </trkpt>
      <trkpt lat="44.40658" lon="5.95048">
        <ele>609</ele>
        <time>2019-06-25T08:07:26Z</time>
      </trkpt>
      <trkpt lat="44.4066" lon="5.95047">
        <ele>609</ele>
        <time>2019-06-25T08:07:27Z</time>
      </trkpt>
      <trkpt lat="44.40664" lon="5.95046">
        <ele>609</ele>
        <time>2019-06-25T08:07:28Z</time>
      </trkpt>
      <trkpt lat="44.40667" lon="5.95045">
        <ele>609</ele>
        <time>2019-06-25T08:07:29Z</time>
      </trkpt>
      <trkpt lat="44.4067" lon="5.95044">
        <ele>609</ele>
        <time>2019-06-25T08:07:30Z</time>
      </trkpt>
      <trkpt lat="44.40674" lon="5.95043">
        <ele>609</ele>
        <time>2019-06-25T08:07:31Z</time>
      </trkpt>
      <trkpt lat="44.40678" lon="5.95042">
        <ele>609</ele>
        <time>2019-06-25T08:07:33Z</time>
      </trkpt>
      <trkpt lat="44.40681" lon="5.95042">
        <ele>609</ele>
        <time>2019-06-25T08:07:33Z</time>
      </trkpt>
      <trkpt lat="44.40685" lon="5.95042">
        <ele>609</ele>
        <time>2019-06-25T08:07:34Z</time>
      </trkpt>
      <trkpt lat="44.40689" lon="5.95041">
        <ele>609</ele>
        <time>2019-06-25T08:07:35Z</time>
      </trkpt>
      <trkpt lat="44.40693" lon="5.95041">
        <ele>609</ele>
        <time>2019-06-25T08:07:37Z</time>
      </trkpt>
      <trkpt lat="44.40696" lon="5.9504">
        <ele>609</ele>
        <time>2019-06-25T08:07:37Z</time>
      </trkpt>
      <trkpt lat="44.407" lon="5.9504">
        <ele>609</ele>
        <time>2019-06-25T08:07:38Z</time>
      </trkpt>
      <trkpt lat="44.40704" lon="5.95039">
        <ele>609</ele>
        <time>2019-06-25T08:07:39Z</time>
      </trkpt>
      <trkpt lat="44.40708" lon="5.95039">
        <ele>609</ele>
        <time>2019-06-25T08:07:40Z</time>
      </trkpt>
      <trkpt lat="44.40712" lon="5.95039">
        <ele>609</ele>
        <time>2019-06-25T08:07:41Z</time>
      </trkpt>
      <trkpt lat="44.40715" lon="5.95038">
        <ele>610</ele>
        <time>2019-06-25T08:07:42Z</time>
      </trkpt>
      <trkpt lat="44.4072" lon="5.95038">
        <ele>610</ele>
        <time>2019-06-25T08:07:43Z</time>
      </trkpt>
      <trkpt lat="44.40723" lon="5.95038">
        <ele>610</ele>
        <time>2019-06-25T08:07:44Z</time>
      </trkpt>
      <trkpt lat="44.40728" lon="5.95037">
        <ele>610</ele>
        <time>2019-06-25T08:07:45Z</time>
      </trkpt>
      <trkpt lat="44.40732" lon="5.95037">
        <ele>610</ele>
        <time>2019-06-25T08:07:46Z</time>
      </trkpt>
      <trkpt lat="44.40736" lon="5.95036">
        <ele>610</ele>
        <time>2019-06-25T08:07:47Z</time>
      </trkpt>
      <trkpt lat="44.40741" lon="5.95037">
        <ele>610</ele>
        <time>2019-06-25T08:07:48Z</time>
      </trkpt>
      <trkpt lat="44.40745" lon="5.95037">
        <ele>610</ele>
        <time>2019-06-25T08:07:49Z</time>
      </trkpt>
      <trkpt lat="44.4075" lon="5.95036">
        <ele>610</ele>
        <time>2019-06-25T08:07:50Z</time>
      </trkpt>
      <trkpt lat="44.40754" lon="5.95035">
        <ele>610</ele>
        <time>2019-06-25T08:07:51Z</time>
      </trkpt>
      <trkpt lat="44.40759" lon="5.95034">
        <ele>610</ele>
        <time>2019-06-25T08:07:52Z</time>
      </trkpt>
      <trkpt lat="44.40764" lon="5.95034">
        <ele>610</ele>
        <time>2019-06-25T08:07:53Z</time>
      </trkpt>
      <trkpt lat="44.40769" lon="5.95033">
        <ele>610</ele>
        <time>2019-06-25T08:07:54Z</time>
      </trkpt>
      <trkpt lat="44.40774" lon="5.95033">
        <ele>610</ele>
        <time>2019-06-25T08:07:55Z</time>
      </trkpt>
      <trkpt lat="44.40779" lon="5.95033">
        <ele>610</ele>
        <time>2019-06-25T08:07:56Z</time>
      </trkpt>
      <trkpt lat="44.40784" lon="5.95032">
        <ele>610</ele>
        <time>2019-06-25T08:07:57Z</time>
      </trkpt>
      <trkpt lat="44.40789" lon="5.95032">
        <ele>610</ele>
        <time>2019-06-25T08:07:58Z</time>
      </trkpt>
      <trkpt lat="44.40794" lon="5.95033">
        <ele>610</ele>
        <time>2019-06-25T08:07:59Z</time>
      </trkpt>
      <trkpt lat="44.40799" lon="5.95033">
        <ele>610</ele>
        <time>2019-06-25T08:08:00Z</time>
      </trkpt>
      <trkpt lat="44.40804" lon="5.95034">
        <ele>610</ele>
        <time>2019-06-25T08:08:01Z</time>
      </trkpt>
      <trkpt lat="44.4081" lon="5.95035">
        <ele>610</ele>
        <time>2019-06-25T08:08:02Z</time>
      </trkpt>
      <trkpt lat="44.40815" lon="5.95036">
        <ele>609</ele>
        <time>2019-06-25T08:08:03Z</time>
      </trkpt>
      <trkpt lat="44.4082" lon="5.95037">
        <ele>609</ele>
        <time>2019-06-25T08:08:04Z</time>
      </trkpt>
      <trkpt lat="44.40826" lon="5.95038">
        <ele>609</ele>
        <time>2019-06-25T08:08:05Z</time>
      </trkpt>
      <trkpt lat="44.40831" lon="5.95038">
        <ele>609</ele>
        <time>2019-06-25T08:08:06Z</time>
      </trkpt>
      <trkpt lat="44.40837" lon="5.95039">
        <ele>609</ele>
        <time>2019-06-25T08:08:07Z</time>
      </trkpt>
      <trkpt lat="44.40842" lon="5.9504">
        <ele>609</ele>
        <time>2019-06-25T08:08:08Z</time>
      </trkpt>
      <trkpt lat="44.40848" lon="5.95041">
        <ele>609</ele>
        <time>2019-06-25T08:08:09Z</time>
      </trkpt>
      <trkpt lat="44.40854" lon="5.95041">
        <ele>609</ele>
        <time>2019-06-25T08:08:10Z</time>
      </trkpt>
      <trkpt lat="44.40859" lon="5.95041">
        <ele>609</ele>
        <time>2019-06-25T08:08:11Z</time>
      </trkpt>
      <trkpt lat="44.40865" lon="5.9504">
        <ele>609</ele>
        <time>2019-06-25T08:08:12Z</time>
      </trkpt>
      <trkpt lat="44.4087" lon="5.95038">
        <ele>609</ele>
        <time>2019-06-25T08:08:13Z</time>
      </trkpt>
      <trkpt lat="44.40875" lon="5.95035">
        <ele>609</ele>
        <time>2019-06-25T08:08:14Z</time>
      </trkpt>
      <trkpt lat="44.4088" lon="5.95032">
        <ele>609</ele>
        <time>2019-06-25T08:08:15Z</time>
      </trkpt>
      <trkpt lat="44.40885" lon="5.95029">
        <ele>609</ele>
        <time>2019-06-25T08:08:16Z</time>
      </trkpt>
      <trkpt lat="44.40889" lon="5.95026">
        <ele>609</ele>
        <time>2019-06-25T08:08:17Z</time>
      </trkpt>
      <trkpt lat="44.40893" lon="5.95024">
        <ele>609</ele>
        <time>2019-06-25T08:08:18Z</time>
      </trkpt>
      <trkpt lat="44.40897" lon="5.95022">
        <ele>609</ele>
        <time>2019-06-25T08:08:19Z</time>
      </trkpt>
      <trkpt lat="44.40901" lon="5.9502">
        <ele>609</ele>
        <time>2019-06-25T08:08:20Z</time>
      </trkpt>
      <trkpt lat="44.40905" lon="5.95018">
        <ele>609</ele>
        <time>2019-06-25T08:08:21Z</time>
      </trkpt>
      <trkpt lat="44.40908" lon="5.95017">
        <ele>609</ele>
        <time>2019-06-25T08:08:22Z</time>
      </trkpt>
      <trkpt lat="44.40911" lon="5.95016">
        <ele>609</ele>
        <time>2019-06-25T08:08:23Z</time>
      </trkpt>
      <trkpt lat="44.40914" lon="5.95015">
        <ele>610</ele>
        <time>2019-06-25T08:08:24Z</time>
      </trkpt>
      <trkpt lat="44.40918" lon="5.95014">
        <ele>610</ele>
        <time>2019-06-25T08:08:25Z</time>
      </trkpt>
      <trkpt lat="44.40922" lon="5.95015">
        <ele>611</ele>
        <time>2019-06-25T08:08:26Z</time>
      </trkpt>
      <trkpt lat="44.40925" lon="5.95015">
        <ele>612</ele>
        <time>2019-06-25T08:08:27Z</time>
      </trkpt>
      <trkpt lat="44.40929" lon="5.95016">
        <ele>612</ele>
        <time>2019-06-25T08:08:28Z</time>
      </trkpt>
      <trkpt lat="44.40932" lon="5.95017">
        <ele>612</ele>
        <time>2019-06-25T08:08:29Z</time>
      </trkpt>
      <trkpt lat="44.40936" lon="5.95018">
        <ele>612</ele>
        <time>2019-06-25T08:08:30Z</time>
      </trkpt>
      <trkpt lat="44.40939" lon="5.9502">
        <ele>612</ele>
        <time>2019-06-25T08:08:31Z</time>
      </trkpt>
      <trkpt lat="44.40943" lon="5.95022">
        <ele>612</ele>
        <time>2019-06-25T08:08:32Z</time>
      </trkpt>
      <trkpt lat="44.40945" lon="5.95025">
        <ele>612</ele>
        <time>2019-06-25T08:08:33Z</time>
      </trkpt>
      <trkpt lat="44.40948" lon="5.95027">
        <ele>613</ele>
        <time>2019-06-25T08:08:34Z</time>
      </trkpt>
      <trkpt lat="44.40951" lon="5.95029">
        <ele>613</ele>
        <time>2019-06-25T08:08:35Z</time>
      </trkpt>
      <trkpt lat="44.40953" lon="5.95031">
        <ele>614</ele>
        <time>2019-06-25T08:08:36Z</time>
      </trkpt>
      <trkpt lat="44.40956" lon="5.95034">
        <ele>615</ele>
        <time>2019-06-25T08:08:37Z</time>
      </trkpt>
      <trkpt lat="44.40958" lon="5.95036">
        <ele>615</ele>
        <time>2019-06-25T08:08:38Z</time>
      </trkpt>
      <trkpt lat="44.40961" lon="5.95038">
        <ele>616</ele>
        <time>2019-06-25T08:08:39Z</time>
      </trkpt>
      <trkpt lat="44.40964" lon="5.9504">
        <ele>616</ele>
        <time>2019-06-25T08:08:40Z</time>
      </trkpt>
      <trkpt lat="44.40967" lon="5.95042">
        <ele>617</ele>
        <time>2019-06-25T08:08:41Z</time>
      </trkpt>
      <trkpt lat="44.40969" lon="5.95044">
        <ele>617</ele>
        <time>2019-06-25T08:08:42Z</time>
      </trkpt>
      <trkpt lat="44.40971" lon="5.95045">
        <ele>618</ele>
        <time>2019-06-25T08:08:43Z</time>
      </trkpt>
      <trkpt lat="44.40974" lon="5.95047">
        <ele>618</ele>
        <time>2019-06-25T08:08:44Z</time>
      </trkpt>
      <trkpt lat="44.40976" lon="5.95049">
        <ele>618</ele>
        <time>2019-06-25T08:08:45Z</time>
      </trkpt>
      <trkpt lat="44.40979" lon="5.95051">
        <ele>618</ele>
        <time>2019-06-25T08:08:46Z</time>
      </trkpt>
      <trkpt lat="44.40982" lon="5.95052">
        <ele>619</ele>
        <time>2019-06-25T08:08:47Z</time>
      </trkpt>
      <trkpt lat="44.40985" lon="5.95054">
        <ele>619</ele>
        <time>2019-06-25T08:08:48Z</time>
      </trkpt>
      <trkpt lat="44.40988" lon="5.95055">
        <ele>619</ele>
        <time>2019-06-25T08:08:49Z</time>
      </trkpt>
      <trkpt lat="44.4099" lon="5.95057">
        <ele>619</ele>
        <time>2019-06-25T08:08:50Z</time>
      </trkpt>
      <trkpt lat="44.40992" lon="5.95058">
        <ele>620</ele>
        <time>2019-06-25T08:08:51Z</time>
      </trkpt>
      <trkpt lat="44.40995" lon="5.9506">
        <ele>620</ele>
        <time>2019-06-25T08:08:52Z</time>
      </trkpt>
      <trkpt lat="44.40997" lon="5.95061">
        <ele>620</ele>
        <time>2019-06-25T08:08:53Z</time>
      </trkpt>
      <trkpt lat="44.41" lon="5.95062">
        <ele>620</ele>
        <time>2019-06-25T08:08:54Z</time>
      </trkpt>
      <trkpt lat="44.41003" lon="5.95063">
        <ele>620</ele>
        <time>2019-06-25T08:08:55Z</time>
      </trkpt>
      <trkpt lat="44.41006" lon="5.95064">
        <ele>621</ele>
        <time>2019-06-25T08:08:56Z</time>
      </trkpt>
      <trkpt lat="44.41009" lon="5.95065">
        <ele>621</ele>
        <time>2019-06-25T08:08:57Z</time>
      </trkpt>
      <trkpt lat="44.41012" lon="5.95066">
        <ele>621</ele>
        <time>2019-06-25T08:08:58Z</time>
      </trkpt>
      <trkpt lat="44.41014" lon="5.95067">
        <ele>621</ele>
        <time>2019-06-25T08:08:59Z</time>
      </trkpt>
      <trkpt lat="44.41017" lon="5.95068">
        <ele>622</ele>
        <time>2019-06-25T08:09:00Z</time>
      </trkpt>
      <trkpt lat="44.41019" lon="5.95069">
        <ele>622</ele>
        <time>2019-06-25T08:09:01Z</time>
      </trkpt>
      <trkpt lat="44.41022" lon="5.9507">
        <ele>622</ele>
        <time>2019-06-25T08:09:02Z</time>
      </trkpt>
      <trkpt lat="44.41024" lon="5.95071">
        <ele>622</ele>
        <time>2019-06-25T08:09:03Z</time>
      </trkpt>
      <trkpt lat="44.41027" lon="5.95071">
        <ele>623</ele>
        <time>2019-06-25T08:09:04Z</time>
      </trkpt>
      <trkpt lat="44.4103" lon="5.95072">
        <ele>623</ele>
        <time>2019-06-25T08:09:05Z</time>
      </trkpt>
      <trkpt lat="44.41032" lon="5.95073">
        <ele>623</ele>
        <time>2019-06-25T08:09:06Z</time>
      </trkpt>
      <trkpt lat="44.41035" lon="5.95074">
        <ele>623</ele>
        <time>2019-06-25T08:09:07Z</time>
      </trkpt>
      <trkpt lat="44.41037" lon="5.95075">
        <ele>623</ele>
        <time>2019-06-25T08:09:08Z</time>
      </trkpt>
      <trkpt lat="44.4104" lon="5.95076">
        <ele>623</ele>
        <time>2019-06-25T08:09:09Z</time>
      </trkpt>
      <trkpt lat="44.41042" lon="5.95077">
        <ele>623</ele>
        <time>2019-06-25T08:09:10Z</time>
      </trkpt>
      <trkpt lat="44.41045" lon="5.95078">
        <ele>623</ele>
        <time>2019-06-25T08:09:11Z</time>
      </trkpt>
      <trkpt lat="44.41048" lon="5.95079">
        <ele>623</ele>
        <time>2019-06-25T08:09:12Z</time>
      </trkpt>
      <trkpt lat="44.4105" lon="5.9508">
        <ele>623</ele>
        <time>2019-06-25T08:09:13Z</time>
      </trkpt>
      <trkpt lat="44.41053" lon="5.95081">
        <ele>623</ele>
        <time>2019-06-25T08:09:14Z</time>
      </trkpt>
      <trkpt lat="44.41056" lon="5.95082">
        <ele>623</ele>
        <time>2019-06-25T08:09:15Z</time>
      </trkpt>
      <trkpt lat="44.41058" lon="5.95082">
        <ele>623</ele>
        <time>2019-06-25T08:09:16Z</time>
      </trkpt>
      <trkpt lat="44.41061" lon="5.95083">
        <ele>623</ele>
        <time>2019-06-25T08:09:17Z</time>
      </trkpt>
      <trkpt lat="44.41063" lon="5.95084">
        <ele>623</ele>
        <time>2019-06-25T08:09:18Z</time>
      </trkpt>
      <trkpt lat="44.41066" lon="5.95085">
        <ele>624</ele>
        <time>2019-06-25T08:09:19Z</time>
      </trkpt>
      <trkpt lat="44.41068" lon="5.95086">
        <ele>624</ele>
        <time>2019-06-25T08:09:20Z</time>
      </trkpt>
      <trkpt lat="44.41071" lon="5.95087">
        <ele>624</ele>
        <time>2019-06-25T08:09:21Z</time>
      </trkpt>
      <trkpt lat="44.41073" lon="5.95087">
        <ele>624</ele>
        <time>2019-06-25T08:09:22Z</time>
      </trkpt>
      <trkpt lat="44.41076" lon="5.95088">
        <ele>624</ele>
        <time>2019-06-25T08:09:23Z</time>
      </trkpt>
      <trkpt lat="44.41078" lon="5.95089">
        <ele>624</ele>
        <time>2019-06-25T08:09:24Z</time>
      </trkpt>
      <trkpt lat="44.41081" lon="5.95089">
        <ele>624</ele>
        <time>2019-06-25T08:09:25Z</time>
      </trkpt>
      <trkpt lat="44.41084" lon="5.9509">
        <ele>624</ele>
        <time>2019-06-25T08:09:26Z</time>
      </trkpt>
      <trkpt lat="44.41087" lon="5.9509">
        <ele>624</ele>
        <time>2019-06-25T08:09:27Z</time>
      </trkpt>
      <trkpt lat="44.41089" lon="5.9509">
        <ele>624</ele>
        <time>2019-06-25T08:09:28Z</time>
      </trkpt>
      <trkpt lat="44.41092" lon="5.9509">
        <ele>624</ele>
        <time>2019-06-25T08:09:29Z</time>
      </trkpt>
      <trkpt lat="44.41094" lon="5.95091">
        <ele>624</ele>
        <time>2019-06-25T08:09:30Z</time>
      </trkpt>
      <trkpt lat="44.41096" lon="5.9509">
        <ele>625</ele>
        <time>2019-06-25T08:09:31Z</time>
      </trkpt>
      <trkpt lat="44.41098" lon="5.9509">
        <ele>625</ele>
        <time>2019-06-25T08:09:33Z</time>
      </trkpt>
      <trkpt lat="44.41101" lon="5.9509">
        <ele>625</ele>
        <time>2019-06-25T08:09:33Z</time>
      </trkpt>
      <trkpt lat="44.41103" lon="5.95089">
        <ele>625</ele>
        <time>2019-06-25T08:09:34Z</time>
      </trkpt>
      <trkpt lat="44.41106" lon="5.95088">
        <ele>626</ele>
        <time>2019-06-25T08:09:35Z</time>
      </trkpt>
      <trkpt lat="44.41108" lon="5.95088">
        <ele>626</ele>
        <time>2019-06-25T08:09:36Z</time>
      </trkpt>
      <trkpt lat="44.41111" lon="5.95087">
        <ele>626</ele>
        <time>2019-06-25T08:09:37Z</time>
      </trkpt>
      <trkpt lat="44.41114" lon="5.95086">
        <ele>626</ele>
        <time>2019-06-25T08:09:38Z</time>
      </trkpt>
      <trkpt lat="44.41116" lon="5.95086">
        <ele>627</ele>
        <time>2019-06-25T08:09:39Z</time>
      </trkpt>
      <trkpt lat="44.41119" lon="5.95085">
        <ele>627</ele>
        <time>2019-06-25T08:09:40Z</time>
      </trkpt>
      <trkpt lat="44.41121" lon="5.95085">
        <ele>627</ele>
        <time>2019-06-25T08:09:41Z</time>
      </trkpt>
      <trkpt lat="44.41123" lon="5.95085">
        <ele>627</ele>
        <time>2019-06-25T08:09:42Z</time>
      </trkpt>
      <trkpt lat="44.41125" lon="5.95084">
        <ele>627</ele>
        <time>2019-06-25T08:09:43Z</time>
      </trkpt>
      <trkpt lat="44.41127" lon="5.95083">
        <ele>628</ele>
        <time>2019-06-25T08:09:44Z</time>
      </trkpt>
      <trkpt lat="44.4113" lon="5.95082">
        <ele>628</ele>
        <time>2019-06-25T08:09:45Z</time>
      </trkpt>
      <trkpt lat="44.41132" lon="5.95081">
        <ele>628</ele>
        <time>2019-06-25T08:09:46Z</time>
      </trkpt>
      <trkpt lat="44.41134" lon="5.95081">
        <ele>629</ele>
        <time>2019-06-25T08:09:47Z</time>
      </trkpt>
      <trkpt lat="44.41137" lon="5.9508">
        <ele>630</ele>
        <time>2019-06-25T08:09:48Z</time>
      </trkpt>
      <trkpt lat="44.41139" lon="5.95079">
        <ele>631</ele>
        <time>2019-06-25T08:09:49Z</time>
      </trkpt>
      <trkpt lat="44.41141" lon="5.95079">
        <ele>631</ele>
        <time>2019-06-25T08:09:50Z</time>
      </trkpt>
      <trkpt lat="44.41143" lon="5.95078">
        <ele>632</ele>
        <time>2019-06-25T08:09:51Z</time>
      </trkpt>
      <trkpt lat="44.41145" lon="5.95078">
        <ele>633</ele>
        <time>2019-06-25T08:09:52Z</time>
      </trkpt>
      <trkpt lat="44.41147" lon="5.95077">
        <ele>634</ele>
        <time>2019-06-25T08:09:53Z</time>
      </trkpt>
      <trkpt lat="44.41148" lon="5.95076">
        <ele>634</ele>
        <time>2019-06-25T08:09:54Z</time>
      </trkpt>
      <trkpt lat="44.4115" lon="5.95075">
        <ele>634</ele>
        <time>2019-06-25T08:09:55Z</time>
      </trkpt>
      <trkpt lat="44.41151" lon="5.95075">
        <ele>634</ele>
        <time>2019-06-25T08:09:56Z</time>
      </trkpt>
      <trkpt lat="44.41153" lon="5.95074">
        <ele>634</ele>
        <time>2019-06-25T08:09:57Z</time>
      </trkpt>
      <trkpt lat="44.41155" lon="5.95074">
        <ele>634</ele>
        <time>2019-06-25T08:09:58Z</time>
      </trkpt>
      <trkpt lat="44.41156" lon="5.95074">
        <ele>635</ele>
        <time>2019-06-25T08:09:59Z</time>
      </trkpt>
      <trkpt lat="44.41158" lon="5.95074">
        <ele>635</ele>
        <time>2019-06-25T08:10:00Z</time>
      </trkpt>
      <trkpt lat="44.4116" lon="5.95074">
        <ele>635</ele>
        <time>2019-06-25T08:10:01Z</time>
      </trkpt>
      <trkpt lat="44.41161" lon="5.95073">
        <ele>635</ele>
        <time>2019-06-25T08:10:02Z</time>
      </trkpt>
      <trkpt lat="44.41164" lon="5.95073">
        <ele>636</ele>
        <time>2019-06-25T08:10:03Z</time>
      </trkpt>
      <trkpt lat="44.41166" lon="5.95072">
        <ele>636</ele>
        <time>2019-06-25T08:10:04Z</time>
      </trkpt>
      <trkpt lat="44.41168" lon="5.95072">
        <ele>636</ele>
        <time>2019-06-25T08:10:05Z</time>
      </trkpt>
      <trkpt lat="44.4117" lon="5.95072">
        <ele>636</ele>
        <time>2019-06-25T08:10:06Z</time>
      </trkpt>
      <trkpt lat="44.41172" lon="5.95072">
        <ele>636</ele>
        <time>2019-06-25T08:10:07Z</time>
      </trkpt>
      <trkpt lat="44.41174" lon="5.95071">
        <ele>636</ele>
        <time>2019-06-25T08:10:08Z</time>
      </trkpt>
      <trkpt lat="44.41176" lon="5.95071">
        <ele>636</ele>
        <time>2019-06-25T08:10:09Z</time>
      </trkpt>
      <trkpt lat="44.41179" lon="5.95071">
        <ele>636</ele>
        <time>2019-06-25T08:10:10Z</time>
      </trkpt>
      <trkpt lat="44.41181" lon="5.95071">
        <ele>636</ele>
        <time>2019-06-25T08:10:11Z</time>
      </trkpt>
      <trkpt lat="44.41183" lon="5.95071">
        <ele>636</ele>
        <time>2019-06-25T08:10:12Z</time>
      </trkpt>
      <trkpt lat="44.41186" lon="5.95071">
        <ele>636</ele>
        <time>2019-06-25T08:10:13Z</time>
      </trkpt>
      <trkpt lat="44.41188" lon="5.95071">
        <ele>636</ele>
        <time>2019-06-25T08:10:14Z</time>
      </trkpt>
      <trkpt lat="44.41191" lon="5.9507">
        <ele>636</ele>
        <time>2019-06-25T08:10:15Z</time>
      </trkpt>
      <trkpt lat="44.41194" lon="5.9507">
        <ele>636</ele>
        <time>2019-06-25T08:10:16Z</time>
      </trkpt>
      <trkpt lat="44.41197" lon="5.9507">
        <ele>636</ele>
        <time>2019-06-25T08:10:17Z</time>
      </trkpt>
      <trkpt lat="44.412" lon="5.9507">
        <ele>636</ele>
        <time>2019-06-25T08:10:18Z</time>
      </trkpt>
      <trkpt lat="44.41203" lon="5.95069">
        <ele>636</ele>
        <time>2019-06-25T08:10:19Z</time>
      </trkpt>
      <trkpt lat="44.41207" lon="5.95069">
        <ele>636</ele>
        <time>2019-06-25T08:10:20Z</time>
      </trkpt>
      <trkpt lat="44.4121" lon="5.95069">
        <ele>636</ele>
        <time>2019-06-25T08:10:21Z</time>
      </trkpt>
      <trkpt lat="44.41214" lon="5.95068">
        <ele>636</ele>
        <time>2019-06-25T08:10:22Z</time>
      </trkpt>
      <trkpt lat="44.41217" lon="5.95068">
        <ele>636</ele>
        <time>2019-06-25T08:10:23Z</time>
      </trkpt>
      <trkpt lat="44.41221" lon="5.95067">
        <ele>636</ele>
        <time>2019-06-25T08:10:24Z</time>
      </trkpt>
      <trkpt lat="44.41225" lon="5.95066">
        <ele>636</ele>
        <time>2019-06-25T08:10:25Z</time>
      </trkpt>
      <trkpt lat="44.41229" lon="5.95065">
        <ele>636</ele>
        <time>2019-06-25T08:10:26Z</time>
      </trkpt>
      <trkpt lat="44.41234" lon="5.95064">
        <ele>636</ele>
        <time>2019-06-25T08:10:27Z</time>
      </trkpt>
      <trkpt lat="44.41238" lon="5.95062">
        <ele>636</ele>
        <time>2019-06-25T08:10:28Z</time>
      </trkpt>
      <trkpt lat="44.41243" lon="5.95061">
        <ele>636</ele>
        <time>2019-06-25T08:10:29Z</time>
      </trkpt>
      <trkpt lat="44.41248" lon="5.95059">
        <ele>636</ele>
        <time>2019-06-25T08:10:30Z</time>
      </trkpt>
      <trkpt lat="44.41252" lon="5.95057">
        <ele>636</ele>
        <time>2019-06-25T08:10:31Z</time>
      </trkpt>
      <trkpt lat="44.41256" lon="5.95056">
        <ele>636</ele>
        <time>2019-06-25T08:10:32Z</time>
      </trkpt>
      <trkpt lat="44.41261" lon="5.95054">
        <ele>636</ele>
        <time>2019-06-25T08:10:33Z</time>
      </trkpt>
      <trkpt lat="44.41265" lon="5.95052">
        <ele>636</ele>
        <time>2019-06-25T08:10:34Z</time>
      </trkpt>
      <trkpt lat="44.4127" lon="5.95051">
        <ele>636</ele>
        <time>2019-06-25T08:10:35Z</time>
      </trkpt>
      <trkpt lat="44.41275" lon="5.95049">
        <ele>636</ele>
        <time>2019-06-25T08:10:36Z</time>
      </trkpt>
      <trkpt lat="44.41279" lon="5.95048">
        <ele>636</ele>
        <time>2019-06-25T08:10:37Z</time>
      </trkpt>
      <trkpt lat="44.41284" lon="5.95046">
        <ele>636</ele>
        <time>2019-06-25T08:10:38Z</time>
      </trkpt>
      <trkpt lat="44.41288" lon="5.95044">
        <ele>636</ele>
        <time>2019-06-25T08:10:39Z</time>
      </trkpt>
      <trkpt lat="44.41293" lon="5.95042">
        <ele>636</ele>
        <time>2019-06-25T08:10:40Z</time>
      </trkpt>
      <trkpt lat="44.41298" lon="5.9504">
        <ele>636</ele>
        <time>2019-06-25T08:10:41Z</time>
      </trkpt>
      <trkpt lat="44.41303" lon="5.95039">
        <ele>636</ele>
        <time>2019-06-25T08:10:42Z</time>
      </trkpt>
      <trkpt lat="44.41307" lon="5.95037">
        <ele>636</ele>
        <time>2019-06-25T08:10:43Z</time>
      </trkpt>
      <trkpt lat="44.41312" lon="5.95035">
        <ele>636</ele>
        <time>2019-06-25T08:10:44Z</time>
      </trkpt>
      <trkpt lat="44.41317" lon="5.95034">
        <ele>636</ele>
        <time>2019-06-25T08:10:45Z</time>
      </trkpt>
      <trkpt lat="44.41322" lon="5.95031">
        <ele>636</ele>
        <time>2019-06-25T08:10:46Z</time>
      </trkpt>
      <trkpt lat="44.41326" lon="5.95029">
        <ele>636</ele>
        <time>2019-06-25T08:10:47Z</time>
      </trkpt>
      <trkpt lat="44.41331" lon="5.95027">
        <ele>636</ele>
        <time>2019-06-25T08:10:48Z</time>
      </trkpt>
      <trkpt lat="44.41336" lon="5.95025">
        <ele>636</ele>
        <time>2019-06-25T08:10:49Z</time>
      </trkpt>
      <trkpt lat="44.4134" lon="5.95023">
        <ele>636</ele>
        <time>2019-06-25T08:10:50Z</time>
      </trkpt>
      <trkpt lat="44.41344" lon="5.95021">
        <ele>636</ele>
        <time>2019-06-25T08:10:51Z</time>
      </trkpt>
      <trkpt lat="44.41349" lon="5.95019">
        <ele>636</ele>
        <time>2019-06-25T08:10:52Z</time>
      </trkpt>
      <trkpt lat="44.41353" lon="5.95017">
        <ele>636</ele>
        <time>2019-06-25T08:10:53Z</time>
      </trkpt>
      <trkpt lat="44.41358" lon="5.95016">
        <ele>636</ele>
        <time>2019-06-25T08:10:54Z</time>
      </trkpt>
      <trkpt lat="44.41363" lon="5.95015">
        <ele>636</ele>
        <time>2019-06-25T08:10:55Z</time>
      </trkpt>
      <trkpt lat="44.41367" lon="5.95014">
        <ele>636</ele>
        <time>2019-06-25T08:10:56Z</time>
      </trkpt>
      <trkpt lat="44.41371" lon="5.95013">
        <ele>636</ele>
        <time>2019-06-25T08:10:57Z</time>
      </trkpt>
      <trkpt lat="44.41376" lon="5.95013">
        <ele>636</ele>
        <time>2019-06-25T08:10:58Z</time>
      </trkpt>
      <trkpt lat="44.41381" lon="5.95013">
        <ele>636</ele>
        <time>2019-06-25T08:10:59Z</time>
      </trkpt>
      <trkpt lat="44.41387" lon="5.95013">
        <ele>636</ele>
        <time>2019-06-25T08:11:00Z</time>
      </trkpt>
      <trkpt lat="44.41392" lon="5.95013">
        <ele>636</ele>
        <time>2019-06-25T08:11:01Z</time>
      </trkpt>
      <trkpt lat="44.41398" lon="5.95014">
        <ele>636</ele>
        <time>2019-06-25T08:11:02Z</time>
      </trkpt>
      <trkpt lat="44.41404" lon="5.95014">
        <ele>636</ele>
        <time>2019-06-25T08:11:03Z</time>
      </trkpt>
      <trkpt lat="44.41409" lon="5.95014">
        <ele>636</ele>
        <time>2019-06-25T08:11:04Z</time>
      </trkpt>
      <trkpt lat="44.41415" lon="5.95015">
        <ele>636</ele>
        <time>2019-06-25T08:11:05Z</time>
      </trkpt>
      <trkpt lat="44.41421" lon="5.95015">
        <ele>636</ele>
        <time>2019-06-25T08:11:06Z</time>
      </trkpt>
      <trkpt lat="44.41428" lon="5.95016">
        <ele>636</ele>
        <time>2019-06-25T08:11:07Z</time>
      </trkpt>
      <trkpt lat="44.41434" lon="5.95016">
        <ele>636</ele>
        <time>2019-06-25T08:11:08Z</time>
      </trkpt>
      <trkpt lat="44.4144" lon="5.95017">
        <ele>636</ele>
        <time>2019-06-25T08:11:09Z</time>
      </trkpt>
      <trkpt lat="44.41446" lon="5.95018">
        <ele>636</ele>
        <time>2019-06-25T08:11:10Z</time>
      </trkpt>
      <trkpt lat="44.41452" lon="5.95019">
        <ele>636</ele>
        <time>2019-06-25T08:11:11Z</time>
      </trkpt>
      <trkpt lat="44.41457" lon="5.95019">
        <ele>636</ele>
        <time>2019-06-25T08:11:12Z</time>
      </trkpt>
      <trkpt lat="44.41461" lon="5.95017">
        <ele>636</ele>
        <time>2019-06-25T08:11:13Z</time>
      </trkpt>
      <trkpt lat="44.41465" lon="5.95014">
        <ele>636</ele>
        <time>2019-06-25T08:11:14Z</time>
      </trkpt>
      <trkpt lat="44.41469" lon="5.95009">
        <ele>636</ele>
        <time>2019-06-25T08:11:15Z</time>
      </trkpt>
      <trkpt lat="44.41471" lon="5.95003">
        <ele>636</ele>
        <time>2019-06-25T08:11:16Z</time>
      </trkpt>
      <trkpt lat="44.41473" lon="5.94997">
        <ele>636</ele>
        <time>2019-06-25T08:11:17Z</time>
      </trkpt>
      <trkpt lat="44.41475" lon="5.9499">
        <ele>636</ele>
        <time>2019-06-25T08:11:18Z</time>
      </trkpt>
      <trkpt lat="44.41476" lon="5.94983">
        <ele>636</ele>
        <time>2019-06-25T08:11:19Z</time>
      </trkpt>
      <trkpt lat="44.41477" lon="5.94977">
        <ele>636</ele>
        <time>2019-06-25T08:11:20Z</time>
      </trkpt>
      <trkpt lat="44.41478" lon="5.9497">
        <ele>636</ele>
        <time>2019-06-25T08:11:21Z</time>
      </trkpt>
      <trkpt lat="44.41479" lon="5.94963">
        <ele>636</ele>
        <time>2019-06-25T08:11:22Z</time>
      </trkpt>
      <trkpt lat="44.4148" lon="5.94957">
        <ele>636</ele>
        <time>2019-06-25T08:11:23Z</time>
      </trkpt>
      <trkpt lat="44.41481" lon="5.9495">
        <ele>636</ele>
        <time>2019-06-25T08:11:24Z</time>
      </trkpt>
      <trkpt lat="44.41483" lon="5.94944">
        <ele>636</ele>
        <time>2019-06-25T08:11:25Z</time>
      </trkpt>
      <trkpt lat="44.41485" lon="5.94937">
        <ele>636</ele>
        <time>2019-06-25T08:11:26Z</time>
      </trkpt>
      <trkpt lat="44.41486" lon="5.9493">
        <ele>636</ele>
        <time>2019-06-25T08:11:27Z</time>
      </trkpt>
      <trkpt lat="44.41488" lon="5.94924">
        <ele>636</ele>
        <time>2019-06-25T08:11:28Z</time>
      </trkpt>
      <trkpt lat="44.41489" lon="5.94917">
        <ele>636</ele>
        <time>2019-06-25T08:11:29Z</time>
      </trkpt>
      <trkpt lat="44.4149" lon="5.94911">
        <ele>636</ele>
        <time>2019-06-25T08:11:30Z</time>
      </trkpt>
      <trkpt lat="44.41491" lon="5.94906">
        <ele>636</ele>
        <time>2019-06-25T08:11:31Z</time>
      </trkpt>
      <trkpt lat="44.41491" lon="5.949">
        <ele>636</ele>
        <time>2019-06-25T08:11:33Z</time>
      </trkpt>
      <trkpt lat="44.41491" lon="5.94893">
        <ele>636</ele>
        <time>2019-06-25T08:11:33Z</time>
      </trkpt>
      <trkpt lat="44.4149" lon="5.94887">
        <ele>636</ele>
        <time>2019-06-25T08:11:34Z</time>
      </trkpt>
      <trkpt lat="44.41489" lon="5.94882">
        <ele>636</ele>
        <time>2019-06-25T08:11:35Z</time>
      </trkpt>
      <trkpt lat="44.41487" lon="5.94876">
        <ele>636</ele>
        <time>2019-06-25T08:11:36Z</time>
      </trkpt>
      <trkpt lat="44.41486" lon="5.94872">
        <ele>636</ele>
        <time>2019-06-25T08:11:37Z</time>
      </trkpt>
      <trkpt lat="44.41483" lon="5.94867">
        <ele>636</ele>
        <time>2019-06-25T08:11:38Z</time>
      </trkpt>
      <trkpt lat="44.41481" lon="5.94863">
        <ele>636</ele>
        <time>2019-06-25T08:11:39Z</time>
      </trkpt>
      <trkpt lat="44.41478" lon="5.94859">
        <ele>636</ele>
        <time>2019-06-25T08:11:40Z</time>
      </trkpt>
      <trkpt lat="44.41475" lon="5.94854">
        <ele>636</ele>
        <time>2019-06-25T08:11:41Z</time>
      </trkpt>
      <trkpt lat="44.41472" lon="5.9485">
        <ele>636</ele>
        <time>2019-06-25T08:11:42Z</time>
      </trkpt>
      <trkpt lat="44.41469" lon="5.94847">
        <ele>636</ele>
        <time>2019-06-25T08:11:43Z</time>
      </trkpt>
      <trkpt lat="44.41466" lon="5.94842">
        <ele>636</ele>
        <time>2019-06-25T08:11:44Z</time>
      </trkpt>
      <trkpt lat="44.41464" lon="5.94838">
        <ele>636</ele>
        <time>2019-06-25T08:11:45Z</time>
      </trkpt>
      <trkpt lat="44.41462" lon="5.94832">
        <ele>636</ele>
        <time>2019-06-25T08:11:46Z</time>
      </trkpt>
      <trkpt lat="44.41462" lon="5.94826">
        <ele>636</ele>
        <time>2019-06-25T08:11:47Z</time>
      </trkpt>
      <trkpt lat="44.41462" lon="5.9482">
        <ele>636</ele>
        <time>2019-06-25T08:11:48Z</time>
      </trkpt>
      <trkpt lat="44.41464" lon="5.94816">
        <ele>636</ele>
        <time>2019-06-25T08:11:49Z</time>
      </trkpt>
      <trkpt lat="44.41467" lon="5.94812">
        <ele>636</ele>
        <time>2019-06-25T08:11:50Z</time>
      </trkpt>
      <trkpt lat="44.4147" lon="5.94808">
        <ele>636</ele>
        <time>2019-06-25T08:11:51Z</time>
      </trkpt>
      <trkpt lat="44.41473" lon="5.94806">
        <ele>636</ele>
        <time>2019-06-25T08:11:52Z</time>
      </trkpt>
      <trkpt lat="44.41476" lon="5.94803">
        <ele>636</ele>
        <time>2019-06-25T08:11:53Z</time>
      </trkpt>
      <trkpt lat="44.4148" lon="5.94802">
        <ele>636</ele>
        <time>2019-06-25T08:11:54Z</time>
      </trkpt>
      <trkpt lat="44.41484" lon="5.94802">
        <ele>636</ele>
        <time>2019-06-25T08:11:55Z</time>
      </trkpt>
      <trkpt lat="44.41487" lon="5.94802">
        <ele>636</ele>
        <time>2019-06-25T08:11:56Z</time>
      </trkpt>
      <trkpt lat="44.4149" lon="5.94803">
        <ele>636</ele>
        <time>2019-06-25T08:11:57Z</time>
      </trkpt>
      <trkpt lat="44.41493" lon="5.94804">
        <ele>636</ele>
        <time>2019-06-25T08:11:58Z</time>
      </trkpt>
      <trkpt lat="44.41497" lon="5.94804">
        <ele>636</ele>
        <time>2019-06-25T08:11:59Z</time>
      </trkpt>
      <trkpt lat="44.415" lon="5.94805">
        <ele>636</ele>
        <time>2019-06-25T08:12:00Z</time>
      </trkpt>
      <trkpt lat="44.41503" lon="5.94805">
        <ele>636</ele>
        <time>2019-06-25T08:12:01Z</time>
      </trkpt>
      <trkpt lat="44.41506" lon="5.94805">
        <ele>637</ele>
        <time>2019-06-25T08:12:02Z</time>
      </trkpt>
      <trkpt lat="44.41509" lon="5.94805">
        <ele>637</ele>
        <time>2019-06-25T08:12:03Z</time>
      </trkpt>
      <trkpt lat="44.41512" lon="5.94805">
        <ele>638</ele>
        <time>2019-06-25T08:12:04Z</time>
      </trkpt>
      <trkpt lat="44.41515" lon="5.94805">
        <ele>638</ele>
        <time>2019-06-25T08:12:05Z</time>
      </trkpt>
      <trkpt lat="44.41518" lon="5.94804">
        <ele>639</ele>
        <time>2019-06-25T08:12:06Z</time>
      </trkpt>
      <trkpt lat="44.41521" lon="5.94803">
        <ele>640</ele>
        <time>2019-06-25T08:12:07Z</time>
      </trkpt>
      <trkpt lat="44.41524" lon="5.94803">
        <ele>640</ele>
        <time>2019-06-25T08:12:08Z</time>
      </trkpt>
      <trkpt lat="44.41526" lon="5.94802">
        <ele>641</ele>
        <time>2019-06-25T08:12:09Z</time>
      </trkpt>
      <trkpt lat="44.41529" lon="5.94801">
        <ele>641</ele>
        <time>2019-06-25T08:12:10Z</time>
      </trkpt>
      <trkpt lat="44.41532" lon="5.94799">
        <ele>642</ele>
        <time>2019-06-25T08:12:11Z</time>
      </trkpt>
      <trkpt lat="44.41534" lon="5.94797">
        <ele>642</ele>
        <time>2019-06-25T08:12:12Z</time>
      </trkpt>
      <trkpt lat="44.41537" lon="5.94795">
        <ele>642</ele>
        <time>2019-06-25T08:12:13Z</time>
      </trkpt>
      <trkpt lat="44.41539" lon="5.94794">
        <ele>642</ele>
        <time>2019-06-25T08:12:14Z</time>
      </trkpt>
      <trkpt lat="44.41542" lon="5.94792">
        <ele>643</ele>
        <time>2019-06-25T08:12:15Z</time>
      </trkpt>
      <trkpt lat="44.41545" lon="5.9479">
        <ele>643</ele>
        <time>2019-06-25T08:12:16Z</time>
      </trkpt>
      <trkpt lat="44.41547" lon="5.94788">
        <ele>643</ele>
        <time>2019-06-25T08:12:17Z</time>
      </trkpt>
      <trkpt lat="44.4155" lon="5.94786">
        <ele>643</ele>
        <time>2019-06-25T08:12:18Z</time>
      </trkpt>
      <trkpt lat="44.41552" lon="5.94784">
        <ele>643</ele>
        <time>2019-06-25T08:12:19Z</time>
      </trkpt>
      <trkpt lat="44.41555" lon="5.94782">
        <ele>643</ele>
        <time>2019-06-25T08:12:20Z</time>
      </trkpt>
      <trkpt lat="44.41557" lon="5.94781">
        <ele>643</ele>
        <time>2019-06-25T08:12:21Z</time>
      </trkpt>
      <trkpt lat="44.4156" lon="5.94779">
        <ele>643</ele>
        <time>2019-06-25T08:12:22Z</time>
      </trkpt>
      <trkpt lat="44.41562" lon="5.94777">
        <ele>644</ele>
        <time>2019-06-25T08:12:23Z</time>
      </trkpt>
      <trkpt lat="44.41564" lon="5.94775">
        <ele>644</ele>
        <time>2019-06-25T08:12:24Z</time>
      </trkpt>
      <trkpt lat="44.41566" lon="5.94773">
        <ele>644</ele>
        <time>2019-06-25T08:12:25Z</time>
      </trkpt>
      <trkpt lat="44.41569" lon="5.94771">
        <ele>645</ele>
        <time>2019-06-25T08:12:26Z</time>
      </trkpt>
      <trkpt lat="44.41571" lon="5.94769">
        <ele>645</ele>
        <time>2019-06-25T08:12:27Z</time>
      </trkpt>
      <trkpt lat="44.41573" lon="5.94767">
        <ele>645</ele>
        <time>2019-06-25T08:12:28Z</time>
      </trkpt>
      <trkpt lat="44.41576" lon="5.94765">
        <ele>646</ele>
        <time>2019-06-25T08:12:29Z</time>
      </trkpt>
      <trkpt lat="44.41578" lon="5.94763">
        <ele>646</ele>
        <time>2019-06-25T08:12:30Z</time>
      </trkpt>
      <trkpt lat="44.4158" lon="5.94761">
        <ele>646</ele>
        <time>2019-06-25T08:12:31Z</time>
      </trkpt>
      <trkpt lat="44.41582" lon="5.94759">
        <ele>647</ele>
        <time>2019-06-25T08:12:32Z</time>
      </trkpt>
      <trkpt lat="44.41584" lon="5.94757">
        <ele>647</ele>
        <time>2019-06-25T08:12:33Z</time>
      </trkpt>
      <trkpt lat="44.41587" lon="5.94756">
        <ele>647</ele>
        <time>2019-06-25T08:12:34Z</time>
      </trkpt>
      <trkpt lat="44.41589" lon="5.94755">
        <ele>647</ele>
        <time>2019-06-25T08:12:35Z</time>
      </trkpt>
      <trkpt lat="44.41592" lon="5.94753">
        <ele>648</ele>
        <time>2019-06-25T08:12:36Z</time>
      </trkpt>
      <trkpt lat="44.41594" lon="5.94752">
        <ele>648</ele>
        <time>2019-06-25T08:12:37Z</time>
      </trkpt>
      <trkpt lat="44.41597" lon="5.9475">
        <ele>648</ele>
        <time>2019-06-25T08:12:38Z</time>
      </trkpt>
      <trkpt lat="44.41599" lon="5.94749">
        <ele>648</ele>
        <time>2019-06-25T08:12:39Z</time>
      </trkpt>
      <trkpt lat="44.41602" lon="5.94748">
        <ele>649</ele>
        <time>2019-06-25T08:12:40Z</time>
      </trkpt>
      <trkpt lat="44.41604" lon="5.94747">
        <ele>649</ele>
        <time>2019-06-25T08:12:41Z</time>
      </trkpt>
      <trkpt lat="44.41607" lon="5.94746">
        <ele>649</ele>
        <time>2019-06-25T08:12:42Z</time>
      </trkpt>
      <trkpt lat="44.41609" lon="5.94745">
        <ele>649</ele>
        <time>2019-06-25T08:12:43Z</time>
      </trkpt>
      <trkpt lat="44.41612" lon="5.94744">
        <ele>650</ele>
        <time>2019-06-25T08:12:44Z</time>
      </trkpt>
      <trkpt lat="44.41614" lon="5.94744">
        <ele>650</ele>
        <time>2019-06-25T08:12:45Z</time>
      </trkpt>
      <trkpt lat="44.41617" lon="5.94742">
        <ele>650</ele>
        <time>2019-06-25T08:12:46Z</time>
      </trkpt>
      <trkpt lat="44.41619" lon="5.94741">
        <ele>651</ele>
        <time>2019-06-25T08:12:47Z</time>
      </trkpt>
      <trkpt lat="44.41621" lon="5.94739">
        <ele>651</ele>
        <time>2019-06-25T08:12:48Z</time>
      </trkpt>
      <trkpt lat="44.41624" lon="5.94738">
        <ele>651</ele>
        <time>2019-06-25T08:12:49Z</time>
      </trkpt>
      <trkpt lat="44.41626" lon="5.94736">
        <ele>652</ele>
        <time>2019-06-25T08:12:50Z</time>
      </trkpt>
      <trkpt lat="44.41628" lon="5.94735">
        <ele>652</ele>
        <time>2019-06-25T08:12:51Z</time>
      </trkpt>
      <trkpt lat="44.41631" lon="5.94733">
        <ele>652</ele>
        <time>2019-06-25T08:12:52Z</time>
      </trkpt>
      <trkpt lat="44.41633" lon="5.94731">
        <ele>653</ele>
        <time>2019-06-25T08:12:53Z</time>
      </trkpt>
      <trkpt lat="44.41635" lon="5.94729">
        <ele>653</ele>
        <time>2019-06-25T08:12:54Z</time>
      </trkpt>
      <trkpt lat="44.41637" lon="5.94727">
        <ele>653</ele>
        <time>2019-06-25T08:12:55Z</time>
      </trkpt>
      <trkpt lat="44.41639" lon="5.94725">
        <ele>654</ele>
        <time>2019-06-25T08:12:56Z</time>
      </trkpt>
      <trkpt lat="44.4164" lon="5.94723">
        <ele>654</ele>
        <time>2019-06-25T08:12:57Z</time>
      </trkpt>
      <trkpt lat="44.41642" lon="5.9472">
        <ele>654</ele>
        <time>2019-06-25T08:12:58Z</time>
      </trkpt>
      <trkpt lat="44.41644" lon="5.94718">
        <ele>654</ele>
        <time>2019-06-25T08:12:59Z</time>
      </trkpt>
      <trkpt lat="44.41646" lon="5.94715">
        <ele>654</ele>
        <time>2019-06-25T08:13:00Z</time>
      </trkpt>
      <trkpt lat="44.41647" lon="5.94712">
        <ele>654</ele>
        <time>2019-06-25T08:13:01Z</time>
      </trkpt>
      <trkpt lat="44.4165" lon="5.9471">
        <ele>655</ele>
        <time>2019-06-25T08:13:02Z</time>
      </trkpt>
      <trkpt lat="44.41652" lon="5.94708">
        <ele>655</ele>
        <time>2019-06-25T08:13:03Z</time>
      </trkpt>
      <trkpt lat="44.41654" lon="5.94706">
        <ele>655</ele>
        <time>2019-06-25T08:13:04Z</time>
      </trkpt>
      <trkpt lat="44.41656" lon="5.94704">
        <ele>655</ele>
        <time>2019-06-25T08:13:05Z</time>
      </trkpt>
      <trkpt lat="44.41658" lon="5.94701">
        <ele>656</ele>
        <time>2019-06-25T08:13:06Z</time>
      </trkpt>
      <trkpt lat="44.4166" lon="5.94699">
        <ele>656</ele>
        <time>2019-06-25T08:13:07Z</time>
      </trkpt>
      <trkpt lat="44.41662" lon="5.94697">
        <ele>656</ele>
        <time>2019-06-25T08:13:08Z</time>
      </trkpt>
      <trkpt lat="44.41664" lon="5.94695">
        <ele>656</ele>
        <time>2019-06-25T08:13:09Z</time>
      </trkpt>
      <trkpt lat="44.41666" lon="5.94693">
        <ele>656</ele>
        <time>2019-06-25T08:13:10Z</time>
      </trkpt>
      <trkpt lat="44.41668" lon="5.94691">
        <ele>656</ele>
        <time>2019-06-25T08:13:11Z</time>
      </trkpt>
      <trkpt lat="44.4167" lon="5.9469">
        <ele>657</ele>
        <time>2019-06-25T08:13:12Z</time>
      </trkpt>
      <trkpt lat="44.41673" lon="5.94689">
        <ele>657</ele>
        <time>2019-06-25T08:13:13Z</time>
      </trkpt>
      <trkpt lat="44.41675" lon="5.94687">
        <ele>657</ele>
        <time>2019-06-25T08:13:14Z</time>
      </trkpt>
      <trkpt lat="44.41677" lon="5.94686">
        <ele>657</ele>
        <time>2019-06-25T08:13:15Z</time>
      </trkpt>
      <trkpt lat="44.41679" lon="5.94685">
        <ele>658</ele>
        <time>2019-06-25T08:13:16Z</time>
      </trkpt>
      <trkpt lat="44.41682" lon="5.94684">
        <ele>658</ele>
        <time>2019-06-25T08:13:17Z</time>
      </trkpt>
      <trkpt lat="44.41684" lon="5.94682">
        <ele>658</ele>
        <time>2019-06-25T08:13:18Z</time>
      </trkpt>
      <trkpt lat="44.41687" lon="5.94681">
        <ele>658</ele>
        <time>2019-06-25T08:13:19Z</time>
      </trkpt>
      <trkpt lat="44.41689" lon="5.94679">
        <ele>659</ele>
        <time>2019-06-25T08:13:20Z</time>
      </trkpt>
      <trkpt lat="44.41691" lon="5.94678">
        <ele>659</ele>
        <time>2019-06-25T08:13:21Z</time>
      </trkpt>
      <trkpt lat="44.41693" lon="5.94676">
        <ele>659</ele>
        <time>2019-06-25T08:13:22Z</time>
      </trkpt>
      <trkpt lat="44.41696" lon="5.94674">
        <ele>659</ele>
        <time>2019-06-25T08:13:23Z</time>
      </trkpt>
      <trkpt lat="44.41698" lon="5.94672">
        <ele>659</ele>
        <time>2019-06-25T08:13:24Z</time>
      </trkpt>
      <trkpt lat="44.417" lon="5.94669">
        <ele>660</ele>
        <time>2019-06-25T08:13:25Z</time>
      </trkpt>
      <trkpt lat="44.41703" lon="5.94667">
        <ele>660</ele>
        <time>2019-06-25T08:13:26Z</time>
      </trkpt>
      <trkpt lat="44.41705" lon="5.94664">
        <ele>660</ele>
        <time>2019-06-25T08:13:27Z</time>
      </trkpt>
      <trkpt lat="44.41707" lon="5.94662">
        <ele>660</ele>
        <time>2019-06-25T08:13:28Z</time>
      </trkpt>
      <trkpt lat="44.41709" lon="5.94659">
        <ele>660</ele>
        <time>2019-06-25T08:13:29Z</time>
      </trkpt>
      <trkpt lat="44.41711" lon="5.94656">
        <ele>660</ele>
        <time>2019-06-25T08:13:30Z</time>
      </trkpt>
      <trkpt lat="44.41712" lon="5.94652">
        <ele>661</ele>
        <time>2019-06-25T08:13:31Z</time>
      </trkpt>
      <trkpt lat="44.41713" lon="5.94649">
        <ele>661</ele>
        <time>2019-06-25T08:13:32Z</time>
      </trkpt>
      <trkpt lat="44.41714" lon="5.94645">
        <ele>661</ele>
        <time>2019-06-25T08:13:33Z</time>
      </trkpt>
      <trkpt lat="44.41715" lon="5.94642">
        <ele>661</ele>
        <time>2019-06-25T08:13:34Z</time>
      </trkpt>
      <trkpt lat="44.41716" lon="5.94638">
        <ele>661</ele>
        <time>2019-06-25T08:13:35Z</time>
      </trkpt>
      <trkpt lat="44.41716" lon="5.94634">
        <ele>662</ele>
        <time>2019-06-25T08:13:36Z</time>
      </trkpt>
      <trkpt lat="44.41716" lon="5.94631">
        <ele>662</ele>
        <time>2019-06-25T08:13:37Z</time>
      </trkpt>
      <trkpt lat="44.41717" lon="5.94628">
        <ele>662</ele>
        <time>2019-06-25T08:13:38Z</time>
      </trkpt>
      <trkpt lat="44.41717" lon="5.94625">
        <ele>662</ele>
        <time>2019-06-25T08:13:39Z</time>
      </trkpt>
      <trkpt lat="44.41717" lon="5.94622">
        <ele>662</ele>
        <time>2019-06-25T08:13:40Z</time>
      </trkpt>
      <trkpt lat="44.41716" lon="5.94619">
        <ele>662</ele>
        <time>2019-06-25T08:13:41Z</time>
      </trkpt>
      <trkpt lat="44.41716" lon="5.94616">
        <ele>663</ele>
        <time>2019-06-25T08:13:42Z</time>
      </trkpt>
      <trkpt lat="44.41716" lon="5.94613">
        <ele>663</ele>
        <time>2019-06-25T08:13:43Z</time>
      </trkpt>
      <trkpt lat="44.41715" lon="5.94609">
        <ele>663</ele>
        <time>2019-06-25T08:13:44Z</time>
      </trkpt>
      <trkpt lat="44.41715" lon="5.94606">
        <ele>663</ele>
        <time>2019-06-25T08:13:45Z</time>
      </trkpt>
      <trkpt lat="44.41715" lon="5.94603">
        <ele>663</ele>
        <time>2019-06-25T08:13:46Z</time>
      </trkpt>
      <trkpt lat="44.41715" lon="5.946">
        <ele>663</ele>
        <time>2019-06-25T08:13:47Z</time>
      </trkpt>
      <trkpt lat="44.41715" lon="5.94596">
        <ele>663</ele>
        <time>2019-06-25T08:13:48Z</time>
      </trkpt>
      <trkpt lat="44.41715" lon="5.94593">
        <ele>663</ele>
        <time>2019-06-25T08:13:49Z</time>
      </trkpt>
      <trkpt lat="44.41715" lon="5.9459">
        <ele>663</ele>
        <time>2019-06-25T08:13:50Z</time>
      </trkpt>
      <trkpt lat="44.41715" lon="5.94586">
        <ele>663</ele>
        <time>2019-06-25T08:13:51Z</time>
      </trkpt>
      <trkpt lat="44.41715" lon="5.94583">
        <ele>663</ele>
        <time>2019-06-25T08:13:52Z</time>
      </trkpt>
      <trkpt lat="44.41715" lon="5.9458">
        <ele>663</ele>
        <time>2019-06-25T08:13:53Z</time>
      </trkpt>
      <trkpt lat="44.41714" lon="5.94577">
        <ele>663</ele>
        <time>2019-06-25T08:13:54Z</time>
      </trkpt>
      <trkpt lat="44.41714" lon="5.94573">
        <ele>663</ele>
        <time>2019-06-25T08:13:55Z</time>
      </trkpt>
      <trkpt lat="44.41714" lon="5.9457">
        <ele>663</ele>
        <time>2019-06-25T08:13:56Z</time>
      </trkpt>
      <trkpt lat="44.41714" lon="5.94567">
        <ele>663</ele>
        <time>2019-06-25T08:13:57Z</time>
      </trkpt>
      <trkpt lat="44.41714" lon="5.94564">
        <ele>663</ele>
        <time>2019-06-25T08:13:58Z</time>
      </trkpt>
      <trkpt lat="44.41714" lon="5.9456">
        <ele>663</ele>
        <time>2019-06-25T08:13:59Z</time>
      </trkpt>
      <trkpt lat="44.41715" lon="5.94556">
        <ele>663</ele>
        <time>2019-06-25T08:14:00Z</time>
      </trkpt>
      <trkpt lat="44.41716" lon="5.94553">
        <ele>663</ele>
        <time>2019-06-25T08:14:01Z</time>
      </trkpt>
      <trkpt lat="44.41718" lon="5.9455">
        <ele>663</ele>
        <time>2019-06-25T08:14:02Z</time>
      </trkpt>
      <trkpt lat="44.41719" lon="5.94547">
        <ele>663</ele>
        <time>2019-06-25T08:14:03Z</time>
      </trkpt>
      <trkpt lat="44.41721" lon="5.94544">
        <ele>663</ele>
        <time>2019-06-25T08:14:04Z</time>
      </trkpt>
      <trkpt lat="44.41723" lon="5.94541">
        <ele>663</ele>
        <time>2019-06-25T08:14:05Z</time>
      </trkpt>
      <trkpt lat="44.41725" lon="5.94538">
        <ele>663</ele>
        <time>2019-06-25T08:14:06Z</time>
      </trkpt>
      <trkpt lat="44.41727" lon="5.94535">
        <ele>663</ele>
        <time>2019-06-25T08:14:07Z</time>
      </trkpt>
      <trkpt lat="44.41729" lon="5.94533">
        <ele>663</ele>
        <time>2019-06-25T08:14:08Z</time>
      </trkpt>
      <trkpt lat="44.4173" lon="5.9453">
        <ele>663</ele>
        <time>2019-06-25T08:14:09Z</time>
      </trkpt>
      <trkpt lat="44.41732" lon="5.94528">
        <ele>663</ele>
        <time>2019-06-25T08:14:10Z</time>
      </trkpt>
      <trkpt lat="44.41734" lon="5.94525">
        <ele>663</ele>
        <time>2019-06-25T08:14:11Z</time>
      </trkpt>
      <trkpt lat="44.41736" lon="5.94523">
        <ele>663</ele>
        <time>2019-06-25T08:14:12Z</time>
      </trkpt>
      <trkpt lat="44.41738" lon="5.94521">
        <ele>663</ele>
        <time>2019-06-25T08:14:13Z</time>
      </trkpt>
      <trkpt lat="44.4174" lon="5.9452">
        <ele>663</ele>
        <time>2019-06-25T08:14:14Z</time>
      </trkpt>
      <trkpt lat="44.41742" lon="5.94519">
        <ele>663</ele>
        <time>2019-06-25T08:14:15Z</time>
      </trkpt>
      <trkpt lat="44.41744" lon="5.94518">
        <ele>664</ele>
        <time>2019-06-25T08:14:16Z</time>
      </trkpt>
      <trkpt lat="44.41746" lon="5.94518">
        <ele>665</ele>
        <time>2019-06-25T08:14:17Z</time>
      </trkpt>
      <trkpt lat="44.41749" lon="5.94518">
        <ele>666</ele>
        <time>2019-06-25T08:14:18Z</time>
      </trkpt>
      <trkpt lat="44.41751" lon="5.94517">
        <ele>667</ele>
        <time>2019-06-25T08:14:19Z</time>
      </trkpt>
      <trkpt lat="44.41753" lon="5.94517">
        <ele>668</ele>
        <time>2019-06-25T08:14:20Z</time>
      </trkpt>
      <trkpt lat="44.41756" lon="5.94516">
        <ele>669</ele>
        <time>2019-06-25T08:14:21Z</time>
      </trkpt>
      <trkpt lat="44.41758" lon="5.94516">
        <ele>670</ele>
        <time>2019-06-25T08:14:22Z</time>
      </trkpt>
      <trkpt lat="44.4176" lon="5.94515">
        <ele>671</ele>
        <time>2019-06-25T08:14:23Z</time>
      </trkpt>
      <trkpt lat="44.41763" lon="5.94515">
        <ele>672</ele>
        <time>2019-06-25T08:14:24Z</time>
      </trkpt>
      <trkpt lat="44.41765" lon="5.94515">
        <ele>672</ele>
        <time>2019-06-25T08:14:25Z</time>
      </trkpt>
      <trkpt lat="44.41767" lon="5.94515">
        <ele>673</ele>
        <time>2019-06-25T08:14:26Z</time>
      </trkpt>
      <trkpt lat="44.41769" lon="5.94516">
        <ele>674</ele>
        <time>2019-06-25T08:14:27Z</time>
      </trkpt>
      <trkpt lat="44.41771" lon="5.94516">
        <ele>674</ele>
        <time>2019-06-25T08:14:28Z</time>
      </trkpt>
      <trkpt lat="44.41773" lon="5.94517">
        <ele>675</ele>
        <time>2019-06-25T08:14:29Z</time>
      </trkpt>
      <trkpt lat="44.41775" lon="5.94518">
        <ele>676</ele>
        <time>2019-06-25T08:14:30Z</time>
      </trkpt>
      <trkpt lat="44.41777" lon="5.94517">
        <ele>676</ele>
        <time>2019-06-25T08:14:31Z</time>
      </trkpt>
      <trkpt lat="44.41779" lon="5.94517">
        <ele>677</ele>
        <time>2019-06-25T08:14:32Z</time>
      </trkpt>
      <trkpt lat="44.41782" lon="5.94517">
        <ele>678</ele>
        <time>2019-06-25T08:14:33Z</time>
      </trkpt>
      <trkpt lat="44.41784" lon="5.94516">
        <ele>678</ele>
        <time>2019-06-25T08:14:34Z</time>
      </trkpt>
      <trkpt lat="44.41786" lon="5.94516">
        <ele>678</ele>
        <time>2019-06-25T08:14:35Z</time>
      </trkpt>
      <trkpt lat="44.41788" lon="5.94517">
        <ele>679</ele>
        <time>2019-06-25T08:14:36Z</time>
      </trkpt>
      <trkpt lat="44.41791" lon="5.94517">
        <ele>679</ele>
        <time>2019-06-25T08:14:37Z</time>
      </trkpt>
      <trkpt lat="44.41793" lon="5.94517">
        <ele>679</ele>
        <time>2019-06-25T08:14:38Z</time>
      </trkpt>
      <trkpt lat="44.41796" lon="5.94517">
        <ele>679</ele>
        <time>2019-06-25T08:14:39Z</time>
      </trkpt>
      <trkpt lat="44.41799" lon="5.94516">
        <ele>679</ele>
        <time>2019-06-25T08:14:40Z</time>
      </trkpt>
      <trkpt lat="44.41802" lon="5.94516">
        <ele>679</ele>
        <time>2019-06-25T08:14:41Z</time>
      </trkpt>
      <trkpt lat="44.41805" lon="5.94516">
        <ele>679</ele>
        <time>2019-06-25T08:14:42Z</time>
      </trkpt>
      <trkpt lat="44.41808" lon="5.94515">
        <ele>679</ele>
        <time>2019-06-25T08:14:43Z</time>
      </trkpt>
      <trkpt lat="44.41811" lon="5.94515">
        <ele>679</ele>
        <time>2019-06-25T08:14:44Z</time>
      </trkpt>
      <trkpt lat="44.41813" lon="5.94515">
        <ele>679</ele>
        <time>2019-06-25T08:14:45Z</time>
      </trkpt>
      <trkpt lat="44.41816" lon="5.94514">
        <ele>679</ele>
        <time>2019-06-25T08:14:46Z</time>
      </trkpt>
      <trkpt lat="44.41818" lon="5.94514">
        <ele>679</ele>
        <time>2019-06-25T08:14:47Z</time>
      </trkpt>
      <trkpt lat="44.41821" lon="5.94513">
        <ele>679</ele>
        <time>2019-06-25T08:14:48Z</time>
      </trkpt>
      <trkpt lat="44.41823" lon="5.94513">
        <ele>679</ele>
        <time>2019-06-25T08:14:49Z</time>
      </trkpt>
      <trkpt lat="44.41826" lon="5.94512">
        <ele>679</ele>
        <time>2019-06-25T08:14:50Z</time>
      </trkpt>
      <trkpt lat="44.41828" lon="5.94511">
        <ele>679</ele>
        <time>2019-06-25T08:14:51Z</time>
      </trkpt>
      <trkpt lat="44.4183" lon="5.9451">
        <ele>679</ele>
        <time>2019-06-25T08:14:52Z</time>
      </trkpt>
      <trkpt lat="44.41832" lon="5.94509">
        <ele>679</ele>
        <time>2019-06-25T08:14:53Z</time>
      </trkpt>
      <trkpt lat="44.41834" lon="5.94507">
        <ele>679</ele>
        <time>2019-06-25T08:14:54Z</time>
      </trkpt>
      <trkpt lat="44.41836" lon="5.94506">
        <ele>679</ele>
        <time>2019-06-25T08:14:55Z</time>
      </trkpt>
      <trkpt lat="44.41838" lon="5.94505">
        <ele>679</ele>
        <time>2019-06-25T08:14:56Z</time>
      </trkpt>
      <trkpt lat="44.4184" lon="5.94504">
        <ele>679</ele>
        <time>2019-06-25T08:14:57Z</time>
      </trkpt>
      <trkpt lat="44.41842" lon="5.94502">
        <ele>679</ele>
        <time>2019-06-25T08:14:58Z</time>
      </trkpt>
      <trkpt lat="44.41844" lon="5.945">
        <ele>679</ele>
        <time>2019-06-25T08:14:59Z</time>
      </trkpt>
      <trkpt lat="44.41845" lon="5.94497">
        <ele>679</ele>
        <time>2019-06-25T08:15:00Z</time>
      </trkpt>
      <trkpt lat="44.41847" lon="5.94495">
        <ele>679</ele>
        <time>2019-06-25T08:15:01Z</time>
      </trkpt>
      <trkpt lat="44.41849" lon="5.94493">
        <ele>679</ele>
        <time>2019-06-25T08:15:02Z</time>
      </trkpt>
      <trkpt lat="44.41851" lon="5.94491">
        <ele>679</ele>
        <time>2019-06-25T08:15:03Z</time>
      </trkpt>
      <trkpt lat="44.41852" lon="5.94488">
        <ele>679</ele>
        <time>2019-06-25T08:15:04Z</time>
      </trkpt>
      <trkpt lat="44.41854" lon="5.94486">
        <ele>679</ele>
        <time>2019-06-25T08:15:05Z</time>
      </trkpt>
      <trkpt lat="44.41855" lon="5.94483">
        <ele>679</ele>
        <time>2019-06-25T08:15:06Z</time>
      </trkpt>
      <trkpt lat="44.41857" lon="5.9448">
        <ele>679</ele>
        <time>2019-06-25T08:15:07Z</time>
      </trkpt>
      <trkpt lat="44.41859" lon="5.94477">
        <ele>679</ele>
        <time>2019-06-25T08:15:08Z</time>
      </trkpt>
      <trkpt lat="44.41861" lon="5.94475">
        <ele>679</ele>
        <time>2019-06-25T08:15:09Z</time>
      </trkpt>
      <trkpt lat="44.41862" lon="5.94472">
        <ele>679</ele>
        <time>2019-06-25T08:15:10Z</time>
      </trkpt>
      <trkpt lat="44.41864" lon="5.94468">
        <ele>679</ele>
        <time>2019-06-25T08:15:11Z</time>
      </trkpt>
      <trkpt lat="44.41867" lon="5.94465">
        <ele>679</ele>
        <time>2019-06-25T08:15:12Z</time>
      </trkpt>
      <trkpt lat="44.41869" lon="5.94462">
        <ele>679</ele>
        <time>2019-06-25T08:15:13Z</time>
      </trkpt>
      <trkpt lat="44.41873" lon="5.94461">
        <ele>679</ele>
        <time>2019-06-25T08:15:14Z</time>
      </trkpt>
      <trkpt lat="44.41877" lon="5.9446">
        <ele>679</ele>
        <time>2019-06-25T08:15:15Z</time>
      </trkpt>
      <trkpt lat="44.4188" lon="5.94459">
        <ele>679</ele>
        <time>2019-06-25T08:15:16Z</time>
      </trkpt>
      <trkpt lat="44.41883" lon="5.9446">
        <ele>679</ele>
        <time>2019-06-25T08:15:17Z</time>
      </trkpt>
      <trkpt lat="44.41886" lon="5.94462">
        <ele>679</ele>
        <time>2019-06-25T08:15:18Z</time>
      </trkpt>
      <trkpt lat="44.41888" lon="5.94464">
        <ele>679</ele>
        <time>2019-06-25T08:15:19Z</time>
      </trkpt>
      <trkpt lat="44.41891" lon="5.94467">
        <ele>679</ele>
        <time>2019-06-25T08:15:20Z</time>
      </trkpt>
      <trkpt lat="44.41893" lon="5.94469">
        <ele>679</ele>
        <time>2019-06-25T08:15:21Z</time>
      </trkpt>
      <trkpt lat="44.41896" lon="5.94471">
        <ele>679</ele>
        <time>2019-06-25T08:15:22Z</time>
      </trkpt>
      <trkpt lat="44.41898" lon="5.94472">
        <ele>679</ele>
        <time>2019-06-25T08:15:23Z</time>
      </trkpt>
      <trkpt lat="44.41901" lon="5.94473">
        <ele>679</ele>
        <time>2019-06-25T08:15:24Z</time>
      </trkpt>
      <trkpt lat="44.41904" lon="5.94474">
        <ele>680</ele>
        <time>2019-06-25T08:15:25Z</time>
      </trkpt>
      <trkpt lat="44.41907" lon="5.94473">
        <ele>680</ele>
        <time>2019-06-25T08:15:26Z</time>
      </trkpt>
      <trkpt lat="44.4191" lon="5.94472">
        <ele>680</ele>
        <time>2019-06-25T08:15:27Z</time>
      </trkpt>
      <trkpt lat="44.41913" lon="5.94471">
        <ele>681</ele>
        <time>2019-06-25T08:15:28Z</time>
      </trkpt>
      <trkpt lat="44.41915" lon="5.94468">
        <ele>681</ele>
        <time>2019-06-25T08:15:29Z</time>
      </trkpt>
      <trkpt lat="44.41917" lon="5.94465">
        <ele>681</ele>
        <time>2019-06-25T08:15:30Z</time>
      </trkpt>
      <trkpt lat="44.41919" lon="5.94462">
        <ele>681</ele>
        <time>2019-06-25T08:15:31Z</time>
      </trkpt>
      <trkpt lat="44.41921" lon="5.94458">
        <ele>681</ele>
        <time>2019-06-25T08:15:32Z</time>
      </trkpt>
      <trkpt lat="44.41923" lon="5.94454">
        <ele>682</ele>
        <time>2019-06-25T08:15:33Z</time>
      </trkpt>
      <trkpt lat="44.41924" lon="5.94451">
        <ele>682</ele>
        <time>2019-06-25T08:15:34Z</time>
      </trkpt>
      <trkpt lat="44.41925" lon="5.94448">
        <ele>682</ele>
        <time>2019-06-25T08:15:35Z</time>
      </trkpt>
      <trkpt lat="44.41927" lon="5.94444">
        <ele>682</ele>
        <time>2019-06-25T08:15:36Z</time>
      </trkpt>
      <trkpt lat="44.41928" lon="5.94441">
        <ele>682</ele>
        <time>2019-06-25T08:15:37Z</time>
      </trkpt>
      <trkpt lat="44.41929" lon="5.94438">
        <ele>682</ele>
        <time>2019-06-25T08:15:38Z</time>
      </trkpt>
      <trkpt lat="44.4193" lon="5.94435">
        <ele>682</ele>
        <time>2019-06-25T08:15:39Z</time>
      </trkpt>
      <trkpt lat="44.41932" lon="5.94432">
        <ele>682</ele>
        <time>2019-06-25T08:15:40Z</time>
      </trkpt>
      <trkpt lat="44.41933" lon="5.94428">
        <ele>682</ele>
        <time>2019-06-25T08:15:41Z</time>
      </trkpt>
      <trkpt lat="44.41934" lon="5.94425">
        <ele>682</ele>
        <time>2019-06-25T08:15:42Z</time>
      </trkpt>
      <trkpt lat="44.41935" lon="5.94422">
        <ele>682</ele>
        <time>2019-06-25T08:15:43Z</time>
      </trkpt>
      <trkpt lat="44.41936" lon="5.94419">
        <ele>682</ele>
        <time>2019-06-25T08:15:44Z</time>
      </trkpt>
      <trkpt lat="44.41937" lon="5.94416">
        <ele>682</ele>
        <time>2019-06-25T08:15:45Z</time>
      </trkpt>
      <trkpt lat="44.41938" lon="5.94413">
        <ele>683</ele>
        <time>2019-06-25T08:15:46Z</time>
      </trkpt>
      <trkpt lat="44.41938" lon="5.94409">
        <ele>683</ele>
        <time>2019-06-25T08:15:47Z</time>
      </trkpt>
      <trkpt lat="44.41939" lon="5.94406">
        <ele>683</ele>
        <time>2019-06-25T08:15:48Z</time>
      </trkpt>
      <trkpt lat="44.4194" lon="5.94402">
        <ele>683</ele>
        <time>2019-06-25T08:15:49Z</time>
      </trkpt>
      <trkpt lat="44.4194" lon="5.94399">
        <ele>683</ele>
        <time>2019-06-25T08:15:50Z</time>
      </trkpt>
      <trkpt lat="44.41941" lon="5.94395">
        <ele>683</ele>
        <time>2019-06-25T08:15:51Z</time>
      </trkpt>
      <trkpt lat="44.41942" lon="5.94392">
        <ele>683</ele>
        <time>2019-06-25T08:15:52Z</time>
      </trkpt>
      <trkpt lat="44.41942" lon="5.94388">
        <ele>683</ele>
        <time>2019-06-25T08:15:53Z</time>
      </trkpt>
      <trkpt lat="44.41943" lon="5.94384">
        <ele>683</ele>
        <time>2019-06-25T08:15:54Z</time>
      </trkpt>
      <trkpt lat="44.41943" lon="5.94381">
        <ele>683</ele>
        <time>2019-06-25T08:15:55Z</time>
      </trkpt>
      <trkpt lat="44.41944" lon="5.94377">
        <ele>683</ele>
        <time>2019-06-25T08:15:56Z</time>
      </trkpt>
      <trkpt lat="44.41945" lon="5.94374">
        <ele>683</ele>
        <time>2019-06-25T08:15:57Z</time>
      </trkpt>
      <trkpt lat="44.41945" lon="5.9437">
        <ele>683</ele>
        <time>2019-06-25T08:15:58Z</time>
      </trkpt>
      <trkpt lat="44.41946" lon="5.94367">
        <ele>683</ele>
        <time>2019-06-25T08:15:59Z</time>
      </trkpt>
      <trkpt lat="44.41946" lon="5.94363">
        <ele>683</ele>
        <time>2019-06-25T08:16:00Z</time>
      </trkpt>
      <trkpt lat="44.41946" lon="5.9436">
        <ele>683</ele>
        <time>2019-06-25T08:16:01Z</time>
      </trkpt>
      <trkpt lat="44.41947" lon="5.94356">
        <ele>683</ele>
        <time>2019-06-25T08:16:02Z</time>
      </trkpt>
      <trkpt lat="44.41948" lon="5.94353">
        <ele>683</ele>
        <time>2019-06-25T08:16:03Z</time>
      </trkpt>
      <trkpt lat="44.41948" lon="5.94349">
        <ele>683</ele>
        <time>2019-06-25T08:16:04Z</time>
      </trkpt>
      <trkpt lat="44.41948" lon="5.94346">
        <ele>684</ele>
        <time>2019-06-25T08:16:05Z</time>
      </trkpt>
      <trkpt lat="44.41948" lon="5.94343">
        <ele>684</ele>
        <time>2019-06-25T08:16:06Z</time>
      </trkpt>
      <trkpt lat="44.41949" lon="5.94339">
        <ele>684</ele>
        <time>2019-06-25T08:16:07Z</time>
      </trkpt>
      <trkpt lat="44.41949" lon="5.94335">
        <ele>684</ele>
        <time>2019-06-25T08:16:08Z</time>
      </trkpt>
      <trkpt lat="44.4195" lon="5.94332">
        <ele>684</ele>
        <time>2019-06-25T08:16:09Z</time>
      </trkpt>
      <trkpt lat="44.4195" lon="5.94327">
        <ele>684</ele>
        <time>2019-06-25T08:16:10Z</time>
      </trkpt>
      <trkpt lat="44.41951" lon="5.94323">
        <ele>684</ele>
        <time>2019-06-25T08:16:11Z</time>
      </trkpt>
      <trkpt lat="44.41951" lon="5.94319">
        <ele>684</ele>
        <time>2019-06-25T08:16:12Z</time>
      </trkpt>
      <trkpt lat="44.41952" lon="5.94315">
        <ele>684</ele>
        <time>2019-06-25T08:16:13Z</time>
      </trkpt>
      <trkpt lat="44.41954" lon="5.94311">
        <ele>684</ele>
        <time>2019-06-25T08:16:14Z</time>
      </trkpt>
      <trkpt lat="44.41956" lon="5.94307">
        <ele>684</ele>
        <time>2019-06-25T08:16:15Z</time>
      </trkpt>
      <trkpt lat="44.41958" lon="5.94303">
        <ele>684</ele>
        <time>2019-06-25T08:16:16Z</time>
      </trkpt>
      <trkpt lat="44.41961" lon="5.943">
        <ele>684</ele>
        <time>2019-06-25T08:16:17Z</time>
      </trkpt>
      <trkpt lat="44.41964" lon="5.94299">
        <ele>684</ele>
        <time>2019-06-25T08:16:18Z</time>
      </trkpt>
      <trkpt lat="44.41968" lon="5.94298">
        <ele>684</ele>
        <time>2019-06-25T08:16:19Z</time>
      </trkpt>
      <trkpt lat="44.41972" lon="5.94299">
        <ele>685</ele>
        <time>2019-06-25T08:16:20Z</time>
      </trkpt>
      <trkpt lat="44.41975" lon="5.94299">
        <ele>685</ele>
        <time>2019-06-25T08:16:21Z</time>
      </trkpt>
      <trkpt lat="44.41978" lon="5.943">
        <ele>685</ele>
        <time>2019-06-25T08:16:22Z</time>
      </trkpt>
      <trkpt lat="44.41982" lon="5.94301">
        <ele>685</ele>
        <time>2019-06-25T08:16:23Z</time>
      </trkpt>
      <trkpt lat="44.41985" lon="5.94302">
        <ele>686</ele>
        <time>2019-06-25T08:16:24Z</time>
      </trkpt>
      <trkpt lat="44.41988" lon="5.94302">
        <ele>686</ele>
        <time>2019-06-25T08:16:25Z</time>
      </trkpt>
      <trkpt lat="44.41992" lon="5.94302">
        <ele>686</ele>
        <time>2019-06-25T08:16:26Z</time>
      </trkpt>
      <trkpt lat="44.41995" lon="5.94301">
        <ele>687</ele>
        <time>2019-06-25T08:16:27Z</time>
      </trkpt>
      <trkpt lat="44.41998" lon="5.943">
        <ele>687</ele>
        <time>2019-06-25T08:16:28Z</time>
      </trkpt>
      <trkpt lat="44.42" lon="5.94299">
        <ele>688</ele>
        <time>2019-06-25T08:16:29Z</time>
      </trkpt>
      <trkpt lat="44.42002" lon="5.94297">
        <ele>688</ele>
        <time>2019-06-25T08:16:30Z</time>
      </trkpt>
      <trkpt lat="44.42004" lon="5.94294">
        <ele>688</ele>
        <time>2019-06-25T08:16:31Z</time>
      </trkpt>
      <trkpt lat="44.42006" lon="5.94292">
        <ele>688</ele>
        <time>2019-06-25T08:16:32Z</time>
      </trkpt>
      <trkpt lat="44.42007" lon="5.94289">
        <ele>689</ele>
        <time>2019-06-25T08:16:33Z</time>
      </trkpt>
      <trkpt lat="44.42009" lon="5.94286">
        <ele>689</ele>
        <time>2019-06-25T08:16:34Z</time>
      </trkpt>
      <trkpt lat="44.42011" lon="5.94283">
        <ele>689</ele>
        <time>2019-06-25T08:16:35Z</time>
      </trkpt>
      <trkpt lat="44.42012" lon="5.9428">
        <ele>689</ele>
        <time>2019-06-25T08:16:36Z</time>
      </trkpt>
      <trkpt lat="44.42014" lon="5.94278">
        <ele>689</ele>
        <time>2019-06-25T08:16:37Z</time>
      </trkpt>
      <trkpt lat="44.42015" lon="5.94275">
        <ele>690</ele>
        <time>2019-06-25T08:16:38Z</time>
      </trkpt>
      <trkpt lat="44.42017" lon="5.94272">
        <ele>690</ele>
        <time>2019-06-25T08:16:39Z</time>
      </trkpt>
      <trkpt lat="44.42018" lon="5.94268">
        <ele>690</ele>
        <time>2019-06-25T08:16:40Z</time>
      </trkpt>
      <trkpt lat="44.42019" lon="5.94264">
        <ele>690</ele>
        <time>2019-06-25T08:16:41Z</time>
      </trkpt>
      <trkpt lat="44.4202" lon="5.94261">
        <ele>690</ele>
        <time>2019-06-25T08:16:42Z</time>
      </trkpt>
      <trkpt lat="44.42022" lon="5.94258">
        <ele>690</ele>
        <time>2019-06-25T08:16:43Z</time>
      </trkpt>
      <trkpt lat="44.42023" lon="5.94255">
        <ele>690</ele>
        <time>2019-06-25T08:16:44Z</time>
      </trkpt>
      <trkpt lat="44.42025" lon="5.94252">
        <ele>690</ele>
        <time>2019-06-25T08:16:45Z</time>
      </trkpt>
      <trkpt lat="44.42027" lon="5.9425">
        <ele>690</ele>
        <time>2019-06-25T08:16:46Z</time>
      </trkpt>
      <trkpt lat="44.42029" lon="5.94248">
        <ele>690</ele>
        <time>2019-06-25T08:16:47Z</time>
      </trkpt>
      <trkpt lat="44.42031" lon="5.94246">
        <ele>690</ele>
        <time>2019-06-25T08:16:48Z</time>
      </trkpt>
      <trkpt lat="44.42034" lon="5.94244">
        <ele>690</ele>
        <time>2019-06-25T08:16:49Z</time>
      </trkpt>
      <trkpt lat="44.42036" lon="5.94243">
        <ele>690</ele>
        <time>2019-06-25T08:16:50Z</time>
      </trkpt>
      <trkpt lat="44.42039" lon="5.94241">
        <ele>690</ele>
        <time>2019-06-25T08:16:51Z</time>
      </trkpt>
      <trkpt lat="44.42041" lon="5.9424">
        <ele>690</ele>
        <time>2019-06-25T08:16:52Z</time>
      </trkpt>
      <trkpt lat="44.42044" lon="5.94239">
        <ele>690</ele>
        <time>2019-06-25T08:16:53Z</time>
      </trkpt>
      <trkpt lat="44.42047" lon="5.94237">
        <ele>690</ele>
        <time>2019-06-25T08:16:54Z</time>
      </trkpt>
      <trkpt lat="44.42049" lon="5.94236">
        <ele>691</ele>
        <time>2019-06-25T08:16:55Z</time>
      </trkpt>
      <trkpt lat="44.42052" lon="5.94234">
        <ele>691</ele>
        <time>2019-06-25T08:16:56Z</time>
      </trkpt>
      <trkpt lat="44.42055" lon="5.94233">
        <ele>691</ele>
        <time>2019-06-25T08:16:57Z</time>
      </trkpt>
      <trkpt lat="44.42058" lon="5.94231">
        <ele>692</ele>
        <time>2019-06-25T08:16:58Z</time>
      </trkpt>
      <trkpt lat="44.42061" lon="5.94229">
        <ele>692</ele>
        <time>2019-06-25T08:16:59Z</time>
      </trkpt>
      <trkpt lat="44.42064" lon="5.94226">
        <ele>693</ele>
        <time>2019-06-25T08:17:00Z</time>
      </trkpt>
      <trkpt lat="44.42066" lon="5.94223">
        <ele>693</ele>
        <time>2019-06-25T08:17:01Z</time>
      </trkpt>
      <trkpt lat="44.42069" lon="5.9422">
        <ele>694</ele>
        <time>2019-06-25T08:17:02Z</time>
      </trkpt>
      <trkpt lat="44.42071" lon="5.94218">
        <ele>694</ele>
        <time>2019-06-25T08:17:03Z</time>
      </trkpt>
      <trkpt lat="44.42073" lon="5.94214">
        <ele>694</ele>
        <time>2019-06-25T08:17:04Z</time>
      </trkpt>
      <trkpt lat="44.42075" lon="5.94211">
        <ele>695</ele>
        <time>2019-06-25T08:17:05Z</time>
      </trkpt>
      <trkpt lat="44.42077" lon="5.94208">
        <ele>695</ele>
        <time>2019-06-25T08:17:06Z</time>
      </trkpt>
      <trkpt lat="44.42079" lon="5.94204">
        <ele>696</ele>
        <time>2019-06-25T08:17:07Z</time>
      </trkpt>
      <trkpt lat="44.4208" lon="5.94201">
        <ele>696</ele>
        <time>2019-06-25T08:17:08Z</time>
      </trkpt>
      <trkpt lat="44.42082" lon="5.94198">
        <ele>696</ele>
        <time>2019-06-25T08:17:09Z</time>
      </trkpt>
      <trkpt lat="44.42083" lon="5.94194">
        <ele>697</ele>
        <time>2019-06-25T08:17:10Z</time>
      </trkpt>
      <trkpt lat="44.42085" lon="5.94191">
        <ele>697</ele>
        <time>2019-06-25T08:17:11Z</time>
      </trkpt>
      <trkpt lat="44.42086" lon="5.94187">
        <ele>697</ele>
        <time>2019-06-25T08:17:12Z</time>
      </trkpt>
      <trkpt lat="44.42087" lon="5.94183">
        <ele>697</ele>
        <time>2019-06-25T08:17:13Z</time>
      </trkpt>
      <trkpt lat="44.42088" lon="5.94179">
        <ele>697</ele>
        <time>2019-06-25T08:17:14Z</time>
      </trkpt>
      <trkpt lat="44.42089" lon="5.94175">
        <ele>698</ele>
        <time>2019-06-25T08:17:15Z</time>
      </trkpt>
      <trkpt lat="44.4209" lon="5.94171">
        <ele>698</ele>
        <time>2019-06-25T08:17:16Z</time>
      </trkpt>
      <trkpt lat="44.42091" lon="5.94167">
        <ele>698</ele>
        <time>2019-06-25T08:17:17Z</time>
      </trkpt>
      <trkpt lat="44.42093" lon="5.94163">
        <ele>698</ele>
        <time>2019-06-25T08:17:18Z</time>
      </trkpt>
      <trkpt lat="44.42094" lon="5.94159">
        <ele>698</ele>
        <time>2019-06-25T08:17:19Z</time>
      </trkpt>
      <trkpt lat="44.42095" lon="5.94155">
        <ele>698</ele>
        <time>2019-06-25T08:17:20Z</time>
      </trkpt>
      <trkpt lat="44.42096" lon="5.94151">
        <ele>698</ele>
        <time>2019-06-25T08:17:21Z</time>
      </trkpt>
      <trkpt lat="44.42096" lon="5.94147">
        <ele>698</ele>
        <time>2019-06-25T08:17:22Z</time>
      </trkpt>
      <trkpt lat="44.42097" lon="5.94143">
        <ele>698</ele>
        <time>2019-06-25T08:17:23Z</time>
      </trkpt>
      <trkpt lat="44.42098" lon="5.94138">
        <ele>698</ele>
        <time>2019-06-25T08:17:24Z</time>
      </trkpt>
      <trkpt lat="44.42099" lon="5.94134">
        <ele>698</ele>
        <time>2019-06-25T08:17:25Z</time>
      </trkpt>
      <trkpt lat="44.421" lon="5.9413">
        <ele>698</ele>
        <time>2019-06-25T08:17:26Z</time>
      </trkpt>
      <trkpt lat="44.421" lon="5.94125">
        <ele>698</ele>
        <time>2019-06-25T08:17:27Z</time>
      </trkpt>
      <trkpt lat="44.42101" lon="5.94121">
        <ele>698</ele>
        <time>2019-06-25T08:17:28Z</time>
      </trkpt>
      <trkpt lat="44.42101" lon="5.94116">
        <ele>698</ele>
        <time>2019-06-25T08:17:29Z</time>
      </trkpt>
      <trkpt lat="44.42102" lon="5.94112">
        <ele>698</ele>
        <time>2019-06-25T08:17:30Z</time>
      </trkpt>
      <trkpt lat="44.42103" lon="5.94106">
        <ele>698</ele>
        <time>2019-06-25T08:17:31Z</time>
      </trkpt>
      <trkpt lat="44.42103" lon="5.94101">
        <ele>698</ele>
        <time>2019-06-25T08:17:32Z</time>
      </trkpt>
      <trkpt lat="44.42103" lon="5.94097">
        <ele>698</ele>
        <time>2019-06-25T08:17:33Z</time>
      </trkpt>
      <trkpt lat="44.42104" lon="5.94092">
        <ele>698</ele>
        <time>2019-06-25T08:17:34Z</time>
      </trkpt>
      <trkpt lat="44.42104" lon="5.94087">
        <ele>698</ele>
        <time>2019-06-25T08:17:35Z</time>
      </trkpt>
      <trkpt lat="44.42105" lon="5.94082">
        <ele>698</ele>
        <time>2019-06-25T08:17:36Z</time>
      </trkpt>
      <trkpt lat="44.42106" lon="5.94077">
        <ele>698</ele>
        <time>2019-06-25T08:17:37Z</time>
      </trkpt>
      <trkpt lat="44.42107" lon="5.94072">
        <ele>698</ele>
        <time>2019-06-25T08:17:38Z</time>
      </trkpt>
      <trkpt lat="44.42107" lon="5.94067">
        <ele>698</ele>
        <time>2019-06-25T08:17:39Z</time>
      </trkpt>
      <trkpt lat="44.42108" lon="5.94062">
        <ele>698</ele>
        <time>2019-06-25T08:17:40Z</time>
      </trkpt>
      <trkpt lat="44.42109" lon="5.94056">
        <ele>698</ele>
        <time>2019-06-25T08:17:41Z</time>
      </trkpt>
      <trkpt lat="44.4211" lon="5.94051">
        <ele>698</ele>
        <time>2019-06-25T08:17:42Z</time>
      </trkpt>
      <trkpt lat="44.4211" lon="5.94045">
        <ele>698</ele>
        <time>2019-06-25T08:17:43Z</time>
      </trkpt>
      <trkpt lat="44.42111" lon="5.9404">
        <ele>698</ele>
        <time>2019-06-25T08:17:44Z</time>
      </trkpt>
      <trkpt lat="44.42112" lon="5.94036">
        <ele>698</ele>
        <time>2019-06-25T08:17:45Z</time>
      </trkpt>
      <trkpt lat="44.42113" lon="5.94031">
        <ele>698</ele>
        <time>2019-06-25T08:17:46Z</time>
      </trkpt>
      <trkpt lat="44.42113" lon="5.94027">
        <ele>698</ele>
        <time>2019-06-25T08:17:47Z</time>
      </trkpt>
      <trkpt lat="44.42114" lon="5.94022">
        <ele>698</ele>
        <time>2019-06-25T08:17:48Z</time>
      </trkpt>
      <trkpt lat="44.42115" lon="5.94018">
        <ele>698</ele>
        <time>2019-06-25T08:17:49Z</time>
      </trkpt>
      <trkpt lat="44.42115" lon="5.94014">
        <ele>698</ele>
        <time>2019-06-25T08:17:50Z</time>
      </trkpt>
      <trkpt lat="44.42116" lon="5.94009">
        <ele>698</ele>
        <time>2019-06-25T08:17:51Z</time>
      </trkpt>
      <trkpt lat="44.42116" lon="5.94003">
        <ele>698</ele>
        <time>2019-06-25T08:17:52Z</time>
      </trkpt>
      <trkpt lat="44.42117" lon="5.93998">
        <ele>698</ele>
        <time>2019-06-25T08:17:53Z</time>
      </trkpt>
      <trkpt lat="44.42118" lon="5.93992">
        <ele>698</ele>
        <time>2019-06-25T08:17:54Z</time>
      </trkpt>
      <trkpt lat="44.42119" lon="5.93987">
        <ele>698</ele>
        <time>2019-06-25T08:17:55Z</time>
      </trkpt>
      <trkpt lat="44.4212" lon="5.93982">
        <ele>698</ele>
        <time>2019-06-25T08:17:56Z</time>
      </trkpt>
      <trkpt lat="44.42121" lon="5.93976">
        <ele>698</ele>
        <time>2019-06-25T08:17:57Z</time>
      </trkpt>
      <trkpt lat="44.42122" lon="5.93971">
        <ele>698</ele>
        <time>2019-06-25T08:17:58Z</time>
      </trkpt>
      <trkpt lat="44.42123" lon="5.93966">
        <ele>698</ele>
        <time>2019-06-25T08:17:59Z</time>
      </trkpt>
      <trkpt lat="44.42124" lon="5.93961">
        <ele>698</ele>
        <time>2019-06-25T08:18:00Z</time>
      </trkpt>
      <trkpt lat="44.42125" lon="5.93955">
        <ele>698</ele>
        <time>2019-06-25T08:18:01Z</time>
      </trkpt>
      <trkpt lat="44.42127" lon="5.9395">
        <ele>698</ele>
        <time>2019-06-25T08:18:02Z</time>
      </trkpt>
      <trkpt lat="44.42128" lon="5.93945">
        <ele>698</ele>
        <time>2019-06-25T08:18:03Z</time>
      </trkpt>
      <trkpt lat="44.4213" lon="5.93939">
        <ele>698</ele>
        <time>2019-06-25T08:18:04Z</time>
      </trkpt>
      <trkpt lat="44.42131" lon="5.93934">
        <ele>698</ele>
        <time>2019-06-25T08:18:05Z</time>
      </trkpt>
      <trkpt lat="44.42132" lon="5.93929">
        <ele>698</ele>
        <time>2019-06-25T08:18:06Z</time>
      </trkpt>
      <trkpt lat="44.42133" lon="5.93925">
        <ele>698</ele>
        <time>2019-06-25T08:18:07Z</time>
      </trkpt>
      <trkpt lat="44.42135" lon="5.9392">
        <ele>698</ele>
        <time>2019-06-25T08:18:08Z</time>
      </trkpt>
      <trkpt lat="44.42136" lon="5.93915">
        <ele>698</ele>
        <time>2019-06-25T08:18:09Z</time>
      </trkpt>
      <trkpt lat="44.42137" lon="5.9391">
        <ele>698</ele>
        <time>2019-06-25T08:18:10Z</time>
      </trkpt>
      <trkpt lat="44.42138" lon="5.93906">
        <ele>698</ele>
        <time>2019-06-25T08:18:11Z</time>
      </trkpt>
      <trkpt lat="44.4214" lon="5.93901">
        <ele>698</ele>
        <time>2019-06-25T08:18:12Z</time>
      </trkpt>
      <trkpt lat="44.42141" lon="5.93896">
        <ele>698</ele>
        <time>2019-06-25T08:18:13Z</time>
      </trkpt>
      <trkpt lat="44.42142" lon="5.93892">
        <ele>698</ele>
        <time>2019-06-25T08:18:14Z</time>
      </trkpt>
      <trkpt lat="44.42144" lon="5.93888">
        <ele>698</ele>
        <time>2019-06-25T08:18:15Z</time>
      </trkpt>
      <trkpt lat="44.42145" lon="5.93883">
        <ele>698</ele>
        <time>2019-06-25T08:18:16Z</time>
      </trkpt>
      <trkpt lat="44.42146" lon="5.93879">
        <ele>698</ele>
        <time>2019-06-25T08:18:17Z</time>
      </trkpt>
      <trkpt lat="44.42148" lon="5.93874">
        <ele>698</ele>
        <time>2019-06-25T08:18:18Z</time>
      </trkpt>
      <trkpt lat="44.42149" lon="5.93869">
        <ele>698</ele>
        <time>2019-06-25T08:18:19Z</time>
      </trkpt>
      <trkpt lat="44.4215" lon="5.93864">
        <ele>698</ele>
        <time>2019-06-25T08:18:20Z</time>
      </trkpt>
      <trkpt lat="44.42152" lon="5.93859">
        <ele>698</ele>
        <time>2019-06-25T08:18:21Z</time>
      </trkpt>
      <trkpt lat="44.42154" lon="5.93854">
        <ele>698</ele>
        <time>2019-06-25T08:18:22Z</time>
      </trkpt>
      <trkpt lat="44.42155" lon="5.93849">
        <ele>698</ele>
        <time>2019-06-25T08:18:23Z</time>
      </trkpt>
      <trkpt lat="44.42157" lon="5.93844">
        <ele>698</ele>
        <time>2019-06-25T08:18:24Z</time>
      </trkpt>
      <trkpt lat="44.42158" lon="5.93839">
        <ele>698</ele>
        <time>2019-06-25T08:18:25Z</time>
      </trkpt>
      <trkpt lat="44.42159" lon="5.93833">
        <ele>698</ele>
        <time>2019-06-25T08:18:26Z</time>
      </trkpt>
      <trkpt lat="44.4216" lon="5.93828">
        <ele>698</ele>
        <time>2019-06-25T08:18:27Z</time>
      </trkpt>
      <trkpt lat="44.42162" lon="5.93822">
        <ele>698</ele>
        <time>2019-06-25T08:18:28Z</time>
      </trkpt>
      <trkpt lat="44.42164" lon="5.93818">
        <ele>698</ele>
        <time>2019-06-25T08:18:29Z</time>
      </trkpt>
      <trkpt lat="44.42165" lon="5.93813">
        <ele>698</ele>
        <time>2019-06-25T08:18:30Z</time>
      </trkpt>
      <trkpt lat="44.42166" lon="5.93808">
        <ele>698</ele>
        <time>2019-06-25T08:18:31Z</time>
      </trkpt>
      <trkpt lat="44.42168" lon="5.93803">
        <ele>698</ele>
        <time>2019-06-25T08:18:32Z</time>
      </trkpt>
      <trkpt lat="44.42169" lon="5.93798">
        <ele>698</ele>
        <time>2019-06-25T08:18:33Z</time>
      </trkpt>
      <trkpt lat="44.42171" lon="5.93792">
        <ele>698</ele>
        <time>2019-06-25T08:18:34Z</time>
      </trkpt>
      <trkpt lat="44.42172" lon="5.93788">
        <ele>698</ele>
        <time>2019-06-25T08:18:35Z</time>
      </trkpt>
      <trkpt lat="44.42173" lon="5.93783">
        <ele>698</ele>
        <time>2019-06-25T08:18:36Z</time>
      </trkpt>
      <trkpt lat="44.42174" lon="5.93779">
        <ele>698</ele>
        <time>2019-06-25T08:18:37Z</time>
      </trkpt>
      <trkpt lat="44.42176" lon="5.93774">
        <ele>698</ele>
        <time>2019-06-25T08:18:38Z</time>
      </trkpt>
      <trkpt lat="44.42177" lon="5.93769">
        <ele>698</ele>
        <time>2019-06-25T08:18:39Z</time>
      </trkpt>
      <trkpt lat="44.42178" lon="5.93764">
        <ele>698</ele>
        <time>2019-06-25T08:18:40Z</time>
      </trkpt>
      <trkpt lat="44.4218" lon="5.93759">
        <ele>699</ele>
        <time>2019-06-25T08:18:41Z</time>
      </trkpt>
      <trkpt lat="44.42181" lon="5.93755">
        <ele>699</ele>
        <time>2019-06-25T08:18:42Z</time>
      </trkpt>
      <trkpt lat="44.42182" lon="5.93751">
        <ele>699</ele>
        <time>2019-06-25T08:18:43Z</time>
      </trkpt>
      <trkpt lat="44.42184" lon="5.93746">
        <ele>700</ele>
        <time>2019-06-25T08:18:44Z</time>
      </trkpt>
      <trkpt lat="44.42185" lon="5.93741">
        <ele>700</ele>
        <time>2019-06-25T08:18:45Z</time>
      </trkpt>
      <trkpt lat="44.42186" lon="5.93736">
        <ele>700</ele>
        <time>2019-06-25T08:18:46Z</time>
      </trkpt>
      <trkpt lat="44.42187" lon="5.93731">
        <ele>701</ele>
        <time>2019-06-25T08:18:47Z</time>
      </trkpt>
      <trkpt lat="44.42189" lon="5.93727">
        <ele>701</ele>
        <time>2019-06-25T08:18:48Z</time>
      </trkpt>
      <trkpt lat="44.4219" lon="5.93722">
        <ele>702</ele>
        <time>2019-06-25T08:18:49Z</time>
      </trkpt>
      <trkpt lat="44.42191" lon="5.93717">
        <ele>702</ele>
        <time>2019-06-25T08:18:50Z</time>
      </trkpt>
      <trkpt lat="44.42193" lon="5.93713">
        <ele>702</ele>
        <time>2019-06-25T08:18:51Z</time>
      </trkpt>
      <trkpt lat="44.42194" lon="5.93708">
        <ele>703</ele>
        <time>2019-06-25T08:18:52Z</time>
      </trkpt>
      <trkpt lat="44.42196" lon="5.93703">
        <ele>703</ele>
        <time>2019-06-25T08:18:53Z</time>
      </trkpt>
      <trkpt lat="44.42197" lon="5.93698">
        <ele>703</ele>
        <time>2019-06-25T08:18:54Z</time>
      </trkpt>
      <trkpt lat="44.42198" lon="5.93693">
        <ele>704</ele>
        <time>2019-06-25T08:18:55Z</time>
      </trkpt>
      <trkpt lat="44.422" lon="5.93688">
        <ele>704</ele>
        <time>2019-06-25T08:18:56Z</time>
      </trkpt>
      <trkpt lat="44.42201" lon="5.93683">
        <ele>705</ele>
        <time>2019-06-25T08:18:57Z</time>
      </trkpt>
      <trkpt lat="44.42202" lon="5.93679">
        <ele>705</ele>
        <time>2019-06-25T08:18:58Z</time>
      </trkpt>
      <trkpt lat="44.42204" lon="5.93674">
        <ele>705</ele>
        <time>2019-06-25T08:18:59Z</time>
      </trkpt>
      <trkpt lat="44.42205" lon="5.93669">
        <ele>706</ele>
        <time>2019-06-25T08:19:00Z</time>
      </trkpt>
      <trkpt lat="44.42207" lon="5.93664">
        <ele>706</ele>
        <time>2019-06-25T08:19:01Z</time>
      </trkpt>
      <trkpt lat="44.42208" lon="5.93658">
        <ele>706</ele>
        <time>2019-06-25T08:19:02Z</time>
      </trkpt>
      <trkpt lat="44.4221" lon="5.93653">
        <ele>707</ele>
        <time>2019-06-25T08:19:03Z</time>
      </trkpt>
      <trkpt lat="44.42211" lon="5.93647">
        <ele>707</ele>
        <time>2019-06-25T08:19:04Z</time>
      </trkpt>
      <trkpt lat="44.42213" lon="5.93642">
        <ele>707</ele>
        <time>2019-06-25T08:19:05Z</time>
      </trkpt>
      <trkpt lat="44.42214" lon="5.93637">
        <ele>708</ele>
        <time>2019-06-25T08:19:06Z</time>
      </trkpt>
      <trkpt lat="44.42215" lon="5.93631">
        <ele>708</ele>
        <time>2019-06-25T08:19:07Z</time>
      </trkpt>
      <trkpt lat="44.42217" lon="5.93625">
        <ele>708</ele>
        <time>2019-06-25T08:19:08Z</time>
      </trkpt>
      <trkpt lat="44.42218" lon="5.9362">
        <ele>709</ele>
        <time>2019-06-25T08:19:09Z</time>
      </trkpt>
      <trkpt lat="44.42219" lon="5.93615">
        <ele>709</ele>
        <time>2019-06-25T08:19:10Z</time>
      </trkpt>
      <trkpt lat="44.4222" lon="5.9361">
        <ele>709</ele>
        <time>2019-06-25T08:19:11Z</time>
      </trkpt>
      <trkpt lat="44.42221" lon="5.93604">
        <ele>709</ele>
        <time>2019-06-25T08:19:12Z</time>
      </trkpt>
      <trkpt lat="44.42222" lon="5.93599">
        <ele>709</ele>
        <time>2019-06-25T08:19:13Z</time>
      </trkpt>
      <trkpt lat="44.42222" lon="5.93593">
        <ele>709</ele>
        <time>2019-06-25T08:19:14Z</time>
      </trkpt>
      <trkpt lat="44.42223" lon="5.93587">
        <ele>709</ele>
        <time>2019-06-25T08:19:15Z</time>
      </trkpt>
      <trkpt lat="44.42222" lon="5.93581">
        <ele>709</ele>
        <time>2019-06-25T08:19:16Z</time>
      </trkpt>
      <trkpt lat="44.42222" lon="5.93575">
        <ele>709</ele>
        <time>2019-06-25T08:19:17Z</time>
      </trkpt>
      <trkpt lat="44.42221" lon="5.93569">
        <ele>709</ele>
        <time>2019-06-25T08:19:18Z</time>
      </trkpt>
      <trkpt lat="44.4222" lon="5.93563">
        <ele>709</ele>
        <time>2019-06-25T08:19:19Z</time>
      </trkpt>
      <trkpt lat="44.42219" lon="5.93556">
        <ele>709</ele>
        <time>2019-06-25T08:19:20Z</time>
      </trkpt>
      <trkpt lat="44.42218" lon="5.9355">
        <ele>709</ele>
        <time>2019-06-25T08:19:21Z</time>
      </trkpt>
      <trkpt lat="44.42218" lon="5.93543">
        <ele>709</ele>
        <time>2019-06-25T08:19:22Z</time>
      </trkpt>
      <trkpt lat="44.42218" lon="5.93537">
        <ele>709</ele>
        <time>2019-06-25T08:19:23Z</time>
      </trkpt>
      <trkpt lat="44.42217" lon="5.9353">
        <ele>709</ele>
        <time>2019-06-25T08:19:24Z</time>
      </trkpt>
      <trkpt lat="44.42217" lon="5.93523">
        <ele>709</ele>
        <time>2019-06-25T08:19:25Z</time>
      </trkpt>
      <trkpt lat="44.42217" lon="5.93515">
        <ele>709</ele>
        <time>2019-06-25T08:19:26Z</time>
      </trkpt>
      <trkpt lat="44.42217" lon="5.93508">
        <ele>709</ele>
        <time>2019-06-25T08:19:27Z</time>
      </trkpt>
      <trkpt lat="44.42218" lon="5.93501">
        <ele>709</ele>
        <time>2019-06-25T08:19:28Z</time>
      </trkpt>
      <trkpt lat="44.4222" lon="5.93495">
        <ele>709</ele>
        <time>2019-06-25T08:19:29Z</time>
      </trkpt>
      <trkpt lat="44.42222" lon="5.93489">
        <ele>709</ele>
        <time>2019-06-25T08:19:30Z</time>
      </trkpt>
      <trkpt lat="44.42226" lon="5.93484">
        <ele>709</ele>
        <time>2019-06-25T08:19:31Z</time>
      </trkpt>
      <trkpt lat="44.42231" lon="5.93482">
        <ele>709</ele>
        <time>2019-06-25T08:19:32Z</time>
      </trkpt>
      <trkpt lat="44.42236" lon="5.93483">
        <ele>709</ele>
        <time>2019-06-25T08:19:33Z</time>
      </trkpt>
      <trkpt lat="44.42241" lon="5.93484">
        <ele>709</ele>
        <time>2019-06-25T08:19:34Z</time>
      </trkpt>
      <trkpt lat="44.42246" lon="5.93487">
        <ele>709</ele>
        <time>2019-06-25T08:19:35Z</time>
      </trkpt>
      <trkpt lat="44.4225" lon="5.93489">
        <ele>709</ele>
        <time>2019-06-25T08:19:36Z</time>
      </trkpt>
      <trkpt lat="44.42255" lon="5.93491">
        <ele>710</ele>
        <time>2019-06-25T08:19:37Z</time>
      </trkpt>
      <trkpt lat="44.42259" lon="5.93492">
        <ele>710</ele>
        <time>2019-06-25T08:19:38Z</time>
      </trkpt>
      <trkpt lat="44.42264" lon="5.93492">
        <ele>711</ele>
        <time>2019-06-25T08:19:39Z</time>
      </trkpt>
      <trkpt lat="44.42268" lon="5.93492">
        <ele>711</ele>
        <time>2019-06-25T08:19:40Z</time>
      </trkpt>
      <trkpt lat="44.42272" lon="5.9349">
        <ele>712</ele>
        <time>2019-06-25T08:19:41Z</time>
      </trkpt>
      <trkpt lat="44.42276" lon="5.93489">
        <ele>712</ele>
        <time>2019-06-25T08:19:42Z</time>
      </trkpt>
      <trkpt lat="44.42279" lon="5.93486">
        <ele>713</ele>
        <time>2019-06-25T08:19:43Z</time>
      </trkpt>
      <trkpt lat="44.42283" lon="5.93483">
        <ele>713</ele>
        <time>2019-06-25T08:19:44Z</time>
      </trkpt>
      <trkpt lat="44.42286" lon="5.93479">
        <ele>714</ele>
        <time>2019-06-25T08:19:45Z</time>
      </trkpt>
      <trkpt lat="44.42288" lon="5.93474">
        <ele>714</ele>
        <time>2019-06-25T08:19:46Z</time>
      </trkpt>
      <trkpt lat="44.4229" lon="5.93468">
        <ele>714</ele>
        <time>2019-06-25T08:19:47Z</time>
      </trkpt>
      <trkpt lat="44.42291" lon="5.93463">
        <ele>714</ele>
        <time>2019-06-25T08:19:48Z</time>
      </trkpt>
      <trkpt lat="44.42292" lon="5.93457">
        <ele>715</ele>
        <time>2019-06-25T08:19:49Z</time>
      </trkpt>
      <trkpt lat="44.42294" lon="5.9345">
        <ele>715</ele>
        <time>2019-06-25T08:19:50Z</time>
      </trkpt>
      <trkpt lat="44.42295" lon="5.93444">
        <ele>715</ele>
        <time>2019-06-25T08:19:51Z</time>
      </trkpt>
      <trkpt lat="44.42297" lon="5.93438">
        <ele>715</ele>
        <time>2019-06-25T08:19:52Z</time>
      </trkpt>
      <trkpt lat="44.423" lon="5.93433">
        <ele>716</ele>
        <time>2019-06-25T08:19:53Z</time>
      </trkpt>
      <trkpt lat="44.42304" lon="5.93429">
        <ele>716</ele>
        <time>2019-06-25T08:19:54Z</time>
      </trkpt>
      <trkpt lat="44.42308" lon="5.93426">
        <ele>716</ele>
        <time>2019-06-25T08:19:55Z</time>
      </trkpt>
      <trkpt lat="44.42313" lon="5.93423">
        <ele>716</ele>
        <time>2019-06-25T08:19:56Z</time>
      </trkpt>
      <trkpt lat="44.42318" lon="5.93421">
        <ele>716</ele>
        <time>2019-06-25T08:19:57Z</time>
      </trkpt>
      <trkpt lat="44.42323" lon="5.93421">
        <ele>717</ele>
        <time>2019-06-25T08:19:58Z</time>
      </trkpt>
      <trkpt lat="44.42327" lon="5.93421">
        <ele>717</ele>
        <time>2019-06-25T08:19:59Z</time>
      </trkpt>
      <trkpt lat="44.42332" lon="5.93424">
        <ele>717</ele>
        <time>2019-06-25T08:20:00Z</time>
      </trkpt>
      <trkpt lat="44.42337" lon="5.93427">
        <ele>717</ele>
        <time>2019-06-25T08:20:01Z</time>
      </trkpt>
      <trkpt lat="44.42341" lon="5.93431">
        <ele>717</ele>
        <time>2019-06-25T08:20:02Z</time>
      </trkpt>
      <trkpt lat="44.42345" lon="5.93436">
        <ele>717</ele>
        <time>2019-06-25T08:20:03Z</time>
      </trkpt>
      <trkpt lat="44.42348" lon="5.93441">
        <ele>717</ele>
        <time>2019-06-25T08:20:04Z</time>
      </trkpt>
      <trkpt lat="44.42351" lon="5.93446">
        <ele>717</ele>
        <time>2019-06-25T08:20:05Z</time>
      </trkpt>
      <trkpt lat="44.42353" lon="5.93452">
        <ele>717</ele>
        <time>2019-06-25T08:20:06Z</time>
      </trkpt>
      <trkpt lat="44.42355" lon="5.93458">
        <ele>717</ele>
        <time>2019-06-25T08:20:07Z</time>
      </trkpt>
      <trkpt lat="44.42356" lon="5.93464">
        <ele>717</ele>
        <time>2019-06-25T08:20:08Z</time>
      </trkpt>
      <trkpt lat="44.42358" lon="5.93469">
        <ele>718</ele>
        <time>2019-06-25T08:20:09Z</time>
      </trkpt>
      <trkpt lat="44.4236" lon="5.93474">
        <ele>718</ele>
        <time>2019-06-25T08:20:10Z</time>
      </trkpt>
      <trkpt lat="44.42362" lon="5.93479">
        <ele>718</ele>
        <time>2019-06-25T08:20:11Z</time>
      </trkpt>
      <trkpt lat="44.42365" lon="5.93483">
        <ele>719</ele>
        <time>2019-06-25T08:20:12Z</time>
      </trkpt>
      <trkpt lat="44.42368" lon="5.93487">
        <ele>719</ele>
        <time>2019-06-25T08:20:13Z</time>
      </trkpt>
      <trkpt lat="44.42371" lon="5.93489">
        <ele>719</ele>
        <time>2019-06-25T08:20:14Z</time>
      </trkpt>
      <trkpt lat="44.42375" lon="5.93492">
        <ele>719</ele>
        <time>2019-06-25T08:20:15Z</time>
      </trkpt>
      <trkpt lat="44.42379" lon="5.93493">
        <ele>719</ele>
        <time>2019-06-25T08:20:16Z</time>
      </trkpt>
      <trkpt lat="44.42382" lon="5.93494">
        <ele>719</ele>
        <time>2019-06-25T08:20:17Z</time>
      </trkpt>
      <trkpt lat="44.42386" lon="5.93494">
        <ele>719</ele>
        <time>2019-06-25T08:20:18Z</time>
      </trkpt>
      <trkpt lat="44.4239" lon="5.93494">
        <ele>720</ele>
        <time>2019-06-25T08:20:19Z</time>
      </trkpt>
      <trkpt lat="44.42393" lon="5.93493">
        <ele>720</ele>
        <time>2019-06-25T08:20:20Z</time>
      </trkpt>
      <trkpt lat="44.42397" lon="5.93491">
        <ele>720</ele>
        <time>2019-06-25T08:20:21Z</time>
      </trkpt>
      <trkpt lat="44.424" lon="5.9349">
        <ele>720</ele>
        <time>2019-06-25T08:20:22Z</time>
      </trkpt>
      <trkpt lat="44.42404" lon="5.93488">
        <ele>720</ele>
        <time>2019-06-25T08:20:23Z</time>
      </trkpt>
      <trkpt lat="44.42407" lon="5.93486">
        <ele>720</ele>
        <time>2019-06-25T08:20:24Z</time>
      </trkpt>
      <trkpt lat="44.4241" lon="5.93484">
        <ele>720</ele>
        <time>2019-06-25T08:20:25Z</time>
      </trkpt>
      <trkpt lat="44.42413" lon="5.93482">
        <ele>720</ele>
        <time>2019-06-25T08:20:26Z</time>
      </trkpt>
      <trkpt lat="44.42416" lon="5.9348">
        <ele>721</ele>
        <time>2019-06-25T08:20:27Z</time>
      </trkpt>
      <trkpt lat="44.42419" lon="5.93478">
        <ele>721</ele>
        <time>2019-06-25T08:20:28Z</time>
      </trkpt>
      <trkpt lat="44.42422" lon="5.93476">
        <ele>721</ele>
        <time>2019-06-25T08:20:29Z</time>
      </trkpt>
      <trkpt lat="44.42425" lon="5.93474">
        <ele>722</ele>
        <time>2019-06-25T08:20:30Z</time>
      </trkpt>
      <trkpt lat="44.42427" lon="5.93473">
        <ele>722</ele>
        <time>2019-06-25T08:20:31Z</time>
      </trkpt>
      <trkpt lat="44.4243" lon="5.93471">
        <ele>723</ele>
        <time>2019-06-25T08:20:32Z</time>
      </trkpt>
      <trkpt lat="44.42433" lon="5.9347">
        <ele>723</ele>
        <time>2019-06-25T08:20:33Z</time>
      </trkpt>
      <trkpt lat="44.42435" lon="5.93468">
        <ele>723</ele>
        <time>2019-06-25T08:20:34Z</time>
      </trkpt>
      <trkpt lat="44.42438" lon="5.93466">
        <ele>724</ele>
        <time>2019-06-25T08:20:35Z</time>
      </trkpt>
      <trkpt lat="44.4244" lon="5.93464">
        <ele>724</ele>
        <time>2019-06-25T08:20:36Z</time>
      </trkpt>
      <trkpt lat="44.42443" lon="5.93462">
        <ele>724</ele>
        <time>2019-06-25T08:20:37Z</time>
      </trkpt>
      <trkpt lat="44.42447" lon="5.9346">
        <ele>725</ele>
        <time>2019-06-25T08:20:38Z</time>
      </trkpt>
      <trkpt lat="44.4245" lon="5.93458">
        <ele>725</ele>
        <time>2019-06-25T08:20:39Z</time>
      </trkpt>
      <trkpt lat="44.42452" lon="5.93457">
        <ele>726</ele>
        <time>2019-06-25T08:20:40Z</time>
      </trkpt>
      <trkpt lat="44.42455" lon="5.93455">
        <ele>726</ele>
        <time>2019-06-25T08:20:41Z</time>
      </trkpt>
      <trkpt lat="44.42457" lon="5.93454">
        <ele>726</ele>
        <time>2019-06-25T08:20:42Z</time>
      </trkpt>
      <trkpt lat="44.4246" lon="5.93452">
        <ele>727</ele>
        <time>2019-06-25T08:20:43Z</time>
      </trkpt>
      <trkpt lat="44.42463" lon="5.93451">
        <ele>727</ele>
        <time>2019-06-25T08:20:44Z</time>
      </trkpt>
      <trkpt lat="44.42465" lon="5.9345">
        <ele>728</ele>
        <time>2019-06-25T08:20:45Z</time>
      </trkpt>
      <trkpt lat="44.42467" lon="5.9345">
        <ele>728</ele>
        <time>2019-06-25T08:20:46Z</time>
      </trkpt>
      <trkpt lat="44.4247" lon="5.93449">
        <ele>729</ele>
        <time>2019-06-25T08:20:47Z</time>
      </trkpt>
      <trkpt lat="44.42472" lon="5.93448">
        <ele>729</ele>
        <time>2019-06-25T08:20:48Z</time>
      </trkpt>
      <trkpt lat="44.42474" lon="5.93448">
        <ele>729</ele>
        <time>2019-06-25T08:20:49Z</time>
      </trkpt>
      <trkpt lat="44.42477" lon="5.93447">
        <ele>730</ele>
        <time>2019-06-25T08:20:50Z</time>
      </trkpt>
      <trkpt lat="44.42479" lon="5.93446">
        <ele>730</ele>
        <time>2019-06-25T08:20:51Z</time>
      </trkpt>
      <trkpt lat="44.42482" lon="5.93445">
        <ele>730</ele>
        <time>2019-06-25T08:20:52Z</time>
      </trkpt>
      <trkpt lat="44.42484" lon="5.93444">
        <ele>730</ele>
        <time>2019-06-25T08:20:53Z</time>
      </trkpt>
      <trkpt lat="44.42487" lon="5.93443">
        <ele>730</ele>
        <time>2019-06-25T08:20:54Z</time>
      </trkpt>
      <trkpt lat="44.42489" lon="5.93442">
        <ele>731</ele>
        <time>2019-06-25T08:20:55Z</time>
      </trkpt>
      <trkpt lat="44.42492" lon="5.9344">
        <ele>731</ele>
        <time>2019-06-25T08:20:56Z</time>
      </trkpt>
      <trkpt lat="44.42494" lon="5.93438">
        <ele>731</ele>
        <time>2019-06-25T08:20:57Z</time>
      </trkpt>
      <trkpt lat="44.42496" lon="5.93437">
        <ele>731</ele>
        <time>2019-06-25T08:20:58Z</time>
      </trkpt>
      <trkpt lat="44.42498" lon="5.93435">
        <ele>731</ele>
        <time>2019-06-25T08:20:59Z</time>
      </trkpt>
      <trkpt lat="44.42499" lon="5.93434">
        <ele>731</ele>
        <time>2019-06-25T08:21:00Z</time>
      </trkpt>
      <trkpt lat="44.42501" lon="5.93431">
        <ele>732</ele>
        <time>2019-06-25T08:21:01Z</time>
      </trkpt>
      <trkpt lat="44.42503" lon="5.93429">
        <ele>732</ele>
        <time>2019-06-25T08:21:02Z</time>
      </trkpt>
      <trkpt lat="44.42504" lon="5.93427">
        <ele>732</ele>
        <time>2019-06-25T08:21:03Z</time>
      </trkpt>
      <trkpt lat="44.42506" lon="5.93425">
        <ele>732</ele>
        <time>2019-06-25T08:21:04Z</time>
      </trkpt>
      <trkpt lat="44.42507" lon="5.93422">
        <ele>732</ele>
        <time>2019-06-25T08:21:05Z</time>
      </trkpt>
      <trkpt lat="44.42508" lon="5.9342">
        <ele>733</ele>
        <time>2019-06-25T08:21:06Z</time>
      </trkpt>
      <trkpt lat="44.4251" lon="5.93417">
        <ele>733</ele>
        <time>2019-06-25T08:21:07Z</time>
      </trkpt>
      <trkpt lat="44.42511" lon="5.93414">
        <ele>733</ele>
        <time>2019-06-25T08:21:08Z</time>
      </trkpt>
      <trkpt lat="44.42512" lon="5.93411">
        <ele>733</ele>
        <time>2019-06-25T08:21:09Z</time>
      </trkpt>
      <trkpt lat="44.42513" lon="5.93408">
        <ele>733</ele>
        <time>2019-06-25T08:21:10Z</time>
      </trkpt>
      <trkpt lat="44.42513" lon="5.93405">
        <ele>733</ele>
        <time>2019-06-25T08:21:11Z</time>
      </trkpt>
      <trkpt lat="44.42514" lon="5.93403">
        <ele>733</ele>
        <time>2019-06-25T08:21:12Z</time>
      </trkpt>
      <trkpt lat="44.42514" lon="5.93401">
        <ele>734</ele>
        <time>2019-06-25T08:21:13Z</time>
      </trkpt>
      <trkpt lat="44.42514" lon="5.93398">
        <ele>734</ele>
        <time>2019-06-25T08:21:14Z</time>
      </trkpt>
      <trkpt lat="44.42514" lon="5.93396">
        <ele>734</ele>
        <time>2019-06-25T08:21:15Z</time>
      </trkpt>
      <trkpt lat="44.42515" lon="5.93393">
        <ele>734</ele>
        <time>2019-06-25T08:21:16Z</time>
      </trkpt>
      <trkpt lat="44.42515" lon="5.93391">
        <ele>735</ele>
        <time>2019-06-25T08:21:17Z</time>
      </trkpt>
      <trkpt lat="44.42515" lon="5.93389">
        <ele>735</ele>
        <time>2019-06-25T08:21:18Z</time>
      </trkpt>
      <trkpt lat="44.42515" lon="5.93387">
        <ele>735</ele>
        <time>2019-06-25T08:21:19Z</time>
      </trkpt>
      <trkpt lat="44.42515" lon="5.93385">
        <ele>735</ele>
        <time>2019-06-25T08:21:20Z</time>
      </trkpt>
      <trkpt lat="44.42515" lon="5.93382">
        <ele>735</ele>
        <time>2019-06-25T08:21:21Z</time>
      </trkpt>
      <trkpt lat="44.42515" lon="5.9338">
        <ele>735</ele>
        <time>2019-06-25T08:21:22Z</time>
      </trkpt>
      <trkpt lat="44.42515" lon="5.93378">
        <ele>735</ele>
        <time>2019-06-25T08:21:23Z</time>
      </trkpt>
      <trkpt lat="44.42515" lon="5.93376">
        <ele>736</ele>
        <time>2019-06-25T08:21:24Z</time>
      </trkpt>
      <trkpt lat="44.42515" lon="5.93373">
        <ele>736</ele>
        <time>2019-06-25T08:21:25Z</time>
      </trkpt>
      <trkpt lat="44.42514" lon="5.93371">
        <ele>736</ele>
        <time>2019-06-25T08:21:26Z</time>
      </trkpt>
      <trkpt lat="44.42513" lon="5.93369">
        <ele>736</ele>
        <time>2019-06-25T08:21:27Z</time>
      </trkpt>
      <trkpt lat="44.42513" lon="5.93367">
        <ele>736</ele>
        <time>2019-06-25T08:21:28Z</time>
      </trkpt>
      <trkpt lat="44.42512" lon="5.93365">
        <ele>736</ele>
        <time>2019-06-25T08:21:29Z</time>
      </trkpt>
      <trkpt lat="44.42512" lon="5.93363">
        <ele>736</ele>
        <time>2019-06-25T08:21:30Z</time>
      </trkpt>
      <trkpt lat="44.42511" lon="5.9336">
        <ele>736</ele>
        <time>2019-06-25T08:21:31Z</time>
      </trkpt>
      <trkpt lat="44.42511" lon="5.93358">
        <ele>736</ele>
        <time>2019-06-25T08:21:32Z</time>
      </trkpt>
      <trkpt lat="44.42511" lon="5.93355">
        <ele>736</ele>
        <time>2019-06-25T08:21:33Z</time>
      </trkpt>
      <trkpt lat="44.42512" lon="5.93353">
        <ele>736</ele>
        <time>2019-06-25T08:21:34Z</time>
      </trkpt>
      <trkpt lat="44.42512" lon="5.9335">
        <ele>736</ele>
        <time>2019-06-25T08:21:35Z</time>
      </trkpt>
      <trkpt lat="44.42511" lon="5.93348">
        <ele>736</ele>
        <time>2019-06-25T08:21:36Z</time>
      </trkpt>
      <trkpt lat="44.42511" lon="5.93345">
        <ele>737</ele>
        <time>2019-06-25T08:21:37Z</time>
      </trkpt>
      <trkpt lat="44.42511" lon="5.93343">
        <ele>737</ele>
        <time>2019-06-25T08:21:38Z</time>
      </trkpt>
      <trkpt lat="44.42511" lon="5.93341">
        <ele>737</ele>
        <time>2019-06-25T08:21:39Z</time>
      </trkpt>
      <trkpt lat="44.42511" lon="5.93338">
        <ele>737</ele>
        <time>2019-06-25T08:21:40Z</time>
      </trkpt>
      <trkpt lat="44.42511" lon="5.93336">
        <ele>737</ele>
        <time>2019-06-25T08:21:41Z</time>
      </trkpt>
      <trkpt lat="44.42511" lon="5.93334">
        <ele>737</ele>
        <time>2019-06-25T08:21:42Z</time>
      </trkpt>
      <trkpt lat="44.42511" lon="5.93331">
        <ele>737</ele>
        <time>2019-06-25T08:21:43Z</time>
      </trkpt>
      <trkpt lat="44.42511" lon="5.93329">
        <ele>737</ele>
        <time>2019-06-25T08:21:44Z</time>
      </trkpt>
      <trkpt lat="44.42511" lon="5.93327">
        <ele>737</ele>
        <time>2019-06-25T08:21:45Z</time>
      </trkpt>
      <trkpt lat="44.42512" lon="5.93324">
        <ele>737</ele>
        <time>2019-06-25T08:21:46Z</time>
      </trkpt>
      <trkpt lat="44.42512" lon="5.93322">
        <ele>737</ele>
        <time>2019-06-25T08:21:47Z</time>
      </trkpt>
      <trkpt lat="44.42512" lon="5.9332">
        <ele>737</ele>
        <time>2019-06-25T08:21:48Z</time>
      </trkpt>
      <trkpt lat="44.42512" lon="5.93318">
        <ele>737</ele>
        <time>2019-06-25T08:21:49Z</time>
      </trkpt>
      <trkpt lat="44.42513" lon="5.93315">
        <ele>737</ele>
        <time>2019-06-25T08:21:50Z</time>
      </trkpt>
      <trkpt lat="44.42513" lon="5.93312">
        <ele>737</ele>
        <time>2019-06-25T08:21:51Z</time>
      </trkpt>
      <trkpt lat="44.42514" lon="5.93309">
        <ele>737</ele>
        <time>2019-06-25T08:21:52Z</time>
      </trkpt>
      <trkpt lat="44.42514" lon="5.93307">
        <ele>737</ele>
        <time>2019-06-25T08:21:53Z</time>
      </trkpt>
      <trkpt lat="44.42514" lon="5.93305">
        <ele>737</ele>
        <time>2019-06-25T08:21:54Z</time>
      </trkpt>
      <trkpt lat="44.42515" lon="5.93302">
        <ele>737</ele>
        <time>2019-06-25T08:21:55Z</time>
      </trkpt>
      <trkpt lat="44.42516" lon="5.93299">
        <ele>737</ele>
        <time>2019-06-25T08:21:56Z</time>
      </trkpt>
      <trkpt lat="44.42516" lon="5.93297">
        <ele>737</ele>
        <time>2019-06-25T08:21:57Z</time>
      </trkpt>
      <trkpt lat="44.42517" lon="5.93295">
        <ele>737</ele>
        <time>2019-06-25T08:21:58Z</time>
      </trkpt>
      <trkpt lat="44.42517" lon="5.93293">
        <ele>737</ele>
        <time>2019-06-25T08:21:59Z</time>
      </trkpt>
      <trkpt lat="44.42518" lon="5.9329">
        <ele>737</ele>
        <time>2019-06-25T08:22:00Z</time>
      </trkpt>
      <trkpt lat="44.42519" lon="5.93287">
        <ele>737</ele>
        <time>2019-06-25T08:22:01Z</time>
      </trkpt>
      <trkpt lat="44.42519" lon="5.93285">
        <ele>737</ele>
        <time>2019-06-25T08:22:02Z</time>
      </trkpt>
      <trkpt lat="44.42519" lon="5.93283">
        <ele>738</ele>
        <time>2019-06-25T08:22:03Z</time>
      </trkpt>
      <trkpt lat="44.42519" lon="5.93281">
        <ele>738</ele>
        <time>2019-06-25T08:22:04Z</time>
      </trkpt>
      <trkpt lat="44.4252" lon="5.93279">
        <ele>738</ele>
        <time>2019-06-25T08:22:05Z</time>
      </trkpt>
      <trkpt lat="44.42521" lon="5.93275">
        <ele>738</ele>
        <time>2019-06-25T08:22:06Z</time>
      </trkpt>
      <trkpt lat="44.42521" lon="5.93273">
        <ele>738</ele>
        <time>2019-06-25T08:22:07Z</time>
      </trkpt>
      <trkpt lat="44.42522" lon="5.9327">
        <ele>738</ele>
        <time>2019-06-25T08:22:08Z</time>
      </trkpt>
      <trkpt lat="44.42523" lon="5.93267">
        <ele>739</ele>
        <time>2019-06-25T08:22:09Z</time>
      </trkpt>
      <trkpt lat="44.42524" lon="5.93264">
        <ele>739</ele>
        <time>2019-06-25T08:22:10Z</time>
      </trkpt>
      <trkpt lat="44.42525" lon="5.93261">
        <ele>739</ele>
        <time>2019-06-25T08:22:11Z</time>
      </trkpt>
      <trkpt lat="44.42526" lon="5.93259">
        <ele>740</ele>
        <time>2019-06-25T08:22:12Z</time>
      </trkpt>
      <trkpt lat="44.42527" lon="5.93256">
        <ele>740</ele>
        <time>2019-06-25T08:22:13Z</time>
      </trkpt>
      <trkpt lat="44.42527" lon="5.93253">
        <ele>740</ele>
        <time>2019-06-25T08:22:14Z</time>
      </trkpt>
      <trkpt lat="44.42528" lon="5.93251">
        <ele>740</ele>
        <time>2019-06-25T08:22:15Z</time>
      </trkpt>
      <trkpt lat="44.42529" lon="5.93247">
        <ele>740</ele>
        <time>2019-06-25T08:22:16Z</time>
      </trkpt>
      <trkpt lat="44.4253" lon="5.93244">
        <ele>741</ele>
        <time>2019-06-25T08:22:17Z</time>
      </trkpt>
      <trkpt lat="44.4253" lon="5.93242">
        <ele>741</ele>
        <time>2019-06-25T08:22:18Z</time>
      </trkpt>
      <trkpt lat="44.4253" lon="5.93239">
        <ele>741</ele>
        <time>2019-06-25T08:22:19Z</time>
      </trkpt>
      <trkpt lat="44.4253" lon="5.93237">
        <ele>741</ele>
        <time>2019-06-25T08:22:20Z</time>
      </trkpt>
      <trkpt lat="44.42531" lon="5.93234">
        <ele>741</ele>
        <time>2019-06-25T08:22:21Z</time>
      </trkpt>
      <trkpt lat="44.42531" lon="5.93232">
        <ele>741</ele>
        <time>2019-06-25T08:22:22Z</time>
      </trkpt>
      <trkpt lat="44.42531" lon="5.93229">
        <ele>741</ele>
        <time>2019-06-25T08:22:23Z</time>
      </trkpt>
      <trkpt lat="44.42531" lon="5.93227">
        <ele>741</ele>
        <time>2019-06-25T08:22:24Z</time>
      </trkpt>
      <trkpt lat="44.42531" lon="5.93224">
        <ele>741</ele>
        <time>2019-06-25T08:22:25Z</time>
      </trkpt>
      <trkpt lat="44.42531" lon="5.93222">
        <ele>741</ele>
        <time>2019-06-25T08:22:26Z</time>
      </trkpt>
      <trkpt lat="44.4253" lon="5.93219">
        <ele>741</ele>
        <time>2019-06-25T08:22:27Z</time>
      </trkpt>
      <trkpt lat="44.4253" lon="5.93216">
        <ele>741</ele>
        <time>2019-06-25T08:22:28Z</time>
      </trkpt>
      <trkpt lat="44.4253" lon="5.93214">
        <ele>741</ele>
        <time>2019-06-25T08:22:29Z</time>
      </trkpt>
      <trkpt lat="44.4253" lon="5.93211">
        <ele>741</ele>
        <time>2019-06-25T08:22:30Z</time>
      </trkpt>
      <trkpt lat="44.4253" lon="5.93208">
        <ele>741</ele>
        <time>2019-06-25T08:22:31Z</time>
      </trkpt>
      <trkpt lat="44.4253" lon="5.93205">
        <ele>741</ele>
        <time>2019-06-25T08:22:32Z</time>
      </trkpt>
      <trkpt lat="44.4253" lon="5.93201">
        <ele>741</ele>
        <time>2019-06-25T08:22:33Z</time>
      </trkpt>
      <trkpt lat="44.42529" lon="5.93198">
        <ele>741</ele>
        <time>2019-06-25T08:22:34Z</time>
      </trkpt>
      <trkpt lat="44.42529" lon="5.93195">
        <ele>741</ele>
        <time>2019-06-25T08:22:35Z</time>
      </trkpt>
      <trkpt lat="44.42529" lon="5.93192">
        <ele>741</ele>
        <time>2019-06-25T08:22:36Z</time>
      </trkpt>
      <trkpt lat="44.42529" lon="5.93188">
        <ele>741</ele>
        <time>2019-06-25T08:22:37Z</time>
      </trkpt>
      <trkpt lat="44.4253" lon="5.93185">
        <ele>741</ele>
        <time>2019-06-25T08:22:38Z</time>
      </trkpt>
      <trkpt lat="44.42531" lon="5.93182">
        <ele>741</ele>
        <time>2019-06-25T08:22:39Z</time>
      </trkpt>
      <trkpt lat="44.42531" lon="5.93178">
        <ele>741</ele>
        <time>2019-06-25T08:22:40Z</time>
      </trkpt>
      <trkpt lat="44.42531" lon="5.93175">
        <ele>741</ele>
        <time>2019-06-25T08:22:41Z</time>
      </trkpt>
      <trkpt lat="44.42531" lon="5.93172">
        <ele>741</ele>
        <time>2019-06-25T08:22:42Z</time>
      </trkpt>
      <trkpt lat="44.42531" lon="5.93169">
        <ele>741</ele>
        <time>2019-06-25T08:22:43Z</time>
      </trkpt>
      <trkpt lat="44.42532" lon="5.93166">
        <ele>741</ele>
        <time>2019-06-25T08:22:44Z</time>
      </trkpt>
      <trkpt lat="44.42532" lon="5.93163">
        <ele>741</ele>
        <time>2019-06-25T08:22:45Z</time>
      </trkpt>
      <trkpt lat="44.42532" lon="5.9316">
        <ele>741</ele>
        <time>2019-06-25T08:22:46Z</time>
      </trkpt>
      <trkpt lat="44.42533" lon="5.93157">
        <ele>741</ele>
        <time>2019-06-25T08:22:47Z</time>
      </trkpt>
      <trkpt lat="44.42533" lon="5.93154">
        <ele>741</ele>
        <time>2019-06-25T08:22:48Z</time>
      </trkpt>
      <trkpt lat="44.42534" lon="5.93151">
        <ele>742</ele>
        <time>2019-06-25T08:22:49Z</time>
      </trkpt>
      <trkpt lat="44.42535" lon="5.93148">
        <ele>742</ele>
        <time>2019-06-25T08:22:50Z</time>
      </trkpt>
      <trkpt lat="44.42536" lon="5.93146">
        <ele>742</ele>
        <time>2019-06-25T08:22:51Z</time>
      </trkpt>
      <trkpt lat="44.42537" lon="5.93144">
        <ele>742</ele>
        <time>2019-06-25T08:22:52Z</time>
      </trkpt>
      <trkpt lat="44.42537" lon="5.93141">
        <ele>743</ele>
        <time>2019-06-25T08:22:53Z</time>
      </trkpt>
      <trkpt lat="44.42538" lon="5.93139">
        <ele>743</ele>
        <time>2019-06-25T08:22:54Z</time>
      </trkpt>
      <trkpt lat="44.42539" lon="5.93136">
        <ele>743</ele>
        <time>2019-06-25T08:22:55Z</time>
      </trkpt>
      <trkpt lat="44.4254" lon="5.93133">
        <ele>743</ele>
        <time>2019-06-25T08:22:56Z</time>
      </trkpt>
      <trkpt lat="44.42541" lon="5.93131">
        <ele>743</ele>
        <time>2019-06-25T08:22:57Z</time>
      </trkpt>
      <trkpt lat="44.42542" lon="5.93128">
        <ele>743</ele>
        <time>2019-06-25T08:22:58Z</time>
      </trkpt>
      <trkpt lat="44.42543" lon="5.93125">
        <ele>743</ele>
        <time>2019-06-25T08:22:59Z</time>
      </trkpt>
      <trkpt lat="44.42544" lon="5.93122">
        <ele>743</ele>
        <time>2019-06-25T08:23:00Z</time>
      </trkpt>
      <trkpt lat="44.42545" lon="5.93119">
        <ele>744</ele>
        <time>2019-06-25T08:23:01Z</time>
      </trkpt>
      <trkpt lat="44.42546" lon="5.93116">
        <ele>744</ele>
        <time>2019-06-25T08:23:02Z</time>
      </trkpt>
      <trkpt lat="44.42547" lon="5.93113">
        <ele>744</ele>
        <time>2019-06-25T08:23:03Z</time>
      </trkpt>
      <trkpt lat="44.42548" lon="5.9311">
        <ele>744</ele>
        <time>2019-06-25T08:23:04Z</time>
      </trkpt>
      <trkpt lat="44.42549" lon="5.93107">
        <ele>745</ele>
        <time>2019-06-25T08:23:05Z</time>
      </trkpt>
      <trkpt lat="44.4255" lon="5.93104">
        <ele>745</ele>
        <time>2019-06-25T08:23:06Z</time>
      </trkpt>
      <trkpt lat="44.42551" lon="5.93102">
        <ele>745</ele>
        <time>2019-06-25T08:23:07Z</time>
      </trkpt>
      <trkpt lat="44.42552" lon="5.93099">
        <ele>745</ele>
        <time>2019-06-25T08:23:08Z</time>
      </trkpt>
      <trkpt lat="44.42553" lon="5.93096">
        <ele>746</ele>
        <time>2019-06-25T08:23:09Z</time>
      </trkpt>
      <trkpt lat="44.42553" lon="5.93094">
        <ele>746</ele>
        <time>2019-06-25T08:23:10Z</time>
      </trkpt>
      <trkpt lat="44.42554" lon="5.93091">
        <ele>746</ele>
        <time>2019-06-25T08:23:11Z</time>
      </trkpt>
      <trkpt lat="44.42555" lon="5.93088">
        <ele>746</ele>
        <time>2019-06-25T08:23:12Z</time>
      </trkpt>
      <trkpt lat="44.42556" lon="5.93085">
        <ele>747</ele>
        <time>2019-06-25T08:23:13Z</time>
      </trkpt>
      <trkpt lat="44.42556" lon="5.93083">
        <ele>747</ele>
        <time>2019-06-25T08:23:14Z</time>
      </trkpt>
      <trkpt lat="44.42557" lon="5.9308">
        <ele>747</ele>
        <time>2019-06-25T08:23:15Z</time>
      </trkpt>
      <trkpt lat="44.42558" lon="5.93077">
        <ele>748</ele>
        <time>2019-06-25T08:23:16Z</time>
      </trkpt>
      <trkpt lat="44.42559" lon="5.93074">
        <ele>748</ele>
        <time>2019-06-25T08:23:17Z</time>
      </trkpt>
      <trkpt lat="44.4256" lon="5.93072">
        <ele>748</ele>
        <time>2019-06-25T08:23:18Z</time>
      </trkpt>
      <trkpt lat="44.42561" lon="5.93069">
        <ele>748</ele>
        <time>2019-06-25T08:23:19Z</time>
      </trkpt>
      <trkpt lat="44.42562" lon="5.93066">
        <ele>748</ele>
        <time>2019-06-25T08:23:20Z</time>
      </trkpt>
      <trkpt lat="44.42563" lon="5.93063">
        <ele>748</ele>
        <time>2019-06-25T08:23:21Z</time>
      </trkpt>
      <trkpt lat="44.42564" lon="5.9306">
        <ele>748</ele>
        <time>2019-06-25T08:23:22Z</time>
      </trkpt>
      <trkpt lat="44.42565" lon="5.93057">
        <ele>748</ele>
        <time>2019-06-25T08:23:23Z</time>
      </trkpt>
      <trkpt lat="44.42566" lon="5.93055">
        <ele>749</ele>
        <time>2019-06-25T08:23:24Z</time>
      </trkpt>
      <trkpt lat="44.42567" lon="5.93051">
        <ele>749</ele>
        <time>2019-06-25T08:23:25Z</time>
      </trkpt>
      <trkpt lat="44.42568" lon="5.93049">
        <ele>749</ele>
        <time>2019-06-25T08:23:26Z</time>
      </trkpt>
      <trkpt lat="44.42569" lon="5.93046">
        <ele>750</ele>
        <time>2019-06-25T08:23:27Z</time>
      </trkpt>
      <trkpt lat="44.4257" lon="5.93043">
        <ele>750</ele>
        <time>2019-06-25T08:23:28Z</time>
      </trkpt>
      <trkpt lat="44.42571" lon="5.9304">
        <ele>750</ele>
        <time>2019-06-25T08:23:29Z</time>
      </trkpt>
      <trkpt lat="44.42572" lon="5.93037">
        <ele>750</ele>
        <time>2019-06-25T08:23:30Z</time>
      </trkpt>
      <trkpt lat="44.42573" lon="5.93034">
        <ele>751</ele>
        <time>2019-06-25T08:23:31Z</time>
      </trkpt>
      <trkpt lat="44.42574" lon="5.93031">
        <ele>751</ele>
        <time>2019-06-25T08:23:32Z</time>
      </trkpt>
      <trkpt lat="44.42575" lon="5.93028">
        <ele>752</ele>
        <time>2019-06-25T08:23:33Z</time>
      </trkpt>
      <trkpt lat="44.42576" lon="5.93025">
        <ele>752</ele>
        <time>2019-06-25T08:23:34Z</time>
      </trkpt>
      <trkpt lat="44.42577" lon="5.93022">
        <ele>752</ele>
        <time>2019-06-25T08:23:35Z</time>
      </trkpt>
      <trkpt lat="44.42577" lon="5.93019">
        <ele>752</ele>
        <time>2019-06-25T08:23:36Z</time>
      </trkpt>
      <trkpt lat="44.42578" lon="5.93016">
        <ele>752</ele>
        <time>2019-06-25T08:23:37Z</time>
      </trkpt>
      <trkpt lat="44.42579" lon="5.93013">
        <ele>753</ele>
        <time>2019-06-25T08:23:38Z</time>
      </trkpt>
      <trkpt lat="44.4258" lon="5.9301">
        <ele>753</ele>
        <time>2019-06-25T08:23:39Z</time>
      </trkpt>
      <trkpt lat="44.42581" lon="5.93007">
        <ele>753</ele>
        <time>2019-06-25T08:23:40Z</time>
      </trkpt>
      <trkpt lat="44.42582" lon="5.93004">
        <ele>754</ele>
        <time>2019-06-25T08:23:41Z</time>
      </trkpt>
      <trkpt lat="44.42583" lon="5.93001">
        <ele>754</ele>
        <time>2019-06-25T08:23:42Z</time>
      </trkpt>
      <trkpt lat="44.42584" lon="5.92998">
        <ele>754</ele>
        <time>2019-06-25T08:23:43Z</time>
      </trkpt>
      <trkpt lat="44.42585" lon="5.92994">
        <ele>755</ele>
        <time>2019-06-25T08:23:44Z</time>
      </trkpt>
      <trkpt lat="44.42586" lon="5.92991">
        <ele>755</ele>
        <time>2019-06-25T08:23:45Z</time>
      </trkpt>
      <trkpt lat="44.42587" lon="5.92988">
        <ele>755</ele>
        <time>2019-06-25T08:23:46Z</time>
      </trkpt>
      <trkpt lat="44.42588" lon="5.92985">
        <ele>756</ele>
        <time>2019-06-25T08:23:47Z</time>
      </trkpt>
      <trkpt lat="44.42588" lon="5.92981">
        <ele>756</ele>
        <time>2019-06-25T08:23:48Z</time>
      </trkpt>
      <trkpt lat="44.42589" lon="5.92978">
        <ele>756</ele>
        <time>2019-06-25T08:23:49Z</time>
      </trkpt>
      <trkpt lat="44.42589" lon="5.92975">
        <ele>756</ele>
        <time>2019-06-25T08:23:50Z</time>
      </trkpt>
      <trkpt lat="44.4259" lon="5.92972">
        <ele>757</ele>
        <time>2019-06-25T08:23:51Z</time>
      </trkpt>
      <trkpt lat="44.4259" lon="5.92969">
        <ele>757</ele>
        <time>2019-06-25T08:23:52Z</time>
      </trkpt>
      <trkpt lat="44.42591" lon="5.92966">
        <ele>757</ele>
        <time>2019-06-25T08:23:53Z</time>
      </trkpt>
      <trkpt lat="44.42591" lon="5.92963">
        <ele>757</ele>
        <time>2019-06-25T08:23:54Z</time>
      </trkpt>
      <trkpt lat="44.42592" lon="5.92959">
        <ele>757</ele>
        <time>2019-06-25T08:23:55Z</time>
      </trkpt>
      <trkpt lat="44.42592" lon="5.92956">
        <ele>757</ele>
        <time>2019-06-25T08:23:56Z</time>
      </trkpt>
      <trkpt lat="44.42592" lon="5.92954">
        <ele>757</ele>
        <time>2019-06-25T08:23:57Z</time>
      </trkpt>
      <trkpt lat="44.42593" lon="5.92951">
        <ele>758</ele>
        <time>2019-06-25T08:23:58Z</time>
      </trkpt>
      <trkpt lat="44.42593" lon="5.92947">
        <ele>758</ele>
        <time>2019-06-25T08:23:59Z</time>
      </trkpt>
      <trkpt lat="44.42594" lon="5.92944">
        <ele>758</ele>
        <time>2019-06-25T08:24:00Z</time>
      </trkpt>
      <trkpt lat="44.42594" lon="5.92941">
        <ele>758</ele>
        <time>2019-06-25T08:24:01Z</time>
      </trkpt>
      <trkpt lat="44.42595" lon="5.92938">
        <ele>758</ele>
        <time>2019-06-25T08:24:02Z</time>
      </trkpt>
      <trkpt lat="44.42595" lon="5.92935">
        <ele>758</ele>
        <time>2019-06-25T08:24:03Z</time>
      </trkpt>
      <trkpt lat="44.42596" lon="5.92931">
        <ele>758</ele>
        <time>2019-06-25T08:24:04Z</time>
      </trkpt>
      <trkpt lat="44.42596" lon="5.92928">
        <ele>758</ele>
        <time>2019-06-25T08:24:05Z</time>
      </trkpt>
      <trkpt lat="44.42597" lon="5.92925">
        <ele>758</ele>
        <time>2019-06-25T08:24:06Z</time>
      </trkpt>
      <trkpt lat="44.42597" lon="5.92922">
        <ele>759</ele>
        <time>2019-06-25T08:24:07Z</time>
      </trkpt>
      <trkpt lat="44.42598" lon="5.92919">
        <ele>759</ele>
        <time>2019-06-25T08:24:08Z</time>
      </trkpt>
      <trkpt lat="44.42598" lon="5.92915">
        <ele>759</ele>
        <time>2019-06-25T08:24:09Z</time>
      </trkpt>
      <trkpt lat="44.42598" lon="5.92912">
        <ele>759</ele>
        <time>2019-06-25T08:24:10Z</time>
      </trkpt>
      <trkpt lat="44.42599" lon="5.92909">
        <ele>759</ele>
        <time>2019-06-25T08:24:11Z</time>
      </trkpt>
      <trkpt lat="44.42599" lon="5.92905">
        <ele>759</ele>
        <time>2019-06-25T08:24:12Z</time>
      </trkpt>
      <trkpt lat="44.426" lon="5.92902">
        <ele>759</ele>
        <time>2019-06-25T08:24:13Z</time>
      </trkpt>
      <trkpt lat="44.42601" lon="5.92899">
        <ele>759</ele>
        <time>2019-06-25T08:24:14Z</time>
      </trkpt>
      <trkpt lat="44.42602" lon="5.92895">
        <ele>760</ele>
        <time>2019-06-25T08:24:15Z</time>
      </trkpt>
      <trkpt lat="44.42602" lon="5.92892">
        <ele>760</ele>
        <time>2019-06-25T08:24:16Z</time>
      </trkpt>
      <trkpt lat="44.42603" lon="5.92888">
        <ele>760</ele>
        <time>2019-06-25T08:24:17Z</time>
      </trkpt>
      <trkpt lat="44.42603" lon="5.92884">
        <ele>760</ele>
        <time>2019-06-25T08:24:18Z</time>
      </trkpt>
      <trkpt lat="44.42604" lon="5.92881">
        <ele>761</ele>
        <time>2019-06-25T08:24:19Z</time>
      </trkpt>
      <trkpt lat="44.42604" lon="5.92877">
        <ele>761</ele>
        <time>2019-06-25T08:24:20Z</time>
      </trkpt>
      <trkpt lat="44.42605" lon="5.92873">
        <ele>761</ele>
        <time>2019-06-25T08:24:21Z</time>
      </trkpt>
      <trkpt lat="44.42606" lon="5.92869">
        <ele>762</ele>
        <time>2019-06-25T08:24:22Z</time>
      </trkpt>
      <trkpt lat="44.42606" lon="5.92866">
        <ele>762</ele>
        <time>2019-06-25T08:24:23Z</time>
      </trkpt>
      <trkpt lat="44.42607" lon="5.92862">
        <ele>762</ele>
        <time>2019-06-25T08:24:24Z</time>
      </trkpt>
      <trkpt lat="44.42607" lon="5.92858">
        <ele>762</ele>
        <time>2019-06-25T08:24:25Z</time>
      </trkpt>
      <trkpt lat="44.42608" lon="5.92855">
        <ele>763</ele>
        <time>2019-06-25T08:24:26Z</time>
      </trkpt>
      <trkpt lat="44.42608" lon="5.92851">
        <ele>763</ele>
        <time>2019-06-25T08:24:27Z</time>
      </trkpt>
      <trkpt lat="44.42609" lon="5.92847">
        <ele>763</ele>
        <time>2019-06-25T08:24:28Z</time>
      </trkpt>
      <trkpt lat="44.42609" lon="5.92843">
        <ele>763</ele>
        <time>2019-06-25T08:24:29Z</time>
      </trkpt>
      <trkpt lat="44.4261" lon="5.92839">
        <ele>763</ele>
        <time>2019-06-25T08:24:30Z</time>
      </trkpt>
      <trkpt lat="44.42611" lon="5.92835">
        <ele>763</ele>
        <time>2019-06-25T08:24:31Z</time>
      </trkpt>
      <trkpt lat="44.42611" lon="5.92831">
        <ele>763</ele>
        <time>2019-06-25T08:24:32Z</time>
      </trkpt>
      <trkpt lat="44.42612" lon="5.92827">
        <ele>764</ele>
        <time>2019-06-25T08:24:33Z</time>
      </trkpt>
      <trkpt lat="44.42612" lon="5.92823">
        <ele>764</ele>
        <time>2019-06-25T08:24:34Z</time>
      </trkpt>
      <trkpt lat="44.42613" lon="5.92819">
        <ele>764</ele>
        <time>2019-06-25T08:24:35Z</time>
      </trkpt>
      <trkpt lat="44.42614" lon="5.92815">
        <ele>764</ele>
        <time>2019-06-25T08:24:36Z</time>
      </trkpt>
      <trkpt lat="44.42615" lon="5.92812">
        <ele>764</ele>
        <time>2019-06-25T08:24:37Z</time>
      </trkpt>
      <trkpt lat="44.42615" lon="5.92808">
        <ele>764</ele>
        <time>2019-06-25T08:24:38Z</time>
      </trkpt>
      <trkpt lat="44.42616" lon="5.92804">
        <ele>764</ele>
        <time>2019-06-25T08:24:39Z</time>
      </trkpt>
      <trkpt lat="44.42616" lon="5.92801">
        <ele>764</ele>
        <time>2019-06-25T08:24:40Z</time>
      </trkpt>
      <trkpt lat="44.42617" lon="5.92797">
        <ele>764</ele>
        <time>2019-06-25T08:24:41Z</time>
      </trkpt>
      <trkpt lat="44.42617" lon="5.92794">
        <ele>764</ele>
        <time>2019-06-25T08:24:42Z</time>
      </trkpt>
      <trkpt lat="44.42618" lon="5.9279">
        <ele>764</ele>
        <time>2019-06-25T08:24:43Z</time>
      </trkpt>
      <trkpt lat="44.42619" lon="5.92786">
        <ele>764</ele>
        <time>2019-06-25T08:24:44Z</time>
      </trkpt>
      <trkpt lat="44.42619" lon="5.92783">
        <ele>764</ele>
        <time>2019-06-25T08:24:45Z</time>
      </trkpt>
      <trkpt lat="44.42619" lon="5.92779">
        <ele>765</ele>
        <time>2019-06-25T08:24:46Z</time>
      </trkpt>
      <trkpt lat="44.4262" lon="5.92775">
        <ele>765</ele>
        <time>2019-06-25T08:24:47Z</time>
      </trkpt>
      <trkpt lat="44.42621" lon="5.92771">
        <ele>765</ele>
        <time>2019-06-25T08:24:48Z</time>
      </trkpt>
      <trkpt lat="44.42622" lon="5.92767">
        <ele>766</ele>
        <time>2019-06-25T08:24:49Z</time>
      </trkpt>
      <trkpt lat="44.42623" lon="5.92763">
        <ele>766</ele>
        <time>2019-06-25T08:24:50Z</time>
      </trkpt>
      <trkpt lat="44.42624" lon="5.9276">
        <ele>766</ele>
        <time>2019-06-25T08:24:51Z</time>
      </trkpt>
      <trkpt lat="44.42624" lon="5.92756">
        <ele>767</ele>
        <time>2019-06-25T08:24:52Z</time>
      </trkpt>
      <trkpt lat="44.42625" lon="5.92752">
        <ele>767</ele>
        <time>2019-06-25T08:24:53Z</time>
      </trkpt>
      <trkpt lat="44.42626" lon="5.92747">
        <ele>767</ele>
        <time>2019-06-25T08:24:54Z</time>
      </trkpt>
      <trkpt lat="44.42627" lon="5.92743">
        <ele>768</ele>
        <time>2019-06-25T08:24:55Z</time>
      </trkpt>
      <trkpt lat="44.42628" lon="5.92738">
        <ele>768</ele>
        <time>2019-06-25T08:24:56Z</time>
      </trkpt>
      <trkpt lat="44.42629" lon="5.92734">
        <ele>769</ele>
        <time>2019-06-25T08:24:57Z</time>
      </trkpt>
      <trkpt lat="44.4263" lon="5.9273">
        <ele>770</ele>
        <time>2019-06-25T08:24:58Z</time>
      </trkpt>
      <trkpt lat="44.42631" lon="5.92725">
        <ele>770</ele>
        <time>2019-06-25T08:24:59Z</time>
      </trkpt>
      <trkpt lat="44.42633" lon="5.92721">
        <ele>770</ele>
        <time>2019-06-25T08:25:00Z</time>
      </trkpt>
      <trkpt lat="44.42633" lon="5.92717">
        <ele>771</ele>
        <time>2019-06-25T08:25:01Z</time>
      </trkpt>
      <trkpt lat="44.42634" lon="5.92712">
        <ele>771</ele>
        <time>2019-06-25T08:25:02Z</time>
      </trkpt>
      <trkpt lat="44.42635" lon="5.92708">
        <ele>771</ele>
        <time>2019-06-25T08:25:03Z</time>
      </trkpt>
      <trkpt lat="44.42635" lon="5.92704">
        <ele>771</ele>
        <time>2019-06-25T08:25:04Z</time>
      </trkpt>
      <trkpt lat="44.42636" lon="5.927">
        <ele>772</ele>
        <time>2019-06-25T08:25:05Z</time>
      </trkpt>
      <trkpt lat="44.42637" lon="5.92696">
        <ele>772</ele>
        <time>2019-06-25T08:25:06Z</time>
      </trkpt>
      <trkpt lat="44.42638" lon="5.92693">
        <ele>772</ele>
        <time>2019-06-25T08:25:07Z</time>
      </trkpt>
      <trkpt lat="44.42639" lon="5.92689">
        <ele>772</ele>
        <time>2019-06-25T08:25:08Z</time>
      </trkpt>
      <trkpt lat="44.4264" lon="5.92685">
        <ele>772</ele>
        <time>2019-06-25T08:25:09Z</time>
      </trkpt>
      <trkpt lat="44.42641" lon="5.92682">
        <ele>772</ele>
        <time>2019-06-25T08:25:10Z</time>
      </trkpt>
      <trkpt lat="44.42643" lon="5.92678">
        <ele>772</ele>
        <time>2019-06-25T08:25:11Z</time>
      </trkpt>
      <trkpt lat="44.42644" lon="5.92675">
        <ele>772</ele>
        <time>2019-06-25T08:25:12Z</time>
      </trkpt>
      <trkpt lat="44.42645" lon="5.92671">
        <ele>773</ele>
        <time>2019-06-25T08:25:13Z</time>
      </trkpt>
      <trkpt lat="44.42646" lon="5.92668">
        <ele>773</ele>
        <time>2019-06-25T08:25:14Z</time>
      </trkpt>
      <trkpt lat="44.42647" lon="5.92665">
        <ele>773</ele>
        <time>2019-06-25T08:25:15Z</time>
      </trkpt>
      <trkpt lat="44.42648" lon="5.92661">
        <ele>773</ele>
        <time>2019-06-25T08:25:16Z</time>
      </trkpt>
      <trkpt lat="44.42649" lon="5.92658">
        <ele>773</ele>
        <time>2019-06-25T08:25:17Z</time>
      </trkpt>
      <trkpt lat="44.42651" lon="5.92655">
        <ele>773</ele>
        <time>2019-06-25T08:25:18Z</time>
      </trkpt>
      <trkpt lat="44.42652" lon="5.92652">
        <ele>773</ele>
        <time>2019-06-25T08:25:19Z</time>
      </trkpt>
      <trkpt lat="44.42654" lon="5.92649">
        <ele>774</ele>
        <time>2019-06-25T08:25:20Z</time>
      </trkpt>
      <trkpt lat="44.42655" lon="5.92646">
        <ele>774</ele>
        <time>2019-06-25T08:25:21Z</time>
      </trkpt>
      <trkpt lat="44.42657" lon="5.92643">
        <ele>774</ele>
        <time>2019-06-25T08:25:22Z</time>
      </trkpt>
      <trkpt lat="44.42658" lon="5.9264">
        <ele>774</ele>
        <time>2019-06-25T08:25:23Z</time>
      </trkpt>
      <trkpt lat="44.4266" lon="5.92638">
        <ele>774</ele>
        <time>2019-06-25T08:25:24Z</time>
      </trkpt>
      <trkpt lat="44.42662" lon="5.92635">
        <ele>774</ele>
        <time>2019-06-25T08:25:25Z</time>
      </trkpt>
      <trkpt lat="44.42663" lon="5.92631">
        <ele>774</ele>
        <time>2019-06-25T08:25:26Z</time>
      </trkpt>
      <trkpt lat="44.42665" lon="5.92628">
        <ele>774</ele>
        <time>2019-06-25T08:25:27Z</time>
      </trkpt>
      <trkpt lat="44.42667" lon="5.92625">
        <ele>774</ele>
        <time>2019-06-25T08:25:28Z</time>
      </trkpt>
      <trkpt lat="44.42668" lon="5.92621">
        <ele>774</ele>
        <time>2019-06-25T08:25:29Z</time>
      </trkpt>
      <trkpt lat="44.4267" lon="5.92618">
        <ele>774</ele>
        <time>2019-06-25T08:25:30Z</time>
      </trkpt>
      <trkpt lat="44.42672" lon="5.92614">
        <ele>774</ele>
        <time>2019-06-25T08:25:31Z</time>
      </trkpt>
      <trkpt lat="44.42674" lon="5.92611">
        <ele>774</ele>
        <time>2019-06-25T08:25:32Z</time>
      </trkpt>
      <trkpt lat="44.42675" lon="5.92607">
        <ele>775</ele>
        <time>2019-06-25T08:25:33Z</time>
      </trkpt>
      <trkpt lat="44.42677" lon="5.92602">
        <ele>775</ele>
        <time>2019-06-25T08:25:34Z</time>
      </trkpt>
      <trkpt lat="44.42679" lon="5.92598">
        <ele>775</ele>
        <time>2019-06-25T08:25:35Z</time>
      </trkpt>
      <trkpt lat="44.42681" lon="5.92594">
        <ele>775</ele>
        <time>2019-06-25T08:25:36Z</time>
      </trkpt>
      <trkpt lat="44.42683" lon="5.9259">
        <ele>775</ele>
        <time>2019-06-25T08:25:37Z</time>
      </trkpt>
      <trkpt lat="44.42684" lon="5.92585">
        <ele>776</ele>
        <time>2019-06-25T08:25:38Z</time>
      </trkpt>
      <trkpt lat="44.42685" lon="5.92581">
        <ele>776</ele>
        <time>2019-06-25T08:25:39Z</time>
      </trkpt>
      <trkpt lat="44.42687" lon="5.92577">
        <ele>776</ele>
        <time>2019-06-25T08:25:40Z</time>
      </trkpt>
      <trkpt lat="44.42688" lon="5.92572">
        <ele>776</ele>
        <time>2019-06-25T08:25:41Z</time>
      </trkpt>
      <trkpt lat="44.4269" lon="5.92568">
        <ele>776</ele>
        <time>2019-06-25T08:25:42Z</time>
      </trkpt>
      <trkpt lat="44.42691" lon="5.92564">
        <ele>776</ele>
        <time>2019-06-25T08:25:43Z</time>
      </trkpt>
      <trkpt lat="44.42692" lon="5.92559">
        <ele>776</ele>
        <time>2019-06-25T08:25:44Z</time>
      </trkpt>
      <trkpt lat="44.42694" lon="5.92556">
        <ele>776</ele>
        <time>2019-06-25T08:25:45Z</time>
      </trkpt>
      <trkpt lat="44.42695" lon="5.92552">
        <ele>777</ele>
        <time>2019-06-25T08:25:46Z</time>
      </trkpt>
      <trkpt lat="44.42697" lon="5.92548">
        <ele>777</ele>
        <time>2019-06-25T08:25:47Z</time>
      </trkpt>
      <trkpt lat="44.42698" lon="5.92544">
        <ele>777</ele>
        <time>2019-06-25T08:25:48Z</time>
      </trkpt>
      <trkpt lat="44.42699" lon="5.9254">
        <ele>778</ele>
        <time>2019-06-25T08:25:49Z</time>
      </trkpt>
      <trkpt lat="44.427" lon="5.92536">
        <ele>778</ele>
        <time>2019-06-25T08:25:50Z</time>
      </trkpt>
      <trkpt lat="44.42701" lon="5.92532">
        <ele>779</ele>
        <time>2019-06-25T08:25:51Z</time>
      </trkpt>
      <trkpt lat="44.42702" lon="5.92528">
        <ele>779</ele>
        <time>2019-06-25T08:25:52Z</time>
      </trkpt>
      <trkpt lat="44.42703" lon="5.92525">
        <ele>779</ele>
        <time>2019-06-25T08:25:53Z</time>
      </trkpt>
      <trkpt lat="44.42704" lon="5.92521">
        <ele>780</ele>
        <time>2019-06-25T08:25:54Z</time>
      </trkpt>
      <trkpt lat="44.42705" lon="5.92518">
        <ele>780</ele>
        <time>2019-06-25T08:25:55Z</time>
      </trkpt>
      <trkpt lat="44.42706" lon="5.92515">
        <ele>780</ele>
        <time>2019-06-25T08:25:56Z</time>
      </trkpt>
      <trkpt lat="44.42707" lon="5.92512">
        <ele>780</ele>
        <time>2019-06-25T08:25:57Z</time>
      </trkpt>
      <trkpt lat="44.42707" lon="5.92509">
        <ele>781</ele>
        <time>2019-06-25T08:25:58Z</time>
      </trkpt>
      <trkpt lat="44.42708" lon="5.92506">
        <ele>781</ele>
        <time>2019-06-25T08:25:59Z</time>
      </trkpt>
      <trkpt lat="44.42709" lon="5.92503">
        <ele>781</ele>
        <time>2019-06-25T08:26:00Z</time>
      </trkpt>
      <trkpt lat="44.4271" lon="5.925">
        <ele>781</ele>
        <time>2019-06-25T08:26:01Z</time>
      </trkpt>
      <trkpt lat="44.42711" lon="5.92497">
        <ele>782</ele>
        <time>2019-06-25T08:26:02Z</time>
      </trkpt>
      <trkpt lat="44.42712" lon="5.92495">
        <ele>782</ele>
        <time>2019-06-25T08:26:03Z</time>
      </trkpt>
      <trkpt lat="44.42712" lon="5.92492">
        <ele>782</ele>
        <time>2019-06-25T08:26:04Z</time>
      </trkpt>
      <trkpt lat="44.42713" lon="5.92489">
        <ele>782</ele>
        <time>2019-06-25T08:26:05Z</time>
      </trkpt>
      <trkpt lat="44.42714" lon="5.92486">
        <ele>782</ele>
        <time>2019-06-25T08:26:06Z</time>
      </trkpt>
      <trkpt lat="44.42715" lon="5.92483">
        <ele>783</ele>
        <time>2019-06-25T08:26:07Z</time>
      </trkpt>
      <trkpt lat="44.42715" lon="5.9248">
        <ele>783</ele>
        <time>2019-06-25T08:26:08Z</time>
      </trkpt>
      <trkpt lat="44.42716" lon="5.92478">
        <ele>783</ele>
        <time>2019-06-25T08:26:09Z</time>
      </trkpt>
      <trkpt lat="44.42717" lon="5.92475">
        <ele>783</ele>
        <time>2019-06-25T08:26:10Z</time>
      </trkpt>
      <trkpt lat="44.42718" lon="5.92473">
        <ele>783</ele>
        <time>2019-06-25T08:26:11Z</time>
      </trkpt>
      <trkpt lat="44.42719" lon="5.9247">
        <ele>783</ele>
        <time>2019-06-25T08:26:12Z</time>
      </trkpt>
      <trkpt lat="44.4272" lon="5.92467">
        <ele>784</ele>
        <time>2019-06-25T08:26:13Z</time>
      </trkpt>
      <trkpt lat="44.4272" lon="5.92465">
        <ele>784</ele>
        <time>2019-06-25T08:26:14Z</time>
      </trkpt>
      <trkpt lat="44.42722" lon="5.92462">
        <ele>784</ele>
        <time>2019-06-25T08:26:15Z</time>
      </trkpt>
      <trkpt lat="44.42722" lon="5.9246">
        <ele>784</ele>
        <time>2019-06-25T08:26:16Z</time>
      </trkpt>
      <trkpt lat="44.42723" lon="5.92457">
        <ele>784</ele>
        <time>2019-06-25T08:26:17Z</time>
      </trkpt>
      <trkpt lat="44.42725" lon="5.92455">
        <ele>785</ele>
        <time>2019-06-25T08:26:18Z</time>
      </trkpt>
      <trkpt lat="44.42726" lon="5.92453">
        <ele>785</ele>
        <time>2019-06-25T08:26:19Z</time>
      </trkpt>
      <trkpt lat="44.42727" lon="5.9245">
        <ele>785</ele>
        <time>2019-06-25T08:26:20Z</time>
      </trkpt>
      <trkpt lat="44.42728" lon="5.92448">
        <ele>785</ele>
        <time>2019-06-25T08:26:21Z</time>
      </trkpt>
      <trkpt lat="44.4273" lon="5.92445">
        <ele>785</ele>
        <time>2019-06-25T08:26:22Z</time>
      </trkpt>
      <trkpt lat="44.42731" lon="5.92443">
        <ele>785</ele>
        <time>2019-06-25T08:26:23Z</time>
      </trkpt>
      <trkpt lat="44.42732" lon="5.9244">
        <ele>785</ele>
        <time>2019-06-25T08:26:24Z</time>
      </trkpt>
      <trkpt lat="44.42734" lon="5.92438">
        <ele>786</ele>
        <time>2019-06-25T08:26:25Z</time>
      </trkpt>
      <trkpt lat="44.42735" lon="5.92435">
        <ele>786</ele>
        <time>2019-06-25T08:26:26Z</time>
      </trkpt>
      <trkpt lat="44.42736" lon="5.92432">
        <ele>786</ele>
        <time>2019-06-25T08:26:27Z</time>
      </trkpt>
      <trkpt lat="44.42738" lon="5.9243">
        <ele>787</ele>
        <time>2019-06-25T08:26:28Z</time>
      </trkpt>
      <trkpt lat="44.42739" lon="5.92427">
        <ele>787</ele>
        <time>2019-06-25T08:26:29Z</time>
      </trkpt>
      <trkpt lat="44.42741" lon="5.92425">
        <ele>787</ele>
        <time>2019-06-25T08:26:30Z</time>
      </trkpt>
      <trkpt lat="44.42742" lon="5.92422">
        <ele>787</ele>
        <time>2019-06-25T08:26:31Z</time>
      </trkpt>
      <trkpt lat="44.42744" lon="5.9242">
        <ele>788</ele>
        <time>2019-06-25T08:26:32Z</time>
      </trkpt>
      <trkpt lat="44.42745" lon="5.92417">
        <ele>788</ele>
        <time>2019-06-25T08:26:33Z</time>
      </trkpt>
      <trkpt lat="44.42746" lon="5.92415">
        <ele>788</ele>
        <time>2019-06-25T08:26:34Z</time>
      </trkpt>
      <trkpt lat="44.42748" lon="5.92413">
        <ele>788</ele>
        <time>2019-06-25T08:26:35Z</time>
      </trkpt>
      <trkpt lat="44.42749" lon="5.9241">
        <ele>788</ele>
        <time>2019-06-25T08:26:36Z</time>
      </trkpt>
      <trkpt lat="44.4275" lon="5.92408">
        <ele>788</ele>
        <time>2019-06-25T08:26:37Z</time>
      </trkpt>
      <trkpt lat="44.42752" lon="5.92406">
        <ele>788</ele>
        <time>2019-06-25T08:26:38Z</time>
      </trkpt>
      <trkpt lat="44.42753" lon="5.92404">
        <ele>788</ele>
        <time>2019-06-25T08:26:39Z</time>
      </trkpt>
      <trkpt lat="44.42754" lon="5.92401">
        <ele>789</ele>
        <time>2019-06-25T08:26:40Z</time>
      </trkpt>
      <trkpt lat="44.42756" lon="5.92399">
        <ele>789</ele>
        <time>2019-06-25T08:26:41Z</time>
      </trkpt>
      <trkpt lat="44.42757" lon="5.92397">
        <ele>789</ele>
        <time>2019-06-25T08:26:42Z</time>
      </trkpt>
      <trkpt lat="44.42759" lon="5.92395">
        <ele>789</ele>
        <time>2019-06-25T08:26:43Z</time>
      </trkpt>
      <trkpt lat="44.4276" lon="5.92393">
        <ele>789</ele>
        <time>2019-06-25T08:26:44Z</time>
      </trkpt>
      <trkpt lat="44.42762" lon="5.9239">
        <ele>789</ele>
        <time>2019-06-25T08:26:45Z</time>
      </trkpt>
      <trkpt lat="44.42763" lon="5.92388">
        <ele>789</ele>
        <time>2019-06-25T08:26:46Z</time>
      </trkpt>
      <trkpt lat="44.42765" lon="5.92386">
        <ele>789</ele>
        <time>2019-06-25T08:26:47Z</time>
      </trkpt>
      <trkpt lat="44.42767" lon="5.92383">
        <ele>789</ele>
        <time>2019-06-25T08:26:48Z</time>
      </trkpt>
      <trkpt lat="44.42768" lon="5.9238">
        <ele>789</ele>
        <time>2019-06-25T08:26:49Z</time>
      </trkpt>
      <trkpt lat="44.4277" lon="5.92378">
        <ele>789</ele>
        <time>2019-06-25T08:26:50Z</time>
      </trkpt>
      <trkpt lat="44.42771" lon="5.92376">
        <ele>789</ele>
        <time>2019-06-25T08:26:51Z</time>
      </trkpt>
      <trkpt lat="44.42773" lon="5.92373">
        <ele>790</ele>
        <time>2019-06-25T08:26:52Z</time>
      </trkpt>
      <trkpt lat="44.42775" lon="5.92371">
        <ele>790</ele>
        <time>2019-06-25T08:26:53Z</time>
      </trkpt>
      <trkpt lat="44.42776" lon="5.92369">
        <ele>790</ele>
        <time>2019-06-25T08:26:54Z</time>
      </trkpt>
      <trkpt lat="44.42778" lon="5.92366">
        <ele>790</ele>
        <time>2019-06-25T08:26:55Z</time>
      </trkpt>
      <trkpt lat="44.42779" lon="5.92364">
        <ele>790</ele>
        <time>2019-06-25T08:26:56Z</time>
      </trkpt>
      <trkpt lat="44.42781" lon="5.92361">
        <ele>790</ele>
        <time>2019-06-25T08:26:57Z</time>
      </trkpt>
      <trkpt lat="44.42782" lon="5.92359">
        <ele>791</ele>
        <time>2019-06-25T08:26:58Z</time>
      </trkpt>
      <trkpt lat="44.42784" lon="5.92356">
        <ele>791</ele>
        <time>2019-06-25T08:26:59Z</time>
      </trkpt>
      <trkpt lat="44.42785" lon="5.92353">
        <ele>791</ele>
        <time>2019-06-25T08:27:00Z</time>
      </trkpt>
      <trkpt lat="44.42787" lon="5.92351">
        <ele>791</ele>
        <time>2019-06-25T08:27:01Z</time>
      </trkpt>
      <trkpt lat="44.42789" lon="5.92349">
        <ele>791</ele>
        <time>2019-06-25T08:27:02Z</time>
      </trkpt>
      <trkpt lat="44.4279" lon="5.92347">
        <ele>791</ele>
        <time>2019-06-25T08:27:03Z</time>
      </trkpt>
      <trkpt lat="44.42792" lon="5.92344">
        <ele>792</ele>
        <time>2019-06-25T08:27:04Z</time>
      </trkpt>
      <trkpt lat="44.42794" lon="5.92342">
        <ele>792</ele>
        <time>2019-06-25T08:27:05Z</time>
      </trkpt>
      <trkpt lat="44.42795" lon="5.92339">
        <ele>792</ele>
        <time>2019-06-25T08:27:06Z</time>
      </trkpt>
      <trkpt lat="44.42797" lon="5.92337">
        <ele>792</ele>
        <time>2019-06-25T08:27:07Z</time>
      </trkpt>
      <trkpt lat="44.42798" lon="5.92335">
        <ele>792</ele>
        <time>2019-06-25T08:27:08Z</time>
      </trkpt>
      <trkpt lat="44.428" lon="5.92332">
        <ele>793</ele>
        <time>2019-06-25T08:27:09Z</time>
      </trkpt>
      <trkpt lat="44.42802" lon="5.9233">
        <ele>793</ele>
        <time>2019-06-25T08:27:10Z</time>
      </trkpt>
      <trkpt lat="44.42804" lon="5.92328">
        <ele>793</ele>
        <time>2019-06-25T08:27:11Z</time>
      </trkpt>
      <trkpt lat="44.42805" lon="5.92325">
        <ele>793</ele>
        <time>2019-06-25T08:27:12Z</time>
      </trkpt>
      <trkpt lat="44.42807" lon="5.92323">
        <ele>794</ele>
        <time>2019-06-25T08:27:13Z</time>
      </trkpt>
      <trkpt lat="44.42809" lon="5.92321">
        <ele>794</ele>
        <time>2019-06-25T08:27:14Z</time>
      </trkpt>
      <trkpt lat="44.42811" lon="5.92319">
        <ele>794</ele>
        <time>2019-06-25T08:27:15Z</time>
      </trkpt>
      <trkpt lat="44.42812" lon="5.92317">
        <ele>794</ele>
        <time>2019-06-25T08:27:16Z</time>
      </trkpt>
      <trkpt lat="44.42814" lon="5.92314">
        <ele>794</ele>
        <time>2019-06-25T08:27:17Z</time>
      </trkpt>
      <trkpt lat="44.42816" lon="5.92311">
        <ele>794</ele>
        <time>2019-06-25T08:27:18Z</time>
      </trkpt>
      <trkpt lat="44.42818" lon="5.92309">
        <ele>795</ele>
        <time>2019-06-25T08:27:19Z</time>
      </trkpt>
      <trkpt lat="44.42819" lon="5.92306">
        <ele>795</ele>
        <time>2019-06-25T08:27:20Z</time>
      </trkpt>
      <trkpt lat="44.42821" lon="5.92303">
        <ele>795</ele>
        <time>2019-06-25T08:27:21Z</time>
      </trkpt>
      <trkpt lat="44.42823" lon="5.923">
        <ele>795</ele>
        <time>2019-06-25T08:27:22Z</time>
      </trkpt>
      <trkpt lat="44.42825" lon="5.92297">
        <ele>795</ele>
        <time>2019-06-25T08:27:23Z</time>
      </trkpt>
      <trkpt lat="44.42827" lon="5.92294">
        <ele>795</ele>
        <time>2019-06-25T08:27:24Z</time>
      </trkpt>
      <trkpt lat="44.42829" lon="5.92291">
        <ele>795</ele>
        <time>2019-06-25T08:27:25Z</time>
      </trkpt>
      <trkpt lat="44.42831" lon="5.92288">
        <ele>796</ele>
        <time>2019-06-25T08:27:26Z</time>
      </trkpt>
      <trkpt lat="44.42832" lon="5.92285">
        <ele>796</ele>
        <time>2019-06-25T08:27:27Z</time>
      </trkpt>
      <trkpt lat="44.42834" lon="5.92282">
        <ele>796</ele>
        <time>2019-06-25T08:27:28Z</time>
      </trkpt>
      <trkpt lat="44.42836" lon="5.92279">
        <ele>796</ele>
        <time>2019-06-25T08:27:29Z</time>
      </trkpt>
      <trkpt lat="44.42838" lon="5.92277">
        <ele>796</ele>
        <time>2019-06-25T08:27:30Z</time>
      </trkpt>
      <trkpt lat="44.4284" lon="5.92274">
        <ele>797</ele>
        <time>2019-06-25T08:27:31Z</time>
      </trkpt>
      <trkpt lat="44.42842" lon="5.92271">
        <ele>797</ele>
        <time>2019-06-25T08:27:32Z</time>
      </trkpt>
      <trkpt lat="44.42844" lon="5.92269">
        <ele>797</ele>
        <time>2019-06-25T08:27:33Z</time>
      </trkpt>
      <trkpt lat="44.42847" lon="5.92266">
        <ele>797</ele>
        <time>2019-06-25T08:27:34Z</time>
      </trkpt>
      <trkpt lat="44.42848" lon="5.92263">
        <ele>798</ele>
        <time>2019-06-25T08:27:35Z</time>
      </trkpt>
      <trkpt lat="44.4285" lon="5.92261">
        <ele>798</ele>
        <time>2019-06-25T08:27:36Z</time>
      </trkpt>
      <trkpt lat="44.42852" lon="5.92258">
        <ele>798</ele>
        <time>2019-06-25T08:27:37Z</time>
      </trkpt>
      <trkpt lat="44.42854" lon="5.92255">
        <ele>798</ele>
        <time>2019-06-25T08:27:38Z</time>
      </trkpt>
      <trkpt lat="44.42856" lon="5.92252">
        <ele>799</ele>
        <time>2019-06-25T08:27:39Z</time>
      </trkpt>
      <trkpt lat="44.42858" lon="5.92249">
        <ele>799</ele>
        <time>2019-06-25T08:27:40Z</time>
      </trkpt>
      <trkpt lat="44.4286" lon="5.92246">
        <ele>799</ele>
        <time>2019-06-25T08:27:41Z</time>
      </trkpt>
      <trkpt lat="44.42862" lon="5.92243">
        <ele>799</ele>
        <time>2019-06-25T08:27:42Z</time>
      </trkpt>
      <trkpt lat="44.42864" lon="5.9224">
        <ele>799</ele>
        <time>2019-06-25T08:27:43Z</time>
      </trkpt>
      <trkpt lat="44.42866" lon="5.92237">
        <ele>799</ele>
        <time>2019-06-25T08:27:44Z</time>
      </trkpt>
      <trkpt lat="44.42868" lon="5.92233">
        <ele>800</ele>
        <time>2019-06-25T08:27:45Z</time>
      </trkpt>
      <trkpt lat="44.4287" lon="5.9223">
        <ele>800</ele>
        <time>2019-06-25T08:27:46Z</time>
      </trkpt>
      <trkpt lat="44.42873" lon="5.92227">
        <ele>800</ele>
        <time>2019-06-25T08:27:47Z</time>
      </trkpt>
      <trkpt lat="44.42875" lon="5.92224">
        <ele>800</ele>
        <time>2019-06-25T08:27:48Z</time>
      </trkpt>
      <trkpt lat="44.42877" lon="5.92221">
        <ele>800</ele>
        <time>2019-06-25T08:27:49Z</time>
      </trkpt>
      <trkpt lat="44.42879" lon="5.92218">
        <ele>800</ele>
        <time>2019-06-25T08:27:50Z</time>
      </trkpt>
      <trkpt lat="44.42881" lon="5.92215">
        <ele>800</ele>
        <time>2019-06-25T08:27:51Z</time>
      </trkpt>
      <trkpt lat="44.42883" lon="5.92212">
        <ele>800</ele>
        <time>2019-06-25T08:27:52Z</time>
      </trkpt>
      <trkpt lat="44.42886" lon="5.92209">
        <ele>801</ele>
        <time>2019-06-25T08:27:53Z</time>
      </trkpt>
      <trkpt lat="44.42888" lon="5.92207">
        <ele>801</ele>
        <time>2019-06-25T08:27:54Z</time>
      </trkpt>
      <trkpt lat="44.4289" lon="5.92204">
        <ele>801</ele>
        <time>2019-06-25T08:27:55Z</time>
      </trkpt>
      <trkpt lat="44.42892" lon="5.92201">
        <ele>802</ele>
        <time>2019-06-25T08:27:56Z</time>
      </trkpt>
      <trkpt lat="44.42894" lon="5.92198">
        <ele>802</ele>
        <time>2019-06-25T08:27:57Z</time>
      </trkpt>
      <trkpt lat="44.42896" lon="5.92196">
        <ele>802</ele>
        <time>2019-06-25T08:27:58Z</time>
      </trkpt>
      <trkpt lat="44.42899" lon="5.92194">
        <ele>802</ele>
        <time>2019-06-25T08:27:59Z</time>
      </trkpt>
      <trkpt lat="44.42901" lon="5.92191">
        <ele>803</ele>
        <time>2019-06-25T08:28:00Z</time>
      </trkpt>
      <trkpt lat="44.42904" lon="5.92188">
        <ele>803</ele>
        <time>2019-06-25T08:28:01Z</time>
      </trkpt>
      <trkpt lat="44.42907" lon="5.92185">
        <ele>803</ele>
        <time>2019-06-25T08:28:02Z</time>
      </trkpt>
      <trkpt lat="44.4291" lon="5.92182">
        <ele>803</ele>
        <time>2019-06-25T08:28:03Z</time>
      </trkpt>
      <trkpt lat="44.42913" lon="5.9218">
        <ele>803</ele>
        <time>2019-06-25T08:28:04Z</time>
      </trkpt>
      <trkpt lat="44.42916" lon="5.92177">
        <ele>803</ele>
        <time>2019-06-25T08:28:05Z</time>
      </trkpt>
      <trkpt lat="44.42919" lon="5.92174">
        <ele>803</ele>
        <time>2019-06-25T08:28:06Z</time>
      </trkpt>
      <trkpt lat="44.42922" lon="5.92171">
        <ele>803</ele>
        <time>2019-06-25T08:28:07Z</time>
      </trkpt>
      <trkpt lat="44.42925" lon="5.92169">
        <ele>803</ele>
        <time>2019-06-25T08:28:08Z</time>
      </trkpt>
      <trkpt lat="44.42929" lon="5.92166">
        <ele>804</ele>
        <time>2019-06-25T08:28:09Z</time>
      </trkpt>
      <trkpt lat="44.42933" lon="5.92164">
        <ele>804</ele>
        <time>2019-06-25T08:28:10Z</time>
      </trkpt>
      <trkpt lat="44.42937" lon="5.92161">
        <ele>804</ele>
        <time>2019-06-25T08:28:11Z</time>
      </trkpt>
      <trkpt lat="44.42941" lon="5.92159">
        <ele>804</ele>
        <time>2019-06-25T08:28:12Z</time>
      </trkpt>
      <trkpt lat="44.42945" lon="5.92157">
        <ele>804</ele>
        <time>2019-06-25T08:28:13Z</time>
      </trkpt>
      <trkpt lat="44.42949" lon="5.92156">
        <ele>804</ele>
        <time>2019-06-25T08:28:14Z</time>
      </trkpt>
      <trkpt lat="44.42954" lon="5.92155">
        <ele>805</ele>
        <time>2019-06-25T08:28:15Z</time>
      </trkpt>
      <trkpt lat="44.42958" lon="5.92154">
        <ele>805</ele>
        <time>2019-06-25T08:28:16Z</time>
      </trkpt>
      <trkpt lat="44.42963" lon="5.92153">
        <ele>805</ele>
        <time>2019-06-25T08:28:17Z</time>
      </trkpt>
      <trkpt lat="44.42968" lon="5.92153">
        <ele>805</ele>
        <time>2019-06-25T08:28:18Z</time>
      </trkpt>
      <trkpt lat="44.42972" lon="5.92152">
        <ele>806</ele>
        <time>2019-06-25T08:28:19Z</time>
      </trkpt>
      <trkpt lat="44.42976" lon="5.92152">
        <ele>806</ele>
        <time>2019-06-25T08:28:20Z</time>
      </trkpt>
      <trkpt lat="44.42981" lon="5.92151">
        <ele>806</ele>
        <time>2019-06-25T08:28:21Z</time>
      </trkpt>
      <trkpt lat="44.42985" lon="5.92151">
        <ele>806</ele>
        <time>2019-06-25T08:28:22Z</time>
      </trkpt>
      <trkpt lat="44.42989" lon="5.92151">
        <ele>807</ele>
        <time>2019-06-25T08:28:23Z</time>
      </trkpt>
      <trkpt lat="44.42993" lon="5.92151">
        <ele>807</ele>
        <time>2019-06-25T08:28:24Z</time>
      </trkpt>
      <trkpt lat="44.42997" lon="5.92151">
        <ele>807</ele>
        <time>2019-06-25T08:28:25Z</time>
      </trkpt>
      <trkpt lat="44.43001" lon="5.92151">
        <ele>807</ele>
        <time>2019-06-25T08:28:26Z</time>
      </trkpt>
      <trkpt lat="44.43004" lon="5.92151">
        <ele>807</ele>
        <time>2019-06-25T08:28:27Z</time>
      </trkpt>
      <trkpt lat="44.43008" lon="5.9215">
        <ele>807</ele>
        <time>2019-06-25T08:28:28Z</time>
      </trkpt>
      <trkpt lat="44.43011" lon="5.9215">
        <ele>807</ele>
        <time>2019-06-25T08:28:29Z</time>
      </trkpt>
      <trkpt lat="44.43014" lon="5.92149">
        <ele>807</ele>
        <time>2019-06-25T08:28:30Z</time>
      </trkpt>
      <trkpt lat="44.43017" lon="5.92148">
        <ele>807</ele>
        <time>2019-06-25T08:28:31Z</time>
      </trkpt>
      <trkpt lat="44.4302" lon="5.92148">
        <ele>807</ele>
        <time>2019-06-25T08:28:32Z</time>
      </trkpt>
      <trkpt lat="44.43023" lon="5.92148">
        <ele>807</ele>
        <time>2019-06-25T08:28:33Z</time>
      </trkpt>
      <trkpt lat="44.43026" lon="5.92147">
        <ele>807</ele>
        <time>2019-06-25T08:28:34Z</time>
      </trkpt>
      <trkpt lat="44.43029" lon="5.92146">
        <ele>808</ele>
        <time>2019-06-25T08:28:35Z</time>
      </trkpt>
      <trkpt lat="44.43032" lon="5.92145">
        <ele>808</ele>
        <time>2019-06-25T08:28:36Z</time>
      </trkpt>
      <trkpt lat="44.43036" lon="5.92145">
        <ele>808</ele>
        <time>2019-06-25T08:28:37Z</time>
      </trkpt>
      <trkpt lat="44.43039" lon="5.92144">
        <ele>808</ele>
        <time>2019-06-25T08:28:38Z</time>
      </trkpt>
      <trkpt lat="44.43042" lon="5.92143">
        <ele>809</ele>
        <time>2019-06-25T08:28:39Z</time>
      </trkpt>
      <trkpt lat="44.43046" lon="5.92143">
        <ele>809</ele>
        <time>2019-06-25T08:28:40Z</time>
      </trkpt>
      <trkpt lat="44.4305" lon="5.92142">
        <ele>809</ele>
        <time>2019-06-25T08:28:41Z</time>
      </trkpt>
      <trkpt lat="44.43053" lon="5.92141">
        <ele>809</ele>
        <time>2019-06-25T08:28:42Z</time>
      </trkpt>
      <trkpt lat="44.43056" lon="5.9214">
        <ele>810</ele>
        <time>2019-06-25T08:28:43Z</time>
      </trkpt>
      <trkpt lat="44.43059" lon="5.92139">
        <ele>810</ele>
        <time>2019-06-25T08:28:44Z</time>
      </trkpt>
      <trkpt lat="44.43062" lon="5.92138">
        <ele>810</ele>
        <time>2019-06-25T08:28:45Z</time>
      </trkpt>
      <trkpt lat="44.43065" lon="5.92137">
        <ele>811</ele>
        <time>2019-06-25T08:28:46Z</time>
      </trkpt>
      <trkpt lat="44.43068" lon="5.92136">
        <ele>811</ele>
        <time>2019-06-25T08:28:47Z</time>
      </trkpt>
      <trkpt lat="44.43071" lon="5.92135">
        <ele>811</ele>
        <time>2019-06-25T08:28:48Z</time>
      </trkpt>
      <trkpt lat="44.43073" lon="5.92135">
        <ele>812</ele>
        <time>2019-06-25T08:28:49Z</time>
      </trkpt>
      <trkpt lat="44.43076" lon="5.92135">
        <ele>812</ele>
        <time>2019-06-25T08:28:50Z</time>
      </trkpt>
      <trkpt lat="44.43079" lon="5.92135">
        <ele>812</ele>
        <time>2019-06-25T08:28:51Z</time>
      </trkpt>
      <trkpt lat="44.43082" lon="5.92135">
        <ele>812</ele>
        <time>2019-06-25T08:28:52Z</time>
      </trkpt>
      <trkpt lat="44.43086" lon="5.92136">
        <ele>812</ele>
        <time>2019-06-25T08:28:53Z</time>
      </trkpt>
      <trkpt lat="44.43089" lon="5.92136">
        <ele>812</ele>
        <time>2019-06-25T08:28:54Z</time>
      </trkpt>
      <trkpt lat="44.43093" lon="5.92137">
        <ele>812</ele>
        <time>2019-06-25T08:28:55Z</time>
      </trkpt>
      <trkpt lat="44.43097" lon="5.92139">
        <ele>812</ele>
        <time>2019-06-25T08:28:56Z</time>
      </trkpt>
      <trkpt lat="44.431" lon="5.9214">
        <ele>812</ele>
        <time>2019-06-25T08:28:57Z</time>
      </trkpt>
      <trkpt lat="44.43104" lon="5.92142">
        <ele>812</ele>
        <time>2019-06-25T08:28:58Z</time>
      </trkpt>
      <trkpt lat="44.43107" lon="5.92144">
        <ele>812</ele>
        <time>2019-06-25T08:28:59Z</time>
      </trkpt>
      <trkpt lat="44.43111" lon="5.92146">
        <ele>812</ele>
        <time>2019-06-25T08:29:00Z</time>
      </trkpt>
      <trkpt lat="44.43114" lon="5.92147">
        <ele>812</ele>
        <time>2019-06-25T08:29:01Z</time>
      </trkpt>
      <trkpt lat="44.43118" lon="5.92149">
        <ele>813</ele>
        <time>2019-06-25T08:29:02Z</time>
      </trkpt>
      <trkpt lat="44.43122" lon="5.92151">
        <ele>813</ele>
        <time>2019-06-25T08:29:03Z</time>
      </trkpt>
      <trkpt lat="44.43126" lon="5.92153">
        <ele>813</ele>
        <time>2019-06-25T08:29:04Z</time>
      </trkpt>
      <trkpt lat="44.43129" lon="5.92155">
        <ele>813</ele>
        <time>2019-06-25T08:29:05Z</time>
      </trkpt>
      <trkpt lat="44.43133" lon="5.92156">
        <ele>813</ele>
        <time>2019-06-25T08:29:06Z</time>
      </trkpt>
      <trkpt lat="44.43137" lon="5.92157">
        <ele>813</ele>
        <time>2019-06-25T08:29:07Z</time>
      </trkpt>
      <trkpt lat="44.4314" lon="5.92158">
        <ele>813</ele>
        <time>2019-06-25T08:29:08Z</time>
      </trkpt>
      <trkpt lat="44.43144" lon="5.92158">
        <ele>813</ele>
        <time>2019-06-25T08:29:09Z</time>
      </trkpt>
      <trkpt lat="44.43148" lon="5.92158">
        <ele>813</ele>
        <time>2019-06-25T08:29:10Z</time>
      </trkpt>
      <trkpt lat="44.43152" lon="5.92158">
        <ele>813</ele>
        <time>2019-06-25T08:29:11Z</time>
      </trkpt>
      <trkpt lat="44.43156" lon="5.92157">
        <ele>813</ele>
        <time>2019-06-25T08:29:12Z</time>
      </trkpt>
      <trkpt lat="44.4316" lon="5.92155">
        <ele>813</ele>
        <time>2019-06-25T08:29:13Z</time>
      </trkpt>
      <trkpt lat="44.43164" lon="5.92154">
        <ele>813</ele>
        <time>2019-06-25T08:29:14Z</time>
      </trkpt>
      <trkpt lat="44.43167" lon="5.92153">
        <ele>813</ele>
        <time>2019-06-25T08:29:15Z</time>
      </trkpt>
      <trkpt lat="44.43171" lon="5.92151">
        <ele>813</ele>
        <time>2019-06-25T08:29:16Z</time>
      </trkpt>
      <trkpt lat="44.43175" lon="5.92149">
        <ele>813</ele>
        <time>2019-06-25T08:29:17Z</time>
      </trkpt>
      <trkpt lat="44.43179" lon="5.92147">
        <ele>813</ele>
        <time>2019-06-25T08:29:18Z</time>
      </trkpt>
      <trkpt lat="44.43182" lon="5.92144">
        <ele>813</ele>
        <time>2019-06-25T08:29:19Z</time>
      </trkpt>
      <trkpt lat="44.43186" lon="5.92141">
        <ele>813</ele>
        <time>2019-06-25T08:29:20Z</time>
      </trkpt>
      <trkpt lat="44.4319" lon="5.92138">
        <ele>813</ele>
        <time>2019-06-25T08:29:21Z</time>
      </trkpt>
      <trkpt lat="44.43193" lon="5.92135">
        <ele>813</ele>
        <time>2019-06-25T08:29:22Z</time>
      </trkpt>
      <trkpt lat="44.43196" lon="5.92131">
        <ele>813</ele>
        <time>2019-06-25T08:29:23Z</time>
      </trkpt>
      <trkpt lat="44.432" lon="5.92127">
        <ele>813</ele>
        <time>2019-06-25T08:29:24Z</time>
      </trkpt>
      <trkpt lat="44.43203" lon="5.92123">
        <ele>813</ele>
        <time>2019-06-25T08:29:25Z</time>
      </trkpt>
      <trkpt lat="44.43207" lon="5.92119">
        <ele>813</ele>
        <time>2019-06-25T08:29:26Z</time>
      </trkpt>
      <trkpt lat="44.43211" lon="5.92115">
        <ele>813</ele>
        <time>2019-06-25T08:29:27Z</time>
      </trkpt>
      <trkpt lat="44.43214" lon="5.92111">
        <ele>813</ele>
        <time>2019-06-25T08:29:28Z</time>
      </trkpt>
      <trkpt lat="44.43217" lon="5.92106">
        <ele>813</ele>
        <time>2019-06-25T08:29:29Z</time>
      </trkpt>
      <trkpt lat="44.4322" lon="5.92102">
        <ele>813</ele>
        <time>2019-06-25T08:29:30Z</time>
      </trkpt>
      <trkpt lat="44.43223" lon="5.92098">
        <ele>813</ele>
        <time>2019-06-25T08:29:31Z</time>
      </trkpt>
      <trkpt lat="44.43226" lon="5.92093">
        <ele>813</ele>
        <time>2019-06-25T08:29:32Z</time>
      </trkpt>
      <trkpt lat="44.43229" lon="5.92089">
        <ele>813</ele>
        <time>2019-06-25T08:29:33Z</time>
      </trkpt>
      <trkpt lat="44.43232" lon="5.92084">
        <ele>813</ele>
        <time>2019-06-25T08:29:34Z</time>
      </trkpt>
      <trkpt lat="44.43235" lon="5.92079">
        <ele>813</ele>
        <time>2019-06-25T08:29:35Z</time>
      </trkpt>
      <trkpt lat="44.43238" lon="5.92074">
        <ele>813</ele>
        <time>2019-06-25T08:29:36Z</time>
      </trkpt>
      <trkpt lat="44.43241" lon="5.9207">
        <ele>813</ele>
        <time>2019-06-25T08:29:37Z</time>
      </trkpt>
      <trkpt lat="44.43244" lon="5.92065">
        <ele>813</ele>
        <time>2019-06-25T08:29:38Z</time>
      </trkpt>
      <trkpt lat="44.43247" lon="5.92061">
        <ele>813</ele>
        <time>2019-06-25T08:29:39Z</time>
      </trkpt>
      <trkpt lat="44.4325" lon="5.92056">
        <ele>813</ele>
        <time>2019-06-25T08:29:40Z</time>
      </trkpt>
      <trkpt lat="44.43253" lon="5.92051">
        <ele>813</ele>
        <time>2019-06-25T08:29:41Z</time>
      </trkpt>
      <trkpt lat="44.43256" lon="5.92047">
        <ele>813</ele>
        <time>2019-06-25T08:29:42Z</time>
      </trkpt>
      <trkpt lat="44.43258" lon="5.92042">
        <ele>813</ele>
        <time>2019-06-25T08:29:43Z</time>
      </trkpt>
      <trkpt lat="44.4326" lon="5.92038">
        <ele>813</ele>
        <time>2019-06-25T08:29:44Z</time>
      </trkpt>
      <trkpt lat="44.43263" lon="5.92034">
        <ele>813</ele>
        <time>2019-06-25T08:29:45Z</time>
      </trkpt>
      <trkpt lat="44.43265" lon="5.9203">
        <ele>813</ele>
        <time>2019-06-25T08:29:46Z</time>
      </trkpt>
      <trkpt lat="44.43268" lon="5.92026">
        <ele>813</ele>
        <time>2019-06-25T08:29:47Z</time>
      </trkpt>
      <trkpt lat="44.43271" lon="5.92023">
        <ele>813</ele>
        <time>2019-06-25T08:29:48Z</time>
      </trkpt>
      <trkpt lat="44.43273" lon="5.92019">
        <ele>813</ele>
        <time>2019-06-25T08:29:49Z</time>
      </trkpt>
      <trkpt lat="44.43276" lon="5.92014">
        <ele>813</ele>
        <time>2019-06-25T08:29:50Z</time>
      </trkpt>
      <trkpt lat="44.43279" lon="5.9201">
        <ele>813</ele>
        <time>2019-06-25T08:29:51Z</time>
      </trkpt>
      <trkpt lat="44.43282" lon="5.92005">
        <ele>813</ele>
        <time>2019-06-25T08:29:52Z</time>
      </trkpt>
      <trkpt lat="44.43285" lon="5.92001">
        <ele>813</ele>
        <time>2019-06-25T08:29:53Z</time>
      </trkpt>
      <trkpt lat="44.43288" lon="5.91996">
        <ele>813</ele>
        <time>2019-06-25T08:29:54Z</time>
      </trkpt>
      <trkpt lat="44.43291" lon="5.91991">
        <ele>813</ele>
        <time>2019-06-25T08:29:55Z</time>
      </trkpt>
      <trkpt lat="44.43294" lon="5.91986">
        <ele>813</ele>
        <time>2019-06-25T08:29:56Z</time>
      </trkpt>
      <trkpt lat="44.43298" lon="5.9198">
        <ele>813</ele>
        <time>2019-06-25T08:29:57Z</time>
      </trkpt>
      <trkpt lat="44.43301" lon="5.91975">
        <ele>813</ele>
        <time>2019-06-25T08:29:58Z</time>
      </trkpt>
      <trkpt lat="44.43304" lon="5.91969">
        <ele>813</ele>
        <time>2019-06-25T08:29:59Z</time>
      </trkpt>
      <trkpt lat="44.43308" lon="5.91964">
        <ele>813</ele>
        <time>2019-06-25T08:30:00Z</time>
      </trkpt>
      <trkpt lat="44.43311" lon="5.91959">
        <ele>813</ele>
        <time>2019-06-25T08:30:01Z</time>
      </trkpt>
      <trkpt lat="44.43315" lon="5.91955">
        <ele>813</ele>
        <time>2019-06-25T08:30:02Z</time>
      </trkpt>
      <trkpt lat="44.43318" lon="5.91951">
        <ele>813</ele>
        <time>2019-06-25T08:30:03Z</time>
      </trkpt>
      <trkpt lat="44.43322" lon="5.91947">
        <ele>813</ele>
        <time>2019-06-25T08:30:04Z</time>
      </trkpt>
      <trkpt lat="44.43326" lon="5.91944">
        <ele>813</ele>
        <time>2019-06-25T08:30:05Z</time>
      </trkpt>
      <trkpt lat="44.4333" lon="5.91941">
        <ele>813</ele>
        <time>2019-06-25T08:30:06Z</time>
      </trkpt>
      <trkpt lat="44.43334" lon="5.91939">
        <ele>813</ele>
        <time>2019-06-25T08:30:07Z</time>
      </trkpt>
      <trkpt lat="44.43338" lon="5.9194">
        <ele>813</ele>
        <time>2019-06-25T08:30:08Z</time>
      </trkpt>
      <trkpt lat="44.43342" lon="5.91943">
        <ele>813</ele>
        <time>2019-06-25T08:30:09Z</time>
      </trkpt>
      <trkpt lat="44.43345" lon="5.91947">
        <ele>813</ele>
        <time>2019-06-25T08:30:10Z</time>
      </trkpt>
      <trkpt lat="44.43348" lon="5.91952">
        <ele>813</ele>
        <time>2019-06-25T08:30:11Z</time>
      </trkpt>
      <trkpt lat="44.43351" lon="5.91956">
        <ele>813</ele>
        <time>2019-06-25T08:30:12Z</time>
      </trkpt>
      <trkpt lat="44.43353" lon="5.91961">
        <ele>813</ele>
        <time>2019-06-25T08:30:13Z</time>
      </trkpt>
      <trkpt lat="44.43356" lon="5.91965">
        <ele>813</ele>
        <time>2019-06-25T08:30:14Z</time>
      </trkpt>
      <trkpt lat="44.43359" lon="5.91968">
        <ele>813</ele>
        <time>2019-06-25T08:30:15Z</time>
      </trkpt>
      <trkpt lat="44.43362" lon="5.91971">
        <ele>813</ele>
        <time>2019-06-25T08:30:16Z</time>
      </trkpt>
      <trkpt lat="44.43365" lon="5.91974">
        <ele>813</ele>
        <time>2019-06-25T08:30:17Z</time>
      </trkpt>
      <trkpt lat="44.43368" lon="5.91975">
        <ele>813</ele>
        <time>2019-06-25T08:30:18Z</time>
      </trkpt>
      <trkpt lat="44.43372" lon="5.91976">
        <ele>813</ele>
        <time>2019-06-25T08:30:19Z</time>
      </trkpt>
      <trkpt lat="44.43375" lon="5.91975">
        <ele>813</ele>
        <time>2019-06-25T08:30:20Z</time>
      </trkpt>
      <trkpt lat="44.43378" lon="5.91974">
        <ele>813</ele>
        <time>2019-06-25T08:30:21Z</time>
      </trkpt>
      <trkpt lat="44.43382" lon="5.91973">
        <ele>813</ele>
        <time>2019-06-25T08:30:22Z</time>
      </trkpt>
      <trkpt lat="44.43385" lon="5.91971">
        <ele>813</ele>
        <time>2019-06-25T08:30:23Z</time>
      </trkpt>
      <trkpt lat="44.43388" lon="5.9197">
        <ele>813</ele>
        <time>2019-06-25T08:30:24Z</time>
      </trkpt>
      <trkpt lat="44.43392" lon="5.91968">
        <ele>813</ele>
        <time>2019-06-25T08:30:25Z</time>
      </trkpt>
      <trkpt lat="44.43395" lon="5.91966">
        <ele>813</ele>
        <time>2019-06-25T08:30:26Z</time>
      </trkpt>
      <trkpt lat="44.43398" lon="5.91964">
        <ele>813</ele>
        <time>2019-06-25T08:30:27Z</time>
      </trkpt>
      <trkpt lat="44.43401" lon="5.91962">
        <ele>813</ele>
        <time>2019-06-25T08:30:28Z</time>
      </trkpt>
      <trkpt lat="44.43404" lon="5.9196">
        <ele>814</ele>
        <time>2019-06-25T08:30:29Z</time>
      </trkpt>
      <trkpt lat="44.43406" lon="5.91958">
        <ele>814</ele>
        <time>2019-06-25T08:30:30Z</time>
      </trkpt>
      <trkpt lat="44.43409" lon="5.91956">
        <ele>814</ele>
        <time>2019-06-25T08:30:31Z</time>
      </trkpt>
      <trkpt lat="44.43412" lon="5.91955">
        <ele>815</ele>
        <time>2019-06-25T08:30:32Z</time>
      </trkpt>
      <trkpt lat="44.43414" lon="5.91954">
        <ele>815</ele>
        <time>2019-06-25T08:30:33Z</time>
      </trkpt>
      <trkpt lat="44.43417" lon="5.91952">
        <ele>815</ele>
        <time>2019-06-25T08:30:34Z</time>
      </trkpt>
      <trkpt lat="44.43419" lon="5.9195">
        <ele>816</ele>
        <time>2019-06-25T08:30:35Z</time>
      </trkpt>
      <trkpt lat="44.43422" lon="5.91948">
        <ele>816</ele>
        <time>2019-06-25T08:30:36Z</time>
      </trkpt>
      <trkpt lat="44.43424" lon="5.91946">
        <ele>817</ele>
        <time>2019-06-25T08:30:37Z</time>
      </trkpt>
      <trkpt lat="44.43427" lon="5.91945">
        <ele>817</ele>
        <time>2019-06-25T08:30:38Z</time>
      </trkpt>
      <trkpt lat="44.4343" lon="5.91943">
        <ele>817</ele>
        <time>2019-06-25T08:30:39Z</time>
      </trkpt>
      <trkpt lat="44.43433" lon="5.91941">
        <ele>818</ele>
        <time>2019-06-25T08:30:40Z</time>
      </trkpt>
      <trkpt lat="44.43435" lon="5.9194">
        <ele>818</ele>
        <time>2019-06-25T08:30:41Z</time>
      </trkpt>
      <trkpt lat="44.43438" lon="5.91938">
        <ele>818</ele>
        <time>2019-06-25T08:30:42Z</time>
      </trkpt>
      <trkpt lat="44.43441" lon="5.91936">
        <ele>819</ele>
        <time>2019-06-25T08:30:43Z</time>
      </trkpt>
      <trkpt lat="44.43444" lon="5.91935">
        <ele>819</ele>
        <time>2019-06-25T08:30:44Z</time>
      </trkpt>
      <trkpt lat="44.43447" lon="5.91933">
        <ele>819</ele>
        <time>2019-06-25T08:30:45Z</time>
      </trkpt>
      <trkpt lat="44.43449" lon="5.91931">
        <ele>819</ele>
        <time>2019-06-25T08:30:46Z</time>
      </trkpt>
      <trkpt lat="44.43452" lon="5.91928">
        <ele>820</ele>
        <time>2019-06-25T08:30:47Z</time>
      </trkpt>
      <trkpt lat="44.43453" lon="5.91925">
        <ele>820</ele>
        <time>2019-06-25T08:30:48Z</time>
      </trkpt>
      <trkpt lat="44.43454" lon="5.91921">
        <ele>820</ele>
        <time>2019-06-25T08:30:49Z</time>
      </trkpt>
      <trkpt lat="44.43455" lon="5.91918">
        <ele>820</ele>
        <time>2019-06-25T08:30:50Z</time>
      </trkpt>
      <trkpt lat="44.43455" lon="5.91915">
        <ele>820</ele>
        <time>2019-06-25T08:30:51Z</time>
      </trkpt>
      <trkpt lat="44.43456" lon="5.91911">
        <ele>821</ele>
        <time>2019-06-25T08:30:52Z</time>
      </trkpt>
      <trkpt lat="44.43457" lon="5.91908">
        <ele>821</ele>
        <time>2019-06-25T08:30:53Z</time>
      </trkpt>
      <trkpt lat="44.43457" lon="5.91905">
        <ele>821</ele>
        <time>2019-06-25T08:30:54Z</time>
      </trkpt>
      <trkpt lat="44.43458" lon="5.91902">
        <ele>821</ele>
        <time>2019-06-25T08:30:55Z</time>
      </trkpt>
      <trkpt lat="44.43459" lon="5.91899">
        <ele>821</ele>
        <time>2019-06-25T08:30:56Z</time>
      </trkpt>
      <trkpt lat="44.43459" lon="5.91896">
        <ele>821</ele>
        <time>2019-06-25T08:30:57Z</time>
      </trkpt>
      <trkpt lat="44.4346" lon="5.91893">
        <ele>821</ele>
        <time>2019-06-25T08:30:58Z</time>
      </trkpt>
      <trkpt lat="44.43461" lon="5.9189">
        <ele>821</ele>
        <time>2019-06-25T08:30:59Z</time>
      </trkpt>
      <trkpt lat="44.43462" lon="5.91888">
        <ele>821</ele>
        <time>2019-06-25T08:31:00Z</time>
      </trkpt>
      <trkpt lat="44.43464" lon="5.91886">
        <ele>821</ele>
        <time>2019-06-25T08:31:01Z</time>
      </trkpt>
      <trkpt lat="44.43466" lon="5.91884">
        <ele>821</ele>
        <time>2019-06-25T08:31:02Z</time>
      </trkpt>
      <trkpt lat="44.43468" lon="5.91882">
        <ele>821</ele>
        <time>2019-06-25T08:31:03Z</time>
      </trkpt>
      <trkpt lat="44.4347" lon="5.9188">
        <ele>821</ele>
        <time>2019-06-25T08:31:04Z</time>
      </trkpt>
      <trkpt lat="44.43471" lon="5.91878">
        <ele>822</ele>
        <time>2019-06-25T08:31:05Z</time>
      </trkpt>
      <trkpt lat="44.43473" lon="5.91876">
        <ele>822</ele>
        <time>2019-06-25T08:31:06Z</time>
      </trkpt>
      <trkpt lat="44.43474" lon="5.91874">
        <ele>822</ele>
        <time>2019-06-25T08:31:07Z</time>
      </trkpt>
      <trkpt lat="44.43476" lon="5.91873">
        <ele>822</ele>
        <time>2019-06-25T08:31:08Z</time>
      </trkpt>
      <trkpt lat="44.43478" lon="5.91873">
        <ele>823</ele>
        <time>2019-06-25T08:31:09Z</time>
      </trkpt>
      <trkpt lat="44.4348" lon="5.91872">
        <ele>823</ele>
        <time>2019-06-25T08:31:10Z</time>
      </trkpt>
      <trkpt lat="44.43482" lon="5.9187">
        <ele>823</ele>
        <time>2019-06-25T08:31:11Z</time>
      </trkpt>
      <trkpt lat="44.43485" lon="5.91869">
        <ele>823</ele>
        <time>2019-06-25T08:31:12Z</time>
      </trkpt>
      <trkpt lat="44.43486" lon="5.91868">
        <ele>823</ele>
        <time>2019-06-25T08:31:13Z</time>
      </trkpt>
      <trkpt lat="44.43488" lon="5.91869">
        <ele>823</ele>
        <time>2019-06-25T08:31:14Z</time>
      </trkpt>
      <trkpt lat="44.43489" lon="5.91868">
        <ele>823</ele>
        <time>2019-06-25T08:31:15Z</time>
      </trkpt>
      <trkpt lat="44.4349" lon="5.91868">
        <ele>824</ele>
        <time>2019-06-25T08:31:16Z</time>
      </trkpt>
      <trkpt lat="44.43493" lon="5.91867">
        <ele>825</ele>
        <time>2019-06-25T08:31:17Z</time>
      </trkpt>
      <trkpt lat="44.43494" lon="5.91866">
        <ele>826</ele>
        <time>2019-06-25T08:31:18Z</time>
      </trkpt>
      <trkpt lat="44.43496" lon="5.91866">
        <ele>827</ele>
        <time>2019-06-25T08:31:19Z</time>
      </trkpt>
      <trkpt lat="44.43498" lon="5.91865">
        <ele>828</ele>
        <time>2019-06-25T08:31:20Z</time>
      </trkpt>
      <trkpt lat="44.43499" lon="5.91864">
        <ele>829</ele>
        <time>2019-06-25T08:31:21Z</time>
      </trkpt>
      <trkpt lat="44.43501" lon="5.91863">
        <ele>830</ele>
        <time>2019-06-25T08:31:22Z</time>
      </trkpt>
      <trkpt lat="44.43504" lon="5.91863">
        <ele>831</ele>
        <time>2019-06-25T08:31:23Z</time>
      </trkpt>
      <trkpt lat="44.43506" lon="5.91863">
        <ele>831</ele>
        <time>2019-06-25T08:31:24Z</time>
      </trkpt>
      <trkpt lat="44.43508" lon="5.91863">
        <ele>831</ele>
        <time>2019-06-25T08:31:25Z</time>
      </trkpt>
      <trkpt lat="44.43511" lon="5.91863">
        <ele>831</ele>
        <time>2019-06-25T08:31:26Z</time>
      </trkpt>
      <trkpt lat="44.43513" lon="5.91863">
        <ele>831</ele>
        <time>2019-06-25T08:31:27Z</time>
      </trkpt>
      <trkpt lat="44.43516" lon="5.91862">
        <ele>831</ele>
        <time>2019-06-25T08:31:28Z</time>
      </trkpt>
      <trkpt lat="44.43518" lon="5.9186">
        <ele>831</ele>
        <time>2019-06-25T08:31:29Z</time>
      </trkpt>
      <trkpt lat="44.4352" lon="5.91858">
        <ele>831</ele>
        <time>2019-06-25T08:31:30Z</time>
      </trkpt>
      <trkpt lat="44.43522" lon="5.91855">
        <ele>831</ele>
        <time>2019-06-25T08:31:31Z</time>
      </trkpt>
      <trkpt lat="44.43523" lon="5.91852">
        <ele>831</ele>
        <time>2019-06-25T08:31:32Z</time>
      </trkpt>
      <trkpt lat="44.43523" lon="5.91849">
        <ele>831</ele>
        <time>2019-06-25T08:31:33Z</time>
      </trkpt>
      <trkpt lat="44.43523" lon="5.91845">
        <ele>831</ele>
        <time>2019-06-25T08:31:34Z</time>
      </trkpt>
      <trkpt lat="44.43523" lon="5.91842">
        <ele>831</ele>
        <time>2019-06-25T08:31:35Z</time>
      </trkpt>
      <trkpt lat="44.43523" lon="5.91838">
        <ele>831</ele>
        <time>2019-06-25T08:31:36Z</time>
      </trkpt>
      <trkpt lat="44.43522" lon="5.91834">
        <ele>831</ele>
        <time>2019-06-25T08:31:37Z</time>
      </trkpt>
      <trkpt lat="44.43522" lon="5.91831">
        <ele>831</ele>
        <time>2019-06-25T08:31:38Z</time>
      </trkpt>
      <trkpt lat="44.43522" lon="5.91828">
        <ele>831</ele>
        <time>2019-06-25T08:31:39Z</time>
      </trkpt>
      <trkpt lat="44.43521" lon="5.91824">
        <ele>831</ele>
        <time>2019-06-25T08:31:40Z</time>
      </trkpt>
      <trkpt lat="44.43521" lon="5.91821">
        <ele>831</ele>
        <time>2019-06-25T08:31:41Z</time>
      </trkpt>
      <trkpt lat="44.4352" lon="5.91818">
        <ele>831</ele>
        <time>2019-06-25T08:31:42Z</time>
      </trkpt>
      <trkpt lat="44.4352" lon="5.91815">
        <ele>831</ele>
        <time>2019-06-25T08:31:43Z</time>
      </trkpt>
      <trkpt lat="44.4352" lon="5.91811">
        <ele>831</ele>
        <time>2019-06-25T08:31:44Z</time>
      </trkpt>
      <trkpt lat="44.4352" lon="5.91808">
        <ele>831</ele>
        <time>2019-06-25T08:31:45Z</time>
      </trkpt>
      <trkpt lat="44.43521" lon="5.91804">
        <ele>831</ele>
        <time>2019-06-25T08:31:46Z</time>
      </trkpt>
      <trkpt lat="44.43522" lon="5.918">
        <ele>831</ele>
        <time>2019-06-25T08:31:47Z</time>
      </trkpt>
      <trkpt lat="44.43523" lon="5.91798">
        <ele>831</ele>
        <time>2019-06-25T08:31:48Z</time>
      </trkpt>
      <trkpt lat="44.43524" lon="5.91796">
        <ele>831</ele>
        <time>2019-06-25T08:31:49Z</time>
      </trkpt>
      <trkpt lat="44.43526" lon="5.91794">
        <ele>831</ele>
        <time>2019-06-25T08:31:51Z</time>
      </trkpt>
      <trkpt lat="44.43527" lon="5.91795">
        <ele>831</ele>
        <time>2019-06-25T08:31:52Z</time>
      </trkpt>
      <trkpt lat="44.43529" lon="5.91795">
        <ele>831</ele>
        <time>2019-06-25T08:31:53Z</time>
      </trkpt>
      <trkpt lat="44.43531" lon="5.91794">
        <ele>831</ele>
        <time>2019-06-25T08:31:54Z</time>
      </trkpt>
      <trkpt lat="44.43533" lon="5.91794">
        <ele>831</ele>
        <time>2019-06-25T08:31:55Z</time>
      </trkpt>
      <trkpt lat="44.43536" lon="5.91795">
        <ele>831</ele>
        <time>2019-06-25T08:31:56Z</time>
      </trkpt>
      <trkpt lat="44.43539" lon="5.91796">
        <ele>832</ele>
        <time>2019-06-25T08:31:57Z</time>
      </trkpt>
      <trkpt lat="44.43541" lon="5.91797">
        <ele>832</ele>
        <time>2019-06-25T08:31:58Z</time>
      </trkpt>
      <trkpt lat="44.43544" lon="5.91799">
        <ele>832</ele>
        <time>2019-06-25T08:31:59Z</time>
      </trkpt>
      <trkpt lat="44.43547" lon="5.918">
        <ele>832</ele>
        <time>2019-06-25T08:32:00Z</time>
      </trkpt>
      <trkpt lat="44.43549" lon="5.91802">
        <ele>832</ele>
        <time>2019-06-25T08:32:01Z</time>
      </trkpt>
      <trkpt lat="44.43551" lon="5.91803">
        <ele>832</ele>
        <time>2019-06-25T08:32:02Z</time>
      </trkpt>
      <trkpt lat="44.43554" lon="5.91805">
        <ele>833</ele>
        <time>2019-06-25T08:32:03Z</time>
      </trkpt>
      <trkpt lat="44.43555" lon="5.91807">
        <ele>833</ele>
        <time>2019-06-25T08:32:04Z</time>
      </trkpt>
      <trkpt lat="44.43558" lon="5.91808">
        <ele>834</ele>
        <time>2019-06-25T08:32:05Z</time>
      </trkpt>
      <trkpt lat="44.4356" lon="5.91809">
        <ele>834</ele>
        <time>2019-06-25T08:32:06Z</time>
      </trkpt>
      <trkpt lat="44.43562" lon="5.9181">
        <ele>834</ele>
        <time>2019-06-25T08:32:07Z</time>
      </trkpt>
      <trkpt lat="44.43565" lon="5.91811">
        <ele>834</ele>
        <time>2019-06-25T08:32:08Z</time>
      </trkpt>
      <trkpt lat="44.43568" lon="5.91812">
        <ele>834</ele>
        <time>2019-06-25T08:32:09Z</time>
      </trkpt>
      <trkpt lat="44.4357" lon="5.91814">
        <ele>835</ele>
        <time>2019-06-25T08:32:10Z</time>
      </trkpt>
      <trkpt lat="44.43571" lon="5.91815">
        <ele>835</ele>
        <time>2019-06-25T08:32:11Z</time>
      </trkpt>
      <trkpt lat="44.43573" lon="5.91816">
        <ele>836</ele>
        <time>2019-06-25T08:32:12Z</time>
      </trkpt>
      <trkpt lat="44.43576" lon="5.91817">
        <ele>836</ele>
        <time>2019-06-25T08:32:13Z</time>
      </trkpt>
      <trkpt lat="44.43578" lon="5.91818">
        <ele>837</ele>
        <time>2019-06-25T08:32:14Z</time>
      </trkpt>
      <trkpt lat="44.43579" lon="5.91819">
        <ele>837</ele>
        <time>2019-06-25T08:32:15Z</time>
      </trkpt>
      <trkpt lat="44.43582" lon="5.9182">
        <ele>838</ele>
        <time>2019-06-25T08:32:16Z</time>
      </trkpt>
      <trkpt lat="44.43585" lon="5.9182">
        <ele>838</ele>
        <time>2019-06-25T08:32:17Z</time>
      </trkpt>
      <trkpt lat="44.43588" lon="5.9182">
        <ele>838</ele>
        <time>2019-06-25T08:32:18Z</time>
      </trkpt>
      <trkpt lat="44.43591" lon="5.9182">
        <ele>838</ele>
        <time>2019-06-25T08:32:19Z</time>
      </trkpt>
      <trkpt lat="44.43594" lon="5.9182">
        <ele>839</ele>
        <time>2019-06-25T08:32:20Z</time>
      </trkpt>
      <trkpt lat="44.43597" lon="5.9182">
        <ele>839</ele>
        <time>2019-06-25T08:32:21Z</time>
      </trkpt>
      <trkpt lat="44.43601" lon="5.91819">
        <ele>839</ele>
        <time>2019-06-25T08:32:22Z</time>
      </trkpt>
      <trkpt lat="44.43604" lon="5.91818">
        <ele>839</ele>
        <time>2019-06-25T08:32:23Z</time>
      </trkpt>
      <trkpt lat="44.43607" lon="5.91816">
        <ele>839</ele>
        <time>2019-06-25T08:32:24Z</time>
      </trkpt>
      <trkpt lat="44.4361" lon="5.91815">
        <ele>839</ele>
        <time>2019-06-25T08:32:25Z</time>
      </trkpt>
      <trkpt lat="44.43613" lon="5.91812">
        <ele>839</ele>
        <time>2019-06-25T08:32:26Z</time>
      </trkpt>
      <trkpt lat="44.43615" lon="5.9181">
        <ele>839</ele>
        <time>2019-06-25T08:32:27Z</time>
      </trkpt>
      <trkpt lat="44.43618" lon="5.91809">
        <ele>839</ele>
        <time>2019-06-25T08:32:28Z</time>
      </trkpt>
      <trkpt lat="44.4362" lon="5.91808">
        <ele>839</ele>
        <time>2019-06-25T08:32:29Z</time>
      </trkpt>
      <trkpt lat="44.43623" lon="5.91807">
        <ele>839</ele>
        <time>2019-06-25T08:32:30Z</time>
      </trkpt>
      <trkpt lat="44.43625" lon="5.91808">
        <ele>839</ele>
        <time>2019-06-25T08:32:31Z</time>
      </trkpt>
      <trkpt lat="44.43628" lon="5.91808">
        <ele>840</ele>
        <time>2019-06-25T08:32:32Z</time>
      </trkpt>
      <trkpt lat="44.4363" lon="5.91808">
        <ele>840</ele>
        <time>2019-06-25T08:32:33Z</time>
      </trkpt>
      <trkpt lat="44.43633" lon="5.91808">
        <ele>840</ele>
        <time>2019-06-25T08:32:34Z</time>
      </trkpt>
      <trkpt lat="44.43635" lon="5.91808">
        <ele>840</ele>
        <time>2019-06-25T08:32:35Z</time>
      </trkpt>
      <trkpt lat="44.43638" lon="5.91807">
        <ele>840</ele>
        <time>2019-06-25T08:32:36Z</time>
      </trkpt>
      <trkpt lat="44.4364" lon="5.91805">
        <ele>840</ele>
        <time>2019-06-25T08:32:37Z</time>
      </trkpt>
      <trkpt lat="44.43643" lon="5.91803">
        <ele>840</ele>
        <time>2019-06-25T08:32:38Z</time>
      </trkpt>
      <trkpt lat="44.43645" lon="5.91801">
        <ele>840</ele>
        <time>2019-06-25T08:32:39Z</time>
      </trkpt>
      <trkpt lat="44.43647" lon="5.91797">
        <ele>840</ele>
        <time>2019-06-25T08:32:40Z</time>
      </trkpt>
      <trkpt lat="44.43649" lon="5.91794">
        <ele>840</ele>
        <time>2019-06-25T08:32:41Z</time>
      </trkpt>
      <trkpt lat="44.43651" lon="5.9179">
        <ele>840</ele>
        <time>2019-06-25T08:32:42Z</time>
      </trkpt>
      <trkpt lat="44.43652" lon="5.91786">
        <ele>840</ele>
        <time>2019-06-25T08:32:43Z</time>
      </trkpt>
      <trkpt lat="44.43653" lon="5.91782">
        <ele>840</ele>
        <time>2019-06-25T08:32:44Z</time>
      </trkpt>
      <trkpt lat="44.43655" lon="5.91777">
        <ele>840</ele>
        <time>2019-06-25T08:32:45Z</time>
      </trkpt>
      <trkpt lat="44.43656" lon="5.91772">
        <ele>840</ele>
        <time>2019-06-25T08:32:46Z</time>
      </trkpt>
      <trkpt lat="44.43658" lon="5.91768">
        <ele>840</ele>
        <time>2019-06-25T08:32:47Z</time>
      </trkpt>
      <trkpt lat="44.43659" lon="5.91764">
        <ele>841</ele>
        <time>2019-06-25T08:32:48Z</time>
      </trkpt>
      <trkpt lat="44.43661" lon="5.9176">
        <ele>841</ele>
        <time>2019-06-25T08:32:49Z</time>
      </trkpt>
      <trkpt lat="44.43663" lon="5.91755">
        <ele>841</ele>
        <time>2019-06-25T08:32:50Z</time>
      </trkpt>
      <trkpt lat="44.43665" lon="5.91751">
        <ele>841</ele>
        <time>2019-06-25T08:32:51Z</time>
      </trkpt>
      <trkpt lat="44.43667" lon="5.91747">
        <ele>842</ele>
        <time>2019-06-25T08:32:52Z</time>
      </trkpt>
      <trkpt lat="44.43669" lon="5.91742">
        <ele>842</ele>
        <time>2019-06-25T08:32:53Z</time>
      </trkpt>
      <trkpt lat="44.43671" lon="5.91739">
        <ele>842</ele>
        <time>2019-06-25T08:32:54Z</time>
      </trkpt>
      <trkpt lat="44.43673" lon="5.91735">
        <ele>842</ele>
        <time>2019-06-25T08:32:55Z</time>
      </trkpt>
      <trkpt lat="44.43675" lon="5.91731">
        <ele>842</ele>
        <time>2019-06-25T08:32:56Z</time>
      </trkpt>
      <trkpt lat="44.43678" lon="5.91727">
        <ele>842</ele>
        <time>2019-06-25T08:32:57Z</time>
      </trkpt>
      <trkpt lat="44.4368" lon="5.91724">
        <ele>842</ele>
        <time>2019-06-25T08:32:58Z</time>
      </trkpt>
      <trkpt lat="44.43683" lon="5.91721">
        <ele>843</ele>
        <time>2019-06-25T08:32:59Z</time>
      </trkpt>
      <trkpt lat="44.43686" lon="5.91718">
        <ele>843</ele>
        <time>2019-06-25T08:33:00Z</time>
      </trkpt>
      <trkpt lat="44.43689" lon="5.91715">
        <ele>843</ele>
        <time>2019-06-25T08:33:01Z</time>
      </trkpt>
      <trkpt lat="44.43692" lon="5.91713">
        <ele>843</ele>
        <time>2019-06-25T08:33:02Z</time>
      </trkpt>
      <trkpt lat="44.43695" lon="5.91711">
        <ele>843</ele>
        <time>2019-06-25T08:33:03Z</time>
      </trkpt>
      <trkpt lat="44.43699" lon="5.91712">
        <ele>843</ele>
        <time>2019-06-25T08:33:04Z</time>
      </trkpt>
      <trkpt lat="44.43703" lon="5.91713">
        <ele>843</ele>
        <time>2019-06-25T08:33:05Z</time>
      </trkpt>
      <trkpt lat="44.43706" lon="5.91716">
        <ele>843</ele>
        <time>2019-06-25T08:33:06Z</time>
      </trkpt>
      <trkpt lat="44.43709" lon="5.9172">
        <ele>843</ele>
        <time>2019-06-25T08:33:07Z</time>
      </trkpt>
      <trkpt lat="44.4371" lon="5.91725">
        <ele>843</ele>
        <time>2019-06-25T08:33:08Z</time>
      </trkpt>
      <trkpt lat="44.43711" lon="5.9173">
        <ele>843</ele>
        <time>2019-06-25T08:33:09Z</time>
      </trkpt>
      <trkpt lat="44.43712" lon="5.91734">
        <ele>843</ele>
        <time>2019-06-25T08:33:10Z</time>
      </trkpt>
      <trkpt lat="44.43713" lon="5.91739">
        <ele>843</ele>
        <time>2019-06-25T08:33:11Z</time>
      </trkpt>
      <trkpt lat="44.43714" lon="5.91743">
        <ele>843</ele>
        <time>2019-06-25T08:33:12Z</time>
      </trkpt>
      <trkpt lat="44.43715" lon="5.91748">
        <ele>843</ele>
        <time>2019-06-25T08:33:13Z</time>
      </trkpt>
      <trkpt lat="44.43716" lon="5.91752">
        <ele>843</ele>
        <time>2019-06-25T08:33:14Z</time>
      </trkpt>
      <trkpt lat="44.43718" lon="5.91757">
        <ele>843</ele>
        <time>2019-06-25T08:33:15Z</time>
      </trkpt>
      <trkpt lat="44.4372" lon="5.91761">
        <ele>843</ele>
        <time>2019-06-25T08:33:16Z</time>
      </trkpt>
      <trkpt lat="44.43723" lon="5.91764">
        <ele>843</ele>
        <time>2019-06-25T08:33:17Z</time>
      </trkpt>
      <trkpt lat="44.43727" lon="5.91766">
        <ele>843</ele>
        <time>2019-06-25T08:33:18Z</time>
      </trkpt>
      <trkpt lat="44.43731" lon="5.91767">
        <ele>843</ele>
        <time>2019-06-25T08:33:19Z</time>
      </trkpt>
      <trkpt lat="44.43735" lon="5.91766">
        <ele>843</ele>
        <time>2019-06-25T08:33:20Z</time>
      </trkpt>
      <trkpt lat="44.43739" lon="5.91765">
        <ele>843</ele>
        <time>2019-06-25T08:33:21Z</time>
      </trkpt>
      <trkpt lat="44.43742" lon="5.91763">
        <ele>843</ele>
        <time>2019-06-25T08:33:22Z</time>
      </trkpt>
      <trkpt lat="44.43746" lon="5.9176">
        <ele>843</ele>
        <time>2019-06-25T08:33:23Z</time>
      </trkpt>
      <trkpt lat="44.4375" lon="5.91759">
        <ele>843</ele>
        <time>2019-06-25T08:33:24Z</time>
      </trkpt>
      <trkpt lat="44.43754" lon="5.91757">
        <ele>843</ele>
        <time>2019-06-25T08:33:25Z</time>
      </trkpt>
      <trkpt lat="44.43757" lon="5.91755">
        <ele>843</ele>
        <time>2019-06-25T08:33:26Z</time>
      </trkpt>
      <trkpt lat="44.43761" lon="5.91754">
        <ele>843</ele>
        <time>2019-06-25T08:33:27Z</time>
      </trkpt>
      <trkpt lat="44.43764" lon="5.91752">
        <ele>843</ele>
        <time>2019-06-25T08:33:28Z</time>
      </trkpt>
      <trkpt lat="44.43768" lon="5.9175">
        <ele>843</ele>
        <time>2019-06-25T08:33:29Z</time>
      </trkpt>
      <trkpt lat="44.43771" lon="5.91748">
        <ele>844</ele>
        <time>2019-06-25T08:33:30Z</time>
      </trkpt>
      <trkpt lat="44.43774" lon="5.91747">
        <ele>844</ele>
        <time>2019-06-25T08:33:31Z</time>
      </trkpt>
      <trkpt lat="44.43778" lon="5.91744">
        <ele>844</ele>
        <time>2019-06-25T08:33:32Z</time>
      </trkpt>
      <trkpt lat="44.43781" lon="5.91742">
        <ele>844</ele>
        <time>2019-06-25T08:33:33Z</time>
      </trkpt>
      <trkpt lat="44.43784" lon="5.91739">
        <ele>845</ele>
        <time>2019-06-25T08:33:34Z</time>
      </trkpt>
      <trkpt lat="44.43787" lon="5.91737">
        <ele>845</ele>
        <time>2019-06-25T08:33:35Z</time>
      </trkpt>
      <trkpt lat="44.4379" lon="5.91734">
        <ele>845</ele>
        <time>2019-06-25T08:33:36Z</time>
      </trkpt>
      <trkpt lat="44.43793" lon="5.91732">
        <ele>845</ele>
        <time>2019-06-25T08:33:37Z</time>
      </trkpt>
      <trkpt lat="44.43796" lon="5.91729">
        <ele>845</ele>
        <time>2019-06-25T08:33:38Z</time>
      </trkpt>
      <trkpt lat="44.43799" lon="5.91727">
        <ele>845</ele>
        <time>2019-06-25T08:33:39Z</time>
      </trkpt>
      <trkpt lat="44.43801" lon="5.91724">
        <ele>845</ele>
        <time>2019-06-25T08:33:40Z</time>
      </trkpt>
      <trkpt lat="44.43804" lon="5.91722">
        <ele>846</ele>
        <time>2019-06-25T08:33:41Z</time>
      </trkpt>
      <trkpt lat="44.43807" lon="5.9172">
        <ele>846</ele>
        <time>2019-06-25T08:33:42Z</time>
      </trkpt>
      <trkpt lat="44.4381" lon="5.91717">
        <ele>846</ele>
        <time>2019-06-25T08:33:43Z</time>
      </trkpt>
      <trkpt lat="44.43812" lon="5.91715">
        <ele>846</ele>
        <time>2019-06-25T08:33:44Z</time>
      </trkpt>
      <trkpt lat="44.43815" lon="5.91712">
        <ele>846</ele>
        <time>2019-06-25T08:33:45Z</time>
      </trkpt>
      <trkpt lat="44.43817" lon="5.9171">
        <ele>847</ele>
        <time>2019-06-25T08:33:46Z</time>
      </trkpt>
      <trkpt lat="44.4382" lon="5.91708">
        <ele>847</ele>
        <time>2019-06-25T08:33:47Z</time>
      </trkpt>
      <trkpt lat="44.43822" lon="5.91706">
        <ele>847</ele>
        <time>2019-06-25T08:33:48Z</time>
      </trkpt>
      <trkpt lat="44.43825" lon="5.91704">
        <ele>847</ele>
        <time>2019-06-25T08:33:49Z</time>
      </trkpt>
      <trkpt lat="44.43827" lon="5.91701">
        <ele>847</ele>
        <time>2019-06-25T08:33:50Z</time>
      </trkpt>
      <trkpt lat="44.43829" lon="5.91699">
        <ele>848</ele>
        <time>2019-06-25T08:33:51Z</time>
      </trkpt>
      <trkpt lat="44.43832" lon="5.91697">
        <ele>848</ele>
        <time>2019-06-25T08:33:52Z</time>
      </trkpt>
      <trkpt lat="44.43834" lon="5.91694">
        <ele>848</ele>
        <time>2019-06-25T08:33:53Z</time>
      </trkpt>
      <trkpt lat="44.43837" lon="5.91692">
        <ele>848</ele>
        <time>2019-06-25T08:33:54Z</time>
      </trkpt>
      <trkpt lat="44.43839" lon="5.9169">
        <ele>849</ele>
        <time>2019-06-25T08:33:55Z</time>
      </trkpt>
      <trkpt lat="44.43842" lon="5.91688">
        <ele>849</ele>
        <time>2019-06-25T08:33:56Z</time>
      </trkpt>
      <trkpt lat="44.43844" lon="5.91686">
        <ele>849</ele>
        <time>2019-06-25T08:33:57Z</time>
      </trkpt>
      <trkpt lat="44.43847" lon="5.91683">
        <ele>849</ele>
        <time>2019-06-25T08:33:58Z</time>
      </trkpt>
      <trkpt lat="44.43849" lon="5.91681">
        <ele>849</ele>
        <time>2019-06-25T08:33:59Z</time>
      </trkpt>
      <trkpt lat="44.43851" lon="5.91679">
        <ele>849</ele>
        <time>2019-06-25T08:34:00Z</time>
      </trkpt>
      <trkpt lat="44.43853" lon="5.91677">
        <ele>849</ele>
        <time>2019-06-25T08:34:01Z</time>
      </trkpt>
      <trkpt lat="44.43856" lon="5.91675">
        <ele>850</ele>
        <time>2019-06-25T08:34:02Z</time>
      </trkpt>
      <trkpt lat="44.43858" lon="5.91673">
        <ele>850</ele>
        <time>2019-06-25T08:34:03Z</time>
      </trkpt>
      <trkpt lat="44.4386" lon="5.91671">
        <ele>850</ele>
        <time>2019-06-25T08:34:04Z</time>
      </trkpt>
      <trkpt lat="44.43862" lon="5.91669">
        <ele>850</ele>
        <time>2019-06-25T08:34:05Z</time>
      </trkpt>
      <trkpt lat="44.43864" lon="5.91667">
        <ele>851</ele>
        <time>2019-06-25T08:34:06Z</time>
      </trkpt>
      <trkpt lat="44.43866" lon="5.91665">
        <ele>851</ele>
        <time>2019-06-25T08:34:07Z</time>
      </trkpt>
      <trkpt lat="44.43869" lon="5.91663">
        <ele>851</ele>
        <time>2019-06-25T08:34:08Z</time>
      </trkpt>
      <trkpt lat="44.43871" lon="5.91662">
        <ele>851</ele>
        <time>2019-06-25T08:34:09Z</time>
      </trkpt>
      <trkpt lat="44.43873" lon="5.91659">
        <ele>852</ele>
        <time>2019-06-25T08:34:10Z</time>
      </trkpt>
      <trkpt lat="44.43875" lon="5.91657">
        <ele>852</ele>
        <time>2019-06-25T08:34:11Z</time>
      </trkpt>
      <trkpt lat="44.43877" lon="5.91655">
        <ele>852</ele>
        <time>2019-06-25T08:34:12Z</time>
      </trkpt>
      <trkpt lat="44.4388" lon="5.91653">
        <ele>852</ele>
        <time>2019-06-25T08:34:13Z</time>
      </trkpt>
      <trkpt lat="44.43882" lon="5.91651">
        <ele>852</ele>
        <time>2019-06-25T08:34:14Z</time>
      </trkpt>
      <trkpt lat="44.43884" lon="5.91649">
        <ele>852</ele>
        <time>2019-06-25T08:34:15Z</time>
      </trkpt>
      <trkpt lat="44.43886" lon="5.91647">
        <ele>853</ele>
        <time>2019-06-25T08:34:16Z</time>
      </trkpt>
      <trkpt lat="44.43888" lon="5.91645">
        <ele>853</ele>
        <time>2019-06-25T08:34:17Z</time>
      </trkpt>
      <trkpt lat="44.43891" lon="5.91643">
        <ele>853</ele>
        <time>2019-06-25T08:34:18Z</time>
      </trkpt>
      <trkpt lat="44.43893" lon="5.91641">
        <ele>853</ele>
        <time>2019-06-25T08:34:19Z</time>
      </trkpt>
      <trkpt lat="44.43895" lon="5.91639">
        <ele>853</ele>
        <time>2019-06-25T08:34:20Z</time>
      </trkpt>
      <trkpt lat="44.43898" lon="5.91637">
        <ele>853</ele>
        <time>2019-06-25T08:34:21Z</time>
      </trkpt>
      <trkpt lat="44.439" lon="5.91635">
        <ele>854</ele>
        <time>2019-06-25T08:34:22Z</time>
      </trkpt>
      <trkpt lat="44.43902" lon="5.91633">
        <ele>854</ele>
        <time>2019-06-25T08:34:23Z</time>
      </trkpt>
      <trkpt lat="44.43904" lon="5.9163">
        <ele>854</ele>
        <time>2019-06-25T08:34:24Z</time>
      </trkpt>
      <trkpt lat="44.43906" lon="5.91627">
        <ele>854</ele>
        <time>2019-06-25T08:34:25Z</time>
      </trkpt>
      <trkpt lat="44.43908" lon="5.91624">
        <ele>855</ele>
        <time>2019-06-25T08:34:26Z</time>
      </trkpt>
      <trkpt lat="44.4391" lon="5.91622">
        <ele>855</ele>
        <time>2019-06-25T08:34:27Z</time>
      </trkpt>
      <trkpt lat="44.43912" lon="5.91619">
        <ele>855</ele>
        <time>2019-06-25T08:34:28Z</time>
      </trkpt>
      <trkpt lat="44.43914" lon="5.91616">
        <ele>855</ele>
        <time>2019-06-25T08:34:29Z</time>
      </trkpt>
      <trkpt lat="44.43916" lon="5.91613">
        <ele>855</ele>
        <time>2019-06-25T08:34:30Z</time>
      </trkpt>
      <trkpt lat="44.43918" lon="5.9161">
        <ele>856</ele>
        <time>2019-06-25T08:34:31Z</time>
      </trkpt>
      <trkpt lat="44.4392" lon="5.91607">
        <ele>856</ele>
        <time>2019-06-25T08:34:32Z</time>
      </trkpt>
      <trkpt lat="44.43922" lon="5.91604">
        <ele>856</ele>
        <time>2019-06-25T08:34:33Z</time>
      </trkpt>
      <trkpt lat="44.43924" lon="5.916">
        <ele>856</ele>
        <time>2019-06-25T08:34:34Z</time>
      </trkpt>
      <trkpt lat="44.43926" lon="5.91597">
        <ele>857</ele>
        <time>2019-06-25T08:34:35Z</time>
      </trkpt>
      <trkpt lat="44.43928" lon="5.91593">
        <ele>857</ele>
        <time>2019-06-25T08:34:36Z</time>
      </trkpt>
      <trkpt lat="44.4393" lon="5.9159">
        <ele>857</ele>
        <time>2019-06-25T08:34:37Z</time>
      </trkpt>
      <trkpt lat="44.43932" lon="5.91586">
        <ele>858</ele>
        <time>2019-06-25T08:34:38Z</time>
      </trkpt>
      <trkpt lat="44.43933" lon="5.91583">
        <ele>858</ele>
        <time>2019-06-25T08:34:39Z</time>
      </trkpt>
      <trkpt lat="44.43935" lon="5.9158">
        <ele>858</ele>
        <time>2019-06-25T08:34:40Z</time>
      </trkpt>
      <trkpt lat="44.43937" lon="5.91576">
        <ele>859</ele>
        <time>2019-06-25T08:34:41Z</time>
      </trkpt>
      <trkpt lat="44.43938" lon="5.91573">
        <ele>859</ele>
        <time>2019-06-25T08:34:42Z</time>
      </trkpt>
      <trkpt lat="44.4394" lon="5.9157">
        <ele>859</ele>
        <time>2019-06-25T08:34:43Z</time>
      </trkpt>
      <trkpt lat="44.43941" lon="5.91566">
        <ele>859</ele>
        <time>2019-06-25T08:34:44Z</time>
      </trkpt>
      <trkpt lat="44.43943" lon="5.91563">
        <ele>860</ele>
        <time>2019-06-25T08:34:45Z</time>
      </trkpt>
      <trkpt lat="44.43944" lon="5.9156">
        <ele>860</ele>
        <time>2019-06-25T08:34:46Z</time>
      </trkpt>
      <trkpt lat="44.43946" lon="5.91556">
        <ele>860</ele>
        <time>2019-06-25T08:34:47Z</time>
      </trkpt>
      <trkpt lat="44.43948" lon="5.91553">
        <ele>861</ele>
        <time>2019-06-25T08:34:48Z</time>
      </trkpt>
      <trkpt lat="44.4395" lon="5.9155">
        <ele>861</ele>
        <time>2019-06-25T08:34:49Z</time>
      </trkpt>
      <trkpt lat="44.43951" lon="5.91546">
        <ele>861</ele>
        <time>2019-06-25T08:34:50Z</time>
      </trkpt>
      <trkpt lat="44.43953" lon="5.91543">
        <ele>862</ele>
        <time>2019-06-25T08:34:51Z</time>
      </trkpt>
      <trkpt lat="44.43955" lon="5.9154">
        <ele>862</ele>
        <time>2019-06-25T08:34:52Z</time>
      </trkpt>
      <trkpt lat="44.43956" lon="5.91537">
        <ele>862</ele>
        <time>2019-06-25T08:34:53Z</time>
      </trkpt>
      <trkpt lat="44.43958" lon="5.91533">
        <ele>862</ele>
        <time>2019-06-25T08:34:54Z</time>
      </trkpt>
      <trkpt lat="44.43959" lon="5.9153">
        <ele>862</ele>
        <time>2019-06-25T08:34:55Z</time>
      </trkpt>
      <trkpt lat="44.43961" lon="5.91526">
        <ele>862</ele>
        <time>2019-06-25T08:34:56Z</time>
      </trkpt>
      <trkpt lat="44.43962" lon="5.91523">
        <ele>862</ele>
        <time>2019-06-25T08:34:57Z</time>
      </trkpt>
      <trkpt lat="44.43964" lon="5.91519">
        <ele>862</ele>
        <time>2019-06-25T08:34:58Z</time>
      </trkpt>
      <trkpt lat="44.43966" lon="5.91515">
        <ele>862</ele>
        <time>2019-06-25T08:34:59Z</time>
      </trkpt>
      <trkpt lat="44.43967" lon="5.91512">
        <ele>862</ele>
        <time>2019-06-25T08:35:00Z</time>
      </trkpt>
      <trkpt lat="44.43969" lon="5.91508">
        <ele>862</ele>
        <time>2019-06-25T08:35:01Z</time>
      </trkpt>
      <trkpt lat="44.4397" lon="5.91504">
        <ele>862</ele>
        <time>2019-06-25T08:35:02Z</time>
      </trkpt>
      <trkpt lat="44.43972" lon="5.915">
        <ele>862</ele>
        <time>2019-06-25T08:35:03Z</time>
      </trkpt>
      <trkpt lat="44.43974" lon="5.91497">
        <ele>862</ele>
        <time>2019-06-25T08:35:04Z</time>
      </trkpt>
      <trkpt lat="44.43975" lon="5.91493">
        <ele>862</ele>
        <time>2019-06-25T08:35:05Z</time>
      </trkpt>
      <trkpt lat="44.43977" lon="5.91489">
        <ele>862</ele>
        <time>2019-06-25T08:35:06Z</time>
      </trkpt>
      <trkpt lat="44.43979" lon="5.91485">
        <ele>862</ele>
        <time>2019-06-25T08:35:07Z</time>
      </trkpt>
      <trkpt lat="44.43981" lon="5.91482">
        <ele>862</ele>
        <time>2019-06-25T08:35:08Z</time>
      </trkpt>
      <trkpt lat="44.43982" lon="5.91478">
        <ele>862</ele>
        <time>2019-06-25T08:35:09Z</time>
      </trkpt>
      <trkpt lat="44.43984" lon="5.91474">
        <ele>862</ele>
        <time>2019-06-25T08:35:10Z</time>
      </trkpt>
      <trkpt lat="44.43986" lon="5.9147">
        <ele>862</ele>
        <time>2019-06-25T08:35:11Z</time>
      </trkpt>
      <trkpt lat="44.43988" lon="5.91467">
        <ele>862</ele>
        <time>2019-06-25T08:35:12Z</time>
      </trkpt>
      <trkpt lat="44.4399" lon="5.91464">
        <ele>862</ele>
        <time>2019-06-25T08:35:13Z</time>
      </trkpt>
      <trkpt lat="44.43992" lon="5.91461">
        <ele>862</ele>
        <time>2019-06-25T08:35:14Z</time>
      </trkpt>
      <trkpt lat="44.43995" lon="5.91458">
        <ele>862</ele>
        <time>2019-06-25T08:35:15Z</time>
      </trkpt>
      <trkpt lat="44.43997" lon="5.91454">
        <ele>863</ele>
        <time>2019-06-25T08:35:16Z</time>
      </trkpt>
      <trkpt lat="44.43999" lon="5.91451">
        <ele>863</ele>
        <time>2019-06-25T08:35:17Z</time>
      </trkpt>
      <trkpt lat="44.44001" lon="5.91448">
        <ele>863</ele>
        <time>2019-06-25T08:35:18Z</time>
      </trkpt>
      <trkpt lat="44.44003" lon="5.91446">
        <ele>863</ele>
        <time>2019-06-25T08:35:19Z</time>
      </trkpt>
      <trkpt lat="44.44006" lon="5.91443">
        <ele>863</ele>
        <time>2019-06-25T08:35:20Z</time>
      </trkpt>
      <trkpt lat="44.44008" lon="5.91441">
        <ele>863</ele>
        <time>2019-06-25T08:35:21Z</time>
      </trkpt>
      <trkpt lat="44.4401" lon="5.91438">
        <ele>864</ele>
        <time>2019-06-25T08:35:22Z</time>
      </trkpt>
      <trkpt lat="44.44012" lon="5.91436">
        <ele>864</ele>
        <time>2019-06-25T08:35:23Z</time>
      </trkpt>
      <trkpt lat="44.44014" lon="5.91434">
        <ele>864</ele>
        <time>2019-06-25T08:35:24Z</time>
      </trkpt>
      <trkpt lat="44.44016" lon="5.91432">
        <ele>864</ele>
        <time>2019-06-25T08:35:25Z</time>
      </trkpt>
      <trkpt lat="44.44019" lon="5.9143">
        <ele>864</ele>
        <time>2019-06-25T08:35:26Z</time>
      </trkpt>
      <trkpt lat="44.44021" lon="5.91428">
        <ele>864</ele>
        <time>2019-06-25T08:35:27Z</time>
      </trkpt>
      <trkpt lat="44.44023" lon="5.91426">
        <ele>865</ele>
        <time>2019-06-25T08:35:28Z</time>
      </trkpt>
      <trkpt lat="44.44026" lon="5.91424">
        <ele>865</ele>
        <time>2019-06-25T08:35:29Z</time>
      </trkpt>
      <trkpt lat="44.44028" lon="5.91421">
        <ele>865</ele>
        <time>2019-06-25T08:35:30Z</time>
      </trkpt>
      <trkpt lat="44.4403" lon="5.91419">
        <ele>865</ele>
        <time>2019-06-25T08:35:31Z</time>
      </trkpt>
      <trkpt lat="44.44033" lon="5.91416">
        <ele>866</ele>
        <time>2019-06-25T08:35:32Z</time>
      </trkpt>
      <trkpt lat="44.44035" lon="5.91414">
        <ele>866</ele>
        <time>2019-06-25T08:35:33Z</time>
      </trkpt>
      <trkpt lat="44.44037" lon="5.91411">
        <ele>866</ele>
        <time>2019-06-25T08:35:34Z</time>
      </trkpt>
      <trkpt lat="44.44039" lon="5.91409">
        <ele>866</ele>
        <time>2019-06-25T08:35:35Z</time>
      </trkpt>
      <trkpt lat="44.44041" lon="5.91406">
        <ele>867</ele>
        <time>2019-06-25T08:35:36Z</time>
      </trkpt>
      <trkpt lat="44.44043" lon="5.91403">
        <ele>867</ele>
        <time>2019-06-25T08:35:37Z</time>
      </trkpt>
      <trkpt lat="44.44046" lon="5.914">
        <ele>867</ele>
        <time>2019-06-25T08:35:38Z</time>
      </trkpt>
      <trkpt lat="44.44048" lon="5.91397">
        <ele>867</ele>
        <time>2019-06-25T08:35:39Z</time>
      </trkpt>
      <trkpt lat="44.4405" lon="5.91394">
        <ele>867</ele>
        <time>2019-06-25T08:35:40Z</time>
      </trkpt>
      <trkpt lat="44.44052" lon="5.91391">
        <ele>868</ele>
        <time>2019-06-25T08:35:41Z</time>
      </trkpt>
      <trkpt lat="44.44054" lon="5.91387">
        <ele>868</ele>
        <time>2019-06-25T08:35:42Z</time>
      </trkpt>
      <trkpt lat="44.44056" lon="5.91384">
        <ele>868</ele>
        <time>2019-06-25T08:35:43Z</time>
      </trkpt>
      <trkpt lat="44.44058" lon="5.91381">
        <ele>868</ele>
        <time>2019-06-25T08:35:44Z</time>
      </trkpt>
      <trkpt lat="44.44059" lon="5.91377">
        <ele>868</ele>
        <time>2019-06-25T08:35:45Z</time>
      </trkpt>
      <trkpt lat="44.44061" lon="5.91373">
        <ele>869</ele>
        <time>2019-06-25T08:35:46Z</time>
      </trkpt>
      <trkpt lat="44.44063" lon="5.91369">
        <ele>869</ele>
        <time>2019-06-25T08:35:47Z</time>
      </trkpt>
      <trkpt lat="44.44064" lon="5.91366">
        <ele>869</ele>
        <time>2019-06-25T08:35:48Z</time>
      </trkpt>
      <trkpt lat="44.44066" lon="5.91362">
        <ele>869</ele>
        <time>2019-06-25T08:35:49Z</time>
      </trkpt>
      <trkpt lat="44.44068" lon="5.91358">
        <ele>869</ele>
        <time>2019-06-25T08:35:50Z</time>
      </trkpt>
      <trkpt lat="44.4407" lon="5.91355">
        <ele>869</ele>
        <time>2019-06-25T08:35:51Z</time>
      </trkpt>
      <trkpt lat="44.44072" lon="5.91351">
        <ele>869</ele>
        <time>2019-06-25T08:35:52Z</time>
      </trkpt>
      <trkpt lat="44.44074" lon="5.91348">
        <ele>869</ele>
        <time>2019-06-25T08:35:53Z</time>
      </trkpt>
      <trkpt lat="44.44077" lon="5.91346">
        <ele>869</ele>
        <time>2019-06-25T08:35:54Z</time>
      </trkpt>
      <trkpt lat="44.4408" lon="5.91344">
        <ele>869</ele>
        <time>2019-06-25T08:35:55Z</time>
      </trkpt>
      <trkpt lat="44.44084" lon="5.91343">
        <ele>869</ele>
        <time>2019-06-25T08:35:56Z</time>
      </trkpt>
      <trkpt lat="44.44087" lon="5.91342">
        <ele>869</ele>
        <time>2019-06-25T08:35:57Z</time>
      </trkpt>
      <trkpt lat="44.44091" lon="5.91342">
        <ele>869</ele>
        <time>2019-06-25T08:35:58Z</time>
      </trkpt>
      <trkpt lat="44.44094" lon="5.91342">
        <ele>869</ele>
        <time>2019-06-25T08:35:59Z</time>
      </trkpt>
      <trkpt lat="44.44098" lon="5.91342">
        <ele>869</ele>
        <time>2019-06-25T08:36:00Z</time>
      </trkpt>
      <trkpt lat="44.44101" lon="5.91342">
        <ele>869</ele>
        <time>2019-06-25T08:36:01Z</time>
      </trkpt>
      <trkpt lat="44.44104" lon="5.91341">
        <ele>869</ele>
        <time>2019-06-25T08:36:02Z</time>
      </trkpt>
      <trkpt lat="44.44107" lon="5.91341">
        <ele>869</ele>
        <time>2019-06-25T08:36:03Z</time>
      </trkpt>
      <trkpt lat="44.4411" lon="5.91341">
        <ele>870</ele>
        <time>2019-06-25T08:36:04Z</time>
      </trkpt>
      <trkpt lat="44.44113" lon="5.91341">
        <ele>870</ele>
        <time>2019-06-25T08:36:05Z</time>
      </trkpt>
      <trkpt lat="44.44116" lon="5.91341">
        <ele>870</ele>
        <time>2019-06-25T08:36:06Z</time>
      </trkpt>
      <trkpt lat="44.4412" lon="5.91341">
        <ele>870</ele>
        <time>2019-06-25T08:36:07Z</time>
      </trkpt>
      <trkpt lat="44.44123" lon="5.91341">
        <ele>871</ele>
        <time>2019-06-25T08:36:08Z</time>
      </trkpt>
      <trkpt lat="44.44126" lon="5.91342">
        <ele>871</ele>
        <time>2019-06-25T08:36:09Z</time>
      </trkpt>
      <trkpt lat="44.44129" lon="5.91342">
        <ele>871</ele>
        <time>2019-06-25T08:36:10Z</time>
      </trkpt>
      <trkpt lat="44.44132" lon="5.91343">
        <ele>871</ele>
        <time>2019-06-25T08:36:11Z</time>
      </trkpt>
      <trkpt lat="44.44135" lon="5.91343">
        <ele>871</ele>
        <time>2019-06-25T08:36:12Z</time>
      </trkpt>
      <trkpt lat="44.44138" lon="5.91344">
        <ele>872</ele>
        <time>2019-06-25T08:36:13Z</time>
      </trkpt>
      <trkpt lat="44.44141" lon="5.91344">
        <ele>872</ele>
        <time>2019-06-25T08:36:14Z</time>
      </trkpt>
      <trkpt lat="44.44144" lon="5.91344">
        <ele>872</ele>
        <time>2019-06-25T08:36:15Z</time>
      </trkpt>
      <trkpt lat="44.44147" lon="5.91345">
        <ele>872</ele>
        <time>2019-06-25T08:36:16Z</time>
      </trkpt>
      <trkpt lat="44.44149" lon="5.91345">
        <ele>872</ele>
        <time>2019-06-25T08:36:17Z</time>
      </trkpt>
      <trkpt lat="44.44152" lon="5.91346">
        <ele>873</ele>
        <time>2019-06-25T08:36:18Z</time>
      </trkpt>
      <trkpt lat="44.44156" lon="5.91346">
        <ele>873</ele>
        <time>2019-06-25T08:36:19Z</time>
      </trkpt>
      <trkpt lat="44.44158" lon="5.91347">
        <ele>873</ele>
        <time>2019-06-25T08:36:20Z</time>
      </trkpt>
      <trkpt lat="44.44161" lon="5.91347">
        <ele>873</ele>
        <time>2019-06-25T08:36:21Z</time>
      </trkpt>
      <trkpt lat="44.44164" lon="5.91348">
        <ele>874</ele>
        <time>2019-06-25T08:36:22Z</time>
      </trkpt>
      <trkpt lat="44.44167" lon="5.91348">
        <ele>874</ele>
        <time>2019-06-25T08:36:23Z</time>
      </trkpt>
      <trkpt lat="44.4417" lon="5.91348">
        <ele>874</ele>
        <time>2019-06-25T08:36:24Z</time>
      </trkpt>
      <trkpt lat="44.44173" lon="5.91349">
        <ele>874</ele>
        <time>2019-06-25T08:36:25Z</time>
      </trkpt>
      <trkpt lat="44.44176" lon="5.91349">
        <ele>874</ele>
        <time>2019-06-25T08:36:26Z</time>
      </trkpt>
      <trkpt lat="44.4418" lon="5.9135">
        <ele>875</ele>
        <time>2019-06-25T08:36:27Z</time>
      </trkpt>
      <trkpt lat="44.44183" lon="5.9135">
        <ele>875</ele>
        <time>2019-06-25T08:36:28Z</time>
      </trkpt>
      <trkpt lat="44.44186" lon="5.91351">
        <ele>875</ele>
        <time>2019-06-25T08:36:29Z</time>
      </trkpt>
      <trkpt lat="44.44189" lon="5.91351">
        <ele>875</ele>
        <time>2019-06-25T08:36:30Z</time>
      </trkpt>
      <trkpt lat="44.44193" lon="5.91352">
        <ele>875</ele>
        <time>2019-06-25T08:36:31Z</time>
      </trkpt>
      <trkpt lat="44.44196" lon="5.91352">
        <ele>875</ele>
        <time>2019-06-25T08:36:32Z</time>
      </trkpt>
      <trkpt lat="44.44199" lon="5.91353">
        <ele>876</ele>
        <time>2019-06-25T08:36:33Z</time>
      </trkpt>
      <trkpt lat="44.44202" lon="5.91353">
        <ele>876</ele>
        <time>2019-06-25T08:36:34Z</time>
      </trkpt>
      <trkpt lat="44.44206" lon="5.91354">
        <ele>876</ele>
        <time>2019-06-25T08:36:35Z</time>
      </trkpt>
      <trkpt lat="44.44209" lon="5.91355">
        <ele>876</ele>
        <time>2019-06-25T08:36:36Z</time>
      </trkpt>
      <trkpt lat="44.44212" lon="5.91356">
        <ele>876</ele>
        <time>2019-06-25T08:36:37Z</time>
      </trkpt>
      <trkpt lat="44.44215" lon="5.91357">
        <ele>876</ele>
        <time>2019-06-25T08:36:38Z</time>
      </trkpt>
      <trkpt lat="44.44218" lon="5.91358">
        <ele>877</ele>
        <time>2019-06-25T08:36:39Z</time>
      </trkpt>
      <trkpt lat="44.44221" lon="5.91359">
        <ele>877</ele>
        <time>2019-06-25T08:36:40Z</time>
      </trkpt>
      <trkpt lat="44.44224" lon="5.9136">
        <ele>877</ele>
        <time>2019-06-25T08:36:41Z</time>
      </trkpt>
      <trkpt lat="44.44227" lon="5.91361">
        <ele>877</ele>
        <time>2019-06-25T08:36:42Z</time>
      </trkpt>
      <trkpt lat="44.4423" lon="5.91361">
        <ele>877</ele>
        <time>2019-06-25T08:36:43Z</time>
      </trkpt>
      <trkpt lat="44.44233" lon="5.91362">
        <ele>877</ele>
        <time>2019-06-25T08:36:44Z</time>
      </trkpt>
      <trkpt lat="44.44236" lon="5.91363">
        <ele>878</ele>
        <time>2019-06-25T08:36:45Z</time>
      </trkpt>
      <trkpt lat="44.44239" lon="5.91363">
        <ele>878</ele>
        <time>2019-06-25T08:36:46Z</time>
      </trkpt>
      <trkpt lat="44.44241" lon="5.91365">
        <ele>878</ele>
        <time>2019-06-25T08:36:47Z</time>
      </trkpt>
      <trkpt lat="44.44244" lon="5.91366">
        <ele>878</ele>
        <time>2019-06-25T08:36:48Z</time>
      </trkpt>
      <trkpt lat="44.44247" lon="5.91367">
        <ele>878</ele>
        <time>2019-06-25T08:36:49Z</time>
      </trkpt>
      <trkpt lat="44.44249" lon="5.91368">
        <ele>879</ele>
        <time>2019-06-25T08:36:50Z</time>
      </trkpt>
      <trkpt lat="44.44252" lon="5.91369">
        <ele>879</ele>
        <time>2019-06-25T08:36:51Z</time>
      </trkpt>
      <trkpt lat="44.44255" lon="5.9137">
        <ele>879</ele>
        <time>2019-06-25T08:36:52Z</time>
      </trkpt>
      <trkpt lat="44.44257" lon="5.91371">
        <ele>879</ele>
        <time>2019-06-25T08:36:53Z</time>
      </trkpt>
      <trkpt lat="44.4426" lon="5.91372">
        <ele>879</ele>
        <time>2019-06-25T08:36:54Z</time>
      </trkpt>
      <trkpt lat="44.44262" lon="5.91372">
        <ele>879</ele>
        <time>2019-06-25T08:36:55Z</time>
      </trkpt>
      <trkpt lat="44.44265" lon="5.91373">
        <ele>880</ele>
        <time>2019-06-25T08:36:56Z</time>
      </trkpt>
      <trkpt lat="44.44267" lon="5.91374">
        <ele>880</ele>
        <time>2019-06-25T08:36:57Z</time>
      </trkpt>
      <trkpt lat="44.4427" lon="5.91375">
        <ele>880</ele>
        <time>2019-06-25T08:36:58Z</time>
      </trkpt>
      <trkpt lat="44.44273" lon="5.91376">
        <ele>880</ele>
        <time>2019-06-25T08:36:59Z</time>
      </trkpt>
      <trkpt lat="44.44275" lon="5.91377">
        <ele>881</ele>
        <time>2019-06-25T08:37:00Z</time>
      </trkpt>
      <trkpt lat="44.44278" lon="5.91378">
        <ele>881</ele>
        <time>2019-06-25T08:37:01Z</time>
      </trkpt>
      <trkpt lat="44.4428" lon="5.91379">
        <ele>881</ele>
        <time>2019-06-25T08:37:02Z</time>
      </trkpt>
      <trkpt lat="44.44282" lon="5.91379">
        <ele>881</ele>
        <time>2019-06-25T08:37:03Z</time>
      </trkpt>
      <trkpt lat="44.44285" lon="5.9138">
        <ele>882</ele>
        <time>2019-06-25T08:37:04Z</time>
      </trkpt>
      <trkpt lat="44.44287" lon="5.91381">
        <ele>882</ele>
        <time>2019-06-25T08:37:05Z</time>
      </trkpt>
      <trkpt lat="44.4429" lon="5.91382">
        <ele>882</ele>
        <time>2019-06-25T08:37:06Z</time>
      </trkpt>
      <trkpt lat="44.44292" lon="5.91383">
        <ele>882</ele>
        <time>2019-06-25T08:37:07Z</time>
      </trkpt>
      <trkpt lat="44.44295" lon="5.91384">
        <ele>883</ele>
        <time>2019-06-25T08:37:08Z</time>
      </trkpt>
      <trkpt lat="44.44297" lon="5.91384">
        <ele>883</ele>
        <time>2019-06-25T08:37:09Z</time>
      </trkpt>
      <trkpt lat="44.44299" lon="5.91385">
        <ele>883</ele>
        <time>2019-06-25T08:37:10Z</time>
      </trkpt>
      <trkpt lat="44.44302" lon="5.91386">
        <ele>883</ele>
        <time>2019-06-25T08:37:11Z</time>
      </trkpt>
      <trkpt lat="44.44304" lon="5.91387">
        <ele>883</ele>
        <time>2019-06-25T08:37:12Z</time>
      </trkpt>
      <trkpt lat="44.44307" lon="5.91388">
        <ele>883</ele>
        <time>2019-06-25T08:37:13Z</time>
      </trkpt>
      <trkpt lat="44.44309" lon="5.91388">
        <ele>884</ele>
        <time>2019-06-25T08:37:14Z</time>
      </trkpt>
      <trkpt lat="44.44311" lon="5.91389">
        <ele>884</ele>
        <time>2019-06-25T08:37:15Z</time>
      </trkpt>
      <trkpt lat="44.44313" lon="5.9139">
        <ele>884</ele>
        <time>2019-06-25T08:37:16Z</time>
      </trkpt>
      <trkpt lat="44.44315" lon="5.91391">
        <ele>884</ele>
        <time>2019-06-25T08:37:17Z</time>
      </trkpt>
      <trkpt lat="44.44318" lon="5.91392">
        <ele>884</ele>
        <time>2019-06-25T08:37:18Z</time>
      </trkpt>
      <trkpt lat="44.4432" lon="5.91392">
        <ele>884</ele>
        <time>2019-06-25T08:37:19Z</time>
      </trkpt>
      <trkpt lat="44.44322" lon="5.91393">
        <ele>885</ele>
        <time>2019-06-25T08:37:20Z</time>
      </trkpt>
      <trkpt lat="44.44324" lon="5.91394">
        <ele>885</ele>
        <time>2019-06-25T08:37:21Z</time>
      </trkpt>
      <trkpt lat="44.44326" lon="5.91394">
        <ele>885</ele>
        <time>2019-06-25T08:37:22Z</time>
      </trkpt>
      <trkpt lat="44.44329" lon="5.91395">
        <ele>885</ele>
        <time>2019-06-25T08:37:23Z</time>
      </trkpt>
      <trkpt lat="44.44331" lon="5.91396">
        <ele>885</ele>
        <time>2019-06-25T08:37:24Z</time>
      </trkpt>
      <trkpt lat="44.44334" lon="5.91397">
        <ele>885</ele>
        <time>2019-06-25T08:37:25Z</time>
      </trkpt>
      <trkpt lat="44.44336" lon="5.91397">
        <ele>886</ele>
        <time>2019-06-25T08:37:26Z</time>
      </trkpt>
      <trkpt lat="44.44338" lon="5.91398">
        <ele>886</ele>
        <time>2019-06-25T08:37:27Z</time>
      </trkpt>
      <trkpt lat="44.44341" lon="5.91399">
        <ele>886</ele>
        <time>2019-06-25T08:37:28Z</time>
      </trkpt>
      <trkpt lat="44.44343" lon="5.914">
        <ele>886</ele>
        <time>2019-06-25T08:37:29Z</time>
      </trkpt>
      <trkpt lat="44.44345" lon="5.91401">
        <ele>887</ele>
        <time>2019-06-25T08:37:30Z</time>
      </trkpt>
      <trkpt lat="44.44348" lon="5.91401">
        <ele>887</ele>
        <time>2019-06-25T08:37:31Z</time>
      </trkpt>
      <trkpt lat="44.4435" lon="5.91402">
        <ele>887</ele>
        <time>2019-06-25T08:37:32Z</time>
      </trkpt>
      <trkpt lat="44.44353" lon="5.91403">
        <ele>887</ele>
        <time>2019-06-25T08:37:33Z</time>
      </trkpt>
      <trkpt lat="44.44356" lon="5.91404">
        <ele>887</ele>
        <time>2019-06-25T08:37:34Z</time>
      </trkpt>
      <trkpt lat="44.44358" lon="5.91404">
        <ele>887</ele>
        <time>2019-06-25T08:37:35Z</time>
      </trkpt>
      <trkpt lat="44.44361" lon="5.91405">
        <ele>887</ele>
        <time>2019-06-25T08:37:36Z</time>
      </trkpt>
      <trkpt lat="44.44363" lon="5.91406">
        <ele>888</ele>
        <time>2019-06-25T08:37:37Z</time>
      </trkpt>
      <trkpt lat="44.44366" lon="5.91407">
        <ele>888</ele>
        <time>2019-06-25T08:37:38Z</time>
      </trkpt>
      <trkpt lat="44.44368" lon="5.91408">
        <ele>888</ele>
        <time>2019-06-25T08:37:39Z</time>
      </trkpt>
      <trkpt lat="44.44371" lon="5.91409">
        <ele>888</ele>
        <time>2019-06-25T08:37:40Z</time>
      </trkpt>
      <trkpt lat="44.44374" lon="5.9141">
        <ele>888</ele>
        <time>2019-06-25T08:37:41Z</time>
      </trkpt>
      <trkpt lat="44.44376" lon="5.91411">
        <ele>888</ele>
        <time>2019-06-25T08:37:42Z</time>
      </trkpt>
      <trkpt lat="44.44379" lon="5.91412">
        <ele>888</ele>
        <time>2019-06-25T08:37:43Z</time>
      </trkpt>
      <trkpt lat="44.44382" lon="5.91413">
        <ele>889</ele>
        <time>2019-06-25T08:37:44Z</time>
      </trkpt>
      <trkpt lat="44.44384" lon="5.91413">
        <ele>889</ele>
        <time>2019-06-25T08:37:45Z</time>
      </trkpt>
      <trkpt lat="44.44387" lon="5.91414">
        <ele>889</ele>
        <time>2019-06-25T08:37:46Z</time>
      </trkpt>
      <trkpt lat="44.44389" lon="5.91415">
        <ele>889</ele>
        <time>2019-06-25T08:37:47Z</time>
      </trkpt>
      <trkpt lat="44.44392" lon="5.91416">
        <ele>889</ele>
        <time>2019-06-25T08:37:48Z</time>
      </trkpt>
      <trkpt lat="44.44395" lon="5.91417">
        <ele>889</ele>
        <time>2019-06-25T08:37:49Z</time>
      </trkpt>
      <trkpt lat="44.44397" lon="5.91417">
        <ele>890</ele>
        <time>2019-06-25T08:37:50Z</time>
      </trkpt>
      <trkpt lat="44.444" lon="5.91418">
        <ele>890</ele>
        <time>2019-06-25T08:37:51Z</time>
      </trkpt>
      <trkpt lat="44.44402" lon="5.91419">
        <ele>890</ele>
        <time>2019-06-25T08:37:52Z</time>
      </trkpt>
      <trkpt lat="44.44405" lon="5.9142">
        <ele>890</ele>
        <time>2019-06-25T08:37:53Z</time>
      </trkpt>
      <trkpt lat="44.44407" lon="5.91421">
        <ele>890</ele>
        <time>2019-06-25T08:37:54Z</time>
      </trkpt>
      <trkpt lat="44.4441" lon="5.91422">
        <ele>891</ele>
        <time>2019-06-25T08:37:55Z</time>
      </trkpt>
      <trkpt lat="44.44412" lon="5.91423">
        <ele>891</ele>
        <time>2019-06-25T08:37:56Z</time>
      </trkpt>
      <trkpt lat="44.44415" lon="5.91424">
        <ele>891</ele>
        <time>2019-06-25T08:37:57Z</time>
      </trkpt>
      <trkpt lat="44.44418" lon="5.91424">
        <ele>891</ele>
        <time>2019-06-25T08:37:58Z</time>
      </trkpt>
      <trkpt lat="44.4442" lon="5.91424">
        <ele>891</ele>
        <time>2019-06-25T08:37:59Z</time>
      </trkpt>
      <trkpt lat="44.44423" lon="5.91425">
        <ele>891</ele>
        <time>2019-06-25T08:38:00Z</time>
      </trkpt>
      <trkpt lat="44.44426" lon="5.91425">
        <ele>892</ele>
        <time>2019-06-25T08:38:01Z</time>
      </trkpt>
      <trkpt lat="44.44429" lon="5.91425">
        <ele>892</ele>
        <time>2019-06-25T08:38:02Z</time>
      </trkpt>
      <trkpt lat="44.44431" lon="5.91425">
        <ele>892</ele>
        <time>2019-06-25T08:38:03Z</time>
      </trkpt>
      <trkpt lat="44.44434" lon="5.91424">
        <ele>892</ele>
        <time>2019-06-25T08:38:04Z</time>
      </trkpt>
      <trkpt lat="44.44437" lon="5.91424">
        <ele>892</ele>
        <time>2019-06-25T08:38:05Z</time>
      </trkpt>
      <trkpt lat="44.4444" lon="5.91424">
        <ele>892</ele>
        <time>2019-06-25T08:38:06Z</time>
      </trkpt>
      <trkpt lat="44.44443" lon="5.91423">
        <ele>892</ele>
        <time>2019-06-25T08:38:07Z</time>
      </trkpt>
      <trkpt lat="44.44445" lon="5.91422">
        <ele>892</ele>
        <time>2019-06-25T08:38:08Z</time>
      </trkpt>
      <trkpt lat="44.44448" lon="5.91421">
        <ele>893</ele>
        <time>2019-06-25T08:38:09Z</time>
      </trkpt>
      <trkpt lat="44.44451" lon="5.9142">
        <ele>893</ele>
        <time>2019-06-25T08:38:10Z</time>
      </trkpt>
      <trkpt lat="44.44454" lon="5.91419">
        <ele>893</ele>
        <time>2019-06-25T08:38:11Z</time>
      </trkpt>
      <trkpt lat="44.44457" lon="5.91418">
        <ele>893</ele>
        <time>2019-06-25T08:38:12Z</time>
      </trkpt>
      <trkpt lat="44.4446" lon="5.91417">
        <ele>893</ele>
        <time>2019-06-25T08:38:13Z</time>
      </trkpt>
      <trkpt lat="44.44463" lon="5.91416">
        <ele>893</ele>
        <time>2019-06-25T08:38:14Z</time>
      </trkpt>
      <trkpt lat="44.44466" lon="5.91415">
        <ele>893</ele>
        <time>2019-06-25T08:38:15Z</time>
      </trkpt>
      <trkpt lat="44.44469" lon="5.91414">
        <ele>894</ele>
        <time>2019-06-25T08:38:16Z</time>
      </trkpt>
      <trkpt lat="44.44472" lon="5.91413">
        <ele>894</ele>
        <time>2019-06-25T08:38:17Z</time>
      </trkpt>
      <trkpt lat="44.44475" lon="5.91412">
        <ele>894</ele>
        <time>2019-06-25T08:38:18Z</time>
      </trkpt>
      <trkpt lat="44.44477" lon="5.9141">
        <ele>894</ele>
        <time>2019-06-25T08:38:19Z</time>
      </trkpt>
      <trkpt lat="44.4448" lon="5.91409">
        <ele>894</ele>
        <time>2019-06-25T08:38:20Z</time>
      </trkpt>
      <trkpt lat="44.44483" lon="5.91408">
        <ele>894</ele>
        <time>2019-06-25T08:38:21Z</time>
      </trkpt>
      <trkpt lat="44.44486" lon="5.91407">
        <ele>894</ele>
        <time>2019-06-25T08:38:22Z</time>
      </trkpt>
      <trkpt lat="44.44489" lon="5.91407">
        <ele>894</ele>
        <time>2019-06-25T08:38:23Z</time>
      </trkpt>
      <trkpt lat="44.44491" lon="5.91406">
        <ele>895</ele>
        <time>2019-06-25T08:38:24Z</time>
      </trkpt>
      <trkpt lat="44.44494" lon="5.91405">
        <ele>895</ele>
        <time>2019-06-25T08:38:25Z</time>
      </trkpt>
      <trkpt lat="44.44497" lon="5.91404">
        <ele>895</ele>
        <time>2019-06-25T08:38:26Z</time>
      </trkpt>
      <trkpt lat="44.44499" lon="5.91403">
        <ele>895</ele>
        <time>2019-06-25T08:38:27Z</time>
      </trkpt>
      <trkpt lat="44.44502" lon="5.91402">
        <ele>895</ele>
        <time>2019-06-25T08:38:28Z</time>
      </trkpt>
      <trkpt lat="44.44504" lon="5.914">
        <ele>896</ele>
        <time>2019-06-25T08:38:29Z</time>
      </trkpt>
      <trkpt lat="44.44507" lon="5.91399">
        <ele>896</ele>
        <time>2019-06-25T08:38:30Z</time>
      </trkpt>
      <trkpt lat="44.44509" lon="5.91399">
        <ele>896</ele>
        <time>2019-06-25T08:38:31Z</time>
      </trkpt>
      <trkpt lat="44.44512" lon="5.91398">
        <ele>896</ele>
        <time>2019-06-25T08:38:32Z</time>
      </trkpt>
      <trkpt lat="44.44514" lon="5.91397">
        <ele>896</ele>
        <time>2019-06-25T08:38:33Z</time>
      </trkpt>
      <trkpt lat="44.44517" lon="5.91396">
        <ele>897</ele>
        <time>2019-06-25T08:38:34Z</time>
      </trkpt>
      <trkpt lat="44.44519" lon="5.91395">
        <ele>897</ele>
        <time>2019-06-25T08:38:35Z</time>
      </trkpt>
      <trkpt lat="44.44522" lon="5.91395">
        <ele>897</ele>
        <time>2019-06-25T08:38:36Z</time>
      </trkpt>
      <trkpt lat="44.44524" lon="5.91394">
        <ele>897</ele>
        <time>2019-06-25T08:38:37Z</time>
      </trkpt>
      <trkpt lat="44.44527" lon="5.91393">
        <ele>898</ele>
        <time>2019-06-25T08:38:38Z</time>
      </trkpt>
      <trkpt lat="44.44529" lon="5.91392">
        <ele>898</ele>
        <time>2019-06-25T08:38:39Z</time>
      </trkpt>
      <trkpt lat="44.44532" lon="5.91391">
        <ele>898</ele>
        <time>2019-06-25T08:38:40Z</time>
      </trkpt>
      <trkpt lat="44.44534" lon="5.9139">
        <ele>898</ele>
        <time>2019-06-25T08:38:41Z</time>
      </trkpt>
      <trkpt lat="44.44537" lon="5.91389">
        <ele>898</ele>
        <time>2019-06-25T08:38:42Z</time>
      </trkpt>
      <trkpt lat="44.4454" lon="5.91388">
        <ele>898</ele>
        <time>2019-06-25T08:38:43Z</time>
      </trkpt>
      <trkpt lat="44.44542" lon="5.91388">
        <ele>899</ele>
        <time>2019-06-25T08:38:44Z</time>
      </trkpt>
      <trkpt lat="44.44545" lon="5.91387">
        <ele>899</ele>
        <time>2019-06-25T08:38:45Z</time>
      </trkpt>
      <trkpt lat="44.44547" lon="5.91386">
        <ele>899</ele>
        <time>2019-06-25T08:38:46Z</time>
      </trkpt>
      <trkpt lat="44.4455" lon="5.91385">
        <ele>899</ele>
        <time>2019-06-25T08:38:47Z</time>
      </trkpt>
      <trkpt lat="44.44553" lon="5.91384">
        <ele>899</ele>
        <time>2019-06-25T08:38:48Z</time>
      </trkpt>
      <trkpt lat="44.44555" lon="5.91383">
        <ele>899</ele>
        <time>2019-06-25T08:38:49Z</time>
      </trkpt>
      <trkpt lat="44.44558" lon="5.91382">
        <ele>899</ele>
        <time>2019-06-25T08:38:50Z</time>
      </trkpt>
      <trkpt lat="44.44561" lon="5.91381">
        <ele>899</ele>
        <time>2019-06-25T08:38:51Z</time>
      </trkpt>
      <trkpt lat="44.44563" lon="5.91379">
        <ele>899</ele>
        <time>2019-06-25T08:38:52Z</time>
      </trkpt>
      <trkpt lat="44.44566" lon="5.91378">
        <ele>900</ele>
        <time>2019-06-25T08:38:53Z</time>
      </trkpt>
      <trkpt lat="44.44568" lon="5.91377">
        <ele>900</ele>
        <time>2019-06-25T08:38:54Z</time>
      </trkpt>
      <trkpt lat="44.44571" lon="5.91376">
        <ele>900</ele>
        <time>2019-06-25T08:38:55Z</time>
      </trkpt>
      <trkpt lat="44.44574" lon="5.91375">
        <ele>900</ele>
        <time>2019-06-25T08:38:56Z</time>
      </trkpt>
      <trkpt lat="44.44576" lon="5.91375">
        <ele>900</ele>
        <time>2019-06-25T08:38:57Z</time>
      </trkpt>
      <trkpt lat="44.44579" lon="5.91373">
        <ele>901</ele>
        <time>2019-06-25T08:38:58Z</time>
      </trkpt>
      <trkpt lat="44.44581" lon="5.91372">
        <ele>901</ele>
        <time>2019-06-25T08:38:59Z</time>
      </trkpt>
      <trkpt lat="44.44584" lon="5.91371">
        <ele>901</ele>
        <time>2019-06-25T08:39:00Z</time>
      </trkpt>
      <trkpt lat="44.44586" lon="5.9137">
        <ele>901</ele>
        <time>2019-06-25T08:39:01Z</time>
      </trkpt>
      <trkpt lat="44.44589" lon="5.91369">
        <ele>901</ele>
        <time>2019-06-25T08:39:02Z</time>
      </trkpt>
      <trkpt lat="44.44591" lon="5.91368">
        <ele>901</ele>
        <time>2019-06-25T08:39:03Z</time>
      </trkpt>
      <trkpt lat="44.44594" lon="5.91368">
        <ele>902</ele>
        <time>2019-06-25T08:39:04Z</time>
      </trkpt>
      <trkpt lat="44.44596" lon="5.91367">
        <ele>902</ele>
        <time>2019-06-25T08:39:05Z</time>
      </trkpt>
      <trkpt lat="44.44599" lon="5.91366">
        <ele>902</ele>
        <time>2019-06-25T08:39:06Z</time>
      </trkpt>
      <trkpt lat="44.44601" lon="5.91365">
        <ele>902</ele>
        <time>2019-06-25T08:39:07Z</time>
      </trkpt>
      <trkpt lat="44.44604" lon="5.91364">
        <ele>903</ele>
        <time>2019-06-25T08:39:08Z</time>
      </trkpt>
      <trkpt lat="44.44606" lon="5.91363">
        <ele>903</ele>
        <time>2019-06-25T08:39:09Z</time>
      </trkpt>
      <trkpt lat="44.44609" lon="5.91362">
        <ele>903</ele>
        <time>2019-06-25T08:39:10Z</time>
      </trkpt>
      <trkpt lat="44.44611" lon="5.91361">
        <ele>903</ele>
        <time>2019-06-25T08:39:11Z</time>
      </trkpt>
      <trkpt lat="44.44614" lon="5.91361">
        <ele>903</ele>
        <time>2019-06-25T08:39:12Z</time>
      </trkpt>
      <trkpt lat="44.44616" lon="5.9136">
        <ele>903</ele>
        <time>2019-06-25T08:39:13Z</time>
      </trkpt>
      <trkpt lat="44.44618" lon="5.91359">
        <ele>904</ele>
        <time>2019-06-25T08:39:14Z</time>
      </trkpt>
      <trkpt lat="44.44621" lon="5.91358">
        <ele>904</ele>
        <time>2019-06-25T08:39:15Z</time>
      </trkpt>
      <trkpt lat="44.44623" lon="5.91357">
        <ele>904</ele>
        <time>2019-06-25T08:39:16Z</time>
      </trkpt>
      <trkpt lat="44.44625" lon="5.91357">
        <ele>904</ele>
        <time>2019-06-25T08:39:17Z</time>
      </trkpt>
      <trkpt lat="44.44628" lon="5.91356">
        <ele>904</ele>
        <time>2019-06-25T08:39:18Z</time>
      </trkpt>
      <trkpt lat="44.4463" lon="5.91355">
        <ele>904</ele>
        <time>2019-06-25T08:39:19Z</time>
      </trkpt>
      <trkpt lat="44.44633" lon="5.91354">
        <ele>905</ele>
        <time>2019-06-25T08:39:20Z</time>
      </trkpt>
      <trkpt lat="44.44635" lon="5.91353">
        <ele>905</ele>
        <time>2019-06-25T08:39:21Z</time>
      </trkpt>
      <trkpt lat="44.44638" lon="5.91353">
        <ele>905</ele>
        <time>2019-06-25T08:39:22Z</time>
      </trkpt>
      <trkpt lat="44.4464" lon="5.91352">
        <ele>905</ele>
        <time>2019-06-25T08:39:23Z</time>
      </trkpt>
      <trkpt lat="44.44642" lon="5.91351">
        <ele>905</ele>
        <time>2019-06-25T08:39:24Z</time>
      </trkpt>
      <trkpt lat="44.44645" lon="5.9135">
        <ele>905</ele>
        <time>2019-06-25T08:39:25Z</time>
      </trkpt>
      <trkpt lat="44.44647" lon="5.91349">
        <ele>906</ele>
        <time>2019-06-25T08:39:26Z</time>
      </trkpt>
      <trkpt lat="44.4465" lon="5.91348">
        <ele>906</ele>
        <time>2019-06-25T08:39:27Z</time>
      </trkpt>
      <trkpt lat="44.44652" lon="5.91347">
        <ele>906</ele>
        <time>2019-06-25T08:39:28Z</time>
      </trkpt>
      <trkpt lat="44.44654" lon="5.91346">
        <ele>906</ele>
        <time>2019-06-25T08:39:29Z</time>
      </trkpt>
      <trkpt lat="44.44656" lon="5.91345">
        <ele>906</ele>
        <time>2019-06-25T08:39:30Z</time>
      </trkpt>
      <trkpt lat="44.44659" lon="5.91343">
        <ele>907</ele>
        <time>2019-06-25T08:39:31Z</time>
      </trkpt>
      <trkpt lat="44.44661" lon="5.91342">
        <ele>907</ele>
        <time>2019-06-25T08:39:32Z</time>
      </trkpt>
      <trkpt lat="44.44663" lon="5.91341">
        <ele>907</ele>
        <time>2019-06-25T08:39:33Z</time>
      </trkpt>
      <trkpt lat="44.44666" lon="5.91339">
        <ele>907</ele>
        <time>2019-06-25T08:39:34Z</time>
      </trkpt>
      <trkpt lat="44.44668" lon="5.91338">
        <ele>907</ele>
        <time>2019-06-25T08:39:35Z</time>
      </trkpt>
      <trkpt lat="44.4467" lon="5.91337">
        <ele>908</ele>
        <time>2019-06-25T08:39:36Z</time>
      </trkpt>
      <trkpt lat="44.44672" lon="5.91335">
        <ele>908</ele>
        <time>2019-06-25T08:39:37Z</time>
      </trkpt>
      <trkpt lat="44.44675" lon="5.91334">
        <ele>908</ele>
        <time>2019-06-25T08:39:38Z</time>
      </trkpt>
      <trkpt lat="44.44677" lon="5.91332">
        <ele>908</ele>
        <time>2019-06-25T08:39:39Z</time>
      </trkpt>
      <trkpt lat="44.44679" lon="5.9133">
        <ele>908</ele>
        <time>2019-06-25T08:39:40Z</time>
      </trkpt>
      <trkpt lat="44.44681" lon="5.91329">
        <ele>908</ele>
        <time>2019-06-25T08:39:41Z</time>
      </trkpt>
      <trkpt lat="44.44683" lon="5.91327">
        <ele>908</ele>
        <time>2019-06-25T08:39:42Z</time>
      </trkpt>
      <trkpt lat="44.44685" lon="5.91325">
        <ele>908</ele>
        <time>2019-06-25T08:39:43Z</time>
      </trkpt>
      <trkpt lat="44.44688" lon="5.91323">
        <ele>909</ele>
        <time>2019-06-25T08:39:44Z</time>
      </trkpt>
      <trkpt lat="44.4469" lon="5.9132">
        <ele>909</ele>
        <time>2019-06-25T08:39:45Z</time>
      </trkpt>
      <trkpt lat="44.44691" lon="5.91318">
        <ele>909</ele>
        <time>2019-06-25T08:39:46Z</time>
      </trkpt>
      <trkpt lat="44.44693" lon="5.91316">
        <ele>909</ele>
        <time>2019-06-25T08:39:47Z</time>
      </trkpt>
      <trkpt lat="44.44695" lon="5.91314">
        <ele>909</ele>
        <time>2019-06-25T08:39:48Z</time>
      </trkpt>
      <trkpt lat="44.44697" lon="5.91311">
        <ele>910</ele>
        <time>2019-06-25T08:39:49Z</time>
      </trkpt>
      <trkpt lat="44.44699" lon="5.91308">
        <ele>910</ele>
        <time>2019-06-25T08:39:50Z</time>
      </trkpt>
      <trkpt lat="44.447" lon="5.91305">
        <ele>910</ele>
        <time>2019-06-25T08:39:51Z</time>
      </trkpt>
      <trkpt lat="44.44702" lon="5.91302">
        <ele>910</ele>
        <time>2019-06-25T08:39:52Z</time>
      </trkpt>
      <trkpt lat="44.44704" lon="5.91299">
        <ele>910</ele>
        <time>2019-06-25T08:39:53Z</time>
      </trkpt>
      <trkpt lat="44.44705" lon="5.91296">
        <ele>911</ele>
        <time>2019-06-25T08:39:54Z</time>
      </trkpt>
      <trkpt lat="44.44706" lon="5.91293">
        <ele>911</ele>
        <time>2019-06-25T08:39:55Z</time>
      </trkpt>
      <trkpt lat="44.44708" lon="5.91291">
        <ele>911</ele>
        <time>2019-06-25T08:39:56Z</time>
      </trkpt>
      <trkpt lat="44.44709" lon="5.91288">
        <ele>911</ele>
        <time>2019-06-25T08:39:57Z</time>
      </trkpt>
      <trkpt lat="44.44711" lon="5.91285">
        <ele>911</ele>
        <time>2019-06-25T08:39:58Z</time>
      </trkpt>
      <trkpt lat="44.44712" lon="5.91282">
        <ele>911</ele>
        <time>2019-06-25T08:39:59Z</time>
      </trkpt>
      <trkpt lat="44.44714" lon="5.91279">
        <ele>911</ele>
        <time>2019-06-25T08:40:00Z</time>
      </trkpt>
      <trkpt lat="44.44715" lon="5.91276">
        <ele>912</ele>
        <time>2019-06-25T08:40:01Z</time>
      </trkpt>
      <trkpt lat="44.44717" lon="5.91273">
        <ele>912</ele>
        <time>2019-06-25T08:40:02Z</time>
      </trkpt>
      <trkpt lat="44.44717" lon="5.9127">
        <ele>912</ele>
        <time>2019-06-25T08:40:03Z</time>
      </trkpt>
      <trkpt lat="44.44719" lon="5.91266">
        <ele>912</ele>
        <time>2019-06-25T08:40:04Z</time>
      </trkpt>
      <trkpt lat="44.4472" lon="5.91263">
        <ele>912</ele>
        <time>2019-06-25T08:40:05Z</time>
      </trkpt>
      <trkpt lat="44.44721" lon="5.9126">
        <ele>912</ele>
        <time>2019-06-25T08:40:06Z</time>
      </trkpt>
      <trkpt lat="44.44722" lon="5.91257">
        <ele>913</ele>
        <time>2019-06-25T08:40:07Z</time>
      </trkpt>
      <trkpt lat="44.44723" lon="5.91254">
        <ele>913</ele>
        <time>2019-06-25T08:40:08Z</time>
      </trkpt>
      <trkpt lat="44.44724" lon="5.91251">
        <ele>913</ele>
        <time>2019-06-25T08:40:09Z</time>
      </trkpt>
      <trkpt lat="44.44725" lon="5.91248">
        <ele>913</ele>
        <time>2019-06-25T08:40:10Z</time>
      </trkpt>
      <trkpt lat="44.44726" lon="5.91245">
        <ele>914</ele>
        <time>2019-06-25T08:40:11Z</time>
      </trkpt>
      <trkpt lat="44.44727" lon="5.91242">
        <ele>914</ele>
        <time>2019-06-25T08:40:12Z</time>
      </trkpt>
      <trkpt lat="44.44728" lon="5.91238">
        <ele>914</ele>
        <time>2019-06-25T08:40:13Z</time>
      </trkpt>
      <trkpt lat="44.44729" lon="5.91236">
        <ele>914</ele>
        <time>2019-06-25T08:40:14Z</time>
      </trkpt>
      <trkpt lat="44.4473" lon="5.91233">
        <ele>914</ele>
        <time>2019-06-25T08:40:15Z</time>
      </trkpt>
      <trkpt lat="44.44731" lon="5.91229">
        <ele>914</ele>
        <time>2019-06-25T08:40:16Z</time>
      </trkpt>
      <trkpt lat="44.44732" lon="5.91226">
        <ele>915</ele>
        <time>2019-06-25T08:40:17Z</time>
      </trkpt>
      <trkpt lat="44.44733" lon="5.91223">
        <ele>915</ele>
        <time>2019-06-25T08:40:18Z</time>
      </trkpt>
      <trkpt lat="44.44734" lon="5.9122">
        <ele>915</ele>
        <time>2019-06-25T08:40:19Z</time>
      </trkpt>
      <trkpt lat="44.44735" lon="5.91217">
        <ele>915</ele>
        <time>2019-06-25T08:40:20Z</time>
      </trkpt>
      <trkpt lat="44.44737" lon="5.91214">
        <ele>915</ele>
        <time>2019-06-25T08:40:21Z</time>
      </trkpt>
      <trkpt lat="44.44738" lon="5.91211">
        <ele>915</ele>
        <time>2019-06-25T08:40:22Z</time>
      </trkpt>
      <trkpt lat="44.44739" lon="5.91207">
        <ele>915</ele>
        <time>2019-06-25T08:40:23Z</time>
      </trkpt>
      <trkpt lat="44.4474" lon="5.91204">
        <ele>916</ele>
        <time>2019-06-25T08:40:24Z</time>
      </trkpt>
      <trkpt lat="44.44741" lon="5.912">
        <ele>916</ele>
        <time>2019-06-25T08:40:25Z</time>
      </trkpt>
      <trkpt lat="44.44742" lon="5.91197">
        <ele>916</ele>
        <time>2019-06-25T08:40:26Z</time>
      </trkpt>
      <trkpt lat="44.44743" lon="5.91194">
        <ele>916</ele>
        <time>2019-06-25T08:40:27Z</time>
      </trkpt>
      <trkpt lat="44.44744" lon="5.91191">
        <ele>916</ele>
        <time>2019-06-25T08:40:28Z</time>
      </trkpt>
      <trkpt lat="44.44746" lon="5.91188">
        <ele>916</ele>
        <time>2019-06-25T08:40:29Z</time>
      </trkpt>
      <trkpt lat="44.44747" lon="5.91185">
        <ele>916</ele>
        <time>2019-06-25T08:40:30Z</time>
      </trkpt>
      <trkpt lat="44.44748" lon="5.91182">
        <ele>916</ele>
        <time>2019-06-25T08:40:31Z</time>
      </trkpt>
      <trkpt lat="44.44749" lon="5.91179">
        <ele>916</ele>
        <time>2019-06-25T08:40:32Z</time>
      </trkpt>
      <trkpt lat="44.44751" lon="5.91176">
        <ele>916</ele>
        <time>2019-06-25T08:40:33Z</time>
      </trkpt>
      <trkpt lat="44.44752" lon="5.91173">
        <ele>916</ele>
        <time>2019-06-25T08:40:34Z</time>
      </trkpt>
      <trkpt lat="44.44753" lon="5.9117">
        <ele>917</ele>
        <time>2019-06-25T08:40:35Z</time>
      </trkpt>
      <trkpt lat="44.44754" lon="5.91166">
        <ele>917</ele>
        <time>2019-06-25T08:40:36Z</time>
      </trkpt>
      <trkpt lat="44.44755" lon="5.91164">
        <ele>917</ele>
        <time>2019-06-25T08:40:37Z</time>
      </trkpt>
      <trkpt lat="44.44756" lon="5.91161">
        <ele>917</ele>
        <time>2019-06-25T08:40:38Z</time>
      </trkpt>
      <trkpt lat="44.44757" lon="5.91158">
        <ele>917</ele>
        <time>2019-06-25T08:40:39Z</time>
      </trkpt>
      <trkpt lat="44.44758" lon="5.91155">
        <ele>917</ele>
        <time>2019-06-25T08:40:40Z</time>
      </trkpt>
      <trkpt lat="44.44759" lon="5.91152">
        <ele>918</ele>
        <time>2019-06-25T08:40:41Z</time>
      </trkpt>
      <trkpt lat="44.4476" lon="5.9115">
        <ele>918</ele>
        <time>2019-06-25T08:40:42Z</time>
      </trkpt>
      <trkpt lat="44.44761" lon="5.91147">
        <ele>918</ele>
        <time>2019-06-25T08:40:43Z</time>
      </trkpt>
      <trkpt lat="44.44762" lon="5.91144">
        <ele>918</ele>
        <time>2019-06-25T08:40:44Z</time>
      </trkpt>
      <trkpt lat="44.44764" lon="5.91141">
        <ele>918</ele>
        <time>2019-06-25T08:40:45Z</time>
      </trkpt>
      <trkpt lat="44.44764" lon="5.91138">
        <ele>919</ele>
        <time>2019-06-25T08:40:46Z</time>
      </trkpt>
      <trkpt lat="44.44766" lon="5.91135">
        <ele>919</ele>
        <time>2019-06-25T08:40:47Z</time>
      </trkpt>
      <trkpt lat="44.44767" lon="5.91132">
        <ele>919</ele>
        <time>2019-06-25T08:40:48Z</time>
      </trkpt>
      <trkpt lat="44.44769" lon="5.91129">
        <ele>919</ele>
        <time>2019-06-25T08:40:49Z</time>
      </trkpt>
      <trkpt lat="44.4477" lon="5.91126">
        <ele>919</ele>
        <time>2019-06-25T08:40:50Z</time>
      </trkpt>
      <trkpt lat="44.44771" lon="5.91123">
        <ele>919</ele>
        <time>2019-06-25T08:40:51Z</time>
      </trkpt>
      <trkpt lat="44.44772" lon="5.9112">
        <ele>919</ele>
        <time>2019-06-25T08:40:52Z</time>
      </trkpt>
      <trkpt lat="44.44772" lon="5.91117">
        <ele>919</ele>
        <time>2019-06-25T08:40:53Z</time>
      </trkpt>
      <trkpt lat="44.44773" lon="5.91115">
        <ele>919</ele>
        <time>2019-06-25T08:40:54Z</time>
      </trkpt>
      <trkpt lat="44.44774" lon="5.91112">
        <ele>920</ele>
        <time>2019-06-25T08:40:55Z</time>
      </trkpt>
      <trkpt lat="44.44775" lon="5.9111">
        <ele>920</ele>
        <time>2019-06-25T08:40:56Z</time>
      </trkpt>
      <trkpt lat="44.44776" lon="5.91107">
        <ele>920</ele>
        <time>2019-06-25T08:40:57Z</time>
      </trkpt>
      <trkpt lat="44.44777" lon="5.91104">
        <ele>920</ele>
        <time>2019-06-25T08:40:58Z</time>
      </trkpt>
      <trkpt lat="44.44778" lon="5.91102">
        <ele>920</ele>
        <time>2019-06-25T08:40:59Z</time>
      </trkpt>
      <trkpt lat="44.4478" lon="5.91099">
        <ele>920</ele>
        <time>2019-06-25T08:41:00Z</time>
      </trkpt>
      <trkpt lat="44.4478" lon="5.91096">
        <ele>920</ele>
        <time>2019-06-25T08:41:01Z</time>
      </trkpt>
      <trkpt lat="44.44781" lon="5.91094">
        <ele>920</ele>
        <time>2019-06-25T08:41:02Z</time>
      </trkpt>
      <trkpt lat="44.44783" lon="5.91091">
        <ele>920</ele>
        <time>2019-06-25T08:41:03Z</time>
      </trkpt>
      <trkpt lat="44.44784" lon="5.91089">
        <ele>921</ele>
        <time>2019-06-25T08:41:04Z</time>
      </trkpt>
      <trkpt lat="44.44785" lon="5.91086">
        <ele>921</ele>
        <time>2019-06-25T08:41:05Z</time>
      </trkpt>
      <trkpt lat="44.44786" lon="5.91083">
        <ele>921</ele>
        <time>2019-06-25T08:41:06Z</time>
      </trkpt>
      <trkpt lat="44.44787" lon="5.9108">
        <ele>921</ele>
        <time>2019-06-25T08:41:07Z</time>
      </trkpt>
      <trkpt lat="44.44788" lon="5.91077">
        <ele>921</ele>
        <time>2019-06-25T08:41:08Z</time>
      </trkpt>
      <trkpt lat="44.44788" lon="5.91075">
        <ele>921</ele>
        <time>2019-06-25T08:41:09Z</time>
      </trkpt>
      <trkpt lat="44.44789" lon="5.91072">
        <ele>922</ele>
        <time>2019-06-25T08:41:10Z</time>
      </trkpt>
      <trkpt lat="44.4479" lon="5.91069">
        <ele>922</ele>
        <time>2019-06-25T08:41:11Z</time>
      </trkpt>
      <trkpt lat="44.44791" lon="5.91067">
        <ele>922</ele>
        <time>2019-06-25T08:41:12Z</time>
      </trkpt>
      <trkpt lat="44.44792" lon="5.91064">
        <ele>922</ele>
        <time>2019-06-25T08:41:13Z</time>
      </trkpt>
      <trkpt lat="44.44793" lon="5.91061">
        <ele>922</ele>
        <time>2019-06-25T08:41:14Z</time>
      </trkpt>
      <trkpt lat="44.44794" lon="5.91059">
        <ele>922</ele>
        <time>2019-06-25T08:41:15Z</time>
      </trkpt>
      <trkpt lat="44.44795" lon="5.91056">
        <ele>923</ele>
        <time>2019-06-25T08:41:16Z</time>
      </trkpt>
      <trkpt lat="44.44796" lon="5.91053">
        <ele>923</ele>
        <time>2019-06-25T08:41:17Z</time>
      </trkpt>
      <trkpt lat="44.44797" lon="5.9105">
        <ele>923</ele>
        <time>2019-06-25T08:41:18Z</time>
      </trkpt>
      <trkpt lat="44.44798" lon="5.91047">
        <ele>923</ele>
        <time>2019-06-25T08:41:19Z</time>
      </trkpt>
      <trkpt lat="44.44799" lon="5.91045">
        <ele>923</ele>
        <time>2019-06-25T08:41:20Z</time>
      </trkpt>
      <trkpt lat="44.448" lon="5.91042">
        <ele>923</ele>
        <time>2019-06-25T08:41:21Z</time>
      </trkpt>
      <trkpt lat="44.44801" lon="5.91039">
        <ele>924</ele>
        <time>2019-06-25T08:41:22Z</time>
      </trkpt>
      <trkpt lat="44.44802" lon="5.91037">
        <ele>924</ele>
        <time>2019-06-25T08:41:23Z</time>
      </trkpt>
      <trkpt lat="44.44803" lon="5.91034">
        <ele>924</ele>
        <time>2019-06-25T08:41:24Z</time>
      </trkpt>
      <trkpt lat="44.44804" lon="5.91031">
        <ele>924</ele>
        <time>2019-06-25T08:41:25Z</time>
      </trkpt>
      <trkpt lat="44.44804" lon="5.91028">
        <ele>924</ele>
        <time>2019-06-25T08:41:26Z</time>
      </trkpt>
      <trkpt lat="44.44806" lon="5.91025">
        <ele>924</ele>
        <time>2019-06-25T08:41:27Z</time>
      </trkpt>
      <trkpt lat="44.44807" lon="5.91023">
        <ele>925</ele>
        <time>2019-06-25T08:41:28Z</time>
      </trkpt>
      <trkpt lat="44.44808" lon="5.9102">
        <ele>925</ele>
        <time>2019-06-25T08:41:29Z</time>
      </trkpt>
      <trkpt lat="44.44809" lon="5.91017">
        <ele>925</ele>
        <time>2019-06-25T08:41:30Z</time>
      </trkpt>
      <trkpt lat="44.4481" lon="5.91014">
        <ele>925</ele>
        <time>2019-06-25T08:41:31Z</time>
      </trkpt>
      <trkpt lat="44.44811" lon="5.91012">
        <ele>925</ele>
        <time>2019-06-25T08:41:32Z</time>
      </trkpt>
      <trkpt lat="44.44812" lon="5.9101">
        <ele>925</ele>
        <time>2019-06-25T08:41:33Z</time>
      </trkpt>
      <trkpt lat="44.44814" lon="5.91007">
        <ele>926</ele>
        <time>2019-06-25T08:41:34Z</time>
      </trkpt>
      <trkpt lat="44.44815" lon="5.91005">
        <ele>926</ele>
        <time>2019-06-25T08:41:35Z</time>
      </trkpt>
      <trkpt lat="44.44815" lon="5.91002">
        <ele>926</ele>
        <time>2019-06-25T08:41:36Z</time>
      </trkpt>
      <trkpt lat="44.44817" lon="5.90999">
        <ele>926</ele>
        <time>2019-06-25T08:41:37Z</time>
      </trkpt>
      <trkpt lat="44.44818" lon="5.90997">
        <ele>926</ele>
        <time>2019-06-25T08:41:38Z</time>
      </trkpt>
      <trkpt lat="44.44819" lon="5.90995">
        <ele>927</ele>
        <time>2019-06-25T08:41:39Z</time>
      </trkpt>
      <trkpt lat="44.4482" lon="5.90993">
        <ele>927</ele>
        <time>2019-06-25T08:41:40Z</time>
      </trkpt>
      <trkpt lat="44.44822" lon="5.90991">
        <ele>927</ele>
        <time>2019-06-25T08:41:41Z</time>
      </trkpt>
      <trkpt lat="44.44823" lon="5.90988">
        <ele>927</ele>
        <time>2019-06-25T08:41:42Z</time>
      </trkpt>
      <trkpt lat="44.44824" lon="5.90986">
        <ele>927</ele>
        <time>2019-06-25T08:41:43Z</time>
      </trkpt>
      <trkpt lat="44.44825" lon="5.90984">
        <ele>927</ele>
        <time>2019-06-25T08:41:44Z</time>
      </trkpt>
      <trkpt lat="44.44827" lon="5.90982">
        <ele>927</ele>
        <time>2019-06-25T08:41:45Z</time>
      </trkpt>
      <trkpt lat="44.44828" lon="5.90979">
        <ele>927</ele>
        <time>2019-06-25T08:41:46Z</time>
      </trkpt>
      <trkpt lat="44.44829" lon="5.90977">
        <ele>928</ele>
        <time>2019-06-25T08:41:47Z</time>
      </trkpt>
      <trkpt lat="44.44831" lon="5.90975">
        <ele>928</ele>
        <time>2019-06-25T08:41:48Z</time>
      </trkpt>
      <trkpt lat="44.44832" lon="5.90973">
        <ele>928</ele>
        <time>2019-06-25T08:41:49Z</time>
      </trkpt>
      <trkpt lat="44.44833" lon="5.90971">
        <ele>928</ele>
        <time>2019-06-25T08:41:50Z</time>
      </trkpt>
      <trkpt lat="44.44835" lon="5.90968">
        <ele>928</ele>
        <time>2019-06-25T08:41:51Z</time>
      </trkpt>
      <trkpt lat="44.44836" lon="5.90966">
        <ele>928</ele>
        <time>2019-06-25T08:41:52Z</time>
      </trkpt>
      <trkpt lat="44.44837" lon="5.90963">
        <ele>928</ele>
        <time>2019-06-25T08:41:53Z</time>
      </trkpt>
      <trkpt lat="44.44838" lon="5.9096">
        <ele>929</ele>
        <time>2019-06-25T08:41:54Z</time>
      </trkpt>
      <trkpt lat="44.44839" lon="5.90957">
        <ele>929</ele>
        <time>2019-06-25T08:41:55Z</time>
      </trkpt>
      <trkpt lat="44.4484" lon="5.90954">
        <ele>929</ele>
        <time>2019-06-25T08:41:56Z</time>
      </trkpt>
      <trkpt lat="44.44841" lon="5.90951">
        <ele>929</ele>
        <time>2019-06-25T08:41:57Z</time>
      </trkpt>
      <trkpt lat="44.44842" lon="5.90948">
        <ele>930</ele>
        <time>2019-06-25T08:41:58Z</time>
      </trkpt>
      <trkpt lat="44.44842" lon="5.90945">
        <ele>930</ele>
        <time>2019-06-25T08:41:59Z</time>
      </trkpt>
      <trkpt lat="44.44842" lon="5.90941">
        <ele>930</ele>
        <time>2019-06-25T08:42:00Z</time>
      </trkpt>
      <trkpt lat="44.44843" lon="5.90938">
        <ele>930</ele>
        <time>2019-06-25T08:42:01Z</time>
      </trkpt>
      <trkpt lat="44.44843" lon="5.90935">
        <ele>930</ele>
        <time>2019-06-25T08:42:02Z</time>
      </trkpt>
      <trkpt lat="44.44843" lon="5.90931">
        <ele>931</ele>
        <time>2019-06-25T08:42:03Z</time>
      </trkpt>
      <trkpt lat="44.44843" lon="5.90928">
        <ele>931</ele>
        <time>2019-06-25T08:42:04Z</time>
      </trkpt>
      <trkpt lat="44.44842" lon="5.90924">
        <ele>931</ele>
        <time>2019-06-25T08:42:05Z</time>
      </trkpt>
      <trkpt lat="44.44842" lon="5.9092">
        <ele>932</ele>
        <time>2019-06-25T08:42:06Z</time>
      </trkpt>
      <trkpt lat="44.44841" lon="5.90917">
        <ele>932</ele>
        <time>2019-06-25T08:42:07Z</time>
      </trkpt>
      <trkpt lat="44.44841" lon="5.90913">
        <ele>932</ele>
        <time>2019-06-25T08:42:08Z</time>
      </trkpt>
      <trkpt lat="44.44841" lon="5.90909">
        <ele>932</ele>
        <time>2019-06-25T08:42:09Z</time>
      </trkpt>
      <trkpt lat="44.4484" lon="5.90906">
        <ele>933</ele>
        <time>2019-06-25T08:42:10Z</time>
      </trkpt>
      <trkpt lat="44.44839" lon="5.90902">
        <ele>933</ele>
        <time>2019-06-25T08:42:11Z</time>
      </trkpt>
      <trkpt lat="44.44839" lon="5.90898">
        <ele>933</ele>
        <time>2019-06-25T08:42:12Z</time>
      </trkpt>
      <trkpt lat="44.44839" lon="5.90894">
        <ele>933</ele>
        <time>2019-06-25T08:42:13Z</time>
      </trkpt>
      <trkpt lat="44.44838" lon="5.9089">
        <ele>933</ele>
        <time>2019-06-25T08:42:14Z</time>
      </trkpt>
      <trkpt lat="44.44838" lon="5.90886">
        <ele>933</ele>
        <time>2019-06-25T08:42:15Z</time>
      </trkpt>
      <trkpt lat="44.44838" lon="5.90882">
        <ele>933</ele>
        <time>2019-06-25T08:42:16Z</time>
      </trkpt>
      <trkpt lat="44.44838" lon="5.90878">
        <ele>933</ele>
        <time>2019-06-25T08:42:17Z</time>
      </trkpt>
      <trkpt lat="44.44837" lon="5.90874">
        <ele>934</ele>
        <time>2019-06-25T08:42:18Z</time>
      </trkpt>
      <trkpt lat="44.44837" lon="5.9087">
        <ele>934</ele>
        <time>2019-06-25T08:42:19Z</time>
      </trkpt>
      <trkpt lat="44.44837" lon="5.90866">
        <ele>934</ele>
        <time>2019-06-25T08:42:20Z</time>
      </trkpt>
      <trkpt lat="44.44837" lon="5.90862">
        <ele>934</ele>
        <time>2019-06-25T08:42:21Z</time>
      </trkpt>
      <trkpt lat="44.44837" lon="5.90858">
        <ele>934</ele>
        <time>2019-06-25T08:42:22Z</time>
      </trkpt>
      <trkpt lat="44.44837" lon="5.90855">
        <ele>934</ele>
        <time>2019-06-25T08:42:23Z</time>
      </trkpt>
      <trkpt lat="44.44837" lon="5.90851">
        <ele>934</ele>
        <time>2019-06-25T08:42:24Z</time>
      </trkpt>
      <trkpt lat="44.44836" lon="5.90847">
        <ele>934</ele>
        <time>2019-06-25T08:42:25Z</time>
      </trkpt>
      <trkpt lat="44.44836" lon="5.90843">
        <ele>934</ele>
        <time>2019-06-25T08:42:26Z</time>
      </trkpt>
      <trkpt lat="44.44835" lon="5.90839">
        <ele>935</ele>
        <time>2019-06-25T08:42:27Z</time>
      </trkpt>
      <trkpt lat="44.44835" lon="5.90836">
        <ele>935</ele>
        <time>2019-06-25T08:42:28Z</time>
      </trkpt>
      <trkpt lat="44.44833" lon="5.90832">
        <ele>935</ele>
        <time>2019-06-25T08:42:29Z</time>
      </trkpt>
      <trkpt lat="44.44832" lon="5.90828">
        <ele>935</ele>
        <time>2019-06-25T08:42:30Z</time>
      </trkpt>
      <trkpt lat="44.44831" lon="5.90825">
        <ele>935</ele>
        <time>2019-06-25T08:42:31Z</time>
      </trkpt>
      <trkpt lat="44.44829" lon="5.90821">
        <ele>936</ele>
        <time>2019-06-25T08:42:32Z</time>
      </trkpt>
      <trkpt lat="44.44828" lon="5.90817">
        <ele>936</ele>
        <time>2019-06-25T08:42:33Z</time>
      </trkpt>
      <trkpt lat="44.44826" lon="5.90814">
        <ele>936</ele>
        <time>2019-06-25T08:42:34Z</time>
      </trkpt>
      <trkpt lat="44.44823" lon="5.90811">
        <ele>936</ele>
        <time>2019-06-25T08:42:35Z</time>
      </trkpt>
      <trkpt lat="44.44822" lon="5.90808">
        <ele>937</ele>
        <time>2019-06-25T08:42:36Z</time>
      </trkpt>
      <trkpt lat="44.44819" lon="5.90805">
        <ele>937</ele>
        <time>2019-06-25T08:42:37Z</time>
      </trkpt>
      <trkpt lat="44.44817" lon="5.90802">
        <ele>937</ele>
        <time>2019-06-25T08:42:38Z</time>
      </trkpt>
      <trkpt lat="44.44814" lon="5.90799">
        <ele>937</ele>
        <time>2019-06-25T08:42:39Z</time>
      </trkpt>
      <trkpt lat="44.44812" lon="5.90797">
        <ele>937</ele>
        <time>2019-06-25T08:42:40Z</time>
      </trkpt>
      <trkpt lat="44.44809" lon="5.90794">
        <ele>937</ele>
        <time>2019-06-25T08:42:41Z</time>
      </trkpt>
      <trkpt lat="44.44807" lon="5.90791">
        <ele>938</ele>
        <time>2019-06-25T08:42:42Z</time>
      </trkpt>
      <trkpt lat="44.44804" lon="5.90788">
        <ele>938</ele>
        <time>2019-06-25T08:42:43Z</time>
      </trkpt>
      <trkpt lat="44.44801" lon="5.90784">
        <ele>938</ele>
        <time>2019-06-25T08:42:44Z</time>
      </trkpt>
      <trkpt lat="44.44799" lon="5.90781">
        <ele>938</ele>
        <time>2019-06-25T08:42:45Z</time>
      </trkpt>
      <trkpt lat="44.44797" lon="5.90777">
        <ele>938</ele>
        <time>2019-06-25T08:42:46Z</time>
      </trkpt>
      <trkpt lat="44.44795" lon="5.90773">
        <ele>938</ele>
        <time>2019-06-25T08:42:47Z</time>
      </trkpt>
      <trkpt lat="44.44793" lon="5.90769">
        <ele>938</ele>
        <time>2019-06-25T08:42:48Z</time>
      </trkpt>
      <trkpt lat="44.44792" lon="5.90765">
        <ele>938</ele>
        <time>2019-06-25T08:42:49Z</time>
      </trkpt>
      <trkpt lat="44.44791" lon="5.9076">
        <ele>938</ele>
        <time>2019-06-25T08:42:50Z</time>
      </trkpt>
      <trkpt lat="44.44789" lon="5.90756">
        <ele>938</ele>
        <time>2019-06-25T08:42:51Z</time>
      </trkpt>
      <trkpt lat="44.44789" lon="5.90752">
        <ele>938</ele>
        <time>2019-06-25T08:42:52Z</time>
      </trkpt>
      <trkpt lat="44.44788" lon="5.90747">
        <ele>938</ele>
        <time>2019-06-25T08:42:53Z</time>
      </trkpt>
      <trkpt lat="44.44788" lon="5.90742">
        <ele>938</ele>
        <time>2019-06-25T08:42:54Z</time>
      </trkpt>
      <trkpt lat="44.44788" lon="5.90736">
        <ele>938</ele>
        <time>2019-06-25T08:42:55Z</time>
      </trkpt>
      <trkpt lat="44.44789" lon="5.90731">
        <ele>938</ele>
        <time>2019-06-25T08:42:56Z</time>
      </trkpt>
      <trkpt lat="44.44791" lon="5.90726">
        <ele>938</ele>
        <time>2019-06-25T08:42:57Z</time>
      </trkpt>
      <trkpt lat="44.44793" lon="5.90721">
        <ele>938</ele>
        <time>2019-06-25T08:42:58Z</time>
      </trkpt>
      <trkpt lat="44.44796" lon="5.90716">
        <ele>938</ele>
        <time>2019-06-25T08:42:59Z</time>
      </trkpt>
      <trkpt lat="44.44799" lon="5.90712">
        <ele>938</ele>
        <time>2019-06-25T08:43:00Z</time>
      </trkpt>
      <trkpt lat="44.44804" lon="5.9071">
        <ele>938</ele>
        <time>2019-06-25T08:43:01Z</time>
      </trkpt>
      <trkpt lat="44.44808" lon="5.90709">
        <ele>938</ele>
        <time>2019-06-25T08:43:02Z</time>
      </trkpt>
      <trkpt lat="44.44812" lon="5.9071">
        <ele>938</ele>
        <time>2019-06-25T08:43:03Z</time>
      </trkpt>
      <trkpt lat="44.44816" lon="5.90712">
        <ele>938</ele>
        <time>2019-06-25T08:43:04Z</time>
      </trkpt>
      <trkpt lat="44.4482" lon="5.90714">
        <ele>938</ele>
        <time>2019-06-25T08:43:05Z</time>
      </trkpt>
      <trkpt lat="44.44823" lon="5.90717">
        <ele>938</ele>
        <time>2019-06-25T08:43:06Z</time>
      </trkpt>
      <trkpt lat="44.44827" lon="5.9072">
        <ele>938</ele>
        <time>2019-06-25T08:43:07Z</time>
      </trkpt>
      <trkpt lat="44.4483" lon="5.90722">
        <ele>938</ele>
        <time>2019-06-25T08:43:08Z</time>
      </trkpt>
      <trkpt lat="44.44833" lon="5.90724">
        <ele>938</ele>
        <time>2019-06-25T08:43:09Z</time>
      </trkpt>
      <trkpt lat="44.44836" lon="5.90726">
        <ele>938</ele>
        <time>2019-06-25T08:43:10Z</time>
      </trkpt>
      <trkpt lat="44.44839" lon="5.90727">
        <ele>938</ele>
        <time>2019-06-25T08:43:11Z</time>
      </trkpt>
      <trkpt lat="44.44842" lon="5.90728">
        <ele>938</ele>
        <time>2019-06-25T08:43:12Z</time>
      </trkpt>
      <trkpt lat="44.44844" lon="5.90729">
        <ele>939</ele>
        <time>2019-06-25T08:43:13Z</time>
      </trkpt>
      <trkpt lat="44.44847" lon="5.9073">
        <ele>939</ele>
        <time>2019-06-25T08:43:14Z</time>
      </trkpt>
      <trkpt lat="44.4485" lon="5.90731">
        <ele>939</ele>
        <time>2019-06-25T08:43:15Z</time>
      </trkpt>
      <trkpt lat="44.44852" lon="5.90732">
        <ele>939</ele>
        <time>2019-06-25T08:43:16Z</time>
      </trkpt>
      <trkpt lat="44.44854" lon="5.90733">
        <ele>940</ele>
        <time>2019-06-25T08:43:17Z</time>
      </trkpt>
      <trkpt lat="44.44857" lon="5.90733">
        <ele>940</ele>
        <time>2019-06-25T08:43:18Z</time>
      </trkpt>
      <trkpt lat="44.44859" lon="5.90734">
        <ele>940</ele>
        <time>2019-06-25T08:43:19Z</time>
      </trkpt>
      <trkpt lat="44.44862" lon="5.90734">
        <ele>940</ele>
        <time>2019-06-25T08:43:20Z</time>
      </trkpt>
      <trkpt lat="44.44864" lon="5.90734">
        <ele>941</ele>
        <time>2019-06-25T08:43:21Z</time>
      </trkpt>
      <trkpt lat="44.44866" lon="5.90735">
        <ele>941</ele>
        <time>2019-06-25T08:43:22Z</time>
      </trkpt>
      <trkpt lat="44.44868" lon="5.90737">
        <ele>941</ele>
        <time>2019-06-25T08:43:23Z</time>
      </trkpt>
      <trkpt lat="44.4487" lon="5.90737">
        <ele>941</ele>
        <time>2019-06-25T08:43:24Z</time>
      </trkpt>
      <trkpt lat="44.44872" lon="5.90738">
        <ele>942</ele>
        <time>2019-06-25T08:43:25Z</time>
      </trkpt>
      <trkpt lat="44.44875" lon="5.90739">
        <ele>942</ele>
        <time>2019-06-25T08:43:26Z</time>
      </trkpt>
      <trkpt lat="44.44877" lon="5.9074">
        <ele>942</ele>
        <time>2019-06-25T08:43:27Z</time>
      </trkpt>
      <trkpt lat="44.44879" lon="5.9074">
        <ele>942</ele>
        <time>2019-06-25T08:43:28Z</time>
      </trkpt>
      <trkpt lat="44.44881" lon="5.90741">
        <ele>942</ele>
        <time>2019-06-25T08:43:29Z</time>
      </trkpt>
      <trkpt lat="44.44883" lon="5.90741">
        <ele>943</ele>
        <time>2019-06-25T08:43:30Z</time>
      </trkpt>
      <trkpt lat="44.44886" lon="5.90741">
        <ele>943</ele>
        <time>2019-06-25T08:43:31Z</time>
      </trkpt>
      <trkpt lat="44.44888" lon="5.90741">
        <ele>943</ele>
        <time>2019-06-25T08:43:32Z</time>
      </trkpt>
      <trkpt lat="44.44891" lon="5.9074">
        <ele>943</ele>
        <time>2019-06-25T08:43:33Z</time>
      </trkpt>
      <trkpt lat="44.44894" lon="5.90738">
        <ele>943</ele>
        <time>2019-06-25T08:43:34Z</time>
      </trkpt>
      <trkpt lat="44.44896" lon="5.90736">
        <ele>943</ele>
        <time>2019-06-25T08:43:35Z</time>
      </trkpt>
      <trkpt lat="44.44899" lon="5.90733">
        <ele>943</ele>
        <time>2019-06-25T08:43:36Z</time>
      </trkpt>
      <trkpt lat="44.44902" lon="5.9073">
        <ele>944</ele>
        <time>2019-06-25T08:43:37Z</time>
      </trkpt>
      <trkpt lat="44.44904" lon="5.90727">
        <ele>944</ele>
        <time>2019-06-25T08:43:38Z</time>
      </trkpt>
      <trkpt lat="44.44907" lon="5.90724">
        <ele>944</ele>
        <time>2019-06-25T08:43:39Z</time>
      </trkpt>
      <trkpt lat="44.44909" lon="5.9072">
        <ele>944</ele>
        <time>2019-06-25T08:43:40Z</time>
      </trkpt>
      <trkpt lat="44.44912" lon="5.90716">
        <ele>944</ele>
        <time>2019-06-25T08:43:41Z</time>
      </trkpt>
      <trkpt lat="44.44914" lon="5.90711">
        <ele>944</ele>
        <time>2019-06-25T08:43:42Z</time>
      </trkpt>
      <trkpt lat="44.44916" lon="5.90707">
        <ele>944</ele>
        <time>2019-06-25T08:43:43Z</time>
      </trkpt>
      <trkpt lat="44.44919" lon="5.90703">
        <ele>944</ele>
        <time>2019-06-25T08:43:44Z</time>
      </trkpt>
      <trkpt lat="44.44921" lon="5.90698">
        <ele>944</ele>
        <time>2019-06-25T08:43:45Z</time>
      </trkpt>
      <trkpt lat="44.44924" lon="5.90694">
        <ele>944</ele>
        <time>2019-06-25T08:43:46Z</time>
      </trkpt>
      <trkpt lat="44.44927" lon="5.9069">
        <ele>944</ele>
        <time>2019-06-25T08:43:47Z</time>
      </trkpt>
      <trkpt lat="44.44929" lon="5.90685">
        <ele>944</ele>
        <time>2019-06-25T08:43:48Z</time>
      </trkpt>
      <trkpt lat="44.44932" lon="5.9068">
        <ele>944</ele>
        <time>2019-06-25T08:43:49Z</time>
      </trkpt>
      <trkpt lat="44.44936" lon="5.90675">
        <ele>944</ele>
        <time>2019-06-25T08:43:50Z</time>
      </trkpt>
      <trkpt lat="44.44939" lon="5.9067">
        <ele>944</ele>
        <time>2019-06-25T08:43:51Z</time>
      </trkpt>
      <trkpt lat="44.44942" lon="5.90665">
        <ele>944</ele>
        <time>2019-06-25T08:43:52Z</time>
      </trkpt>
      <trkpt lat="44.44945" lon="5.9066">
        <ele>944</ele>
        <time>2019-06-25T08:43:53Z</time>
      </trkpt>
      <trkpt lat="44.44948" lon="5.90655">
        <ele>944</ele>
        <time>2019-06-25T08:43:54Z</time>
      </trkpt>
      <trkpt lat="44.44951" lon="5.90649">
        <ele>944</ele>
        <time>2019-06-25T08:43:55Z</time>
      </trkpt>
      <trkpt lat="44.44955" lon="5.90644">
        <ele>944</ele>
        <time>2019-06-25T08:43:56Z</time>
      </trkpt>
      <trkpt lat="44.44958" lon="5.90637">
        <ele>944</ele>
        <time>2019-06-25T08:43:57Z</time>
      </trkpt>
      <trkpt lat="44.44962" lon="5.90632">
        <ele>944</ele>
        <time>2019-06-25T08:43:58Z</time>
      </trkpt>
      <trkpt lat="44.44965" lon="5.90626">
        <ele>944</ele>
        <time>2019-06-25T08:43:59Z</time>
      </trkpt>
      <trkpt lat="44.44969" lon="5.90621">
        <ele>944</ele>
        <time>2019-06-25T08:44:00Z</time>
      </trkpt>
      <trkpt lat="44.44973" lon="5.90616">
        <ele>944</ele>
        <time>2019-06-25T08:44:01Z</time>
      </trkpt>
      <trkpt lat="44.44977" lon="5.90612">
        <ele>944</ele>
        <time>2019-06-25T08:44:02Z</time>
      </trkpt>
      <trkpt lat="44.44981" lon="5.90607">
        <ele>944</ele>
        <time>2019-06-25T08:44:03Z</time>
      </trkpt>
      <trkpt lat="44.44985" lon="5.90602">
        <ele>944</ele>
        <time>2019-06-25T08:44:04Z</time>
      </trkpt>
      <trkpt lat="44.44988" lon="5.90597">
        <ele>944</ele>
        <time>2019-06-25T08:44:05Z</time>
      </trkpt>
      <trkpt lat="44.44991" lon="5.90593">
        <ele>944</ele>
        <time>2019-06-25T08:44:06Z</time>
      </trkpt>
      <trkpt lat="44.44993" lon="5.90588">
        <ele>944</ele>
        <time>2019-06-25T08:44:07Z</time>
      </trkpt>
      <trkpt lat="44.44995" lon="5.90584">
        <ele>944</ele>
        <time>2019-06-25T08:44:08Z</time>
      </trkpt>
      <trkpt lat="44.44998" lon="5.90581">
        <ele>944</ele>
        <time>2019-06-25T08:44:09Z</time>
      </trkpt>
      <trkpt lat="44.45" lon="5.90577">
        <ele>944</ele>
        <time>2019-06-25T08:44:10Z</time>
      </trkpt>
      <trkpt lat="44.45003" lon="5.90573">
        <ele>944</ele>
        <time>2019-06-25T08:44:11Z</time>
      </trkpt>
      <trkpt lat="44.45005" lon="5.9057">
        <ele>944</ele>
        <time>2019-06-25T08:44:12Z</time>
      </trkpt>
      <trkpt lat="44.45007" lon="5.90566">
        <ele>944</ele>
        <time>2019-06-25T08:44:13Z</time>
      </trkpt>
      <trkpt lat="44.4501" lon="5.90563">
        <ele>944</ele>
        <time>2019-06-25T08:44:14Z</time>
      </trkpt>
      <trkpt lat="44.45012" lon="5.9056">
        <ele>944</ele>
        <time>2019-06-25T08:44:15Z</time>
      </trkpt>
      <trkpt lat="44.45014" lon="5.90557">
        <ele>944</ele>
        <time>2019-06-25T08:44:16Z</time>
      </trkpt>
      <trkpt lat="44.45016" lon="5.90555">
        <ele>944</ele>
        <time>2019-06-25T08:44:17Z</time>
      </trkpt>
      <trkpt lat="44.45017" lon="5.90552">
        <ele>944</ele>
        <time>2019-06-25T08:44:18Z</time>
      </trkpt>
      <trkpt lat="44.45019" lon="5.90549">
        <ele>944</ele>
        <time>2019-06-25T08:44:19Z</time>
      </trkpt>
      <trkpt lat="44.45021" lon="5.90546">
        <ele>944</ele>
        <time>2019-06-25T08:44:20Z</time>
      </trkpt>
      <trkpt lat="44.45022" lon="5.90542">
        <ele>944</ele>
        <time>2019-06-25T08:44:21Z</time>
      </trkpt>
      <trkpt lat="44.45024" lon="5.90539">
        <ele>944</ele>
        <time>2019-06-25T08:44:22Z</time>
      </trkpt>
      <trkpt lat="44.45026" lon="5.90536">
        <ele>944</ele>
        <time>2019-06-25T08:44:23Z</time>
      </trkpt>
      <trkpt lat="44.45028" lon="5.90533">
        <ele>944</ele>
        <time>2019-06-25T08:44:24Z</time>
      </trkpt>
      <trkpt lat="44.45029" lon="5.9053">
        <ele>944</ele>
        <time>2019-06-25T08:44:25Z</time>
      </trkpt>
      <trkpt lat="44.45031" lon="5.90527">
        <ele>944</ele>
        <time>2019-06-25T08:44:26Z</time>
      </trkpt>
      <trkpt lat="44.45033" lon="5.90524">
        <ele>944</ele>
        <time>2019-06-25T08:44:27Z</time>
      </trkpt>
      <trkpt lat="44.45034" lon="5.90521">
        <ele>944</ele>
        <time>2019-06-25T08:44:28Z</time>
      </trkpt>
      <trkpt lat="44.45036" lon="5.90518">
        <ele>944</ele>
        <time>2019-06-25T08:44:29Z</time>
      </trkpt>
      <trkpt lat="44.45038" lon="5.90515">
        <ele>944</ele>
        <time>2019-06-25T08:44:30Z</time>
      </trkpt>
      <trkpt lat="44.4504" lon="5.90513">
        <ele>944</ele>
        <time>2019-06-25T08:44:31Z</time>
      </trkpt>
      <trkpt lat="44.45042" lon="5.9051">
        <ele>944</ele>
        <time>2019-06-25T08:44:32Z</time>
      </trkpt>
      <trkpt lat="44.45044" lon="5.90508">
        <ele>944</ele>
        <time>2019-06-25T08:44:33Z</time>
      </trkpt>
      <trkpt lat="44.45046" lon="5.90505">
        <ele>944</ele>
        <time>2019-06-25T08:44:34Z</time>
      </trkpt>
      <trkpt lat="44.45049" lon="5.90503">
        <ele>945</ele>
        <time>2019-06-25T08:44:35Z</time>
      </trkpt>
      <trkpt lat="44.45052" lon="5.90501">
        <ele>945</ele>
        <time>2019-06-25T08:44:36Z</time>
      </trkpt>
      <trkpt lat="44.45055" lon="5.90499">
        <ele>946</ele>
        <time>2019-06-25T08:44:37Z</time>
      </trkpt>
      <trkpt lat="44.45057" lon="5.90499">
        <ele>946</ele>
        <time>2019-06-25T08:44:38Z</time>
      </trkpt>
      <trkpt lat="44.45059" lon="5.90498">
        <ele>947</ele>
        <time>2019-06-25T08:44:39Z</time>
      </trkpt>
      <trkpt lat="44.45061" lon="5.90497">
        <ele>948</ele>
        <time>2019-06-25T08:44:40Z</time>
      </trkpt>
      <trkpt lat="44.45063" lon="5.90496">
        <ele>948</ele>
        <time>2019-06-25T08:44:41Z</time>
      </trkpt>
      <trkpt lat="44.45065" lon="5.90496">
        <ele>948</ele>
        <time>2019-06-25T08:44:42Z</time>
      </trkpt>
      <trkpt lat="44.45067" lon="5.90495">
        <ele>949</ele>
        <time>2019-06-25T08:44:43Z</time>
      </trkpt>
      <trkpt lat="44.45069" lon="5.90494">
        <ele>949</ele>
        <time>2019-06-25T08:44:44Z</time>
      </trkpt>
      <trkpt lat="44.45071" lon="5.90493">
        <ele>949</ele>
        <time>2019-06-25T08:44:45Z</time>
      </trkpt>
      <trkpt lat="44.45073" lon="5.90492">
        <ele>950</ele>
        <time>2019-06-25T08:44:46Z</time>
      </trkpt>
      <trkpt lat="44.45076" lon="5.90492">
        <ele>950</ele>
        <time>2019-06-25T08:44:47Z</time>
      </trkpt>
      <trkpt lat="44.45077" lon="5.90491">
        <ele>950</ele>
        <time>2019-06-25T08:44:48Z</time>
      </trkpt>
      <trkpt lat="44.45079" lon="5.9049">
        <ele>951</ele>
        <time>2019-06-25T08:44:49Z</time>
      </trkpt>
      <trkpt lat="44.45081" lon="5.90489">
        <ele>951</ele>
        <time>2019-06-25T08:44:50Z</time>
      </trkpt>
      <trkpt lat="44.45084" lon="5.90488">
        <ele>951</ele>
        <time>2019-06-25T08:44:51Z</time>
      </trkpt>
      <trkpt lat="44.45086" lon="5.90488">
        <ele>951</ele>
        <time>2019-06-25T08:44:52Z</time>
      </trkpt>
      <trkpt lat="44.45088" lon="5.90487">
        <ele>951</ele>
        <time>2019-06-25T08:44:53Z</time>
      </trkpt>
      <trkpt lat="44.4509" lon="5.90487">
        <ele>951</ele>
        <time>2019-06-25T08:44:54Z</time>
      </trkpt>
      <trkpt lat="44.45093" lon="5.90485">
        <ele>952</ele>
        <time>2019-06-25T08:44:55Z</time>
      </trkpt>
      <trkpt lat="44.45095" lon="5.90484">
        <ele>952</ele>
        <time>2019-06-25T08:44:56Z</time>
      </trkpt>
      <trkpt lat="44.45097" lon="5.90483">
        <ele>952</ele>
        <time>2019-06-25T08:44:57Z</time>
      </trkpt>
      <trkpt lat="44.451" lon="5.90482">
        <ele>952</ele>
        <time>2019-06-25T08:44:58Z</time>
      </trkpt>
      <trkpt lat="44.45102" lon="5.90481">
        <ele>952</ele>
        <time>2019-06-25T08:44:59Z</time>
      </trkpt>
      <trkpt lat="44.45104" lon="5.90479">
        <ele>952</ele>
        <time>2019-06-25T08:45:00Z</time>
      </trkpt>
      <trkpt lat="44.45106" lon="5.90478">
        <ele>953</ele>
        <time>2019-06-25T08:45:01Z</time>
      </trkpt>
      <trkpt lat="44.45109" lon="5.90476">
        <ele>953</ele>
        <time>2019-06-25T08:45:03Z</time>
      </trkpt>
      <trkpt lat="44.45111" lon="5.90474">
        <ele>954</ele>
        <time>2019-06-25T08:45:04Z</time>
      </trkpt>
      <trkpt lat="44.45113" lon="5.90473">
        <ele>954</ele>
        <time>2019-06-25T08:45:05Z</time>
      </trkpt>
      <trkpt lat="44.45116" lon="5.90471">
        <ele>954</ele>
        <time>2019-06-25T08:45:06Z</time>
      </trkpt>
      <trkpt lat="44.45118" lon="5.90469">
        <ele>954</ele>
        <time>2019-06-25T08:45:07Z</time>
      </trkpt>
      <trkpt lat="44.4512" lon="5.90467">
        <ele>955</ele>
        <time>2019-06-25T08:45:08Z</time>
      </trkpt>
      <trkpt lat="44.45122" lon="5.90465">
        <ele>955</ele>
        <time>2019-06-25T08:45:09Z</time>
      </trkpt>
      <trkpt lat="44.45124" lon="5.90463">
        <ele>955</ele>
        <time>2019-06-25T08:45:10Z</time>
      </trkpt>
      <trkpt lat="44.45126" lon="5.90461">
        <ele>955</ele>
        <time>2019-06-25T08:45:11Z</time>
      </trkpt>
      <trkpt lat="44.45128" lon="5.90459">
        <ele>955</ele>
        <time>2019-06-25T08:45:12Z</time>
      </trkpt>
      <trkpt lat="44.45129" lon="5.90457">
        <ele>955</ele>
        <time>2019-06-25T08:45:13Z</time>
      </trkpt>
      <trkpt lat="44.45131" lon="5.90454">
        <ele>955</ele>
        <time>2019-06-25T08:45:14Z</time>
      </trkpt>
      <trkpt lat="44.45133" lon="5.90452">
        <ele>955</ele>
        <time>2019-06-25T08:45:15Z</time>
      </trkpt>
      <trkpt lat="44.45135" lon="5.90449">
        <ele>955</ele>
        <time>2019-06-25T08:45:16Z</time>
      </trkpt>
      <trkpt lat="44.45137" lon="5.90447">
        <ele>955</ele>
        <time>2019-06-25T08:45:17Z</time>
      </trkpt>
      <trkpt lat="44.45138" lon="5.90445">
        <ele>955</ele>
        <time>2019-06-25T08:45:18Z</time>
      </trkpt>
      <trkpt lat="44.4514" lon="5.90442">
        <ele>955</ele>
        <time>2019-06-25T08:45:19Z</time>
      </trkpt>
      <trkpt lat="44.45141" lon="5.90439">
        <ele>956</ele>
        <time>2019-06-25T08:45:20Z</time>
      </trkpt>
      <trkpt lat="44.45143" lon="5.90437">
        <ele>956</ele>
        <time>2019-06-25T08:45:21Z</time>
      </trkpt>
      <trkpt lat="44.45144" lon="5.90434">
        <ele>956</ele>
        <time>2019-06-25T08:45:22Z</time>
      </trkpt>
      <trkpt lat="44.45146" lon="5.90431">
        <ele>956</ele>
        <time>2019-06-25T08:45:23Z</time>
      </trkpt>
      <trkpt lat="44.45148" lon="5.90429">
        <ele>956</ele>
        <time>2019-06-25T08:45:24Z</time>
      </trkpt>
      <trkpt lat="44.45149" lon="5.90426">
        <ele>957</ele>
        <time>2019-06-25T08:45:25Z</time>
      </trkpt>
      <trkpt lat="44.4515" lon="5.90423">
        <ele>957</ele>
        <time>2019-06-25T08:45:26Z</time>
      </trkpt>
      <trkpt lat="44.45152" lon="5.90419">
        <ele>958</ele>
        <time>2019-06-25T08:45:27Z</time>
      </trkpt>
      <trkpt lat="44.45153" lon="5.90415">
        <ele>958</ele>
        <time>2019-06-25T08:45:28Z</time>
      </trkpt>
      <trkpt lat="44.45155" lon="5.90412">
        <ele>958</ele>
        <time>2019-06-25T08:45:29Z</time>
      </trkpt>
      <trkpt lat="44.45156" lon="5.90409">
        <ele>959</ele>
        <time>2019-06-25T08:45:30Z</time>
      </trkpt>
      <trkpt lat="44.45158" lon="5.90405">
        <ele>959</ele>
        <time>2019-06-25T08:45:31Z</time>
      </trkpt>
      <trkpt lat="44.4516" lon="5.90402">
        <ele>959</ele>
        <time>2019-06-25T08:45:32Z</time>
      </trkpt>
      <trkpt lat="44.45161" lon="5.90399">
        <ele>959</ele>
        <time>2019-06-25T08:45:33Z</time>
      </trkpt>
      <trkpt lat="44.45163" lon="5.90396">
        <ele>959</ele>
        <time>2019-06-25T08:45:34Z</time>
      </trkpt>
      <trkpt lat="44.45163" lon="5.90392">
        <ele>959</ele>
        <time>2019-06-25T08:45:35Z</time>
      </trkpt>
      <trkpt lat="44.45165" lon="5.90389">
        <ele>959</ele>
        <time>2019-06-25T08:45:36Z</time>
      </trkpt>
      <trkpt lat="44.45166" lon="5.90385">
        <ele>959</ele>
        <time>2019-06-25T08:45:37Z</time>
      </trkpt>
      <trkpt lat="44.45167" lon="5.90382">
        <ele>959</ele>
        <time>2019-06-25T08:45:38Z</time>
      </trkpt>
      <trkpt lat="44.45169" lon="5.90379">
        <ele>959</ele>
        <time>2019-06-25T08:45:39Z</time>
      </trkpt>
      <trkpt lat="44.45171" lon="5.90375">
        <ele>959</ele>
        <time>2019-06-25T08:45:40Z</time>
      </trkpt>
      <trkpt lat="44.45171" lon="5.90372">
        <ele>959</ele>
        <time>2019-06-25T08:45:41Z</time>
      </trkpt>
      <trkpt lat="44.45173" lon="5.90369">
        <ele>959</ele>
        <time>2019-06-25T08:45:42Z</time>
      </trkpt>
      <trkpt lat="44.45174" lon="5.90365">
        <ele>959</ele>
        <time>2019-06-25T08:45:43Z</time>
      </trkpt>
      <trkpt lat="44.45175" lon="5.90362">
        <ele>960</ele>
        <time>2019-06-25T08:45:44Z</time>
      </trkpt>
      <trkpt lat="44.45176" lon="5.90359">
        <ele>960</ele>
        <time>2019-06-25T08:45:45Z</time>
      </trkpt>
      <trkpt lat="44.45178" lon="5.90356">
        <ele>960</ele>
        <time>2019-06-25T08:45:46Z</time>
      </trkpt>
      <trkpt lat="44.45179" lon="5.90353">
        <ele>960</ele>
        <time>2019-06-25T08:45:47Z</time>
      </trkpt>
      <trkpt lat="44.4518" lon="5.9035">
        <ele>960</ele>
        <time>2019-06-25T08:45:48Z</time>
      </trkpt>
      <trkpt lat="44.45182" lon="5.90347">
        <ele>960</ele>
        <time>2019-06-25T08:45:49Z</time>
      </trkpt>
      <trkpt lat="44.45183" lon="5.90344">
        <ele>960</ele>
        <time>2019-06-25T08:45:50Z</time>
      </trkpt>
      <trkpt lat="44.45184" lon="5.90341">
        <ele>960</ele>
        <time>2019-06-25T08:45:51Z</time>
      </trkpt>
      <trkpt lat="44.45186" lon="5.90338">
        <ele>961</ele>
        <time>2019-06-25T08:45:52Z</time>
      </trkpt>
      <trkpt lat="44.45187" lon="5.90334">
        <ele>961</ele>
        <time>2019-06-25T08:45:53Z</time>
      </trkpt>
      <trkpt lat="44.45189" lon="5.90331">
        <ele>961</ele>
        <time>2019-06-25T08:45:54Z</time>
      </trkpt>
      <trkpt lat="44.4519" lon="5.90328">
        <ele>962</ele>
        <time>2019-06-25T08:45:55Z</time>
      </trkpt>
      <trkpt lat="44.45192" lon="5.90324">
        <ele>962</ele>
        <time>2019-06-25T08:45:56Z</time>
      </trkpt>
      <trkpt lat="44.45193" lon="5.90322">
        <ele>963</ele>
        <time>2019-06-25T08:45:57Z</time>
      </trkpt>
      <trkpt lat="44.45195" lon="5.90318">
        <ele>963</ele>
        <time>2019-06-25T08:45:58Z</time>
      </trkpt>
      <trkpt lat="44.45198" lon="5.90315">
        <ele>963</ele>
        <time>2019-06-25T08:45:59Z</time>
      </trkpt>
      <trkpt lat="44.452" lon="5.90312">
        <ele>964</ele>
        <time>2019-06-25T08:46:00Z</time>
      </trkpt>
      <trkpt lat="44.45203" lon="5.90309">
        <ele>964</ele>
        <time>2019-06-25T08:46:01Z</time>
      </trkpt>
      <trkpt lat="44.45206" lon="5.90306">
        <ele>964</ele>
        <time>2019-06-25T08:46:02Z</time>
      </trkpt>
      <trkpt lat="44.45208" lon="5.90304">
        <ele>965</ele>
        <time>2019-06-25T08:46:03Z</time>
      </trkpt>
      <trkpt lat="44.45211" lon="5.90301">
        <ele>965</ele>
        <time>2019-06-25T08:46:04Z</time>
      </trkpt>
      <trkpt lat="44.45213" lon="5.90299">
        <ele>966</ele>
        <time>2019-06-25T08:46:05Z</time>
      </trkpt>
      <trkpt lat="44.45216" lon="5.90299">
        <ele>966</ele>
        <time>2019-06-25T08:46:06Z</time>
      </trkpt>
      <trkpt lat="44.45219" lon="5.90298">
        <ele>967</ele>
        <time>2019-06-25T08:46:07Z</time>
      </trkpt>
      <trkpt lat="44.45222" lon="5.90299">
        <ele>967</ele>
        <time>2019-06-25T08:46:08Z</time>
      </trkpt>
      <trkpt lat="44.45225" lon="5.90299">
        <ele>967</ele>
        <time>2019-06-25T08:46:09Z</time>
      </trkpt>
      <trkpt lat="44.45228" lon="5.903">
        <ele>967</ele>
        <time>2019-06-25T08:46:10Z</time>
      </trkpt>
      <trkpt lat="44.45231" lon="5.90301">
        <ele>967</ele>
        <time>2019-06-25T08:46:11Z</time>
      </trkpt>
      <trkpt lat="44.45235" lon="5.90302">
        <ele>967</ele>
        <time>2019-06-25T08:46:12Z</time>
      </trkpt>
      <trkpt lat="44.45237" lon="5.90302">
        <ele>968</ele>
        <time>2019-06-25T08:46:13Z</time>
      </trkpt>
      <trkpt lat="44.4524" lon="5.90302">
        <ele>968</ele>
        <time>2019-06-25T08:46:14Z</time>
      </trkpt>
      <trkpt lat="44.45243" lon="5.90302">
        <ele>968</ele>
        <time>2019-06-25T08:46:15Z</time>
      </trkpt>
      <trkpt lat="44.45246" lon="5.90303">
        <ele>968</ele>
        <time>2019-06-25T08:46:16Z</time>
      </trkpt>
      <trkpt lat="44.45249" lon="5.90303">
        <ele>968</ele>
        <time>2019-06-25T08:46:17Z</time>
      </trkpt>
      <trkpt lat="44.45251" lon="5.90305">
        <ele>968</ele>
        <time>2019-06-25T08:46:18Z</time>
      </trkpt>
      <trkpt lat="44.45254" lon="5.90305">
        <ele>968</ele>
        <time>2019-06-25T08:46:19Z</time>
      </trkpt>
      <trkpt lat="44.45257" lon="5.90306">
        <ele>968</ele>
        <time>2019-06-25T08:46:20Z</time>
      </trkpt>
      <trkpt lat="44.45261" lon="5.90307">
        <ele>968</ele>
        <time>2019-06-25T08:46:21Z</time>
      </trkpt>
      <trkpt lat="44.45264" lon="5.90308">
        <ele>968</ele>
        <time>2019-06-25T08:46:22Z</time>
      </trkpt>
      <trkpt lat="44.45267" lon="5.90309">
        <ele>968</ele>
        <time>2019-06-25T08:46:23Z</time>
      </trkpt>
      <trkpt lat="44.4527" lon="5.90309">
        <ele>968</ele>
        <time>2019-06-25T08:46:24Z</time>
      </trkpt>
      <trkpt lat="44.45273" lon="5.9031">
        <ele>968</ele>
        <time>2019-06-25T08:46:25Z</time>
      </trkpt>
      <trkpt lat="44.45275" lon="5.90311">
        <ele>968</ele>
        <time>2019-06-25T08:46:26Z</time>
      </trkpt>
      <trkpt lat="44.45278" lon="5.90312">
        <ele>968</ele>
        <time>2019-06-25T08:46:27Z</time>
      </trkpt>
      <trkpt lat="44.45281" lon="5.90313">
        <ele>968</ele>
        <time>2019-06-25T08:46:28Z</time>
      </trkpt>
      <trkpt lat="44.45284" lon="5.90315">
        <ele>969</ele>
        <time>2019-06-25T08:46:29Z</time>
      </trkpt>
      <trkpt lat="44.45286" lon="5.90317">
        <ele>969</ele>
        <time>2019-06-25T08:46:30Z</time>
      </trkpt>
      <trkpt lat="44.45289" lon="5.90319">
        <ele>969</ele>
        <time>2019-06-25T08:46:31Z</time>
      </trkpt>
      <trkpt lat="44.45293" lon="5.90321">
        <ele>969</ele>
        <time>2019-06-25T08:46:32Z</time>
      </trkpt>
      <trkpt lat="44.45295" lon="5.90322">
        <ele>969</ele>
        <time>2019-06-25T08:46:33Z</time>
      </trkpt>
      <trkpt lat="44.45299" lon="5.90324">
        <ele>970</ele>
        <time>2019-06-25T08:46:34Z</time>
      </trkpt>
      <trkpt lat="44.45302" lon="5.90326">
        <ele>970</ele>
        <time>2019-06-25T08:46:35Z</time>
      </trkpt>
      <trkpt lat="44.45304" lon="5.90328">
        <ele>970</ele>
        <time>2019-06-25T08:46:36Z</time>
      </trkpt>
      <trkpt lat="44.45307" lon="5.9033">
        <ele>971</ele>
        <time>2019-06-25T08:46:37Z</time>
      </trkpt>
      <trkpt lat="44.4531" lon="5.90331">
        <ele>971</ele>
        <time>2019-06-25T08:46:38Z</time>
      </trkpt>
      <trkpt lat="44.45313" lon="5.90333">
        <ele>971</ele>
        <time>2019-06-25T08:46:39Z</time>
      </trkpt>
      <trkpt lat="44.45315" lon="5.90335">
        <ele>972</ele>
        <time>2019-06-25T08:46:40Z</time>
      </trkpt>
      <trkpt lat="44.45318" lon="5.90336">
        <ele>972</ele>
        <time>2019-06-25T08:46:41Z</time>
      </trkpt>
      <trkpt lat="44.45321" lon="5.90337">
        <ele>972</ele>
        <time>2019-06-25T08:46:42Z</time>
      </trkpt>
      <trkpt lat="44.45324" lon="5.90337">
        <ele>972</ele>
        <time>2019-06-25T08:46:43Z</time>
      </trkpt>
      <trkpt lat="44.45328" lon="5.90337">
        <ele>972</ele>
        <time>2019-06-25T08:46:44Z</time>
      </trkpt>
      <trkpt lat="44.45331" lon="5.90337">
        <ele>972</ele>
        <time>2019-06-25T08:46:45Z</time>
      </trkpt>
      <trkpt lat="44.45334" lon="5.90337">
        <ele>972</ele>
        <time>2019-06-25T08:46:46Z</time>
      </trkpt>
      <trkpt lat="44.45337" lon="5.90336">
        <ele>972</ele>
        <time>2019-06-25T08:46:47Z</time>
      </trkpt>
      <trkpt lat="44.4534" lon="5.90336">
        <ele>972</ele>
        <time>2019-06-25T08:46:48Z</time>
      </trkpt>
      <trkpt lat="44.45343" lon="5.90335">
        <ele>972</ele>
        <time>2019-06-25T08:46:49Z</time>
      </trkpt>
      <trkpt lat="44.45346" lon="5.90334">
        <ele>972</ele>
        <time>2019-06-25T08:46:50Z</time>
      </trkpt>
      <trkpt lat="44.45348" lon="5.90333">
        <ele>972</ele>
        <time>2019-06-25T08:46:51Z</time>
      </trkpt>
      <trkpt lat="44.45351" lon="5.90332">
        <ele>972</ele>
        <time>2019-06-25T08:46:52Z</time>
      </trkpt>
      <trkpt lat="44.45353" lon="5.90331">
        <ele>972</ele>
        <time>2019-06-25T08:46:53Z</time>
      </trkpt>
      <trkpt lat="44.45356" lon="5.9033">
        <ele>972</ele>
        <time>2019-06-25T08:46:54Z</time>
      </trkpt>
      <trkpt lat="44.45359" lon="5.90329">
        <ele>972</ele>
        <time>2019-06-25T08:46:55Z</time>
      </trkpt>
      <trkpt lat="44.45361" lon="5.90328">
        <ele>973</ele>
        <time>2019-06-25T08:46:56Z</time>
      </trkpt>
      <trkpt lat="44.45363" lon="5.90327">
        <ele>973</ele>
        <time>2019-06-25T08:46:57Z</time>
      </trkpt>
      <trkpt lat="44.45366" lon="5.90325">
        <ele>973</ele>
        <time>2019-06-25T08:46:58Z</time>
      </trkpt>
      <trkpt lat="44.45368" lon="5.90324">
        <ele>973</ele>
        <time>2019-06-25T08:46:59Z</time>
      </trkpt>
      <trkpt lat="44.4537" lon="5.90322">
        <ele>974</ele>
        <time>2019-06-25T08:47:00Z</time>
      </trkpt>
      <trkpt lat="44.45372" lon="5.90321">
        <ele>974</ele>
        <time>2019-06-25T08:47:01Z</time>
      </trkpt>
      <trkpt lat="44.45374" lon="5.90321">
        <ele>974</ele>
        <time>2019-06-25T08:47:02Z</time>
      </trkpt>
      <trkpt lat="44.45376" lon="5.9032">
        <ele>975</ele>
        <time>2019-06-25T08:47:03Z</time>
      </trkpt>
      <trkpt lat="44.45378" lon="5.90319">
        <ele>975</ele>
        <time>2019-06-25T08:47:04Z</time>
      </trkpt>
      <trkpt lat="44.4538" lon="5.90317">
        <ele>975</ele>
        <time>2019-06-25T08:47:05Z</time>
      </trkpt>
      <trkpt lat="44.45382" lon="5.90316">
        <ele>975</ele>
        <time>2019-06-25T08:47:06Z</time>
      </trkpt>
      <trkpt lat="44.45385" lon="5.90314">
        <ele>975</ele>
        <time>2019-06-25T08:47:07Z</time>
      </trkpt>
      <trkpt lat="44.45387" lon="5.90313">
        <ele>975</ele>
        <time>2019-06-25T08:47:08Z</time>
      </trkpt>
      <trkpt lat="44.4539" lon="5.90313">
        <ele>976</ele>
        <time>2019-06-25T08:47:09Z</time>
      </trkpt>
      <trkpt lat="44.45392" lon="5.90311">
        <ele>976</ele>
        <time>2019-06-25T08:47:10Z</time>
      </trkpt>
      <trkpt lat="44.45395" lon="5.9031">
        <ele>976</ele>
        <time>2019-06-25T08:47:11Z</time>
      </trkpt>
      <trkpt lat="44.45397" lon="5.90309">
        <ele>976</ele>
        <time>2019-06-25T08:47:12Z</time>
      </trkpt>
      <trkpt lat="44.45399" lon="5.90307">
        <ele>976</ele>
        <time>2019-06-25T08:47:13Z</time>
      </trkpt>
      <trkpt lat="44.45401" lon="5.90305">
        <ele>976</ele>
        <time>2019-06-25T08:47:14Z</time>
      </trkpt>
      <trkpt lat="44.45404" lon="5.90304">
        <ele>976</ele>
        <time>2019-06-25T08:47:15Z</time>
      </trkpt>
      <trkpt lat="44.45406" lon="5.90303">
        <ele>976</ele>
        <time>2019-06-25T08:47:16Z</time>
      </trkpt>
      <trkpt lat="44.45408" lon="5.90301">
        <ele>976</ele>
        <time>2019-06-25T08:47:17Z</time>
      </trkpt>
      <trkpt lat="44.4541" lon="5.903">
        <ele>976</ele>
        <time>2019-06-25T08:47:18Z</time>
      </trkpt>
      <trkpt lat="44.45412" lon="5.90298">
        <ele>976</ele>
        <time>2019-06-25T08:47:19Z</time>
      </trkpt>
      <trkpt lat="44.45414" lon="5.90297">
        <ele>976</ele>
        <time>2019-06-25T08:47:20Z</time>
      </trkpt>
      <trkpt lat="44.45416" lon="5.90295">
        <ele>976</ele>
        <time>2019-06-25T08:47:21Z</time>
      </trkpt>
      <trkpt lat="44.45418" lon="5.90293">
        <ele>976</ele>
        <time>2019-06-25T08:47:22Z</time>
      </trkpt>
      <trkpt lat="44.45419" lon="5.90291">
        <ele>976</ele>
        <time>2019-06-25T08:47:23Z</time>
      </trkpt>
      <trkpt lat="44.4542" lon="5.90289">
        <ele>976</ele>
        <time>2019-06-25T08:47:24Z</time>
      </trkpt>
      <trkpt lat="44.45422" lon="5.90287">
        <ele>977</ele>
        <time>2019-06-25T08:47:25Z</time>
      </trkpt>
      <trkpt lat="44.45423" lon="5.90285">
        <ele>977</ele>
        <time>2019-06-25T08:47:26Z</time>
      </trkpt>
      <trkpt lat="44.45425" lon="5.90283">
        <ele>978</ele>
        <time>2019-06-25T08:47:27Z</time>
      </trkpt>
      <trkpt lat="44.45426" lon="5.90281">
        <ele>978</ele>
        <time>2019-06-25T08:47:28Z</time>
      </trkpt>
      <trkpt lat="44.45428" lon="5.90278">
        <ele>979</ele>
        <time>2019-06-25T08:47:29Z</time>
      </trkpt>
      <trkpt lat="44.45429" lon="5.90275">
        <ele>979</ele>
        <time>2019-06-25T08:47:30Z</time>
      </trkpt>
      <trkpt lat="44.45431" lon="5.90273">
        <ele>979</ele>
        <time>2019-06-25T08:47:31Z</time>
      </trkpt>
      <trkpt lat="44.45432" lon="5.9027">
        <ele>980</ele>
        <time>2019-06-25T08:47:32Z</time>
      </trkpt>
      <trkpt lat="44.45432" lon="5.90268">
        <ele>980</ele>
        <time>2019-06-25T08:47:33Z</time>
      </trkpt>
      <trkpt lat="44.45433" lon="5.90266">
        <ele>980</ele>
        <time>2019-06-25T08:47:34Z</time>
      </trkpt>
      <trkpt lat="44.45433" lon="5.90263">
        <ele>981</ele>
        <time>2019-06-25T08:47:35Z</time>
      </trkpt>
      <trkpt lat="44.45433" lon="5.9026">
        <ele>981</ele>
        <time>2019-06-25T08:47:36Z</time>
      </trkpt>
      <trkpt lat="44.45433" lon="5.90257">
        <ele>981</ele>
        <time>2019-06-25T08:47:37Z</time>
      </trkpt>
      <trkpt lat="44.45434" lon="5.90254">
        <ele>981</ele>
        <time>2019-06-25T08:47:38Z</time>
      </trkpt>
      <trkpt lat="44.45435" lon="5.90251">
        <ele>981</ele>
        <time>2019-06-25T08:47:39Z</time>
      </trkpt>
      <trkpt lat="44.45435" lon="5.90248">
        <ele>981</ele>
        <time>2019-06-25T08:47:40Z</time>
      </trkpt>
      <trkpt lat="44.45435" lon="5.90245">
        <ele>981</ele>
        <time>2019-06-25T08:47:41Z</time>
      </trkpt>
      <trkpt lat="44.45435" lon="5.90242">
        <ele>981</ele>
        <time>2019-06-25T08:47:42Z</time>
      </trkpt>
      <trkpt lat="44.45436" lon="5.90239">
        <ele>981</ele>
        <time>2019-06-25T08:47:43Z</time>
      </trkpt>
      <trkpt lat="44.45436" lon="5.90236">
        <ele>981</ele>
        <time>2019-06-25T08:47:44Z</time>
      </trkpt>
      <trkpt lat="44.45436" lon="5.90232">
        <ele>981</ele>
        <time>2019-06-25T08:47:45Z</time>
      </trkpt>
      <trkpt lat="44.45436" lon="5.90229">
        <ele>981</ele>
        <time>2019-06-25T08:47:46Z</time>
      </trkpt>
      <trkpt lat="44.45436" lon="5.90226">
        <ele>981</ele>
        <time>2019-06-25T08:47:47Z</time>
      </trkpt>
      <trkpt lat="44.45436" lon="5.90223">
        <ele>981</ele>
        <time>2019-06-25T08:47:48Z</time>
      </trkpt>
      <trkpt lat="44.45437" lon="5.90219">
        <ele>981</ele>
        <time>2019-06-25T08:47:49Z</time>
      </trkpt>
      <trkpt lat="44.45438" lon="5.90216">
        <ele>981</ele>
        <time>2019-06-25T08:47:50Z</time>
      </trkpt>
      <trkpt lat="44.45438" lon="5.90213">
        <ele>981</ele>
        <time>2019-06-25T08:47:51Z</time>
      </trkpt>
      <trkpt lat="44.45439" lon="5.9021">
        <ele>981</ele>
        <time>2019-06-25T08:47:52Z</time>
      </trkpt>
      <trkpt lat="44.4544" lon="5.90207">
        <ele>981</ele>
        <time>2019-06-25T08:47:53Z</time>
      </trkpt>
      <trkpt lat="44.45441" lon="5.90204">
        <ele>981</ele>
        <time>2019-06-25T08:47:54Z</time>
      </trkpt>
      <trkpt lat="44.45442" lon="5.90201">
        <ele>982</ele>
        <time>2019-06-25T08:47:55Z</time>
      </trkpt>
      <trkpt lat="44.45444" lon="5.90198">
        <ele>982</ele>
        <time>2019-06-25T08:47:56Z</time>
      </trkpt>
      <trkpt lat="44.45446" lon="5.90196">
        <ele>982</ele>
        <time>2019-06-25T08:47:57Z</time>
      </trkpt>
      <trkpt lat="44.45447" lon="5.90193">
        <ele>982</ele>
        <time>2019-06-25T08:47:58Z</time>
      </trkpt>
      <trkpt lat="44.45449" lon="5.9019">
        <ele>982</ele>
        <time>2019-06-25T08:47:59Z</time>
      </trkpt>
      <trkpt lat="44.4545" lon="5.90187">
        <ele>983</ele>
        <time>2019-06-25T08:48:00Z</time>
      </trkpt>
      <trkpt lat="44.45451" lon="5.90184">
        <ele>983</ele>
        <time>2019-06-25T08:48:01Z</time>
      </trkpt>
      <trkpt lat="44.45452" lon="5.90181">
        <ele>983</ele>
        <time>2019-06-25T08:48:02Z</time>
      </trkpt>
      <trkpt lat="44.45454" lon="5.90179">
        <ele>984</ele>
        <time>2019-06-25T08:48:03Z</time>
      </trkpt>
      <trkpt lat="44.45455" lon="5.90176">
        <ele>984</ele>
        <time>2019-06-25T08:48:04Z</time>
      </trkpt>
      <trkpt lat="44.45457" lon="5.90174">
        <ele>984</ele>
        <time>2019-06-25T08:48:05Z</time>
      </trkpt>
      <trkpt lat="44.45458" lon="5.90171">
        <ele>984</ele>
        <time>2019-06-25T08:48:06Z</time>
      </trkpt>
      <trkpt lat="44.45459" lon="5.90168">
        <ele>985</ele>
        <time>2019-06-25T08:48:07Z</time>
      </trkpt>
      <trkpt lat="44.4546" lon="5.90165">
        <ele>985</ele>
        <time>2019-06-25T08:48:08Z</time>
      </trkpt>
      <trkpt lat="44.45462" lon="5.90163">
        <ele>985</ele>
        <time>2019-06-25T08:48:09Z</time>
      </trkpt>
      <trkpt lat="44.45463" lon="5.9016">
        <ele>985</ele>
        <time>2019-06-25T08:48:10Z</time>
      </trkpt>
      <trkpt lat="44.45464" lon="5.90157">
        <ele>986</ele>
        <time>2019-06-25T08:48:11Z</time>
      </trkpt>
      <trkpt lat="44.45465" lon="5.90154">
        <ele>986</ele>
        <time>2019-06-25T08:48:12Z</time>
      </trkpt>
      <trkpt lat="44.45467" lon="5.90151">
        <ele>986</ele>
        <time>2019-06-25T08:48:13Z</time>
      </trkpt>
      <trkpt lat="44.45468" lon="5.90148">
        <ele>986</ele>
        <time>2019-06-25T08:48:14Z</time>
      </trkpt>
      <trkpt lat="44.45469" lon="5.90146">
        <ele>987</ele>
        <time>2019-06-25T08:48:15Z</time>
      </trkpt>
      <trkpt lat="44.4547" lon="5.90143">
        <ele>987</ele>
        <time>2019-06-25T08:48:16Z</time>
      </trkpt>
      <trkpt lat="44.45471" lon="5.9014">
        <ele>987</ele>
        <time>2019-06-25T08:48:17Z</time>
      </trkpt>
      <trkpt lat="44.45472" lon="5.90137">
        <ele>987</ele>
        <time>2019-06-25T08:48:18Z</time>
      </trkpt>
      <trkpt lat="44.45472" lon="5.90134">
        <ele>987</ele>
        <time>2019-06-25T08:48:19Z</time>
      </trkpt>
      <trkpt lat="44.45473" lon="5.90131">
        <ele>987</ele>
        <time>2019-06-25T08:48:20Z</time>
      </trkpt>
      <trkpt lat="44.45474" lon="5.90128">
        <ele>987</ele>
        <time>2019-06-25T08:48:21Z</time>
      </trkpt>
      <trkpt lat="44.45475" lon="5.90125">
        <ele>987</ele>
        <time>2019-06-25T08:48:22Z</time>
      </trkpt>
      <trkpt lat="44.45476" lon="5.90122">
        <ele>987</ele>
        <time>2019-06-25T08:48:23Z</time>
      </trkpt>
      <trkpt lat="44.45478" lon="5.9012">
        <ele>987</ele>
        <time>2019-06-25T08:48:24Z</time>
      </trkpt>
      <trkpt lat="44.45479" lon="5.90117">
        <ele>987</ele>
        <time>2019-06-25T08:48:25Z</time>
      </trkpt>
      <trkpt lat="44.4548" lon="5.90114">
        <ele>988</ele>
        <time>2019-06-25T08:48:26Z</time>
      </trkpt>
      <trkpt lat="44.45481" lon="5.90111">
        <ele>988</ele>
        <time>2019-06-25T08:48:27Z</time>
      </trkpt>
      <trkpt lat="44.45481" lon="5.90108">
        <ele>988</ele>
        <time>2019-06-25T08:48:28Z</time>
      </trkpt>
      <trkpt lat="44.45482" lon="5.90105">
        <ele>988</ele>
        <time>2019-06-25T08:48:29Z</time>
      </trkpt>
      <trkpt lat="44.45483" lon="5.90102">
        <ele>988</ele>
        <time>2019-06-25T08:48:30Z</time>
      </trkpt>
      <trkpt lat="44.45484" lon="5.90099">
        <ele>988</ele>
        <time>2019-06-25T08:48:31Z</time>
      </trkpt>
      <trkpt lat="44.45485" lon="5.90096">
        <ele>988</ele>
        <time>2019-06-25T08:48:32Z</time>
      </trkpt>
      <trkpt lat="44.45486" lon="5.90093">
        <ele>988</ele>
        <time>2019-06-25T08:48:33Z</time>
      </trkpt>
      <trkpt lat="44.45487" lon="5.90089">
        <ele>988</ele>
        <time>2019-06-25T08:48:34Z</time>
      </trkpt>
      <trkpt lat="44.45487" lon="5.90086">
        <ele>988</ele>
        <time>2019-06-25T08:48:35Z</time>
      </trkpt>
      <trkpt lat="44.45488" lon="5.90082">
        <ele>988</ele>
        <time>2019-06-25T08:48:36Z</time>
      </trkpt>
      <trkpt lat="44.45489" lon="5.90079">
        <ele>988</ele>
        <time>2019-06-25T08:48:37Z</time>
      </trkpt>
      <trkpt lat="44.45491" lon="5.90075">
        <ele>989</ele>
        <time>2019-06-25T08:48:38Z</time>
      </trkpt>
      <trkpt lat="44.45492" lon="5.90072">
        <ele>989</ele>
        <time>2019-06-25T08:48:39Z</time>
      </trkpt>
      <trkpt lat="44.45493" lon="5.90069">
        <ele>989</ele>
        <time>2019-06-25T08:48:40Z</time>
      </trkpt>
      <trkpt lat="44.45494" lon="5.90065">
        <ele>990</ele>
        <time>2019-06-25T08:48:41Z</time>
      </trkpt>
      <trkpt lat="44.45495" lon="5.90062">
        <ele>990</ele>
        <time>2019-06-25T08:48:42Z</time>
      </trkpt>
      <trkpt lat="44.45496" lon="5.90059">
        <ele>990</ele>
        <time>2019-06-25T08:48:43Z</time>
      </trkpt>
      <trkpt lat="44.45497" lon="5.90055">
        <ele>990</ele>
        <time>2019-06-25T08:48:44Z</time>
      </trkpt>
      <trkpt lat="44.45498" lon="5.90052">
        <ele>990</ele>
        <time>2019-06-25T08:48:45Z</time>
      </trkpt>
      <trkpt lat="44.45499" lon="5.90049">
        <ele>990</ele>
        <time>2019-06-25T08:48:46Z</time>
      </trkpt>
      <trkpt lat="44.455" lon="5.90045">
        <ele>991</ele>
        <time>2019-06-25T08:48:47Z</time>
      </trkpt>
      <trkpt lat="44.45501" lon="5.90042">
        <ele>991</ele>
        <time>2019-06-25T08:48:48Z</time>
      </trkpt>
      <trkpt lat="44.45501" lon="5.90039">
        <ele>991</ele>
        <time>2019-06-25T08:48:49Z</time>
      </trkpt>
      <trkpt lat="44.45503" lon="5.90036">
        <ele>991</ele>
        <time>2019-06-25T08:48:50Z</time>
      </trkpt>
      <trkpt lat="44.45504" lon="5.90033">
        <ele>991</ele>
        <time>2019-06-25T08:48:51Z</time>
      </trkpt>
      <trkpt lat="44.45505" lon="5.9003">
        <ele>991</ele>
        <time>2019-06-25T08:48:52Z</time>
      </trkpt>
      <trkpt lat="44.45506" lon="5.90027">
        <ele>991</ele>
        <time>2019-06-25T08:48:53Z</time>
      </trkpt>
      <trkpt lat="44.45508" lon="5.90024">
        <ele>992</ele>
        <time>2019-06-25T08:48:54Z</time>
      </trkpt>
      <trkpt lat="44.45509" lon="5.90021">
        <ele>992</ele>
        <time>2019-06-25T08:48:55Z</time>
      </trkpt>
      <trkpt lat="44.4551" lon="5.90018">
        <ele>992</ele>
        <time>2019-06-25T08:48:56Z</time>
      </trkpt>
      <trkpt lat="44.45511" lon="5.90015">
        <ele>992</ele>
        <time>2019-06-25T08:48:57Z</time>
      </trkpt>
      <trkpt lat="44.45511" lon="5.90012">
        <ele>993</ele>
        <time>2019-06-25T08:48:58Z</time>
      </trkpt>
      <trkpt lat="44.45512" lon="5.90008">
        <ele>993</ele>
        <time>2019-06-25T08:48:59Z</time>
      </trkpt>
      <trkpt lat="44.45512" lon="5.90005">
        <ele>993</ele>
        <time>2019-06-25T08:49:00Z</time>
      </trkpt>
      <trkpt lat="44.45512" lon="5.90003">
        <ele>993</ele>
        <time>2019-06-25T08:49:01Z</time>
      </trkpt>
      <trkpt lat="44.45514" lon="5.9">
        <ele>993</ele>
        <time>2019-06-25T08:49:02Z</time>
      </trkpt>
      <trkpt lat="44.45514" lon="5.89997">
        <ele>993</ele>
        <time>2019-06-25T08:49:03Z</time>
      </trkpt>
      <trkpt lat="44.45515" lon="5.89994">
        <ele>993</ele>
        <time>2019-06-25T08:49:04Z</time>
      </trkpt>
      <trkpt lat="44.45515" lon="5.89991">
        <ele>993</ele>
        <time>2019-06-25T08:49:05Z</time>
      </trkpt>
      <trkpt lat="44.45516" lon="5.89988">
        <ele>993</ele>
        <time>2019-06-25T08:49:06Z</time>
      </trkpt>
      <trkpt lat="44.45516" lon="5.89985">
        <ele>993</ele>
        <time>2019-06-25T08:49:07Z</time>
      </trkpt>
      <trkpt lat="44.45517" lon="5.89982">
        <ele>993</ele>
        <time>2019-06-25T08:49:08Z</time>
      </trkpt>
      <trkpt lat="44.45517" lon="5.89979">
        <ele>993</ele>
        <time>2019-06-25T08:49:09Z</time>
      </trkpt>
      <trkpt lat="44.45518" lon="5.89975">
        <ele>993</ele>
        <time>2019-06-25T08:49:10Z</time>
      </trkpt>
      <trkpt lat="44.45518" lon="5.89972">
        <ele>993</ele>
        <time>2019-06-25T08:49:11Z</time>
      </trkpt>
      <trkpt lat="44.45519" lon="5.89969">
        <ele>993</ele>
        <time>2019-06-25T08:49:12Z</time>
      </trkpt>
      <trkpt lat="44.45519" lon="5.89965">
        <ele>994</ele>
        <time>2019-06-25T08:49:13Z</time>
      </trkpt>
      <trkpt lat="44.45519" lon="5.89962">
        <ele>994</ele>
        <time>2019-06-25T08:49:14Z</time>
      </trkpt>
      <trkpt lat="44.4552" lon="5.89958">
        <ele>994</ele>
        <time>2019-06-25T08:49:15Z</time>
      </trkpt>
      <trkpt lat="44.4552" lon="5.89955">
        <ele>994</ele>
        <time>2019-06-25T08:49:16Z</time>
      </trkpt>
      <trkpt lat="44.4552" lon="5.89951">
        <ele>994</ele>
        <time>2019-06-25T08:49:17Z</time>
      </trkpt>
      <trkpt lat="44.4552" lon="5.89947">
        <ele>994</ele>
        <time>2019-06-25T08:49:18Z</time>
      </trkpt>
      <trkpt lat="44.4552" lon="5.89944">
        <ele>995</ele>
        <time>2019-06-25T08:49:19Z</time>
      </trkpt>
      <trkpt lat="44.4552" lon="5.8994">
        <ele>995</ele>
        <time>2019-06-25T08:49:20Z</time>
      </trkpt>
      <trkpt lat="44.4552" lon="5.89936">
        <ele>995</ele>
        <time>2019-06-25T08:49:21Z</time>
      </trkpt>
      <trkpt lat="44.45519" lon="5.89932">
        <ele>995</ele>
        <time>2019-06-25T08:49:22Z</time>
      </trkpt>
      <trkpt lat="44.45518" lon="5.89928">
        <ele>995</ele>
        <time>2019-06-25T08:49:23Z</time>
      </trkpt>
      <trkpt lat="44.45518" lon="5.89925">
        <ele>995</ele>
        <time>2019-06-25T08:49:24Z</time>
      </trkpt>
      <trkpt lat="44.45517" lon="5.89921">
        <ele>995</ele>
        <time>2019-06-25T08:49:25Z</time>
      </trkpt>
      <trkpt lat="44.45517" lon="5.89917">
        <ele>995</ele>
        <time>2019-06-25T08:49:26Z</time>
      </trkpt>
      <trkpt lat="44.45516" lon="5.89914">
        <ele>995</ele>
        <time>2019-06-25T08:49:27Z</time>
      </trkpt>
      <trkpt lat="44.45515" lon="5.8991">
        <ele>995</ele>
        <time>2019-06-25T08:49:28Z</time>
      </trkpt>
      <trkpt lat="44.45515" lon="5.89906">
        <ele>995</ele>
        <time>2019-06-25T08:49:29Z</time>
      </trkpt>
      <trkpt lat="44.45514" lon="5.89903">
        <ele>995</ele>
        <time>2019-06-25T08:49:30Z</time>
      </trkpt>
      <trkpt lat="44.45513" lon="5.89899">
        <ele>996</ele>
        <time>2019-06-25T08:49:31Z</time>
      </trkpt>
      <trkpt lat="44.45512" lon="5.89896">
        <ele>996</ele>
        <time>2019-06-25T08:49:32Z</time>
      </trkpt>
      <trkpt lat="44.45511" lon="5.89893">
        <ele>996</ele>
        <time>2019-06-25T08:49:33Z</time>
      </trkpt>
      <trkpt lat="44.4551" lon="5.89889">
        <ele>996</ele>
        <time>2019-06-25T08:49:34Z</time>
      </trkpt>
      <trkpt lat="44.45509" lon="5.89886">
        <ele>996</ele>
        <time>2019-06-25T08:49:35Z</time>
      </trkpt>
      <trkpt lat="44.45508" lon="5.89882">
        <ele>996</ele>
        <time>2019-06-25T08:49:36Z</time>
      </trkpt>
      <trkpt lat="44.45507" lon="5.89879">
        <ele>996</ele>
        <time>2019-06-25T08:49:37Z</time>
      </trkpt>
      <trkpt lat="44.45506" lon="5.89876">
        <ele>996</ele>
        <time>2019-06-25T08:49:38Z</time>
      </trkpt>
      <trkpt lat="44.45505" lon="5.89872">
        <ele>996</ele>
        <time>2019-06-25T08:49:39Z</time>
      </trkpt>
      <trkpt lat="44.45504" lon="5.89869">
        <ele>996</ele>
        <time>2019-06-25T08:49:40Z</time>
      </trkpt>
      <trkpt lat="44.45503" lon="5.89865">
        <ele>997</ele>
        <time>2019-06-25T08:49:41Z</time>
      </trkpt>
      <trkpt lat="44.45502" lon="5.89861">
        <ele>997</ele>
        <time>2019-06-25T08:49:42Z</time>
      </trkpt>
      <trkpt lat="44.45501" lon="5.89857">
        <ele>997</ele>
        <time>2019-06-25T08:49:43Z</time>
      </trkpt>
      <trkpt lat="44.45501" lon="5.89853">
        <ele>998</ele>
        <time>2019-06-25T08:49:44Z</time>
      </trkpt>
      <trkpt lat="44.455" lon="5.8985">
        <ele>998</ele>
        <time>2019-06-25T08:49:45Z</time>
      </trkpt>
      <trkpt lat="44.45499" lon="5.89846">
        <ele>999</ele>
        <time>2019-06-25T08:49:46Z</time>
      </trkpt>
      <trkpt lat="44.45499" lon="5.89842">
        <ele>999</ele>
        <time>2019-06-25T08:49:47Z</time>
      </trkpt>
      <trkpt lat="44.45499" lon="5.89837">
        <ele>999</ele>
        <time>2019-06-25T08:49:48Z</time>
      </trkpt>
      <trkpt lat="44.455" lon="5.89833">
        <ele>1000</ele>
        <time>2019-06-25T08:49:49Z</time>
      </trkpt>
      <trkpt lat="44.45501" lon="5.89829">
        <ele>1000</ele>
        <time>2019-06-25T08:49:50Z</time>
      </trkpt>
      <trkpt lat="44.45503" lon="5.89825">
        <ele>1000</ele>
        <time>2019-06-25T08:49:51Z</time>
      </trkpt>
      <trkpt lat="44.45505" lon="5.89822">
        <ele>1000</ele>
        <time>2019-06-25T08:49:52Z</time>
      </trkpt>
      <trkpt lat="44.45507" lon="5.89819">
        <ele>1000</ele>
        <time>2019-06-25T08:49:53Z</time>
      </trkpt>
      <trkpt lat="44.45509" lon="5.89816">
        <ele>1000</ele>
        <time>2019-06-25T08:49:54Z</time>
      </trkpt>
      <trkpt lat="44.45512" lon="5.89813">
        <ele>1000</ele>
        <time>2019-06-25T08:49:55Z</time>
      </trkpt>
      <trkpt lat="44.45515" lon="5.89811">
        <ele>1000</ele>
        <time>2019-06-25T08:49:56Z</time>
      </trkpt>
      <trkpt lat="44.45518" lon="5.89809">
        <ele>1000</ele>
        <time>2019-06-25T08:49:57Z</time>
      </trkpt>
      <trkpt lat="44.45521" lon="5.89807">
        <ele>1001</ele>
        <time>2019-06-25T08:49:58Z</time>
      </trkpt>
      <trkpt lat="44.45524" lon="5.89805">
        <ele>1001</ele>
        <time>2019-06-25T08:49:59Z</time>
      </trkpt>
      <trkpt lat="44.45527" lon="5.89804">
        <ele>1001</ele>
        <time>2019-06-25T08:50:00Z</time>
      </trkpt>
      <trkpt lat="44.4553" lon="5.89803">
        <ele>1001</ele>
        <time>2019-06-25T08:50:01Z</time>
      </trkpt>
      <trkpt lat="44.45534" lon="5.89802">
        <ele>1002</ele>
        <time>2019-06-25T08:50:02Z</time>
      </trkpt>
      <trkpt lat="44.45537" lon="5.89801">
        <ele>1002</ele>
        <time>2019-06-25T08:50:03Z</time>
      </trkpt>
      <trkpt lat="44.4554" lon="5.89801">
        <ele>1002</ele>
        <time>2019-06-25T08:50:04Z</time>
      </trkpt>
      <trkpt lat="44.45543" lon="5.898">
        <ele>1002</ele>
        <time>2019-06-25T08:50:05Z</time>
      </trkpt>
      <trkpt lat="44.45546" lon="5.89799">
        <ele>1003</ele>
        <time>2019-06-25T08:50:06Z</time>
      </trkpt>
      <trkpt lat="44.45549" lon="5.89799">
        <ele>1003</ele>
        <time>2019-06-25T08:50:07Z</time>
      </trkpt>
      <trkpt lat="44.45551" lon="5.89798">
        <ele>1003</ele>
        <time>2019-06-25T08:50:08Z</time>
      </trkpt>
      <trkpt lat="44.45554" lon="5.89797">
        <ele>1003</ele>
        <time>2019-06-25T08:50:09Z</time>
      </trkpt>
      <trkpt lat="44.45556" lon="5.89796">
        <ele>1004</ele>
        <time>2019-06-25T08:50:10Z</time>
      </trkpt>
      <trkpt lat="44.45559" lon="5.89795">
        <ele>1004</ele>
        <time>2019-06-25T08:50:11Z</time>
      </trkpt>
      <trkpt lat="44.45561" lon="5.89793">
        <ele>1004</ele>
        <time>2019-06-25T08:50:12Z</time>
      </trkpt>
      <trkpt lat="44.45563" lon="5.8979">
        <ele>1005</ele>
        <time>2019-06-25T08:50:13Z</time>
      </trkpt>
      <trkpt lat="44.45566" lon="5.89788">
        <ele>1006</ele>
        <time>2019-06-25T08:50:14Z</time>
      </trkpt>
      <trkpt lat="44.45568" lon="5.89786">
        <ele>1006</ele>
        <time>2019-06-25T08:50:15Z</time>
      </trkpt>
      <trkpt lat="44.4557" lon="5.89783">
        <ele>1007</ele>
        <time>2019-06-25T08:50:16Z</time>
      </trkpt>
      <trkpt lat="44.45572" lon="5.89781">
        <ele>1008</ele>
        <time>2019-06-25T08:50:17Z</time>
      </trkpt>
      <trkpt lat="44.45574" lon="5.89778">
        <ele>1008</ele>
        <time>2019-06-25T08:50:18Z</time>
      </trkpt>
      <trkpt lat="44.45576" lon="5.89775">
        <ele>1009</ele>
        <time>2019-06-25T08:50:19Z</time>
      </trkpt>
      <trkpt lat="44.45578" lon="5.89773">
        <ele>1009</ele>
        <time>2019-06-25T08:50:20Z</time>
      </trkpt>
      <trkpt lat="44.4558" lon="5.8977">
        <ele>1009</ele>
        <time>2019-06-25T08:50:21Z</time>
      </trkpt>
      <trkpt lat="44.45582" lon="5.89768">
        <ele>1010</ele>
        <time>2019-06-25T08:50:22Z</time>
      </trkpt>
      <trkpt lat="44.45585" lon="5.89766">
        <ele>1010</ele>
        <time>2019-06-25T08:50:23Z</time>
      </trkpt>
      <trkpt lat="44.45587" lon="5.89766">
        <ele>1011</ele>
        <time>2019-06-25T08:50:24Z</time>
      </trkpt>
      <trkpt lat="44.45589" lon="5.89766">
        <ele>1011</ele>
        <time>2019-06-25T08:50:25Z</time>
      </trkpt>
      <trkpt lat="44.45591" lon="5.89766">
        <ele>1011</ele>
        <time>2019-06-25T08:50:26Z</time>
      </trkpt>
      <trkpt lat="44.45593" lon="5.89768">
        <ele>1012</ele>
        <time>2019-06-25T08:50:27Z</time>
      </trkpt>
      <trkpt lat="44.45595" lon="5.8977">
        <ele>1012</ele>
        <time>2019-06-25T08:50:28Z</time>
      </trkpt>
      <trkpt lat="44.45596" lon="5.89773">
        <ele>1012</ele>
        <time>2019-06-25T08:50:29Z</time>
      </trkpt>
      <trkpt lat="44.45597" lon="5.89776">
        <ele>1012</ele>
        <time>2019-06-25T08:50:30Z</time>
      </trkpt>
      <trkpt lat="44.45599" lon="5.89779">
        <ele>1012</ele>
        <time>2019-06-25T08:50:31Z</time>
      </trkpt>
      <trkpt lat="44.456" lon="5.89782">
        <ele>1012</ele>
        <time>2019-06-25T08:50:32Z</time>
      </trkpt>
      <trkpt lat="44.45602" lon="5.89784">
        <ele>1012</ele>
        <time>2019-06-25T08:50:33Z</time>
      </trkpt>
      <trkpt lat="44.45604" lon="5.89787">
        <ele>1012</ele>
        <time>2019-06-25T08:50:34Z</time>
      </trkpt>
      <trkpt lat="44.45607" lon="5.89788">
        <ele>1012</ele>
        <time>2019-06-25T08:50:35Z</time>
      </trkpt>
      <trkpt lat="44.45609" lon="5.89789">
        <ele>1012</ele>
        <time>2019-06-25T08:50:36Z</time>
      </trkpt>
      <trkpt lat="44.45611" lon="5.89788">
        <ele>1012</ele>
        <time>2019-06-25T08:50:37Z</time>
      </trkpt>
      <trkpt lat="44.45613" lon="5.89787">
        <ele>1012</ele>
        <time>2019-06-25T08:50:38Z</time>
      </trkpt>
      <trkpt lat="44.45615" lon="5.89785">
        <ele>1012</ele>
        <time>2019-06-25T08:50:39Z</time>
      </trkpt>
      <trkpt lat="44.45616" lon="5.89783">
        <ele>1012</ele>
        <time>2019-06-25T08:50:40Z</time>
      </trkpt>
      <trkpt lat="44.45617" lon="5.89782">
        <ele>1012</ele>
        <time>2019-06-25T08:50:41Z</time>
      </trkpt>
      <trkpt lat="44.45618" lon="5.8978">
        <ele>1012</ele>
        <time>2019-06-25T08:50:42Z</time>
      </trkpt>
      <trkpt lat="44.4562" lon="5.89779">
        <ele>1012</ele>
        <time>2019-06-25T08:50:43Z</time>
      </trkpt>
      <trkpt lat="44.45621" lon="5.89777">
        <ele>1012</ele>
        <time>2019-06-25T08:50:44Z</time>
      </trkpt>
      <trkpt lat="44.45623" lon="5.89776">
        <ele>1012</ele>
        <time>2019-06-25T08:50:45Z</time>
      </trkpt>
      <trkpt lat="44.45625" lon="5.89775">
        <ele>1012</ele>
        <time>2019-06-25T08:50:46Z</time>
      </trkpt>
      <trkpt lat="44.45627" lon="5.89773">
        <ele>1012</ele>
        <time>2019-06-25T08:50:47Z</time>
      </trkpt>
      <trkpt lat="44.45629" lon="5.89771">
        <ele>1012</ele>
        <time>2019-06-25T08:50:48Z</time>
      </trkpt>
      <trkpt lat="44.45631" lon="5.8977">
        <ele>1013</ele>
        <time>2019-06-25T08:50:49Z</time>
      </trkpt>
      <trkpt lat="44.45633" lon="5.89768">
        <ele>1013</ele>
        <time>2019-06-25T08:50:50Z</time>
      </trkpt>
      <trkpt lat="44.45635" lon="5.89767">
        <ele>1013</ele>
        <time>2019-06-25T08:50:51Z</time>
      </trkpt>
      <trkpt lat="44.45638" lon="5.89766">
        <ele>1014</ele>
        <time>2019-06-25T08:50:52Z</time>
      </trkpt>
      <trkpt lat="44.4564" lon="5.89764">
        <ele>1014</ele>
        <time>2019-06-25T08:50:53Z</time>
      </trkpt>
      <trkpt lat="44.45642" lon="5.89762">
        <ele>1015</ele>
        <time>2019-06-25T08:50:54Z</time>
      </trkpt>
      <trkpt lat="44.45644" lon="5.8976">
        <ele>1015</ele>
        <time>2019-06-25T08:50:55Z</time>
      </trkpt>
      <trkpt lat="44.45646" lon="5.89758">
        <ele>1015</ele>
        <time>2019-06-25T08:50:56Z</time>
      </trkpt>
      <trkpt lat="44.45648" lon="5.89756">
        <ele>1015</ele>
        <time>2019-06-25T08:50:57Z</time>
      </trkpt>
      <trkpt lat="44.45649" lon="5.89753">
        <ele>1016</ele>
        <time>2019-06-25T08:50:58Z</time>
      </trkpt>
      <trkpt lat="44.4565" lon="5.8975">
        <ele>1016</ele>
        <time>2019-06-25T08:50:59Z</time>
      </trkpt>
      <trkpt lat="44.45651" lon="5.89748">
        <ele>1016</ele>
        <time>2019-06-25T08:51:00Z</time>
      </trkpt>
      <trkpt lat="44.45652" lon="5.89746">
        <ele>1016</ele>
        <time>2019-06-25T08:51:01Z</time>
      </trkpt>
      <trkpt lat="44.45654" lon="5.89743">
        <ele>1017</ele>
        <time>2019-06-25T08:51:02Z</time>
      </trkpt>
      <trkpt lat="44.45655" lon="5.89741">
        <ele>1017</ele>
        <time>2019-06-25T08:51:03Z</time>
      </trkpt>
      <trkpt lat="44.45656" lon="5.89739">
        <ele>1017</ele>
        <time>2019-06-25T08:51:04Z</time>
      </trkpt>
      <trkpt lat="44.45658" lon="5.89737">
        <ele>1017</ele>
        <time>2019-06-25T08:51:05Z</time>
      </trkpt>
      <trkpt lat="44.45659" lon="5.89736">
        <ele>1017</ele>
        <time>2019-06-25T08:51:06Z</time>
      </trkpt>
      <trkpt lat="44.45661" lon="5.89735">
        <ele>1017</ele>
        <time>2019-06-25T08:51:07Z</time>
      </trkpt>
      <trkpt lat="44.45664" lon="5.89734">
        <ele>1017</ele>
        <time>2019-06-25T08:51:08Z</time>
      </trkpt>
      <trkpt lat="44.45666" lon="5.89735">
        <ele>1017</ele>
        <time>2019-06-25T08:51:09Z</time>
      </trkpt>
      <trkpt lat="44.45669" lon="5.89737">
        <ele>1017</ele>
        <time>2019-06-25T08:51:10Z</time>
      </trkpt>
      <trkpt lat="44.45671" lon="5.89738">
        <ele>1017</ele>
        <time>2019-06-25T08:51:11Z</time>
      </trkpt>
      <trkpt lat="44.45673" lon="5.8974">
        <ele>1017</ele>
        <time>2019-06-25T08:51:12Z</time>
      </trkpt>
      <trkpt lat="44.45676" lon="5.89741">
        <ele>1017</ele>
        <time>2019-06-25T08:51:13Z</time>
      </trkpt>
      <trkpt lat="44.45679" lon="5.89743">
        <ele>1017</ele>
        <time>2019-06-25T08:51:14Z</time>
      </trkpt>
      <trkpt lat="44.45681" lon="5.89744">
        <ele>1017</ele>
        <time>2019-06-25T08:51:15Z</time>
      </trkpt>
      <trkpt lat="44.45684" lon="5.89745">
        <ele>1017</ele>
        <time>2019-06-25T08:51:16Z</time>
      </trkpt>
      <trkpt lat="44.45687" lon="5.89745">
        <ele>1017</ele>
        <time>2019-06-25T08:51:17Z</time>
      </trkpt>
      <trkpt lat="44.4569" lon="5.89744">
        <ele>1017</ele>
        <time>2019-06-25T08:51:18Z</time>
      </trkpt>
      <trkpt lat="44.45692" lon="5.89742">
        <ele>1017</ele>
        <time>2019-06-25T08:51:19Z</time>
      </trkpt>
      <trkpt lat="44.45694" lon="5.8974">
        <ele>1017</ele>
        <time>2019-06-25T08:51:20Z</time>
      </trkpt>
      <trkpt lat="44.45697" lon="5.89738">
        <ele>1017</ele>
        <time>2019-06-25T08:51:21Z</time>
      </trkpt>
      <trkpt lat="44.45699" lon="5.89735">
        <ele>1017</ele>
        <time>2019-06-25T08:51:22Z</time>
      </trkpt>
      <trkpt lat="44.45701" lon="5.89733">
        <ele>1017</ele>
        <time>2019-06-25T08:51:23Z</time>
      </trkpt>
      <trkpt lat="44.45704" lon="5.89731">
        <ele>1017</ele>
        <time>2019-06-25T08:51:24Z</time>
      </trkpt>
      <trkpt lat="44.45705" lon="5.89728">
        <ele>1017</ele>
        <time>2019-06-25T08:51:25Z</time>
      </trkpt>
      <trkpt lat="44.45708" lon="5.89726">
        <ele>1018</ele>
        <time>2019-06-25T08:51:26Z</time>
      </trkpt>
      <trkpt lat="44.4571" lon="5.89723">
        <ele>1018</ele>
        <time>2019-06-25T08:51:27Z</time>
      </trkpt>
      <trkpt lat="44.45712" lon="5.8972">
        <ele>1018</ele>
        <time>2019-06-25T08:51:28Z</time>
      </trkpt>
      <trkpt lat="44.45713" lon="5.89717">
        <ele>1019</ele>
        <time>2019-06-25T08:51:29Z</time>
      </trkpt>
      <trkpt lat="44.45715" lon="5.89714">
        <ele>1019</ele>
        <time>2019-06-25T08:51:30Z</time>
      </trkpt>
      <trkpt lat="44.45717" lon="5.89712">
        <ele>1019</ele>
        <time>2019-06-25T08:51:31Z</time>
      </trkpt>
      <trkpt lat="44.45719" lon="5.8971">
        <ele>1019</ele>
        <time>2019-06-25T08:51:32Z</time>
      </trkpt>
      <trkpt lat="44.45721" lon="5.89708">
        <ele>1019</ele>
        <time>2019-06-25T08:51:33Z</time>
      </trkpt>
      <trkpt lat="44.45723" lon="5.89705">
        <ele>1019</ele>
        <time>2019-06-25T08:51:34Z</time>
      </trkpt>
      <trkpt lat="44.45725" lon="5.89702">
        <ele>1019</ele>
        <time>2019-06-25T08:51:35Z</time>
      </trkpt>
      <trkpt lat="44.45727" lon="5.897">
        <ele>1020</ele>
        <time>2019-06-25T08:51:36Z</time>
      </trkpt>
      <trkpt lat="44.45729" lon="5.89698">
        <ele>1021</ele>
        <time>2019-06-25T08:51:37Z</time>
      </trkpt>
      <trkpt lat="44.45731" lon="5.89696">
        <ele>1021</ele>
        <time>2019-06-25T08:51:38Z</time>
      </trkpt>
      <trkpt lat="44.45733" lon="5.89694">
        <ele>1021</ele>
        <time>2019-06-25T08:51:39Z</time>
      </trkpt>
      <trkpt lat="44.45735" lon="5.89693">
        <ele>1022</ele>
        <time>2019-06-25T08:51:40Z</time>
      </trkpt>
      <trkpt lat="44.45737" lon="5.89693">
        <ele>1022</ele>
        <time>2019-06-25T08:51:41Z</time>
      </trkpt>
      <trkpt lat="44.45739" lon="5.89691">
        <ele>1022</ele>
        <time>2019-06-25T08:51:42Z</time>
      </trkpt>
      <trkpt lat="44.45741" lon="5.8969">
        <ele>1022</ele>
        <time>2019-06-25T08:51:43Z</time>
      </trkpt>
      <trkpt lat="44.45742" lon="5.89688">
        <ele>1023</ele>
        <time>2019-06-25T08:51:44Z</time>
      </trkpt>
      <trkpt lat="44.45744" lon="5.89686">
        <ele>1023</ele>
        <time>2019-06-25T08:51:45Z</time>
      </trkpt>
      <trkpt lat="44.45745" lon="5.89684">
        <ele>1023</ele>
        <time>2019-06-25T08:51:46Z</time>
      </trkpt>
      <trkpt lat="44.45746" lon="5.89681">
        <ele>1023</ele>
        <time>2019-06-25T08:51:47Z</time>
      </trkpt>
      <trkpt lat="44.45747" lon="5.89679">
        <ele>1024</ele>
        <time>2019-06-25T08:51:48Z</time>
      </trkpt>
      <trkpt lat="44.45749" lon="5.89677">
        <ele>1024</ele>
        <time>2019-06-25T08:51:49Z</time>
      </trkpt>
      <trkpt lat="44.45751" lon="5.89674">
        <ele>1024</ele>
        <time>2019-06-25T08:51:50Z</time>
      </trkpt>
      <trkpt lat="44.45752" lon="5.89672">
        <ele>1024</ele>
        <time>2019-06-25T08:51:51Z</time>
      </trkpt>
      <trkpt lat="44.45754" lon="5.89669">
        <ele>1024</ele>
        <time>2019-06-25T08:51:52Z</time>
      </trkpt>
      <trkpt lat="44.45755" lon="5.89668">
        <ele>1024</ele>
        <time>2019-06-25T08:51:53Z</time>
      </trkpt>
      <trkpt lat="44.45757" lon="5.89666">
        <ele>1024</ele>
        <time>2019-06-25T08:51:54Z</time>
      </trkpt>
      <trkpt lat="44.45759" lon="5.89666">
        <ele>1024</ele>
        <time>2019-06-25T08:51:55Z</time>
      </trkpt>
      <trkpt lat="44.45761" lon="5.89665">
        <ele>1024</ele>
        <time>2019-06-25T08:51:56Z</time>
      </trkpt>
      <trkpt lat="44.45763" lon="5.89665">
        <ele>1024</ele>
        <time>2019-06-25T08:51:57Z</time>
      </trkpt>
      <trkpt lat="44.45765" lon="5.89664">
        <ele>1024</ele>
        <time>2019-06-25T08:51:58Z</time>
      </trkpt>
      <trkpt lat="44.45768" lon="5.89664">
        <ele>1024</ele>
        <time>2019-06-25T08:51:59Z</time>
      </trkpt>
      <trkpt lat="44.4577" lon="5.89665">
        <ele>1024</ele>
        <time>2019-06-25T08:52:00Z</time>
      </trkpt>
      <trkpt lat="44.45772" lon="5.89666">
        <ele>1024</ele>
        <time>2019-06-25T08:52:01Z</time>
      </trkpt>
      <trkpt lat="44.45774" lon="5.89668">
        <ele>1024</ele>
        <time>2019-06-25T08:52:02Z</time>
      </trkpt>
      <trkpt lat="44.45777" lon="5.8967">
        <ele>1024</ele>
        <time>2019-06-25T08:52:03Z</time>
      </trkpt>
      <trkpt lat="44.4578" lon="5.89671">
        <ele>1024</ele>
        <time>2019-06-25T08:52:04Z</time>
      </trkpt>
      <trkpt lat="44.45783" lon="5.89671">
        <ele>1024</ele>
        <time>2019-06-25T08:52:05Z</time>
      </trkpt>
      <trkpt lat="44.45786" lon="5.89671">
        <ele>1024</ele>
        <time>2019-06-25T08:52:06Z</time>
      </trkpt>
      <trkpt lat="44.45789" lon="5.89671">
        <ele>1024</ele>
        <time>2019-06-25T08:52:07Z</time>
      </trkpt>
      <trkpt lat="44.45792" lon="5.89671">
        <ele>1024</ele>
        <time>2019-06-25T08:52:08Z</time>
      </trkpt>
      <trkpt lat="44.45794" lon="5.8967">
        <ele>1025</ele>
        <time>2019-06-25T08:52:09Z</time>
      </trkpt>
      <trkpt lat="44.45797" lon="5.89669">
        <ele>1025</ele>
        <time>2019-06-25T08:52:10Z</time>
      </trkpt>
      <trkpt lat="44.45799" lon="5.89668">
        <ele>1025</ele>
        <time>2019-06-25T08:52:11Z</time>
      </trkpt>
      <trkpt lat="44.45801" lon="5.89667">
        <ele>1025</ele>
        <time>2019-06-25T08:52:12Z</time>
      </trkpt>
      <trkpt lat="44.45803" lon="5.89666">
        <ele>1025</ele>
        <time>2019-06-25T08:52:13Z</time>
      </trkpt>
      <trkpt lat="44.45806" lon="5.89666">
        <ele>1025</ele>
        <time>2019-06-25T08:52:14Z</time>
      </trkpt>
      <trkpt lat="44.45808" lon="5.89666">
        <ele>1025</ele>
        <time>2019-06-25T08:52:15Z</time>
      </trkpt>
      <trkpt lat="44.4581" lon="5.89666">
        <ele>1026</ele>
        <time>2019-06-25T08:52:16Z</time>
      </trkpt>
      <trkpt lat="44.45812" lon="5.89665">
        <ele>1026</ele>
        <time>2019-06-25T08:52:17Z</time>
      </trkpt>
      <trkpt lat="44.45815" lon="5.89665">
        <ele>1026</ele>
        <time>2019-06-25T08:52:18Z</time>
      </trkpt>
      <trkpt lat="44.45816" lon="5.89666">
        <ele>1026</ele>
        <time>2019-06-25T08:52:19Z</time>
      </trkpt>
      <trkpt lat="44.45818" lon="5.89666">
        <ele>1026</ele>
        <time>2019-06-25T08:52:20Z</time>
      </trkpt>
      <trkpt lat="44.45821" lon="5.89666">
        <ele>1026</ele>
        <time>2019-06-25T08:52:21Z</time>
      </trkpt>
      <trkpt lat="44.45823" lon="5.89666">
        <ele>1026</ele>
        <time>2019-06-25T08:52:22Z</time>
      </trkpt>
      <trkpt lat="44.45825" lon="5.89666">
        <ele>1026</ele>
        <time>2019-06-25T08:52:23Z</time>
      </trkpt>
      <trkpt lat="44.45827" lon="5.89666">
        <ele>1026</ele>
        <time>2019-06-25T08:52:24Z</time>
      </trkpt>
      <trkpt lat="44.45829" lon="5.89666">
        <ele>1026</ele>
        <time>2019-06-25T08:52:25Z</time>
      </trkpt>
      <trkpt lat="44.45831" lon="5.89666">
        <ele>1026</ele>
        <time>2019-06-25T08:52:26Z</time>
      </trkpt>
      <trkpt lat="44.45833" lon="5.89666">
        <ele>1027</ele>
        <time>2019-06-25T08:52:27Z</time>
      </trkpt>
      <trkpt lat="44.45835" lon="5.89666">
        <ele>1027</ele>
        <time>2019-06-25T08:52:28Z</time>
      </trkpt>
      <trkpt lat="44.45837" lon="5.89666">
        <ele>1027</ele>
        <time>2019-06-25T08:52:29Z</time>
      </trkpt>
      <trkpt lat="44.45839" lon="5.89666">
        <ele>1027</ele>
        <time>2019-06-25T08:52:30Z</time>
      </trkpt>
      <trkpt lat="44.45841" lon="5.89666">
        <ele>1027</ele>
        <time>2019-06-25T08:52:31Z</time>
      </trkpt>
      <trkpt lat="44.45843" lon="5.89666">
        <ele>1027</ele>
        <time>2019-06-25T08:52:32Z</time>
      </trkpt>
      <trkpt lat="44.45845" lon="5.89665">
        <ele>1028</ele>
        <time>2019-06-25T08:52:33Z</time>
      </trkpt>
      <trkpt lat="44.45847" lon="5.89666">
        <ele>1028</ele>
        <time>2019-06-25T08:52:34Z</time>
      </trkpt>
      <trkpt lat="44.45849" lon="5.89666">
        <ele>1028</ele>
        <time>2019-06-25T08:52:35Z</time>
      </trkpt>
      <trkpt lat="44.45851" lon="5.89666">
        <ele>1028</ele>
        <time>2019-06-25T08:52:36Z</time>
      </trkpt>
      <trkpt lat="44.45853" lon="5.89666">
        <ele>1028</ele>
        <time>2019-06-25T08:52:37Z</time>
      </trkpt>
      <trkpt lat="44.45855" lon="5.89666">
        <ele>1029</ele>
        <time>2019-06-25T08:52:38Z</time>
      </trkpt>
      <trkpt lat="44.45857" lon="5.89666">
        <ele>1029</ele>
        <time>2019-06-25T08:52:39Z</time>
      </trkpt>
      <trkpt lat="44.45859" lon="5.89666">
        <ele>1029</ele>
        <time>2019-06-25T08:52:40Z</time>
      </trkpt>
      <trkpt lat="44.45861" lon="5.89665">
        <ele>1029</ele>
        <time>2019-06-25T08:52:41Z</time>
      </trkpt>
      <trkpt lat="44.45863" lon="5.89665">
        <ele>1029</ele>
        <time>2019-06-25T08:52:42Z</time>
      </trkpt>
      <trkpt lat="44.45865" lon="5.89664">
        <ele>1030</ele>
        <time>2019-06-25T08:52:43Z</time>
      </trkpt>
      <trkpt lat="44.45866" lon="5.89663">
        <ele>1030</ele>
        <time>2019-06-25T08:52:44Z</time>
      </trkpt>
      <trkpt lat="44.45869" lon="5.89662">
        <ele>1030</ele>
        <time>2019-06-25T08:52:45Z</time>
      </trkpt>
      <trkpt lat="44.45871" lon="5.8966">
        <ele>1030</ele>
        <time>2019-06-25T08:52:46Z</time>
      </trkpt>
      <trkpt lat="44.45872" lon="5.89659">
        <ele>1030</ele>
        <time>2019-06-25T08:52:47Z</time>
      </trkpt>
      <trkpt lat="44.45874" lon="5.89657">
        <ele>1030</ele>
        <time>2019-06-25T08:52:48Z</time>
      </trkpt>
      <trkpt lat="44.45876" lon="5.89655">
        <ele>1031</ele>
        <time>2019-06-25T08:52:49Z</time>
      </trkpt>
      <trkpt lat="44.45878" lon="5.89652">
        <ele>1031</ele>
        <time>2019-06-25T08:52:50Z</time>
      </trkpt>
      <trkpt lat="44.4588" lon="5.8965">
        <ele>1031</ele>
        <time>2019-06-25T08:52:51Z</time>
      </trkpt>
      <trkpt lat="44.45882" lon="5.89648">
        <ele>1031</ele>
        <time>2019-06-25T08:52:52Z</time>
      </trkpt>
      <trkpt lat="44.45884" lon="5.89645">
        <ele>1031</ele>
        <time>2019-06-25T08:52:53Z</time>
      </trkpt>
      <trkpt lat="44.45886" lon="5.89643">
        <ele>1031</ele>
        <time>2019-06-25T08:52:54Z</time>
      </trkpt>
      <trkpt lat="44.45888" lon="5.89641">
        <ele>1031</ele>
        <time>2019-06-25T08:52:55Z</time>
      </trkpt>
      <trkpt lat="44.4589" lon="5.89638">
        <ele>1031</ele>
        <time>2019-06-25T08:52:56Z</time>
      </trkpt>
      <trkpt lat="44.45892" lon="5.89635">
        <ele>1031</ele>
        <time>2019-06-25T08:52:57Z</time>
      </trkpt>
      <trkpt lat="44.45894" lon="5.89633">
        <ele>1031</ele>
        <time>2019-06-25T08:52:58Z</time>
      </trkpt>
      <trkpt lat="44.45895" lon="5.8963">
        <ele>1031</ele>
        <time>2019-06-25T08:52:59Z</time>
      </trkpt>
      <trkpt lat="44.45897" lon="5.89626">
        <ele>1031</ele>
        <time>2019-06-25T08:53:00Z</time>
      </trkpt>
      <trkpt lat="44.45898" lon="5.89623">
        <ele>1031</ele>
        <time>2019-06-25T08:53:01Z</time>
      </trkpt>
      <trkpt lat="44.459" lon="5.8962">
        <ele>1031</ele>
        <time>2019-06-25T08:53:02Z</time>
      </trkpt>
      <trkpt lat="44.459" lon="5.89616">
        <ele>1031</ele>
        <time>2019-06-25T08:53:03Z</time>
      </trkpt>
      <trkpt lat="44.459" lon="5.89613">
        <ele>1032</ele>
        <time>2019-06-25T08:53:04Z</time>
      </trkpt>
      <trkpt lat="44.459" lon="5.89609">
        <ele>1032</ele>
        <time>2019-06-25T08:53:05Z</time>
      </trkpt>
      <trkpt lat="44.459" lon="5.89606">
        <ele>1032</ele>
        <time>2019-06-25T08:53:06Z</time>
      </trkpt>
      <trkpt lat="44.45901" lon="5.89603">
        <ele>1032</ele>
        <time>2019-06-25T08:53:07Z</time>
      </trkpt>
      <trkpt lat="44.45901" lon="5.896">
        <ele>1032</ele>
        <time>2019-06-25T08:53:08Z</time>
      </trkpt>
      <trkpt lat="44.45902" lon="5.89596">
        <ele>1033</ele>
        <time>2019-06-25T08:53:09Z</time>
      </trkpt>
      <trkpt lat="44.45903" lon="5.89593">
        <ele>1033</ele>
        <time>2019-06-25T08:53:10Z</time>
      </trkpt>
      <trkpt lat="44.45903" lon="5.8959">
        <ele>1033</ele>
        <time>2019-06-25T08:53:11Z</time>
      </trkpt>
      <trkpt lat="44.45903" lon="5.89586">
        <ele>1033</ele>
        <time>2019-06-25T08:53:12Z</time>
      </trkpt>
      <trkpt lat="44.45903" lon="5.89583">
        <ele>1033</ele>
        <time>2019-06-25T08:53:13Z</time>
      </trkpt>
      <trkpt lat="44.45903" lon="5.8958">
        <ele>1034</ele>
        <time>2019-06-25T08:53:14Z</time>
      </trkpt>
      <trkpt lat="44.45904" lon="5.89577">
        <ele>1034</ele>
        <time>2019-06-25T08:53:15Z</time>
      </trkpt>
      <trkpt lat="44.45904" lon="5.89573">
        <ele>1034</ele>
        <time>2019-06-25T08:53:16Z</time>
      </trkpt>
      <trkpt lat="44.45904" lon="5.8957">
        <ele>1034</ele>
        <time>2019-06-25T08:53:17Z</time>
      </trkpt>
      <trkpt lat="44.45905" lon="5.89567">
        <ele>1034</ele>
        <time>2019-06-25T08:53:18Z</time>
      </trkpt>
      <trkpt lat="44.45905" lon="5.89564">
        <ele>1035</ele>
        <time>2019-06-25T08:53:19Z</time>
      </trkpt>
      <trkpt lat="44.45905" lon="5.89561">
        <ele>1035</ele>
        <time>2019-06-25T08:53:20Z</time>
      </trkpt>
      <trkpt lat="44.45906" lon="5.89558">
        <ele>1035</ele>
        <time>2019-06-25T08:53:21Z</time>
      </trkpt>
      <trkpt lat="44.45906" lon="5.89555">
        <ele>1035</ele>
        <time>2019-06-25T08:53:22Z</time>
      </trkpt>
      <trkpt lat="44.45907" lon="5.89552">
        <ele>1036</ele>
        <time>2019-06-25T08:53:23Z</time>
      </trkpt>
      <trkpt lat="44.45908" lon="5.89549">
        <ele>1036</ele>
        <time>2019-06-25T08:53:24Z</time>
      </trkpt>
      <trkpt lat="44.45908" lon="5.89545">
        <ele>1036</ele>
        <time>2019-06-25T08:53:25Z</time>
      </trkpt>
      <trkpt lat="44.45909" lon="5.89542">
        <ele>1036</ele>
        <time>2019-06-25T08:53:26Z</time>
      </trkpt>
      <trkpt lat="44.45909" lon="5.89539">
        <ele>1037</ele>
        <time>2019-06-25T08:53:27Z</time>
      </trkpt>
      <trkpt lat="44.4591" lon="5.89536">
        <ele>1037</ele>
        <time>2019-06-25T08:53:28Z</time>
      </trkpt>
      <trkpt lat="44.4591" lon="5.89533">
        <ele>1037</ele>
        <time>2019-06-25T08:53:29Z</time>
      </trkpt>
      <trkpt lat="44.45911" lon="5.89529">
        <ele>1037</ele>
        <time>2019-06-25T08:53:30Z</time>
      </trkpt>
      <trkpt lat="44.45911" lon="5.89526">
        <ele>1037</ele>
        <time>2019-06-25T08:53:31Z</time>
      </trkpt>
      <trkpt lat="44.45911" lon="5.89523">
        <ele>1038</ele>
        <time>2019-06-25T08:53:32Z</time>
      </trkpt>
      <trkpt lat="44.45911" lon="5.89519">
        <ele>1038</ele>
        <time>2019-06-25T08:53:33Z</time>
      </trkpt>
      <trkpt lat="44.45912" lon="5.89516">
        <ele>1038</ele>
        <time>2019-06-25T08:53:34Z</time>
      </trkpt>
      <trkpt lat="44.45913" lon="5.89512">
        <ele>1038</ele>
        <time>2019-06-25T08:53:35Z</time>
      </trkpt>
      <trkpt lat="44.45914" lon="5.89509">
        <ele>1038</ele>
        <time>2019-06-25T08:53:36Z</time>
      </trkpt>
      <trkpt lat="44.45914" lon="5.89506">
        <ele>1038</ele>
        <time>2019-06-25T08:53:37Z</time>
      </trkpt>
      <trkpt lat="44.45915" lon="5.89502">
        <ele>1038</ele>
        <time>2019-06-25T08:53:38Z</time>
      </trkpt>
      <trkpt lat="44.45916" lon="5.89499">
        <ele>1038</ele>
        <time>2019-06-25T08:53:39Z</time>
      </trkpt>
      <trkpt lat="44.45917" lon="5.89495">
        <ele>1038</ele>
        <time>2019-06-25T08:53:40Z</time>
      </trkpt>
      <trkpt lat="44.45918" lon="5.89492">
        <ele>1039</ele>
        <time>2019-06-25T08:53:41Z</time>
      </trkpt>
      <trkpt lat="44.45919" lon="5.89488">
        <ele>1039</ele>
        <time>2019-06-25T08:53:42Z</time>
      </trkpt>
      <trkpt lat="44.4592" lon="5.89485">
        <ele>1040</ele>
        <time>2019-06-25T08:53:43Z</time>
      </trkpt>
      <trkpt lat="44.4592" lon="5.89481">
        <ele>1040</ele>
        <time>2019-06-25T08:53:44Z</time>
      </trkpt>
      <trkpt lat="44.45921" lon="5.89477">
        <ele>1040</ele>
        <time>2019-06-25T08:53:45Z</time>
      </trkpt>
      <trkpt lat="44.45922" lon="5.89473">
        <ele>1041</ele>
        <time>2019-06-25T08:53:46Z</time>
      </trkpt>
      <trkpt lat="44.45924" lon="5.8947">
        <ele>1041</ele>
        <time>2019-06-25T08:53:47Z</time>
      </trkpt>
      <trkpt lat="44.45924" lon="5.89467">
        <ele>1042</ele>
        <time>2019-06-25T08:53:48Z</time>
      </trkpt>
      <trkpt lat="44.45925" lon="5.89464">
        <ele>1042</ele>
        <time>2019-06-25T08:53:49Z</time>
      </trkpt>
      <trkpt lat="44.45925" lon="5.8946">
        <ele>1042</ele>
        <time>2019-06-25T08:53:50Z</time>
      </trkpt>
      <trkpt lat="44.45926" lon="5.89457">
        <ele>1042</ele>
        <time>2019-06-25T08:53:51Z</time>
      </trkpt>
      <trkpt lat="44.45927" lon="5.89453">
        <ele>1042</ele>
        <time>2019-06-25T08:53:52Z</time>
      </trkpt>
      <trkpt lat="44.45928" lon="5.8945">
        <ele>1042</ele>
        <time>2019-06-25T08:53:53Z</time>
      </trkpt>
      <trkpt lat="44.45929" lon="5.89447">
        <ele>1042</ele>
        <time>2019-06-25T08:53:54Z</time>
      </trkpt>
      <trkpt lat="44.4593" lon="5.89444">
        <ele>1043</ele>
        <time>2019-06-25T08:53:55Z</time>
      </trkpt>
      <trkpt lat="44.45931" lon="5.89441">
        <ele>1043</ele>
        <time>2019-06-25T08:53:56Z</time>
      </trkpt>
      <trkpt lat="44.45932" lon="5.89438">
        <ele>1043</ele>
        <time>2019-06-25T08:53:57Z</time>
      </trkpt>
      <trkpt lat="44.45934" lon="5.89435">
        <ele>1044</ele>
        <time>2019-06-25T08:53:58Z</time>
      </trkpt>
      <trkpt lat="44.45935" lon="5.89432">
        <ele>1044</ele>
        <time>2019-06-25T08:53:59Z</time>
      </trkpt>
      <trkpt lat="44.45937" lon="5.8943">
        <ele>1045</ele>
        <time>2019-06-25T08:54:00Z</time>
      </trkpt>
      <trkpt lat="44.45939" lon="5.89427">
        <ele>1046</ele>
        <time>2019-06-25T08:54:01Z</time>
      </trkpt>
      <trkpt lat="44.45941" lon="5.89424">
        <ele>1047</ele>
        <time>2019-06-25T08:54:02Z</time>
      </trkpt>
      <trkpt lat="44.45942" lon="5.89421">
        <ele>1048</ele>
        <time>2019-06-25T08:54:03Z</time>
      </trkpt>
      <trkpt lat="44.45943" lon="5.89417">
        <ele>1049</ele>
        <time>2019-06-25T08:54:04Z</time>
      </trkpt>
      <trkpt lat="44.45943" lon="5.89414">
        <ele>1049</ele>
        <time>2019-06-25T08:54:05Z</time>
      </trkpt>
      <trkpt lat="44.45944" lon="5.8941">
        <ele>1049</ele>
        <time>2019-06-25T08:54:06Z</time>
      </trkpt>
      <trkpt lat="44.45944" lon="5.89407">
        <ele>1049</ele>
        <time>2019-06-25T08:54:07Z</time>
      </trkpt>
      <trkpt lat="44.45944" lon="5.89403">
        <ele>1049</ele>
        <time>2019-06-25T08:54:08Z</time>
      </trkpt>
      <trkpt lat="44.45943" lon="5.89399">
        <ele>1049</ele>
        <time>2019-06-25T08:54:09Z</time>
      </trkpt>
      <trkpt lat="44.45943" lon="5.89395">
        <ele>1049</ele>
        <time>2019-06-25T08:54:10Z</time>
      </trkpt>
      <trkpt lat="44.45943" lon="5.89391">
        <ele>1049</ele>
        <time>2019-06-25T08:54:11Z</time>
      </trkpt>
      <trkpt lat="44.45943" lon="5.89387">
        <ele>1049</ele>
        <time>2019-06-25T08:54:12Z</time>
      </trkpt>
      <trkpt lat="44.45943" lon="5.89383">
        <ele>1049</ele>
        <time>2019-06-25T08:54:13Z</time>
      </trkpt>
      <trkpt lat="44.45943" lon="5.89379">
        <ele>1049</ele>
        <time>2019-06-25T08:54:14Z</time>
      </trkpt>
      <trkpt lat="44.45944" lon="5.89376">
        <ele>1049</ele>
        <time>2019-06-25T08:54:15Z</time>
      </trkpt>
      <trkpt lat="44.45943" lon="5.89372">
        <ele>1049</ele>
        <time>2019-06-25T08:54:16Z</time>
      </trkpt>
      <trkpt lat="44.45943" lon="5.89368">
        <ele>1049</ele>
        <time>2019-06-25T08:54:17Z</time>
      </trkpt>
      <trkpt lat="44.45943" lon="5.89365">
        <ele>1049</ele>
        <time>2019-06-25T08:54:18Z</time>
      </trkpt>
      <trkpt lat="44.45944" lon="5.89362">
        <ele>1049</ele>
        <time>2019-06-25T08:54:19Z</time>
      </trkpt>
      <trkpt lat="44.45944" lon="5.89358">
        <ele>1049</ele>
        <time>2019-06-25T08:54:20Z</time>
      </trkpt>
      <trkpt lat="44.45944" lon="5.89355">
        <ele>1049</ele>
        <time>2019-06-25T08:54:21Z</time>
      </trkpt>
      <trkpt lat="44.45944" lon="5.89352">
        <ele>1049</ele>
        <time>2019-06-25T08:54:22Z</time>
      </trkpt>
      <trkpt lat="44.45944" lon="5.89349">
        <ele>1049</ele>
        <time>2019-06-25T08:54:23Z</time>
      </trkpt>
      <trkpt lat="44.45944" lon="5.89345">
        <ele>1049</ele>
        <time>2019-06-25T08:54:24Z</time>
      </trkpt>
      <trkpt lat="44.45945" lon="5.89342">
        <ele>1049</ele>
        <time>2019-06-25T08:54:25Z</time>
      </trkpt>
      <trkpt lat="44.45945" lon="5.89339">
        <ele>1049</ele>
        <time>2019-06-25T08:54:26Z</time>
      </trkpt>
      <trkpt lat="44.45947" lon="5.89336">
        <ele>1049</ele>
        <time>2019-06-25T08:54:27Z</time>
      </trkpt>
      <trkpt lat="44.45948" lon="5.89333">
        <ele>1049</ele>
        <time>2019-06-25T08:54:28Z</time>
      </trkpt>
      <trkpt lat="44.45949" lon="5.8933">
        <ele>1049</ele>
        <time>2019-06-25T08:54:29Z</time>
      </trkpt>
      <trkpt lat="44.4595" lon="5.89327">
        <ele>1049</ele>
        <time>2019-06-25T08:54:30Z</time>
      </trkpt>
      <trkpt lat="44.4595" lon="5.89325">
        <ele>1049</ele>
        <time>2019-06-25T08:54:31Z</time>
      </trkpt>
      <trkpt lat="44.45951" lon="5.89322">
        <ele>1049</ele>
        <time>2019-06-25T08:54:32Z</time>
      </trkpt>
      <trkpt lat="44.45952" lon="5.89318">
        <ele>1049</ele>
        <time>2019-06-25T08:54:33Z</time>
      </trkpt>
      <trkpt lat="44.45953" lon="5.89315">
        <ele>1049</ele>
        <time>2019-06-25T08:54:34Z</time>
      </trkpt>
      <trkpt lat="44.45954" lon="5.89312">
        <ele>1049</ele>
        <time>2019-06-25T08:54:35Z</time>
      </trkpt>
      <trkpt lat="44.45955" lon="5.89309">
        <ele>1049</ele>
        <time>2019-06-25T08:54:36Z</time>
      </trkpt>
      <trkpt lat="44.45956" lon="5.89306">
        <ele>1049</ele>
        <time>2019-06-25T08:54:37Z</time>
      </trkpt>
      <trkpt lat="44.45957" lon="5.89303">
        <ele>1049</ele>
        <time>2019-06-25T08:54:38Z</time>
      </trkpt>
      <trkpt lat="44.45958" lon="5.893">
        <ele>1049</ele>
        <time>2019-06-25T08:54:39Z</time>
      </trkpt>
      <trkpt lat="44.45959" lon="5.89297">
        <ele>1049</ele>
        <time>2019-06-25T08:54:40Z</time>
      </trkpt>
      <trkpt lat="44.45961" lon="5.89294">
        <ele>1049</ele>
        <time>2019-06-25T08:54:41Z</time>
      </trkpt>
      <trkpt lat="44.45962" lon="5.89292">
        <ele>1050</ele>
        <time>2019-06-25T08:54:42Z</time>
      </trkpt>
      <trkpt lat="44.45962" lon="5.89289">
        <ele>1051</ele>
        <time>2019-06-25T08:54:43Z</time>
      </trkpt>
      <trkpt lat="44.45963" lon="5.89287">
        <ele>1051</ele>
        <time>2019-06-25T08:54:44Z</time>
      </trkpt>
      <trkpt lat="44.45964" lon="5.89284">
        <ele>1051</ele>
        <time>2019-06-25T08:54:45Z</time>
      </trkpt>
      <trkpt lat="44.45965" lon="5.89281">
        <ele>1052</ele>
        <time>2019-06-25T08:54:46Z</time>
      </trkpt>
      <trkpt lat="44.45966" lon="5.89278">
        <ele>1052</ele>
        <time>2019-06-25T08:54:47Z</time>
      </trkpt>
      <trkpt lat="44.45968" lon="5.89275">
        <ele>1052</ele>
        <time>2019-06-25T08:54:48Z</time>
      </trkpt>
      <trkpt lat="44.45969" lon="5.89272">
        <ele>1053</ele>
        <time>2019-06-25T08:54:49Z</time>
      </trkpt>
      <trkpt lat="44.4597" lon="5.89269">
        <ele>1053</ele>
        <time>2019-06-25T08:54:50Z</time>
      </trkpt>
      <trkpt lat="44.45971" lon="5.89266">
        <ele>1054</ele>
        <time>2019-06-25T08:54:51Z</time>
      </trkpt>
      <trkpt lat="44.45972" lon="5.89263">
        <ele>1055</ele>
        <time>2019-06-25T08:54:52Z</time>
      </trkpt>
      <trkpt lat="44.45973" lon="5.8926">
        <ele>1055</ele>
        <time>2019-06-25T08:54:53Z</time>
      </trkpt>
      <trkpt lat="44.45973" lon="5.89257">
        <ele>1055</ele>
        <time>2019-06-25T08:54:54Z</time>
      </trkpt>
      <trkpt lat="44.45976" lon="5.89255">
        <ele>1056</ele>
        <time>2019-06-25T08:54:55Z</time>
      </trkpt>
      <trkpt lat="44.45978" lon="5.89252">
        <ele>1057</ele>
        <time>2019-06-25T08:54:56Z</time>
      </trkpt>
      <trkpt lat="44.45979" lon="5.89249">
        <ele>1057</ele>
        <time>2019-06-25T08:54:57Z</time>
      </trkpt>
      <trkpt lat="44.4598" lon="5.89246">
        <ele>1058</ele>
        <time>2019-06-25T08:54:58Z</time>
      </trkpt>
      <trkpt lat="44.4598" lon="5.89243">
        <ele>1059</ele>
        <time>2019-06-25T08:54:59Z</time>
      </trkpt>
      <trkpt lat="44.45981" lon="5.8924">
        <ele>1059</ele>
        <time>2019-06-25T08:55:00Z</time>
      </trkpt>
      <trkpt lat="44.45982" lon="5.89237">
        <ele>1060</ele>
        <time>2019-06-25T08:55:01Z</time>
      </trkpt>
      <trkpt lat="44.45984" lon="5.89234">
        <ele>1060</ele>
        <time>2019-06-25T08:55:02Z</time>
      </trkpt>
      <trkpt lat="44.45984" lon="5.89231">
        <ele>1060</ele>
        <time>2019-06-25T08:55:03Z</time>
      </trkpt>
      <trkpt lat="44.45985" lon="5.89228">
        <ele>1060</ele>
        <time>2019-06-25T08:55:04Z</time>
      </trkpt>
      <trkpt lat="44.45985" lon="5.89225">
        <ele>1060</ele>
        <time>2019-06-25T08:55:05Z</time>
      </trkpt>
      <trkpt lat="44.45985" lon="5.89222">
        <ele>1060</ele>
        <time>2019-06-25T08:55:06Z</time>
      </trkpt>
      <trkpt lat="44.45985" lon="5.89219">
        <ele>1060</ele>
        <time>2019-06-25T08:55:07Z</time>
      </trkpt>
      <trkpt lat="44.45986" lon="5.89216">
        <ele>1060</ele>
        <time>2019-06-25T08:55:08Z</time>
      </trkpt>
      <trkpt lat="44.45986" lon="5.89213">
        <ele>1060</ele>
        <time>2019-06-25T08:55:09Z</time>
      </trkpt>
      <trkpt lat="44.45988" lon="5.8921">
        <ele>1060</ele>
        <time>2019-06-25T08:55:10Z</time>
      </trkpt>
      <trkpt lat="44.45988" lon="5.89206">
        <ele>1060</ele>
        <time>2019-06-25T08:55:11Z</time>
      </trkpt>
      <trkpt lat="44.45989" lon="5.89203">
        <ele>1060</ele>
        <time>2019-06-25T08:55:12Z</time>
      </trkpt>
      <trkpt lat="44.4599" lon="5.89199">
        <ele>1060</ele>
        <time>2019-06-25T08:55:13Z</time>
      </trkpt>
      <trkpt lat="44.4599" lon="5.89195">
        <ele>1060</ele>
        <time>2019-06-25T08:55:14Z</time>
      </trkpt>
      <trkpt lat="44.45991" lon="5.89192">
        <ele>1060</ele>
        <time>2019-06-25T08:55:15Z</time>
      </trkpt>
      <trkpt lat="44.45992" lon="5.89188">
        <ele>1060</ele>
        <time>2019-06-25T08:55:16Z</time>
      </trkpt>
      <trkpt lat="44.45992" lon="5.89184">
        <ele>1060</ele>
        <time>2019-06-25T08:55:17Z</time>
      </trkpt>
      <trkpt lat="44.45993" lon="5.89181">
        <ele>1060</ele>
        <time>2019-06-25T08:55:18Z</time>
      </trkpt>
      <trkpt lat="44.45993" lon="5.89177">
        <ele>1060</ele>
        <time>2019-06-25T08:55:19Z</time>
      </trkpt>
      <trkpt lat="44.45994" lon="5.89173">
        <ele>1060</ele>
        <time>2019-06-25T08:55:20Z</time>
      </trkpt>
      <trkpt lat="44.45995" lon="5.89169">
        <ele>1060</ele>
        <time>2019-06-25T08:55:21Z</time>
      </trkpt>
      <trkpt lat="44.45996" lon="5.89165">
        <ele>1060</ele>
        <time>2019-06-25T08:55:22Z</time>
      </trkpt>
      <trkpt lat="44.45996" lon="5.89162">
        <ele>1060</ele>
        <time>2019-06-25T08:55:23Z</time>
      </trkpt>
      <trkpt lat="44.45997" lon="5.89158">
        <ele>1060</ele>
        <time>2019-06-25T08:55:24Z</time>
      </trkpt>
      <trkpt lat="44.45998" lon="5.89154">
        <ele>1060</ele>
        <time>2019-06-25T08:55:25Z</time>
      </trkpt>
      <trkpt lat="44.45999" lon="5.89151">
        <ele>1060</ele>
        <time>2019-06-25T08:55:26Z</time>
      </trkpt>
      <trkpt lat="44.46" lon="5.89147">
        <ele>1060</ele>
        <time>2019-06-25T08:55:27Z</time>
      </trkpt>
      <trkpt lat="44.46001" lon="5.89143">
        <ele>1060</ele>
        <time>2019-06-25T08:55:28Z</time>
      </trkpt>
      <trkpt lat="44.46002" lon="5.8914">
        <ele>1060</ele>
        <time>2019-06-25T08:55:29Z</time>
      </trkpt>
      <trkpt lat="44.46003" lon="5.89136">
        <ele>1060</ele>
        <time>2019-06-25T08:55:30Z</time>
      </trkpt>
      <trkpt lat="44.46004" lon="5.89132">
        <ele>1060</ele>
        <time>2019-06-25T08:55:31Z</time>
      </trkpt>
      <trkpt lat="44.46005" lon="5.89128">
        <ele>1060</ele>
        <time>2019-06-25T08:55:32Z</time>
      </trkpt>
      <trkpt lat="44.46006" lon="5.89124">
        <ele>1060</ele>
        <time>2019-06-25T08:55:33Z</time>
      </trkpt>
      <trkpt lat="44.46007" lon="5.89119">
        <ele>1060</ele>
        <time>2019-06-25T08:55:34Z</time>
      </trkpt>
      <trkpt lat="44.46008" lon="5.89115">
        <ele>1060</ele>
        <time>2019-06-25T08:55:35Z</time>
      </trkpt>
      <trkpt lat="44.46009" lon="5.89111">
        <ele>1060</ele>
        <time>2019-06-25T08:55:36Z</time>
      </trkpt>
      <trkpt lat="44.46009" lon="5.89107">
        <ele>1060</ele>
        <time>2019-06-25T08:55:37Z</time>
      </trkpt>
      <trkpt lat="44.46009" lon="5.89103">
        <ele>1060</ele>
        <time>2019-06-25T08:55:38Z</time>
      </trkpt>
      <trkpt lat="44.46009" lon="5.89099">
        <ele>1060</ele>
        <time>2019-06-25T08:55:39Z</time>
      </trkpt>
      <trkpt lat="44.46009" lon="5.89094">
        <ele>1060</ele>
        <time>2019-06-25T08:55:40Z</time>
      </trkpt>
      <trkpt lat="44.46009" lon="5.8909">
        <ele>1060</ele>
        <time>2019-06-25T08:55:41Z</time>
      </trkpt>
      <trkpt lat="44.46009" lon="5.89086">
        <ele>1060</ele>
        <time>2019-06-25T08:55:42Z</time>
      </trkpt>
      <trkpt lat="44.46008" lon="5.89082">
        <ele>1060</ele>
        <time>2019-06-25T08:55:43Z</time>
      </trkpt>
      <trkpt lat="44.46008" lon="5.89078">
        <ele>1060</ele>
        <time>2019-06-25T08:55:44Z</time>
      </trkpt>
      <trkpt lat="44.46008" lon="5.89073">
        <ele>1060</ele>
        <time>2019-06-25T08:55:45Z</time>
      </trkpt>
      <trkpt lat="44.46007" lon="5.89069">
        <ele>1060</ele>
        <time>2019-06-25T08:55:46Z</time>
      </trkpt>
      <trkpt lat="44.46007" lon="5.89064">
        <ele>1060</ele>
        <time>2019-06-25T08:55:47Z</time>
      </trkpt>
      <trkpt lat="44.46007" lon="5.8906">
        <ele>1060</ele>
        <time>2019-06-25T08:55:48Z</time>
      </trkpt>
      <trkpt lat="44.46006" lon="5.89056">
        <ele>1060</ele>
        <time>2019-06-25T08:55:49Z</time>
      </trkpt>
      <trkpt lat="44.46006" lon="5.89052">
        <ele>1060</ele>
        <time>2019-06-25T08:55:50Z</time>
      </trkpt>
      <trkpt lat="44.46006" lon="5.89048">
        <ele>1060</ele>
        <time>2019-06-25T08:55:51Z</time>
      </trkpt>
      <trkpt lat="44.46006" lon="5.89044">
        <ele>1060</ele>
        <time>2019-06-25T08:55:52Z</time>
      </trkpt>
      <trkpt lat="44.46005" lon="5.8904">
        <ele>1060</ele>
        <time>2019-06-25T08:55:53Z</time>
      </trkpt>
      <trkpt lat="44.46005" lon="5.89036">
        <ele>1060</ele>
        <time>2019-06-25T08:55:54Z</time>
      </trkpt>
      <trkpt lat="44.46005" lon="5.89033">
        <ele>1060</ele>
        <time>2019-06-25T08:55:55Z</time>
      </trkpt>
      <trkpt lat="44.46006" lon="5.89029">
        <ele>1060</ele>
        <time>2019-06-25T08:55:56Z</time>
      </trkpt>
      <trkpt lat="44.46006" lon="5.89025">
        <ele>1060</ele>
        <time>2019-06-25T08:55:57Z</time>
      </trkpt>
      <trkpt lat="44.46007" lon="5.89021">
        <ele>1060</ele>
        <time>2019-06-25T08:55:58Z</time>
      </trkpt>
      <trkpt lat="44.46009" lon="5.89017">
        <ele>1060</ele>
        <time>2019-06-25T08:55:59Z</time>
      </trkpt>
      <trkpt lat="44.4601" lon="5.89014">
        <ele>1060</ele>
        <time>2019-06-25T08:56:00Z</time>
      </trkpt>
      <trkpt lat="44.46012" lon="5.89011">
        <ele>1061</ele>
        <time>2019-06-25T08:56:01Z</time>
      </trkpt>
      <trkpt lat="44.46014" lon="5.89009">
        <ele>1061</ele>
        <time>2019-06-25T08:56:02Z</time>
      </trkpt>
      <trkpt lat="44.46016" lon="5.89007">
        <ele>1061</ele>
        <time>2019-06-25T08:56:03Z</time>
      </trkpt>
      <trkpt lat="44.46018" lon="5.89005">
        <ele>1062</ele>
        <time>2019-06-25T08:56:04Z</time>
      </trkpt>
      <trkpt lat="44.4602" lon="5.89004">
        <ele>1062</ele>
        <time>2019-06-25T08:56:05Z</time>
      </trkpt>
      <trkpt lat="44.46023" lon="5.89003">
        <ele>1062</ele>
        <time>2019-06-25T08:56:06Z</time>
      </trkpt>
      <trkpt lat="44.46025" lon="5.89003">
        <ele>1062</ele>
        <time>2019-06-25T08:56:07Z</time>
      </trkpt>
      <trkpt lat="44.46028" lon="5.89002">
        <ele>1063</ele>
        <time>2019-06-25T08:56:08Z</time>
      </trkpt>
      <trkpt lat="44.4603" lon="5.89003">
        <ele>1063</ele>
        <time>2019-06-25T08:56:09Z</time>
      </trkpt>
      <trkpt lat="44.46033" lon="5.89005">
        <ele>1063</ele>
        <time>2019-06-25T08:56:10Z</time>
      </trkpt>
      <trkpt lat="44.46036" lon="5.89007">
        <ele>1063</ele>
        <time>2019-06-25T08:56:11Z</time>
      </trkpt>
      <trkpt lat="44.46038" lon="5.8901">
        <ele>1063</ele>
        <time>2019-06-25T08:56:12Z</time>
      </trkpt>
      <trkpt lat="44.4604" lon="5.89012">
        <ele>1063</ele>
        <time>2019-06-25T08:56:13Z</time>
      </trkpt>
      <trkpt lat="44.46043" lon="5.89014">
        <ele>1063</ele>
        <time>2019-06-25T08:56:14Z</time>
      </trkpt>
      <trkpt lat="44.46046" lon="5.89016">
        <ele>1063</ele>
        <time>2019-06-25T08:56:15Z</time>
      </trkpt>
      <trkpt lat="44.46048" lon="5.89018">
        <ele>1063</ele>
        <time>2019-06-25T08:56:16Z</time>
      </trkpt>
      <trkpt lat="44.46051" lon="5.89019">
        <ele>1063</ele>
        <time>2019-06-25T08:56:17Z</time>
      </trkpt>
      <trkpt lat="44.46053" lon="5.89021">
        <ele>1063</ele>
        <time>2019-06-25T08:56:18Z</time>
      </trkpt>
      <trkpt lat="44.46056" lon="5.89022">
        <ele>1063</ele>
        <time>2019-06-25T08:56:19Z</time>
      </trkpt>
      <trkpt lat="44.46058" lon="5.89024">
        <ele>1063</ele>
        <time>2019-06-25T08:56:20Z</time>
      </trkpt>
      <trkpt lat="44.46061" lon="5.89025">
        <ele>1063</ele>
        <time>2019-06-25T08:56:21Z</time>
      </trkpt>
      <trkpt lat="44.46064" lon="5.89026">
        <ele>1063</ele>
        <time>2019-06-25T08:56:22Z</time>
      </trkpt>
      <trkpt lat="44.46067" lon="5.89026">
        <ele>1064</ele>
        <time>2019-06-25T08:56:23Z</time>
      </trkpt>
      <trkpt lat="44.46069" lon="5.89027">
        <ele>1064</ele>
        <time>2019-06-25T08:56:24Z</time>
      </trkpt>
      <trkpt lat="44.46071" lon="5.89028">
        <ele>1064</ele>
        <time>2019-06-25T08:56:25Z</time>
      </trkpt>
      <trkpt lat="44.46074" lon="5.89028">
        <ele>1064</ele>
        <time>2019-06-25T08:56:26Z</time>
      </trkpt>
      <trkpt lat="44.46077" lon="5.89029">
        <ele>1065</ele>
        <time>2019-06-25T08:56:27Z</time>
      </trkpt>
      <trkpt lat="44.4608" lon="5.8903">
        <ele>1065</ele>
        <time>2019-06-25T08:56:28Z</time>
      </trkpt>
      <trkpt lat="44.46082" lon="5.8903">
        <ele>1065</ele>
        <time>2019-06-25T08:56:29Z</time>
      </trkpt>
      <trkpt lat="44.46085" lon="5.8903">
        <ele>1066</ele>
        <time>2019-06-25T08:56:30Z</time>
      </trkpt>
      <trkpt lat="44.46087" lon="5.8903">
        <ele>1066</ele>
        <time>2019-06-25T08:56:31Z</time>
      </trkpt>
      <trkpt lat="44.46089" lon="5.8903">
        <ele>1066</ele>
        <time>2019-06-25T08:56:32Z</time>
      </trkpt>
      <trkpt lat="44.46091" lon="5.8903">
        <ele>1067</ele>
        <time>2019-06-25T08:56:33Z</time>
      </trkpt>
      <trkpt lat="44.46094" lon="5.89029">
        <ele>1067</ele>
        <time>2019-06-25T08:56:34Z</time>
      </trkpt>
      <trkpt lat="44.46096" lon="5.89028">
        <ele>1068</ele>
        <time>2019-06-25T08:56:35Z</time>
      </trkpt>
      <trkpt lat="44.46099" lon="5.89027">
        <ele>1068</ele>
        <time>2019-06-25T08:56:36Z</time>
      </trkpt>
      <trkpt lat="44.46102" lon="5.89025">
        <ele>1069</ele>
        <time>2019-06-25T08:56:37Z</time>
      </trkpt>
      <trkpt lat="44.46106" lon="5.89023">
        <ele>1070</ele>
        <time>2019-06-25T08:56:38Z</time>
      </trkpt>
      <trkpt lat="44.46108" lon="5.89022">
        <ele>1071</ele>
        <time>2019-06-25T08:56:39Z</time>
      </trkpt>
      <trkpt lat="44.46111" lon="5.89021">
        <ele>1072</ele>
        <time>2019-06-25T08:56:40Z</time>
      </trkpt>
      <trkpt lat="44.46113" lon="5.89019">
        <ele>1073</ele>
        <time>2019-06-25T08:56:41Z</time>
      </trkpt>
      <trkpt lat="44.46115" lon="5.89018">
        <ele>1074</ele>
        <time>2019-06-25T08:56:42Z</time>
      </trkpt>
      <trkpt lat="44.46118" lon="5.89017">
        <ele>1075</ele>
        <time>2019-06-25T08:56:43Z</time>
      </trkpt>
      <trkpt lat="44.4612" lon="5.89016">
        <ele>1076</ele>
        <time>2019-06-25T08:56:44Z</time>
      </trkpt>
      <trkpt lat="44.46122" lon="5.89015">
        <ele>1076</ele>
        <time>2019-06-25T08:56:45Z</time>
      </trkpt>
      <trkpt lat="44.46125" lon="5.89014">
        <ele>1077</ele>
        <time>2019-06-25T08:56:46Z</time>
      </trkpt>
      <trkpt lat="44.46128" lon="5.89014">
        <ele>1077</ele>
        <time>2019-06-25T08:56:47Z</time>
      </trkpt>
      <trkpt lat="44.46131" lon="5.89013">
        <ele>1078</ele>
        <time>2019-06-25T08:56:48Z</time>
      </trkpt>
      <trkpt lat="44.46133" lon="5.89013">
        <ele>1078</ele>
        <time>2019-06-25T08:56:49Z</time>
      </trkpt>
      <trkpt lat="44.46136" lon="5.89012">
        <ele>1079</ele>
        <time>2019-06-25T08:56:50Z</time>
      </trkpt>
      <trkpt lat="44.46138" lon="5.8901">
        <ele>1079</ele>
        <time>2019-06-25T08:56:51Z</time>
      </trkpt>
      <trkpt lat="44.4614" lon="5.89009">
        <ele>1080</ele>
        <time>2019-06-25T08:56:52Z</time>
      </trkpt>
      <trkpt lat="44.46143" lon="5.89008">
        <ele>1080</ele>
        <time>2019-06-25T08:56:53Z</time>
      </trkpt>
      <trkpt lat="44.46146" lon="5.89007">
        <ele>1081</ele>
        <time>2019-06-25T08:56:54Z</time>
      </trkpt>
      <trkpt lat="44.46149" lon="5.89007">
        <ele>1082</ele>
        <time>2019-06-25T08:56:55Z</time>
      </trkpt>
      <trkpt lat="44.46153" lon="5.89007">
        <ele>1082</ele>
        <time>2019-06-25T08:56:56Z</time>
      </trkpt>
      <trkpt lat="44.46156" lon="5.89005">
        <ele>1083</ele>
        <time>2019-06-25T08:56:57Z</time>
      </trkpt>
      <trkpt lat="44.46158" lon="5.89004">
        <ele>1084</ele>
        <time>2019-06-25T08:56:58Z</time>
      </trkpt>
      <trkpt lat="44.4616" lon="5.89001">
        <ele>1084</ele>
        <time>2019-06-25T08:56:59Z</time>
      </trkpt>
      <trkpt lat="44.46161" lon="5.88999">
        <ele>1084</ele>
        <time>2019-06-25T08:57:00Z</time>
      </trkpt>
      <trkpt lat="44.46163" lon="5.88997">
        <ele>1084</ele>
        <time>2019-06-25T08:57:01Z</time>
      </trkpt>
      <trkpt lat="44.46165" lon="5.88994">
        <ele>1084</ele>
        <time>2019-06-25T08:57:02Z</time>
      </trkpt>
      <trkpt lat="44.46167" lon="5.88992">
        <ele>1084</ele>
        <time>2019-06-25T08:57:03Z</time>
      </trkpt>
      <trkpt lat="44.46169" lon="5.88989">
        <ele>1084</ele>
        <time>2019-06-25T08:57:04Z</time>
      </trkpt>
      <trkpt lat="44.46171" lon="5.88987">
        <ele>1084</ele>
        <time>2019-06-25T08:57:05Z</time>
      </trkpt>
      <trkpt lat="44.46173" lon="5.88985">
        <ele>1084</ele>
        <time>2019-06-25T08:57:06Z</time>
      </trkpt>
      <trkpt lat="44.46175" lon="5.88982">
        <ele>1084</ele>
        <time>2019-06-25T08:57:07Z</time>
      </trkpt>
      <trkpt lat="44.46178" lon="5.8898">
        <ele>1084</ele>
        <time>2019-06-25T08:57:08Z</time>
      </trkpt>
      <trkpt lat="44.46181" lon="5.88979">
        <ele>1084</ele>
        <time>2019-06-25T08:57:09Z</time>
      </trkpt>
      <trkpt lat="44.46184" lon="5.88978">
        <ele>1084</ele>
        <time>2019-06-25T08:57:10Z</time>
      </trkpt>
      <trkpt lat="44.46186" lon="5.88978">
        <ele>1083</ele>
        <time>2019-06-25T08:57:11Z</time>
      </trkpt>
      <trkpt lat="44.46188" lon="5.88977">
        <ele>1083</ele>
        <time>2019-06-25T08:57:12Z</time>
      </trkpt>
      <trkpt lat="44.4619" lon="5.88978">
        <ele>1082</ele>
        <time>2019-06-25T08:57:13Z</time>
      </trkpt>
      <trkpt lat="44.46193" lon="5.88978">
        <ele>1082</ele>
        <time>2019-06-25T08:57:14Z</time>
      </trkpt>
      <trkpt lat="44.46195" lon="5.88979">
        <ele>1081</ele>
        <time>2019-06-25T08:57:15Z</time>
      </trkpt>
      <trkpt lat="44.46196" lon="5.88981">
        <ele>1081</ele>
        <time>2019-06-25T08:57:16Z</time>
      </trkpt>
      <trkpt lat="44.46198" lon="5.88984">
        <ele>1081</ele>
        <time>2019-06-25T08:57:17Z</time>
      </trkpt>
      <trkpt lat="44.462" lon="5.88986">
        <ele>1081</ele>
        <time>2019-06-25T08:57:18Z</time>
      </trkpt>
      <trkpt lat="44.46202" lon="5.88989">
        <ele>1081</ele>
        <time>2019-06-25T08:57:19Z</time>
      </trkpt>
      <trkpt lat="44.46202" lon="5.88992">
        <ele>1081</ele>
        <time>2019-06-25T08:57:20Z</time>
      </trkpt>
      <trkpt lat="44.46204" lon="5.88996">
        <ele>1081</ele>
        <time>2019-06-25T08:57:21Z</time>
      </trkpt>
      <trkpt lat="44.46204" lon="5.88999">
        <ele>1081</ele>
        <time>2019-06-25T08:57:22Z</time>
      </trkpt>
      <trkpt lat="44.46205" lon="5.89002">
        <ele>1080</ele>
        <time>2019-06-25T08:57:23Z</time>
      </trkpt>
      <trkpt lat="44.46205" lon="5.89005">
        <ele>1080</ele>
        <time>2019-06-25T08:57:24Z</time>
      </trkpt>
      <trkpt lat="44.46206" lon="5.89009">
        <ele>1079</ele>
        <time>2019-06-25T08:57:25Z</time>
      </trkpt>
      <trkpt lat="44.46208" lon="5.89012">
        <ele>1079</ele>
        <time>2019-06-25T08:57:26Z</time>
      </trkpt>
      <trkpt lat="44.46209" lon="5.89015">
        <ele>1079</ele>
        <time>2019-06-25T08:57:27Z</time>
      </trkpt>
      <trkpt lat="44.46211" lon="5.89018">
        <ele>1079</ele>
        <time>2019-06-25T08:57:28Z</time>
      </trkpt>
      <trkpt lat="44.46213" lon="5.8902">
        <ele>1079</ele>
        <time>2019-06-25T08:57:29Z</time>
      </trkpt>
      <trkpt lat="44.46214" lon="5.89023">
        <ele>1079</ele>
        <time>2019-06-25T08:57:30Z</time>
      </trkpt>
      <trkpt lat="44.46216" lon="5.89025">
        <ele>1079</ele>
        <time>2019-06-25T08:57:31Z</time>
      </trkpt>
      <trkpt lat="44.46218" lon="5.89027">
        <ele>1079</ele>
        <time>2019-06-25T08:57:32Z</time>
      </trkpt>
      <trkpt lat="44.4622" lon="5.89028">
        <ele>1079</ele>
        <time>2019-06-25T08:57:33Z</time>
      </trkpt>
      <trkpt lat="44.46223" lon="5.89029">
        <ele>1079</ele>
        <time>2019-06-25T08:57:34Z</time>
      </trkpt>
      <trkpt lat="44.46225" lon="5.89029">
        <ele>1079</ele>
        <time>2019-06-25T08:57:35Z</time>
      </trkpt>
      <trkpt lat="44.46227" lon="5.89028">
        <ele>1079</ele>
        <time>2019-06-25T08:57:36Z</time>
      </trkpt>
      <trkpt lat="44.4623" lon="5.89026">
        <ele>1079</ele>
        <time>2019-06-25T08:57:37Z</time>
      </trkpt>
      <trkpt lat="44.46232" lon="5.89024">
        <ele>1079</ele>
        <time>2019-06-25T08:57:38Z</time>
      </trkpt>
      <trkpt lat="44.46234" lon="5.89022">
        <ele>1079</ele>
        <time>2019-06-25T08:57:39Z</time>
      </trkpt>
      <trkpt lat="44.46235" lon="5.89019">
        <ele>1079</ele>
        <time>2019-06-25T08:57:40Z</time>
      </trkpt>
      <trkpt lat="44.46236" lon="5.89017">
        <ele>1079</ele>
        <time>2019-06-25T08:57:41Z</time>
      </trkpt>
      <trkpt lat="44.46237" lon="5.89014">
        <ele>1079</ele>
        <time>2019-06-25T08:57:42Z</time>
      </trkpt>
      <trkpt lat="44.46238" lon="5.89012">
        <ele>1079</ele>
        <time>2019-06-25T08:57:43Z</time>
      </trkpt>
      <trkpt lat="44.46239" lon="5.89009">
        <ele>1079</ele>
        <time>2019-06-25T08:57:44Z</time>
      </trkpt>
      <trkpt lat="44.4624" lon="5.89007">
        <ele>1079</ele>
        <time>2019-06-25T08:57:45Z</time>
      </trkpt>
      <trkpt lat="44.4624" lon="5.89004">
        <ele>1079</ele>
        <time>2019-06-25T08:57:46Z</time>
      </trkpt>
      <trkpt lat="44.46241" lon="5.89002">
        <ele>1079</ele>
        <time>2019-06-25T08:57:47Z</time>
      </trkpt>
      <trkpt lat="44.46242" lon="5.88999">
        <ele>1079</ele>
        <time>2019-06-25T08:57:48Z</time>
      </trkpt>
      <trkpt lat="44.46244" lon="5.88997">
        <ele>1079</ele>
        <time>2019-06-25T08:57:49Z</time>
      </trkpt>
      <trkpt lat="44.46246" lon="5.88995">
        <ele>1079</ele>
        <time>2019-06-25T08:57:50Z</time>
      </trkpt>
      <trkpt lat="44.46249" lon="5.88993">
        <ele>1080</ele>
        <time>2019-06-25T08:57:51Z</time>
      </trkpt>
      <trkpt lat="44.46251" lon="5.88992">
        <ele>1080</ele>
        <time>2019-06-25T08:57:52Z</time>
      </trkpt>
      <trkpt lat="44.46254" lon="5.8899">
        <ele>1080</ele>
        <time>2019-06-25T08:57:53Z</time>
      </trkpt>
      <trkpt lat="44.46256" lon="5.88988">
        <ele>1080</ele>
        <time>2019-06-25T08:57:54Z</time>
      </trkpt>
      <trkpt lat="44.46258" lon="5.88987">
        <ele>1080</ele>
        <time>2019-06-25T08:57:55Z</time>
      </trkpt>
      <trkpt lat="44.4626" lon="5.88985">
        <ele>1080</ele>
        <time>2019-06-25T08:57:56Z</time>
      </trkpt>
      <trkpt lat="44.46261" lon="5.88983">
        <ele>1080</ele>
        <time>2019-06-25T08:57:57Z</time>
      </trkpt>
      <trkpt lat="44.46263" lon="5.88982">
        <ele>1080</ele>
        <time>2019-06-25T08:57:58Z</time>
      </trkpt>
      <trkpt lat="44.46265" lon="5.8898">
        <ele>1080</ele>
        <time>2019-06-25T08:57:59Z</time>
      </trkpt>
      <trkpt lat="44.46268" lon="5.88978">
        <ele>1080</ele>
        <time>2019-06-25T08:58:00Z</time>
      </trkpt>
      <trkpt lat="44.4627" lon="5.88977">
        <ele>1080</ele>
        <time>2019-06-25T08:58:01Z</time>
      </trkpt>
      <trkpt lat="44.46272" lon="5.88975">
        <ele>1080</ele>
        <time>2019-06-25T08:58:02Z</time>
      </trkpt>
      <trkpt lat="44.46274" lon="5.88974">
        <ele>1080</ele>
        <time>2019-06-25T08:58:03Z</time>
      </trkpt>
      <trkpt lat="44.46276" lon="5.88972">
        <ele>1080</ele>
        <time>2019-06-25T08:58:04Z</time>
      </trkpt>
      <trkpt lat="44.46278" lon="5.8897">
        <ele>1080</ele>
        <time>2019-06-25T08:58:05Z</time>
      </trkpt>
      <trkpt lat="44.46281" lon="5.88969">
        <ele>1080</ele>
        <time>2019-06-25T08:58:06Z</time>
      </trkpt>
      <trkpt lat="44.46283" lon="5.88968">
        <ele>1080</ele>
        <time>2019-06-25T08:58:07Z</time>
      </trkpt>
      <trkpt lat="44.46286" lon="5.88968">
        <ele>1080</ele>
        <time>2019-06-25T08:58:08Z</time>
      </trkpt>
      <trkpt lat="44.46288" lon="5.88969">
        <ele>1080</ele>
        <time>2019-06-25T08:58:09Z</time>
      </trkpt>
      <trkpt lat="44.4629" lon="5.88971">
        <ele>1080</ele>
        <time>2019-06-25T08:58:10Z</time>
      </trkpt>
      <trkpt lat="44.46292" lon="5.88974">
        <ele>1080</ele>
        <time>2019-06-25T08:58:11Z</time>
      </trkpt>
      <trkpt lat="44.46292" lon="5.88977">
        <ele>1080</ele>
        <time>2019-06-25T08:58:12Z</time>
      </trkpt>
      <trkpt lat="44.46293" lon="5.8898">
        <ele>1081</ele>
        <time>2019-06-25T08:58:13Z</time>
      </trkpt>
      <trkpt lat="44.46293" lon="5.88984">
        <ele>1081</ele>
        <time>2019-06-25T08:58:14Z</time>
      </trkpt>
      <trkpt lat="44.46293" lon="5.88987">
        <ele>1081</ele>
        <time>2019-06-25T08:58:15Z</time>
      </trkpt>
      <trkpt lat="44.46293" lon="5.88991">
        <ele>1081</ele>
        <time>2019-06-25T08:58:16Z</time>
      </trkpt>
      <trkpt lat="44.46294" lon="5.88995">
        <ele>1081</ele>
        <time>2019-06-25T08:58:17Z</time>
      </trkpt>
      <trkpt lat="44.46295" lon="5.88998">
        <ele>1081</ele>
        <time>2019-06-25T08:58:18Z</time>
      </trkpt>
      <trkpt lat="44.46296" lon="5.89">
        <ele>1081</ele>
        <time>2019-06-25T08:58:19Z</time>
      </trkpt>
      <trkpt lat="44.46298" lon="5.89002">
        <ele>1082</ele>
        <time>2019-06-25T08:58:20Z</time>
      </trkpt>
      <trkpt lat="44.463" lon="5.89004">
        <ele>1082</ele>
        <time>2019-06-25T08:58:21Z</time>
      </trkpt>
      <trkpt lat="44.46302" lon="5.89005">
        <ele>1082</ele>
        <time>2019-06-25T08:58:22Z</time>
      </trkpt>
      <trkpt lat="44.46304" lon="5.89005">
        <ele>1082</ele>
        <time>2019-06-25T08:58:23Z</time>
      </trkpt>
      <trkpt lat="44.46307" lon="5.89004">
        <ele>1083</ele>
        <time>2019-06-25T08:58:24Z</time>
      </trkpt>
      <trkpt lat="44.46309" lon="5.89004">
        <ele>1083</ele>
        <time>2019-06-25T08:58:25Z</time>
      </trkpt>
      <trkpt lat="44.46311" lon="5.89004">
        <ele>1083</ele>
        <time>2019-06-25T08:58:26Z</time>
      </trkpt>
      <trkpt lat="44.46313" lon="5.89004">
        <ele>1084</ele>
        <time>2019-06-25T08:58:27Z</time>
      </trkpt>
      <trkpt lat="44.46315" lon="5.89004">
        <ele>1084</ele>
        <time>2019-06-25T08:58:28Z</time>
      </trkpt>
      <trkpt lat="44.46317" lon="5.89005">
        <ele>1084</ele>
        <time>2019-06-25T08:58:29Z</time>
      </trkpt>
      <trkpt lat="44.4632" lon="5.89005">
        <ele>1085</ele>
        <time>2019-06-25T08:58:30Z</time>
      </trkpt>
      <trkpt lat="44.46322" lon="5.89006">
        <ele>1085</ele>
        <time>2019-06-25T08:58:31Z</time>
      </trkpt>
      <trkpt lat="44.46324" lon="5.89007">
        <ele>1086</ele>
        <time>2019-06-25T08:58:32Z</time>
      </trkpt>
      <trkpt lat="44.46326" lon="5.89008">
        <ele>1086</ele>
        <time>2019-06-25T08:58:33Z</time>
      </trkpt>
      <trkpt lat="44.46328" lon="5.89009">
        <ele>1086</ele>
        <time>2019-06-25T08:58:34Z</time>
      </trkpt>
      <trkpt lat="44.4633" lon="5.89009">
        <ele>1087</ele>
        <time>2019-06-25T08:58:35Z</time>
      </trkpt>
      <trkpt lat="44.46332" lon="5.89009">
        <ele>1087</ele>
        <time>2019-06-25T08:58:36Z</time>
      </trkpt>
      <trkpt lat="44.46333" lon="5.8901">
        <ele>1088</ele>
        <time>2019-06-25T08:58:37Z</time>
      </trkpt>
      <trkpt lat="44.46335" lon="5.89009">
        <ele>1088</ele>
        <time>2019-06-25T08:58:38Z</time>
      </trkpt>
      <trkpt lat="44.46338" lon="5.89009">
        <ele>1088</ele>
        <time>2019-06-25T08:58:39Z</time>
      </trkpt>
      <trkpt lat="44.46339" lon="5.8901">
        <ele>1089</ele>
        <time>2019-06-25T08:58:40Z</time>
      </trkpt>
      <trkpt lat="44.46341" lon="5.89011">
        <ele>1089</ele>
        <time>2019-06-25T08:58:41Z</time>
      </trkpt>
      <trkpt lat="44.46343" lon="5.89012">
        <ele>1089</ele>
        <time>2019-06-25T08:58:42Z</time>
      </trkpt>
      <trkpt lat="44.46345" lon="5.89013">
        <ele>1089</ele>
        <time>2019-06-25T08:58:43Z</time>
      </trkpt>
      <trkpt lat="44.46348" lon="5.89014">
        <ele>1090</ele>
        <time>2019-06-25T08:58:44Z</time>
      </trkpt>
      <trkpt lat="44.4635" lon="5.89014">
        <ele>1090</ele>
        <time>2019-06-25T08:58:45Z</time>
      </trkpt>
      <trkpt lat="44.46353" lon="5.89014">
        <ele>1090</ele>
        <time>2019-06-25T08:58:46Z</time>
      </trkpt>
      <trkpt lat="44.46356" lon="5.89013">
        <ele>1090</ele>
        <time>2019-06-25T08:58:47Z</time>
      </trkpt>
      <trkpt lat="44.46359" lon="5.89013">
        <ele>1090</ele>
        <time>2019-06-25T08:58:48Z</time>
      </trkpt>
      <trkpt lat="44.46361" lon="5.89012">
        <ele>1090</ele>
        <time>2019-06-25T08:58:49Z</time>
      </trkpt>
      <trkpt lat="44.46363" lon="5.89012">
        <ele>1090</ele>
        <time>2019-06-25T08:58:50Z</time>
      </trkpt>
      <trkpt lat="44.46365" lon="5.89012">
        <ele>1090</ele>
        <time>2019-06-25T08:58:51Z</time>
      </trkpt>
      <trkpt lat="44.46368" lon="5.89012">
        <ele>1090</ele>
        <time>2019-06-25T08:58:52Z</time>
      </trkpt>
      <trkpt lat="44.4637" lon="5.89012">
        <ele>1090</ele>
        <time>2019-06-25T08:58:53Z</time>
      </trkpt>
      <trkpt lat="44.46373" lon="5.89013">
        <ele>1090</ele>
        <time>2019-06-25T08:58:54Z</time>
      </trkpt>
      <trkpt lat="44.46376" lon="5.89013">
        <ele>1090</ele>
        <time>2019-06-25T08:58:55Z</time>
      </trkpt>
      <trkpt lat="44.4638" lon="5.89013">
        <ele>1090</ele>
        <time>2019-06-25T08:58:56Z</time>
      </trkpt>
      <trkpt lat="44.46383" lon="5.89012">
        <ele>1090</ele>
        <time>2019-06-25T08:58:57Z</time>
      </trkpt>
      <trkpt lat="44.46386" lon="5.89012">
        <ele>1091</ele>
        <time>2019-06-25T08:58:58Z</time>
      </trkpt>
      <trkpt lat="44.46389" lon="5.8901">
        <ele>1091</ele>
        <time>2019-06-25T08:58:59Z</time>
      </trkpt>
      <trkpt lat="44.46392" lon="5.89006">
        <ele>1091</ele>
        <time>2019-06-25T08:59:00Z</time>
      </trkpt>
      <trkpt lat="44.46394" lon="5.89003">
        <ele>1091</ele>
        <time>2019-06-25T08:59:01Z</time>
      </trkpt>
      <trkpt lat="44.46396" lon="5.89">
        <ele>1091</ele>
        <time>2019-06-25T08:59:02Z</time>
      </trkpt>
      <trkpt lat="44.46397" lon="5.88996">
        <ele>1091</ele>
        <time>2019-06-25T08:59:03Z</time>
      </trkpt>
      <trkpt lat="44.46398" lon="5.88992">
        <ele>1091</ele>
        <time>2019-06-25T08:59:04Z</time>
      </trkpt>
      <trkpt lat="44.464" lon="5.88987">
        <ele>1091</ele>
        <time>2019-06-25T08:59:05Z</time>
      </trkpt>
      <trkpt lat="44.46401" lon="5.88982">
        <ele>1091</ele>
        <time>2019-06-25T08:59:06Z</time>
      </trkpt>
      <trkpt lat="44.46402" lon="5.88978">
        <ele>1091</ele>
        <time>2019-06-25T08:59:07Z</time>
      </trkpt>
      <trkpt lat="44.46402" lon="5.88974">
        <ele>1091</ele>
        <time>2019-06-25T08:59:08Z</time>
      </trkpt>
      <trkpt lat="44.46403" lon="5.88969">
        <ele>1091</ele>
        <time>2019-06-25T08:59:09Z</time>
      </trkpt>
      <trkpt lat="44.46403" lon="5.88964">
        <ele>1091</ele>
        <time>2019-06-25T08:59:10Z</time>
      </trkpt>
      <trkpt lat="44.46402" lon="5.8896">
        <ele>1091</ele>
        <time>2019-06-25T08:59:11Z</time>
      </trkpt>
      <trkpt lat="44.46402" lon="5.88956">
        <ele>1091</ele>
        <time>2019-06-25T08:59:12Z</time>
      </trkpt>
      <trkpt lat="44.46401" lon="5.88952">
        <ele>1091</ele>
        <time>2019-06-25T08:59:13Z</time>
      </trkpt>
      <trkpt lat="44.464" lon="5.88948">
        <ele>1091</ele>
        <time>2019-06-25T08:59:14Z</time>
      </trkpt>
      <trkpt lat="44.464" lon="5.88944">
        <ele>1091</ele>
        <time>2019-06-25T08:59:15Z</time>
      </trkpt>
      <trkpt lat="44.46399" lon="5.8894">
        <ele>1091</ele>
        <time>2019-06-25T08:59:16Z</time>
      </trkpt>
      <trkpt lat="44.46398" lon="5.88937">
        <ele>1092</ele>
        <time>2019-06-25T08:59:17Z</time>
      </trkpt>
      <trkpt lat="44.46397" lon="5.88933">
        <ele>1092</ele>
        <time>2019-06-25T08:59:18Z</time>
      </trkpt>
      <trkpt lat="44.46396" lon="5.88929">
        <ele>1092</ele>
        <time>2019-06-25T08:59:19Z</time>
      </trkpt>
      <trkpt lat="44.46395" lon="5.88926">
        <ele>1093</ele>
        <time>2019-06-25T08:59:20Z</time>
      </trkpt>
      <trkpt lat="44.46394" lon="5.88922">
        <ele>1093</ele>
        <time>2019-06-25T08:59:21Z</time>
      </trkpt>
      <trkpt lat="44.46393" lon="5.88918">
        <ele>1093</ele>
        <time>2019-06-25T08:59:22Z</time>
      </trkpt>
      <trkpt lat="44.46391" lon="5.88914">
        <ele>1094</ele>
        <time>2019-06-25T08:59:23Z</time>
      </trkpt>
      <trkpt lat="44.4639" lon="5.88911">
        <ele>1094</ele>
        <time>2019-06-25T08:59:24Z</time>
      </trkpt>
      <trkpt lat="44.46389" lon="5.88908">
        <ele>1095</ele>
        <time>2019-06-25T08:59:25Z</time>
      </trkpt>
      <trkpt lat="44.46389" lon="5.88904">
        <ele>1096</ele>
        <time>2019-06-25T08:59:26Z</time>
      </trkpt>
      <trkpt lat="44.46387" lon="5.889">
        <ele>1097</ele>
        <time>2019-06-25T08:59:27Z</time>
      </trkpt>
      <trkpt lat="44.46386" lon="5.88896">
        <ele>1098</ele>
        <time>2019-06-25T08:59:28Z</time>
      </trkpt>
      <trkpt lat="44.46387" lon="5.88892">
        <ele>1099</ele>
        <time>2019-06-25T08:59:29Z</time>
      </trkpt>
      <trkpt lat="44.46389" lon="5.88889">
        <ele>1100</ele>
        <time>2019-06-25T08:59:30Z</time>
      </trkpt>
      <trkpt lat="44.46389" lon="5.88886">
        <ele>1101</ele>
        <time>2019-06-25T08:59:31Z</time>
      </trkpt>
      <trkpt lat="44.46391" lon="5.88884">
        <ele>1102</ele>
        <time>2019-06-25T08:59:32Z</time>
      </trkpt>
      <trkpt lat="44.46392" lon="5.88883">
        <ele>1102</ele>
        <time>2019-06-25T08:59:33Z</time>
      </trkpt>
      <trkpt lat="44.46396" lon="5.88883">
        <ele>1103</ele>
        <time>2019-06-25T08:59:34Z</time>
      </trkpt>
      <trkpt lat="44.46399" lon="5.88883">
        <ele>1103</ele>
        <time>2019-06-25T08:59:35Z</time>
      </trkpt>
      <trkpt lat="44.46402" lon="5.88883">
        <ele>1103</ele>
        <time>2019-06-25T08:59:36Z</time>
      </trkpt>
      <trkpt lat="44.46405" lon="5.88882">
        <ele>1104</ele>
        <time>2019-06-25T08:59:37Z</time>
      </trkpt>
      <trkpt lat="44.46407" lon="5.88882">
        <ele>1104</ele>
        <time>2019-06-25T08:59:38Z</time>
      </trkpt>
      <trkpt lat="44.4641" lon="5.88881">
        <ele>1105</ele>
        <time>2019-06-25T08:59:39Z</time>
      </trkpt>
      <trkpt lat="44.46413" lon="5.8888">
        <ele>1106</ele>
        <time>2019-06-25T08:59:40Z</time>
      </trkpt>
      <trkpt lat="44.46416" lon="5.88878">
        <ele>1106</ele>
        <time>2019-06-25T08:59:41Z</time>
      </trkpt>
      <trkpt lat="44.4642" lon="5.88876">
        <ele>1107</ele>
        <time>2019-06-25T08:59:42Z</time>
      </trkpt>
      <trkpt lat="44.46422" lon="5.88873">
        <ele>1107</ele>
        <time>2019-06-25T08:59:43Z</time>
      </trkpt>
      <trkpt lat="44.46425" lon="5.88871">
        <ele>1108</ele>
        <time>2019-06-25T08:59:44Z</time>
      </trkpt>
      <trkpt lat="44.46428" lon="5.8887">
        <ele>1108</ele>
        <time>2019-06-25T08:59:45Z</time>
      </trkpt>
      <trkpt lat="44.46431" lon="5.88869">
        <ele>1108</ele>
        <time>2019-06-25T08:59:46Z</time>
      </trkpt>
      <trkpt lat="44.46435" lon="5.88868">
        <ele>1109</ele>
        <time>2019-06-25T08:59:47Z</time>
      </trkpt>
      <trkpt lat="44.46439" lon="5.88867">
        <ele>1109</ele>
        <time>2019-06-25T08:59:48Z</time>
      </trkpt>
      <trkpt lat="44.46441" lon="5.88866">
        <ele>1110</ele>
        <time>2019-06-25T08:59:49Z</time>
      </trkpt>
      <trkpt lat="44.46444" lon="5.88864">
        <ele>1111</ele>
        <time>2019-06-25T08:59:50Z</time>
      </trkpt>
      <trkpt lat="44.46447" lon="5.88861">
        <ele>1111</ele>
        <time>2019-06-25T08:59:51Z</time>
      </trkpt>
      <trkpt lat="44.46449" lon="5.88858">
        <ele>1111</ele>
        <time>2019-06-25T08:59:52Z</time>
      </trkpt>
      <trkpt lat="44.4645" lon="5.88854">
        <ele>1111</ele>
        <time>2019-06-25T08:59:53Z</time>
      </trkpt>
      <trkpt lat="44.46451" lon="5.8885">
        <ele>1111</ele>
        <time>2019-06-25T08:59:54Z</time>
      </trkpt>
      <trkpt lat="44.46451" lon="5.88845">
        <ele>1111</ele>
        <time>2019-06-25T08:59:55Z</time>
      </trkpt>
      <trkpt lat="44.46451" lon="5.88841">
        <ele>1111</ele>
        <time>2019-06-25T08:59:56Z</time>
      </trkpt>
      <trkpt lat="44.4645" lon="5.88836">
        <ele>1111</ele>
        <time>2019-06-25T08:59:57Z</time>
      </trkpt>
      <trkpt lat="44.4645" lon="5.88832">
        <ele>1111</ele>
        <time>2019-06-25T08:59:58Z</time>
      </trkpt>
      <trkpt lat="44.4645" lon="5.88828">
        <ele>1110</ele>
        <time>2019-06-25T08:59:59Z</time>
      </trkpt>
      <trkpt lat="44.46451" lon="5.88824">
        <ele>1110</ele>
        <time>2019-06-25T09:00:00Z</time>
      </trkpt>
      <trkpt lat="44.46451" lon="5.8882">
        <ele>1109</ele>
        <time>2019-06-25T09:00:01Z</time>
      </trkpt>
      <trkpt lat="44.46452" lon="5.88816">
        <ele>1109</ele>
        <time>2019-06-25T09:00:02Z</time>
      </trkpt>
      <trkpt lat="44.46453" lon="5.88812">
        <ele>1109</ele>
        <time>2019-06-25T09:00:03Z</time>
      </trkpt>
      <trkpt lat="44.46453" lon="5.88808">
        <ele>1109</ele>
        <time>2019-06-25T09:00:04Z</time>
      </trkpt>
      <trkpt lat="44.46453" lon="5.88804">
        <ele>1109</ele>
        <time>2019-06-25T09:00:05Z</time>
      </trkpt>
      <trkpt lat="44.46453" lon="5.88799">
        <ele>1109</ele>
        <time>2019-06-25T09:00:06Z</time>
      </trkpt>
      <trkpt lat="44.46453" lon="5.88795">
        <ele>1109</ele>
        <time>2019-06-25T09:00:07Z</time>
      </trkpt>
      <trkpt lat="44.46453" lon="5.88792">
        <ele>1109</ele>
        <time>2019-06-25T09:00:08Z</time>
      </trkpt>
      <trkpt lat="44.46453" lon="5.88788">
        <ele>1109</ele>
        <time>2019-06-25T09:00:09Z</time>
      </trkpt>
      <trkpt lat="44.46453" lon="5.88784">
        <ele>1109</ele>
        <time>2019-06-25T09:00:10Z</time>
      </trkpt>
      <trkpt lat="44.46453" lon="5.8878">
        <ele>1109</ele>
        <time>2019-06-25T09:00:11Z</time>
      </trkpt>
      <trkpt lat="44.46453" lon="5.88776">
        <ele>1109</ele>
        <time>2019-06-25T09:00:12Z</time>
      </trkpt>
      <trkpt lat="44.46453" lon="5.88772">
        <ele>1109</ele>
        <time>2019-06-25T09:00:13Z</time>
      </trkpt>
      <trkpt lat="44.46455" lon="5.88768">
        <ele>1109</ele>
        <time>2019-06-25T09:00:14Z</time>
      </trkpt>
      <trkpt lat="44.46455" lon="5.88764">
        <ele>1110</ele>
        <time>2019-06-25T09:00:15Z</time>
      </trkpt>
      <trkpt lat="44.46455" lon="5.88761">
        <ele>1110</ele>
        <time>2019-06-25T09:00:16Z</time>
      </trkpt>
      <trkpt lat="44.46455" lon="5.88757">
        <ele>1111</ele>
        <time>2019-06-25T09:00:17Z</time>
      </trkpt>
      <trkpt lat="44.46455" lon="5.88753">
        <ele>1111</ele>
        <time>2019-06-25T09:00:18Z</time>
      </trkpt>
      <trkpt lat="44.46455" lon="5.88749">
        <ele>1111</ele>
        <time>2019-06-25T09:00:19Z</time>
      </trkpt>
      <trkpt lat="44.46455" lon="5.88745">
        <ele>1112</ele>
        <time>2019-06-25T09:00:20Z</time>
      </trkpt>
      <trkpt lat="44.46455" lon="5.88742">
        <ele>1112</ele>
        <time>2019-06-25T09:00:21Z</time>
      </trkpt>
      <trkpt lat="44.46453" lon="5.88738">
        <ele>1113</ele>
        <time>2019-06-25T09:00:22Z</time>
      </trkpt>
      <trkpt lat="44.46452" lon="5.88734">
        <ele>1113</ele>
        <time>2019-06-25T09:00:23Z</time>
      </trkpt>
      <trkpt lat="44.46452" lon="5.88731">
        <ele>1113</ele>
        <time>2019-06-25T09:00:24Z</time>
      </trkpt>
      <trkpt lat="44.46451" lon="5.88727">
        <ele>1113</ele>
        <time>2019-06-25T09:00:25Z</time>
      </trkpt>
      <trkpt lat="44.4645" lon="5.88724">
        <ele>1113</ele>
        <time>2019-06-25T09:00:26Z</time>
      </trkpt>
      <trkpt lat="44.46449" lon="5.88721">
        <ele>1113</ele>
        <time>2019-06-25T09:00:27Z</time>
      </trkpt>
      <trkpt lat="44.46448" lon="5.88718">
        <ele>1114</ele>
        <time>2019-06-25T09:00:28Z</time>
      </trkpt>
      <trkpt lat="44.46447" lon="5.88714">
        <ele>1114</ele>
        <time>2019-06-25T09:00:29Z</time>
      </trkpt>
      <trkpt lat="44.46447" lon="5.88709">
        <ele>1115</ele>
        <time>2019-06-25T09:00:30Z</time>
      </trkpt>
      <trkpt lat="44.46447" lon="5.88705">
        <ele>1115</ele>
        <time>2019-06-25T09:00:31Z</time>
      </trkpt>
      <trkpt lat="44.46448" lon="5.887">
        <ele>1116</ele>
        <time>2019-06-25T09:00:32Z</time>
      </trkpt>
      <trkpt lat="44.4645" lon="5.88696">
        <ele>1117</ele>
        <time>2019-06-25T09:00:33Z</time>
      </trkpt>
      <trkpt lat="44.46451" lon="5.88693">
        <ele>1117</ele>
        <time>2019-06-25T09:00:34Z</time>
      </trkpt>
      <trkpt lat="44.46454" lon="5.88689">
        <ele>1118</ele>
        <time>2019-06-25T09:00:35Z</time>
      </trkpt>
      <trkpt lat="44.46457" lon="5.88685">
        <ele>1119</ele>
        <time>2019-06-25T09:00:36Z</time>
      </trkpt>
      <trkpt lat="44.46459" lon="5.88682">
        <ele>1120</ele>
        <time>2019-06-25T09:00:37Z</time>
      </trkpt>
      <trkpt lat="44.46462" lon="5.88679">
        <ele>1121</ele>
        <time>2019-06-25T09:00:38Z</time>
      </trkpt>
      <trkpt lat="44.46464" lon="5.88676">
        <ele>1122</ele>
        <time>2019-06-25T09:00:39Z</time>
      </trkpt>
      <trkpt lat="44.46467" lon="5.88674">
        <ele>1123</ele>
        <time>2019-06-25T09:00:40Z</time>
      </trkpt>
      <trkpt lat="44.46469" lon="5.8867">
        <ele>1124</ele>
        <time>2019-06-25T09:00:41Z</time>
      </trkpt>
      <trkpt lat="44.4647" lon="5.88666">
        <ele>1125</ele>
        <time>2019-06-25T09:00:42Z</time>
      </trkpt>
      <trkpt lat="44.46471" lon="5.88662">
        <ele>1126</ele>
        <time>2019-06-25T09:00:43Z</time>
      </trkpt>
      <trkpt lat="44.46471" lon="5.88658">
        <ele>1127</ele>
        <time>2019-06-25T09:00:44Z</time>
      </trkpt>
      <trkpt lat="44.46471" lon="5.88654">
        <ele>1128</ele>
        <time>2019-06-25T09:00:45Z</time>
      </trkpt>
      <trkpt lat="44.46471" lon="5.88651">
        <ele>1128</ele>
        <time>2019-06-25T09:00:46Z</time>
      </trkpt>
      <trkpt lat="44.4647" lon="5.88646">
        <ele>1128</ele>
        <time>2019-06-25T09:00:47Z</time>
      </trkpt>
      <trkpt lat="44.46469" lon="5.88642">
        <ele>1128</ele>
        <time>2019-06-25T09:00:48Z</time>
      </trkpt>
      <trkpt lat="44.46469" lon="5.88637">
        <ele>1128</ele>
        <time>2019-06-25T09:00:49Z</time>
      </trkpt>
      <trkpt lat="44.4647" lon="5.88633">
        <ele>1128</ele>
        <time>2019-06-25T09:00:50Z</time>
      </trkpt>
      <trkpt lat="44.4647" lon="5.88628">
        <ele>1128</ele>
        <time>2019-06-25T09:00:51Z</time>
      </trkpt>
      <trkpt lat="44.46471" lon="5.88624">
        <ele>1128</ele>
        <time>2019-06-25T09:00:52Z</time>
      </trkpt>
      <trkpt lat="44.46471" lon="5.8862">
        <ele>1128</ele>
        <time>2019-06-25T09:00:53Z</time>
      </trkpt>
      <trkpt lat="44.46471" lon="5.88615">
        <ele>1128</ele>
        <time>2019-06-25T09:00:54Z</time>
      </trkpt>
      <trkpt lat="44.46471" lon="5.88611">
        <ele>1128</ele>
        <time>2019-06-25T09:00:55Z</time>
      </trkpt>
      <trkpt lat="44.46472" lon="5.88606">
        <ele>1128</ele>
        <time>2019-06-25T09:00:56Z</time>
      </trkpt>
      <trkpt lat="44.46473" lon="5.88603">
        <ele>1128</ele>
        <time>2019-06-25T09:00:57Z</time>
      </trkpt>
      <trkpt lat="44.46473" lon="5.88599">
        <ele>1128</ele>
        <time>2019-06-25T09:00:58Z</time>
      </trkpt>
      <trkpt lat="44.46475" lon="5.88596">
        <ele>1128</ele>
        <time>2019-06-25T09:00:59Z</time>
      </trkpt>
      <trkpt lat="44.46477" lon="5.88593">
        <ele>1128</ele>
        <time>2019-06-25T09:01:00Z</time>
      </trkpt>
      <trkpt lat="44.46479" lon="5.88592">
        <ele>1128</ele>
        <time>2019-06-25T09:01:01Z</time>
      </trkpt>
      <trkpt lat="44.46481" lon="5.8859">
        <ele>1128</ele>
        <time>2019-06-25T09:01:02Z</time>
      </trkpt>
      <trkpt lat="44.46483" lon="5.8859">
        <ele>1128</ele>
        <time>2019-06-25T09:01:03Z</time>
      </trkpt>
      <trkpt lat="44.46486" lon="5.88589">
        <ele>1128</ele>
        <time>2019-06-25T09:01:04Z</time>
      </trkpt>
      <trkpt lat="44.46488" lon="5.88588">
        <ele>1128</ele>
        <time>2019-06-25T09:01:05Z</time>
      </trkpt>
      <trkpt lat="44.46491" lon="5.88588">
        <ele>1128</ele>
        <time>2019-06-25T09:01:06Z</time>
      </trkpt>
      <trkpt lat="44.46494" lon="5.88588">
        <ele>1128</ele>
        <time>2019-06-25T09:01:07Z</time>
      </trkpt>
      <trkpt lat="44.46497" lon="5.88588">
        <ele>1128</ele>
        <time>2019-06-25T09:01:08Z</time>
      </trkpt>
      <trkpt lat="44.465" lon="5.88588">
        <ele>1128</ele>
        <time>2019-06-25T09:01:09Z</time>
      </trkpt>
      <trkpt lat="44.46502" lon="5.88587">
        <ele>1128</ele>
        <time>2019-06-25T09:01:10Z</time>
      </trkpt>
      <trkpt lat="44.46504" lon="5.88587">
        <ele>1128</ele>
        <time>2019-06-25T09:01:11Z</time>
      </trkpt>
      <trkpt lat="44.46507" lon="5.88586">
        <ele>1128</ele>
        <time>2019-06-25T09:01:12Z</time>
      </trkpt>
      <trkpt lat="44.46509" lon="5.88586">
        <ele>1128</ele>
        <time>2019-06-25T09:01:13Z</time>
      </trkpt>
      <trkpt lat="44.46512" lon="5.88585">
        <ele>1128</ele>
        <time>2019-06-25T09:01:14Z</time>
      </trkpt>
      <trkpt lat="44.46515" lon="5.88584">
        <ele>1128</ele>
        <time>2019-06-25T09:01:15Z</time>
      </trkpt>
      <trkpt lat="44.46517" lon="5.88584">
        <ele>1128</ele>
        <time>2019-06-25T09:01:16Z</time>
      </trkpt>
      <trkpt lat="44.46519" lon="5.88583">
        <ele>1128</ele>
        <time>2019-06-25T09:01:17Z</time>
      </trkpt>
      <trkpt lat="44.46521" lon="5.88582">
        <ele>1128</ele>
        <time>2019-06-25T09:01:18Z</time>
      </trkpt>
      <trkpt lat="44.46523" lon="5.88582">
        <ele>1128</ele>
        <time>2019-06-25T09:01:19Z</time>
      </trkpt>
      <trkpt lat="44.46526" lon="5.88581">
        <ele>1128</ele>
        <time>2019-06-25T09:01:20Z</time>
      </trkpt>
      <trkpt lat="44.46527" lon="5.8858">
        <ele>1128</ele>
        <time>2019-06-25T09:01:21Z</time>
      </trkpt>
      <trkpt lat="44.4653" lon="5.8858">
        <ele>1128</ele>
        <time>2019-06-25T09:01:22Z</time>
      </trkpt>
      <trkpt lat="44.46533" lon="5.88579">
        <ele>1128</ele>
        <time>2019-06-25T09:01:23Z</time>
      </trkpt>
      <trkpt lat="44.46535" lon="5.88579">
        <ele>1128</ele>
        <time>2019-06-25T09:01:24Z</time>
      </trkpt>
      <trkpt lat="44.46538" lon="5.88578">
        <ele>1128</ele>
        <time>2019-06-25T09:01:25Z</time>
      </trkpt>
      <trkpt lat="44.46541" lon="5.88578">
        <ele>1128</ele>
        <time>2019-06-25T09:01:26Z</time>
      </trkpt>
      <trkpt lat="44.46543" lon="5.88578">
        <ele>1128</ele>
        <time>2019-06-25T09:01:27Z</time>
      </trkpt>
      <trkpt lat="44.46546" lon="5.88579">
        <ele>1128</ele>
        <time>2019-06-25T09:01:28Z</time>
      </trkpt>
      <trkpt lat="44.46548" lon="5.88579">
        <ele>1128</ele>
        <time>2019-06-25T09:01:29Z</time>
      </trkpt>
      <trkpt lat="44.4655" lon="5.88579">
        <ele>1128</ele>
        <time>2019-06-25T09:01:30Z</time>
      </trkpt>
      <trkpt lat="44.46553" lon="5.8858">
        <ele>1128</ele>
        <time>2019-06-25T09:01:31Z</time>
      </trkpt>
      <trkpt lat="44.46555" lon="5.88581">
        <ele>1128</ele>
        <time>2019-06-25T09:01:32Z</time>
      </trkpt>
      <trkpt lat="44.46557" lon="5.88582">
        <ele>1128</ele>
        <time>2019-06-25T09:01:33Z</time>
      </trkpt>
      <trkpt lat="44.46559" lon="5.88583">
        <ele>1128</ele>
        <time>2019-06-25T09:01:34Z</time>
      </trkpt>
      <trkpt lat="44.46561" lon="5.88583">
        <ele>1128</ele>
        <time>2019-06-25T09:01:35Z</time>
      </trkpt>
      <trkpt lat="44.46563" lon="5.88582">
        <ele>1128</ele>
        <time>2019-06-25T09:01:36Z</time>
      </trkpt>
      <trkpt lat="44.46565" lon="5.88582">
        <ele>1128</ele>
        <time>2019-06-25T09:01:37Z</time>
      </trkpt>
      <trkpt lat="44.46567" lon="5.8858">
        <ele>1128</ele>
        <time>2019-06-25T09:01:38Z</time>
      </trkpt>
      <trkpt lat="44.46569" lon="5.88576">
        <ele>1128</ele>
        <time>2019-06-25T09:01:39Z</time>
      </trkpt>
      <trkpt lat="44.46569" lon="5.88573">
        <ele>1128</ele>
        <time>2019-06-25T09:01:40Z</time>
      </trkpt>
      <trkpt lat="44.46569" lon="5.88569">
        <ele>1128</ele>
        <time>2019-06-25T09:01:41Z</time>
      </trkpt>
      <trkpt lat="44.46569" lon="5.88565">
        <ele>1128</ele>
        <time>2019-06-25T09:01:42Z</time>
      </trkpt>
      <trkpt lat="44.46568" lon="5.88562">
        <ele>1127</ele>
        <time>2019-06-25T09:01:43Z</time>
      </trkpt>
      <trkpt lat="44.46568" lon="5.88558">
        <ele>1127</ele>
        <time>2019-06-25T09:01:44Z</time>
      </trkpt>
      <trkpt lat="44.46568" lon="5.88554">
        <ele>1127</ele>
        <time>2019-06-25T09:01:45Z</time>
      </trkpt>
      <trkpt lat="44.46569" lon="5.88551">
        <ele>1127</ele>
        <time>2019-06-25T09:01:46Z</time>
      </trkpt>
      <trkpt lat="44.46569" lon="5.88547">
        <ele>1127</ele>
        <time>2019-06-25T09:01:47Z</time>
      </trkpt>
      <trkpt lat="44.46568" lon="5.88544">
        <ele>1127</ele>
        <time>2019-06-25T09:01:48Z</time>
      </trkpt>
      <trkpt lat="44.46567" lon="5.88541">
        <ele>1127</ele>
        <time>2019-06-25T09:01:49Z</time>
      </trkpt>
      <trkpt lat="44.46566" lon="5.88538">
        <ele>1126</ele>
        <time>2019-06-25T09:01:50Z</time>
      </trkpt>
      <trkpt lat="44.46565" lon="5.88535">
        <ele>1126</ele>
        <time>2019-06-25T09:01:51Z</time>
      </trkpt>
      <trkpt lat="44.46564" lon="5.88531">
        <ele>1126</ele>
        <time>2019-06-25T09:01:52Z</time>
      </trkpt>
      <trkpt lat="44.46564" lon="5.88528">
        <ele>1126</ele>
        <time>2019-06-25T09:01:53Z</time>
      </trkpt>
      <trkpt lat="44.46563" lon="5.88525">
        <ele>1126</ele>
        <time>2019-06-25T09:01:54Z</time>
      </trkpt>
      <trkpt lat="44.46562" lon="5.88522">
        <ele>1126</ele>
        <time>2019-06-25T09:01:55Z</time>
      </trkpt>
      <trkpt lat="44.46561" lon="5.8852">
        <ele>1126</ele>
        <time>2019-06-25T09:01:56Z</time>
      </trkpt>
      <trkpt lat="44.4656" lon="5.88517">
        <ele>1126</ele>
        <time>2019-06-25T09:01:57Z</time>
      </trkpt>
      <trkpt lat="44.46558" lon="5.88514">
        <ele>1126</ele>
        <time>2019-06-25T09:01:58Z</time>
      </trkpt>
      <trkpt lat="44.46557" lon="5.88512">
        <ele>1126</ele>
        <time>2019-06-25T09:01:59Z</time>
      </trkpt>
      <trkpt lat="44.46555" lon="5.88509">
        <ele>1126</ele>
        <time>2019-06-25T09:02:00Z</time>
      </trkpt>
      <trkpt lat="44.46554" lon="5.88506">
        <ele>1126</ele>
        <time>2019-06-25T09:02:01Z</time>
      </trkpt>
      <trkpt lat="44.46553" lon="5.88503">
        <ele>1126</ele>
        <time>2019-06-25T09:02:02Z</time>
      </trkpt>
      <trkpt lat="44.46552" lon="5.885">
        <ele>1126</ele>
        <time>2019-06-25T09:02:03Z</time>
      </trkpt>
      <trkpt lat="44.46552" lon="5.88498">
        <ele>1126</ele>
        <time>2019-06-25T09:02:04Z</time>
      </trkpt>
      <trkpt lat="44.4655" lon="5.88495">
        <ele>1126</ele>
        <time>2019-06-25T09:02:05Z</time>
      </trkpt>
      <trkpt lat="44.46549" lon="5.88492">
        <ele>1126</ele>
        <time>2019-06-25T09:02:06Z</time>
      </trkpt>
      <trkpt lat="44.46547" lon="5.8849">
        <ele>1126</ele>
        <time>2019-06-25T09:02:07Z</time>
      </trkpt>
      <trkpt lat="44.46546" lon="5.88487">
        <ele>1126</ele>
        <time>2019-06-25T09:02:08Z</time>
      </trkpt>
      <trkpt lat="44.46545" lon="5.88484">
        <ele>1126</ele>
        <time>2019-06-25T09:02:09Z</time>
      </trkpt>
      <trkpt lat="44.46545" lon="5.88482">
        <ele>1126</ele>
        <time>2019-06-25T09:02:10Z</time>
      </trkpt>
      <trkpt lat="44.46544" lon="5.88479">
        <ele>1126</ele>
        <time>2019-06-25T09:02:11Z</time>
      </trkpt>
      <trkpt lat="44.46544" lon="5.88476">
        <ele>1126</ele>
        <time>2019-06-25T09:02:12Z</time>
      </trkpt>
      <trkpt lat="44.46543" lon="5.88473">
        <ele>1126</ele>
        <time>2019-06-25T09:02:13Z</time>
      </trkpt>
      <trkpt lat="44.46542" lon="5.88469">
        <ele>1126</ele>
        <time>2019-06-25T09:02:14Z</time>
      </trkpt>
      <trkpt lat="44.46541" lon="5.88466">
        <ele>1126</ele>
        <time>2019-06-25T09:02:15Z</time>
      </trkpt>
      <trkpt lat="44.46541" lon="5.88464">
        <ele>1126</ele>
        <time>2019-06-25T09:02:16Z</time>
      </trkpt>
      <trkpt lat="44.46541" lon="5.88461">
        <ele>1126</ele>
        <time>2019-06-25T09:02:17Z</time>
      </trkpt>
      <trkpt lat="44.4654" lon="5.88458">
        <ele>1126</ele>
        <time>2019-06-25T09:02:18Z</time>
      </trkpt>
      <trkpt lat="44.4654" lon="5.88456">
        <ele>1126</ele>
        <time>2019-06-25T09:02:19Z</time>
      </trkpt>
      <trkpt lat="44.4654" lon="5.88453">
        <ele>1127</ele>
        <time>2019-06-25T09:02:20Z</time>
      </trkpt>
      <trkpt lat="44.46539" lon="5.8845">
        <ele>1128</ele>
        <time>2019-06-25T09:02:21Z</time>
      </trkpt>
      <trkpt lat="44.46538" lon="5.88447">
        <ele>1129</ele>
        <time>2019-06-25T09:02:22Z</time>
      </trkpt>
      <trkpt lat="44.46537" lon="5.88445">
        <ele>1130</ele>
        <time>2019-06-25T09:02:23Z</time>
      </trkpt>
      <trkpt lat="44.46536" lon="5.88442">
        <ele>1131</ele>
        <time>2019-06-25T09:02:24Z</time>
      </trkpt>
      <trkpt lat="44.46536" lon="5.8844">
        <ele>1132</ele>
        <time>2019-06-25T09:02:25Z</time>
      </trkpt>
      <trkpt lat="44.46536" lon="5.88437">
        <ele>1133</ele>
        <time>2019-06-25T09:02:26Z</time>
      </trkpt>
      <trkpt lat="44.46537" lon="5.88434">
        <ele>1134</ele>
        <time>2019-06-25T09:02:27Z</time>
      </trkpt>
      <trkpt lat="44.46538" lon="5.8843">
        <ele>1135</ele>
        <time>2019-06-25T09:02:28Z</time>
      </trkpt>
      <trkpt lat="44.46538" lon="5.88426">
        <ele>1136</ele>
        <time>2019-06-25T09:02:29Z</time>
      </trkpt>
      <trkpt lat="44.46539" lon="5.88424">
        <ele>1137</ele>
        <time>2019-06-25T09:02:30Z</time>
      </trkpt>
      <trkpt lat="44.46542" lon="5.88423">
        <ele>1138</ele>
        <time>2019-06-25T09:02:31Z</time>
      </trkpt>
      <trkpt lat="44.46545" lon="5.88422">
        <ele>1138</ele>
        <time>2019-06-25T09:02:32Z</time>
      </trkpt>
      <trkpt lat="44.46549" lon="5.88421">
        <ele>1139</ele>
        <time>2019-06-25T09:02:33Z</time>
      </trkpt>
      <trkpt lat="44.46552" lon="5.88421">
        <ele>1139</ele>
        <time>2019-06-25T09:02:34Z</time>
      </trkpt>
      <trkpt lat="44.46555" lon="5.88421">
        <ele>1139</ele>
        <time>2019-06-25T09:02:35Z</time>
      </trkpt>
      <trkpt lat="44.46558" lon="5.88422">
        <ele>1139</ele>
        <time>2019-06-25T09:02:36Z</time>
      </trkpt>
      <trkpt lat="44.46561" lon="5.88422">
        <ele>1139</ele>
        <time>2019-06-25T09:02:37Z</time>
      </trkpt>
      <trkpt lat="44.46564" lon="5.88422">
        <ele>1139</ele>
        <time>2019-06-25T09:02:38Z</time>
      </trkpt>
      <trkpt lat="44.46567" lon="5.88422">
        <ele>1139</ele>
        <time>2019-06-25T09:02:39Z</time>
      </trkpt>
      <trkpt lat="44.4657" lon="5.88421">
        <ele>1139</ele>
        <time>2019-06-25T09:02:40Z</time>
      </trkpt>
      <trkpt lat="44.46573" lon="5.88421">
        <ele>1139</ele>
        <time>2019-06-25T09:02:41Z</time>
      </trkpt>
      <trkpt lat="44.46576" lon="5.8842">
        <ele>1139</ele>
        <time>2019-06-25T09:02:42Z</time>
      </trkpt>
      <trkpt lat="44.46578" lon="5.8842">
        <ele>1139</ele>
        <time>2019-06-25T09:02:43Z</time>
      </trkpt>
      <trkpt lat="44.4658" lon="5.88418">
        <ele>1139</ele>
        <time>2019-06-25T09:02:44Z</time>
      </trkpt>
      <trkpt lat="44.46582" lon="5.88415">
        <ele>1139</ele>
        <time>2019-06-25T09:02:45Z</time>
      </trkpt>
      <trkpt lat="44.46584" lon="5.88412">
        <ele>1139</ele>
        <time>2019-06-25T09:02:46Z</time>
      </trkpt>
      <trkpt lat="44.46585" lon="5.88409">
        <ele>1139</ele>
        <time>2019-06-25T09:02:47Z</time>
      </trkpt>
      <trkpt lat="44.46585" lon="5.88406">
        <ele>1139</ele>
        <time>2019-06-25T09:02:48Z</time>
      </trkpt>
      <trkpt lat="44.46585" lon="5.88402">
        <ele>1139</ele>
        <time>2019-06-25T09:02:49Z</time>
      </trkpt>
      <trkpt lat="44.46585" lon="5.88399">
        <ele>1139</ele>
        <time>2019-06-25T09:02:50Z</time>
      </trkpt>
      <trkpt lat="44.46585" lon="5.88395">
        <ele>1139</ele>
        <time>2019-06-25T09:02:51Z</time>
      </trkpt>
      <trkpt lat="44.46585" lon="5.88391">
        <ele>1139</ele>
        <time>2019-06-25T09:02:52Z</time>
      </trkpt>
      <trkpt lat="44.46585" lon="5.88387">
        <ele>1139</ele>
        <time>2019-06-25T09:02:53Z</time>
      </trkpt>
      <trkpt lat="44.46585" lon="5.88384">
        <ele>1139</ele>
        <time>2019-06-25T09:02:54Z</time>
      </trkpt>
      <trkpt lat="44.46585" lon="5.8838">
        <ele>1139</ele>
        <time>2019-06-25T09:02:55Z</time>
      </trkpt>
      <trkpt lat="44.46585" lon="5.88376">
        <ele>1139</ele>
        <time>2019-06-25T09:02:56Z</time>
      </trkpt>
      <trkpt lat="44.46585" lon="5.88373">
        <ele>1139</ele>
        <time>2019-06-25T09:02:57Z</time>
      </trkpt>
      <trkpt lat="44.46585" lon="5.88369">
        <ele>1139</ele>
        <time>2019-06-25T09:02:58Z</time>
      </trkpt>
      <trkpt lat="44.46585" lon="5.88366">
        <ele>1139</ele>
        <time>2019-06-25T09:02:59Z</time>
      </trkpt>
      <trkpt lat="44.46585" lon="5.88362">
        <ele>1139</ele>
        <time>2019-06-25T09:03:00Z</time>
      </trkpt>
      <trkpt lat="44.46587" lon="5.8836">
        <ele>1139</ele>
        <time>2019-06-25T09:03:01Z</time>
      </trkpt>
      <trkpt lat="44.46588" lon="5.88356">
        <ele>1139</ele>
        <time>2019-06-25T09:03:02Z</time>
      </trkpt>
      <trkpt lat="44.46589" lon="5.88353">
        <ele>1139</ele>
        <time>2019-06-25T09:03:03Z</time>
      </trkpt>
      <trkpt lat="44.4659" lon="5.88349">
        <ele>1139</ele>
        <time>2019-06-25T09:03:04Z</time>
      </trkpt>
      <trkpt lat="44.4659" lon="5.88346">
        <ele>1139</ele>
        <time>2019-06-25T09:03:05Z</time>
      </trkpt>
      <trkpt lat="44.46591" lon="5.88342">
        <ele>1139</ele>
        <time>2019-06-25T09:03:06Z</time>
      </trkpt>
      <trkpt lat="44.46592" lon="5.88339">
        <ele>1140</ele>
        <time>2019-06-25T09:03:07Z</time>
      </trkpt>
      <trkpt lat="44.46595" lon="5.88336">
        <ele>1140</ele>
        <time>2019-06-25T09:03:08Z</time>
      </trkpt>
      <trkpt lat="44.46596" lon="5.88333">
        <ele>1141</ele>
        <time>2019-06-25T09:03:09Z</time>
      </trkpt>
      <trkpt lat="44.46597" lon="5.88329">
        <ele>1141</ele>
        <time>2019-06-25T09:03:10Z</time>
      </trkpt>
      <trkpt lat="44.46598" lon="5.88326">
        <ele>1141</ele>
        <time>2019-06-25T09:03:11Z</time>
      </trkpt>
      <trkpt lat="44.46599" lon="5.88322">
        <ele>1142</ele>
        <time>2019-06-25T09:03:12Z</time>
      </trkpt>
      <trkpt lat="44.46599" lon="5.88318">
        <ele>1143</ele>
        <time>2019-06-25T09:03:13Z</time>
      </trkpt>
      <trkpt lat="44.46598" lon="5.88314">
        <ele>1143</ele>
        <time>2019-06-25T09:03:14Z</time>
      </trkpt>
      <trkpt lat="44.466" lon="5.88311">
        <ele>1144</ele>
        <time>2019-06-25T09:03:15Z</time>
      </trkpt>
      <trkpt lat="44.46601" lon="5.88307">
        <ele>1145</ele>
        <time>2019-06-25T09:03:16Z</time>
      </trkpt>
      <trkpt lat="44.46603" lon="5.88304">
        <ele>1145</ele>
        <time>2019-06-25T09:03:17Z</time>
      </trkpt>
      <trkpt lat="44.46605" lon="5.883">
        <ele>1146</ele>
        <time>2019-06-25T09:03:18Z</time>
      </trkpt>
      <trkpt lat="44.46606" lon="5.88296">
        <ele>1147</ele>
        <time>2019-06-25T09:03:19Z</time>
      </trkpt>
      <trkpt lat="44.46607" lon="5.88293">
        <ele>1148</ele>
        <time>2019-06-25T09:03:20Z</time>
      </trkpt>
      <trkpt lat="44.46609" lon="5.8829">
        <ele>1148</ele>
        <time>2019-06-25T09:03:21Z</time>
      </trkpt>
      <trkpt lat="44.46611" lon="5.88289">
        <ele>1149</ele>
        <time>2019-06-25T09:03:22Z</time>
      </trkpt>
      <trkpt lat="44.46614" lon="5.88288">
        <ele>1149</ele>
        <time>2019-06-25T09:03:23Z</time>
      </trkpt>
      <trkpt lat="44.46616" lon="5.88287">
        <ele>1149</ele>
        <time>2019-06-25T09:03:24Z</time>
      </trkpt>
      <trkpt lat="44.46619" lon="5.88287">
        <ele>1149</ele>
        <time>2019-06-25T09:03:25Z</time>
      </trkpt>
      <trkpt lat="44.46621" lon="5.88286">
        <ele>1149</ele>
        <time>2019-06-25T09:03:26Z</time>
      </trkpt>
      <trkpt lat="44.46624" lon="5.88286">
        <ele>1149</ele>
        <time>2019-06-25T09:03:27Z</time>
      </trkpt>
      <trkpt lat="44.46627" lon="5.88285">
        <ele>1149</ele>
        <time>2019-06-25T09:03:28Z</time>
      </trkpt>
      <trkpt lat="44.4663" lon="5.88285">
        <ele>1149</ele>
        <time>2019-06-25T09:03:29Z</time>
      </trkpt>
      <trkpt lat="44.46632" lon="5.88285">
        <ele>1149</ele>
        <time>2019-06-25T09:03:30Z</time>
      </trkpt>
      <trkpt lat="44.46635" lon="5.88284">
        <ele>1149</ele>
        <time>2019-06-25T09:03:31Z</time>
      </trkpt>
      <trkpt lat="44.46637" lon="5.88284">
        <ele>1149</ele>
        <time>2019-06-25T09:03:32Z</time>
      </trkpt>
      <trkpt lat="44.4664" lon="5.88284">
        <ele>1149</ele>
        <time>2019-06-25T09:03:33Z</time>
      </trkpt>
      <trkpt lat="44.46642" lon="5.88284">
        <ele>1149</ele>
        <time>2019-06-25T09:03:34Z</time>
      </trkpt>
      <trkpt lat="44.46644" lon="5.88285">
        <ele>1149</ele>
        <time>2019-06-25T09:03:35Z</time>
      </trkpt>
      <trkpt lat="44.46646" lon="5.88286">
        <ele>1149</ele>
        <time>2019-06-25T09:03:36Z</time>
      </trkpt>
      <trkpt lat="44.46649" lon="5.88287">
        <ele>1149</ele>
        <time>2019-06-25T09:03:37Z</time>
      </trkpt>
      <trkpt lat="44.46651" lon="5.88288">
        <ele>1149</ele>
        <time>2019-06-25T09:03:38Z</time>
      </trkpt>
      <trkpt lat="44.46653" lon="5.8829">
        <ele>1149</ele>
        <time>2019-06-25T09:03:39Z</time>
      </trkpt>
      <trkpt lat="44.46655" lon="5.88293">
        <ele>1149</ele>
        <time>2019-06-25T09:03:40Z</time>
      </trkpt>
      <trkpt lat="44.46656" lon="5.88295">
        <ele>1149</ele>
        <time>2019-06-25T09:03:41Z</time>
      </trkpt>
      <trkpt lat="44.46658" lon="5.88297">
        <ele>1149</ele>
        <time>2019-06-25T09:03:42Z</time>
      </trkpt>
      <trkpt lat="44.4666" lon="5.883">
        <ele>1149</ele>
        <time>2019-06-25T09:03:43Z</time>
      </trkpt>
      <trkpt lat="44.46661" lon="5.88303">
        <ele>1149</ele>
        <time>2019-06-25T09:03:44Z</time>
      </trkpt>
      <trkpt lat="44.46662" lon="5.88305">
        <ele>1149</ele>
        <time>2019-06-25T09:03:45Z</time>
      </trkpt>
      <trkpt lat="44.46663" lon="5.88308">
        <ele>1149</ele>
        <time>2019-06-25T09:03:46Z</time>
      </trkpt>
      <trkpt lat="44.46665" lon="5.88311">
        <ele>1149</ele>
        <time>2019-06-25T09:03:47Z</time>
      </trkpt>
      <trkpt lat="44.46667" lon="5.88314">
        <ele>1149</ele>
        <time>2019-06-25T09:03:48Z</time>
      </trkpt>
      <trkpt lat="44.46669" lon="5.88318">
        <ele>1149</ele>
        <time>2019-06-25T09:03:49Z</time>
      </trkpt>
      <trkpt lat="44.46671" lon="5.88321">
        <ele>1149</ele>
        <time>2019-06-25T09:03:50Z</time>
      </trkpt>
      <trkpt lat="44.46672" lon="5.88323">
        <ele>1149</ele>
        <time>2019-06-25T09:03:51Z</time>
      </trkpt>
      <trkpt lat="44.46674" lon="5.88326">
        <ele>1149</ele>
        <time>2019-06-25T09:03:52Z</time>
      </trkpt>
      <trkpt lat="44.46676" lon="5.88329">
        <ele>1148</ele>
        <time>2019-06-25T09:03:53Z</time>
      </trkpt>
      <trkpt lat="44.46677" lon="5.88332">
        <ele>1148</ele>
        <time>2019-06-25T09:03:54Z</time>
      </trkpt>
      <trkpt lat="44.46679" lon="5.88335">
        <ele>1148</ele>
        <time>2019-06-25T09:03:55Z</time>
      </trkpt>
      <trkpt lat="44.46681" lon="5.88338">
        <ele>1148</ele>
        <time>2019-06-25T09:03:56Z</time>
      </trkpt>
      <trkpt lat="44.46683" lon="5.88341">
        <ele>1148</ele>
        <time>2019-06-25T09:03:57Z</time>
      </trkpt>
      <trkpt lat="44.46685" lon="5.88344">
        <ele>1148</ele>
        <time>2019-06-25T09:03:58Z</time>
      </trkpt>
      <trkpt lat="44.46686" lon="5.88347">
        <ele>1148</ele>
        <time>2019-06-25T09:03:59Z</time>
      </trkpt>
      <trkpt lat="44.46688" lon="5.88349">
        <ele>1148</ele>
        <time>2019-06-25T09:04:00Z</time>
      </trkpt>
      <trkpt lat="44.46691" lon="5.88351">
        <ele>1148</ele>
        <time>2019-06-25T09:04:01Z</time>
      </trkpt>
      <trkpt lat="44.46693" lon="5.88354">
        <ele>1148</ele>
        <time>2019-06-25T09:04:02Z</time>
      </trkpt>
      <trkpt lat="44.46695" lon="5.88356">
        <ele>1148</ele>
        <time>2019-06-25T09:04:03Z</time>
      </trkpt>
      <trkpt lat="44.46696" lon="5.88359">
        <ele>1148</ele>
        <time>2019-06-25T09:04:04Z</time>
      </trkpt>
      <trkpt lat="44.46698" lon="5.88362">
        <ele>1148</ele>
        <time>2019-06-25T09:04:05Z</time>
      </trkpt>
      <trkpt lat="44.467" lon="5.88365">
        <ele>1148</ele>
        <time>2019-06-25T09:04:06Z</time>
      </trkpt>
      <trkpt lat="44.46702" lon="5.88368">
        <ele>1148</ele>
        <time>2019-06-25T09:04:07Z</time>
      </trkpt>
      <trkpt lat="44.46703" lon="5.88371">
        <ele>1148</ele>
        <time>2019-06-25T09:04:08Z</time>
      </trkpt>
      <trkpt lat="44.46704" lon="5.88374">
        <ele>1148</ele>
        <time>2019-06-25T09:04:09Z</time>
      </trkpt>
      <trkpt lat="44.46706" lon="5.88377">
        <ele>1148</ele>
        <time>2019-06-25T09:04:10Z</time>
      </trkpt>
      <trkpt lat="44.46708" lon="5.88379">
        <ele>1148</ele>
        <time>2019-06-25T09:04:11Z</time>
      </trkpt>
      <trkpt lat="44.4671" lon="5.88381">
        <ele>1148</ele>
        <time>2019-06-25T09:04:12Z</time>
      </trkpt>
      <trkpt lat="44.46711" lon="5.88383">
        <ele>1148</ele>
        <time>2019-06-25T09:04:13Z</time>
      </trkpt>
      <trkpt lat="44.46714" lon="5.88386">
        <ele>1148</ele>
        <time>2019-06-25T09:04:14Z</time>
      </trkpt>
      <trkpt lat="44.46716" lon="5.88388">
        <ele>1148</ele>
        <time>2019-06-25T09:04:15Z</time>
      </trkpt>
      <trkpt lat="44.46718" lon="5.88389">
        <ele>1148</ele>
        <time>2019-06-25T09:04:16Z</time>
      </trkpt>
      <trkpt lat="44.46719" lon="5.88391">
        <ele>1148</ele>
        <time>2019-06-25T09:04:17Z</time>
      </trkpt>
      <trkpt lat="44.46721" lon="5.88393">
        <ele>1148</ele>
        <time>2019-06-25T09:04:18Z</time>
      </trkpt>
      <trkpt lat="44.46723" lon="5.88394">
        <ele>1148</ele>
        <time>2019-06-25T09:04:19Z</time>
      </trkpt>
      <trkpt lat="44.46725" lon="5.88395">
        <ele>1148</ele>
        <time>2019-06-25T09:04:20Z</time>
      </trkpt>
      <trkpt lat="44.46728" lon="5.88396">
        <ele>1148</ele>
        <time>2019-06-25T09:04:21Z</time>
      </trkpt>
      <trkpt lat="44.46731" lon="5.88397">
        <ele>1148</ele>
        <time>2019-06-25T09:04:22Z</time>
      </trkpt>
      <trkpt lat="44.46733" lon="5.88397">
        <ele>1148</ele>
        <time>2019-06-25T09:04:23Z</time>
      </trkpt>
      <trkpt lat="44.46735" lon="5.88397">
        <ele>1148</ele>
        <time>2019-06-25T09:04:24Z</time>
      </trkpt>
      <trkpt lat="44.46738" lon="5.88398">
        <ele>1148</ele>
        <time>2019-06-25T09:04:25Z</time>
      </trkpt>
      <trkpt lat="44.4674" lon="5.88398">
        <ele>1148</ele>
        <time>2019-06-25T09:04:26Z</time>
      </trkpt>
      <trkpt lat="44.46743" lon="5.88399">
        <ele>1148</ele>
        <time>2019-06-25T09:04:27Z</time>
      </trkpt>
      <trkpt lat="44.46745" lon="5.884">
        <ele>1148</ele>
        <time>2019-06-25T09:04:28Z</time>
      </trkpt>
      <trkpt lat="44.46748" lon="5.88402">
        <ele>1148</ele>
        <time>2019-06-25T09:04:29Z</time>
      </trkpt>
      <trkpt lat="44.46751" lon="5.88404">
        <ele>1148</ele>
        <time>2019-06-25T09:04:30Z</time>
      </trkpt>
      <trkpt lat="44.46753" lon="5.88405">
        <ele>1148</ele>
        <time>2019-06-25T09:04:31Z</time>
      </trkpt>
      <trkpt lat="44.46756" lon="5.88406">
        <ele>1148</ele>
        <time>2019-06-25T09:04:32Z</time>
      </trkpt>
      <trkpt lat="44.46759" lon="5.88408">
        <ele>1148</ele>
        <time>2019-06-25T09:04:33Z</time>
      </trkpt>
      <trkpt lat="44.46762" lon="5.8841">
        <ele>1148</ele>
        <time>2019-06-25T09:04:34Z</time>
      </trkpt>
      <trkpt lat="44.46765" lon="5.88413">
        <ele>1148</ele>
        <time>2019-06-25T09:04:35Z</time>
      </trkpt>
      <trkpt lat="44.46767" lon="5.88416">
        <ele>1148</ele>
        <time>2019-06-25T09:04:36Z</time>
      </trkpt>
      <trkpt lat="44.4677" lon="5.88419">
        <ele>1148</ele>
        <time>2019-06-25T09:04:37Z</time>
      </trkpt>
      <trkpt lat="44.46773" lon="5.88422">
        <ele>1148</ele>
        <time>2019-06-25T09:04:38Z</time>
      </trkpt>
      <trkpt lat="44.46776" lon="5.88425">
        <ele>1148</ele>
        <time>2019-06-25T09:04:39Z</time>
      </trkpt>
      <trkpt lat="44.46779" lon="5.88428">
        <ele>1148</ele>
        <time>2019-06-25T09:04:40Z</time>
      </trkpt>
      <trkpt lat="44.46782" lon="5.88432">
        <ele>1148</ele>
        <time>2019-06-25T09:04:41Z</time>
      </trkpt>
      <trkpt lat="44.46785" lon="5.88436">
        <ele>1148</ele>
        <time>2019-06-25T09:04:42Z</time>
      </trkpt>
      <trkpt lat="44.46787" lon="5.8844">
        <ele>1148</ele>
        <time>2019-06-25T09:04:43Z</time>
      </trkpt>
      <trkpt lat="44.4679" lon="5.88444">
        <ele>1148</ele>
        <time>2019-06-25T09:04:44Z</time>
      </trkpt>
      <trkpt lat="44.46793" lon="5.88449">
        <ele>1148</ele>
        <time>2019-06-25T09:04:45Z</time>
      </trkpt>
      <trkpt lat="44.46796" lon="5.88454">
        <ele>1148</ele>
        <time>2019-06-25T09:04:46Z</time>
      </trkpt>
      <trkpt lat="44.46798" lon="5.88459">
        <ele>1148</ele>
        <time>2019-06-25T09:04:47Z</time>
      </trkpt>
      <trkpt lat="44.46801" lon="5.88465">
        <ele>1148</ele>
        <time>2019-06-25T09:04:48Z</time>
      </trkpt>
      <trkpt lat="44.46803" lon="5.88471">
        <ele>1148</ele>
        <time>2019-06-25T09:04:49Z</time>
      </trkpt>
      <trkpt lat="44.46804" lon="5.88477">
        <ele>1148</ele>
        <time>2019-06-25T09:04:50Z</time>
      </trkpt>
      <trkpt lat="44.46805" lon="5.88483">
        <ele>1148</ele>
        <time>2019-06-25T09:04:51Z</time>
      </trkpt>
      <trkpt lat="44.46806" lon="5.8849">
        <ele>1148</ele>
        <time>2019-06-25T09:04:52Z</time>
      </trkpt>
      <trkpt lat="44.46808" lon="5.88497">
        <ele>1148</ele>
        <time>2019-06-25T09:04:53Z</time>
      </trkpt>
      <trkpt lat="44.46808" lon="5.88503">
        <ele>1148</ele>
        <time>2019-06-25T09:04:54Z</time>
      </trkpt>
      <trkpt lat="44.46809" lon="5.88509">
        <ele>1148</ele>
        <time>2019-06-25T09:04:55Z</time>
      </trkpt>
      <trkpt lat="44.4681" lon="5.88516">
        <ele>1148</ele>
        <time>2019-06-25T09:04:56Z</time>
      </trkpt>
      <trkpt lat="44.4681" lon="5.88522">
        <ele>1148</ele>
        <time>2019-06-25T09:04:57Z</time>
      </trkpt>
      <trkpt lat="44.46811" lon="5.88529">
        <ele>1148</ele>
        <time>2019-06-25T09:04:58Z</time>
      </trkpt>
      <trkpt lat="44.46811" lon="5.88535">
        <ele>1148</ele>
        <time>2019-06-25T09:04:59Z</time>
      </trkpt>
      <trkpt lat="44.4681" lon="5.88541">
        <ele>1148</ele>
        <time>2019-06-25T09:05:00Z</time>
      </trkpt>
      <trkpt lat="44.4681" lon="5.88547">
        <ele>1148</ele>
        <time>2019-06-25T09:05:01Z</time>
      </trkpt>
      <trkpt lat="44.46809" lon="5.88553">
        <ele>1148</ele>
        <time>2019-06-25T09:05:02Z</time>
      </trkpt>
      <trkpt lat="44.46808" lon="5.88559">
        <ele>1148</ele>
        <time>2019-06-25T09:05:03Z</time>
      </trkpt>
      <trkpt lat="44.46807" lon="5.88565">
        <ele>1148</ele>
        <time>2019-06-25T09:05:04Z</time>
      </trkpt>
      <trkpt lat="44.46807" lon="5.88572">
        <ele>1148</ele>
        <time>2019-06-25T09:05:05Z</time>
      </trkpt>
      <trkpt lat="44.46809" lon="5.88577">
        <ele>1148</ele>
        <time>2019-06-25T09:05:06Z</time>
      </trkpt>
      <trkpt lat="44.4681" lon="5.88582">
        <ele>1148</ele>
        <time>2019-06-25T09:05:07Z</time>
      </trkpt>
      <trkpt lat="44.46814" lon="5.88584">
        <ele>1148</ele>
        <time>2019-06-25T09:05:08Z</time>
      </trkpt>
      <trkpt lat="44.46817" lon="5.88585">
        <ele>1148</ele>
        <time>2019-06-25T09:05:09Z</time>
      </trkpt>
      <trkpt lat="44.4682" lon="5.88583">
        <ele>1148</ele>
        <time>2019-06-25T09:05:10Z</time>
      </trkpt>
      <trkpt lat="44.46822" lon="5.8858">
        <ele>1148</ele>
        <time>2019-06-25T09:05:11Z</time>
      </trkpt>
      <trkpt lat="44.46826" lon="5.88577">
        <ele>1148</ele>
        <time>2019-06-25T09:05:12Z</time>
      </trkpt>
      <trkpt lat="44.46829" lon="5.88573">
        <ele>1148</ele>
        <time>2019-06-25T09:05:13Z</time>
      </trkpt>
      <trkpt lat="44.46832" lon="5.88569">
        <ele>1148</ele>
        <time>2019-06-25T09:05:14Z</time>
      </trkpt>
      <trkpt lat="44.46837" lon="5.88567">
        <ele>1148</ele>
        <time>2019-06-25T09:05:15Z</time>
      </trkpt>
      <trkpt lat="44.46841" lon="5.88566">
        <ele>1148</ele>
        <time>2019-06-25T09:05:16Z</time>
      </trkpt>
      <trkpt lat="44.46847" lon="5.88565">
        <ele>1148</ele>
        <time>2019-06-25T09:05:17Z</time>
      </trkpt>
      <trkpt lat="44.46852" lon="5.88565">
        <ele>1148</ele>
        <time>2019-06-25T09:05:18Z</time>
      </trkpt>
      <trkpt lat="44.46857" lon="5.88565">
        <ele>1148</ele>
        <time>2019-06-25T09:05:19Z</time>
      </trkpt>
      <trkpt lat="44.46861" lon="5.88565">
        <ele>1149</ele>
        <time>2019-06-25T09:05:20Z</time>
      </trkpt>
      <trkpt lat="44.46866" lon="5.88564">
        <ele>1149</ele>
        <time>2019-06-25T09:05:21Z</time>
      </trkpt>
      <trkpt lat="44.46871" lon="5.88564">
        <ele>1149</ele>
        <time>2019-06-25T09:05:22Z</time>
      </trkpt>
      <trkpt lat="44.46876" lon="5.88562">
        <ele>1150</ele>
        <time>2019-06-25T09:05:23Z</time>
      </trkpt>
      <trkpt lat="44.46881" lon="5.88559">
        <ele>1150</ele>
        <time>2019-06-25T09:05:24Z</time>
      </trkpt>
      <trkpt lat="44.46886" lon="5.88557">
        <ele>1151</ele>
        <time>2019-06-25T09:05:25Z</time>
      </trkpt>
      <trkpt lat="44.46891" lon="5.88557">
        <ele>1151</ele>
        <time>2019-06-25T09:05:26Z</time>
      </trkpt>
      <trkpt lat="44.46895" lon="5.88557">
        <ele>1151</ele>
        <time>2019-06-25T09:05:27Z</time>
      </trkpt>
      <trkpt lat="44.46898" lon="5.8856">
        <ele>1151</ele>
        <time>2019-06-25T09:05:28Z</time>
      </trkpt>
      <trkpt lat="44.46901" lon="5.88564">
        <ele>1151</ele>
        <time>2019-06-25T09:05:29Z</time>
      </trkpt>
      <trkpt lat="44.46904" lon="5.88568">
        <ele>1151</ele>
        <time>2019-06-25T09:05:30Z</time>
      </trkpt>
      <trkpt lat="44.46905" lon="5.88574">
        <ele>1151</ele>
        <time>2019-06-25T09:05:31Z</time>
      </trkpt>
      <trkpt lat="44.46906" lon="5.88579">
        <ele>1151</ele>
        <time>2019-06-25T09:05:32Z</time>
      </trkpt>
      <trkpt lat="44.46908" lon="5.88585">
        <ele>1151</ele>
        <time>2019-06-25T09:05:33Z</time>
      </trkpt>
      <trkpt lat="44.4691" lon="5.8859">
        <ele>1151</ele>
        <time>2019-06-25T09:05:34Z</time>
      </trkpt>
      <trkpt lat="44.46913" lon="5.88595">
        <ele>1151</ele>
        <time>2019-06-25T09:05:35Z</time>
      </trkpt>
      <trkpt lat="44.46916" lon="5.886">
        <ele>1151</ele>
        <time>2019-06-25T09:05:36Z</time>
      </trkpt>
      <trkpt lat="44.46918" lon="5.88605">
        <ele>1151</ele>
        <time>2019-06-25T09:05:37Z</time>
      </trkpt>
      <trkpt lat="44.46921" lon="5.8861">
        <ele>1151</ele>
        <time>2019-06-25T09:05:38Z</time>
      </trkpt>
      <trkpt lat="44.46924" lon="5.88614">
        <ele>1151</ele>
        <time>2019-06-25T09:05:39Z</time>
      </trkpt>
      <trkpt lat="44.46927" lon="5.88619">
        <ele>1151</ele>
        <time>2019-06-25T09:05:40Z</time>
      </trkpt>
      <trkpt lat="44.4693" lon="5.88623">
        <ele>1151</ele>
        <time>2019-06-25T09:05:41Z</time>
      </trkpt>
      <trkpt lat="44.46933" lon="5.88627">
        <ele>1151</ele>
        <time>2019-06-25T09:05:42Z</time>
      </trkpt>
      <trkpt lat="44.46936" lon="5.88631">
        <ele>1151</ele>
        <time>2019-06-25T09:05:43Z</time>
      </trkpt>
      <trkpt lat="44.46939" lon="5.88634">
        <ele>1151</ele>
        <time>2019-06-25T09:05:44Z</time>
      </trkpt>
      <trkpt lat="44.46943" lon="5.88636">
        <ele>1151</ele>
        <time>2019-06-25T09:05:45Z</time>
      </trkpt>
      <trkpt lat="44.46947" lon="5.88637">
        <ele>1151</ele>
        <time>2019-06-25T09:05:46Z</time>
      </trkpt>
      <trkpt lat="44.46951" lon="5.88638">
        <ele>1151</ele>
        <time>2019-06-25T09:05:47Z</time>
      </trkpt>
      <trkpt lat="44.46956" lon="5.88638">
        <ele>1151</ele>
        <time>2019-06-25T09:05:48Z</time>
      </trkpt>
      <trkpt lat="44.46961" lon="5.88638">
        <ele>1151</ele>
        <time>2019-06-25T09:05:49Z</time>
      </trkpt>
      <trkpt lat="44.46965" lon="5.88638">
        <ele>1151</ele>
        <time>2019-06-25T09:05:50Z</time>
      </trkpt>
      <trkpt lat="44.4697" lon="5.88639">
        <ele>1151</ele>
        <time>2019-06-25T09:05:51Z</time>
      </trkpt>
      <trkpt lat="44.46974" lon="5.88639">
        <ele>1151</ele>
        <time>2019-06-25T09:05:52Z</time>
      </trkpt>
      <trkpt lat="44.46979" lon="5.88638">
        <ele>1151</ele>
        <time>2019-06-25T09:05:53Z</time>
      </trkpt>
      <trkpt lat="44.46984" lon="5.88636">
        <ele>1151</ele>
        <time>2019-06-25T09:05:54Z</time>
      </trkpt>
      <trkpt lat="44.46989" lon="5.88636">
        <ele>1151</ele>
        <time>2019-06-25T09:05:55Z</time>
      </trkpt>
      <trkpt lat="44.46994" lon="5.88634">
        <ele>1151</ele>
        <time>2019-06-25T09:05:56Z</time>
      </trkpt>
      <trkpt lat="44.46997" lon="5.88633">
        <ele>1151</ele>
        <time>2019-06-25T09:05:57Z</time>
      </trkpt>
      <trkpt lat="44.47002" lon="5.8863">
        <ele>1151</ele>
        <time>2019-06-25T09:05:58Z</time>
      </trkpt>
      <trkpt lat="44.47005" lon="5.88627">
        <ele>1151</ele>
        <time>2019-06-25T09:05:59Z</time>
      </trkpt>
      <trkpt lat="44.47009" lon="5.88623">
        <ele>1151</ele>
        <time>2019-06-25T09:06:00Z</time>
      </trkpt>
      <trkpt lat="44.47011" lon="5.8862">
        <ele>1151</ele>
        <time>2019-06-25T09:06:01Z</time>
      </trkpt>
      <trkpt lat="44.47014" lon="5.88617">
        <ele>1151</ele>
        <time>2019-06-25T09:06:02Z</time>
      </trkpt>
      <trkpt lat="44.47017" lon="5.88613">
        <ele>1151</ele>
        <time>2019-06-25T09:06:03Z</time>
      </trkpt>
      <trkpt lat="44.4702" lon="5.88609">
        <ele>1151</ele>
        <time>2019-06-25T09:06:04Z</time>
      </trkpt>
      <trkpt lat="44.47024" lon="5.88605">
        <ele>1151</ele>
        <time>2019-06-25T09:06:05Z</time>
      </trkpt>
      <trkpt lat="44.47028" lon="5.88601">
        <ele>1151</ele>
        <time>2019-06-25T09:06:06Z</time>
      </trkpt>
      <trkpt lat="44.47032" lon="5.88597">
        <ele>1151</ele>
        <time>2019-06-25T09:06:07Z</time>
      </trkpt>
      <trkpt lat="44.47037" lon="5.88594">
        <ele>1152</ele>
        <time>2019-06-25T09:06:08Z</time>
      </trkpt>
      <trkpt lat="44.47041" lon="5.88591">
        <ele>1153</ele>
        <time>2019-06-25T09:06:09Z</time>
      </trkpt>
      <trkpt lat="44.47045" lon="5.88588">
        <ele>1154</ele>
        <time>2019-06-25T09:06:10Z</time>
      </trkpt>
      <trkpt lat="44.47048" lon="5.88585">
        <ele>1155</ele>
        <time>2019-06-25T09:06:11Z</time>
      </trkpt>
      <trkpt lat="44.47051" lon="5.88581">
        <ele>1156</ele>
        <time>2019-06-25T09:06:12Z</time>
      </trkpt>
      <trkpt lat="44.47054" lon="5.88577">
        <ele>1156</ele>
        <time>2019-06-25T09:06:13Z</time>
      </trkpt>
      <trkpt lat="44.47057" lon="5.88573">
        <ele>1156</ele>
        <time>2019-06-25T09:06:14Z</time>
      </trkpt>
      <trkpt lat="44.47059" lon="5.88569">
        <ele>1156</ele>
        <time>2019-06-25T09:06:15Z</time>
      </trkpt>
      <trkpt lat="44.47061" lon="5.88566">
        <ele>1157</ele>
        <time>2019-06-25T09:06:16Z</time>
      </trkpt>
      <trkpt lat="44.47064" lon="5.88564">
        <ele>1157</ele>
        <time>2019-06-25T09:06:17Z</time>
      </trkpt>
      <trkpt lat="44.47067" lon="5.88563">
        <ele>1157</ele>
        <time>2019-06-25T09:06:18Z</time>
      </trkpt>
      <trkpt lat="44.4707" lon="5.88566">
        <ele>1157</ele>
        <time>2019-06-25T09:06:19Z</time>
      </trkpt>
      <trkpt lat="44.47072" lon="5.8857">
        <ele>1157</ele>
        <time>2019-06-25T09:06:20Z</time>
      </trkpt>
      <trkpt lat="44.47073" lon="5.88576">
        <ele>1157</ele>
        <time>2019-06-25T09:06:21Z</time>
      </trkpt>
      <trkpt lat="44.47074" lon="5.88582">
        <ele>1157</ele>
        <time>2019-06-25T09:06:22Z</time>
      </trkpt>
      <trkpt lat="44.47075" lon="5.88588">
        <ele>1157</ele>
        <time>2019-06-25T09:06:23Z</time>
      </trkpt>
      <trkpt lat="44.47077" lon="5.88593">
        <ele>1157</ele>
        <time>2019-06-25T09:06:24Z</time>
      </trkpt>
      <trkpt lat="44.47079" lon="5.88598">
        <ele>1157</ele>
        <time>2019-06-25T09:06:25Z</time>
      </trkpt>
      <trkpt lat="44.47083" lon="5.88601">
        <ele>1157</ele>
        <time>2019-06-25T09:06:26Z</time>
      </trkpt>
      <trkpt lat="44.47088" lon="5.88603">
        <ele>1157</ele>
        <time>2019-06-25T09:06:27Z</time>
      </trkpt>
      <trkpt lat="44.47092" lon="5.88604">
        <ele>1156</ele>
        <time>2019-06-25T09:06:28Z</time>
      </trkpt>
      <trkpt lat="44.47097" lon="5.88605">
        <ele>1156</ele>
        <time>2019-06-25T09:06:29Z</time>
      </trkpt>
      <trkpt lat="44.47102" lon="5.88604">
        <ele>1156</ele>
        <time>2019-06-25T09:06:30Z</time>
      </trkpt>
      <trkpt lat="44.47107" lon="5.88604">
        <ele>1156</ele>
        <time>2019-06-25T09:06:31Z</time>
      </trkpt>
      <trkpt lat="44.47111" lon="5.88605">
        <ele>1156</ele>
        <time>2019-06-25T09:06:32Z</time>
      </trkpt>
      <trkpt lat="44.47113" lon="5.88609">
        <ele>1155</ele>
        <time>2019-06-25T09:06:33Z</time>
      </trkpt>
      <trkpt lat="44.47114" lon="5.88614">
        <ele>1155</ele>
        <time>2019-06-25T09:06:34Z</time>
      </trkpt>
      <trkpt lat="44.47113" lon="5.8862">
        <ele>1154</ele>
        <time>2019-06-25T09:06:35Z</time>
      </trkpt>
      <trkpt lat="44.47112" lon="5.88627">
        <ele>1154</ele>
        <time>2019-06-25T09:06:36Z</time>
      </trkpt>
      <trkpt lat="44.47111" lon="5.88634">
        <ele>1153</ele>
        <time>2019-06-25T09:06:37Z</time>
      </trkpt>
      <trkpt lat="44.47109" lon="5.88641">
        <ele>1153</ele>
        <time>2019-06-25T09:06:38Z</time>
      </trkpt>
      <trkpt lat="44.47107" lon="5.88648">
        <ele>1152</ele>
        <time>2019-06-25T09:06:39Z</time>
      </trkpt>
      <trkpt lat="44.47106" lon="5.88654">
        <ele>1152</ele>
        <time>2019-06-25T09:06:40Z</time>
      </trkpt>
      <trkpt lat="44.47107" lon="5.8866">
        <ele>1152</ele>
        <time>2019-06-25T09:06:41Z</time>
      </trkpt>
      <trkpt lat="44.47109" lon="5.88666">
        <ele>1152</ele>
        <time>2019-06-25T09:06:42Z</time>
      </trkpt>
      <trkpt lat="44.47112" lon="5.88671">
        <ele>1152</ele>
        <time>2019-06-25T09:06:43Z</time>
      </trkpt>
      <trkpt lat="44.47117" lon="5.88673">
        <ele>1152</ele>
        <time>2019-06-25T09:06:44Z</time>
      </trkpt>
      <trkpt lat="44.47122" lon="5.88675">
        <ele>1152</ele>
        <time>2019-06-25T09:06:45Z</time>
      </trkpt>
      <trkpt lat="44.47128" lon="5.88675">
        <ele>1152</ele>
        <time>2019-06-25T09:06:46Z</time>
      </trkpt>
      <trkpt lat="44.47132" lon="5.88674">
        <ele>1152</ele>
        <time>2019-06-25T09:06:47Z</time>
      </trkpt>
      <trkpt lat="44.47137" lon="5.88671">
        <ele>1152</ele>
        <time>2019-06-25T09:06:48Z</time>
      </trkpt>
      <trkpt lat="44.47141" lon="5.88667">
        <ele>1152</ele>
        <time>2019-06-25T09:06:49Z</time>
      </trkpt>
      <trkpt lat="44.47144" lon="5.88664">
        <ele>1152</ele>
        <time>2019-06-25T09:06:50Z</time>
      </trkpt>
      <trkpt lat="44.47149" lon="5.8866">
        <ele>1152</ele>
        <time>2019-06-25T09:06:51Z</time>
      </trkpt>
      <trkpt lat="44.47154" lon="5.88658">
        <ele>1152</ele>
        <time>2019-06-25T09:06:52Z</time>
      </trkpt>
      <trkpt lat="44.47159" lon="5.88656">
        <ele>1152</ele>
        <time>2019-06-25T09:06:53Z</time>
      </trkpt>
      <trkpt lat="44.47164" lon="5.88657">
        <ele>1152</ele>
        <time>2019-06-25T09:06:54Z</time>
      </trkpt>
      <trkpt lat="44.47168" lon="5.88661">
        <ele>1152</ele>
        <time>2019-06-25T09:06:55Z</time>
      </trkpt>
      <trkpt lat="44.4717" lon="5.88665">
        <ele>1152</ele>
        <time>2019-06-25T09:06:56Z</time>
      </trkpt>
      <trkpt lat="44.47173" lon="5.88669">
        <ele>1152</ele>
        <time>2019-06-25T09:06:57Z</time>
      </trkpt>
      <trkpt lat="44.47175" lon="5.88673">
        <ele>1152</ele>
        <time>2019-06-25T09:06:58Z</time>
      </trkpt>
      <trkpt lat="44.47179" lon="5.88676">
        <ele>1152</ele>
        <time>2019-06-25T09:06:59Z</time>
      </trkpt>
      <trkpt lat="44.47182" lon="5.88678">
        <ele>1152</ele>
        <time>2019-06-25T09:07:00Z</time>
      </trkpt>
      <trkpt lat="44.47186" lon="5.88681">
        <ele>1152</ele>
        <time>2019-06-25T09:07:01Z</time>
      </trkpt>
      <trkpt lat="44.4719" lon="5.88681">
        <ele>1152</ele>
        <time>2019-06-25T09:07:02Z</time>
      </trkpt>
      <trkpt lat="44.47195" lon="5.88681">
        <ele>1152</ele>
        <time>2019-06-25T09:07:03Z</time>
      </trkpt>
      <trkpt lat="44.472" lon="5.88679">
        <ele>1152</ele>
        <time>2019-06-25T09:07:04Z</time>
      </trkpt>
      <trkpt lat="44.47205" lon="5.88676">
        <ele>1153</ele>
        <time>2019-06-25T09:07:05Z</time>
      </trkpt>
      <trkpt lat="44.4721" lon="5.88672">
        <ele>1153</ele>
        <time>2019-06-25T09:07:06Z</time>
      </trkpt>
      <trkpt lat="44.47213" lon="5.88669">
        <ele>1153</ele>
        <time>2019-06-25T09:07:07Z</time>
      </trkpt>
      <trkpt lat="44.47217" lon="5.88665">
        <ele>1153</ele>
        <time>2019-06-25T09:07:08Z</time>
      </trkpt>
      <trkpt lat="44.47219" lon="5.88661">
        <ele>1154</ele>
        <time>2019-06-25T09:07:09Z</time>
      </trkpt>
      <trkpt lat="44.47222" lon="5.88657">
        <ele>1155</ele>
        <time>2019-06-25T09:07:10Z</time>
      </trkpt>
      <trkpt lat="44.47226" lon="5.88652">
        <ele>1155</ele>
        <time>2019-06-25T09:07:11Z</time>
      </trkpt>
      <trkpt lat="44.47228" lon="5.88647">
        <ele>1156</ele>
        <time>2019-06-25T09:07:12Z</time>
      </trkpt>
      <trkpt lat="44.47231" lon="5.88642">
        <ele>1157</ele>
        <time>2019-06-25T09:07:13Z</time>
      </trkpt>
      <trkpt lat="44.47233" lon="5.88638">
        <ele>1157</ele>
        <time>2019-06-25T09:07:14Z</time>
      </trkpt>
      <trkpt lat="44.47236" lon="5.88635">
        <ele>1157</ele>
        <time>2019-06-25T09:07:15Z</time>
      </trkpt>
      <trkpt lat="44.4724" lon="5.88633">
        <ele>1157</ele>
        <time>2019-06-25T09:07:16Z</time>
      </trkpt>
      <trkpt lat="44.47245" lon="5.88631">
        <ele>1157</ele>
        <time>2019-06-25T09:07:17Z</time>
      </trkpt>
      <trkpt lat="44.4725" lon="5.88629">
        <ele>1157</ele>
        <time>2019-06-25T09:07:18Z</time>
      </trkpt>
      <trkpt lat="44.47255" lon="5.88626">
        <ele>1158</ele>
        <time>2019-06-25T09:07:19Z</time>
      </trkpt>
      <trkpt lat="44.47261" lon="5.88624">
        <ele>1158</ele>
        <time>2019-06-25T09:07:20Z</time>
      </trkpt>
      <trkpt lat="44.47265" lon="5.88624">
        <ele>1158</ele>
        <time>2019-06-25T09:07:21Z</time>
      </trkpt>
      <trkpt lat="44.47269" lon="5.88624">
        <ele>1158</ele>
        <time>2019-06-25T09:07:22Z</time>
      </trkpt>
      <trkpt lat="44.47272" lon="5.88625">
        <ele>1158</ele>
        <time>2019-06-25T09:07:23Z</time>
      </trkpt>
      <trkpt lat="44.47276" lon="5.8863">
        <ele>1158</ele>
        <time>2019-06-25T09:07:24Z</time>
      </trkpt>
      <trkpt lat="44.47278" lon="5.88636">
        <ele>1158</ele>
        <time>2019-06-25T09:07:25Z</time>
      </trkpt>
      <trkpt lat="44.4728" lon="5.88643">
        <ele>1158</ele>
        <time>2019-06-25T09:07:26Z</time>
      </trkpt>
      <trkpt lat="44.47278" lon="5.88649">
        <ele>1158</ele>
        <time>2019-06-25T09:07:27Z</time>
      </trkpt>
      <trkpt lat="44.47277" lon="5.88655">
        <ele>1158</ele>
        <time>2019-06-25T09:07:28Z</time>
      </trkpt>
      <trkpt lat="44.47275" lon="5.88662">
        <ele>1158</ele>
        <time>2019-06-25T09:07:29Z</time>
      </trkpt>
      <trkpt lat="44.47271" lon="5.88668">
        <ele>1158</ele>
        <time>2019-06-25T09:07:30Z</time>
      </trkpt>
      <trkpt lat="44.47267" lon="5.88673">
        <ele>1158</ele>
        <time>2019-06-25T09:07:31Z</time>
      </trkpt>
      <trkpt lat="44.47264" lon="5.88679">
        <ele>1158</ele>
        <time>2019-06-25T09:07:32Z</time>
      </trkpt>
      <trkpt lat="44.47263" lon="5.88686">
        <ele>1158</ele>
        <time>2019-06-25T09:07:33Z</time>
      </trkpt>
      <trkpt lat="44.47262" lon="5.88692">
        <ele>1158</ele>
        <time>2019-06-25T09:07:34Z</time>
      </trkpt>
      <trkpt lat="44.47261" lon="5.88698">
        <ele>1158</ele>
        <time>2019-06-25T09:07:35Z</time>
      </trkpt>
      <trkpt lat="44.47261" lon="5.88704">
        <ele>1158</ele>
        <time>2019-06-25T09:07:36Z</time>
      </trkpt>
      <trkpt lat="44.47262" lon="5.8871">
        <ele>1158</ele>
        <time>2019-06-25T09:07:37Z</time>
      </trkpt>
      <trkpt lat="44.47264" lon="5.88716">
        <ele>1158</ele>
        <time>2019-06-25T09:07:38Z</time>
      </trkpt>
      <trkpt lat="44.47267" lon="5.88721">
        <ele>1158</ele>
        <time>2019-06-25T09:07:39Z</time>
      </trkpt>
      <trkpt lat="44.4727" lon="5.88725">
        <ele>1158</ele>
        <time>2019-06-25T09:07:40Z</time>
      </trkpt>
      <trkpt lat="44.47274" lon="5.88728">
        <ele>1158</ele>
        <time>2019-06-25T09:07:41Z</time>
      </trkpt>
      <trkpt lat="44.47278" lon="5.88731">
        <ele>1158</ele>
        <time>2019-06-25T09:07:42Z</time>
      </trkpt>
      <trkpt lat="44.47282" lon="5.88733">
        <ele>1158</ele>
        <time>2019-06-25T09:07:43Z</time>
      </trkpt>
      <trkpt lat="44.47286" lon="5.88735">
        <ele>1158</ele>
        <time>2019-06-25T09:07:44Z</time>
      </trkpt>
      <trkpt lat="44.4729" lon="5.88737">
        <ele>1158</ele>
        <time>2019-06-25T09:07:45Z</time>
      </trkpt>
      <trkpt lat="44.47294" lon="5.8874">
        <ele>1158</ele>
        <time>2019-06-25T09:07:46Z</time>
      </trkpt>
      <trkpt lat="44.47299" lon="5.88743">
        <ele>1158</ele>
        <time>2019-06-25T09:07:47Z</time>
      </trkpt>
      <trkpt lat="44.47303" lon="5.88747">
        <ele>1158</ele>
        <time>2019-06-25T09:07:48Z</time>
      </trkpt>
      <trkpt lat="44.47306" lon="5.8875">
        <ele>1158</ele>
        <time>2019-06-25T09:07:49Z</time>
      </trkpt>
      <trkpt lat="44.4731" lon="5.88753">
        <ele>1158</ele>
        <time>2019-06-25T09:07:50Z</time>
      </trkpt>
      <trkpt lat="44.47315" lon="5.88756">
        <ele>1158</ele>
        <time>2019-06-25T09:07:51Z</time>
      </trkpt>
      <trkpt lat="44.47319" lon="5.8876">
        <ele>1158</ele>
        <time>2019-06-25T09:07:52Z</time>
      </trkpt>
      <trkpt lat="44.47321" lon="5.88764">
        <ele>1158</ele>
        <time>2019-06-25T09:07:53Z</time>
      </trkpt>
      <trkpt lat="44.47324" lon="5.8877">
        <ele>1158</ele>
        <time>2019-06-25T09:07:54Z</time>
      </trkpt>
      <trkpt lat="44.47325" lon="5.88777">
        <ele>1158</ele>
        <time>2019-06-25T09:07:55Z</time>
      </trkpt>
      <trkpt lat="44.47326" lon="5.88783">
        <ele>1158</ele>
        <time>2019-06-25T09:07:56Z</time>
      </trkpt>
      <trkpt lat="44.47324" lon="5.88788">
        <ele>1158</ele>
        <time>2019-06-25T09:07:57Z</time>
      </trkpt>
      <trkpt lat="44.47321" lon="5.88792">
        <ele>1158</ele>
        <time>2019-06-25T09:07:58Z</time>
      </trkpt>
      <trkpt lat="44.47317" lon="5.88797">
        <ele>1158</ele>
        <time>2019-06-25T09:07:59Z</time>
      </trkpt>
      <trkpt lat="44.47315" lon="5.88803">
        <ele>1158</ele>
        <time>2019-06-25T09:08:00Z</time>
      </trkpt>
      <trkpt lat="44.47315" lon="5.8881">
        <ele>1158</ele>
        <time>2019-06-25T09:08:01Z</time>
      </trkpt>
      <trkpt lat="44.47316" lon="5.88816">
        <ele>1158</ele>
        <time>2019-06-25T09:08:02Z</time>
      </trkpt>
      <trkpt lat="44.47319" lon="5.88822">
        <ele>1158</ele>
        <time>2019-06-25T09:08:03Z</time>
      </trkpt>
      <trkpt lat="44.4732" lon="5.88827">
        <ele>1158</ele>
        <time>2019-06-25T09:08:04Z</time>
      </trkpt>
      <trkpt lat="44.47321" lon="5.88832">
        <ele>1158</ele>
        <time>2019-06-25T09:08:05Z</time>
      </trkpt>
      <trkpt lat="44.47324" lon="5.88837">
        <ele>1158</ele>
        <time>2019-06-25T09:08:06Z</time>
      </trkpt>
      <trkpt lat="44.47327" lon="5.88841">
        <ele>1158</ele>
        <time>2019-06-25T09:08:07Z</time>
      </trkpt>
      <trkpt lat="44.47329" lon="5.88846">
        <ele>1158</ele>
        <time>2019-06-25T09:08:08Z</time>
      </trkpt>
      <trkpt lat="44.47331" lon="5.8885">
        <ele>1158</ele>
        <time>2019-06-25T09:08:09Z</time>
      </trkpt>
      <trkpt lat="44.47334" lon="5.88854">
        <ele>1158</ele>
        <time>2019-06-25T09:08:10Z</time>
      </trkpt>
      <trkpt lat="44.47337" lon="5.88856">
        <ele>1158</ele>
        <time>2019-06-25T09:08:11Z</time>
      </trkpt>
      <trkpt lat="44.4734" lon="5.88858">
        <ele>1158</ele>
        <time>2019-06-25T09:08:12Z</time>
      </trkpt>
      <trkpt lat="44.47342" lon="5.8886">
        <ele>1158</ele>
        <time>2019-06-25T09:08:13Z</time>
      </trkpt>
      <trkpt lat="44.47345" lon="5.88861">
        <ele>1158</ele>
        <time>2019-06-25T09:08:14Z</time>
      </trkpt>
      <trkpt lat="44.47347" lon="5.88862">
        <ele>1158</ele>
        <time>2019-06-25T09:08:15Z</time>
      </trkpt>
      <trkpt lat="44.4735" lon="5.88862">
        <ele>1158</ele>
        <time>2019-06-25T09:08:16Z</time>
      </trkpt>
      <trkpt lat="44.47353" lon="5.88862">
        <ele>1158</ele>
        <time>2019-06-25T09:08:17Z</time>
      </trkpt>
      <trkpt lat="44.47356" lon="5.88861">
        <ele>1158</ele>
        <time>2019-06-25T09:08:18Z</time>
      </trkpt>
      <trkpt lat="44.47361" lon="5.88861">
        <ele>1158</ele>
        <time>2019-06-25T09:08:19Z</time>
      </trkpt>
      <trkpt lat="44.47365" lon="5.88861">
        <ele>1158</ele>
        <time>2019-06-25T09:08:20Z</time>
      </trkpt>
      <trkpt lat="44.47369" lon="5.88859">
        <ele>1158</ele>
        <time>2019-06-25T09:08:21Z</time>
      </trkpt>
      <trkpt lat="44.47373" lon="5.88859">
        <ele>1158</ele>
        <time>2019-06-25T09:08:22Z</time>
      </trkpt>
      <trkpt lat="44.47377" lon="5.8886">
        <ele>1158</ele>
        <time>2019-06-25T09:08:23Z</time>
      </trkpt>
      <trkpt lat="44.47382" lon="5.88862">
        <ele>1158</ele>
        <time>2019-06-25T09:08:24Z</time>
      </trkpt>
      <trkpt lat="44.47386" lon="5.88864">
        <ele>1158</ele>
        <time>2019-06-25T09:08:25Z</time>
      </trkpt>
      <trkpt lat="44.4739" lon="5.88867">
        <ele>1158</ele>
        <time>2019-06-25T09:08:26Z</time>
      </trkpt>
      <trkpt lat="44.47395" lon="5.88868">
        <ele>1158</ele>
        <time>2019-06-25T09:08:27Z</time>
      </trkpt>
      <trkpt lat="44.474" lon="5.88869">
        <ele>1158</ele>
        <time>2019-06-25T09:08:28Z</time>
      </trkpt>
      <trkpt lat="44.47405" lon="5.8887">
        <ele>1158</ele>
        <time>2019-06-25T09:08:29Z</time>
      </trkpt>
      <trkpt lat="44.47411" lon="5.88871">
        <ele>1158</ele>
        <time>2019-06-25T09:08:30Z</time>
      </trkpt>
      <trkpt lat="44.47416" lon="5.88872">
        <ele>1158</ele>
        <time>2019-06-25T09:08:31Z</time>
      </trkpt>
      <trkpt lat="44.47421" lon="5.88873">
        <ele>1158</ele>
        <time>2019-06-25T09:08:32Z</time>
      </trkpt>
      <trkpt lat="44.47426" lon="5.88876">
        <ele>1158</ele>
        <time>2019-06-25T09:08:33Z</time>
      </trkpt>
      <trkpt lat="44.4743" lon="5.8888">
        <ele>1158</ele>
        <time>2019-06-25T09:08:34Z</time>
      </trkpt>
      <trkpt lat="44.47435" lon="5.88884">
        <ele>1158</ele>
        <time>2019-06-25T09:08:35Z</time>
      </trkpt>
      <trkpt lat="44.4744" lon="5.88887">
        <ele>1158</ele>
        <time>2019-06-25T09:08:36Z</time>
      </trkpt>
      <trkpt lat="44.47445" lon="5.88888">
        <ele>1158</ele>
        <time>2019-06-25T09:08:37Z</time>
      </trkpt>
      <trkpt lat="44.47451" lon="5.88889">
        <ele>1158</ele>
        <time>2019-06-25T09:08:38Z</time>
      </trkpt>
      <trkpt lat="44.47456" lon="5.88889">
        <ele>1158</ele>
        <time>2019-06-25T09:08:39Z</time>
      </trkpt>
      <trkpt lat="44.47462" lon="5.88889">
        <ele>1158</ele>
        <time>2019-06-25T09:08:40Z</time>
      </trkpt>
      <trkpt lat="44.47467" lon="5.8889">
        <ele>1158</ele>
        <time>2019-06-25T09:08:41Z</time>
      </trkpt>
      <trkpt lat="44.47472" lon="5.88891">
        <ele>1158</ele>
        <time>2019-06-25T09:08:42Z</time>
      </trkpt>
      <trkpt lat="44.47477" lon="5.88894">
        <ele>1158</ele>
        <time>2019-06-25T09:08:43Z</time>
      </trkpt>
      <trkpt lat="44.47481" lon="5.88896">
        <ele>1158</ele>
        <time>2019-06-25T09:08:44Z</time>
      </trkpt>
      <trkpt lat="44.47486" lon="5.88899">
        <ele>1158</ele>
        <time>2019-06-25T09:08:45Z</time>
      </trkpt>
      <trkpt lat="44.47491" lon="5.88902">
        <ele>1158</ele>
        <time>2019-06-25T09:08:46Z</time>
      </trkpt>
      <trkpt lat="44.47496" lon="5.88906">
        <ele>1158</ele>
        <time>2019-06-25T09:08:47Z</time>
      </trkpt>
      <trkpt lat="44.47501" lon="5.88912">
        <ele>1158</ele>
        <time>2019-06-25T09:08:48Z</time>
      </trkpt>
      <trkpt lat="44.47504" lon="5.88918">
        <ele>1158</ele>
        <time>2019-06-25T09:08:49Z</time>
      </trkpt>
      <trkpt lat="44.47507" lon="5.88925">
        <ele>1158</ele>
        <time>2019-06-25T09:08:50Z</time>
      </trkpt>
      <trkpt lat="44.47509" lon="5.88931">
        <ele>1158</ele>
        <time>2019-06-25T09:08:51Z</time>
      </trkpt>
      <trkpt lat="44.47512" lon="5.88938">
        <ele>1158</ele>
        <time>2019-06-25T09:08:52Z</time>
      </trkpt>
      <trkpt lat="44.47516" lon="5.88944">
        <ele>1158</ele>
        <time>2019-06-25T09:08:53Z</time>
      </trkpt>
      <trkpt lat="44.4752" lon="5.88949">
        <ele>1158</ele>
        <time>2019-06-25T09:08:54Z</time>
      </trkpt>
      <trkpt lat="44.47523" lon="5.88953">
        <ele>1158</ele>
        <time>2019-06-25T09:08:55Z</time>
      </trkpt>
      <trkpt lat="44.47527" lon="5.88956">
        <ele>1158</ele>
        <time>2019-06-25T09:08:56Z</time>
      </trkpt>
      <trkpt lat="44.4753" lon="5.88958">
        <ele>1158</ele>
        <time>2019-06-25T09:08:57Z</time>
      </trkpt>
      <trkpt lat="44.47533" lon="5.88959">
        <ele>1158</ele>
        <time>2019-06-25T09:08:58Z</time>
      </trkpt>
      <trkpt lat="44.47534" lon="5.8896">
        <ele>1158</ele>
        <time>2019-06-25T09:08:59Z</time>
      </trkpt>
      <trkpt lat="44.47535" lon="5.8896">
        <ele>1158</ele>
        <time>2019-06-25T09:09:01Z</time>
      </trkpt>
      <trkpt lat="44.47534" lon="5.88959">
        <ele>1158</ele>
        <time>2019-06-25T09:09:11Z</time>
      </trkpt>
      <trkpt lat="44.47533" lon="5.88959">
        <ele>1158</ele>
        <time>2019-06-25T09:09:19Z</time>
      </trkpt>
      <trkpt lat="44.4753" lon="5.88958">
        <ele>1158</ele>
        <time>2019-06-25T09:09:36Z</time>
      </trkpt>
      <trkpt lat="44.4753" lon="5.88956">
        <ele>1158</ele>
        <time>2019-06-25T09:09:43Z</time>
      </trkpt>
      <trkpt lat="44.47528" lon="5.88955">
        <ele>1158</ele>
        <time>2019-06-25T09:09:44Z</time>
      </trkpt>
      <trkpt lat="44.47526" lon="5.88954">
        <ele>1158</ele>
        <time>2019-06-25T09:09:45Z</time>
      </trkpt>
      <trkpt lat="44.47525" lon="5.88953">
        <ele>1158</ele>
        <time>2019-06-25T09:09:46Z</time>
      </trkpt>
      <trkpt lat="44.47523" lon="5.88952">
        <ele>1158</ele>
        <time>2019-06-25T09:09:47Z</time>
      </trkpt>
      <trkpt lat="44.47522" lon="5.88951">
        <ele>1158</ele>
        <time>2019-06-25T09:09:48Z</time>
      </trkpt>
      <trkpt lat="44.4752" lon="5.88949">
        <ele>1158</ele>
        <time>2019-06-25T09:09:49Z</time>
      </trkpt>
      <trkpt lat="44.47518" lon="5.88947">
        <ele>1158</ele>
        <time>2019-06-25T09:09:50Z</time>
      </trkpt>
      <trkpt lat="44.47516" lon="5.88945">
        <ele>1158</ele>
        <time>2019-06-25T09:09:51Z</time>
      </trkpt>
      <trkpt lat="44.47514" lon="5.88943">
        <ele>1158</ele>
        <time>2019-06-25T09:09:52Z</time>
      </trkpt>
      <trkpt lat="44.47512" lon="5.88941">
        <ele>1158</ele>
        <time>2019-06-25T09:09:53Z</time>
      </trkpt>
      <trkpt lat="44.47511" lon="5.88939">
        <ele>1158</ele>
        <time>2019-06-25T09:09:54Z</time>
      </trkpt>
      <trkpt lat="44.47509" lon="5.88936">
        <ele>1158</ele>
        <time>2019-06-25T09:09:55Z</time>
      </trkpt>
      <trkpt lat="44.47507" lon="5.88933">
        <ele>1158</ele>
        <time>2019-06-25T09:09:56Z</time>
      </trkpt>
      <trkpt lat="44.47506" lon="5.8893">
        <ele>1158</ele>
        <time>2019-06-25T09:09:57Z</time>
      </trkpt>
      <trkpt lat="44.47505" lon="5.88927">
        <ele>1158</ele>
        <time>2019-06-25T09:09:57Z</time>
      </trkpt>
      <trkpt lat="44.47504" lon="5.88924">
        <ele>1158</ele>
        <time>2019-06-25T09:09:59Z</time>
      </trkpt>
      <trkpt lat="44.47502" lon="5.88921">
        <ele>1158</ele>
        <time>2019-06-25T09:10:00Z</time>
      </trkpt>
      <trkpt lat="44.475" lon="5.88918">
        <ele>1158</ele>
        <time>2019-06-25T09:10:01Z</time>
      </trkpt>
      <trkpt lat="44.47498" lon="5.88915">
        <ele>1158</ele>
        <time>2019-06-25T09:10:02Z</time>
      </trkpt>
      <trkpt lat="44.47496" lon="5.88912">
        <ele>1158</ele>
        <time>2019-06-25T09:10:03Z</time>
      </trkpt>
      <trkpt lat="44.47493" lon="5.8891">
        <ele>1158</ele>
        <time>2019-06-25T09:10:03Z</time>
      </trkpt>
      <trkpt lat="44.4749" lon="5.88907">
        <ele>1158</ele>
        <time>2019-06-25T09:10:05Z</time>
      </trkpt>
      <trkpt lat="44.47488" lon="5.88904">
        <ele>1158</ele>
        <time>2019-06-25T09:10:06Z</time>
      </trkpt>
      <trkpt lat="44.47485" lon="5.88903">
        <ele>1158</ele>
        <time>2019-06-25T09:10:07Z</time>
      </trkpt>
      <trkpt lat="44.47481" lon="5.88901">
        <ele>1158</ele>
        <time>2019-06-25T09:10:07Z</time>
      </trkpt>
      <trkpt lat="44.47478" lon="5.889">
        <ele>1158</ele>
        <time>2019-06-25T09:10:09Z</time>
      </trkpt>
      <trkpt lat="44.47475" lon="5.88898">
        <ele>1158</ele>
        <time>2019-06-25T09:10:10Z</time>
      </trkpt>
      <trkpt lat="44.47472" lon="5.88896">
        <ele>1158</ele>
        <time>2019-06-25T09:10:11Z</time>
      </trkpt>
      <trkpt lat="44.47469" lon="5.88895">
        <ele>1158</ele>
        <time>2019-06-25T09:10:12Z</time>
      </trkpt>
      <trkpt lat="44.47466" lon="5.88894">
        <ele>1158</ele>
        <time>2019-06-25T09:10:13Z</time>
      </trkpt>
      <trkpt lat="44.47462" lon="5.88893">
        <ele>1158</ele>
        <time>2019-06-25T09:10:14Z</time>
      </trkpt>
      <trkpt lat="44.47459" lon="5.88892">
        <ele>1158</ele>
        <time>2019-06-25T09:10:14Z</time>
      </trkpt>
      <trkpt lat="44.47455" lon="5.88892">
        <ele>1158</ele>
        <time>2019-06-25T09:10:16Z</time>
      </trkpt>
      <trkpt lat="44.47451" lon="5.88892">
        <ele>1158</ele>
        <time>2019-06-25T09:10:17Z</time>
      </trkpt>
      <trkpt lat="44.47448" lon="5.88892">
        <ele>1158</ele>
        <time>2019-06-25T09:10:18Z</time>
      </trkpt>
      <trkpt lat="44.47444" lon="5.88892">
        <ele>1158</ele>
        <time>2019-06-25T09:10:19Z</time>
      </trkpt>
      <trkpt lat="44.47441" lon="5.88891">
        <ele>1158</ele>
        <time>2019-06-25T09:10:20Z</time>
      </trkpt>
      <trkpt lat="44.47437" lon="5.88889">
        <ele>1158</ele>
        <time>2019-06-25T09:10:21Z</time>
      </trkpt>
      <trkpt lat="44.47434" lon="5.88887">
        <ele>1158</ele>
        <time>2019-06-25T09:10:21Z</time>
      </trkpt>
      <trkpt lat="44.4743" lon="5.88884">
        <ele>1158</ele>
        <time>2019-06-25T09:10:23Z</time>
      </trkpt>
      <trkpt lat="44.47427" lon="5.88881">
        <ele>1158</ele>
        <time>2019-06-25T09:10:24Z</time>
      </trkpt>
      <trkpt lat="44.47424" lon="5.88879">
        <ele>1158</ele>
        <time>2019-06-25T09:10:25Z</time>
      </trkpt>
      <trkpt lat="44.4742" lon="5.88876">
        <ele>1158</ele>
        <time>2019-06-25T09:10:25Z</time>
      </trkpt>
      <trkpt lat="44.47417" lon="5.88875">
        <ele>1158</ele>
        <time>2019-06-25T09:10:27Z</time>
      </trkpt>
      <trkpt lat="44.47413" lon="5.88874">
        <ele>1158</ele>
        <time>2019-06-25T09:10:28Z</time>
      </trkpt>
      <trkpt lat="44.47409" lon="5.88874">
        <ele>1158</ele>
        <time>2019-06-25T09:10:29Z</time>
      </trkpt>
      <trkpt lat="44.47405" lon="5.88873">
        <ele>1158</ele>
        <time>2019-06-25T09:10:29Z</time>
      </trkpt>
      <trkpt lat="44.47401" lon="5.88873">
        <ele>1158</ele>
        <time>2019-06-25T09:10:31Z</time>
      </trkpt>
      <trkpt lat="44.47397" lon="5.88872">
        <ele>1158</ele>
        <time>2019-06-25T09:10:32Z</time>
      </trkpt>
      <trkpt lat="44.47393" lon="5.88871">
        <ele>1158</ele>
        <time>2019-06-25T09:10:33Z</time>
      </trkpt>
      <trkpt lat="44.47389" lon="5.88869">
        <ele>1158</ele>
        <time>2019-06-25T09:10:33Z</time>
      </trkpt>
      <trkpt lat="44.47385" lon="5.88867">
        <ele>1158</ele>
        <time>2019-06-25T09:10:35Z</time>
      </trkpt>
      <trkpt lat="44.47382" lon="5.88865">
        <ele>1158</ele>
        <time>2019-06-25T09:10:36Z</time>
      </trkpt>
      <trkpt lat="44.47378" lon="5.88863">
        <ele>1158</ele>
        <time>2019-06-25T09:10:37Z</time>
      </trkpt>
      <trkpt lat="44.47375" lon="5.88862">
        <ele>1158</ele>
        <time>2019-06-25T09:10:38Z</time>
      </trkpt>
      <trkpt lat="44.47371" lon="5.88862">
        <ele>1158</ele>
        <time>2019-06-25T09:10:39Z</time>
      </trkpt>
      <trkpt lat="44.47367" lon="5.88862">
        <ele>1158</ele>
        <time>2019-06-25T09:10:39Z</time>
      </trkpt>
      <trkpt lat="44.47363" lon="5.88863">
        <ele>1158</ele>
        <time>2019-06-25T09:10:41Z</time>
      </trkpt>
      <trkpt lat="44.47359" lon="5.88863">
        <ele>1158</ele>
        <time>2019-06-25T09:10:42Z</time>
      </trkpt>
      <trkpt lat="44.47355" lon="5.88863">
        <ele>1158</ele>
        <time>2019-06-25T09:10:42Z</time>
      </trkpt>
      <trkpt lat="44.47351" lon="5.88863">
        <ele>1158</ele>
        <time>2019-06-25T09:10:44Z</time>
      </trkpt>
      <trkpt lat="44.47348" lon="5.88862">
        <ele>1158</ele>
        <time>2019-06-25T09:10:45Z</time>
      </trkpt>
      <trkpt lat="44.47344" lon="5.8886">
        <ele>1158</ele>
        <time>2019-06-25T09:10:46Z</time>
      </trkpt>
      <trkpt lat="44.4734" lon="5.88857">
        <ele>1158</ele>
        <time>2019-06-25T09:10:47Z</time>
      </trkpt>
      <trkpt lat="44.47337" lon="5.88854">
        <ele>1158</ele>
        <time>2019-06-25T09:10:48Z</time>
      </trkpt>
      <trkpt lat="44.47333" lon="5.8885">
        <ele>1158</ele>
        <time>2019-06-25T09:10:49Z</time>
      </trkpt>
      <trkpt lat="44.47329" lon="5.88845">
        <ele>1158</ele>
        <time>2019-06-25T09:10:50Z</time>
      </trkpt>
      <trkpt lat="44.47326" lon="5.8884">
        <ele>1158</ele>
        <time>2019-06-25T09:10:50Z</time>
      </trkpt>
      <trkpt lat="44.47323" lon="5.88835">
        <ele>1158</ele>
        <time>2019-06-25T09:10:52Z</time>
      </trkpt>
      <trkpt lat="44.4732" lon="5.88829">
        <ele>1158</ele>
        <time>2019-06-25T09:10:53Z</time>
      </trkpt>
      <trkpt lat="44.47317" lon="5.88823">
        <ele>1158</ele>
        <time>2019-06-25T09:10:54Z</time>
      </trkpt>
      <trkpt lat="44.47314" lon="5.88816">
        <ele>1158</ele>
        <time>2019-06-25T09:10:55Z</time>
      </trkpt>
      <trkpt lat="44.47313" lon="5.88809">
        <ele>1158</ele>
        <time>2019-06-25T09:10:56Z</time>
      </trkpt>
      <trkpt lat="44.47313" lon="5.88802">
        <ele>1158</ele>
        <time>2019-06-25T09:10:57Z</time>
      </trkpt>
      <trkpt lat="44.47315" lon="5.88796">
        <ele>1158</ele>
        <time>2019-06-25T09:10:57Z</time>
      </trkpt>
      <trkpt lat="44.47318" lon="5.88791">
        <ele>1158</ele>
        <time>2019-06-25T09:10:58Z</time>
      </trkpt>
      <trkpt lat="44.47322" lon="5.88785">
        <ele>1157</ele>
        <time>2019-06-25T09:11:00Z</time>
      </trkpt>
      <trkpt lat="44.47325" lon="5.88779">
        <ele>1157</ele>
        <time>2019-06-25T09:11:01Z</time>
      </trkpt>
      <trkpt lat="44.47326" lon="5.88773">
        <ele>1157</ele>
        <time>2019-06-25T09:11:02Z</time>
      </trkpt>
      <trkpt lat="44.47324" lon="5.88766">
        <ele>1156</ele>
        <time>2019-06-25T09:11:03Z</time>
      </trkpt>
      <trkpt lat="44.47322" lon="5.88761">
        <ele>1156</ele>
        <time>2019-06-25T09:11:04Z</time>
      </trkpt>
      <trkpt lat="44.47319" lon="5.88756">
        <ele>1156</ele>
        <time>2019-06-25T09:11:05Z</time>
      </trkpt>
      <trkpt lat="44.47316" lon="5.88753">
        <ele>1156</ele>
        <time>2019-06-25T09:11:06Z</time>
      </trkpt>
      <trkpt lat="44.47312" lon="5.88749">
        <ele>1155</ele>
        <time>2019-06-25T09:11:07Z</time>
      </trkpt>
      <trkpt lat="44.47309" lon="5.88746">
        <ele>1155</ele>
        <time>2019-06-25T09:11:07Z</time>
      </trkpt>
      <trkpt lat="44.47305" lon="5.88743">
        <ele>1155</ele>
        <time>2019-06-25T09:11:08Z</time>
      </trkpt>
      <trkpt lat="44.47301" lon="5.8874">
        <ele>1155</ele>
        <time>2019-06-25T09:11:10Z</time>
      </trkpt>
      <trkpt lat="44.47297" lon="5.88737">
        <ele>1155</ele>
        <time>2019-06-25T09:11:11Z</time>
      </trkpt>
      <trkpt lat="44.47292" lon="5.88735">
        <ele>1155</ele>
        <time>2019-06-25T09:11:12Z</time>
      </trkpt>
      <trkpt lat="44.47288" lon="5.88733">
        <ele>1155</ele>
        <time>2019-06-25T09:11:13Z</time>
      </trkpt>
      <trkpt lat="44.47283" lon="5.8873">
        <ele>1155</ele>
        <time>2019-06-25T09:11:14Z</time>
      </trkpt>
      <trkpt lat="44.47279" lon="5.88727">
        <ele>1155</ele>
        <time>2019-06-25T09:11:15Z</time>
      </trkpt>
      <trkpt lat="44.47274" lon="5.88724">
        <ele>1155</ele>
        <time>2019-06-25T09:11:16Z</time>
      </trkpt>
      <trkpt lat="44.4727" lon="5.88719">
        <ele>1155</ele>
        <time>2019-06-25T09:11:17Z</time>
      </trkpt>
      <trkpt lat="44.47267" lon="5.88714">
        <ele>1155</ele>
        <time>2019-06-25T09:11:18Z</time>
      </trkpt>
      <trkpt lat="44.47265" lon="5.88706">
        <ele>1155</ele>
        <time>2019-06-25T09:11:19Z</time>
      </trkpt>
      <trkpt lat="44.47264" lon="5.88699">
        <ele>1155</ele>
        <time>2019-06-25T09:11:20Z</time>
      </trkpt>
      <trkpt lat="44.47264" lon="5.88693">
        <ele>1155</ele>
        <time>2019-06-25T09:11:21Z</time>
      </trkpt>
      <trkpt lat="44.47264" lon="5.88686">
        <ele>1155</ele>
        <time>2019-06-25T09:11:22Z</time>
      </trkpt>
      <trkpt lat="44.47266" lon="5.88679">
        <ele>1155</ele>
        <time>2019-06-25T09:11:23Z</time>
      </trkpt>
      <trkpt lat="44.47267" lon="5.88672">
        <ele>1155</ele>
        <time>2019-06-25T09:11:24Z</time>
      </trkpt>
      <trkpt lat="44.47269" lon="5.88665">
        <ele>1155</ele>
        <time>2019-06-25T09:11:25Z</time>
      </trkpt>
      <trkpt lat="44.47271" lon="5.88659">
        <ele>1155</ele>
        <time>2019-06-25T09:11:25Z</time>
      </trkpt>
      <trkpt lat="44.47273" lon="5.88652">
        <ele>1155</ele>
        <time>2019-06-25T09:11:27Z</time>
      </trkpt>
      <trkpt lat="44.47274" lon="5.88645">
        <ele>1155</ele>
        <time>2019-06-25T09:11:27Z</time>
      </trkpt>
      <trkpt lat="44.47275" lon="5.88638">
        <ele>1155</ele>
        <time>2019-06-25T09:11:28Z</time>
      </trkpt>
      <trkpt lat="44.47274" lon="5.88631">
        <ele>1155</ele>
        <time>2019-06-25T09:11:29Z</time>
      </trkpt>
      <trkpt lat="44.47273" lon="5.88625">
        <ele>1154</ele>
        <time>2019-06-25T09:11:30Z</time>
      </trkpt>
      <trkpt lat="44.47271" lon="5.88621">
        <ele>1154</ele>
        <time>2019-06-25T09:11:32Z</time>
      </trkpt>
      <trkpt lat="44.47266" lon="5.88621">
        <ele>1154</ele>
        <time>2019-06-25T09:11:33Z</time>
      </trkpt>
      <trkpt lat="44.47261" lon="5.88623">
        <ele>1154</ele>
        <time>2019-06-25T09:11:33Z</time>
      </trkpt>
      <trkpt lat="44.47256" lon="5.88626">
        <ele>1154</ele>
        <time>2019-06-25T09:11:34Z</time>
      </trkpt>
      <trkpt lat="44.47251" lon="5.88629">
        <ele>1154</ele>
        <time>2019-06-25T09:11:36Z</time>
      </trkpt>
      <trkpt lat="44.47245" lon="5.88633">
        <ele>1154</ele>
        <time>2019-06-25T09:11:37Z</time>
      </trkpt>
      <trkpt lat="44.4724" lon="5.88638">
        <ele>1154</ele>
        <time>2019-06-25T09:11:37Z</time>
      </trkpt>
      <trkpt lat="44.47235" lon="5.88644">
        <ele>1154</ele>
        <time>2019-06-25T09:11:38Z</time>
      </trkpt>
      <trkpt lat="44.4723" lon="5.88651">
        <ele>1154</ele>
        <time>2019-06-25T09:11:39Z</time>
      </trkpt>
      <trkpt lat="44.47226" lon="5.88658">
        <ele>1154</ele>
        <time>2019-06-25T09:11:40Z</time>
      </trkpt>
      <trkpt lat="44.47223" lon="5.88665">
        <ele>1154</ele>
        <time>2019-06-25T09:11:42Z</time>
      </trkpt>
      <trkpt lat="44.47218" lon="5.88671">
        <ele>1154</ele>
        <time>2019-06-25T09:11:42Z</time>
      </trkpt>
      <trkpt lat="44.47213" lon="5.88677">
        <ele>1154</ele>
        <time>2019-06-25T09:11:43Z</time>
      </trkpt>
      <trkpt lat="44.47207" lon="5.88682">
        <ele>1154</ele>
        <time>2019-06-25T09:11:45Z</time>
      </trkpt>
      <trkpt lat="44.47202" lon="5.88685">
        <ele>1154</ele>
        <time>2019-06-25T09:11:45Z</time>
      </trkpt>
      <trkpt lat="44.47195" lon="5.88685">
        <ele>1154</ele>
        <time>2019-06-25T09:11:47Z</time>
      </trkpt>
      <trkpt lat="44.47189" lon="5.88683">
        <ele>1154</ele>
        <time>2019-06-25T09:11:47Z</time>
      </trkpt>
      <trkpt lat="44.47182" lon="5.8868">
        <ele>1154</ele>
        <time>2019-06-25T09:11:48Z</time>
      </trkpt>
      <trkpt lat="44.47176" lon="5.88676">
        <ele>1154</ele>
        <time>2019-06-25T09:11:49Z</time>
      </trkpt>
      <trkpt lat="44.47171" lon="5.88671">
        <ele>1154</ele>
        <time>2019-06-25T09:11:50Z</time>
      </trkpt>
      <trkpt lat="44.47166" lon="5.88665">
        <ele>1154</ele>
        <time>2019-06-25T09:11:52Z</time>
      </trkpt>
      <trkpt lat="44.47161" lon="5.8866">
        <ele>1153</ele>
        <time>2019-06-25T09:11:52Z</time>
      </trkpt>
      <trkpt lat="44.47155" lon="5.88659">
        <ele>1153</ele>
        <time>2019-06-25T09:11:53Z</time>
      </trkpt>
      <trkpt lat="44.47151" lon="5.8866">
        <ele>1153</ele>
        <time>2019-06-25T09:11:54Z</time>
      </trkpt>
      <trkpt lat="44.47146" lon="5.88666">
        <ele>1153</ele>
        <time>2019-06-25T09:11:55Z</time>
      </trkpt>
      <trkpt lat="44.4714" lon="5.8867">
        <ele>1153</ele>
        <time>2019-06-25T09:11:57Z</time>
      </trkpt>
      <trkpt lat="44.47134" lon="5.88673">
        <ele>1153</ele>
        <time>2019-06-25T09:11:57Z</time>
      </trkpt>
      <trkpt lat="44.47128" lon="5.88675">
        <ele>1153</ele>
        <time>2019-06-25T09:11:59Z</time>
      </trkpt>
      <trkpt lat="44.47121" lon="5.88673">
        <ele>1152</ele>
        <time>2019-06-25T09:11:59Z</time>
      </trkpt>
      <trkpt lat="44.47116" lon="5.88669">
        <ele>1152</ele>
        <time>2019-06-25T09:12:01Z</time>
      </trkpt>
      <trkpt lat="44.47112" lon="5.88662">
        <ele>1151</ele>
        <time>2019-06-25T09:12:02Z</time>
      </trkpt>
      <trkpt lat="44.47111" lon="5.88655">
        <ele>1150</ele>
        <time>2019-06-25T09:12:03Z</time>
      </trkpt>
      <trkpt lat="44.47111" lon="5.88647">
        <ele>1150</ele>
        <time>2019-06-25T09:12:04Z</time>
      </trkpt>
      <trkpt lat="44.47113" lon="5.88639">
        <ele>1149</ele>
        <time>2019-06-25T09:12:05Z</time>
      </trkpt>
      <trkpt lat="44.47114" lon="5.88631">
        <ele>1149</ele>
        <time>2019-06-25T09:12:05Z</time>
      </trkpt>
      <trkpt lat="44.47115" lon="5.88624">
        <ele>1149</ele>
        <time>2019-06-25T09:12:07Z</time>
      </trkpt>
      <trkpt lat="44.47116" lon="5.88616">
        <ele>1148</ele>
        <time>2019-06-25T09:12:08Z</time>
      </trkpt>
      <trkpt lat="44.47115" lon="5.88609">
        <ele>1148</ele>
        <time>2019-06-25T09:12:09Z</time>
      </trkpt>
      <trkpt lat="44.47113" lon="5.88603">
        <ele>1148</ele>
        <time>2019-06-25T09:12:09Z</time>
      </trkpt>
      <trkpt lat="44.47108" lon="5.886">
        <ele>1148</ele>
        <time>2019-06-25T09:12:10Z</time>
      </trkpt>
      <trkpt lat="44.47102" lon="5.88599">
        <ele>1147</ele>
        <time>2019-06-25T09:12:11Z</time>
      </trkpt>
      <trkpt lat="44.47097" lon="5.88599">
        <ele>1147</ele>
        <time>2019-06-25T09:12:13Z</time>
      </trkpt>
      <trkpt lat="44.4709" lon="5.88599">
        <ele>1147</ele>
        <time>2019-06-25T09:12:13Z</time>
      </trkpt>
      <trkpt lat="44.47084" lon="5.88598">
        <ele>1146</ele>
        <time>2019-06-25T09:12:14Z</time>
      </trkpt>
      <trkpt lat="44.4708" lon="5.88593">
        <ele>1146</ele>
        <time>2019-06-25T09:12:15Z</time>
      </trkpt>
      <trkpt lat="44.47076" lon="5.88587">
        <ele>1146</ele>
        <time>2019-06-25T09:12:17Z</time>
      </trkpt>
      <trkpt lat="44.47075" lon="5.8858">
        <ele>1146</ele>
        <time>2019-06-25T09:12:18Z</time>
      </trkpt>
      <trkpt lat="44.47073" lon="5.88573">
        <ele>1146</ele>
        <time>2019-06-25T09:12:18Z</time>
      </trkpt>
      <trkpt lat="44.47072" lon="5.88566">
        <ele>1146</ele>
        <time>2019-06-25T09:12:19Z</time>
      </trkpt>
      <trkpt lat="44.47069" lon="5.88562">
        <ele>1146</ele>
        <time>2019-06-25T09:12:20Z</time>
      </trkpt>
      <trkpt lat="44.47065" lon="5.8856">
        <ele>1146</ele>
        <time>2019-06-25T09:12:21Z</time>
      </trkpt>
      <trkpt lat="44.47061" lon="5.88561">
        <ele>1146</ele>
        <time>2019-06-25T09:12:23Z</time>
      </trkpt>
      <trkpt lat="44.47055" lon="5.88566">
        <ele>1146</ele>
        <time>2019-06-25T09:12:24Z</time>
      </trkpt>
      <trkpt lat="44.4705" lon="5.88572">
        <ele>1146</ele>
        <time>2019-06-25T09:12:24Z</time>
      </trkpt>
      <trkpt lat="44.47046" lon="5.88578">
        <ele>1146</ele>
        <time>2019-06-25T09:12:25Z</time>
      </trkpt>
      <trkpt lat="44.47041" lon="5.88583">
        <ele>1146</ele>
        <time>2019-06-25T09:12:26Z</time>
      </trkpt>
      <trkpt lat="44.47035" lon="5.88588">
        <ele>1145</ele>
        <time>2019-06-25T09:12:28Z</time>
      </trkpt>
      <trkpt lat="44.4703" lon="5.88594">
        <ele>1145</ele>
        <time>2019-06-25T09:12:28Z</time>
      </trkpt>
      <trkpt lat="44.47025" lon="5.88599">
        <ele>1145</ele>
        <time>2019-06-25T09:12:29Z</time>
      </trkpt>
      <trkpt lat="44.4702" lon="5.88605">
        <ele>1144</ele>
        <time>2019-06-25T09:12:30Z</time>
      </trkpt>
      <trkpt lat="44.47015" lon="5.88611">
        <ele>1144</ele>
        <time>2019-06-25T09:12:31Z</time>
      </trkpt>
      <trkpt lat="44.4701" lon="5.88617">
        <ele>1144</ele>
        <time>2019-06-25T09:12:33Z</time>
      </trkpt>
      <trkpt lat="44.47006" lon="5.88623">
        <ele>1144</ele>
        <time>2019-06-25T09:12:33Z</time>
      </trkpt>
      <trkpt lat="44.47001" lon="5.88629">
        <ele>1144</ele>
        <time>2019-06-25T09:12:34Z</time>
      </trkpt>
      <trkpt lat="44.46996" lon="5.88633">
        <ele>1144</ele>
        <time>2019-06-25T09:12:35Z</time>
      </trkpt>
      <trkpt lat="44.4699" lon="5.88636">
        <ele>1144</ele>
        <time>2019-06-25T09:12:36Z</time>
      </trkpt>
      <trkpt lat="44.46983" lon="5.88638">
        <ele>1144</ele>
        <time>2019-06-25T09:12:37Z</time>
      </trkpt>
      <trkpt lat="44.46977" lon="5.88638">
        <ele>1144</ele>
        <time>2019-06-25T09:12:39Z</time>
      </trkpt>
      <trkpt lat="44.46971" lon="5.88638">
        <ele>1144</ele>
        <time>2019-06-25T09:12:39Z</time>
      </trkpt>
      <trkpt lat="44.46964" lon="5.88638">
        <ele>1144</ele>
        <time>2019-06-25T09:12:40Z</time>
      </trkpt>
      <trkpt lat="44.46958" lon="5.88638">
        <ele>1144</ele>
        <time>2019-06-25T09:12:41Z</time>
      </trkpt>
      <trkpt lat="44.46952" lon="5.88637">
        <ele>1144</ele>
        <time>2019-06-25T09:12:42Z</time>
      </trkpt>
      <trkpt lat="44.46945" lon="5.88636">
        <ele>1144</ele>
        <time>2019-06-25T09:12:44Z</time>
      </trkpt>
      <trkpt lat="44.46939" lon="5.88633">
        <ele>1144</ele>
        <time>2019-06-25T09:12:44Z</time>
      </trkpt>
      <trkpt lat="44.46933" lon="5.88628">
        <ele>1144</ele>
        <time>2019-06-25T09:12:45Z</time>
      </trkpt>
      <trkpt lat="44.46928" lon="5.88623">
        <ele>1144</ele>
        <time>2019-06-25T09:12:46Z</time>
      </trkpt>
      <trkpt lat="44.46923" lon="5.88617">
        <ele>1144</ele>
        <time>2019-06-25T09:12:47Z</time>
      </trkpt>
      <trkpt lat="44.46918" lon="5.8861">
        <ele>1144</ele>
        <time>2019-06-25T09:12:49Z</time>
      </trkpt>
      <trkpt lat="44.46914" lon="5.88604">
        <ele>1144</ele>
        <time>2019-06-25T09:12:50Z</time>
      </trkpt>
      <trkpt lat="44.46909" lon="5.88596">
        <ele>1144</ele>
        <time>2019-06-25T09:12:50Z</time>
      </trkpt>
      <trkpt lat="44.46906" lon="5.88589">
        <ele>1144</ele>
        <time>2019-06-25T09:12:51Z</time>
      </trkpt>
      <trkpt lat="44.46903" lon="5.88581">
        <ele>1144</ele>
        <time>2019-06-25T09:12:52Z</time>
      </trkpt>
      <trkpt lat="44.469" lon="5.88574">
        <ele>1144</ele>
        <time>2019-06-25T09:12:54Z</time>
      </trkpt>
      <trkpt lat="44.46896" lon="5.88566">
        <ele>1144</ele>
        <time>2019-06-25T09:12:54Z</time>
      </trkpt>
      <trkpt lat="44.46892" lon="5.88561">
        <ele>1144</ele>
        <time>2019-06-25T09:12:55Z</time>
      </trkpt>
      <trkpt lat="44.46886" lon="5.88559">
        <ele>1144</ele>
        <time>2019-06-25T09:12:56Z</time>
      </trkpt>
      <trkpt lat="44.4688" lon="5.88559">
        <ele>1144</ele>
        <time>2019-06-25T09:12:57Z</time>
      </trkpt>
      <trkpt lat="44.46875" lon="5.88562">
        <ele>1144</ele>
        <time>2019-06-25T09:12:58Z</time>
      </trkpt>
      <trkpt lat="44.46869" lon="5.88564">
        <ele>1144</ele>
        <time>2019-06-25T09:12:59Z</time>
      </trkpt>
      <trkpt lat="44.46863" lon="5.88567">
        <ele>1144</ele>
        <time>2019-06-25T09:13:00Z</time>
      </trkpt>
      <trkpt lat="44.46857" lon="5.88568">
        <ele>1144</ele>
        <time>2019-06-25T09:13:01Z</time>
      </trkpt>
      <trkpt lat="44.46851" lon="5.88567">
        <ele>1144</ele>
        <time>2019-06-25T09:13:02Z</time>
      </trkpt>
      <trkpt lat="44.46845" lon="5.88567">
        <ele>1144</ele>
        <time>2019-06-25T09:13:03Z</time>
      </trkpt>
      <trkpt lat="44.4684" lon="5.88567">
        <ele>1144</ele>
        <time>2019-06-25T09:13:04Z</time>
      </trkpt>
      <trkpt lat="44.46834" lon="5.88569">
        <ele>1143</ele>
        <time>2019-06-25T09:13:05Z</time>
      </trkpt>
      <trkpt lat="44.46828" lon="5.88574">
        <ele>1143</ele>
        <time>2019-06-25T09:13:06Z</time>
      </trkpt>
      <trkpt lat="44.46824" lon="5.88579">
        <ele>1143</ele>
        <time>2019-06-25T09:13:07Z</time>
      </trkpt>
      <trkpt lat="44.46819" lon="5.88583">
        <ele>1143</ele>
        <time>2019-06-25T09:13:09Z</time>
      </trkpt>
      <trkpt lat="44.46814" lon="5.88583">
        <ele>1143</ele>
        <time>2019-06-25T09:13:09Z</time>
      </trkpt>
      <trkpt lat="44.4681" lon="5.88579">
        <ele>1143</ele>
        <time>2019-06-25T09:13:10Z</time>
      </trkpt>
      <trkpt lat="44.46808" lon="5.88572">
        <ele>1143</ele>
        <time>2019-06-25T09:13:11Z</time>
      </trkpt>
      <trkpt lat="44.46807" lon="5.88564">
        <ele>1142</ele>
        <time>2019-06-25T09:13:12Z</time>
      </trkpt>
      <trkpt lat="44.46807" lon="5.88555">
        <ele>1142</ele>
        <time>2019-06-25T09:13:14Z</time>
      </trkpt>
      <trkpt lat="44.46808" lon="5.88547">
        <ele>1142</ele>
        <time>2019-06-25T09:13:14Z</time>
      </trkpt>
      <trkpt lat="44.46809" lon="5.88539">
        <ele>1142</ele>
        <time>2019-06-25T09:13:15Z</time>
      </trkpt>
      <trkpt lat="44.4681" lon="5.8853">
        <ele>1142</ele>
        <time>2019-06-25T09:13:16Z</time>
      </trkpt>
      <trkpt lat="44.46811" lon="5.88522">
        <ele>1142</ele>
        <time>2019-06-25T09:13:17Z</time>
      </trkpt>
      <trkpt lat="44.46811" lon="5.88513">
        <ele>1141</ele>
        <time>2019-06-25T09:13:19Z</time>
      </trkpt>
      <trkpt lat="44.4681" lon="5.88504">
        <ele>1141</ele>
        <time>2019-06-25T09:13:19Z</time>
      </trkpt>
      <trkpt lat="44.46809" lon="5.88495">
        <ele>1141</ele>
        <time>2019-06-25T09:13:21Z</time>
      </trkpt>
      <trkpt lat="44.46807" lon="5.88487">
        <ele>1141</ele>
        <time>2019-06-25T09:13:21Z</time>
      </trkpt>
      <trkpt lat="44.46806" lon="5.88478">
        <ele>1141</ele>
        <time>2019-06-25T09:13:22Z</time>
      </trkpt>
      <trkpt lat="44.46804" lon="5.8847">
        <ele>1141</ele>
        <time>2019-06-25T09:13:24Z</time>
      </trkpt>
      <trkpt lat="44.46802" lon="5.88462">
        <ele>1141</ele>
        <time>2019-06-25T09:13:24Z</time>
      </trkpt>
      <trkpt lat="44.46799" lon="5.88455">
        <ele>1141</ele>
        <time>2019-06-25T09:13:25Z</time>
      </trkpt>
      <trkpt lat="44.46795" lon="5.88448">
        <ele>1141</ele>
        <time>2019-06-25T09:13:26Z</time>
      </trkpt>
      <trkpt lat="44.46791" lon="5.88442">
        <ele>1141</ele>
        <time>2019-06-25T09:13:27Z</time>
      </trkpt>
      <trkpt lat="44.46786" lon="5.88437">
        <ele>1141</ele>
        <time>2019-06-25T09:13:29Z</time>
      </trkpt>
      <trkpt lat="44.46782" lon="5.88431">
        <ele>1141</ele>
        <time>2019-06-25T09:13:29Z</time>
      </trkpt>
      <trkpt lat="44.46777" lon="5.88425">
        <ele>1141</ele>
        <time>2019-06-25T09:13:30Z</time>
      </trkpt>
      <trkpt lat="44.46772" lon="5.8842">
        <ele>1141</ele>
        <time>2019-06-25T09:13:31Z</time>
      </trkpt>
      <trkpt lat="44.46767" lon="5.88415">
        <ele>1141</ele>
        <time>2019-06-25T09:13:33Z</time>
      </trkpt>
      <trkpt lat="44.46762" lon="5.8841">
        <ele>1141</ele>
        <time>2019-06-25T09:13:33Z</time>
      </trkpt>
      <trkpt lat="44.46756" lon="5.88405">
        <ele>1141</ele>
        <time>2019-06-25T09:13:34Z</time>
      </trkpt>
      <trkpt lat="44.46751" lon="5.88401">
        <ele>1141</ele>
        <time>2019-06-25T09:13:35Z</time>
      </trkpt>
      <trkpt lat="44.46745" lon="5.88398">
        <ele>1141</ele>
        <time>2019-06-25T09:13:36Z</time>
      </trkpt>
      <trkpt lat="44.46738" lon="5.88396">
        <ele>1141</ele>
        <time>2019-06-25T09:13:37Z</time>
      </trkpt>
      <trkpt lat="44.46732" lon="5.88394">
        <ele>1141</ele>
        <time>2019-06-25T09:13:39Z</time>
      </trkpt>
      <trkpt lat="44.46724" lon="5.88392">
        <ele>1141</ele>
        <time>2019-06-25T09:13:39Z</time>
      </trkpt>
      <trkpt lat="44.46717" lon="5.88389">
        <ele>1141</ele>
        <time>2019-06-25T09:13:40Z</time>
      </trkpt>
      <trkpt lat="44.46711" lon="5.88384">
        <ele>1141</ele>
        <time>2019-06-25T09:13:41Z</time>
      </trkpt>
      <trkpt lat="44.46704" lon="5.88378">
        <ele>1141</ele>
        <time>2019-06-25T09:13:42Z</time>
      </trkpt>
      <trkpt lat="44.46699" lon="5.8837">
        <ele>1141</ele>
        <time>2019-06-25T09:13:43Z</time>
      </trkpt>
      <trkpt lat="44.46695" lon="5.88362">
        <ele>1141</ele>
        <time>2019-06-25T09:13:45Z</time>
      </trkpt>
      <trkpt lat="44.46691" lon="5.88355">
        <ele>1141</ele>
        <time>2019-06-25T09:13:45Z</time>
      </trkpt>
      <trkpt lat="44.46687" lon="5.88348">
        <ele>1141</ele>
        <time>2019-06-25T09:13:46Z</time>
      </trkpt>
      <trkpt lat="44.46683" lon="5.88341">
        <ele>1141</ele>
        <time>2019-06-25T09:13:47Z</time>
      </trkpt>
      <trkpt lat="44.46679" lon="5.88333">
        <ele>1141</ele>
        <time>2019-06-25T09:13:48Z</time>
      </trkpt>
      <trkpt lat="44.46673" lon="5.88325">
        <ele>1140</ele>
        <time>2019-06-25T09:13:49Z</time>
      </trkpt>
      <trkpt lat="44.46668" lon="5.88316">
        <ele>1140</ele>
        <time>2019-06-25T09:13:51Z</time>
      </trkpt>
      <trkpt lat="44.46663" lon="5.88307">
        <ele>1140</ele>
        <time>2019-06-25T09:13:51Z</time>
      </trkpt>
      <trkpt lat="44.46658" lon="5.88299">
        <ele>1140</ele>
        <time>2019-06-25T09:13:52Z</time>
      </trkpt>
      <trkpt lat="44.46653" lon="5.88292">
        <ele>1140</ele>
        <time>2019-06-25T09:13:53Z</time>
      </trkpt>
      <trkpt lat="44.46648" lon="5.88286">
        <ele>1140</ele>
        <time>2019-06-25T09:13:54Z</time>
      </trkpt>
      <trkpt lat="44.46642" lon="5.88284">
        <ele>1140</ele>
        <time>2019-06-25T09:13:55Z</time>
      </trkpt>
      <trkpt lat="44.46635" lon="5.88283">
        <ele>1139</ele>
        <time>2019-06-25T09:13:57Z</time>
      </trkpt>
      <trkpt lat="44.46626" lon="5.88286">
        <ele>1138</ele>
        <time>2019-06-25T09:13:57Z</time>
      </trkpt>
      <trkpt lat="44.46618" lon="5.88288">
        <ele>1138</ele>
        <time>2019-06-25T09:13:58Z</time>
      </trkpt>
      <trkpt lat="44.46611" lon="5.88294">
        <ele>1138</ele>
        <time>2019-06-25T09:13:59Z</time>
      </trkpt>
      <trkpt lat="44.46606" lon="5.88301">
        <ele>1137</ele>
        <time>2019-06-25T09:14:00Z</time>
      </trkpt>
      <trkpt lat="44.46603" lon="5.88309">
        <ele>1137</ele>
        <time>2019-06-25T09:14:01Z</time>
      </trkpt>
      <trkpt lat="44.466" lon="5.88318">
        <ele>1136</ele>
        <time>2019-06-25T09:14:02Z</time>
      </trkpt>
      <trkpt lat="44.46597" lon="5.88328">
        <ele>1136</ele>
        <time>2019-06-25T09:14:03Z</time>
      </trkpt>
      <trkpt lat="44.46594" lon="5.88337">
        <ele>1135</ele>
        <time>2019-06-25T09:14:04Z</time>
      </trkpt>
      <trkpt lat="44.4659" lon="5.88346">
        <ele>1134</ele>
        <time>2019-06-25T09:14:05Z</time>
      </trkpt>
      <trkpt lat="44.46587" lon="5.88356">
        <ele>1133</ele>
        <time>2019-06-25T09:14:06Z</time>
      </trkpt>
      <trkpt lat="44.46585" lon="5.88367">
        <ele>1132</ele>
        <time>2019-06-25T09:14:07Z</time>
      </trkpt>
      <trkpt lat="44.46584" lon="5.88378">
        <ele>1131</ele>
        <time>2019-06-25T09:14:08Z</time>
      </trkpt>
      <trkpt lat="44.46583" lon="5.88389">
        <ele>1130</ele>
        <time>2019-06-25T09:14:09Z</time>
      </trkpt>
      <trkpt lat="44.46582" lon="5.884">
        <ele>1129</ele>
        <time>2019-06-25T09:14:10Z</time>
      </trkpt>
      <trkpt lat="44.4658" lon="5.88408">
        <ele>1129</ele>
        <time>2019-06-25T09:14:11Z</time>
      </trkpt>
      <trkpt lat="44.46576" lon="5.88415">
        <ele>1128</ele>
        <time>2019-06-25T09:14:12Z</time>
      </trkpt>
      <trkpt lat="44.46571" lon="5.8842">
        <ele>1127</ele>
        <time>2019-06-25T09:14:14Z</time>
      </trkpt>
      <trkpt lat="44.46564" lon="5.88421">
        <ele>1127</ele>
        <time>2019-06-25T09:14:14Z</time>
      </trkpt>
      <trkpt lat="44.46556" lon="5.8842">
        <ele>1126</ele>
        <time>2019-06-25T09:14:15Z</time>
      </trkpt>
      <trkpt lat="44.46549" lon="5.88421">
        <ele>1125</ele>
        <time>2019-06-25T09:14:16Z</time>
      </trkpt>
      <trkpt lat="44.46542" lon="5.88424">
        <ele>1124</ele>
        <time>2019-06-25T09:14:17Z</time>
      </trkpt>
      <trkpt lat="44.46536" lon="5.88429">
        <ele>1124</ele>
        <time>2019-06-25T09:14:19Z</time>
      </trkpt>
      <trkpt lat="44.46532" lon="5.88434">
        <ele>1124</ele>
        <time>2019-06-25T09:14:19Z</time>
      </trkpt>
      <trkpt lat="44.46531" lon="5.88441">
        <ele>1124</ele>
        <time>2019-06-25T09:14:20Z</time>
      </trkpt>
      <trkpt lat="44.4653" lon="5.88448">
        <ele>1124</ele>
        <time>2019-06-25T09:14:21Z</time>
      </trkpt>
      <trkpt lat="44.46535" lon="5.88457">
        <ele>1124</ele>
        <time>2019-06-25T09:14:22Z</time>
      </trkpt>
      <trkpt lat="44.46542" lon="5.88465">
        <ele>1124</ele>
        <time>2019-06-25T09:14:24Z</time>
      </trkpt>
      <trkpt lat="44.46545" lon="5.88475">
        <ele>1124</ele>
        <time>2019-06-25T09:14:24Z</time>
      </trkpt>
      <trkpt lat="44.46549" lon="5.88485">
        <ele>1124</ele>
        <time>2019-06-25T09:14:25Z</time>
      </trkpt>
      <trkpt lat="44.46553" lon="5.88496">
        <ele>1124</ele>
        <time>2019-06-25T09:14:26Z</time>
      </trkpt>
      <trkpt lat="44.46558" lon="5.88506">
        <ele>1124</ele>
        <time>2019-06-25T09:14:27Z</time>
      </trkpt>
      <trkpt lat="44.46562" lon="5.88516">
        <ele>1124</ele>
        <time>2019-06-25T09:14:28Z</time>
      </trkpt>
      <trkpt lat="44.46565" lon="5.88525">
        <ele>1124</ele>
        <time>2019-06-25T09:14:29Z</time>
      </trkpt>
      <trkpt lat="44.46568" lon="5.88535">
        <ele>1123</ele>
        <time>2019-06-25T09:14:30Z</time>
      </trkpt>
      <trkpt lat="44.46569" lon="5.88545">
        <ele>1122</ele>
        <time>2019-06-25T09:14:31Z</time>
      </trkpt>
      <trkpt lat="44.4657" lon="5.88554">
        <ele>1121</ele>
        <time>2019-06-25T09:14:33Z</time>
      </trkpt>
      <trkpt lat="44.4657" lon="5.88565">
        <ele>1120</ele>
        <time>2019-06-25T09:14:33Z</time>
      </trkpt>
      <trkpt lat="44.46569" lon="5.88575">
        <ele>1119</ele>
        <time>2019-06-25T09:14:34Z</time>
      </trkpt>
      <trkpt lat="44.46569" lon="5.88582">
        <ele>1118</ele>
        <time>2019-06-25T09:14:35Z</time>
      </trkpt>
      <trkpt lat="44.46565" lon="5.88586">
        <ele>1117</ele>
        <time>2019-06-25T09:14:36Z</time>
      </trkpt>
      <trkpt lat="44.46558" lon="5.88588">
        <ele>1116</ele>
        <time>2019-06-25T09:14:37Z</time>
      </trkpt>
      <trkpt lat="44.46549" lon="5.88586">
        <ele>1115</ele>
        <time>2019-06-25T09:14:39Z</time>
      </trkpt>
      <trkpt lat="44.46543" lon="5.88585">
        <ele>1115</ele>
        <time>2019-06-25T09:14:39Z</time>
      </trkpt>
      <trkpt lat="44.46535" lon="5.88584">
        <ele>1115</ele>
        <time>2019-06-25T09:14:40Z</time>
      </trkpt>
      <trkpt lat="44.46528" lon="5.88585">
        <ele>1115</ele>
        <time>2019-06-25T09:14:41Z</time>
      </trkpt>
      <trkpt lat="44.4652" lon="5.88585">
        <ele>1115</ele>
        <time>2019-06-25T09:14:42Z</time>
      </trkpt>
      <trkpt lat="44.4651" lon="5.88586">
        <ele>1115</ele>
        <time>2019-06-25T09:14:43Z</time>
      </trkpt>
      <trkpt lat="44.46502" lon="5.88588">
        <ele>1114</ele>
        <time>2019-06-25T09:14:45Z</time>
      </trkpt>
      <trkpt lat="44.46495" lon="5.8859">
        <ele>1114</ele>
        <time>2019-06-25T09:14:45Z</time>
      </trkpt>
      <trkpt lat="44.46487" lon="5.88592">
        <ele>1113</ele>
        <time>2019-06-25T09:14:46Z</time>
      </trkpt>
      <trkpt lat="44.46479" lon="5.88596">
        <ele>1113</ele>
        <time>2019-06-25T09:14:48Z</time>
      </trkpt>
      <trkpt lat="44.46473" lon="5.88601">
        <ele>1113</ele>
        <time>2019-06-25T09:14:48Z</time>
      </trkpt>
      <trkpt lat="44.46467" lon="5.88609">
        <ele>1112</ele>
        <time>2019-06-25T09:14:49Z</time>
      </trkpt>
      <trkpt lat="44.46463" lon="5.88618">
        <ele>1112</ele>
        <time>2019-06-25T09:14:50Z</time>
      </trkpt>
      <trkpt lat="44.4646" lon="5.88629">
        <ele>1111</ele>
        <time>2019-06-25T09:14:51Z</time>
      </trkpt>
      <trkpt lat="44.46459" lon="5.8864">
        <ele>1110</ele>
        <time>2019-06-25T09:14:52Z</time>
      </trkpt>
      <trkpt lat="44.46458" lon="5.8865">
        <ele>1109</ele>
        <time>2019-06-25T09:14:53Z</time>
      </trkpt>
      <trkpt lat="44.46457" lon="5.8866">
        <ele>1108</ele>
        <time>2019-06-25T09:14:54Z</time>
      </trkpt>
      <trkpt lat="44.46455" lon="5.88669">
        <ele>1107</ele>
        <time>2019-06-25T09:14:55Z</time>
      </trkpt>
      <trkpt lat="44.46452" lon="5.88678">
        <ele>1106</ele>
        <time>2019-06-25T09:14:56Z</time>
      </trkpt>
      <trkpt lat="44.46449" lon="5.88686">
        <ele>1105</ele>
        <time>2019-06-25T09:14:57Z</time>
      </trkpt>
      <trkpt lat="44.46446" lon="5.88695">
        <ele>1104</ele>
        <time>2019-06-25T09:14:58Z</time>
      </trkpt>
      <trkpt lat="44.46446" lon="5.88706">
        <ele>1103</ele>
        <time>2019-06-25T09:14:59Z</time>
      </trkpt>
      <trkpt lat="44.46445" lon="5.88718">
        <ele>1102</ele>
        <time>2019-06-25T09:15:00Z</time>
      </trkpt>
      <trkpt lat="44.46447" lon="5.88729">
        <ele>1101</ele>
        <time>2019-06-25T09:15:01Z</time>
      </trkpt>
      <trkpt lat="44.4645" lon="5.8874">
        <ele>1100</ele>
        <time>2019-06-25T09:15:02Z</time>
      </trkpt>
      <trkpt lat="44.46451" lon="5.88751">
        <ele>1100</ele>
        <time>2019-06-25T09:15:03Z</time>
      </trkpt>
      <trkpt lat="44.46452" lon="5.88763">
        <ele>1099</ele>
        <time>2019-06-25T09:15:04Z</time>
      </trkpt>
      <trkpt lat="44.46452" lon="5.88774">
        <ele>1098</ele>
        <time>2019-06-25T09:15:05Z</time>
      </trkpt>
      <trkpt lat="44.46451" lon="5.88788">
        <ele>1098</ele>
        <time>2019-06-25T09:15:06Z</time>
      </trkpt>
      <trkpt lat="44.4645" lon="5.88801">
        <ele>1097</ele>
        <time>2019-06-25T09:15:07Z</time>
      </trkpt>
      <trkpt lat="44.4645" lon="5.88815">
        <ele>1097</ele>
        <time>2019-06-25T09:15:08Z</time>
      </trkpt>
      <trkpt lat="44.46449" lon="5.88828">
        <ele>1097</ele>
        <time>2019-06-25T09:15:09Z</time>
      </trkpt>
      <trkpt lat="44.46448" lon="5.8884">
        <ele>1097</ele>
        <time>2019-06-25T09:15:10Z</time>
      </trkpt>
      <trkpt lat="44.46446" lon="5.8885">
        <ele>1097</ele>
        <time>2019-06-25T09:15:11Z</time>
      </trkpt>
      <trkpt lat="44.46442" lon="5.88859">
        <ele>1097</ele>
        <time>2019-06-25T09:15:12Z</time>
      </trkpt>
      <trkpt lat="44.46438" lon="5.88865">
        <ele>1097</ele>
        <time>2019-06-25T09:15:13Z</time>
      </trkpt>
      <trkpt lat="44.46431" lon="5.88869">
        <ele>1097</ele>
        <time>2019-06-25T09:15:15Z</time>
      </trkpt>
      <trkpt lat="44.46424" lon="5.88873">
        <ele>1097</ele>
        <time>2019-06-25T09:15:15Z</time>
      </trkpt>
      <trkpt lat="44.46417" lon="5.88876">
        <ele>1097</ele>
        <time>2019-06-25T09:15:16Z</time>
      </trkpt>
      <trkpt lat="44.4641" lon="5.8888">
        <ele>1096</ele>
        <time>2019-06-25T09:15:17Z</time>
      </trkpt>
      <trkpt lat="44.46403" lon="5.88883">
        <ele>1096</ele>
        <time>2019-06-25T09:15:18Z</time>
      </trkpt>
      <trkpt lat="44.46397" lon="5.88885">
        <ele>1096</ele>
        <time>2019-06-25T09:15:19Z</time>
      </trkpt>
      <trkpt lat="44.4639" lon="5.88889">
        <ele>1096</ele>
        <time>2019-06-25T09:15:21Z</time>
      </trkpt>
      <trkpt lat="44.46384" lon="5.88894">
        <ele>1096</ele>
        <time>2019-06-25T09:15:21Z</time>
      </trkpt>
      <trkpt lat="44.46381" lon="5.88901">
        <ele>1096</ele>
        <time>2019-06-25T09:15:22Z</time>
      </trkpt>
      <trkpt lat="44.4638" lon="5.88909">
        <ele>1096</ele>
        <time>2019-06-25T09:15:23Z</time>
      </trkpt>
      <trkpt lat="44.46382" lon="5.88916">
        <ele>1096</ele>
        <time>2019-06-25T09:15:24Z</time>
      </trkpt>
      <trkpt lat="44.46387" lon="5.88925">
        <ele>1096</ele>
        <time>2019-06-25T09:15:25Z</time>
      </trkpt>
      <trkpt lat="44.46391" lon="5.88933">
        <ele>1096</ele>
        <time>2019-06-25T09:15:26Z</time>
      </trkpt>
      <trkpt lat="44.46394" lon="5.88941">
        <ele>1095</ele>
        <time>2019-06-25T09:15:27Z</time>
      </trkpt>
      <trkpt lat="44.46396" lon="5.88951">
        <ele>1095</ele>
        <time>2019-06-25T09:15:28Z</time>
      </trkpt>
      <trkpt lat="44.46399" lon="5.8896">
        <ele>1095</ele>
        <time>2019-06-25T09:15:29Z</time>
      </trkpt>
      <trkpt lat="44.464" lon="5.8897">
        <ele>1094</ele>
        <time>2019-06-25T09:15:31Z</time>
      </trkpt>
      <trkpt lat="44.46401" lon="5.88979">
        <ele>1094</ele>
        <time>2019-06-25T09:15:31Z</time>
      </trkpt>
      <trkpt lat="44.464" lon="5.8899">
        <ele>1094</ele>
        <time>2019-06-25T09:15:33Z</time>
      </trkpt>
      <trkpt lat="44.46399" lon="5.88999">
        <ele>1094</ele>
        <time>2019-06-25T09:15:33Z</time>
      </trkpt>
      <trkpt lat="44.46396" lon="5.89007">
        <ele>1093</ele>
        <time>2019-06-25T09:15:34Z</time>
      </trkpt>
      <trkpt lat="44.46392" lon="5.89012">
        <ele>1093</ele>
        <time>2019-06-25T09:15:36Z</time>
      </trkpt>
      <trkpt lat="44.46386" lon="5.89014">
        <ele>1092</ele>
        <time>2019-06-25T09:15:36Z</time>
      </trkpt>
      <trkpt lat="44.46378" lon="5.89014">
        <ele>1092</ele>
        <time>2019-06-25T09:15:37Z</time>
      </trkpt>
      <trkpt lat="44.46371" lon="5.89014">
        <ele>1091</ele>
        <time>2019-06-25T09:15:39Z</time>
      </trkpt>
      <trkpt lat="44.46363" lon="5.89013">
        <ele>1090</ele>
        <time>2019-06-25T09:15:39Z</time>
      </trkpt>
      <trkpt lat="44.46356" lon="5.89013">
        <ele>1089</ele>
        <time>2019-06-25T09:15:40Z</time>
      </trkpt>
      <trkpt lat="44.46348" lon="5.89011">
        <ele>1089</ele>
        <time>2019-06-25T09:15:42Z</time>
      </trkpt>
      <trkpt lat="44.4634" lon="5.89009">
        <ele>1088</ele>
        <time>2019-06-25T09:15:42Z</time>
      </trkpt>
      <trkpt lat="44.46331" lon="5.89007">
        <ele>1088</ele>
        <time>2019-06-25T09:15:43Z</time>
      </trkpt>
      <trkpt lat="44.46323" lon="5.89006">
        <ele>1088</ele>
        <time>2019-06-25T09:15:45Z</time>
      </trkpt>
      <trkpt lat="44.46316" lon="5.89006">
        <ele>1088</ele>
        <time>2019-06-25T09:15:45Z</time>
      </trkpt>
      <trkpt lat="44.4631" lon="5.89005">
        <ele>1088</ele>
        <time>2019-06-25T09:15:47Z</time>
      </trkpt>
      <trkpt lat="44.46303" lon="5.89006">
        <ele>1088</ele>
        <time>2019-06-25T09:15:47Z</time>
      </trkpt>
      <trkpt lat="44.46297" lon="5.89004">
        <ele>1088</ele>
        <time>2019-06-25T09:15:49Z</time>
      </trkpt>
      <trkpt lat="44.46293" lon="5.88999">
        <ele>1088</ele>
        <time>2019-06-25T09:15:50Z</time>
      </trkpt>
      <trkpt lat="44.46291" lon="5.8899">
        <ele>1087</ele>
        <time>2019-06-25T09:15:51Z</time>
      </trkpt>
      <trkpt lat="44.46289" lon="5.88982">
        <ele>1087</ele>
        <time>2019-06-25T09:15:52Z</time>
      </trkpt>
      <trkpt lat="44.46287" lon="5.88974">
        <ele>1086</ele>
        <time>2019-06-25T09:15:52Z</time>
      </trkpt>
      <trkpt lat="44.46283" lon="5.8897">
        <ele>1085</ele>
        <time>2019-06-25T09:15:53Z</time>
      </trkpt>
      <trkpt lat="44.46278" lon="5.88972">
        <ele>1084</ele>
        <time>2019-06-25T09:15:54Z</time>
      </trkpt>
      <trkpt lat="44.46273" lon="5.88976">
        <ele>1083</ele>
        <time>2019-06-25T09:15:55Z</time>
      </trkpt>
      <trkpt lat="44.46267" lon="5.88981">
        <ele>1082</ele>
        <time>2019-06-25T09:15:57Z</time>
      </trkpt>
      <trkpt lat="44.46261" lon="5.88987">
        <ele>1082</ele>
        <time>2019-06-25T09:15:57Z</time>
      </trkpt>
      <trkpt lat="44.46254" lon="5.88992">
        <ele>1082</ele>
        <time>2019-06-25T09:15:58Z</time>
      </trkpt>
      <trkpt lat="44.46248" lon="5.88997">
        <ele>1081</ele>
        <time>2019-06-25T09:15:59Z</time>
      </trkpt>
      <trkpt lat="44.46243" lon="5.89004">
        <ele>1081</ele>
        <time>2019-06-25T09:16:00Z</time>
      </trkpt>
      <trkpt lat="44.46238" lon="5.89011">
        <ele>1081</ele>
        <time>2019-06-25T09:16:02Z</time>
      </trkpt>
      <trkpt lat="44.46235" lon="5.89017">
        <ele>1080</ele>
        <time>2019-06-25T09:16:02Z</time>
      </trkpt>
      <trkpt lat="44.4623" lon="5.89022">
        <ele>1079</ele>
        <time>2019-06-25T09:16:03Z</time>
      </trkpt>
      <trkpt lat="44.46225" lon="5.89026">
        <ele>1078</ele>
        <time>2019-06-25T09:16:04Z</time>
      </trkpt>
      <trkpt lat="44.46218" lon="5.89027">
        <ele>1078</ele>
        <time>2019-06-25T09:16:05Z</time>
      </trkpt>
      <trkpt lat="44.46212" lon="5.89025">
        <ele>1077</ele>
        <time>2019-06-25T09:16:07Z</time>
      </trkpt>
      <trkpt lat="44.46207" lon="5.89018">
        <ele>1076</ele>
        <time>2019-06-25T09:16:08Z</time>
      </trkpt>
      <trkpt lat="44.46204" lon="5.8901">
        <ele>1076</ele>
        <time>2019-06-25T09:16:08Z</time>
      </trkpt>
      <trkpt lat="44.46201" lon="5.89001">
        <ele>1076</ele>
        <time>2019-06-25T09:16:09Z</time>
      </trkpt>
      <trkpt lat="44.46198" lon="5.88992">
        <ele>1075</ele>
        <time>2019-06-25T09:16:10Z</time>
      </trkpt>
      <trkpt lat="44.46194" lon="5.88984">
        <ele>1075</ele>
        <time>2019-06-25T09:16:11Z</time>
      </trkpt>
      <trkpt lat="44.46189" lon="5.88979">
        <ele>1075</ele>
        <time>2019-06-25T09:16:13Z</time>
      </trkpt>
      <trkpt lat="44.46184" lon="5.88977">
        <ele>1075</ele>
        <time>2019-06-25T09:16:13Z</time>
      </trkpt>
      <trkpt lat="44.46177" lon="5.88977">
        <ele>1074</ele>
        <time>2019-06-25T09:16:14Z</time>
      </trkpt>
      <trkpt lat="44.46169" lon="5.88984">
        <ele>1074</ele>
        <time>2019-06-25T09:16:15Z</time>
      </trkpt>
      <trkpt lat="44.4616" lon="5.88993">
        <ele>1074</ele>
        <time>2019-06-25T09:16:16Z</time>
      </trkpt>
      <trkpt lat="44.46151" lon="5.88999">
        <ele>1074</ele>
        <time>2019-06-25T09:16:17Z</time>
      </trkpt>
      <trkpt lat="44.46143" lon="5.89004">
        <ele>1074</ele>
        <time>2019-06-25T09:16:18Z</time>
      </trkpt>
      <trkpt lat="44.46135" lon="5.89007">
        <ele>1074</ele>
        <time>2019-06-25T09:16:19Z</time>
      </trkpt>
      <trkpt lat="44.46127" lon="5.8901">
        <ele>1073</ele>
        <time>2019-06-25T09:16:21Z</time>
      </trkpt>
      <trkpt lat="44.46119" lon="5.89014">
        <ele>1072</ele>
        <time>2019-06-25T09:16:21Z</time>
      </trkpt>
      <trkpt lat="44.46111" lon="5.89019">
        <ele>1071</ele>
        <time>2019-06-25T09:16:23Z</time>
      </trkpt>
      <trkpt lat="44.46103" lon="5.89023">
        <ele>1070</ele>
        <time>2019-06-25T09:16:23Z</time>
      </trkpt>
      <trkpt lat="44.46095" lon="5.89027">
        <ele>1069</ele>
        <time>2019-06-25T09:16:24Z</time>
      </trkpt>
      <trkpt lat="44.46088" lon="5.8903">
        <ele>1068</ele>
        <time>2019-06-25T09:16:25Z</time>
      </trkpt>
      <trkpt lat="44.46079" lon="5.89029">
        <ele>1067</ele>
        <time>2019-06-25T09:16:26Z</time>
      </trkpt>
      <trkpt lat="44.46071" lon="5.89028">
        <ele>1067</ele>
        <time>2019-06-25T09:16:27Z</time>
      </trkpt>
      <trkpt lat="44.46063" lon="5.89025">
        <ele>1066</ele>
        <time>2019-06-25T09:16:28Z</time>
      </trkpt>
      <trkpt lat="44.46054" lon="5.89022">
        <ele>1066</ele>
        <time>2019-06-25T09:16:29Z</time>
      </trkpt>
      <trkpt lat="44.46046" lon="5.89017">
        <ele>1066</ele>
        <time>2019-06-25T09:16:30Z</time>
      </trkpt>
      <trkpt lat="44.46038" lon="5.8901">
        <ele>1066</ele>
        <time>2019-06-25T09:16:31Z</time>
      </trkpt>
      <trkpt lat="44.46031" lon="5.89006">
        <ele>1065</ele>
        <time>2019-06-25T09:16:33Z</time>
      </trkpt>
      <trkpt lat="44.46023" lon="5.89004">
        <ele>1065</ele>
        <time>2019-06-25T09:16:33Z</time>
      </trkpt>
      <trkpt lat="44.46015" lon="5.89006">
        <ele>1064</ele>
        <time>2019-06-25T09:16:34Z</time>
      </trkpt>
      <trkpt lat="44.46009" lon="5.89011">
        <ele>1063</ele>
        <time>2019-06-25T09:16:35Z</time>
      </trkpt>
      <trkpt lat="44.46004" lon="5.89018">
        <ele>1062</ele>
        <time>2019-06-25T09:16:36Z</time>
      </trkpt>
      <trkpt lat="44.46" lon="5.89026">
        <ele>1062</ele>
        <time>2019-06-25T09:16:37Z</time>
      </trkpt>
      <trkpt lat="44.45999" lon="5.89036">
        <ele>1062</ele>
        <time>2019-06-25T09:16:39Z</time>
      </trkpt>
      <trkpt lat="44.45999" lon="5.89046">
        <ele>1062</ele>
        <time>2019-06-25T09:16:39Z</time>
      </trkpt>
      <trkpt lat="44.46" lon="5.89056">
        <ele>1062</ele>
        <time>2019-06-25T09:16:40Z</time>
      </trkpt>
      <trkpt lat="44.46003" lon="5.89067">
        <ele>1062</ele>
        <time>2019-06-25T09:16:41Z</time>
      </trkpt>
      <trkpt lat="44.46004" lon="5.89077">
        <ele>1062</ele>
        <time>2019-06-25T09:16:42Z</time>
      </trkpt>
      <trkpt lat="44.46005" lon="5.89087">
        <ele>1062</ele>
        <time>2019-06-25T09:16:44Z</time>
      </trkpt>
      <trkpt lat="44.46005" lon="5.89098">
        <ele>1062</ele>
        <time>2019-06-25T09:16:44Z</time>
      </trkpt>
      <trkpt lat="44.46004" lon="5.89109">
        <ele>1061</ele>
        <time>2019-06-25T09:16:45Z</time>
      </trkpt>
      <trkpt lat="44.46003" lon="5.8912">
        <ele>1060</ele>
        <time>2019-06-25T09:16:46Z</time>
      </trkpt>
      <trkpt lat="44.46001" lon="5.89131">
        <ele>1060</ele>
        <time>2019-06-25T09:16:47Z</time>
      </trkpt>
      <trkpt lat="44.45998" lon="5.89142">
        <ele>1059</ele>
        <time>2019-06-25T09:16:49Z</time>
      </trkpt>
      <trkpt lat="44.45995" lon="5.89153">
        <ele>1059</ele>
        <time>2019-06-25T09:16:49Z</time>
      </trkpt>
      <trkpt lat="44.45992" lon="5.89163">
        <ele>1058</ele>
        <time>2019-06-25T09:16:50Z</time>
      </trkpt>
      <trkpt lat="44.45989" lon="5.89175">
        <ele>1058</ele>
        <time>2019-06-25T09:16:51Z</time>
      </trkpt>
      <trkpt lat="44.45987" lon="5.89186">
        <ele>1057</ele>
        <time>2019-06-25T09:16:52Z</time>
      </trkpt>
      <trkpt lat="44.45984" lon="5.89198">
        <ele>1056</ele>
        <time>2019-06-25T09:16:53Z</time>
      </trkpt>
      <trkpt lat="44.45981" lon="5.89209">
        <ele>1056</ele>
        <time>2019-06-25T09:16:54Z</time>
      </trkpt>
      <trkpt lat="44.45977" lon="5.89221">
        <ele>1056</ele>
        <time>2019-06-25T09:16:55Z</time>
      </trkpt>
      <trkpt lat="44.45974" lon="5.89232">
        <ele>1055</ele>
        <time>2019-06-25T09:16:57Z</time>
      </trkpt>
      <trkpt lat="44.45971" lon="5.89244">
        <ele>1055</ele>
        <time>2019-06-25T09:16:57Z</time>
      </trkpt>
      <trkpt lat="44.45967" lon="5.89256">
        <ele>1054</ele>
        <time>2019-06-25T09:16:59Z</time>
      </trkpt>
      <trkpt lat="44.45963" lon="5.89269">
        <ele>1053</ele>
        <time>2019-06-25T09:16:59Z</time>
      </trkpt>
      <trkpt lat="44.45959" lon="5.89282">
        <ele>1053</ele>
        <time>2019-06-25T09:17:00Z</time>
      </trkpt>
      <trkpt lat="44.45955" lon="5.89294">
        <ele>1052</ele>
        <time>2019-06-25T09:17:01Z</time>
      </trkpt>
      <trkpt lat="44.45951" lon="5.89308">
        <ele>1051</ele>
        <time>2019-06-25T09:17:02Z</time>
      </trkpt>
      <trkpt lat="44.45947" lon="5.89322">
        <ele>1051</ele>
        <time>2019-06-25T09:17:03Z</time>
      </trkpt>
      <trkpt lat="44.45944" lon="5.89335">
        <ele>1050</ele>
        <time>2019-06-25T09:17:04Z</time>
      </trkpt>
      <trkpt lat="44.45942" lon="5.89349">
        <ele>1049</ele>
        <time>2019-06-25T09:17:05Z</time>
      </trkpt>
      <trkpt lat="44.4594" lon="5.89363">
        <ele>1048</ele>
        <time>2019-06-25T09:17:06Z</time>
      </trkpt>
      <trkpt lat="44.45939" lon="5.89377">
        <ele>1048</ele>
        <time>2019-06-25T09:17:07Z</time>
      </trkpt>
      <trkpt lat="44.45937" lon="5.89391">
        <ele>1047</ele>
        <time>2019-06-25T09:17:08Z</time>
      </trkpt>
      <trkpt lat="44.45935" lon="5.89406">
        <ele>1046</ele>
        <time>2019-06-25T09:17:09Z</time>
      </trkpt>
      <trkpt lat="44.45931" lon="5.8942">
        <ele>1045</ele>
        <time>2019-06-25T09:17:10Z</time>
      </trkpt>
      <trkpt lat="44.45927" lon="5.89434">
        <ele>1044</ele>
        <time>2019-06-25T09:17:11Z</time>
      </trkpt>
      <trkpt lat="44.45923" lon="5.89448">
        <ele>1044</ele>
        <time>2019-06-25T09:17:12Z</time>
      </trkpt>
      <trkpt lat="44.4592" lon="5.89462">
        <ele>1043</ele>
        <time>2019-06-25T09:17:13Z</time>
      </trkpt>
      <trkpt lat="44.45916" lon="5.89477">
        <ele>1042</ele>
        <time>2019-06-25T09:17:14Z</time>
      </trkpt>
      <trkpt lat="44.45913" lon="5.89492">
        <ele>1042</ele>
        <time>2019-06-25T09:17:15Z</time>
      </trkpt>
      <trkpt lat="44.45911" lon="5.89506">
        <ele>1041</ele>
        <time>2019-06-25T09:17:16Z</time>
      </trkpt>
      <trkpt lat="44.45908" lon="5.89521">
        <ele>1040</ele>
        <time>2019-06-25T09:17:17Z</time>
      </trkpt>
      <trkpt lat="44.45906" lon="5.89536">
        <ele>1040</ele>
        <time>2019-06-25T09:17:18Z</time>
      </trkpt>
      <trkpt lat="44.45903" lon="5.8955">
        <ele>1039</ele>
        <time>2019-06-25T09:17:19Z</time>
      </trkpt>
      <trkpt lat="44.45902" lon="5.89564">
        <ele>1039</ele>
        <time>2019-06-25T09:17:20Z</time>
      </trkpt>
      <trkpt lat="44.459" lon="5.89576">
        <ele>1038</ele>
        <time>2019-06-25T09:17:21Z</time>
      </trkpt>
      <trkpt lat="44.45898" lon="5.89589">
        <ele>1037</ele>
        <time>2019-06-25T09:17:22Z</time>
      </trkpt>
      <trkpt lat="44.45897" lon="5.89601">
        <ele>1037</ele>
        <time>2019-06-25T09:17:24Z</time>
      </trkpt>
      <trkpt lat="44.45895" lon="5.89613">
        <ele>1036</ele>
        <time>2019-06-25T09:17:24Z</time>
      </trkpt>
      <trkpt lat="44.45894" lon="5.89626">
        <ele>1035</ele>
        <time>2019-06-25T09:17:25Z</time>
      </trkpt>
      <trkpt lat="44.45892" lon="5.89637">
        <ele>1034</ele>
        <time>2019-06-25T09:17:27Z</time>
      </trkpt>
      <trkpt lat="44.45889" lon="5.89647">
        <ele>1033</ele>
        <time>2019-06-25T09:17:27Z</time>
      </trkpt>
      <trkpt lat="44.45883" lon="5.89654">
        <ele>1032</ele>
        <time>2019-06-25T09:17:29Z</time>
      </trkpt>
      <trkpt lat="44.45875" lon="5.89661">
        <ele>1031</ele>
        <time>2019-06-25T09:17:30Z</time>
      </trkpt>
      <trkpt lat="44.45868" lon="5.89666">
        <ele>1031</ele>
        <time>2019-06-25T09:17:30Z</time>
      </trkpt>
      <trkpt lat="44.45861" lon="5.89669">
        <ele>1030</ele>
        <time>2019-06-25T09:17:31Z</time>
      </trkpt>
      <trkpt lat="44.45854" lon="5.89671">
        <ele>1029</ele>
        <time>2019-06-25T09:17:33Z</time>
      </trkpt>
      <trkpt lat="44.45845" lon="5.89672">
        <ele>1029</ele>
        <time>2019-06-25T09:17:34Z</time>
      </trkpt>
      <trkpt lat="44.45837" lon="5.89672">
        <ele>1029</ele>
        <time>2019-06-25T09:17:34Z</time>
      </trkpt>
      <trkpt lat="44.45828" lon="5.89672">
        <ele>1028</ele>
        <time>2019-06-25T09:17:35Z</time>
      </trkpt>
      <trkpt lat="44.45818" lon="5.89671">
        <ele>1028</ele>
        <time>2019-06-25T09:17:36Z</time>
      </trkpt>
      <trkpt lat="44.45809" lon="5.89671">
        <ele>1027</ele>
        <time>2019-06-25T09:17:37Z</time>
      </trkpt>
      <trkpt lat="44.45801" lon="5.89672">
        <ele>1027</ele>
        <time>2019-06-25T09:17:39Z</time>
      </trkpt>
      <trkpt lat="44.45793" lon="5.89674">
        <ele>1026</ele>
        <time>2019-06-25T09:17:39Z</time>
      </trkpt>
      <trkpt lat="44.45785" lon="5.89675">
        <ele>1025</ele>
        <time>2019-06-25T09:17:40Z</time>
      </trkpt>
      <trkpt lat="44.45777" lon="5.89673">
        <ele>1025</ele>
        <time>2019-06-25T09:17:41Z</time>
      </trkpt>
      <trkpt lat="44.4577" lon="5.8967">
        <ele>1024</ele>
        <time>2019-06-25T09:17:42Z</time>
      </trkpt>
      <trkpt lat="44.45763" lon="5.89668">
        <ele>1023</ele>
        <time>2019-06-25T09:17:44Z</time>
      </trkpt>
      <trkpt lat="44.45757" lon="5.89669">
        <ele>1023</ele>
        <time>2019-06-25T09:17:44Z</time>
      </trkpt>
      <trkpt lat="44.45752" lon="5.89673">
        <ele>1022</ele>
        <time>2019-06-25T09:17:45Z</time>
      </trkpt>
      <trkpt lat="44.45746" lon="5.89681">
        <ele>1022</ele>
        <time>2019-06-25T09:17:46Z</time>
      </trkpt>
      <trkpt lat="44.4574" lon="5.89688">
        <ele>1022</ele>
        <time>2019-06-25T09:17:47Z</time>
      </trkpt>
      <trkpt lat="44.45733" lon="5.89694">
        <ele>1021</ele>
        <time>2019-06-25T09:17:49Z</time>
      </trkpt>
      <trkpt lat="44.45726" lon="5.897">
        <ele>1021</ele>
        <time>2019-06-25T09:17:49Z</time>
      </trkpt>
      <trkpt lat="44.4572" lon="5.89705">
        <ele>1021</ele>
        <time>2019-06-25T09:17:50Z</time>
      </trkpt>
      <trkpt lat="44.45715" lon="5.89713">
        <ele>1020</ele>
        <time>2019-06-25T09:17:51Z</time>
      </trkpt>
      <trkpt lat="44.45711" lon="5.89722">
        <ele>1020</ele>
        <time>2019-06-25T09:17:52Z</time>
      </trkpt>
      <trkpt lat="44.45705" lon="5.89731">
        <ele>1020</ele>
        <time>2019-06-25T09:17:54Z</time>
      </trkpt>
      <trkpt lat="44.45699" lon="5.89737">
        <ele>1019</ele>
        <time>2019-06-25T09:17:54Z</time>
      </trkpt>
      <trkpt lat="44.45693" lon="5.89742">
        <ele>1019</ele>
        <time>2019-06-25T09:17:55Z</time>
      </trkpt>
      <trkpt lat="44.45686" lon="5.89745">
        <ele>1019</ele>
        <time>2019-06-25T09:17:56Z</time>
      </trkpt>
      <trkpt lat="44.45679" lon="5.89746">
        <ele>1018</ele>
        <time>2019-06-25T09:17:57Z</time>
      </trkpt>
      <trkpt lat="44.45672" lon="5.89743">
        <ele>1018</ele>
        <time>2019-06-25T09:17:58Z</time>
      </trkpt>
      <trkpt lat="44.45665" lon="5.89739">
        <ele>1017</ele>
        <time>2019-06-25T09:17:59Z</time>
      </trkpt>
      <trkpt lat="44.45659" lon="5.89741">
        <ele>1017</ele>
        <time>2019-06-25T09:18:00Z</time>
      </trkpt>
      <trkpt lat="44.45654" lon="5.89744">
        <ele>1016</ele>
        <time>2019-06-25T09:18:01Z</time>
      </trkpt>
      <trkpt lat="44.45649" lon="5.8975">
        <ele>1015</ele>
        <time>2019-06-25T09:18:02Z</time>
      </trkpt>
      <trkpt lat="44.45643" lon="5.89757">
        <ele>1014</ele>
        <time>2019-06-25T09:18:04Z</time>
      </trkpt>
      <trkpt lat="44.45637" lon="5.89765">
        <ele>1014</ele>
        <time>2019-06-25T09:18:04Z</time>
      </trkpt>
      <trkpt lat="44.4563" lon="5.89771">
        <ele>1013</ele>
        <time>2019-06-25T09:18:05Z</time>
      </trkpt>
      <trkpt lat="44.45623" lon="5.89777">
        <ele>1012</ele>
        <time>2019-06-25T09:18:06Z</time>
      </trkpt>
      <trkpt lat="44.45616" lon="5.89782">
        <ele>1011</ele>
        <time>2019-06-25T09:18:07Z</time>
      </trkpt>
      <trkpt lat="44.4561" lon="5.89784">
        <ele>1011</ele>
        <time>2019-06-25T09:18:09Z</time>
      </trkpt>
      <trkpt lat="44.45603" lon="5.89784">
        <ele>1010</ele>
        <time>2019-06-25T09:18:09Z</time>
      </trkpt>
      <trkpt lat="44.45596" lon="5.89782">
        <ele>1010</ele>
        <time>2019-06-25T09:18:10Z</time>
      </trkpt>
      <trkpt lat="44.45591" lon="5.89777">
        <ele>1009</ele>
        <time>2019-06-25T09:18:11Z</time>
      </trkpt>
      <trkpt lat="44.45586" lon="5.89773">
        <ele>1008</ele>
        <time>2019-06-25T09:18:12Z</time>
      </trkpt>
      <trkpt lat="44.45581" lon="5.89771">
        <ele>1008</ele>
        <time>2019-06-25T09:18:13Z</time>
      </trkpt>
      <trkpt lat="44.45577" lon="5.89773">
        <ele>1007</ele>
        <time>2019-06-25T09:18:14Z</time>
      </trkpt>
      <trkpt lat="44.45574" lon="5.89779">
        <ele>1007</ele>
        <time>2019-06-25T09:18:15Z</time>
      </trkpt>
      <trkpt lat="44.45569" lon="5.89787">
        <ele>1007</ele>
        <time>2019-06-25T09:18:16Z</time>
      </trkpt>
      <trkpt lat="44.45563" lon="5.89794">
        <ele>1007</ele>
        <time>2019-06-25T09:18:17Z</time>
      </trkpt>
      <trkpt lat="44.45555" lon="5.898">
        <ele>1007</ele>
        <time>2019-06-25T09:18:19Z</time>
      </trkpt>
      <trkpt lat="44.45547" lon="5.89804">
        <ele>1007</ele>
        <time>2019-06-25T09:18:19Z</time>
      </trkpt>
      <trkpt lat="44.45539" lon="5.89806">
        <ele>1006</ele>
        <time>2019-06-25T09:18:20Z</time>
      </trkpt>
      <trkpt lat="44.4553" lon="5.89809">
        <ele>1006</ele>
        <time>2019-06-25T09:18:21Z</time>
      </trkpt>
      <trkpt lat="44.45522" lon="5.89811">
        <ele>1006</ele>
        <time>2019-06-25T09:18:22Z</time>
      </trkpt>
      <trkpt lat="44.45514" lon="5.89814">
        <ele>1005</ele>
        <time>2019-06-25T09:18:24Z</time>
      </trkpt>
      <trkpt lat="44.45506" lon="5.89819">
        <ele>1004</ele>
        <time>2019-06-25T09:18:24Z</time>
      </trkpt>
      <trkpt lat="44.45498" lon="5.89824">
        <ele>1004</ele>
        <time>2019-06-25T09:18:25Z</time>
      </trkpt>
      <trkpt lat="44.45492" lon="5.89833">
        <ele>1003</ele>
        <time>2019-06-25T09:18:26Z</time>
      </trkpt>
      <trkpt lat="44.45491" lon="5.89843">
        <ele>1002</ele>
        <time>2019-06-25T09:18:27Z</time>
      </trkpt>
      <trkpt lat="44.45493" lon="5.89854">
        <ele>1001</ele>
        <time>2019-06-25T09:18:28Z</time>
      </trkpt>
      <trkpt lat="44.45496" lon="5.89864">
        <ele>1001</ele>
        <time>2019-06-25T09:18:29Z</time>
      </trkpt>
      <trkpt lat="44.455" lon="5.89875">
        <ele>1000</ele>
        <time>2019-06-25T09:18:30Z</time>
      </trkpt>
      <trkpt lat="44.45503" lon="5.89885">
        <ele>1000</ele>
        <time>2019-06-25T09:18:31Z</time>
      </trkpt>
      <trkpt lat="44.45507" lon="5.89895">
        <ele>999</ele>
        <time>2019-06-25T09:18:33Z</time>
      </trkpt>
      <trkpt lat="44.4551" lon="5.89906">
        <ele>998</ele>
        <time>2019-06-25T09:18:34Z</time>
      </trkpt>
      <trkpt lat="44.45512" lon="5.89918">
        <ele>998</ele>
        <time>2019-06-25T09:18:34Z</time>
      </trkpt>
      <trkpt lat="44.45514" lon="5.8993">
        <ele>997</ele>
        <time>2019-06-25T09:18:35Z</time>
      </trkpt>
      <trkpt lat="44.45515" lon="5.89942">
        <ele>997</ele>
        <time>2019-06-25T09:18:36Z</time>
      </trkpt>
      <trkpt lat="44.45516" lon="5.89954">
        <ele>996</ele>
        <time>2019-06-25T09:18:37Z</time>
      </trkpt>
      <trkpt lat="44.45516" lon="5.89966">
        <ele>996</ele>
        <time>2019-06-25T09:18:39Z</time>
      </trkpt>
      <trkpt lat="44.45514" lon="5.89977">
        <ele>996</ele>
        <time>2019-06-25T09:18:39Z</time>
      </trkpt>
      <trkpt lat="44.45512" lon="5.89989">
        <ele>995</ele>
        <time>2019-06-25T09:18:40Z</time>
      </trkpt>
      <trkpt lat="44.45509" lon="5.9">
        <ele>995</ele>
        <time>2019-06-25T09:18:42Z</time>
      </trkpt>
      <trkpt lat="44.45507" lon="5.90012">
        <ele>994</ele>
        <time>2019-06-25T09:18:42Z</time>
      </trkpt>
      <trkpt lat="44.45503" lon="5.90023">
        <ele>993</ele>
        <time>2019-06-25T09:18:44Z</time>
      </trkpt>
      <trkpt lat="44.455" lon="5.90035">
        <ele>993</ele>
        <time>2019-06-25T09:18:45Z</time>
      </trkpt>
      <trkpt lat="44.45497" lon="5.90047">
        <ele>992</ele>
        <time>2019-06-25T09:18:45Z</time>
      </trkpt>
      <trkpt lat="44.45493" lon="5.90058">
        <ele>991</ele>
        <time>2019-06-25T09:18:46Z</time>
      </trkpt>
      <trkpt lat="44.4549" lon="5.9007">
        <ele>991</ele>
        <time>2019-06-25T09:18:47Z</time>
      </trkpt>
      <trkpt lat="44.45486" lon="5.90081">
        <ele>990</ele>
        <time>2019-06-25T09:18:49Z</time>
      </trkpt>
      <trkpt lat="44.45483" lon="5.90092">
        <ele>989</ele>
        <time>2019-06-25T09:18:49Z</time>
      </trkpt>
      <trkpt lat="44.4548" lon="5.90103">
        <ele>989</ele>
        <time>2019-06-25T09:18:50Z</time>
      </trkpt>
      <trkpt lat="44.45476" lon="5.90114">
        <ele>988</ele>
        <time>2019-06-25T09:18:51Z</time>
      </trkpt>
      <trkpt lat="44.45473" lon="5.90124">
        <ele>988</ele>
        <time>2019-06-25T09:18:52Z</time>
      </trkpt>
      <trkpt lat="44.4547" lon="5.90135">
        <ele>987</ele>
        <time>2019-06-25T09:18:54Z</time>
      </trkpt>
      <trkpt lat="44.45467" lon="5.90145">
        <ele>987</ele>
        <time>2019-06-25T09:18:54Z</time>
      </trkpt>
      <trkpt lat="44.45463" lon="5.90155">
        <ele>986</ele>
        <time>2019-06-25T09:18:55Z</time>
      </trkpt>
      <trkpt lat="44.4546" lon="5.90165">
        <ele>985</ele>
        <time>2019-06-25T09:18:56Z</time>
      </trkpt>
      <trkpt lat="44.45456" lon="5.90173">
        <ele>985</ele>
        <time>2019-06-25T09:18:57Z</time>
      </trkpt>
      <trkpt lat="44.45452" lon="5.90181">
        <ele>984</ele>
        <time>2019-06-25T09:18:59Z</time>
      </trkpt>
      <trkpt lat="44.45448" lon="5.9019">
        <ele>983</ele>
        <time>2019-06-25T09:18:59Z</time>
      </trkpt>
      <trkpt lat="44.45444" lon="5.90197">
        <ele>983</ele>
        <time>2019-06-25T09:19:00Z</time>
      </trkpt>
      <trkpt lat="44.45441" lon="5.90204">
        <ele>982</ele>
        <time>2019-06-25T09:19:01Z</time>
      </trkpt>
      <trkpt lat="44.45438" lon="5.9021">
        <ele>982</ele>
        <time>2019-06-25T09:19:02Z</time>
      </trkpt>
      <trkpt lat="44.45436" lon="5.90216">
        <ele>981</ele>
        <time>2019-06-25T09:19:04Z</time>
      </trkpt>
      <trkpt lat="44.45435" lon="5.90221">
        <ele>981</ele>
        <time>2019-06-25T09:19:04Z</time>
      </trkpt>
      <trkpt lat="44.45434" lon="5.90225">
        <ele>980</ele>
        <time>2019-06-25T09:19:05Z</time>
      </trkpt>
      <trkpt lat="44.45435" lon="5.90228">
        <ele>980</ele>
        <time>2019-06-25T09:19:06Z</time>
      </trkpt>
      <trkpt lat="44.45435" lon="5.90232">
        <ele>980</ele>
        <time>2019-06-25T09:19:07Z</time>
      </trkpt>
      <trkpt lat="44.45435" lon="5.90235">
        <ele>980</ele>
        <time>2019-06-25T09:19:09Z</time>
      </trkpt>
      <trkpt lat="44.45435" lon="5.90237">
        <ele>980</ele>
        <time>2019-06-25T09:19:09Z</time>
      </trkpt>
      <trkpt lat="44.45435" lon="5.90239">
        <ele>979</ele>
        <time>2019-06-25T09:19:10Z</time>
      </trkpt>
      <trkpt lat="44.45435" lon="5.90241">
        <ele>979</ele>
        <time>2019-06-25T09:19:11Z</time>
      </trkpt>
      <trkpt lat="44.45435" lon="5.90244">
        <ele>979</ele>
        <time>2019-06-25T09:19:13Z</time>
      </trkpt>
      <trkpt lat="44.45434" lon="5.90248">
        <ele>979</ele>
        <time>2019-06-25T09:19:13Z</time>
      </trkpt>
      <trkpt lat="44.45434" lon="5.90252">
        <ele>979</ele>
        <time>2019-06-25T09:19:15Z</time>
      </trkpt>
      <trkpt lat="44.45434" lon="5.90258">
        <ele>979</ele>
        <time>2019-06-25T09:19:15Z</time>
      </trkpt>
      <trkpt lat="44.45433" lon="5.90265">
        <ele>979</ele>
        <time>2019-06-25T09:19:16Z</time>
      </trkpt>
      <trkpt lat="44.45433" lon="5.90272">
        <ele>979</ele>
        <time>2019-06-25T09:19:17Z</time>
      </trkpt>
      <trkpt lat="44.45432" lon="5.90279">
        <ele>979</ele>
        <time>2019-06-25T09:19:18Z</time>
      </trkpt>
      <trkpt lat="44.45428" lon="5.90286">
        <ele>979</ele>
        <time>2019-06-25T09:19:20Z</time>
      </trkpt>
      <trkpt lat="44.45423" lon="5.90293">
        <ele>979</ele>
        <time>2019-06-25T09:19:20Z</time>
      </trkpt>
      <trkpt lat="44.45416" lon="5.90299">
        <ele>979</ele>
        <time>2019-06-25T09:19:21Z</time>
      </trkpt>
      <trkpt lat="44.45409" lon="5.90304">
        <ele>978</ele>
        <time>2019-06-25T09:19:22Z</time>
      </trkpt>
      <trkpt lat="44.45402" lon="5.90309">
        <ele>978</ele>
        <time>2019-06-25T09:19:23Z</time>
      </trkpt>
      <trkpt lat="44.45393" lon="5.90314">
        <ele>977</ele>
        <time>2019-06-25T09:19:25Z</time>
      </trkpt>
      <trkpt lat="44.45385" lon="5.90319">
        <ele>977</ele>
        <time>2019-06-25T09:19:25Z</time>
      </trkpt>
      <trkpt lat="44.45377" lon="5.90323">
        <ele>976</ele>
        <time>2019-06-25T09:19:26Z</time>
      </trkpt>
      <trkpt lat="44.45367" lon="5.90327">
        <ele>976</ele>
        <time>2019-06-25T09:19:27Z</time>
      </trkpt>
      <trkpt lat="44.45359" lon="5.9033">
        <ele>975</ele>
        <time>2019-06-25T09:19:28Z</time>
      </trkpt>
      <trkpt lat="44.4535" lon="5.90333">
        <ele>974</ele>
        <time>2019-06-25T09:19:30Z</time>
      </trkpt>
      <trkpt lat="44.45341" lon="5.90336">
        <ele>973</ele>
        <time>2019-06-25T09:19:30Z</time>
      </trkpt>
      <trkpt lat="44.45334" lon="5.90337">
        <ele>973</ele>
        <time>2019-06-25T09:19:31Z</time>
      </trkpt>
      <trkpt lat="44.45326" lon="5.90338">
        <ele>972</ele>
        <time>2019-06-25T09:19:33Z</time>
      </trkpt>
      <trkpt lat="44.45319" lon="5.90337">
        <ele>972</ele>
        <time>2019-06-25T09:19:33Z</time>
      </trkpt>
      <trkpt lat="44.45312" lon="5.90334">
        <ele>971</ele>
        <time>2019-06-25T09:19:35Z</time>
      </trkpt>
      <trkpt lat="44.45305" lon="5.90329">
        <ele>971</ele>
        <time>2019-06-25T09:19:35Z</time>
      </trkpt>
      <trkpt lat="44.45298" lon="5.90324">
        <ele>971</ele>
        <time>2019-06-25T09:19:36Z</time>
      </trkpt>
      <trkpt lat="44.45291" lon="5.9032">
        <ele>970</ele>
        <time>2019-06-25T09:19:37Z</time>
      </trkpt>
      <trkpt lat="44.45285" lon="5.90315">
        <ele>969</ele>
        <time>2019-06-25T09:19:38Z</time>
      </trkpt>
      <trkpt lat="44.45279" lon="5.90312">
        <ele>969</ele>
        <time>2019-06-25T09:19:40Z</time>
      </trkpt>
      <trkpt lat="44.45273" lon="5.9031">
        <ele>969</ele>
        <time>2019-06-25T09:19:40Z</time>
      </trkpt>
      <trkpt lat="44.45267" lon="5.90309">
        <ele>969</ele>
        <time>2019-06-25T09:19:41Z</time>
      </trkpt>
      <trkpt lat="44.45262" lon="5.90308">
        <ele>969</ele>
        <time>2019-06-25T09:19:42Z</time>
      </trkpt>
      <trkpt lat="44.45256" lon="5.90307">
        <ele>969</ele>
        <time>2019-06-25T09:19:43Z</time>
      </trkpt>
      <trkpt lat="44.4525" lon="5.90306">
        <ele>969</ele>
        <time>2019-06-25T09:19:45Z</time>
      </trkpt>
      <trkpt lat="44.45243" lon="5.90305">
        <ele>969</ele>
        <time>2019-06-25T09:19:45Z</time>
      </trkpt>
      <trkpt lat="44.45238" lon="5.90304">
        <ele>969</ele>
        <time>2019-06-25T09:19:46Z</time>
      </trkpt>
      <trkpt lat="44.45232" lon="5.90304">
        <ele>969</ele>
        <time>2019-06-25T09:19:47Z</time>
      </trkpt>
      <trkpt lat="44.45225" lon="5.90303">
        <ele>969</ele>
        <time>2019-06-25T09:19:48Z</time>
      </trkpt>
      <trkpt lat="44.45219" lon="5.90302">
        <ele>969</ele>
        <time>2019-06-25T09:19:50Z</time>
      </trkpt>
      <trkpt lat="44.45213" lon="5.90303">
        <ele>969</ele>
        <time>2019-06-25T09:19:50Z</time>
      </trkpt>
      <trkpt lat="44.45208" lon="5.90306">
        <ele>969</ele>
        <time>2019-06-25T09:19:51Z</time>
      </trkpt>
      <trkpt lat="44.45203" lon="5.9031">
        <ele>969</ele>
        <time>2019-06-25T09:19:52Z</time>
      </trkpt>
      <trkpt lat="44.45198" lon="5.90316">
        <ele>969</ele>
        <time>2019-06-25T09:19:53Z</time>
      </trkpt>
      <trkpt lat="44.45194" lon="5.90323">
        <ele>968</ele>
        <time>2019-06-25T09:19:55Z</time>
      </trkpt>
      <trkpt lat="44.45189" lon="5.90331">
        <ele>968</ele>
        <time>2019-06-25T09:19:55Z</time>
      </trkpt>
      <trkpt lat="44.45184" lon="5.9034">
        <ele>967</ele>
        <time>2019-06-25T09:19:56Z</time>
      </trkpt>
      <trkpt lat="44.45179" lon="5.90348">
        <ele>967</ele>
        <time>2019-06-25T09:19:57Z</time>
      </trkpt>
      <trkpt lat="44.45176" lon="5.90357">
        <ele>966</ele>
        <time>2019-06-25T09:19:58Z</time>
      </trkpt>
      <trkpt lat="44.45172" lon="5.90367">
        <ele>965</ele>
        <time>2019-06-25T09:20:00Z</time>
      </trkpt>
      <trkpt lat="44.45168" lon="5.90377">
        <ele>965</ele>
        <time>2019-06-25T09:20:00Z</time>
      </trkpt>
      <trkpt lat="44.45164" lon="5.90387">
        <ele>965</ele>
        <time>2019-06-25T09:20:01Z</time>
      </trkpt>
      <trkpt lat="44.45159" lon="5.90397">
        <ele>964</ele>
        <time>2019-06-25T09:20:02Z</time>
      </trkpt>
      <trkpt lat="44.45155" lon="5.90407">
        <ele>964</ele>
        <time>2019-06-25T09:20:03Z</time>
      </trkpt>
      <trkpt lat="44.45151" lon="5.90417">
        <ele>964</ele>
        <time>2019-06-25T09:20:05Z</time>
      </trkpt>
      <trkpt lat="44.45147" lon="5.90428">
        <ele>964</ele>
        <time>2019-06-25T09:20:05Z</time>
      </trkpt>
      <trkpt lat="44.45142" lon="5.90438">
        <ele>963</ele>
        <time>2019-06-25T09:20:06Z</time>
      </trkpt>
      <trkpt lat="44.45136" lon="5.90446">
        <ele>962</ele>
        <time>2019-06-25T09:20:07Z</time>
      </trkpt>
      <trkpt lat="44.4513" lon="5.90454">
        <ele>962</ele>
        <time>2019-06-25T09:20:08Z</time>
      </trkpt>
      <trkpt lat="44.45123" lon="5.90462">
        <ele>961</ele>
        <time>2019-06-25T09:20:09Z</time>
      </trkpt>
      <trkpt lat="44.45115" lon="5.9047">
        <ele>960</ele>
        <time>2019-06-25T09:20:10Z</time>
      </trkpt>
      <trkpt lat="44.45108" lon="5.90477">
        <ele>959</ele>
        <time>2019-06-25T09:20:11Z</time>
      </trkpt>
      <trkpt lat="44.45099" lon="5.90483">
        <ele>958</ele>
        <time>2019-06-25T09:20:12Z</time>
      </trkpt>
      <trkpt lat="44.4509" lon="5.90487">
        <ele>958</ele>
        <time>2019-06-25T09:20:13Z</time>
      </trkpt>
      <trkpt lat="44.4508" lon="5.90491">
        <ele>957</ele>
        <time>2019-06-25T09:20:14Z</time>
      </trkpt>
      <trkpt lat="44.45071" lon="5.90494">
        <ele>957</ele>
        <time>2019-06-25T09:20:15Z</time>
      </trkpt>
      <trkpt lat="44.45061" lon="5.90497">
        <ele>956</ele>
        <time>2019-06-25T09:20:16Z</time>
      </trkpt>
      <trkpt lat="44.45053" lon="5.90501">
        <ele>956</ele>
        <time>2019-06-25T09:20:17Z</time>
      </trkpt>
      <trkpt lat="44.45045" lon="5.90506">
        <ele>955</ele>
        <time>2019-06-25T09:20:18Z</time>
      </trkpt>
      <trkpt lat="44.45038" lon="5.90513">
        <ele>954</ele>
        <time>2019-06-25T09:20:20Z</time>
      </trkpt>
      <trkpt lat="44.45031" lon="5.90522">
        <ele>954</ele>
        <time>2019-06-25T09:20:20Z</time>
      </trkpt>
      <trkpt lat="44.45025" lon="5.90532">
        <ele>953</ele>
        <time>2019-06-25T09:20:21Z</time>
      </trkpt>
      <trkpt lat="44.45018" lon="5.90543">
        <ele>952</ele>
        <time>2019-06-25T09:20:22Z</time>
      </trkpt>
      <trkpt lat="44.45012" lon="5.90554">
        <ele>952</ele>
        <time>2019-06-25T09:20:23Z</time>
      </trkpt>
      <trkpt lat="44.45005" lon="5.90565">
        <ele>952</ele>
        <time>2019-06-25T09:20:24Z</time>
      </trkpt>
      <trkpt lat="44.44998" lon="5.90576">
        <ele>951</ele>
        <time>2019-06-25T09:20:25Z</time>
      </trkpt>
      <trkpt lat="44.44991" lon="5.90586">
        <ele>951</ele>
        <time>2019-06-25T09:20:26Z</time>
      </trkpt>
      <trkpt lat="44.44984" lon="5.90597">
        <ele>950</ele>
        <time>2019-06-25T09:20:27Z</time>
      </trkpt>
      <trkpt lat="44.44977" lon="5.90608">
        <ele>950</ele>
        <time>2019-06-25T09:20:28Z</time>
      </trkpt>
      <trkpt lat="44.4497" lon="5.90619">
        <ele>949</ele>
        <time>2019-06-25T09:20:29Z</time>
      </trkpt>
      <trkpt lat="44.44962" lon="5.9063">
        <ele>948</ele>
        <time>2019-06-25T09:20:30Z</time>
      </trkpt>
      <trkpt lat="44.44955" lon="5.90641">
        <ele>947</ele>
        <time>2019-06-25T09:20:31Z</time>
      </trkpt>
      <trkpt lat="44.44949" lon="5.90652">
        <ele>947</ele>
        <time>2019-06-25T09:20:33Z</time>
      </trkpt>
      <trkpt lat="44.44942" lon="5.90662">
        <ele>947</ele>
        <time>2019-06-25T09:20:33Z</time>
      </trkpt>
      <trkpt lat="44.44936" lon="5.90671">
        <ele>947</ele>
        <time>2019-06-25T09:20:34Z</time>
      </trkpt>
      <trkpt lat="44.44931" lon="5.90681">
        <ele>947</ele>
        <time>2019-06-25T09:20:35Z</time>
      </trkpt>
      <trkpt lat="44.44925" lon="5.9069">
        <ele>947</ele>
        <time>2019-06-25T09:20:36Z</time>
      </trkpt>
      <trkpt lat="44.4492" lon="5.90698">
        <ele>947</ele>
        <time>2019-06-25T09:20:37Z</time>
      </trkpt>
      <trkpt lat="44.44915" lon="5.90706">
        <ele>947</ele>
        <time>2019-06-25T09:20:38Z</time>
      </trkpt>
      <trkpt lat="44.4491" lon="5.90714">
        <ele>947</ele>
        <time>2019-06-25T09:20:39Z</time>
      </trkpt>
      <trkpt lat="44.44905" lon="5.90722">
        <ele>947</ele>
        <time>2019-06-25T09:20:40Z</time>
      </trkpt>
      <trkpt lat="44.449" lon="5.90729">
        <ele>947</ele>
        <time>2019-06-25T09:20:41Z</time>
      </trkpt>
      <trkpt lat="44.44896" lon="5.90736">
        <ele>947</ele>
        <time>2019-06-25T09:20:42Z</time>
      </trkpt>
      <trkpt lat="44.44891" lon="5.90742">
        <ele>947</ele>
        <time>2019-06-25T09:20:43Z</time>
      </trkpt>
      <trkpt lat="44.44884" lon="5.90744">
        <ele>947</ele>
        <time>2019-06-25T09:20:45Z</time>
      </trkpt>
      <trkpt lat="44.44876" lon="5.90745">
        <ele>947</ele>
        <time>2019-06-25T09:20:45Z</time>
      </trkpt>
      <trkpt lat="44.44869" lon="5.90744">
        <ele>947</ele>
        <time>2019-06-25T09:20:46Z</time>
      </trkpt>
      <trkpt lat="44.44862" lon="5.90741">
        <ele>947</ele>
        <time>2019-06-25T09:20:47Z</time>
      </trkpt>
      <trkpt lat="44.44853" lon="5.9074">
        <ele>946</ele>
        <time>2019-06-25T09:20:48Z</time>
      </trkpt>
      <trkpt lat="44.44845" lon="5.90737">
        <ele>946</ele>
        <time>2019-06-25T09:20:50Z</time>
      </trkpt>
      <trkpt lat="44.44836" lon="5.90734">
        <ele>946</ele>
        <time>2019-06-25T09:20:50Z</time>
      </trkpt>
      <trkpt lat="44.44828" lon="5.90728">
        <ele>945</ele>
        <time>2019-06-25T09:20:51Z</time>
      </trkpt>
      <trkpt lat="44.44821" lon="5.90722">
        <ele>945</ele>
        <time>2019-06-25T09:20:52Z</time>
      </trkpt>
      <trkpt lat="44.44814" lon="5.90718">
        <ele>944</ele>
        <time>2019-06-25T09:20:53Z</time>
      </trkpt>
      <trkpt lat="44.44807" lon="5.90714">
        <ele>943</ele>
        <time>2019-06-25T09:20:54Z</time>
      </trkpt>
      <trkpt lat="44.448" lon="5.90714">
        <ele>942</ele>
        <time>2019-06-25T09:20:55Z</time>
      </trkpt>
      <trkpt lat="44.44793" lon="5.90718">
        <ele>941</ele>
        <time>2019-06-25T09:20:56Z</time>
      </trkpt>
      <trkpt lat="44.44786" lon="5.90724">
        <ele>941</ele>
        <time>2019-06-25T09:20:57Z</time>
      </trkpt>
      <trkpt lat="44.44782" lon="5.90731">
        <ele>940</ele>
        <time>2019-06-25T09:20:58Z</time>
      </trkpt>
      <trkpt lat="44.44781" lon="5.9074">
        <ele>940</ele>
        <time>2019-06-25T09:20:59Z</time>
      </trkpt>
      <trkpt lat="44.44781" lon="5.90749">
        <ele>940</ele>
        <time>2019-06-25T09:21:00Z</time>
      </trkpt>
      <trkpt lat="44.44782" lon="5.90758">
        <ele>940</ele>
        <time>2019-06-25T09:21:01Z</time>
      </trkpt>
      <trkpt lat="44.44783" lon="5.90765">
        <ele>940</ele>
        <time>2019-06-25T09:21:02Z</time>
      </trkpt>
      <trkpt lat="44.44783" lon="5.90772">
        <ele>940</ele>
        <time>2019-06-25T09:21:03Z</time>
      </trkpt>
      <trkpt lat="44.44786" lon="5.90778">
        <ele>940</ele>
        <time>2019-06-25T09:21:04Z</time>
      </trkpt>
      <trkpt lat="44.4479" lon="5.90784">
        <ele>940</ele>
        <time>2019-06-25T09:21:05Z</time>
      </trkpt>
      <trkpt lat="44.44794" lon="5.9079">
        <ele>939</ele>
        <time>2019-06-25T09:21:06Z</time>
      </trkpt>
      <trkpt lat="44.448" lon="5.90795">
        <ele>939</ele>
        <time>2019-06-25T09:21:07Z</time>
      </trkpt>
      <trkpt lat="44.44804" lon="5.908">
        <ele>939</ele>
        <time>2019-06-25T09:21:08Z</time>
      </trkpt>
      <trkpt lat="44.44809" lon="5.90805">
        <ele>939</ele>
        <time>2019-06-25T09:21:09Z</time>
      </trkpt>
      <trkpt lat="44.44814" lon="5.9081">
        <ele>939</ele>
        <time>2019-06-25T09:21:10Z</time>
      </trkpt>
      <trkpt lat="44.44819" lon="5.90816">
        <ele>939</ele>
        <time>2019-06-25T09:21:11Z</time>
      </trkpt>
      <trkpt lat="44.44823" lon="5.90823">
        <ele>939</ele>
        <time>2019-06-25T09:21:12Z</time>
      </trkpt>
      <trkpt lat="44.44826" lon="5.90831">
        <ele>938</ele>
        <time>2019-06-25T09:21:13Z</time>
      </trkpt>
      <trkpt lat="44.44829" lon="5.90839">
        <ele>938</ele>
        <time>2019-06-25T09:21:14Z</time>
      </trkpt>
      <trkpt lat="44.44831" lon="5.90848">
        <ele>938</ele>
        <time>2019-06-25T09:21:15Z</time>
      </trkpt>
      <trkpt lat="44.44833" lon="5.90858">
        <ele>938</ele>
        <time>2019-06-25T09:21:16Z</time>
      </trkpt>
      <trkpt lat="44.44833" lon="5.90868">
        <ele>938</ele>
        <time>2019-06-25T09:21:17Z</time>
      </trkpt>
      <trkpt lat="44.44834" lon="5.90878">
        <ele>937</ele>
        <time>2019-06-25T09:21:18Z</time>
      </trkpt>
      <trkpt lat="44.44835" lon="5.90888">
        <ele>937</ele>
        <time>2019-06-25T09:21:19Z</time>
      </trkpt>
      <trkpt lat="44.44836" lon="5.90899">
        <ele>937</ele>
        <time>2019-06-25T09:21:20Z</time>
      </trkpt>
      <trkpt lat="44.44837" lon="5.90909">
        <ele>936</ele>
        <time>2019-06-25T09:21:21Z</time>
      </trkpt>
      <trkpt lat="44.44838" lon="5.9092">
        <ele>936</ele>
        <time>2019-06-25T09:21:22Z</time>
      </trkpt>
      <trkpt lat="44.44838" lon="5.90932">
        <ele>935</ele>
        <time>2019-06-25T09:21:23Z</time>
      </trkpt>
      <trkpt lat="44.44838" lon="5.90943">
        <ele>935</ele>
        <time>2019-06-25T09:21:25Z</time>
      </trkpt>
      <trkpt lat="44.44836" lon="5.90955">
        <ele>934</ele>
        <time>2019-06-25T09:21:25Z</time>
      </trkpt>
      <trkpt lat="44.44832" lon="5.90966">
        <ele>934</ele>
        <time>2019-06-25T09:21:26Z</time>
      </trkpt>
      <trkpt lat="44.44827" lon="5.90977">
        <ele>933</ele>
        <time>2019-06-25T09:21:27Z</time>
      </trkpt>
      <trkpt lat="44.44821" lon="5.90988">
        <ele>932</ele>
        <time>2019-06-25T09:21:28Z</time>
      </trkpt>
      <trkpt lat="44.44815" lon="5.91">
        <ele>932</ele>
        <time>2019-06-25T09:21:29Z</time>
      </trkpt>
      <trkpt lat="44.44809" lon="5.91011">
        <ele>931</ele>
        <time>2019-06-25T09:21:30Z</time>
      </trkpt>
      <trkpt lat="44.44805" lon="5.91024">
        <ele>930</ele>
        <time>2019-06-25T09:21:31Z</time>
      </trkpt>
      <trkpt lat="44.448" lon="5.91037">
        <ele>929</ele>
        <time>2019-06-25T09:21:33Z</time>
      </trkpt>
      <trkpt lat="44.44795" lon="5.9105">
        <ele>929</ele>
        <time>2019-06-25T09:21:33Z</time>
      </trkpt>
      <trkpt lat="44.4479" lon="5.91064">
        <ele>928</ele>
        <time>2019-06-25T09:21:34Z</time>
      </trkpt>
      <trkpt lat="44.44785" lon="5.91078">
        <ele>927</ele>
        <time>2019-06-25T09:21:35Z</time>
      </trkpt>
      <trkpt lat="44.44779" lon="5.91093">
        <ele>926</ele>
        <time>2019-06-25T09:21:36Z</time>
      </trkpt>
      <trkpt lat="44.44774" lon="5.91107">
        <ele>926</ele>
        <time>2019-06-25T09:21:37Z</time>
      </trkpt>
      <trkpt lat="44.44769" lon="5.91122">
        <ele>925</ele>
        <time>2019-06-25T09:21:38Z</time>
      </trkpt>
      <trkpt lat="44.44763" lon="5.91137">
        <ele>924</ele>
        <time>2019-06-25T09:21:39Z</time>
      </trkpt>
      <trkpt lat="44.44758" lon="5.91152">
        <ele>923</ele>
        <time>2019-06-25T09:21:40Z</time>
      </trkpt>
      <trkpt lat="44.44752" lon="5.91167">
        <ele>922</ele>
        <time>2019-06-25T09:21:41Z</time>
      </trkpt>
      <trkpt lat="44.44746" lon="5.91183">
        <ele>921</ele>
        <time>2019-06-25T09:21:42Z</time>
      </trkpt>
      <trkpt lat="44.44741" lon="5.91198">
        <ele>920</ele>
        <time>2019-06-25T09:21:43Z</time>
      </trkpt>
      <trkpt lat="44.44735" lon="5.91214">
        <ele>919</ele>
        <time>2019-06-25T09:21:44Z</time>
      </trkpt>
      <trkpt lat="44.4473" lon="5.9123">
        <ele>918</ele>
        <time>2019-06-25T09:21:45Z</time>
      </trkpt>
      <trkpt lat="44.44724" lon="5.91245">
        <ele>918</ele>
        <time>2019-06-25T09:21:46Z</time>
      </trkpt>
      <trkpt lat="44.44719" lon="5.91261">
        <ele>917</ele>
        <time>2019-06-25T09:21:47Z</time>
      </trkpt>
      <trkpt lat="44.44713" lon="5.91276">
        <ele>916</ele>
        <time>2019-06-25T09:21:48Z</time>
      </trkpt>
      <trkpt lat="44.44707" lon="5.91291">
        <ele>915</ele>
        <time>2019-06-25T09:21:49Z</time>
      </trkpt>
      <trkpt lat="44.447" lon="5.91304">
        <ele>915</ele>
        <time>2019-06-25T09:21:50Z</time>
      </trkpt>
      <trkpt lat="44.44692" lon="5.91317">
        <ele>914</ele>
        <time>2019-06-25T09:21:51Z</time>
      </trkpt>
      <trkpt lat="44.44683" lon="5.91328">
        <ele>913</ele>
        <time>2019-06-25T09:21:52Z</time>
      </trkpt>
      <trkpt lat="44.44672" lon="5.91338">
        <ele>912</ele>
        <time>2019-06-25T09:21:53Z</time>
      </trkpt>
      <trkpt lat="44.44661" lon="5.91345">
        <ele>911</ele>
        <time>2019-06-25T09:21:54Z</time>
      </trkpt>
      <trkpt lat="44.4465" lon="5.91351">
        <ele>910</ele>
        <time>2019-06-25T09:21:55Z</time>
      </trkpt>
      <trkpt lat="44.44638" lon="5.91356">
        <ele>909</ele>
        <time>2019-06-25T09:21:56Z</time>
      </trkpt>
      <trkpt lat="44.44626" lon="5.9136">
        <ele>909</ele>
        <time>2019-06-25T09:21:57Z</time>
      </trkpt>
      <trkpt lat="44.44614" lon="5.91364">
        <ele>908</ele>
        <time>2019-06-25T09:21:58Z</time>
      </trkpt>
      <trkpt lat="44.44603" lon="5.91368">
        <ele>907</ele>
        <time>2019-06-25T09:21:59Z</time>
      </trkpt>
      <trkpt lat="44.4459" lon="5.91372">
        <ele>906</ele>
        <time>2019-06-25T09:22:00Z</time>
      </trkpt>
      <trkpt lat="44.44579" lon="5.91377">
        <ele>906</ele>
        <time>2019-06-25T09:22:01Z</time>
      </trkpt>
      <trkpt lat="44.44567" lon="5.91382">
        <ele>905</ele>
        <time>2019-06-25T09:22:02Z</time>
      </trkpt>
      <trkpt lat="44.44555" lon="5.91386">
        <ele>904</ele>
        <time>2019-06-25T09:22:03Z</time>
      </trkpt>
      <trkpt lat="44.44543" lon="5.91391">
        <ele>903</ele>
        <time>2019-06-25T09:22:04Z</time>
      </trkpt>
      <trkpt lat="44.44532" lon="5.91395">
        <ele>903</ele>
        <time>2019-06-25T09:22:05Z</time>
      </trkpt>
      <trkpt lat="44.4452" lon="5.91399">
        <ele>902</ele>
        <time>2019-06-25T09:22:06Z</time>
      </trkpt>
      <trkpt lat="44.44508" lon="5.91403">
        <ele>901</ele>
        <time>2019-06-25T09:22:07Z</time>
      </trkpt>
      <trkpt lat="44.44496" lon="5.91407">
        <ele>900</ele>
        <time>2019-06-25T09:22:08Z</time>
      </trkpt>
      <trkpt lat="44.44484" lon="5.91412">
        <ele>900</ele>
        <time>2019-06-25T09:22:09Z</time>
      </trkpt>
      <trkpt lat="44.44472" lon="5.91416">
        <ele>899</ele>
        <time>2019-06-25T09:22:10Z</time>
      </trkpt>
      <trkpt lat="44.4446" lon="5.91421">
        <ele>898</ele>
        <time>2019-06-25T09:22:11Z</time>
      </trkpt>
      <trkpt lat="44.44449" lon="5.91425">
        <ele>897</ele>
        <time>2019-06-25T09:22:12Z</time>
      </trkpt>
      <trkpt lat="44.44437" lon="5.91427">
        <ele>896</ele>
        <time>2019-06-25T09:22:13Z</time>
      </trkpt>
      <trkpt lat="44.44426" lon="5.91428">
        <ele>896</ele>
        <time>2019-06-25T09:22:14Z</time>
      </trkpt>
      <trkpt lat="44.44415" lon="5.91427">
        <ele>895</ele>
        <time>2019-06-25T09:22:15Z</time>
      </trkpt>
      <trkpt lat="44.44404" lon="5.91424">
        <ele>894</ele>
        <time>2019-06-25T09:22:16Z</time>
      </trkpt>
      <trkpt lat="44.44393" lon="5.91421">
        <ele>894</ele>
        <time>2019-06-25T09:22:17Z</time>
      </trkpt>
      <trkpt lat="44.44382" lon="5.91418">
        <ele>893</ele>
        <time>2019-06-25T09:22:18Z</time>
      </trkpt>
      <trkpt lat="44.4437" lon="5.91414">
        <ele>892</ele>
        <time>2019-06-25T09:22:19Z</time>
      </trkpt>
      <trkpt lat="44.44359" lon="5.9141">
        <ele>892</ele>
        <time>2019-06-25T09:22:20Z</time>
      </trkpt>
      <trkpt lat="44.44348" lon="5.91406">
        <ele>891</ele>
        <time>2019-06-25T09:22:21Z</time>
      </trkpt>
      <trkpt lat="44.44336" lon="5.91402">
        <ele>890</ele>
        <time>2019-06-25T09:22:22Z</time>
      </trkpt>
      <trkpt lat="44.44325" lon="5.91398">
        <ele>890</ele>
        <time>2019-06-25T09:22:23Z</time>
      </trkpt>
      <trkpt lat="44.44313" lon="5.91394">
        <ele>889</ele>
        <time>2019-06-25T09:22:24Z</time>
      </trkpt>
      <trkpt lat="44.44302" lon="5.9139">
        <ele>888</ele>
        <time>2019-06-25T09:22:25Z</time>
      </trkpt>
      <trkpt lat="44.4429" lon="5.91386">
        <ele>888</ele>
        <time>2019-06-25T09:22:26Z</time>
      </trkpt>
      <trkpt lat="44.44279" lon="5.91383">
        <ele>887</ele>
        <time>2019-06-25T09:22:27Z</time>
      </trkpt>
      <trkpt lat="44.44268" lon="5.91379">
        <ele>886</ele>
        <time>2019-06-25T09:22:28Z</time>
      </trkpt>
      <trkpt lat="44.44259" lon="5.91375">
        <ele>885</ele>
        <time>2019-06-25T09:22:29Z</time>
      </trkpt>
      <trkpt lat="44.4425" lon="5.91372">
        <ele>885</ele>
        <time>2019-06-25T09:22:30Z</time>
      </trkpt>
      <trkpt lat="44.44243" lon="5.91369">
        <ele>884</ele>
        <time>2019-06-25T09:22:31Z</time>
      </trkpt>
      <trkpt lat="44.44236" lon="5.91367">
        <ele>884</ele>
        <time>2019-06-25T09:22:33Z</time>
      </trkpt>
      <trkpt lat="44.44229" lon="5.91365">
        <ele>883</ele>
        <time>2019-06-25T09:22:33Z</time>
      </trkpt>
      <trkpt lat="44.44223" lon="5.91363">
        <ele>882</ele>
        <time>2019-06-25T09:22:34Z</time>
      </trkpt>
      <trkpt lat="44.44217" lon="5.91361">
        <ele>882</ele>
        <time>2019-06-25T09:22:35Z</time>
      </trkpt>
      <trkpt lat="44.4421" lon="5.9136">
        <ele>882</ele>
        <time>2019-06-25T09:22:36Z</time>
      </trkpt>
      <trkpt lat="44.44204" lon="5.91358">
        <ele>881</ele>
        <time>2019-06-25T09:22:37Z</time>
      </trkpt>
      <trkpt lat="44.44196" lon="5.91357">
        <ele>881</ele>
        <time>2019-06-25T09:22:38Z</time>
      </trkpt>
      <trkpt lat="44.44189" lon="5.91356">
        <ele>881</ele>
        <time>2019-06-25T09:22:39Z</time>
      </trkpt>
      <trkpt lat="44.44181" lon="5.91354">
        <ele>881</ele>
        <time>2019-06-25T09:22:40Z</time>
      </trkpt>
      <trkpt lat="44.44173" lon="5.91353">
        <ele>881</ele>
        <time>2019-06-25T09:22:41Z</time>
      </trkpt>
      <trkpt lat="44.44165" lon="5.91352">
        <ele>881</ele>
        <time>2019-06-25T09:22:42Z</time>
      </trkpt>
      <trkpt lat="44.44158" lon="5.91351">
        <ele>881</ele>
        <time>2019-06-25T09:22:43Z</time>
      </trkpt>
      <trkpt lat="44.44149" lon="5.9135">
        <ele>881</ele>
        <time>2019-06-25T09:22:44Z</time>
      </trkpt>
      <trkpt lat="44.44141" lon="5.91349">
        <ele>881</ele>
        <time>2019-06-25T09:22:45Z</time>
      </trkpt>
      <trkpt lat="44.44133" lon="5.91348">
        <ele>881</ele>
        <time>2019-06-25T09:22:46Z</time>
      </trkpt>
      <trkpt lat="44.44124" lon="5.91347">
        <ele>880</ele>
        <time>2019-06-25T09:22:47Z</time>
      </trkpt>
      <trkpt lat="44.44115" lon="5.91346">
        <ele>880</ele>
        <time>2019-06-25T09:22:48Z</time>
      </trkpt>
      <trkpt lat="44.44106" lon="5.91346">
        <ele>880</ele>
        <time>2019-06-25T09:22:49Z</time>
      </trkpt>
      <trkpt lat="44.44097" lon="5.91347">
        <ele>880</ele>
        <time>2019-06-25T09:22:50Z</time>
      </trkpt>
      <trkpt lat="44.44088" lon="5.91347">
        <ele>879</ele>
        <time>2019-06-25T09:22:51Z</time>
      </trkpt>
      <trkpt lat="44.4408" lon="5.91349">
        <ele>879</ele>
        <time>2019-06-25T09:22:52Z</time>
      </trkpt>
      <trkpt lat="44.44073" lon="5.91353">
        <ele>878</ele>
        <time>2019-06-25T09:22:53Z</time>
      </trkpt>
      <trkpt lat="44.44068" lon="5.91359">
        <ele>878</ele>
        <time>2019-06-25T09:22:54Z</time>
      </trkpt>
      <trkpt lat="44.44063" lon="5.91367">
        <ele>877</ele>
        <time>2019-06-25T09:22:55Z</time>
      </trkpt>
      <trkpt lat="44.44059" lon="5.91375">
        <ele>877</ele>
        <time>2019-06-25T09:22:56Z</time>
      </trkpt>
      <trkpt lat="44.44054" lon="5.91385">
        <ele>876</ele>
        <time>2019-06-25T09:22:57Z</time>
      </trkpt>
      <trkpt lat="44.44049" lon="5.91394">
        <ele>875</ele>
        <time>2019-06-25T09:22:58Z</time>
      </trkpt>
      <trkpt lat="44.44044" lon="5.91403">
        <ele>875</ele>
        <time>2019-06-25T09:22:59Z</time>
      </trkpt>
      <trkpt lat="44.44038" lon="5.91411">
        <ele>875</ele>
        <time>2019-06-25T09:23:00Z</time>
      </trkpt>
      <trkpt lat="44.44032" lon="5.91419">
        <ele>874</ele>
        <time>2019-06-25T09:23:01Z</time>
      </trkpt>
      <trkpt lat="44.44025" lon="5.91427">
        <ele>874</ele>
        <time>2019-06-25T09:23:02Z</time>
      </trkpt>
      <trkpt lat="44.44017" lon="5.91434">
        <ele>873</ele>
        <time>2019-06-25T09:23:03Z</time>
      </trkpt>
      <trkpt lat="44.4401" lon="5.91441">
        <ele>873</ele>
        <time>2019-06-25T09:23:04Z</time>
      </trkpt>
      <trkpt lat="44.44002" lon="5.91448">
        <ele>872</ele>
        <time>2019-06-25T09:23:05Z</time>
      </trkpt>
      <trkpt lat="44.43995" lon="5.91457">
        <ele>872</ele>
        <time>2019-06-25T09:23:06Z</time>
      </trkpt>
      <trkpt lat="44.43988" lon="5.91466">
        <ele>871</ele>
        <time>2019-06-25T09:23:07Z</time>
      </trkpt>
      <trkpt lat="44.43982" lon="5.91476">
        <ele>871</ele>
        <time>2019-06-25T09:23:08Z</time>
      </trkpt>
      <trkpt lat="44.43976" lon="5.91487">
        <ele>870</ele>
        <time>2019-06-25T09:23:09Z</time>
      </trkpt>
      <trkpt lat="44.43971" lon="5.91499">
        <ele>869</ele>
        <time>2019-06-25T09:23:10Z</time>
      </trkpt>
      <trkpt lat="44.43966" lon="5.9151">
        <ele>869</ele>
        <time>2019-06-25T09:23:11Z</time>
      </trkpt>
      <trkpt lat="44.43961" lon="5.91522">
        <ele>868</ele>
        <time>2019-06-25T09:23:12Z</time>
      </trkpt>
      <trkpt lat="44.43956" lon="5.91533">
        <ele>868</ele>
        <time>2019-06-25T09:23:13Z</time>
      </trkpt>
      <trkpt lat="44.4395" lon="5.91544">
        <ele>867</ele>
        <time>2019-06-25T09:23:14Z</time>
      </trkpt>
      <trkpt lat="44.43945" lon="5.91554">
        <ele>866</ele>
        <time>2019-06-25T09:23:15Z</time>
      </trkpt>
      <trkpt lat="44.43939" lon="5.91565">
        <ele>866</ele>
        <time>2019-06-25T09:23:16Z</time>
      </trkpt>
      <trkpt lat="44.43934" lon="5.91576">
        <ele>865</ele>
        <time>2019-06-25T09:23:17Z</time>
      </trkpt>
      <trkpt lat="44.43929" lon="5.91587">
        <ele>864</ele>
        <time>2019-06-25T09:23:18Z</time>
      </trkpt>
      <trkpt lat="44.43923" lon="5.91599">
        <ele>863</ele>
        <time>2019-06-25T09:23:19Z</time>
      </trkpt>
      <trkpt lat="44.43917" lon="5.9161">
        <ele>862</ele>
        <time>2019-06-25T09:23:20Z</time>
      </trkpt>
      <trkpt lat="44.4391" lon="5.91621">
        <ele>861</ele>
        <time>2019-06-25T09:23:21Z</time>
      </trkpt>
      <trkpt lat="44.43903" lon="5.91632">
        <ele>860</ele>
        <time>2019-06-25T09:23:22Z</time>
      </trkpt>
      <trkpt lat="44.43895" lon="5.91641">
        <ele>860</ele>
        <time>2019-06-25T09:23:23Z</time>
      </trkpt>
      <trkpt lat="44.43886" lon="5.9165">
        <ele>859</ele>
        <time>2019-06-25T09:23:24Z</time>
      </trkpt>
      <trkpt lat="44.43877" lon="5.91658">
        <ele>859</ele>
        <time>2019-06-25T09:23:25Z</time>
      </trkpt>
      <trkpt lat="44.43867" lon="5.91666">
        <ele>858</ele>
        <time>2019-06-25T09:23:26Z</time>
      </trkpt>
      <trkpt lat="44.43858" lon="5.91675">
        <ele>857</ele>
        <time>2019-06-25T09:23:27Z</time>
      </trkpt>
      <trkpt lat="44.43848" lon="5.91683">
        <ele>856</ele>
        <time>2019-06-25T09:23:28Z</time>
      </trkpt>
      <trkpt lat="44.43838" lon="5.91691">
        <ele>856</ele>
        <time>2019-06-25T09:23:29Z</time>
      </trkpt>
      <trkpt lat="44.43829" lon="5.917">
        <ele>855</ele>
        <time>2019-06-25T09:23:30Z</time>
      </trkpt>
      <trkpt lat="44.43819" lon="5.91709">
        <ele>854</ele>
        <time>2019-06-25T09:23:31Z</time>
      </trkpt>
      <trkpt lat="44.43809" lon="5.91718">
        <ele>853</ele>
        <time>2019-06-25T09:23:33Z</time>
      </trkpt>
      <trkpt lat="44.43799" lon="5.91727">
        <ele>852</ele>
        <time>2019-06-25T09:23:33Z</time>
      </trkpt>
      <trkpt lat="44.43789" lon="5.91735">
        <ele>851</ele>
        <time>2019-06-25T09:23:34Z</time>
      </trkpt>
      <trkpt lat="44.43779" lon="5.91744">
        <ele>851</ele>
        <time>2019-06-25T09:23:35Z</time>
      </trkpt>
      <trkpt lat="44.43769" lon="5.91751">
        <ele>850</ele>
        <time>2019-06-25T09:23:36Z</time>
      </trkpt>
      <trkpt lat="44.43759" lon="5.91757">
        <ele>849</ele>
        <time>2019-06-25T09:23:37Z</time>
      </trkpt>
      <trkpt lat="44.4375" lon="5.91761">
        <ele>849</ele>
        <time>2019-06-25T09:23:38Z</time>
      </trkpt>
      <trkpt lat="44.43742" lon="5.91766">
        <ele>849</ele>
        <time>2019-06-25T09:23:39Z</time>
      </trkpt>
      <trkpt lat="44.43734" lon="5.91769">
        <ele>848</ele>
        <time>2019-06-25T09:23:40Z</time>
      </trkpt>
      <trkpt lat="44.43728" lon="5.9177">
        <ele>848</ele>
        <time>2019-06-25T09:23:41Z</time>
      </trkpt>
      <trkpt lat="44.43721" lon="5.9177">
        <ele>847</ele>
        <time>2019-06-25T09:23:42Z</time>
      </trkpt>
      <trkpt lat="44.43716" lon="5.91765">
        <ele>847</ele>
        <time>2019-06-25T09:23:43Z</time>
      </trkpt>
      <trkpt lat="44.43713" lon="5.91759">
        <ele>847</ele>
        <time>2019-06-25T09:23:44Z</time>
      </trkpt>
      <trkpt lat="44.43711" lon="5.91752">
        <ele>847</ele>
        <time>2019-06-25T09:23:45Z</time>
      </trkpt>
      <trkpt lat="44.4371" lon="5.91744">
        <ele>847</ele>
        <time>2019-06-25T09:23:46Z</time>
      </trkpt>
      <trkpt lat="44.4371" lon="5.91737">
        <ele>847</ele>
        <time>2019-06-25T09:23:47Z</time>
      </trkpt>
      <trkpt lat="44.43709" lon="5.9173">
        <ele>846</ele>
        <time>2019-06-25T09:23:48Z</time>
      </trkpt>
      <trkpt lat="44.43707" lon="5.91721">
        <ele>846</ele>
        <time>2019-06-25T09:23:49Z</time>
      </trkpt>
      <trkpt lat="44.43704" lon="5.91715">
        <ele>846</ele>
        <time>2019-06-25T09:23:50Z</time>
      </trkpt>
      <trkpt lat="44.437" lon="5.91708">
        <ele>845</ele>
        <time>2019-06-25T09:23:51Z</time>
      </trkpt>
      <trkpt lat="44.43695" lon="5.91705">
        <ele>844</ele>
        <time>2019-06-25T09:23:52Z</time>
      </trkpt>
      <trkpt lat="44.43688" lon="5.9171">
        <ele>844</ele>
        <time>2019-06-25T09:23:53Z</time>
      </trkpt>
      <trkpt lat="44.43682" lon="5.91717">
        <ele>844</ele>
        <time>2019-06-25T09:23:54Z</time>
      </trkpt>
      <trkpt lat="44.43677" lon="5.91725">
        <ele>843</ele>
        <time>2019-06-25T09:23:55Z</time>
      </trkpt>
      <trkpt lat="44.43672" lon="5.91733">
        <ele>843</ele>
        <time>2019-06-25T09:23:56Z</time>
      </trkpt>
      <trkpt lat="44.43668" lon="5.91741">
        <ele>843</ele>
        <time>2019-06-25T09:23:57Z</time>
      </trkpt>
      <trkpt lat="44.43664" lon="5.91749">
        <ele>843</ele>
        <time>2019-06-25T09:23:58Z</time>
      </trkpt>
      <trkpt lat="44.43662" lon="5.91757">
        <ele>843</ele>
        <time>2019-06-25T09:23:59Z</time>
      </trkpt>
      <trkpt lat="44.43659" lon="5.91767">
        <ele>843</ele>
        <time>2019-06-25T09:24:00Z</time>
      </trkpt>
      <trkpt lat="44.43656" lon="5.91775">
        <ele>843</ele>
        <time>2019-06-25T09:24:01Z</time>
      </trkpt>
      <trkpt lat="44.43653" lon="5.91784">
        <ele>843</ele>
        <time>2019-06-25T09:24:02Z</time>
      </trkpt>
      <trkpt lat="44.43652" lon="5.91792">
        <ele>843</ele>
        <time>2019-06-25T09:24:03Z</time>
      </trkpt>
      <trkpt lat="44.43649" lon="5.91798">
        <ele>843</ele>
        <time>2019-06-25T09:24:04Z</time>
      </trkpt>
      <trkpt lat="44.43646" lon="5.91803">
        <ele>842</ele>
        <time>2019-06-25T09:24:05Z</time>
      </trkpt>
      <trkpt lat="44.43641" lon="5.91807">
        <ele>841</ele>
        <time>2019-06-25T09:24:06Z</time>
      </trkpt>
      <trkpt lat="44.43634" lon="5.91808">
        <ele>841</ele>
        <time>2019-06-25T09:24:07Z</time>
      </trkpt>
      <trkpt lat="44.43628" lon="5.91808">
        <ele>840</ele>
        <time>2019-06-25T09:24:08Z</time>
      </trkpt>
      <trkpt lat="44.43623" lon="5.91808">
        <ele>840</ele>
        <time>2019-06-25T09:24:09Z</time>
      </trkpt>
      <trkpt lat="44.43618" lon="5.91808">
        <ele>839</ele>
        <time>2019-06-25T09:24:10Z</time>
      </trkpt>
      <trkpt lat="44.43612" lon="5.91811">
        <ele>839</ele>
        <time>2019-06-25T09:24:11Z</time>
      </trkpt>
      <trkpt lat="44.43606" lon="5.91813">
        <ele>839</ele>
        <time>2019-06-25T09:24:12Z</time>
      </trkpt>
      <trkpt lat="44.436" lon="5.91815">
        <ele>838</ele>
        <time>2019-06-25T09:24:13Z</time>
      </trkpt>
      <trkpt lat="44.43593" lon="5.91817">
        <ele>838</ele>
        <time>2019-06-25T09:24:14Z</time>
      </trkpt>
      <trkpt lat="44.43587" lon="5.91817">
        <ele>838</ele>
        <time>2019-06-25T09:24:15Z</time>
      </trkpt>
      <trkpt lat="44.43582" lon="5.91816">
        <ele>838</ele>
        <time>2019-06-25T09:24:16Z</time>
      </trkpt>
      <trkpt lat="44.43577" lon="5.91814">
        <ele>838</ele>
        <time>2019-06-25T09:24:17Z</time>
      </trkpt>
      <trkpt lat="44.43572" lon="5.91811">
        <ele>838</ele>
        <time>2019-06-25T09:24:18Z</time>
      </trkpt>
      <trkpt lat="44.43566" lon="5.9181">
        <ele>838</ele>
        <time>2019-06-25T09:24:19Z</time>
      </trkpt>
      <trkpt lat="44.4356" lon="5.91808">
        <ele>838</ele>
        <time>2019-06-25T09:24:20Z</time>
      </trkpt>
      <trkpt lat="44.43554" lon="5.91805">
        <ele>838</ele>
        <time>2019-06-25T09:24:21Z</time>
      </trkpt>
      <trkpt lat="44.43549" lon="5.91801">
        <ele>838</ele>
        <time>2019-06-25T09:24:22Z</time>
      </trkpt>
      <trkpt lat="44.43544" lon="5.91797">
        <ele>838</ele>
        <time>2019-06-25T09:24:23Z</time>
      </trkpt>
      <trkpt lat="44.43539" lon="5.91793">
        <ele>838</ele>
        <time>2019-06-25T09:24:24Z</time>
      </trkpt>
      <trkpt lat="44.43533" lon="5.91791">
        <ele>838</ele>
        <time>2019-06-25T09:24:25Z</time>
      </trkpt>
      <trkpt lat="44.43528" lon="5.9179">
        <ele>837</ele>
        <time>2019-06-25T09:24:26Z</time>
      </trkpt>
      <trkpt lat="44.43523" lon="5.91793">
        <ele>836</ele>
        <time>2019-06-25T09:24:27Z</time>
      </trkpt>
      <trkpt lat="44.43521" lon="5.918">
        <ele>836</ele>
        <time>2019-06-25T09:24:28Z</time>
      </trkpt>
      <trkpt lat="44.4352" lon="5.91809">
        <ele>835</ele>
        <time>2019-06-25T09:24:29Z</time>
      </trkpt>
      <trkpt lat="44.43522" lon="5.91818">
        <ele>835</ele>
        <time>2019-06-25T09:24:30Z</time>
      </trkpt>
      <trkpt lat="44.43526" lon="5.91826">
        <ele>834</ele>
        <time>2019-06-25T09:24:31Z</time>
      </trkpt>
      <trkpt lat="44.43526" lon="5.91833">
        <ele>834</ele>
        <time>2019-06-25T09:24:33Z</time>
      </trkpt>
      <trkpt lat="44.43526" lon="5.9184">
        <ele>833</ele>
        <time>2019-06-25T09:24:33Z</time>
      </trkpt>
      <trkpt lat="44.43528" lon="5.91847">
        <ele>833</ele>
        <time>2019-06-25T09:24:34Z</time>
      </trkpt>
      <trkpt lat="44.43528" lon="5.91852">
        <ele>833</ele>
        <time>2019-06-25T09:24:35Z</time>
      </trkpt>
      <trkpt lat="44.43528" lon="5.91857">
        <ele>833</ele>
        <time>2019-06-25T09:24:36Z</time>
      </trkpt>
      <trkpt lat="44.43526" lon="5.91858">
        <ele>833</ele>
        <time>2019-06-25T09:24:37Z</time>
      </trkpt>
      <trkpt lat="44.43521" lon="5.91859">
        <ele>832</ele>
        <time>2019-06-25T09:24:38Z</time>
      </trkpt>
      <trkpt lat="44.43515" lon="5.91859">
        <ele>831</ele>
        <time>2019-06-25T09:24:39Z</time>
      </trkpt>
      <trkpt lat="44.43509" lon="5.9186">
        <ele>830</ele>
        <time>2019-06-25T09:24:40Z</time>
      </trkpt>
      <trkpt lat="44.43504" lon="5.91862">
        <ele>829</ele>
        <time>2019-06-25T09:24:41Z</time>
      </trkpt>
      <trkpt lat="44.435" lon="5.91864">
        <ele>828</ele>
        <time>2019-06-25T09:24:42Z</time>
      </trkpt>
      <trkpt lat="44.43494" lon="5.91868">
        <ele>827</ele>
        <time>2019-06-25T09:24:43Z</time>
      </trkpt>
      <trkpt lat="44.43486" lon="5.91872">
        <ele>826</ele>
        <time>2019-06-25T09:24:44Z</time>
      </trkpt>
      <trkpt lat="44.4348" lon="5.91877">
        <ele>825</ele>
        <time>2019-06-25T09:24:45Z</time>
      </trkpt>
      <trkpt lat="44.43473" lon="5.91883">
        <ele>825</ele>
        <time>2019-06-25T09:24:46Z</time>
      </trkpt>
      <trkpt lat="44.43467" lon="5.91889">
        <ele>825</ele>
        <time>2019-06-25T09:24:47Z</time>
      </trkpt>
      <trkpt lat="44.43461" lon="5.91897">
        <ele>825</ele>
        <time>2019-06-25T09:24:48Z</time>
      </trkpt>
      <trkpt lat="44.43457" lon="5.91906">
        <ele>825</ele>
        <time>2019-06-25T09:24:49Z</time>
      </trkpt>
      <trkpt lat="44.43455" lon="5.91915">
        <ele>825</ele>
        <time>2019-06-25T09:24:50Z</time>
      </trkpt>
      <trkpt lat="44.43452" lon="5.91923">
        <ele>825</ele>
        <time>2019-06-25T09:24:51Z</time>
      </trkpt>
      <trkpt lat="44.4345" lon="5.91929">
        <ele>825</ele>
        <time>2019-06-25T09:24:52Z</time>
      </trkpt>
      <trkpt lat="44.43447" lon="5.91934">
        <ele>824</ele>
        <time>2019-06-25T09:24:53Z</time>
      </trkpt>
      <trkpt lat="44.43444" lon="5.91937">
        <ele>824</ele>
        <time>2019-06-25T09:24:54Z</time>
      </trkpt>
      <trkpt lat="44.43439" lon="5.9194">
        <ele>824</ele>
        <time>2019-06-25T09:24:55Z</time>
      </trkpt>
      <trkpt lat="44.43434" lon="5.91943">
        <ele>823</ele>
        <time>2019-06-25T09:24:56Z</time>
      </trkpt>
      <trkpt lat="44.43428" lon="5.91947">
        <ele>823</ele>
        <time>2019-06-25T09:24:57Z</time>
      </trkpt>
      <trkpt lat="44.43423" lon="5.91951">
        <ele>823</ele>
        <time>2019-06-25T09:24:58Z</time>
      </trkpt>
      <trkpt lat="44.43417" lon="5.91954">
        <ele>822</ele>
        <time>2019-06-25T09:24:59Z</time>
      </trkpt>
      <trkpt lat="44.4341" lon="5.91958">
        <ele>822</ele>
        <time>2019-06-25T09:25:00Z</time>
      </trkpt>
      <trkpt lat="44.43404" lon="5.91962">
        <ele>821</ele>
        <time>2019-06-25T09:25:01Z</time>
      </trkpt>
      <trkpt lat="44.43396" lon="5.91967">
        <ele>821</ele>
        <time>2019-06-25T09:25:02Z</time>
      </trkpt>
      <trkpt lat="44.43389" lon="5.91971">
        <ele>821</ele>
        <time>2019-06-25T09:25:03Z</time>
      </trkpt>
      <trkpt lat="44.43383" lon="5.91975">
        <ele>820</ele>
        <time>2019-06-25T09:25:04Z</time>
      </trkpt>
      <trkpt lat="44.43377" lon="5.91976">
        <ele>820</ele>
        <time>2019-06-25T09:25:05Z</time>
      </trkpt>
      <trkpt lat="44.43371" lon="5.91976">
        <ele>820</ele>
        <time>2019-06-25T09:25:06Z</time>
      </trkpt>
      <trkpt lat="44.43364" lon="5.91973">
        <ele>819</ele>
        <time>2019-06-25T09:25:07Z</time>
      </trkpt>
      <trkpt lat="44.43359" lon="5.91969">
        <ele>819</ele>
        <time>2019-06-25T09:25:08Z</time>
      </trkpt>
      <trkpt lat="44.43353" lon="5.91961">
        <ele>818</ele>
        <time>2019-06-25T09:25:09Z</time>
      </trkpt>
      <trkpt lat="44.43347" lon="5.91953">
        <ele>818</ele>
        <time>2019-06-25T09:25:10Z</time>
      </trkpt>
      <trkpt lat="44.43342" lon="5.91945">
        <ele>818</ele>
        <time>2019-06-25T09:25:11Z</time>
      </trkpt>
      <trkpt lat="44.43336" lon="5.9194">
        <ele>817</ele>
        <time>2019-06-25T09:25:12Z</time>
      </trkpt>
      <trkpt lat="44.43331" lon="5.91938">
        <ele>817</ele>
        <time>2019-06-25T09:25:13Z</time>
      </trkpt>
      <trkpt lat="44.43325" lon="5.9194">
        <ele>817</ele>
        <time>2019-06-25T09:25:14Z</time>
      </trkpt>
      <trkpt lat="44.43319" lon="5.91946">
        <ele>817</ele>
        <time>2019-06-25T09:25:15Z</time>
      </trkpt>
      <trkpt lat="44.43313" lon="5.91952">
        <ele>817</ele>
        <time>2019-06-25T09:25:16Z</time>
      </trkpt>
      <trkpt lat="44.43308" lon="5.91959">
        <ele>817</ele>
        <time>2019-06-25T09:25:17Z</time>
      </trkpt>
      <trkpt lat="44.43303" lon="5.91965">
        <ele>817</ele>
        <time>2019-06-25T09:25:18Z</time>
      </trkpt>
      <trkpt lat="44.43298" lon="5.91972">
        <ele>817</ele>
        <time>2019-06-25T09:25:19Z</time>
      </trkpt>
      <trkpt lat="44.43293" lon="5.9198">
        <ele>817</ele>
        <time>2019-06-25T09:25:20Z</time>
      </trkpt>
      <trkpt lat="44.43289" lon="5.91987">
        <ele>817</ele>
        <time>2019-06-25T09:25:21Z</time>
      </trkpt>
      <trkpt lat="44.43285" lon="5.91994">
        <ele>817</ele>
        <time>2019-06-25T09:25:22Z</time>
      </trkpt>
      <trkpt lat="44.43281" lon="5.92">
        <ele>817</ele>
        <time>2019-06-25T09:25:23Z</time>
      </trkpt>
      <trkpt lat="44.43277" lon="5.92006">
        <ele>817</ele>
        <time>2019-06-25T09:25:24Z</time>
      </trkpt>
      <trkpt lat="44.43274" lon="5.92012">
        <ele>817</ele>
        <time>2019-06-25T09:25:25Z</time>
      </trkpt>
      <trkpt lat="44.4327" lon="5.92018">
        <ele>817</ele>
        <time>2019-06-25T09:25:26Z</time>
      </trkpt>
      <trkpt lat="44.43267" lon="5.92024">
        <ele>817</ele>
        <time>2019-06-25T09:25:27Z</time>
      </trkpt>
      <trkpt lat="44.43264" lon="5.92029">
        <ele>817</ele>
        <time>2019-06-25T09:25:28Z</time>
      </trkpt>
      <trkpt lat="44.4326" lon="5.92036">
        <ele>817</ele>
        <time>2019-06-25T09:25:29Z</time>
      </trkpt>
      <trkpt lat="44.43256" lon="5.92042">
        <ele>817</ele>
        <time>2019-06-25T09:25:30Z</time>
      </trkpt>
      <trkpt lat="44.43252" lon="5.92048">
        <ele>817</ele>
        <time>2019-06-25T09:25:31Z</time>
      </trkpt>
      <trkpt lat="44.43248" lon="5.92055">
        <ele>817</ele>
        <time>2019-06-25T09:25:33Z</time>
      </trkpt>
      <trkpt lat="44.43244" lon="5.92061">
        <ele>817</ele>
        <time>2019-06-25T09:25:33Z</time>
      </trkpt>
      <trkpt lat="44.43239" lon="5.92067">
        <ele>817</ele>
        <time>2019-06-25T09:25:34Z</time>
      </trkpt>
      <trkpt lat="44.43235" lon="5.92075">
        <ele>817</ele>
        <time>2019-06-25T09:25:35Z</time>
      </trkpt>
      <trkpt lat="44.4323" lon="5.92082">
        <ele>817</ele>
        <time>2019-06-25T09:25:36Z</time>
      </trkpt>
      <trkpt lat="44.43226" lon="5.92089">
        <ele>816</ele>
        <time>2019-06-25T09:25:37Z</time>
      </trkpt>
      <trkpt lat="44.43222" lon="5.92096">
        <ele>816</ele>
        <time>2019-06-25T09:25:38Z</time>
      </trkpt>
      <trkpt lat="44.43217" lon="5.92103">
        <ele>816</ele>
        <time>2019-06-25T09:25:39Z</time>
      </trkpt>
      <trkpt lat="44.43213" lon="5.92109">
        <ele>816</ele>
        <time>2019-06-25T09:25:40Z</time>
      </trkpt>
      <trkpt lat="44.43208" lon="5.92116">
        <ele>815</ele>
        <time>2019-06-25T09:25:41Z</time>
      </trkpt>
      <trkpt lat="44.43203" lon="5.92122">
        <ele>815</ele>
        <time>2019-06-25T09:25:42Z</time>
      </trkpt>
      <trkpt lat="44.43198" lon="5.92128">
        <ele>815</ele>
        <time>2019-06-25T09:25:43Z</time>
      </trkpt>
      <trkpt lat="44.43193" lon="5.92133">
        <ele>815</ele>
        <time>2019-06-25T09:25:45Z</time>
      </trkpt>
      <trkpt lat="44.43187" lon="5.92138">
        <ele>815</ele>
        <time>2019-06-25T09:25:45Z</time>
      </trkpt>
      <trkpt lat="44.43182" lon="5.92142">
        <ele>815</ele>
        <time>2019-06-25T09:25:46Z</time>
      </trkpt>
      <trkpt lat="44.43177" lon="5.92146">
        <ele>815</ele>
        <time>2019-06-25T09:25:47Z</time>
      </trkpt>
      <trkpt lat="44.43171" lon="5.92149">
        <ele>815</ele>
        <time>2019-06-25T09:25:48Z</time>
      </trkpt>
      <trkpt lat="44.43165" lon="5.92151">
        <ele>815</ele>
        <time>2019-06-25T09:25:49Z</time>
      </trkpt>
      <trkpt lat="44.43159" lon="5.92153">
        <ele>815</ele>
        <time>2019-06-25T09:25:50Z</time>
      </trkpt>
      <trkpt lat="44.43153" lon="5.92155">
        <ele>815</ele>
        <time>2019-06-25T09:25:51Z</time>
      </trkpt>
      <trkpt lat="44.43147" lon="5.92157">
        <ele>815</ele>
        <time>2019-06-25T09:25:52Z</time>
      </trkpt>
      <trkpt lat="44.43141" lon="5.92157">
        <ele>815</ele>
        <time>2019-06-25T09:25:53Z</time>
      </trkpt>
      <trkpt lat="44.43134" lon="5.92156">
        <ele>815</ele>
        <time>2019-06-25T09:25:54Z</time>
      </trkpt>
      <trkpt lat="44.43128" lon="5.92153">
        <ele>815</ele>
        <time>2019-06-25T09:25:55Z</time>
      </trkpt>
      <trkpt lat="44.43122" lon="5.9215">
        <ele>814</ele>
        <time>2019-06-25T09:25:56Z</time>
      </trkpt>
      <trkpt lat="44.43116" lon="5.92147">
        <ele>814</ele>
        <time>2019-06-25T09:25:57Z</time>
      </trkpt>
      <trkpt lat="44.43109" lon="5.92143">
        <ele>814</ele>
        <time>2019-06-25T09:25:58Z</time>
      </trkpt>
      <trkpt lat="44.43103" lon="5.92141">
        <ele>814</ele>
        <time>2019-06-25T09:25:59Z</time>
      </trkpt>
      <trkpt lat="44.43096" lon="5.92139">
        <ele>814</ele>
        <time>2019-06-25T09:26:00Z</time>
      </trkpt>
      <trkpt lat="44.43089" lon="5.92137">
        <ele>814</ele>
        <time>2019-06-25T09:26:01Z</time>
      </trkpt>
      <trkpt lat="44.43082" lon="5.92136">
        <ele>814</ele>
        <time>2019-06-25T09:26:02Z</time>
      </trkpt>
      <trkpt lat="44.43075" lon="5.92136">
        <ele>814</ele>
        <time>2019-06-25T09:26:03Z</time>
      </trkpt>
      <trkpt lat="44.43068" lon="5.92137">
        <ele>814</ele>
        <time>2019-06-25T09:26:04Z</time>
      </trkpt>
      <trkpt lat="44.43061" lon="5.92139">
        <ele>814</ele>
        <time>2019-06-25T09:26:05Z</time>
      </trkpt>
      <trkpt lat="44.43055" lon="5.9214">
        <ele>814</ele>
        <time>2019-06-25T09:26:06Z</time>
      </trkpt>
      <trkpt lat="44.43048" lon="5.92142">
        <ele>814</ele>
        <time>2019-06-25T09:26:07Z</time>
      </trkpt>
      <trkpt lat="44.43042" lon="5.92144">
        <ele>814</ele>
        <time>2019-06-25T09:26:08Z</time>
      </trkpt>
      <trkpt lat="44.43037" lon="5.92145">
        <ele>814</ele>
        <time>2019-06-25T09:26:09Z</time>
      </trkpt>
      <trkpt lat="44.43031" lon="5.92147">
        <ele>813</ele>
        <time>2019-06-25T09:26:10Z</time>
      </trkpt>
      <trkpt lat="44.43024" lon="5.92148">
        <ele>813</ele>
        <time>2019-06-25T09:26:11Z</time>
      </trkpt>
      <trkpt lat="44.43018" lon="5.9215">
        <ele>813</ele>
        <time>2019-06-25T09:26:12Z</time>
      </trkpt>
      <trkpt lat="44.4301" lon="5.92151">
        <ele>813</ele>
        <time>2019-06-25T09:26:13Z</time>
      </trkpt>
      <trkpt lat="44.43003" lon="5.92153">
        <ele>812</ele>
        <time>2019-06-25T09:26:14Z</time>
      </trkpt>
      <trkpt lat="44.42995" lon="5.92154">
        <ele>812</ele>
        <time>2019-06-25T09:26:15Z</time>
      </trkpt>
      <trkpt lat="44.42987" lon="5.92155">
        <ele>811</ele>
        <time>2019-06-25T09:26:16Z</time>
      </trkpt>
      <trkpt lat="44.42979" lon="5.92155">
        <ele>811</ele>
        <time>2019-06-25T09:26:17Z</time>
      </trkpt>
      <trkpt lat="44.4297" lon="5.92156">
        <ele>810</ele>
        <time>2019-06-25T09:26:18Z</time>
      </trkpt>
      <trkpt lat="44.42961" lon="5.92157">
        <ele>810</ele>
        <time>2019-06-25T09:26:19Z</time>
      </trkpt>
      <trkpt lat="44.42953" lon="5.92159">
        <ele>810</ele>
        <time>2019-06-25T09:26:20Z</time>
      </trkpt>
      <trkpt lat="44.42945" lon="5.9216">
        <ele>809</ele>
        <time>2019-06-25T09:26:21Z</time>
      </trkpt>
      <trkpt lat="44.42937" lon="5.92163">
        <ele>809</ele>
        <time>2019-06-25T09:26:22Z</time>
      </trkpt>
      <trkpt lat="44.4293" lon="5.92166">
        <ele>809</ele>
        <time>2019-06-25T09:26:23Z</time>
      </trkpt>
      <trkpt lat="44.42923" lon="5.9217">
        <ele>809</ele>
        <time>2019-06-25T09:26:24Z</time>
      </trkpt>
      <trkpt lat="44.42917" lon="5.92175">
        <ele>809</ele>
        <time>2019-06-25T09:26:25Z</time>
      </trkpt>
      <trkpt lat="44.42912" lon="5.92179">
        <ele>809</ele>
        <time>2019-06-25T09:26:26Z</time>
      </trkpt>
      <trkpt lat="44.42906" lon="5.92185">
        <ele>808</ele>
        <time>2019-06-25T09:26:27Z</time>
      </trkpt>
      <trkpt lat="44.429" lon="5.92191">
        <ele>808</ele>
        <time>2019-06-25T09:26:28Z</time>
      </trkpt>
      <trkpt lat="44.42894" lon="5.92197">
        <ele>808</ele>
        <time>2019-06-25T09:26:29Z</time>
      </trkpt>
      <trkpt lat="44.42889" lon="5.92203">
        <ele>808</ele>
        <time>2019-06-25T09:26:30Z</time>
      </trkpt>
      <trkpt lat="44.42883" lon="5.9221">
        <ele>808</ele>
        <time>2019-06-25T09:26:31Z</time>
      </trkpt>
      <trkpt lat="44.42877" lon="5.92218">
        <ele>807</ele>
        <time>2019-06-25T09:26:33Z</time>
      </trkpt>
      <trkpt lat="44.42871" lon="5.92226">
        <ele>807</ele>
        <time>2019-06-25T09:26:33Z</time>
      </trkpt>
      <trkpt lat="44.42865" lon="5.92234">
        <ele>807</ele>
        <time>2019-06-25T09:26:34Z</time>
      </trkpt>
      <trkpt lat="44.4286" lon="5.92242">
        <ele>806</ele>
        <time>2019-06-25T09:26:35Z</time>
      </trkpt>
      <trkpt lat="44.42854" lon="5.9225">
        <ele>806</ele>
        <time>2019-06-25T09:26:36Z</time>
      </trkpt>
      <trkpt lat="44.42848" lon="5.92259">
        <ele>806</ele>
        <time>2019-06-25T09:26:37Z</time>
      </trkpt>
      <trkpt lat="44.42842" lon="5.92268">
        <ele>805</ele>
        <time>2019-06-25T09:26:38Z</time>
      </trkpt>
      <trkpt lat="44.42836" lon="5.92277">
        <ele>805</ele>
        <time>2019-06-25T09:26:39Z</time>
      </trkpt>
      <trkpt lat="44.4283" lon="5.92286">
        <ele>804</ele>
        <time>2019-06-25T09:26:40Z</time>
      </trkpt>
      <trkpt lat="44.42824" lon="5.92296">
        <ele>804</ele>
        <time>2019-06-25T09:26:41Z</time>
      </trkpt>
      <trkpt lat="44.42818" lon="5.92306">
        <ele>803</ele>
        <time>2019-06-25T09:26:42Z</time>
      </trkpt>
      <trkpt lat="44.42811" lon="5.92315">
        <ele>803</ele>
        <time>2019-06-25T09:26:43Z</time>
      </trkpt>
      <trkpt lat="44.42804" lon="5.92325">
        <ele>802</ele>
        <time>2019-06-25T09:26:44Z</time>
      </trkpt>
      <trkpt lat="44.42797" lon="5.92334">
        <ele>802</ele>
        <time>2019-06-25T09:26:45Z</time>
      </trkpt>
      <trkpt lat="44.4279" lon="5.92344">
        <ele>801</ele>
        <time>2019-06-25T09:26:46Z</time>
      </trkpt>
      <trkpt lat="44.42783" lon="5.92354">
        <ele>801</ele>
        <time>2019-06-25T09:26:47Z</time>
      </trkpt>
      <trkpt lat="44.42776" lon="5.92364">
        <ele>800</ele>
        <time>2019-06-25T09:26:48Z</time>
      </trkpt>
      <trkpt lat="44.42769" lon="5.92375">
        <ele>799</ele>
        <time>2019-06-25T09:26:49Z</time>
      </trkpt>
      <trkpt lat="44.42762" lon="5.92386">
        <ele>799</ele>
        <time>2019-06-25T09:26:50Z</time>
      </trkpt>
      <trkpt lat="44.42755" lon="5.92397">
        <ele>798</ele>
        <time>2019-06-25T09:26:51Z</time>
      </trkpt>
      <trkpt lat="44.42747" lon="5.92408">
        <ele>797</ele>
        <time>2019-06-25T09:26:52Z</time>
      </trkpt>
      <trkpt lat="44.4274" lon="5.9242">
        <ele>797</ele>
        <time>2019-06-25T09:26:53Z</time>
      </trkpt>
      <trkpt lat="44.42733" lon="5.92432">
        <ele>796</ele>
        <time>2019-06-25T09:26:54Z</time>
      </trkpt>
      <trkpt lat="44.42726" lon="5.92445">
        <ele>795</ele>
        <time>2019-06-25T09:26:55Z</time>
      </trkpt>
      <trkpt lat="44.4272" lon="5.92458">
        <ele>794</ele>
        <time>2019-06-25T09:26:56Z</time>
      </trkpt>
      <trkpt lat="44.42714" lon="5.92472">
        <ele>794</ele>
        <time>2019-06-25T09:26:57Z</time>
      </trkpt>
      <trkpt lat="44.42709" lon="5.92487">
        <ele>793</ele>
        <time>2019-06-25T09:26:58Z</time>
      </trkpt>
      <trkpt lat="44.42704" lon="5.92503">
        <ele>792</ele>
        <time>2019-06-25T09:26:59Z</time>
      </trkpt>
      <trkpt lat="44.42699" lon="5.92519">
        <ele>791</ele>
        <time>2019-06-25T09:27:00Z</time>
      </trkpt>
      <trkpt lat="44.42695" lon="5.92535">
        <ele>790</ele>
        <time>2019-06-25T09:27:01Z</time>
      </trkpt>
      <trkpt lat="44.4269" lon="5.92551">
        <ele>789</ele>
        <time>2019-06-25T09:27:02Z</time>
      </trkpt>
      <trkpt lat="44.42685" lon="5.92567">
        <ele>788</ele>
        <time>2019-06-25T09:27:03Z</time>
      </trkpt>
      <trkpt lat="44.42681" lon="5.92584">
        <ele>787</ele>
        <time>2019-06-25T09:27:04Z</time>
      </trkpt>
      <trkpt lat="44.42675" lon="5.92599">
        <ele>786</ele>
        <time>2019-06-25T09:27:05Z</time>
      </trkpt>
      <trkpt lat="44.42669" lon="5.92614">
        <ele>785</ele>
        <time>2019-06-25T09:27:06Z</time>
      </trkpt>
      <trkpt lat="44.42663" lon="5.92628">
        <ele>784</ele>
        <time>2019-06-25T09:27:07Z</time>
      </trkpt>
      <trkpt lat="44.42656" lon="5.92643">
        <ele>784</ele>
        <time>2019-06-25T09:27:08Z</time>
      </trkpt>
      <trkpt lat="44.42649" lon="5.92657">
        <ele>784</ele>
        <time>2019-06-25T09:27:09Z</time>
      </trkpt>
      <trkpt lat="44.42643" lon="5.92671">
        <ele>783</ele>
        <time>2019-06-25T09:27:10Z</time>
      </trkpt>
      <trkpt lat="44.42638" lon="5.92686">
        <ele>783</ele>
        <time>2019-06-25T09:27:11Z</time>
      </trkpt>
      <trkpt lat="44.42634" lon="5.92702">
        <ele>782</ele>
        <time>2019-06-25T09:27:12Z</time>
      </trkpt>
      <trkpt lat="44.4263" lon="5.92718">
        <ele>781</ele>
        <time>2019-06-25T09:27:13Z</time>
      </trkpt>
      <trkpt lat="44.42627" lon="5.92733">
        <ele>781</ele>
        <time>2019-06-25T09:27:14Z</time>
      </trkpt>
      <trkpt lat="44.42623" lon="5.92749">
        <ele>780</ele>
        <time>2019-06-25T09:27:15Z</time>
      </trkpt>
      <trkpt lat="44.4262" lon="5.92765">
        <ele>780</ele>
        <time>2019-06-25T09:27:16Z</time>
      </trkpt>
      <trkpt lat="44.42617" lon="5.9278">
        <ele>779</ele>
        <time>2019-06-25T09:27:17Z</time>
      </trkpt>
      <trkpt lat="44.42614" lon="5.92796">
        <ele>778</ele>
        <time>2019-06-25T09:27:18Z</time>
      </trkpt>
      <trkpt lat="44.42612" lon="5.92813">
        <ele>778</ele>
        <time>2019-06-25T09:27:19Z</time>
      </trkpt>
      <trkpt lat="44.42609" lon="5.92829">
        <ele>777</ele>
        <time>2019-06-25T09:27:20Z</time>
      </trkpt>
      <trkpt lat="44.42607" lon="5.92845">
        <ele>776</ele>
        <time>2019-06-25T09:27:21Z</time>
      </trkpt>
      <trkpt lat="44.42604" lon="5.92862">
        <ele>776</ele>
        <time>2019-06-25T09:27:22Z</time>
      </trkpt>
      <trkpt lat="44.42602" lon="5.92878">
        <ele>775</ele>
        <time>2019-06-25T09:27:23Z</time>
      </trkpt>
      <trkpt lat="44.42599" lon="5.92894">
        <ele>774</ele>
        <time>2019-06-25T09:27:24Z</time>
      </trkpt>
      <trkpt lat="44.42597" lon="5.9291">
        <ele>773</ele>
        <time>2019-06-25T09:27:25Z</time>
      </trkpt>
      <trkpt lat="44.42594" lon="5.92926">
        <ele>772</ele>
        <time>2019-06-25T09:27:26Z</time>
      </trkpt>
      <trkpt lat="44.42591" lon="5.92942">
        <ele>771</ele>
        <time>2019-06-25T09:27:27Z</time>
      </trkpt>
      <trkpt lat="44.42588" lon="5.92958">
        <ele>770</ele>
        <time>2019-06-25T09:27:28Z</time>
      </trkpt>
      <trkpt lat="44.42585" lon="5.92975">
        <ele>769</ele>
        <time>2019-06-25T09:27:29Z</time>
      </trkpt>
      <trkpt lat="44.42582" lon="5.92992">
        <ele>768</ele>
        <time>2019-06-25T09:27:30Z</time>
      </trkpt>
      <trkpt lat="44.42577" lon="5.93008">
        <ele>767</ele>
        <time>2019-06-25T09:27:31Z</time>
      </trkpt>
      <trkpt lat="44.42572" lon="5.93024">
        <ele>766</ele>
        <time>2019-06-25T09:27:32Z</time>
      </trkpt>
      <trkpt lat="44.42567" lon="5.93041">
        <ele>765</ele>
        <time>2019-06-25T09:27:33Z</time>
      </trkpt>
      <trkpt lat="44.42562" lon="5.93057">
        <ele>764</ele>
        <time>2019-06-25T09:27:34Z</time>
      </trkpt>
      <trkpt lat="44.42557" lon="5.93074">
        <ele>763</ele>
        <time>2019-06-25T09:27:35Z</time>
      </trkpt>
      <trkpt lat="44.42551" lon="5.9309">
        <ele>762</ele>
        <time>2019-06-25T09:27:36Z</time>
      </trkpt>
      <trkpt lat="44.42546" lon="5.93107">
        <ele>761</ele>
        <time>2019-06-25T09:27:37Z</time>
      </trkpt>
      <trkpt lat="44.42541" lon="5.93124">
        <ele>760</ele>
        <time>2019-06-25T09:27:38Z</time>
      </trkpt>
      <trkpt lat="44.42536" lon="5.93141">
        <ele>759</ele>
        <time>2019-06-25T09:27:39Z</time>
      </trkpt>
      <trkpt lat="44.42531" lon="5.93157">
        <ele>758</ele>
        <time>2019-06-25T09:27:40Z</time>
      </trkpt>
      <trkpt lat="44.42527" lon="5.93174">
        <ele>757</ele>
        <time>2019-06-25T09:27:41Z</time>
      </trkpt>
      <trkpt lat="44.42523" lon="5.93191">
        <ele>756</ele>
        <time>2019-06-25T09:27:42Z</time>
      </trkpt>
      <trkpt lat="44.42524" lon="5.93209">
        <ele>755</ele>
        <time>2019-06-25T09:27:43Z</time>
      </trkpt>
      <trkpt lat="44.42523" lon="5.93228">
        <ele>754</ele>
        <time>2019-06-25T09:27:44Z</time>
      </trkpt>
      <trkpt lat="44.42521" lon="5.93246">
        <ele>753</ele>
        <time>2019-06-25T09:27:45Z</time>
      </trkpt>
      <trkpt lat="44.42519" lon="5.93264">
        <ele>752</ele>
        <time>2019-06-25T09:27:46Z</time>
      </trkpt>
      <trkpt lat="44.42516" lon="5.93281">
        <ele>751</ele>
        <time>2019-06-25T09:27:47Z</time>
      </trkpt>
      <trkpt lat="44.42511" lon="5.93298">
        <ele>750</ele>
        <time>2019-06-25T09:27:48Z</time>
      </trkpt>
      <trkpt lat="44.42508" lon="5.93315">
        <ele>749</ele>
        <time>2019-06-25T09:27:49Z</time>
      </trkpt>
      <trkpt lat="44.42506" lon="5.93332">
        <ele>748</ele>
        <time>2019-06-25T09:27:50Z</time>
      </trkpt>
      <trkpt lat="44.42505" lon="5.93349">
        <ele>747</ele>
        <time>2019-06-25T09:27:51Z</time>
      </trkpt>
      <trkpt lat="44.42505" lon="5.93366">
        <ele>746</ele>
        <time>2019-06-25T09:27:52Z</time>
      </trkpt>
      <trkpt lat="44.42506" lon="5.93381">
        <ele>745</ele>
        <time>2019-06-25T09:27:53Z</time>
      </trkpt>
      <trkpt lat="44.42504" lon="5.93395">
        <ele>744</ele>
        <time>2019-06-25T09:27:54Z</time>
      </trkpt>
      <trkpt lat="44.42502" lon="5.93408">
        <ele>743</ele>
        <time>2019-06-25T09:27:55Z</time>
      </trkpt>
      <trkpt lat="44.42499" lon="5.93422">
        <ele>742</ele>
        <time>2019-06-25T09:27:56Z</time>
      </trkpt>
      <trkpt lat="44.42495" lon="5.93433">
        <ele>741</ele>
        <time>2019-06-25T09:27:57Z</time>
      </trkpt>
      <trkpt lat="44.42491" lon="5.93443">
        <ele>740</ele>
        <time>2019-06-25T09:27:58Z</time>
      </trkpt>
      <trkpt lat="44.42484" lon="5.9345">
        <ele>739</ele>
        <time>2019-06-25T09:27:59Z</time>
      </trkpt>
      <trkpt lat="44.42474" lon="5.93454">
        <ele>738</ele>
        <time>2019-06-25T09:28:00Z</time>
      </trkpt>
      <trkpt lat="44.42461" lon="5.93458">
        <ele>736</ele>
        <time>2019-06-25T09:28:01Z</time>
      </trkpt>
      <trkpt lat="44.4245" lon="5.93462">
        <ele>735</ele>
        <time>2019-06-25T09:28:02Z</time>
      </trkpt>
      <trkpt lat="44.42439" lon="5.93468">
        <ele>734</ele>
        <time>2019-06-25T09:28:03Z</time>
      </trkpt>
      <trkpt lat="44.42428" lon="5.93473">
        <ele>733</ele>
        <time>2019-06-25T09:28:04Z</time>
      </trkpt>
      <trkpt lat="44.42417" lon="5.9348">
        <ele>732</ele>
        <time>2019-06-25T09:28:05Z</time>
      </trkpt>
      <trkpt lat="44.42406" lon="5.93486">
        <ele>731</ele>
        <time>2019-06-25T09:28:06Z</time>
      </trkpt>
      <trkpt lat="44.42396" lon="5.93491">
        <ele>730</ele>
        <time>2019-06-25T09:28:07Z</time>
      </trkpt>
      <trkpt lat="44.42386" lon="5.93494">
        <ele>729</ele>
        <time>2019-06-25T09:28:08Z</time>
      </trkpt>
      <trkpt lat="44.42377" lon="5.93493">
        <ele>728</ele>
        <time>2019-06-25T09:28:09Z</time>
      </trkpt>
      <trkpt lat="44.42369" lon="5.93489">
        <ele>727</ele>
        <time>2019-06-25T09:28:10Z</time>
      </trkpt>
      <trkpt lat="44.42363" lon="5.93481">
        <ele>726</ele>
        <time>2019-06-25T09:28:11Z</time>
      </trkpt>
      <trkpt lat="44.42358" lon="5.93471">
        <ele>725</ele>
        <time>2019-06-25T09:28:12Z</time>
      </trkpt>
      <trkpt lat="44.42354" lon="5.93459">
        <ele>724</ele>
        <time>2019-06-25T09:28:13Z</time>
      </trkpt>
      <trkpt lat="44.42349" lon="5.93448">
        <ele>723</ele>
        <time>2019-06-25T09:28:14Z</time>
      </trkpt>
      <trkpt lat="44.42343" lon="5.93438">
        <ele>722</ele>
        <time>2019-06-25T09:28:15Z</time>
      </trkpt>
      <trkpt lat="44.42337" lon="5.93429">
        <ele>721</ele>
        <time>2019-06-25T09:28:16Z</time>
      </trkpt>
      <trkpt lat="44.42331" lon="5.93423">
        <ele>720</ele>
        <time>2019-06-25T09:28:17Z</time>
      </trkpt>
      <trkpt lat="44.42323" lon="5.9342">
        <ele>719</ele>
        <time>2019-06-25T09:28:18Z</time>
      </trkpt>
      <trkpt lat="44.42316" lon="5.9342">
        <ele>718</ele>
        <time>2019-06-25T09:28:19Z</time>
      </trkpt>
      <trkpt lat="44.42308" lon="5.93424">
        <ele>718</ele>
        <time>2019-06-25T09:28:20Z</time>
      </trkpt>
      <trkpt lat="44.42302" lon="5.93428">
        <ele>718</ele>
        <time>2019-06-25T09:28:21Z</time>
      </trkpt>
      <trkpt lat="44.42295" lon="5.93434">
        <ele>718</ele>
        <time>2019-06-25T09:28:22Z</time>
      </trkpt>
      <trkpt lat="44.4229" lon="5.9344">
        <ele>718</ele>
        <time>2019-06-25T09:28:23Z</time>
      </trkpt>
      <trkpt lat="44.42286" lon="5.93449">
        <ele>718</ele>
        <time>2019-06-25T09:28:24Z</time>
      </trkpt>
      <trkpt lat="44.42284" lon="5.93458">
        <ele>718</ele>
        <time>2019-06-25T09:28:25Z</time>
      </trkpt>
      <trkpt lat="44.42283" lon="5.93467">
        <ele>718</ele>
        <time>2019-06-25T09:28:26Z</time>
      </trkpt>
      <trkpt lat="44.4228" lon="5.93475">
        <ele>718</ele>
        <time>2019-06-25T09:28:27Z</time>
      </trkpt>
      <trkpt lat="44.42277" lon="5.93482">
        <ele>718</ele>
        <time>2019-06-25T09:28:28Z</time>
      </trkpt>
      <trkpt lat="44.42272" lon="5.93487">
        <ele>718</ele>
        <time>2019-06-25T09:28:29Z</time>
      </trkpt>
      <trkpt lat="44.42265" lon="5.93491">
        <ele>718</ele>
        <time>2019-06-25T09:28:30Z</time>
      </trkpt>
      <trkpt lat="44.42258" lon="5.93492">
        <ele>718</ele>
        <time>2019-06-25T09:28:31Z</time>
      </trkpt>
      <trkpt lat="44.4225" lon="5.93492">
        <ele>718</ele>
        <time>2019-06-25T09:28:33Z</time>
      </trkpt>
      <trkpt lat="44.42242" lon="5.9349">
        <ele>717</ele>
        <time>2019-06-25T09:28:33Z</time>
      </trkpt>
      <trkpt lat="44.42234" lon="5.93486">
        <ele>717</ele>
        <time>2019-06-25T09:28:34Z</time>
      </trkpt>
      <trkpt lat="44.42227" lon="5.93485">
        <ele>717</ele>
        <time>2019-06-25T09:28:35Z</time>
      </trkpt>
      <trkpt lat="44.42221" lon="5.93487">
        <ele>717</ele>
        <time>2019-06-25T09:28:36Z</time>
      </trkpt>
      <trkpt lat="44.42214" lon="5.93492">
        <ele>716</ele>
        <time>2019-06-25T09:28:37Z</time>
      </trkpt>
      <trkpt lat="44.42208" lon="5.93499">
        <ele>716</ele>
        <time>2019-06-25T09:28:39Z</time>
      </trkpt>
      <trkpt lat="44.42204" lon="5.93506">
        <ele>716</ele>
        <time>2019-06-25T09:28:39Z</time>
      </trkpt>
      <trkpt lat="44.42204" lon="5.93516">
        <ele>715</ele>
        <time>2019-06-25T09:28:40Z</time>
      </trkpt>
      <trkpt lat="44.42204" lon="5.93525">
        <ele>715</ele>
        <time>2019-06-25T09:28:41Z</time>
      </trkpt>
      <trkpt lat="44.42205" lon="5.93535">
        <ele>715</ele>
        <time>2019-06-25T09:28:42Z</time>
      </trkpt>
      <trkpt lat="44.42205" lon="5.93543">
        <ele>715</ele>
        <time>2019-06-25T09:28:43Z</time>
      </trkpt>
      <trkpt lat="44.42207" lon="5.93552">
        <ele>715</ele>
        <time>2019-06-25T09:28:44Z</time>
      </trkpt>
      <trkpt lat="44.42208" lon="5.9356">
        <ele>715</ele>
        <time>2019-06-25T09:28:45Z</time>
      </trkpt>
      <trkpt lat="44.4221" lon="5.93569">
        <ele>715</ele>
        <time>2019-06-25T09:28:46Z</time>
      </trkpt>
      <trkpt lat="44.4221" lon="5.93577">
        <ele>715</ele>
        <time>2019-06-25T09:28:47Z</time>
      </trkpt>
      <trkpt lat="44.42211" lon="5.93586">
        <ele>715</ele>
        <time>2019-06-25T09:28:48Z</time>
      </trkpt>
      <trkpt lat="44.42211" lon="5.93595">
        <ele>715</ele>
        <time>2019-06-25T09:28:49Z</time>
      </trkpt>
      <trkpt lat="44.4221" lon="5.93604">
        <ele>715</ele>
        <time>2019-06-25T09:28:50Z</time>
      </trkpt>
      <trkpt lat="44.42208" lon="5.93612">
        <ele>715</ele>
        <time>2019-06-25T09:28:51Z</time>
      </trkpt>
      <trkpt lat="44.42207" lon="5.93621">
        <ele>715</ele>
        <time>2019-06-25T09:28:52Z</time>
      </trkpt>
      <trkpt lat="44.42205" lon="5.9363">
        <ele>715</ele>
        <time>2019-06-25T09:28:53Z</time>
      </trkpt>
      <trkpt lat="44.42202" lon="5.93638">
        <ele>715</ele>
        <time>2019-06-25T09:28:54Z</time>
      </trkpt>
      <trkpt lat="44.422" lon="5.93646">
        <ele>715</ele>
        <time>2019-06-25T09:28:55Z</time>
      </trkpt>
      <trkpt lat="44.42198" lon="5.93655">
        <ele>715</ele>
        <time>2019-06-25T09:28:56Z</time>
      </trkpt>
      <trkpt lat="44.42196" lon="5.93664">
        <ele>715</ele>
        <time>2019-06-25T09:28:57Z</time>
      </trkpt>
      <trkpt lat="44.42194" lon="5.93673">
        <ele>715</ele>
        <time>2019-06-25T09:28:58Z</time>
      </trkpt>
      <trkpt lat="44.42193" lon="5.93682">
        <ele>715</ele>
        <time>2019-06-25T09:28:59Z</time>
      </trkpt>
      <trkpt lat="44.42191" lon="5.93691">
        <ele>715</ele>
        <time>2019-06-25T09:29:00Z</time>
      </trkpt>
      <trkpt lat="44.42189" lon="5.937">
        <ele>715</ele>
        <time>2019-06-25T09:29:01Z</time>
      </trkpt>
      <trkpt lat="44.42187" lon="5.93709">
        <ele>715</ele>
        <time>2019-06-25T09:29:02Z</time>
      </trkpt>
      <trkpt lat="44.42184" lon="5.93718">
        <ele>715</ele>
        <time>2019-06-25T09:29:03Z</time>
      </trkpt>
      <trkpt lat="44.42182" lon="5.93727">
        <ele>715</ele>
        <time>2019-06-25T09:29:04Z</time>
      </trkpt>
      <trkpt lat="44.4218" lon="5.93737">
        <ele>715</ele>
        <time>2019-06-25T09:29:05Z</time>
      </trkpt>
      <trkpt lat="44.42178" lon="5.93747">
        <ele>715</ele>
        <time>2019-06-25T09:29:06Z</time>
      </trkpt>
      <trkpt lat="44.42175" lon="5.93757">
        <ele>715</ele>
        <time>2019-06-25T09:29:07Z</time>
      </trkpt>
      <trkpt lat="44.42173" lon="5.93767">
        <ele>715</ele>
        <time>2019-06-25T09:29:08Z</time>
      </trkpt>
      <trkpt lat="44.4217" lon="5.93778">
        <ele>714</ele>
        <time>2019-06-25T09:29:09Z</time>
      </trkpt>
      <trkpt lat="44.42168" lon="5.93789">
        <ele>714</ele>
        <time>2019-06-25T09:29:10Z</time>
      </trkpt>
      <trkpt lat="44.42165" lon="5.938">
        <ele>714</ele>
        <time>2019-06-25T09:29:11Z</time>
      </trkpt>
      <trkpt lat="44.42162" lon="5.93811">
        <ele>713</ele>
        <time>2019-06-25T09:29:12Z</time>
      </trkpt>
      <trkpt lat="44.42159" lon="5.93821">
        <ele>713</ele>
        <time>2019-06-25T09:29:13Z</time>
      </trkpt>
      <trkpt lat="44.42156" lon="5.93833">
        <ele>713</ele>
        <time>2019-06-25T09:29:14Z</time>
      </trkpt>
      <trkpt lat="44.42153" lon="5.93844">
        <ele>713</ele>
        <time>2019-06-25T09:29:15Z</time>
      </trkpt>
      <trkpt lat="44.4215" lon="5.93855">
        <ele>712</ele>
        <time>2019-06-25T09:29:16Z</time>
      </trkpt>
      <trkpt lat="44.42146" lon="5.93865">
        <ele>712</ele>
        <time>2019-06-25T09:29:17Z</time>
      </trkpt>
      <trkpt lat="44.42142" lon="5.93876">
        <ele>712</ele>
        <time>2019-06-25T09:29:18Z</time>
      </trkpt>
      <trkpt lat="44.42139" lon="5.93887">
        <ele>712</ele>
        <time>2019-06-25T09:29:19Z</time>
      </trkpt>
      <trkpt lat="44.42136" lon="5.93898">
        <ele>711</ele>
        <time>2019-06-25T09:29:20Z</time>
      </trkpt>
      <trkpt lat="44.42133" lon="5.93909">
        <ele>711</ele>
        <time>2019-06-25T09:29:21Z</time>
      </trkpt>
      <trkpt lat="44.4213" lon="5.9392">
        <ele>711</ele>
        <time>2019-06-25T09:29:22Z</time>
      </trkpt>
      <trkpt lat="44.42127" lon="5.93932">
        <ele>710</ele>
        <time>2019-06-25T09:29:23Z</time>
      </trkpt>
      <trkpt lat="44.42125" lon="5.93944">
        <ele>710</ele>
        <time>2019-06-25T09:29:24Z</time>
      </trkpt>
      <trkpt lat="44.42124" lon="5.93956">
        <ele>709</ele>
        <time>2019-06-25T09:29:25Z</time>
      </trkpt>
      <trkpt lat="44.42122" lon="5.93969">
        <ele>709</ele>
        <time>2019-06-25T09:29:26Z</time>
      </trkpt>
      <trkpt lat="44.42119" lon="5.93981">
        <ele>709</ele>
        <time>2019-06-25T09:29:27Z</time>
      </trkpt>
      <trkpt lat="44.42117" lon="5.93993">
        <ele>709</ele>
        <time>2019-06-25T09:29:28Z</time>
      </trkpt>
      <trkpt lat="44.42114" lon="5.94005">
        <ele>709</ele>
        <time>2019-06-25T09:29:29Z</time>
      </trkpt>
      <trkpt lat="44.42112" lon="5.94017">
        <ele>708</ele>
        <time>2019-06-25T09:29:30Z</time>
      </trkpt>
      <trkpt lat="44.4211" lon="5.94029">
        <ele>708</ele>
        <time>2019-06-25T09:29:31Z</time>
      </trkpt>
      <trkpt lat="44.42108" lon="5.9404">
        <ele>708</ele>
        <time>2019-06-25T09:29:33Z</time>
      </trkpt>
      <trkpt lat="44.42105" lon="5.94052">
        <ele>707</ele>
        <time>2019-06-25T09:29:33Z</time>
      </trkpt>
      <trkpt lat="44.42103" lon="5.94064">
        <ele>707</ele>
        <time>2019-06-25T09:29:34Z</time>
      </trkpt>
      <trkpt lat="44.42101" lon="5.94076">
        <ele>707</ele>
        <time>2019-06-25T09:29:35Z</time>
      </trkpt>
      <trkpt lat="44.421" lon="5.94088">
        <ele>706</ele>
        <time>2019-06-25T09:29:36Z</time>
      </trkpt>
      <trkpt lat="44.42099" lon="5.941">
        <ele>706</ele>
        <time>2019-06-25T09:29:37Z</time>
      </trkpt>
      <trkpt lat="44.42097" lon="5.94112">
        <ele>706</ele>
        <time>2019-06-25T09:29:38Z</time>
      </trkpt>
      <trkpt lat="44.42096" lon="5.94123">
        <ele>705</ele>
        <time>2019-06-25T09:29:39Z</time>
      </trkpt>
      <trkpt lat="44.42094" lon="5.94135">
        <ele>705</ele>
        <time>2019-06-25T09:29:40Z</time>
      </trkpt>
      <trkpt lat="44.42091" lon="5.94147">
        <ele>705</ele>
        <time>2019-06-25T09:29:41Z</time>
      </trkpt>
      <trkpt lat="44.42088" lon="5.94159">
        <ele>704</ele>
        <time>2019-06-25T09:29:42Z</time>
      </trkpt>
      <trkpt lat="44.42086" lon="5.9417">
        <ele>703</ele>
        <time>2019-06-25T09:29:43Z</time>
      </trkpt>
      <trkpt lat="44.42083" lon="5.94182">
        <ele>703</ele>
        <time>2019-06-25T09:29:44Z</time>
      </trkpt>
      <trkpt lat="44.42079" lon="5.94194">
        <ele>703</ele>
        <time>2019-06-25T09:29:45Z</time>
      </trkpt>
      <trkpt lat="44.42075" lon="5.94205">
        <ele>702</ele>
        <time>2019-06-25T09:29:46Z</time>
      </trkpt>
      <trkpt lat="44.4207" lon="5.94215">
        <ele>702</ele>
        <time>2019-06-25T09:29:47Z</time>
      </trkpt>
      <trkpt lat="44.42064" lon="5.94224">
        <ele>701</ele>
        <time>2019-06-25T09:29:48Z</time>
      </trkpt>
      <trkpt lat="44.42056" lon="5.94232">
        <ele>700</ele>
        <time>2019-06-25T09:29:49Z</time>
      </trkpt>
      <trkpt lat="44.42048" lon="5.94237">
        <ele>700</ele>
        <time>2019-06-25T09:29:50Z</time>
      </trkpt>
      <trkpt lat="44.4204" lon="5.94242">
        <ele>699</ele>
        <time>2019-06-25T09:29:51Z</time>
      </trkpt>
      <trkpt lat="44.42031" lon="5.94247">
        <ele>698</ele>
        <time>2019-06-25T09:29:52Z</time>
      </trkpt>
      <trkpt lat="44.42024" lon="5.94254">
        <ele>698</ele>
        <time>2019-06-25T09:29:53Z</time>
      </trkpt>
      <trkpt lat="44.42017" lon="5.94263">
        <ele>698</ele>
        <time>2019-06-25T09:29:54Z</time>
      </trkpt>
      <trkpt lat="44.42011" lon="5.94273">
        <ele>697</ele>
        <time>2019-06-25T09:29:55Z</time>
      </trkpt>
      <trkpt lat="44.42006" lon="5.94282">
        <ele>697</ele>
        <time>2019-06-25T09:29:56Z</time>
      </trkpt>
      <trkpt lat="44.42001" lon="5.9429">
        <ele>696</ele>
        <time>2019-06-25T09:29:57Z</time>
      </trkpt>
      <trkpt lat="44.41997" lon="5.94297">
        <ele>695</ele>
        <time>2019-06-25T09:29:58Z</time>
      </trkpt>
      <trkpt lat="44.41991" lon="5.94301">
        <ele>695</ele>
        <time>2019-06-25T09:29:59Z</time>
      </trkpt>
      <trkpt lat="44.41982" lon="5.94302">
        <ele>694</ele>
        <time>2019-06-25T09:30:00Z</time>
      </trkpt>
      <trkpt lat="44.41973" lon="5.94301">
        <ele>693</ele>
        <time>2019-06-25T09:30:01Z</time>
      </trkpt>
      <trkpt lat="44.41965" lon="5.943">
        <ele>692</ele>
        <time>2019-06-25T09:30:02Z</time>
      </trkpt>
      <trkpt lat="44.41957" lon="5.94302">
        <ele>691</ele>
        <time>2019-06-25T09:30:03Z</time>
      </trkpt>
      <trkpt lat="44.4195" lon="5.94307">
        <ele>690</ele>
        <time>2019-06-25T09:30:04Z</time>
      </trkpt>
      <trkpt lat="44.41942" lon="5.94314">
        <ele>690</ele>
        <time>2019-06-25T09:30:05Z</time>
      </trkpt>
      <trkpt lat="44.41936" lon="5.94321">
        <ele>689</ele>
        <time>2019-06-25T09:30:06Z</time>
      </trkpt>
      <trkpt lat="44.41934" lon="5.94331">
        <ele>689</ele>
        <time>2019-06-25T09:30:07Z</time>
      </trkpt>
      <trkpt lat="44.41933" lon="5.94342">
        <ele>688</ele>
        <time>2019-06-25T09:30:08Z</time>
      </trkpt>
      <trkpt lat="44.41932" lon="5.94354">
        <ele>688</ele>
        <time>2019-06-25T09:30:09Z</time>
      </trkpt>
      <trkpt lat="44.41931" lon="5.94366">
        <ele>687</ele>
        <time>2019-06-25T09:30:10Z</time>
      </trkpt>
      <trkpt lat="44.4193" lon="5.94379">
        <ele>686</ele>
        <time>2019-06-25T09:30:11Z</time>
      </trkpt>
      <trkpt lat="44.41929" lon="5.94391">
        <ele>686</ele>
        <time>2019-06-25T09:30:12Z</time>
      </trkpt>
      <trkpt lat="44.41927" lon="5.94404">
        <ele>685</ele>
        <time>2019-06-25T09:30:13Z</time>
      </trkpt>
      <trkpt lat="44.41925" lon="5.94417">
        <ele>685</ele>
        <time>2019-06-25T09:30:14Z</time>
      </trkpt>
      <trkpt lat="44.41922" lon="5.94428">
        <ele>685</ele>
        <time>2019-06-25T09:30:15Z</time>
      </trkpt>
      <trkpt lat="44.41919" lon="5.94439">
        <ele>684</ele>
        <time>2019-06-25T09:30:16Z</time>
      </trkpt>
      <trkpt lat="44.41916" lon="5.94449">
        <ele>684</ele>
        <time>2019-06-25T09:30:17Z</time>
      </trkpt>
      <trkpt lat="44.41912" lon="5.94459">
        <ele>684</ele>
        <time>2019-06-25T09:30:18Z</time>
      </trkpt>
      <trkpt lat="44.41908" lon="5.94467">
        <ele>683</ele>
        <time>2019-06-25T09:30:19Z</time>
      </trkpt>
      <trkpt lat="44.41903" lon="5.94472">
        <ele>683</ele>
        <time>2019-06-25T09:30:20Z</time>
      </trkpt>
      <trkpt lat="44.41897" lon="5.94475">
        <ele>682</ele>
        <time>2019-06-25T09:30:21Z</time>
      </trkpt>
      <trkpt lat="44.41888" lon="5.94474">
        <ele>681</ele>
        <time>2019-06-25T09:30:22Z</time>
      </trkpt>
      <trkpt lat="44.41882" lon="5.94468">
        <ele>681</ele>
        <time>2019-06-25T09:30:23Z</time>
      </trkpt>
      <trkpt lat="44.41874" lon="5.94464">
        <ele>680</ele>
        <time>2019-06-25T09:30:24Z</time>
      </trkpt>
      <trkpt lat="44.41867" lon="5.94465">
        <ele>679</ele>
        <time>2019-06-25T09:30:25Z</time>
      </trkpt>
      <trkpt lat="44.41859" lon="5.94469">
        <ele>679</ele>
        <time>2019-06-25T09:30:26Z</time>
      </trkpt>
      <trkpt lat="44.41853" lon="5.94476">
        <ele>678</ele>
        <time>2019-06-25T09:30:27Z</time>
      </trkpt>
      <trkpt lat="44.41849" lon="5.94484">
        <ele>678</ele>
        <time>2019-06-25T09:30:28Z</time>
      </trkpt>
      <trkpt lat="44.41844" lon="5.94492">
        <ele>677</ele>
        <time>2019-06-25T09:30:29Z</time>
      </trkpt>
      <trkpt lat="44.4184" lon="5.94499">
        <ele>677</ele>
        <time>2019-06-25T09:30:30Z</time>
      </trkpt>
      <trkpt lat="44.41835" lon="5.94505">
        <ele>676</ele>
        <time>2019-06-25T09:30:31Z</time>
      </trkpt>
      <trkpt lat="44.41828" lon="5.9451">
        <ele>676</ele>
        <time>2019-06-25T09:30:33Z</time>
      </trkpt>
      <trkpt lat="44.41821" lon="5.94513">
        <ele>675</ele>
        <time>2019-06-25T09:30:33Z</time>
      </trkpt>
      <trkpt lat="44.41812" lon="5.94514">
        <ele>674</ele>
        <time>2019-06-25T09:30:34Z</time>
      </trkpt>
      <trkpt lat="44.41803" lon="5.94514">
        <ele>674</ele>
        <time>2019-06-25T09:30:35Z</time>
      </trkpt>
      <trkpt lat="44.41795" lon="5.94514">
        <ele>673</ele>
        <time>2019-06-25T09:30:36Z</time>
      </trkpt>
      <trkpt lat="44.41785" lon="5.94513">
        <ele>673</ele>
        <time>2019-06-25T09:30:37Z</time>
      </trkpt>
      <trkpt lat="44.41776" lon="5.94513">
        <ele>672</ele>
        <time>2019-06-25T09:30:38Z</time>
      </trkpt>
      <trkpt lat="44.41766" lon="5.94513">
        <ele>671</ele>
        <time>2019-06-25T09:30:39Z</time>
      </trkpt>
      <trkpt lat="44.41757" lon="5.94514">
        <ele>671</ele>
        <time>2019-06-25T09:30:40Z</time>
      </trkpt>
      <trkpt lat="44.41747" lon="5.94516">
        <ele>670</ele>
        <time>2019-06-25T09:30:41Z</time>
      </trkpt>
      <trkpt lat="44.41737" lon="5.9452">
        <ele>669</ele>
        <time>2019-06-25T09:30:42Z</time>
      </trkpt>
      <trkpt lat="44.41728" lon="5.94526">
        <ele>669</ele>
        <time>2019-06-25T09:30:43Z</time>
      </trkpt>
      <trkpt lat="44.41719" lon="5.94533">
        <ele>668</ele>
        <time>2019-06-25T09:30:44Z</time>
      </trkpt>
      <trkpt lat="44.41711" lon="5.94543">
        <ele>667</ele>
        <time>2019-06-25T09:30:45Z</time>
      </trkpt>
      <trkpt lat="44.41704" lon="5.94555">
        <ele>666</ele>
        <time>2019-06-25T09:30:46Z</time>
      </trkpt>
      <trkpt lat="44.417" lon="5.94567">
        <ele>666</ele>
        <time>2019-06-25T09:30:47Z</time>
      </trkpt>
      <trkpt lat="44.41698" lon="5.9458">
        <ele>665</ele>
        <time>2019-06-25T09:30:48Z</time>
      </trkpt>
      <trkpt lat="44.417" lon="5.94592">
        <ele>664</ele>
        <time>2019-06-25T09:30:49Z</time>
      </trkpt>
      <trkpt lat="44.41702" lon="5.94606">
        <ele>663</ele>
        <time>2019-06-25T09:30:50Z</time>
      </trkpt>
      <trkpt lat="44.41703" lon="5.94618">
        <ele>663</ele>
        <time>2019-06-25T09:30:51Z</time>
      </trkpt>
      <trkpt lat="44.41704" lon="5.94628">
        <ele>662</ele>
        <time>2019-06-25T09:30:52Z</time>
      </trkpt>
      <trkpt lat="44.41704" lon="5.94639">
        <ele>661</ele>
        <time>2019-06-25T09:30:53Z</time>
      </trkpt>
      <trkpt lat="44.41703" lon="5.94649">
        <ele>661</ele>
        <time>2019-06-25T09:30:54Z</time>
      </trkpt>
      <trkpt lat="44.41701" lon="5.94659">
        <ele>660</ele>
        <time>2019-06-25T09:30:55Z</time>
      </trkpt>
      <trkpt lat="44.41699" lon="5.94669">
        <ele>660</ele>
        <time>2019-06-25T09:30:56Z</time>
      </trkpt>
      <trkpt lat="44.41695" lon="5.94677">
        <ele>659</ele>
        <time>2019-06-25T09:30:57Z</time>
      </trkpt>
      <trkpt lat="44.41688" lon="5.94683">
        <ele>659</ele>
        <time>2019-06-25T09:30:58Z</time>
      </trkpt>
      <trkpt lat="44.41679" lon="5.94688">
        <ele>658</ele>
        <time>2019-06-25T09:30:59Z</time>
      </trkpt>
      <trkpt lat="44.41671" lon="5.94693">
        <ele>658</ele>
        <time>2019-06-25T09:31:00Z</time>
      </trkpt>
      <trkpt lat="44.41664" lon="5.94699">
        <ele>657</ele>
        <time>2019-06-25T09:31:01Z</time>
      </trkpt>
      <trkpt lat="44.41656" lon="5.94707">
        <ele>657</ele>
        <time>2019-06-25T09:31:02Z</time>
      </trkpt>
      <trkpt lat="44.41648" lon="5.94715">
        <ele>656</ele>
        <time>2019-06-25T09:31:03Z</time>
      </trkpt>
      <trkpt lat="44.41641" lon="5.94723">
        <ele>656</ele>
        <time>2019-06-25T09:31:04Z</time>
      </trkpt>
      <trkpt lat="44.41634" lon="5.94732">
        <ele>655</ele>
        <time>2019-06-25T09:31:05Z</time>
      </trkpt>
      <trkpt lat="44.41626" lon="5.94739">
        <ele>654</ele>
        <time>2019-06-25T09:31:06Z</time>
      </trkpt>
      <trkpt lat="44.41618" lon="5.94744">
        <ele>654</ele>
        <time>2019-06-25T09:31:07Z</time>
      </trkpt>
      <trkpt lat="44.41609" lon="5.94749">
        <ele>653</ele>
        <time>2019-06-25T09:31:08Z</time>
      </trkpt>
      <trkpt lat="44.416" lon="5.94753">
        <ele>652</ele>
        <time>2019-06-25T09:31:09Z</time>
      </trkpt>
      <trkpt lat="44.41591" lon="5.94758">
        <ele>651</ele>
        <time>2019-06-25T09:31:10Z</time>
      </trkpt>
      <trkpt lat="44.41581" lon="5.94764">
        <ele>651</ele>
        <time>2019-06-25T09:31:11Z</time>
      </trkpt>
      <trkpt lat="44.41572" lon="5.94771">
        <ele>650</ele>
        <time>2019-06-25T09:31:12Z</time>
      </trkpt>
      <trkpt lat="44.41563" lon="5.94778">
        <ele>649</ele>
        <time>2019-06-25T09:31:13Z</time>
      </trkpt>
      <trkpt lat="44.41553" lon="5.94785">
        <ele>649</ele>
        <time>2019-06-25T09:31:14Z</time>
      </trkpt>
      <trkpt lat="44.41544" lon="5.94792">
        <ele>648</ele>
        <time>2019-06-25T09:31:15Z</time>
      </trkpt>
      <trkpt lat="44.41536" lon="5.94799">
        <ele>648</ele>
        <time>2019-06-25T09:31:16Z</time>
      </trkpt>
      <trkpt lat="44.41527" lon="5.94803">
        <ele>647</ele>
        <time>2019-06-25T09:31:17Z</time>
      </trkpt>
      <trkpt lat="44.41518" lon="5.94806">
        <ele>646</ele>
        <time>2019-06-25T09:31:18Z</time>
      </trkpt>
      <trkpt lat="44.41508" lon="5.94807">
        <ele>645</ele>
        <time>2019-06-25T09:31:19Z</time>
      </trkpt>
      <trkpt lat="44.41498" lon="5.94805">
        <ele>645</ele>
        <time>2019-06-25T09:31:20Z</time>
      </trkpt>
      <trkpt lat="44.41488" lon="5.94804">
        <ele>644</ele>
        <time>2019-06-25T09:31:21Z</time>
      </trkpt>
      <trkpt lat="44.41479" lon="5.94804">
        <ele>643</ele>
        <time>2019-06-25T09:31:22Z</time>
      </trkpt>
      <trkpt lat="44.41471" lon="5.94806">
        <ele>643</ele>
        <time>2019-06-25T09:31:23Z</time>
      </trkpt>
      <trkpt lat="44.41464" lon="5.9481">
        <ele>642</ele>
        <time>2019-06-25T09:31:24Z</time>
      </trkpt>
      <trkpt lat="44.41458" lon="5.94817">
        <ele>641</ele>
        <time>2019-06-25T09:31:25Z</time>
      </trkpt>
      <trkpt lat="44.41455" lon="5.94825">
        <ele>641</ele>
        <time>2019-06-25T09:31:26Z</time>
      </trkpt>
      <trkpt lat="44.41455" lon="5.94834">
        <ele>640</ele>
        <time>2019-06-25T09:31:27Z</time>
      </trkpt>
      <trkpt lat="44.41456" lon="5.94842">
        <ele>640</ele>
        <time>2019-06-25T09:31:28Z</time>
      </trkpt>
      <trkpt lat="44.41461" lon="5.94849">
        <ele>639</ele>
        <time>2019-06-25T09:31:29Z</time>
      </trkpt>
      <trkpt lat="44.41468" lon="5.94856">
        <ele>638</ele>
        <time>2019-06-25T09:31:30Z</time>
      </trkpt>
      <trkpt lat="44.41472" lon="5.94864">
        <ele>638</ele>
        <time>2019-06-25T09:31:31Z</time>
      </trkpt>
      <trkpt lat="44.41476" lon="5.94872">
        <ele>637</ele>
        <time>2019-06-25T09:31:33Z</time>
      </trkpt>
      <trkpt lat="44.41479" lon="5.94881">
        <ele>636</ele>
        <time>2019-06-25T09:31:33Z</time>
      </trkpt>
      <trkpt lat="44.41482" lon="5.9489">
        <ele>635</ele>
        <time>2019-06-25T09:31:34Z</time>
      </trkpt>
      <trkpt lat="44.41484" lon="5.949">
        <ele>635</ele>
        <time>2019-06-25T09:31:35Z</time>
      </trkpt>
      <trkpt lat="44.41484" lon="5.94909">
        <ele>635</ele>
        <time>2019-06-25T09:31:36Z</time>
      </trkpt>
      <trkpt lat="44.41484" lon="5.94919">
        <ele>635</ele>
        <time>2019-06-25T09:31:37Z</time>
      </trkpt>
      <trkpt lat="44.41483" lon="5.94929">
        <ele>635</ele>
        <time>2019-06-25T09:31:38Z</time>
      </trkpt>
      <trkpt lat="44.41481" lon="5.94938">
        <ele>634</ele>
        <time>2019-06-25T09:31:39Z</time>
      </trkpt>
      <trkpt lat="44.41479" lon="5.94948">
        <ele>634</ele>
        <time>2019-06-25T09:31:40Z</time>
      </trkpt>
      <trkpt lat="44.41477" lon="5.94958">
        <ele>634</ele>
        <time>2019-06-25T09:31:41Z</time>
      </trkpt>
      <trkpt lat="44.41475" lon="5.94968">
        <ele>634</ele>
        <time>2019-06-25T09:31:42Z</time>
      </trkpt>
      <trkpt lat="44.41473" lon="5.94977">
        <ele>634</ele>
        <time>2019-06-25T09:31:43Z</time>
      </trkpt>
      <trkpt lat="44.41471" lon="5.94986">
        <ele>633</ele>
        <time>2019-06-25T09:31:44Z</time>
      </trkpt>
      <trkpt lat="44.4147" lon="5.94995">
        <ele>633</ele>
        <time>2019-06-25T09:31:45Z</time>
      </trkpt>
      <trkpt lat="44.41467" lon="5.95004">
        <ele>633</ele>
        <time>2019-06-25T09:31:46Z</time>
      </trkpt>
      <trkpt lat="44.41465" lon="5.95012">
        <ele>633</ele>
        <time>2019-06-25T09:31:47Z</time>
      </trkpt>
      <trkpt lat="44.41462" lon="5.95018">
        <ele>633</ele>
        <time>2019-06-25T09:31:48Z</time>
      </trkpt>
      <trkpt lat="44.41459" lon="5.95022">
        <ele>632</ele>
        <time>2019-06-25T09:31:49Z</time>
      </trkpt>
      <trkpt lat="44.41455" lon="5.95024">
        <ele>632</ele>
        <time>2019-06-25T09:31:50Z</time>
      </trkpt>
      <trkpt lat="44.4145" lon="5.95024">
        <ele>632</ele>
        <time>2019-06-25T09:31:51Z</time>
      </trkpt>
      <trkpt lat="44.41444" lon="5.95023">
        <ele>632</ele>
        <time>2019-06-25T09:31:52Z</time>
      </trkpt>
      <trkpt lat="44.41439" lon="5.95022">
        <ele>632</ele>
        <time>2019-06-25T09:31:53Z</time>
      </trkpt>
      <trkpt lat="44.41434" lon="5.95022">
        <ele>632</ele>
        <time>2019-06-25T09:31:54Z</time>
      </trkpt>
      <trkpt lat="44.4143" lon="5.95021">
        <ele>632</ele>
        <time>2019-06-25T09:31:55Z</time>
      </trkpt>
      <trkpt lat="44.41425" lon="5.9502">
        <ele>632</ele>
        <time>2019-06-25T09:31:56Z</time>
      </trkpt>
      <trkpt lat="44.4142" lon="5.9502">
        <ele>632</ele>
        <time>2019-06-25T09:31:57Z</time>
      </trkpt>
      <trkpt lat="44.41415" lon="5.95019">
        <ele>632</ele>
        <time>2019-06-25T09:31:58Z</time>
      </trkpt>
      <trkpt lat="44.4141" lon="5.95019">
        <ele>632</ele>
        <time>2019-06-25T09:31:59Z</time>
      </trkpt>
      <trkpt lat="44.41406" lon="5.95018">
        <ele>632</ele>
        <time>2019-06-25T09:32:00Z</time>
      </trkpt>
      <trkpt lat="44.41402" lon="5.95018">
        <ele>632</ele>
        <time>2019-06-25T09:32:01Z</time>
      </trkpt>
      <trkpt lat="44.41397" lon="5.95017">
        <ele>632</ele>
        <time>2019-06-25T09:32:02Z</time>
      </trkpt>
      <trkpt lat="44.41393" lon="5.95017">
        <ele>632</ele>
        <time>2019-06-25T09:32:03Z</time>
      </trkpt>
      <trkpt lat="44.41389" lon="5.95017">
        <ele>632</ele>
        <time>2019-06-25T09:32:04Z</time>
      </trkpt>
      <trkpt lat="44.41384" lon="5.95016">
        <ele>632</ele>
        <time>2019-06-25T09:32:05Z</time>
      </trkpt>
      <trkpt lat="44.4138" lon="5.95016">
        <ele>632</ele>
        <time>2019-06-25T09:32:06Z</time>
      </trkpt>
      <trkpt lat="44.41376" lon="5.95016">
        <ele>632</ele>
        <time>2019-06-25T09:32:07Z</time>
      </trkpt>
      <trkpt lat="44.41372" lon="5.95017">
        <ele>632</ele>
        <time>2019-06-25T09:32:08Z</time>
      </trkpt>
      <trkpt lat="44.41368" lon="5.95017">
        <ele>632</ele>
        <time>2019-06-25T09:32:09Z</time>
      </trkpt>
      <trkpt lat="44.41364" lon="5.95018">
        <ele>632</ele>
        <time>2019-06-25T09:32:10Z</time>
      </trkpt>
      <trkpt lat="44.41359" lon="5.95019">
        <ele>632</ele>
        <time>2019-06-25T09:32:11Z</time>
      </trkpt>
      <trkpt lat="44.41355" lon="5.9502">
        <ele>632</ele>
        <time>2019-06-25T09:32:12Z</time>
      </trkpt>
      <trkpt lat="44.41351" lon="5.95021">
        <ele>632</ele>
        <time>2019-06-25T09:32:13Z</time>
      </trkpt>
      <trkpt lat="44.41347" lon="5.95023">
        <ele>632</ele>
        <time>2019-06-25T09:32:15Z</time>
      </trkpt>
      <trkpt lat="44.41343" lon="5.95024">
        <ele>632</ele>
        <time>2019-06-25T09:32:15Z</time>
      </trkpt>
      <trkpt lat="44.41339" lon="5.95025">
        <ele>632</ele>
        <time>2019-06-25T09:32:16Z</time>
      </trkpt>
      <trkpt lat="44.41335" lon="5.95027">
        <ele>632</ele>
        <time>2019-06-25T09:32:17Z</time>
      </trkpt>
      <trkpt lat="44.4133" lon="5.95029">
        <ele>632</ele>
        <time>2019-06-25T09:32:18Z</time>
      </trkpt>
      <trkpt lat="44.41326" lon="5.95031">
        <ele>632</ele>
        <time>2019-06-25T09:32:19Z</time>
      </trkpt>
      <trkpt lat="44.41322" lon="5.95033">
        <ele>632</ele>
        <time>2019-06-25T09:32:20Z</time>
      </trkpt>
      <trkpt lat="44.41318" lon="5.95036">
        <ele>632</ele>
        <time>2019-06-25T09:32:21Z</time>
      </trkpt>
      <trkpt lat="44.41314" lon="5.95038">
        <ele>632</ele>
        <time>2019-06-25T09:32:22Z</time>
      </trkpt>
      <trkpt lat="44.41309" lon="5.9504">
        <ele>632</ele>
        <time>2019-06-25T09:32:23Z</time>
      </trkpt>
      <trkpt lat="44.41305" lon="5.95042">
        <ele>632</ele>
        <time>2019-06-25T09:32:24Z</time>
      </trkpt>
      <trkpt lat="44.41301" lon="5.95044">
        <ele>632</ele>
        <time>2019-06-25T09:32:25Z</time>
      </trkpt>
      <trkpt lat="44.41296" lon="5.95045">
        <ele>632</ele>
        <time>2019-06-25T09:32:26Z</time>
      </trkpt>
      <trkpt lat="44.41292" lon="5.95047">
        <ele>632</ele>
        <time>2019-06-25T09:32:27Z</time>
      </trkpt>
      <trkpt lat="44.41288" lon="5.95049">
        <ele>632</ele>
        <time>2019-06-25T09:32:28Z</time>
      </trkpt>
      <trkpt lat="44.41283" lon="5.95051">
        <ele>632</ele>
        <time>2019-06-25T09:32:29Z</time>
      </trkpt>
      <trkpt lat="44.41279" lon="5.95052">
        <ele>632</ele>
        <time>2019-06-25T09:32:30Z</time>
      </trkpt>
      <trkpt lat="44.41274" lon="5.95053">
        <ele>632</ele>
        <time>2019-06-25T09:32:31Z</time>
      </trkpt>
      <trkpt lat="44.4127" lon="5.95055">
        <ele>632</ele>
        <time>2019-06-25T09:32:33Z</time>
      </trkpt>
      <trkpt lat="44.41265" lon="5.95056">
        <ele>632</ele>
        <time>2019-06-25T09:32:33Z</time>
      </trkpt>
      <trkpt lat="44.41261" lon="5.95058">
        <ele>632</ele>
        <time>2019-06-25T09:32:34Z</time>
      </trkpt>
      <trkpt lat="44.41256" lon="5.9506">
        <ele>632</ele>
        <time>2019-06-25T09:32:35Z</time>
      </trkpt>
      <trkpt lat="44.41252" lon="5.95061">
        <ele>632</ele>
        <time>2019-06-25T09:32:36Z</time>
      </trkpt>
      <trkpt lat="44.41248" lon="5.95063">
        <ele>632</ele>
        <time>2019-06-25T09:32:37Z</time>
      </trkpt>
      <trkpt lat="44.41243" lon="5.95065">
        <ele>633</ele>
        <time>2019-06-25T09:32:38Z</time>
      </trkpt>
      <trkpt lat="44.41239" lon="5.95066">
        <ele>633</ele>
        <time>2019-06-25T09:32:39Z</time>
      </trkpt>
      <trkpt lat="44.41234" lon="5.95068">
        <ele>633</ele>
        <time>2019-06-25T09:32:40Z</time>
      </trkpt>
      <trkpt lat="44.4123" lon="5.95069">
        <ele>633</ele>
        <time>2019-06-25T09:32:41Z</time>
      </trkpt>
      <trkpt lat="44.41225" lon="5.9507">
        <ele>633</ele>
        <time>2019-06-25T09:32:42Z</time>
      </trkpt>
      <trkpt lat="44.41221" lon="5.95071">
        <ele>633</ele>
        <time>2019-06-25T09:32:43Z</time>
      </trkpt>
      <trkpt lat="44.41216" lon="5.95071">
        <ele>633</ele>
        <time>2019-06-25T09:32:44Z</time>
      </trkpt>
      <trkpt lat="44.41212" lon="5.95072">
        <ele>633</ele>
        <time>2019-06-25T09:32:45Z</time>
      </trkpt>
      <trkpt lat="44.41207" lon="5.95072">
        <ele>633</ele>
        <time>2019-06-25T09:32:46Z</time>
      </trkpt>
      <trkpt lat="44.41203" lon="5.95072">
        <ele>633</ele>
        <time>2019-06-25T09:32:47Z</time>
      </trkpt>
      <trkpt lat="44.41198" lon="5.95073">
        <ele>633</ele>
        <time>2019-06-25T09:32:48Z</time>
      </trkpt>
      <trkpt lat="44.41194" lon="5.95073">
        <ele>633</ele>
        <time>2019-06-25T09:32:49Z</time>
      </trkpt>
      <trkpt lat="44.41189" lon="5.95074">
        <ele>633</ele>
        <time>2019-06-25T09:32:50Z</time>
      </trkpt>
      <trkpt lat="44.41185" lon="5.95074">
        <ele>633</ele>
        <time>2019-06-25T09:32:51Z</time>
      </trkpt>
      <trkpt lat="44.4118" lon="5.95074">
        <ele>633</ele>
        <time>2019-06-25T09:32:52Z</time>
      </trkpt>
      <trkpt lat="44.41175" lon="5.95074">
        <ele>633</ele>
        <time>2019-06-25T09:32:53Z</time>
      </trkpt>
      <trkpt lat="44.4117" lon="5.95075">
        <ele>633</ele>
        <time>2019-06-25T09:32:54Z</time>
      </trkpt>
      <trkpt lat="44.41165" lon="5.95076">
        <ele>633</ele>
        <time>2019-06-25T09:32:55Z</time>
      </trkpt>
      <trkpt lat="44.41159" lon="5.95078">
        <ele>633</ele>
        <time>2019-06-25T09:32:56Z</time>
      </trkpt>
      <trkpt lat="44.41152" lon="5.95079">
        <ele>633</ele>
        <time>2019-06-25T09:32:57Z</time>
      </trkpt>
      <trkpt lat="44.41146" lon="5.95081">
        <ele>633</ele>
        <time>2019-06-25T09:32:58Z</time>
      </trkpt>
      <trkpt lat="44.4114" lon="5.95083">
        <ele>633</ele>
        <time>2019-06-25T09:32:59Z</time>
      </trkpt>
      <trkpt lat="44.41134" lon="5.95085">
        <ele>633</ele>
        <time>2019-06-25T09:33:00Z</time>
      </trkpt>
      <trkpt lat="44.41128" lon="5.95087">
        <ele>633</ele>
        <time>2019-06-25T09:33:01Z</time>
      </trkpt>
      <trkpt lat="44.41122" lon="5.95089">
        <ele>633</ele>
        <time>2019-06-25T09:33:02Z</time>
      </trkpt>
      <trkpt lat="44.41116" lon="5.95091">
        <ele>633</ele>
        <time>2019-06-25T09:33:03Z</time>
      </trkpt>
      <trkpt lat="44.4111" lon="5.95093">
        <ele>633</ele>
        <time>2019-06-25T09:33:04Z</time>
      </trkpt>
      <trkpt lat="44.41104" lon="5.95094">
        <ele>633</ele>
        <time>2019-06-25T09:33:05Z</time>
      </trkpt>
      <trkpt lat="44.41098" lon="5.95095">
        <ele>633</ele>
        <time>2019-06-25T09:33:06Z</time>
      </trkpt>
      <trkpt lat="44.41091" lon="5.95095">
        <ele>632</ele>
        <time>2019-06-25T09:33:07Z</time>
      </trkpt>
      <trkpt lat="44.41084" lon="5.95094">
        <ele>632</ele>
        <time>2019-06-25T09:33:08Z</time>
      </trkpt>
      <trkpt lat="44.41076" lon="5.95092">
        <ele>631</ele>
        <time>2019-06-25T09:33:09Z</time>
      </trkpt>
      <trkpt lat="44.41068" lon="5.9509">
        <ele>631</ele>
        <time>2019-06-25T09:33:10Z</time>
      </trkpt>
      <trkpt lat="44.4106" lon="5.95087">
        <ele>630</ele>
        <time>2019-06-25T09:33:11Z</time>
      </trkpt>
      <trkpt lat="44.41051" lon="5.95084">
        <ele>629</ele>
        <time>2019-06-25T09:33:12Z</time>
      </trkpt>
      <trkpt lat="44.41042" lon="5.95081">
        <ele>629</ele>
        <time>2019-06-25T09:33:13Z</time>
      </trkpt>
      <trkpt lat="44.41033" lon="5.95077">
        <ele>628</ele>
        <time>2019-06-25T09:33:14Z</time>
      </trkpt>
      <trkpt lat="44.41023" lon="5.95074">
        <ele>627</ele>
        <time>2019-06-25T09:33:15Z</time>
      </trkpt>
      <trkpt lat="44.41013" lon="5.95071">
        <ele>627</ele>
        <time>2019-06-25T09:33:16Z</time>
      </trkpt>
      <trkpt lat="44.41003" lon="5.95067">
        <ele>626</ele>
        <time>2019-06-25T09:33:17Z</time>
      </trkpt>
      <trkpt lat="44.40993" lon="5.95062">
        <ele>625</ele>
        <time>2019-06-25T09:33:18Z</time>
      </trkpt>
      <trkpt lat="44.40983" lon="5.95057">
        <ele>625</ele>
        <time>2019-06-25T09:33:19Z</time>
      </trkpt>
      <trkpt lat="44.40974" lon="5.95052">
        <ele>624</ele>
        <time>2019-06-25T09:33:20Z</time>
      </trkpt>
      <trkpt lat="44.40966" lon="5.95046">
        <ele>623</ele>
        <time>2019-06-25T09:33:21Z</time>
      </trkpt>
      <trkpt lat="44.40958" lon="5.9504">
        <ele>623</ele>
        <time>2019-06-25T09:33:22Z</time>
      </trkpt>
      <trkpt lat="44.4095" lon="5.95034">
        <ele>622</ele>
        <time>2019-06-25T09:33:23Z</time>
      </trkpt>
      <trkpt lat="44.40942" lon="5.95026">
        <ele>621</ele>
        <time>2019-06-25T09:33:24Z</time>
      </trkpt>
      <trkpt lat="44.40935" lon="5.95019">
        <ele>620</ele>
        <time>2019-06-25T09:33:25Z</time>
      </trkpt>
      <trkpt lat="44.40928" lon="5.95015">
        <ele>620</ele>
        <time>2019-06-25T09:33:26Z</time>
      </trkpt>
      <trkpt lat="44.40921" lon="5.95012">
        <ele>619</ele>
        <time>2019-06-25T09:33:27Z</time>
      </trkpt>
      <trkpt lat="44.40913" lon="5.95011">
        <ele>618</ele>
        <time>2019-06-25T09:33:28Z</time>
      </trkpt>
      <trkpt lat="44.40905" lon="5.95012">
        <ele>617</ele>
        <time>2019-06-25T09:33:29Z</time>
      </trkpt>
      <trkpt lat="44.40897" lon="5.95015">
        <ele>616</ele>
        <time>2019-06-25T09:33:30Z</time>
      </trkpt>
      <trkpt lat="44.40889" lon="5.9502">
        <ele>615</ele>
        <time>2019-06-25T09:33:31Z</time>
      </trkpt>
      <trkpt lat="44.40881" lon="5.95026">
        <ele>614</ele>
        <time>2019-06-25T09:33:33Z</time>
      </trkpt>
      <trkpt lat="44.40873" lon="5.95031">
        <ele>613</ele>
        <time>2019-06-25T09:33:33Z</time>
      </trkpt>
      <trkpt lat="44.40865" lon="5.95035">
        <ele>612</ele>
        <time>2019-06-25T09:33:34Z</time>
      </trkpt>
      <trkpt lat="44.40856" lon="5.95037">
        <ele>612</ele>
        <time>2019-06-25T09:33:35Z</time>
      </trkpt>
      <trkpt lat="44.40848" lon="5.95038">
        <ele>612</ele>
        <time>2019-06-25T09:33:36Z</time>
      </trkpt>
      <trkpt lat="44.40839" lon="5.95039">
        <ele>612</ele>
        <time>2019-06-25T09:33:37Z</time>
      </trkpt>
      <trkpt lat="44.4083" lon="5.9504">
        <ele>612</ele>
        <time>2019-06-25T09:33:38Z</time>
      </trkpt>
      <trkpt lat="44.40822" lon="5.9504">
        <ele>612</ele>
        <time>2019-06-25T09:33:39Z</time>
      </trkpt>
      <trkpt lat="44.40815" lon="5.95039">
        <ele>612</ele>
        <time>2019-06-25T09:33:40Z</time>
      </trkpt>
      <trkpt lat="44.40807" lon="5.95038">
        <ele>612</ele>
        <time>2019-06-25T09:33:41Z</time>
      </trkpt>
      <trkpt lat="44.408" lon="5.95037">
        <ele>612</ele>
        <time>2019-06-25T09:33:42Z</time>
      </trkpt>
      <trkpt lat="44.40793" lon="5.95037">
        <ele>612</ele>
        <time>2019-06-25T09:33:43Z</time>
      </trkpt>
      <trkpt lat="44.40786" lon="5.95036">
        <ele>612</ele>
        <time>2019-06-25T09:33:44Z</time>
      </trkpt>
      <trkpt lat="44.4078" lon="5.95036">
        <ele>612</ele>
        <time>2019-06-25T09:33:45Z</time>
      </trkpt>
      <trkpt lat="44.40773" lon="5.95037">
        <ele>612</ele>
        <time>2019-06-25T09:33:46Z</time>
      </trkpt>
      <trkpt lat="44.40767" lon="5.95037">
        <ele>612</ele>
        <time>2019-06-25T09:33:47Z</time>
      </trkpt>
      <trkpt lat="44.40761" lon="5.95037">
        <ele>612</ele>
        <time>2019-06-25T09:33:48Z</time>
      </trkpt>
      <trkpt lat="44.40755" lon="5.95038">
        <ele>612</ele>
        <time>2019-06-25T09:33:49Z</time>
      </trkpt>
      <trkpt lat="44.40749" lon="5.95038">
        <ele>612</ele>
        <time>2019-06-25T09:33:50Z</time>
      </trkpt>
      <trkpt lat="44.40743" lon="5.95039">
        <ele>612</ele>
        <time>2019-06-25T09:33:51Z</time>
      </trkpt>
      <trkpt lat="44.40737" lon="5.95038">
        <ele>612</ele>
        <time>2019-06-25T09:33:52Z</time>
      </trkpt>
      <trkpt lat="44.40732" lon="5.95038">
        <ele>612</ele>
        <time>2019-06-25T09:33:53Z</time>
      </trkpt>
      <trkpt lat="44.40726" lon="5.95039">
        <ele>612</ele>
        <time>2019-06-25T09:33:54Z</time>
      </trkpt>
      <trkpt lat="44.4072" lon="5.9504">
        <ele>612</ele>
        <time>2019-06-25T09:33:55Z</time>
      </trkpt>
      <trkpt lat="44.40715" lon="5.9504">
        <ele>612</ele>
        <time>2019-06-25T09:33:56Z</time>
      </trkpt>
      <trkpt lat="44.40709" lon="5.95041">
        <ele>612</ele>
        <time>2019-06-25T09:33:57Z</time>
      </trkpt>
      <trkpt lat="44.40703" lon="5.95042">
        <ele>612</ele>
        <time>2019-06-25T09:33:58Z</time>
      </trkpt>
      <trkpt lat="44.40697" lon="5.95042">
        <ele>612</ele>
        <time>2019-06-25T09:33:59Z</time>
      </trkpt>
      <trkpt lat="44.40691" lon="5.95043">
        <ele>612</ele>
        <time>2019-06-25T09:34:00Z</time>
      </trkpt>
      <trkpt lat="44.40685" lon="5.95044">
        <ele>612</ele>
        <time>2019-06-25T09:34:01Z</time>
      </trkpt>
      <trkpt lat="44.40679" lon="5.95045">
        <ele>612</ele>
        <time>2019-06-25T09:34:02Z</time>
      </trkpt>
      <trkpt lat="44.40673" lon="5.95046">
        <ele>612</ele>
        <time>2019-06-25T09:34:03Z</time>
      </trkpt>
      <trkpt lat="44.40667" lon="5.95048">
        <ele>612</ele>
        <time>2019-06-25T09:34:04Z</time>
      </trkpt>
      <trkpt lat="44.40661" lon="5.9505">
        <ele>612</ele>
        <time>2019-06-25T09:34:05Z</time>
      </trkpt>
      <trkpt lat="44.40656" lon="5.95052">
        <ele>612</ele>
        <time>2019-06-25T09:34:06Z</time>
      </trkpt>
      <trkpt lat="44.4065" lon="5.95054">
        <ele>612</ele>
        <time>2019-06-25T09:34:07Z</time>
      </trkpt>
      <trkpt lat="44.40644" lon="5.95056">
        <ele>612</ele>
        <time>2019-06-25T09:34:08Z</time>
      </trkpt>
      <trkpt lat="44.40638" lon="5.95059">
        <ele>612</ele>
        <time>2019-06-25T09:34:09Z</time>
      </trkpt>
      <trkpt lat="44.40632" lon="5.95062">
        <ele>612</ele>
        <time>2019-06-25T09:34:10Z</time>
      </trkpt>
      <trkpt lat="44.40625" lon="5.95065">
        <ele>612</ele>
        <time>2019-06-25T09:34:11Z</time>
      </trkpt>
      <trkpt lat="44.40618" lon="5.95067">
        <ele>612</ele>
        <time>2019-06-25T09:34:12Z</time>
      </trkpt>
      <trkpt lat="44.40611" lon="5.9507">
        <ele>612</ele>
        <time>2019-06-25T09:34:13Z</time>
      </trkpt>
      <trkpt lat="44.40603" lon="5.95071">
        <ele>612</ele>
        <time>2019-06-25T09:34:14Z</time>
      </trkpt>
      <trkpt lat="44.40595" lon="5.95073">
        <ele>612</ele>
        <time>2019-06-25T09:34:15Z</time>
      </trkpt>
      <trkpt lat="44.40587" lon="5.95074">
        <ele>612</ele>
        <time>2019-06-25T09:34:16Z</time>
      </trkpt>
      <trkpt lat="44.40578" lon="5.95075">
        <ele>612</ele>
        <time>2019-06-25T09:34:17Z</time>
      </trkpt>
      <trkpt lat="44.4057" lon="5.95076">
        <ele>611</ele>
        <time>2019-06-25T09:34:18Z</time>
      </trkpt>
      <trkpt lat="44.40561" lon="5.95076">
        <ele>610</ele>
        <time>2019-06-25T09:34:19Z</time>
      </trkpt>
      <trkpt lat="44.40551" lon="5.95076">
        <ele>609</ele>
        <time>2019-06-25T09:34:20Z</time>
      </trkpt>
      <trkpt lat="44.40542" lon="5.95078">
        <ele>609</ele>
        <time>2019-06-25T09:34:21Z</time>
      </trkpt>
      <trkpt lat="44.40532" lon="5.95079">
        <ele>608</ele>
        <time>2019-06-25T09:34:22Z</time>
      </trkpt>
      <trkpt lat="44.40522" lon="5.95081">
        <ele>607</ele>
        <time>2019-06-25T09:34:23Z</time>
      </trkpt>
      <trkpt lat="44.40513" lon="5.95083">
        <ele>606</ele>
        <time>2019-06-25T09:34:24Z</time>
      </trkpt>
      <trkpt lat="44.40504" lon="5.95084">
        <ele>606</ele>
        <time>2019-06-25T09:34:25Z</time>
      </trkpt>
      <trkpt lat="44.40496" lon="5.95085">
        <ele>605</ele>
        <time>2019-06-25T09:34:26Z</time>
      </trkpt>
      <trkpt lat="44.40487" lon="5.95085">
        <ele>604</ele>
        <time>2019-06-25T09:34:27Z</time>
      </trkpt>
      <trkpt lat="44.40479" lon="5.95083">
        <ele>604</ele>
        <time>2019-06-25T09:34:28Z</time>
      </trkpt>
      <trkpt lat="44.4047" lon="5.9508">
        <ele>603</ele>
        <time>2019-06-25T09:34:29Z</time>
      </trkpt>
      <trkpt lat="44.40462" lon="5.95076">
        <ele>602</ele>
        <time>2019-06-25T09:34:30Z</time>
      </trkpt>
      <trkpt lat="44.40453" lon="5.95071">
        <ele>602</ele>
        <time>2019-06-25T09:34:31Z</time>
      </trkpt>
      <trkpt lat="44.40444" lon="5.95066">
        <ele>601</ele>
        <time>2019-06-25T09:34:33Z</time>
      </trkpt>
      <trkpt lat="44.40435" lon="5.9506">
        <ele>600</ele>
        <time>2019-06-25T09:34:33Z</time>
      </trkpt>
      <trkpt lat="44.40425" lon="5.95055">
        <ele>599</ele>
        <time>2019-06-25T09:34:34Z</time>
      </trkpt>
      <trkpt lat="44.40416" lon="5.95049">
        <ele>599</ele>
        <time>2019-06-25T09:34:35Z</time>
      </trkpt>
      <trkpt lat="44.40407" lon="5.95043">
        <ele>598</ele>
        <time>2019-06-25T09:34:36Z</time>
      </trkpt>
      <trkpt lat="44.40398" lon="5.95036">
        <ele>597</ele>
        <time>2019-06-25T09:34:37Z</time>
      </trkpt>
      <trkpt lat="44.40389" lon="5.95029">
        <ele>597</ele>
        <time>2019-06-25T09:34:38Z</time>
      </trkpt>
      <trkpt lat="44.40381" lon="5.9502">
        <ele>596</ele>
        <time>2019-06-25T09:34:39Z</time>
      </trkpt>
      <trkpt lat="44.40373" lon="5.95012">
        <ele>596</ele>
        <time>2019-06-25T09:34:40Z</time>
      </trkpt>
      <trkpt lat="44.40365" lon="5.95004">
        <ele>595</ele>
        <time>2019-06-25T09:34:41Z</time>
      </trkpt>
      <trkpt lat="44.40358" lon="5.94998">
        <ele>595</ele>
        <time>2019-06-25T09:34:42Z</time>
      </trkpt>
      <trkpt lat="44.40352" lon="5.94994">
        <ele>594</ele>
        <time>2019-06-25T09:34:43Z</time>
      </trkpt>
      <trkpt lat="44.40346" lon="5.94991">
        <ele>594</ele>
        <time>2019-06-25T09:34:44Z</time>
      </trkpt>
      <trkpt lat="44.4034" lon="5.94987">
        <ele>594</ele>
        <time>2019-06-25T09:34:45Z</time>
      </trkpt>
      <trkpt lat="44.40334" lon="5.94982">
        <ele>593</ele>
        <time>2019-06-25T09:34:46Z</time>
      </trkpt>
      <trkpt lat="44.40331" lon="5.94976">
        <ele>593</ele>
        <time>2019-06-25T09:34:47Z</time>
      </trkpt>
      <trkpt lat="44.40328" lon="5.94968">
        <ele>593</ele>
        <time>2019-06-25T09:34:48Z</time>
      </trkpt>
      <trkpt lat="44.40325" lon="5.94961">
        <ele>593</ele>
        <time>2019-06-25T09:34:49Z</time>
      </trkpt>
      <trkpt lat="44.40322" lon="5.94953">
        <ele>593</ele>
        <time>2019-06-25T09:34:50Z</time>
      </trkpt>
      <trkpt lat="44.40319" lon="5.94947">
        <ele>593</ele>
        <time>2019-06-25T09:34:51Z</time>
      </trkpt>
      <trkpt lat="44.40316" lon="5.9494">
        <ele>593</ele>
        <time>2019-06-25T09:34:52Z</time>
      </trkpt>
      <trkpt lat="44.40312" lon="5.94933">
        <ele>593</ele>
        <time>2019-06-25T09:34:53Z</time>
      </trkpt>
      <trkpt lat="44.40309" lon="5.94926">
        <ele>593</ele>
        <time>2019-06-25T09:34:54Z</time>
      </trkpt>
      <trkpt lat="44.40306" lon="5.94919">
        <ele>593</ele>
        <time>2019-06-25T09:34:55Z</time>
      </trkpt>
      <trkpt lat="44.40303" lon="5.94913">
        <ele>593</ele>
        <time>2019-06-25T09:34:56Z</time>
      </trkpt>
      <trkpt lat="44.403" lon="5.94906">
        <ele>593</ele>
        <time>2019-06-25T09:34:57Z</time>
      </trkpt>
      <trkpt lat="44.40297" lon="5.94899">
        <ele>593</ele>
        <time>2019-06-25T09:34:58Z</time>
      </trkpt>
      <trkpt lat="44.40294" lon="5.94893">
        <ele>593</ele>
        <time>2019-06-25T09:34:59Z</time>
      </trkpt>
      <trkpt lat="44.40291" lon="5.94886">
        <ele>593</ele>
        <time>2019-06-25T09:35:00Z</time>
      </trkpt>
      <trkpt lat="44.40288" lon="5.94879">
        <ele>593</ele>
        <time>2019-06-25T09:35:01Z</time>
      </trkpt>
      <trkpt lat="44.40285" lon="5.94872">
        <ele>593</ele>
        <time>2019-06-25T09:35:02Z</time>
      </trkpt>
      <trkpt lat="44.40282" lon="5.94865">
        <ele>593</ele>
        <time>2019-06-25T09:35:03Z</time>
      </trkpt>
      <trkpt lat="44.40279" lon="5.94858">
        <ele>593</ele>
        <time>2019-06-25T09:35:04Z</time>
      </trkpt>
      <trkpt lat="44.40275" lon="5.9485">
        <ele>593</ele>
        <time>2019-06-25T09:35:05Z</time>
      </trkpt>
      <trkpt lat="44.40272" lon="5.94843">
        <ele>593</ele>
        <time>2019-06-25T09:35:06Z</time>
      </trkpt>
      <trkpt lat="44.40268" lon="5.94836">
        <ele>593</ele>
        <time>2019-06-25T09:35:07Z</time>
      </trkpt>
      <trkpt lat="44.40264" lon="5.94829">
        <ele>593</ele>
        <time>2019-06-25T09:35:08Z</time>
      </trkpt>
      <trkpt lat="44.4026" lon="5.94822">
        <ele>593</ele>
        <time>2019-06-25T09:35:09Z</time>
      </trkpt>
      <trkpt lat="44.40257" lon="5.94815">
        <ele>593</ele>
        <time>2019-06-25T09:35:10Z</time>
      </trkpt>
      <trkpt lat="44.40252" lon="5.94808">
        <ele>593</ele>
        <time>2019-06-25T09:35:11Z</time>
      </trkpt>
      <trkpt lat="44.40248" lon="5.94801">
        <ele>593</ele>
        <time>2019-06-25T09:35:12Z</time>
      </trkpt>
      <trkpt lat="44.40244" lon="5.94795">
        <ele>593</ele>
        <time>2019-06-25T09:35:13Z</time>
      </trkpt>
      <trkpt lat="44.4024" lon="5.94788">
        <ele>593</ele>
        <time>2019-06-25T09:35:14Z</time>
      </trkpt>
      <trkpt lat="44.40235" lon="5.94782">
        <ele>593</ele>
        <time>2019-06-25T09:35:15Z</time>
      </trkpt>
      <trkpt lat="44.40231" lon="5.94776">
        <ele>593</ele>
        <time>2019-06-25T09:35:16Z</time>
      </trkpt>
      <trkpt lat="44.40226" lon="5.94769">
        <ele>593</ele>
        <time>2019-06-25T09:35:17Z</time>
      </trkpt>
      <trkpt lat="44.40222" lon="5.94763">
        <ele>593</ele>
        <time>2019-06-25T09:35:18Z</time>
      </trkpt>
      <trkpt lat="44.40217" lon="5.94757">
        <ele>593</ele>
        <time>2019-06-25T09:35:19Z</time>
      </trkpt>
      <trkpt lat="44.40212" lon="5.94751">
        <ele>593</ele>
        <time>2019-06-25T09:35:20Z</time>
      </trkpt>
      <trkpt lat="44.40207" lon="5.94746">
        <ele>593</ele>
        <time>2019-06-25T09:35:21Z</time>
      </trkpt>
      <trkpt lat="44.40202" lon="5.9474">
        <ele>593</ele>
        <time>2019-06-25T09:35:22Z</time>
      </trkpt>
      <trkpt lat="44.40197" lon="5.94735">
        <ele>593</ele>
        <time>2019-06-25T09:35:23Z</time>
      </trkpt>
      <trkpt lat="44.40192" lon="5.9473">
        <ele>593</ele>
        <time>2019-06-25T09:35:24Z</time>
      </trkpt>
      <trkpt lat="44.40187" lon="5.94725">
        <ele>593</ele>
        <time>2019-06-25T09:35:25Z</time>
      </trkpt>
      <trkpt lat="44.40182" lon="5.9472">
        <ele>593</ele>
        <time>2019-06-25T09:35:26Z</time>
      </trkpt>
      <trkpt lat="44.40176" lon="5.94715">
        <ele>593</ele>
        <time>2019-06-25T09:35:27Z</time>
      </trkpt>
      <trkpt lat="44.40171" lon="5.94711">
        <ele>593</ele>
        <time>2019-06-25T09:35:28Z</time>
      </trkpt>
      <trkpt lat="44.40165" lon="5.94707">
        <ele>593</ele>
        <time>2019-06-25T09:35:29Z</time>
      </trkpt>
      <trkpt lat="44.4016" lon="5.94703">
        <ele>593</ele>
        <time>2019-06-25T09:35:30Z</time>
      </trkpt>
      <trkpt lat="44.40154" lon="5.94699">
        <ele>593</ele>
        <time>2019-06-25T09:35:31Z</time>
      </trkpt>
      <trkpt lat="44.40149" lon="5.94695">
        <ele>593</ele>
        <time>2019-06-25T09:35:33Z</time>
      </trkpt>
      <trkpt lat="44.40143" lon="5.94691">
        <ele>593</ele>
        <time>2019-06-25T09:35:33Z</time>
      </trkpt>
      <trkpt lat="44.40138" lon="5.94687">
        <ele>593</ele>
        <time>2019-06-25T09:35:34Z</time>
      </trkpt>
      <trkpt lat="44.40132" lon="5.94684">
        <ele>593</ele>
        <time>2019-06-25T09:35:35Z</time>
      </trkpt>
      <trkpt lat="44.40126" lon="5.94679">
        <ele>593</ele>
        <time>2019-06-25T09:35:36Z</time>
      </trkpt>
      <trkpt lat="44.4012" lon="5.94675">
        <ele>593</ele>
        <time>2019-06-25T09:35:37Z</time>
      </trkpt>
      <trkpt lat="44.40115" lon="5.94672">
        <ele>593</ele>
        <time>2019-06-25T09:35:38Z</time>
      </trkpt>
      <trkpt lat="44.40109" lon="5.94668">
        <ele>593</ele>
        <time>2019-06-25T09:35:39Z</time>
      </trkpt>
      <trkpt lat="44.40103" lon="5.94664">
        <ele>593</ele>
        <time>2019-06-25T09:35:40Z</time>
      </trkpt>
      <trkpt lat="44.40097" lon="5.94661">
        <ele>593</ele>
        <time>2019-06-25T09:35:41Z</time>
      </trkpt>
      <trkpt lat="44.40091" lon="5.94657">
        <ele>593</ele>
        <time>2019-06-25T09:35:42Z</time>
      </trkpt>
      <trkpt lat="44.40085" lon="5.94653">
        <ele>593</ele>
        <time>2019-06-25T09:35:43Z</time>
      </trkpt>
      <trkpt lat="44.40079" lon="5.94649">
        <ele>593</ele>
        <time>2019-06-25T09:35:44Z</time>
      </trkpt>
      <trkpt lat="44.40073" lon="5.94645">
        <ele>593</ele>
        <time>2019-06-25T09:35:45Z</time>
      </trkpt>
      <trkpt lat="44.40067" lon="5.94642">
        <ele>593</ele>
        <time>2019-06-25T09:35:46Z</time>
      </trkpt>
      <trkpt lat="44.40061" lon="5.94639">
        <ele>593</ele>
        <time>2019-06-25T09:35:47Z</time>
      </trkpt>
      <trkpt lat="44.40055" lon="5.94636">
        <ele>593</ele>
        <time>2019-06-25T09:35:48Z</time>
      </trkpt>
      <trkpt lat="44.40049" lon="5.94633">
        <ele>593</ele>
        <time>2019-06-25T09:35:49Z</time>
      </trkpt>
      <trkpt lat="44.40043" lon="5.94631">
        <ele>593</ele>
        <time>2019-06-25T09:35:50Z</time>
      </trkpt>
      <trkpt lat="44.40037" lon="5.94628">
        <ele>593</ele>
        <time>2019-06-25T09:35:51Z</time>
      </trkpt>
      <trkpt lat="44.40031" lon="5.94626">
        <ele>593</ele>
        <time>2019-06-25T09:35:52Z</time>
      </trkpt>
      <trkpt lat="44.40025" lon="5.94623">
        <ele>593</ele>
        <time>2019-06-25T09:35:53Z</time>
      </trkpt>
      <trkpt lat="44.40019" lon="5.94621">
        <ele>593</ele>
        <time>2019-06-25T09:35:54Z</time>
      </trkpt>
      <trkpt lat="44.40013" lon="5.94618">
        <ele>593</ele>
        <time>2019-06-25T09:35:55Z</time>
      </trkpt>
      <trkpt lat="44.40007" lon="5.94616">
        <ele>593</ele>
        <time>2019-06-25T09:35:56Z</time>
      </trkpt>
      <trkpt lat="44.40001" lon="5.94613">
        <ele>593</ele>
        <time>2019-06-25T09:35:57Z</time>
      </trkpt>
      <trkpt lat="44.39995" lon="5.94611">
        <ele>593</ele>
        <time>2019-06-25T09:35:58Z</time>
      </trkpt>
      <trkpt lat="44.39989" lon="5.94608">
        <ele>593</ele>
        <time>2019-06-25T09:35:59Z</time>
      </trkpt>
      <trkpt lat="44.39983" lon="5.94606">
        <ele>593</ele>
        <time>2019-06-25T09:36:00Z</time>
      </trkpt>
      <trkpt lat="44.39977" lon="5.94603">
        <ele>593</ele>
        <time>2019-06-25T09:36:01Z</time>
      </trkpt>
      <trkpt lat="44.3997" lon="5.946">
        <ele>593</ele>
        <time>2019-06-25T09:36:02Z</time>
      </trkpt>
      <trkpt lat="44.39964" lon="5.94597">
        <ele>593</ele>
        <time>2019-06-25T09:36:03Z</time>
      </trkpt>
      <trkpt lat="44.39958" lon="5.94594">
        <ele>593</ele>
        <time>2019-06-25T09:36:04Z</time>
      </trkpt>
      <trkpt lat="44.39951" lon="5.94592">
        <ele>593</ele>
        <time>2019-06-25T09:36:05Z</time>
      </trkpt>
      <trkpt lat="44.39945" lon="5.94589">
        <ele>593</ele>
        <time>2019-06-25T09:36:06Z</time>
      </trkpt>
      <trkpt lat="44.39938" lon="5.94585">
        <ele>593</ele>
        <time>2019-06-25T09:36:07Z</time>
      </trkpt>
      <trkpt lat="44.39932" lon="5.94582">
        <ele>593</ele>
        <time>2019-06-25T09:36:08Z</time>
      </trkpt>
      <trkpt lat="44.39925" lon="5.94578">
        <ele>593</ele>
        <time>2019-06-25T09:36:09Z</time>
      </trkpt>
      <trkpt lat="44.39918" lon="5.94573">
        <ele>593</ele>
        <time>2019-06-25T09:36:10Z</time>
      </trkpt>
      <trkpt lat="44.39911" lon="5.9457">
        <ele>593</ele>
        <time>2019-06-25T09:36:11Z</time>
      </trkpt>
      <trkpt lat="44.39903" lon="5.94565">
        <ele>593</ele>
        <time>2019-06-25T09:36:12Z</time>
      </trkpt>
      <trkpt lat="44.39896" lon="5.9456">
        <ele>593</ele>
        <time>2019-06-25T09:36:13Z</time>
      </trkpt>
      <trkpt lat="44.39888" lon="5.94555">
        <ele>593</ele>
        <time>2019-06-25T09:36:14Z</time>
      </trkpt>
      <trkpt lat="44.39881" lon="5.94549">
        <ele>593</ele>
        <time>2019-06-25T09:36:15Z</time>
      </trkpt>
      <trkpt lat="44.39874" lon="5.94543">
        <ele>593</ele>
        <time>2019-06-25T09:36:16Z</time>
      </trkpt>
      <trkpt lat="44.39867" lon="5.94535">
        <ele>592</ele>
        <time>2019-06-25T09:36:17Z</time>
      </trkpt>
      <trkpt lat="44.39859" lon="5.94528">
        <ele>592</ele>
        <time>2019-06-25T09:36:18Z</time>
      </trkpt>
      <trkpt lat="44.39852" lon="5.94521">
        <ele>592</ele>
        <time>2019-06-25T09:36:19Z</time>
      </trkpt>
      <trkpt lat="44.39845" lon="5.94514">
        <ele>591</ele>
        <time>2019-06-25T09:36:20Z</time>
      </trkpt>
      <trkpt lat="44.39837" lon="5.94507">
        <ele>591</ele>
        <time>2019-06-25T09:36:21Z</time>
      </trkpt>
      <trkpt lat="44.39829" lon="5.945">
        <ele>591</ele>
        <time>2019-06-25T09:36:22Z</time>
      </trkpt>
      <trkpt lat="44.39821" lon="5.94494">
        <ele>590</ele>
        <time>2019-06-25T09:36:23Z</time>
      </trkpt>
      <trkpt lat="44.39813" lon="5.94487">
        <ele>590</ele>
        <time>2019-06-25T09:36:24Z</time>
      </trkpt>
      <trkpt lat="44.39805" lon="5.9448">
        <ele>590</ele>
        <time>2019-06-25T09:36:25Z</time>
      </trkpt>
      <trkpt lat="44.39797" lon="5.94473">
        <ele>589</ele>
        <time>2019-06-25T09:36:26Z</time>
      </trkpt>
      <trkpt lat="44.39789" lon="5.94466">
        <ele>589</ele>
        <time>2019-06-25T09:36:27Z</time>
      </trkpt>
      <trkpt lat="44.3978" lon="5.94459">
        <ele>588</ele>
        <time>2019-06-25T09:36:28Z</time>
      </trkpt>
      <trkpt lat="44.39771" lon="5.94453">
        <ele>588</ele>
        <time>2019-06-25T09:36:29Z</time>
      </trkpt>
      <trkpt lat="44.39762" lon="5.94447">
        <ele>587</ele>
        <time>2019-06-25T09:36:30Z</time>
      </trkpt>
      <trkpt lat="44.39753" lon="5.94442">
        <ele>587</ele>
        <time>2019-06-25T09:36:31Z</time>
      </trkpt>
      <trkpt lat="44.39744" lon="5.94436">
        <ele>586</ele>
        <time>2019-06-25T09:36:33Z</time>
      </trkpt>
      <trkpt lat="44.39735" lon="5.9443">
        <ele>586</ele>
        <time>2019-06-25T09:36:33Z</time>
      </trkpt>
      <trkpt lat="44.39725" lon="5.94424">
        <ele>585</ele>
        <time>2019-06-25T09:36:34Z</time>
      </trkpt>
      <trkpt lat="44.39716" lon="5.94418">
        <ele>585</ele>
        <time>2019-06-25T09:36:35Z</time>
      </trkpt>
      <trkpt lat="44.39706" lon="5.94413">
        <ele>584</ele>
        <time>2019-06-25T09:36:36Z</time>
      </trkpt>
      <trkpt lat="44.39697" lon="5.94407">
        <ele>584</ele>
        <time>2019-06-25T09:36:37Z</time>
      </trkpt>
      <trkpt lat="44.39687" lon="5.94401">
        <ele>583</ele>
        <time>2019-06-25T09:36:38Z</time>
      </trkpt>
      <trkpt lat="44.39677" lon="5.94395">
        <ele>583</ele>
        <time>2019-06-25T09:36:39Z</time>
      </trkpt>
      <trkpt lat="44.39668" lon="5.94389">
        <ele>582</ele>
        <time>2019-06-25T09:36:40Z</time>
      </trkpt>
      <trkpt lat="44.39658" lon="5.94382">
        <ele>582</ele>
        <time>2019-06-25T09:36:41Z</time>
      </trkpt>
      <trkpt lat="44.39648" lon="5.94376">
        <ele>581</ele>
        <time>2019-06-25T09:36:42Z</time>
      </trkpt>
      <trkpt lat="44.39639" lon="5.9437">
        <ele>581</ele>
        <time>2019-06-25T09:36:43Z</time>
      </trkpt>
      <trkpt lat="44.39629" lon="5.94364">
        <ele>580</ele>
        <time>2019-06-25T09:36:44Z</time>
      </trkpt>
      <trkpt lat="44.3962" lon="5.94357">
        <ele>580</ele>
        <time>2019-06-25T09:36:45Z</time>
      </trkpt>
      <trkpt lat="44.39611" lon="5.94351">
        <ele>579</ele>
        <time>2019-06-25T09:36:46Z</time>
      </trkpt>
      <trkpt lat="44.39602" lon="5.94344">
        <ele>579</ele>
        <time>2019-06-25T09:36:47Z</time>
      </trkpt>
      <trkpt lat="44.39593" lon="5.94337">
        <ele>578</ele>
        <time>2019-06-25T09:36:48Z</time>
      </trkpt>
      <trkpt lat="44.39585" lon="5.94331">
        <ele>578</ele>
        <time>2019-06-25T09:36:49Z</time>
      </trkpt>
      <trkpt lat="44.39577" lon="5.94324">
        <ele>578</ele>
        <time>2019-06-25T09:36:50Z</time>
      </trkpt>
      <trkpt lat="44.39569" lon="5.94318">
        <ele>578</ele>
        <time>2019-06-25T09:36:51Z</time>
      </trkpt>
      <trkpt lat="44.39562" lon="5.94311">
        <ele>578</ele>
        <time>2019-06-25T09:36:52Z</time>
      </trkpt>
      <trkpt lat="44.39555" lon="5.94305">
        <ele>577</ele>
        <time>2019-06-25T09:36:53Z</time>
      </trkpt>
      <trkpt lat="44.39548" lon="5.94299">
        <ele>577</ele>
        <time>2019-06-25T09:36:54Z</time>
      </trkpt>
      <trkpt lat="44.39542" lon="5.94293">
        <ele>577</ele>
        <time>2019-06-25T09:36:55Z</time>
      </trkpt>
      <trkpt lat="44.39535" lon="5.94288">
        <ele>577</ele>
        <time>2019-06-25T09:36:56Z</time>
      </trkpt>
      <trkpt lat="44.39529" lon="5.94283">
        <ele>577</ele>
        <time>2019-06-25T09:36:57Z</time>
      </trkpt>
      <trkpt lat="44.39523" lon="5.94278">
        <ele>577</ele>
        <time>2019-06-25T09:36:58Z</time>
      </trkpt>
      <trkpt lat="44.39517" lon="5.94273">
        <ele>577</ele>
        <time>2019-06-25T09:36:59Z</time>
      </trkpt>
      <trkpt lat="44.39512" lon="5.94268">
        <ele>577</ele>
        <time>2019-06-25T09:37:00Z</time>
      </trkpt>
      <trkpt lat="44.39506" lon="5.94264">
        <ele>577</ele>
        <time>2019-06-25T09:37:01Z</time>
      </trkpt>
      <trkpt lat="44.395" lon="5.94259">
        <ele>577</ele>
        <time>2019-06-25T09:37:02Z</time>
      </trkpt>
      <trkpt lat="44.39495" lon="5.94254">
        <ele>577</ele>
        <time>2019-06-25T09:37:03Z</time>
      </trkpt>
      <trkpt lat="44.39489" lon="5.9425">
        <ele>577</ele>
        <time>2019-06-25T09:37:04Z</time>
      </trkpt>
      <trkpt lat="44.39484" lon="5.94245">
        <ele>577</ele>
        <time>2019-06-25T09:37:05Z</time>
      </trkpt>
      <trkpt lat="44.39479" lon="5.94241">
        <ele>577</ele>
        <time>2019-06-25T09:37:06Z</time>
      </trkpt>
      <trkpt lat="44.39473" lon="5.94236">
        <ele>577</ele>
        <time>2019-06-25T09:37:07Z</time>
      </trkpt>
      <trkpt lat="44.39468" lon="5.94232">
        <ele>577</ele>
        <time>2019-06-25T09:37:08Z</time>
      </trkpt>
      <trkpt lat="44.39462" lon="5.94228">
        <ele>577</ele>
        <time>2019-06-25T09:37:09Z</time>
      </trkpt>
      <trkpt lat="44.39457" lon="5.94223">
        <ele>577</ele>
        <time>2019-06-25T09:37:10Z</time>
      </trkpt>
      <trkpt lat="44.39452" lon="5.94219">
        <ele>577</ele>
        <time>2019-06-25T09:37:11Z</time>
      </trkpt>
      <trkpt lat="44.39447" lon="5.94215">
        <ele>577</ele>
        <time>2019-06-25T09:37:12Z</time>
      </trkpt>
      <trkpt lat="44.39442" lon="5.94211">
        <ele>577</ele>
        <time>2019-06-25T09:37:13Z</time>
      </trkpt>
      <trkpt lat="44.39438" lon="5.94207">
        <ele>577</ele>
        <time>2019-06-25T09:37:14Z</time>
      </trkpt>
      <trkpt lat="44.39434" lon="5.94203">
        <ele>577</ele>
        <time>2019-06-25T09:37:15Z</time>
      </trkpt>
      <trkpt lat="44.39429" lon="5.94199">
        <ele>577</ele>
        <time>2019-06-25T09:37:16Z</time>
      </trkpt>
      <trkpt lat="44.39424" lon="5.94195">
        <ele>577</ele>
        <time>2019-06-25T09:37:17Z</time>
      </trkpt>
      <trkpt lat="44.3942" lon="5.94191">
        <ele>577</ele>
        <time>2019-06-25T09:37:18Z</time>
      </trkpt>
      <trkpt lat="44.39415" lon="5.94187">
        <ele>577</ele>
        <time>2019-06-25T09:37:19Z</time>
      </trkpt>
      <trkpt lat="44.3941" lon="5.94183">
        <ele>577</ele>
        <time>2019-06-25T09:37:20Z</time>
      </trkpt>
      <trkpt lat="44.39406" lon="5.94179">
        <ele>577</ele>
        <time>2019-06-25T09:37:21Z</time>
      </trkpt>
      <trkpt lat="44.39402" lon="5.94175">
        <ele>577</ele>
        <time>2019-06-25T09:37:22Z</time>
      </trkpt>
      <trkpt lat="44.39397" lon="5.94171">
        <ele>577</ele>
        <time>2019-06-25T09:37:23Z</time>
      </trkpt>
      <trkpt lat="44.39393" lon="5.94167">
        <ele>577</ele>
        <time>2019-06-25T09:37:24Z</time>
      </trkpt>
      <trkpt lat="44.39389" lon="5.94163">
        <ele>577</ele>
        <time>2019-06-25T09:37:25Z</time>
      </trkpt>
      <trkpt lat="44.39385" lon="5.94159">
        <ele>577</ele>
        <time>2019-06-25T09:37:26Z</time>
      </trkpt>
      <trkpt lat="44.39381" lon="5.94156">
        <ele>577</ele>
        <time>2019-06-25T09:37:27Z</time>
      </trkpt>
      <trkpt lat="44.39376" lon="5.94152">
        <ele>577</ele>
        <time>2019-06-25T09:37:28Z</time>
      </trkpt>
      <trkpt lat="44.39372" lon="5.94149">
        <ele>577</ele>
        <time>2019-06-25T09:37:29Z</time>
      </trkpt>
      <trkpt lat="44.39367" lon="5.94145">
        <ele>577</ele>
        <time>2019-06-25T09:37:30Z</time>
      </trkpt>
      <trkpt lat="44.39362" lon="5.94141">
        <ele>577</ele>
        <time>2019-06-25T09:37:31Z</time>
      </trkpt>
      <trkpt lat="44.39357" lon="5.94137">
        <ele>577</ele>
        <time>2019-06-25T09:37:33Z</time>
      </trkpt>
      <trkpt lat="44.39352" lon="5.94133">
        <ele>577</ele>
        <time>2019-06-25T09:37:33Z</time>
      </trkpt>
      <trkpt lat="44.39346" lon="5.94129">
        <ele>577</ele>
        <time>2019-06-25T09:37:34Z</time>
      </trkpt>
      <trkpt lat="44.39341" lon="5.94124">
        <ele>577</ele>
        <time>2019-06-25T09:37:35Z</time>
      </trkpt>
      <trkpt lat="44.39336" lon="5.9412">
        <ele>577</ele>
        <time>2019-06-25T09:37:36Z</time>
      </trkpt>
      <trkpt lat="44.39331" lon="5.94116">
        <ele>577</ele>
        <time>2019-06-25T09:37:37Z</time>
      </trkpt>
      <trkpt lat="44.39325" lon="5.94112">
        <ele>577</ele>
        <time>2019-06-25T09:37:38Z</time>
      </trkpt>
      <trkpt lat="44.3932" lon="5.94108">
        <ele>577</ele>
        <time>2019-06-25T09:37:39Z</time>
      </trkpt>
      <trkpt lat="44.39315" lon="5.94103">
        <ele>577</ele>
        <time>2019-06-25T09:37:40Z</time>
      </trkpt>
      <trkpt lat="44.3931" lon="5.94099">
        <ele>577</ele>
        <time>2019-06-25T09:37:41Z</time>
      </trkpt>
      <trkpt lat="44.39305" lon="5.94094">
        <ele>577</ele>
        <time>2019-06-25T09:37:42Z</time>
      </trkpt>
      <trkpt lat="44.39299" lon="5.9409">
        <ele>577</ele>
        <time>2019-06-25T09:37:43Z</time>
      </trkpt>
      <trkpt lat="44.39294" lon="5.94086">
        <ele>577</ele>
        <time>2019-06-25T09:37:44Z</time>
      </trkpt>
      <trkpt lat="44.39288" lon="5.94081">
        <ele>577</ele>
        <time>2019-06-25T09:37:45Z</time>
      </trkpt>
      <trkpt lat="44.39283" lon="5.94077">
        <ele>577</ele>
        <time>2019-06-25T09:37:46Z</time>
      </trkpt>
      <trkpt lat="44.39278" lon="5.94073">
        <ele>577</ele>
        <time>2019-06-25T09:37:47Z</time>
      </trkpt>
      <trkpt lat="44.39272" lon="5.94069">
        <ele>577</ele>
        <time>2019-06-25T09:37:48Z</time>
      </trkpt>
      <trkpt lat="44.39267" lon="5.94064">
        <ele>577</ele>
        <time>2019-06-25T09:37:49Z</time>
      </trkpt>
      <trkpt lat="44.39262" lon="5.9406">
        <ele>577</ele>
        <time>2019-06-25T09:37:50Z</time>
      </trkpt>
      <trkpt lat="44.39257" lon="5.94055">
        <ele>577</ele>
        <time>2019-06-25T09:37:51Z</time>
      </trkpt>
      <trkpt lat="44.39251" lon="5.94051">
        <ele>577</ele>
        <time>2019-06-25T09:37:52Z</time>
      </trkpt>
      <trkpt lat="44.39246" lon="5.94047">
        <ele>577</ele>
        <time>2019-06-25T09:37:53Z</time>
      </trkpt>
      <trkpt lat="44.39241" lon="5.94042">
        <ele>577</ele>
        <time>2019-06-25T09:37:54Z</time>
      </trkpt>
      <trkpt lat="44.39236" lon="5.94038">
        <ele>577</ele>
        <time>2019-06-25T09:37:55Z</time>
      </trkpt>
      <trkpt lat="44.3923" lon="5.94034">
        <ele>577</ele>
        <time>2019-06-25T09:37:56Z</time>
      </trkpt>
      <trkpt lat="44.39225" lon="5.9403">
        <ele>577</ele>
        <time>2019-06-25T09:37:57Z</time>
      </trkpt>
      <trkpt lat="44.3922" lon="5.94025">
        <ele>577</ele>
        <time>2019-06-25T09:37:58Z</time>
      </trkpt>
      <trkpt lat="44.39215" lon="5.94021">
        <ele>577</ele>
        <time>2019-06-25T09:37:59Z</time>
      </trkpt>
      <trkpt lat="44.3921" lon="5.94016">
        <ele>577</ele>
        <time>2019-06-25T09:38:00Z</time>
      </trkpt>
      <trkpt lat="44.39205" lon="5.94012">
        <ele>577</ele>
        <time>2019-06-25T09:38:01Z</time>
      </trkpt>
      <trkpt lat="44.392" lon="5.94008">
        <ele>577</ele>
        <time>2019-06-25T09:38:02Z</time>
      </trkpt>
      <trkpt lat="44.39195" lon="5.94003">
        <ele>577</ele>
        <time>2019-06-25T09:38:03Z</time>
      </trkpt>
      <trkpt lat="44.3919" lon="5.93999">
        <ele>577</ele>
        <time>2019-06-25T09:38:04Z</time>
      </trkpt>
      <trkpt lat="44.39185" lon="5.93994">
        <ele>577</ele>
        <time>2019-06-25T09:38:05Z</time>
      </trkpt>
      <trkpt lat="44.3918" lon="5.9399">
        <ele>577</ele>
        <time>2019-06-25T09:38:06Z</time>
      </trkpt>
      <trkpt lat="44.39175" lon="5.93985">
        <ele>577</ele>
        <time>2019-06-25T09:38:07Z</time>
      </trkpt>
      <trkpt lat="44.3917" lon="5.93981">
        <ele>577</ele>
        <time>2019-06-25T09:38:08Z</time>
      </trkpt>
      <trkpt lat="44.39165" lon="5.93977">
        <ele>577</ele>
        <time>2019-06-25T09:38:09Z</time>
      </trkpt>
      <trkpt lat="44.39159" lon="5.93973">
        <ele>577</ele>
        <time>2019-06-25T09:38:10Z</time>
      </trkpt>
      <trkpt lat="44.39154" lon="5.93968">
        <ele>577</ele>
        <time>2019-06-25T09:38:11Z</time>
      </trkpt>
      <trkpt lat="44.39149" lon="5.93964">
        <ele>577</ele>
        <time>2019-06-25T09:38:12Z</time>
      </trkpt>
      <trkpt lat="44.39144" lon="5.9396">
        <ele>577</ele>
        <time>2019-06-25T09:38:13Z</time>
      </trkpt>
      <trkpt lat="44.39139" lon="5.93955">
        <ele>577</ele>
        <time>2019-06-25T09:38:14Z</time>
      </trkpt>
      <trkpt lat="44.39134" lon="5.93951">
        <ele>577</ele>
        <time>2019-06-25T09:38:15Z</time>
      </trkpt>
      <trkpt lat="44.39129" lon="5.93946">
        <ele>577</ele>
        <time>2019-06-25T09:38:16Z</time>
      </trkpt>
      <trkpt lat="44.39124" lon="5.93942">
        <ele>577</ele>
        <time>2019-06-25T09:38:17Z</time>
      </trkpt>
      <trkpt lat="44.39119" lon="5.93938">
        <ele>577</ele>
        <time>2019-06-25T09:38:18Z</time>
      </trkpt>
      <trkpt lat="44.39114" lon="5.93933">
        <ele>577</ele>
        <time>2019-06-25T09:38:19Z</time>
      </trkpt>
      <trkpt lat="44.39109" lon="5.93929">
        <ele>577</ele>
        <time>2019-06-25T09:38:20Z</time>
      </trkpt>
      <trkpt lat="44.39104" lon="5.93925">
        <ele>577</ele>
        <time>2019-06-25T09:38:21Z</time>
      </trkpt>
      <trkpt lat="44.39099" lon="5.93921">
        <ele>577</ele>
        <time>2019-06-25T09:38:22Z</time>
      </trkpt>
      <trkpt lat="44.39094" lon="5.93916">
        <ele>577</ele>
        <time>2019-06-25T09:38:23Z</time>
      </trkpt>
      <trkpt lat="44.39089" lon="5.93912">
        <ele>577</ele>
        <time>2019-06-25T09:38:24Z</time>
      </trkpt>
      <trkpt lat="44.39084" lon="5.93908">
        <ele>577</ele>
        <time>2019-06-25T09:38:25Z</time>
      </trkpt>
      <trkpt lat="44.39079" lon="5.93904">
        <ele>577</ele>
        <time>2019-06-25T09:38:26Z</time>
      </trkpt>
      <trkpt lat="44.39074" lon="5.939">
        <ele>577</ele>
        <time>2019-06-25T09:38:27Z</time>
      </trkpt>
      <trkpt lat="44.39069" lon="5.93895">
        <ele>577</ele>
        <time>2019-06-25T09:38:28Z</time>
      </trkpt>
      <trkpt lat="44.39064" lon="5.93891">
        <ele>577</ele>
        <time>2019-06-25T09:38:29Z</time>
      </trkpt>
      <trkpt lat="44.39059" lon="5.93887">
        <ele>577</ele>
        <time>2019-06-25T09:38:30Z</time>
      </trkpt>
      <trkpt lat="44.39055" lon="5.93883">
        <ele>577</ele>
        <time>2019-06-25T09:38:31Z</time>
      </trkpt>
      <trkpt lat="44.3905" lon="5.93879">
        <ele>577</ele>
        <time>2019-06-25T09:38:33Z</time>
      </trkpt>
      <trkpt lat="44.39045" lon="5.93875">
        <ele>577</ele>
        <time>2019-06-25T09:38:33Z</time>
      </trkpt>
      <trkpt lat="44.3904" lon="5.9387">
        <ele>577</ele>
        <time>2019-06-25T09:38:34Z</time>
      </trkpt>
      <trkpt lat="44.39035" lon="5.93866">
        <ele>577</ele>
        <time>2019-06-25T09:38:35Z</time>
      </trkpt>
      <trkpt lat="44.39031" lon="5.93862">
        <ele>577</ele>
        <time>2019-06-25T09:38:36Z</time>
      </trkpt>
      <trkpt lat="44.39026" lon="5.93858">
        <ele>577</ele>
        <time>2019-06-25T09:38:37Z</time>
      </trkpt>
      <trkpt lat="44.39022" lon="5.93855">
        <ele>577</ele>
        <time>2019-06-25T09:38:38Z</time>
      </trkpt>
      <trkpt lat="44.39017" lon="5.93851">
        <ele>577</ele>
        <time>2019-06-25T09:38:39Z</time>
      </trkpt>
      <trkpt lat="44.39013" lon="5.93847">
        <ele>577</ele>
        <time>2019-06-25T09:38:40Z</time>
      </trkpt>
      <trkpt lat="44.39008" lon="5.93843">
        <ele>577</ele>
        <time>2019-06-25T09:38:41Z</time>
      </trkpt>
      <trkpt lat="44.39004" lon="5.93839">
        <ele>577</ele>
        <time>2019-06-25T09:38:42Z</time>
      </trkpt>
      <trkpt lat="44.38999" lon="5.93835">
        <ele>577</ele>
        <time>2019-06-25T09:38:43Z</time>
      </trkpt>
      <trkpt lat="44.38994" lon="5.93831">
        <ele>577</ele>
        <time>2019-06-25T09:38:45Z</time>
      </trkpt>
      <trkpt lat="44.3899" lon="5.93827">
        <ele>577</ele>
        <time>2019-06-25T09:38:45Z</time>
      </trkpt>
      <trkpt lat="44.38985" lon="5.93823">
        <ele>577</ele>
        <time>2019-06-25T09:38:46Z</time>
      </trkpt>
      <trkpt lat="44.3898" lon="5.93819">
        <ele>577</ele>
        <time>2019-06-25T09:38:47Z</time>
      </trkpt>
      <trkpt lat="44.38975" lon="5.93816">
        <ele>577</ele>
        <time>2019-06-25T09:38:48Z</time>
      </trkpt>
      <trkpt lat="44.38971" lon="5.93812">
        <ele>577</ele>
        <time>2019-06-25T09:38:49Z</time>
      </trkpt>
      <trkpt lat="44.38966" lon="5.93808">
        <ele>577</ele>
        <time>2019-06-25T09:38:51Z</time>
      </trkpt>
      <trkpt lat="44.38961" lon="5.93804">
        <ele>577</ele>
        <time>2019-06-25T09:38:51Z</time>
      </trkpt>
      <trkpt lat="44.38956" lon="5.938">
        <ele>577</ele>
        <time>2019-06-25T09:38:52Z</time>
      </trkpt>
      <trkpt lat="44.38951" lon="5.93796">
        <ele>577</ele>
        <time>2019-06-25T09:38:53Z</time>
      </trkpt>
      <trkpt lat="44.38947" lon="5.93792">
        <ele>577</ele>
        <time>2019-06-25T09:38:54Z</time>
      </trkpt>
      <trkpt lat="44.38942" lon="5.93788">
        <ele>577</ele>
        <time>2019-06-25T09:38:55Z</time>
      </trkpt>
      <trkpt lat="44.38937" lon="5.93784">
        <ele>577</ele>
        <time>2019-06-25T09:38:56Z</time>
      </trkpt>
      <trkpt lat="44.38933" lon="5.9378">
        <ele>577</ele>
        <time>2019-06-25T09:38:57Z</time>
      </trkpt>
      <trkpt lat="44.38928" lon="5.93775">
        <ele>577</ele>
        <time>2019-06-25T09:38:58Z</time>
      </trkpt>
      <trkpt lat="44.38923" lon="5.93771">
        <ele>577</ele>
        <time>2019-06-25T09:38:59Z</time>
      </trkpt>
      <trkpt lat="44.38919" lon="5.93767">
        <ele>577</ele>
        <time>2019-06-25T09:39:00Z</time>
      </trkpt>
      <trkpt lat="44.38914" lon="5.93763">
        <ele>577</ele>
        <time>2019-06-25T09:39:01Z</time>
      </trkpt>
      <trkpt lat="44.38909" lon="5.93759">
        <ele>577</ele>
        <time>2019-06-25T09:39:02Z</time>
      </trkpt>
      <trkpt lat="44.38904" lon="5.93755">
        <ele>577</ele>
        <time>2019-06-25T09:39:03Z</time>
      </trkpt>
      <trkpt lat="44.38899" lon="5.93751">
        <ele>577</ele>
        <time>2019-06-25T09:39:04Z</time>
      </trkpt>
      <trkpt lat="44.38895" lon="5.93747">
        <ele>577</ele>
        <time>2019-06-25T09:39:05Z</time>
      </trkpt>
      <trkpt lat="44.3889" lon="5.93743">
        <ele>577</ele>
        <time>2019-06-25T09:39:06Z</time>
      </trkpt>
      <trkpt lat="44.38885" lon="5.93739">
        <ele>577</ele>
        <time>2019-06-25T09:39:07Z</time>
      </trkpt>
      <trkpt lat="44.3888" lon="5.93735">
        <ele>577</ele>
        <time>2019-06-25T09:39:08Z</time>
      </trkpt>
      <trkpt lat="44.38875" lon="5.93731">
        <ele>577</ele>
        <time>2019-06-25T09:39:09Z</time>
      </trkpt>
      <trkpt lat="44.3887" lon="5.93727">
        <ele>577</ele>
        <time>2019-06-25T09:39:10Z</time>
      </trkpt>
      <trkpt lat="44.38866" lon="5.93722">
        <ele>577</ele>
        <time>2019-06-25T09:39:11Z</time>
      </trkpt>
      <trkpt lat="44.38861" lon="5.93718">
        <ele>577</ele>
        <time>2019-06-25T09:39:12Z</time>
      </trkpt>
      <trkpt lat="44.38856" lon="5.93714">
        <ele>577</ele>
        <time>2019-06-25T09:39:13Z</time>
      </trkpt>
      <trkpt lat="44.3885" lon="5.93711">
        <ele>577</ele>
        <time>2019-06-25T09:39:14Z</time>
      </trkpt>
      <trkpt lat="44.38845" lon="5.93707">
        <ele>576</ele>
        <time>2019-06-25T09:39:15Z</time>
      </trkpt>
      <trkpt lat="44.3884" lon="5.93702">
        <ele>576</ele>
        <time>2019-06-25T09:39:16Z</time>
      </trkpt>
      <trkpt lat="44.38835" lon="5.93698">
        <ele>576</ele>
        <time>2019-06-25T09:39:17Z</time>
      </trkpt>
      <trkpt lat="44.38831" lon="5.93694">
        <ele>576</ele>
        <time>2019-06-25T09:39:18Z</time>
      </trkpt>
      <trkpt lat="44.38826" lon="5.9369">
        <ele>576</ele>
        <time>2019-06-25T09:39:19Z</time>
      </trkpt>
      <trkpt lat="44.38821" lon="5.93686">
        <ele>576</ele>
        <time>2019-06-25T09:39:20Z</time>
      </trkpt>
      <trkpt lat="44.38816" lon="5.93682">
        <ele>576</ele>
        <time>2019-06-25T09:39:21Z</time>
      </trkpt>
      <trkpt lat="44.38811" lon="5.93678">
        <ele>576</ele>
        <time>2019-06-25T09:39:22Z</time>
      </trkpt>
      <trkpt lat="44.38807" lon="5.93674">
        <ele>576</ele>
        <time>2019-06-25T09:39:23Z</time>
      </trkpt>
      <trkpt lat="44.38802" lon="5.9367">
        <ele>576</ele>
        <time>2019-06-25T09:39:24Z</time>
      </trkpt>
      <trkpt lat="44.38798" lon="5.93666">
        <ele>576</ele>
        <time>2019-06-25T09:39:25Z</time>
      </trkpt>
      <trkpt lat="44.38794" lon="5.93662">
        <ele>576</ele>
        <time>2019-06-25T09:39:26Z</time>
      </trkpt>
      <trkpt lat="44.38789" lon="5.93658">
        <ele>576</ele>
        <time>2019-06-25T09:39:27Z</time>
      </trkpt>
      <trkpt lat="44.38785" lon="5.93654">
        <ele>576</ele>
        <time>2019-06-25T09:39:28Z</time>
      </trkpt>
      <trkpt lat="44.3878" lon="5.9365">
        <ele>576</ele>
        <time>2019-06-25T09:39:29Z</time>
      </trkpt>
      <trkpt lat="44.38776" lon="5.93647">
        <ele>576</ele>
        <time>2019-06-25T09:39:30Z</time>
      </trkpt>
      <trkpt lat="44.38772" lon="5.93643">
        <ele>576</ele>
        <time>2019-06-25T09:39:31Z</time>
      </trkpt>
      <trkpt lat="44.38768" lon="5.9364">
        <ele>576</ele>
        <time>2019-06-25T09:39:33Z</time>
      </trkpt>
      <trkpt lat="44.38763" lon="5.93636">
        <ele>576</ele>
        <time>2019-06-25T09:39:33Z</time>
      </trkpt>
      <trkpt lat="44.38759" lon="5.93633">
        <ele>576</ele>
        <time>2019-06-25T09:39:34Z</time>
      </trkpt>
      <trkpt lat="44.38755" lon="5.93629">
        <ele>576</ele>
        <time>2019-06-25T09:39:35Z</time>
      </trkpt>
      <trkpt lat="44.38751" lon="5.93625">
        <ele>576</ele>
        <time>2019-06-25T09:39:36Z</time>
      </trkpt>
      <trkpt lat="44.38747" lon="5.93622">
        <ele>576</ele>
        <time>2019-06-25T09:39:37Z</time>
      </trkpt>
      <trkpt lat="44.38743" lon="5.93619">
        <ele>576</ele>
        <time>2019-06-25T09:39:38Z</time>
      </trkpt>
      <trkpt lat="44.38739" lon="5.93615">
        <ele>576</ele>
        <time>2019-06-25T09:39:39Z</time>
      </trkpt>
      <trkpt lat="44.38735" lon="5.93612">
        <ele>576</ele>
        <time>2019-06-25T09:39:40Z</time>
      </trkpt>
      <trkpt lat="44.38731" lon="5.93609">
        <ele>576</ele>
        <time>2019-06-25T09:39:41Z</time>
      </trkpt>
      <trkpt lat="44.38728" lon="5.93606">
        <ele>576</ele>
        <time>2019-06-25T09:39:42Z</time>
      </trkpt>
      <trkpt lat="44.38724" lon="5.93603">
        <ele>576</ele>
        <time>2019-06-25T09:39:43Z</time>
      </trkpt>
      <trkpt lat="44.38721" lon="5.93601">
        <ele>576</ele>
        <time>2019-06-25T09:39:44Z</time>
      </trkpt>
      <trkpt lat="44.38718" lon="5.93598">
        <ele>576</ele>
        <time>2019-06-25T09:39:45Z</time>
      </trkpt>
      <trkpt lat="44.38715" lon="5.93596">
        <ele>576</ele>
        <time>2019-06-25T09:39:46Z</time>
      </trkpt>
      <trkpt lat="44.38712" lon="5.93593">
        <ele>576</ele>
        <time>2019-06-25T09:39:47Z</time>
      </trkpt>
      <trkpt lat="44.38708" lon="5.9359">
        <ele>576</ele>
        <time>2019-06-25T09:39:48Z</time>
      </trkpt>
      <trkpt lat="44.38705" lon="5.93587">
        <ele>576</ele>
        <time>2019-06-25T09:39:49Z</time>
      </trkpt>
      <trkpt lat="44.387" lon="5.93585">
        <ele>576</ele>
        <time>2019-06-25T09:39:50Z</time>
      </trkpt>
      <trkpt lat="44.38697" lon="5.93582">
        <ele>576</ele>
        <time>2019-06-25T09:39:51Z</time>
      </trkpt>
      <trkpt lat="44.38693" lon="5.9358">
        <ele>576</ele>
        <time>2019-06-25T09:39:52Z</time>
      </trkpt>
      <trkpt lat="44.38689" lon="5.93577">
        <ele>576</ele>
        <time>2019-06-25T09:39:53Z</time>
      </trkpt>
      <trkpt lat="44.38684" lon="5.93574">
        <ele>576</ele>
        <time>2019-06-25T09:39:54Z</time>
      </trkpt>
      <trkpt lat="44.38679" lon="5.93571">
        <ele>576</ele>
        <time>2019-06-25T09:39:55Z</time>
      </trkpt>
      <trkpt lat="44.38674" lon="5.93567">
        <ele>576</ele>
        <time>2019-06-25T09:39:56Z</time>
      </trkpt>
      <trkpt lat="44.38669" lon="5.93563">
        <ele>576</ele>
        <time>2019-06-25T09:39:57Z</time>
      </trkpt>
      <trkpt lat="44.38663" lon="5.93559">
        <ele>576</ele>
        <time>2019-06-25T09:39:58Z</time>
      </trkpt>
      <trkpt lat="44.38657" lon="5.93555">
        <ele>576</ele>
        <time>2019-06-25T09:39:59Z</time>
      </trkpt>
      <trkpt lat="44.38651" lon="5.93551">
        <ele>576</ele>
        <time>2019-06-25T09:40:00Z</time>
      </trkpt>
      <trkpt lat="44.38645" lon="5.93548">
        <ele>576</ele>
        <time>2019-06-25T09:40:01Z</time>
      </trkpt>
      <trkpt lat="44.38638" lon="5.93544">
        <ele>576</ele>
        <time>2019-06-25T09:40:02Z</time>
      </trkpt>
      <trkpt lat="44.38632" lon="5.93539">
        <ele>576</ele>
        <time>2019-06-25T09:40:03Z</time>
      </trkpt>
      <trkpt lat="44.38625" lon="5.93535">
        <ele>576</ele>
        <time>2019-06-25T09:40:04Z</time>
      </trkpt>
      <trkpt lat="44.38619" lon="5.9353">
        <ele>576</ele>
        <time>2019-06-25T09:40:05Z</time>
      </trkpt>
      <trkpt lat="44.38612" lon="5.93525">
        <ele>575</ele>
        <time>2019-06-25T09:40:06Z</time>
      </trkpt>
      <trkpt lat="44.38605" lon="5.93519">
        <ele>575</ele>
        <time>2019-06-25T09:40:07Z</time>
      </trkpt>
      <trkpt lat="44.38598" lon="5.93514">
        <ele>575</ele>
        <time>2019-06-25T09:40:08Z</time>
      </trkpt>
      <trkpt lat="44.38591" lon="5.93509">
        <ele>574</ele>
        <time>2019-06-25T09:40:09Z</time>
      </trkpt>
      <trkpt lat="44.38584" lon="5.93503">
        <ele>574</ele>
        <time>2019-06-25T09:40:10Z</time>
      </trkpt>
      <trkpt lat="44.38577" lon="5.93498">
        <ele>574</ele>
        <time>2019-06-25T09:40:11Z</time>
      </trkpt>
      <trkpt lat="44.3857" lon="5.93492">
        <ele>573</ele>
        <time>2019-06-25T09:40:12Z</time>
      </trkpt>
      <trkpt lat="44.38563" lon="5.93487">
        <ele>573</ele>
        <time>2019-06-25T09:40:13Z</time>
      </trkpt>
      <trkpt lat="44.38556" lon="5.93481">
        <ele>573</ele>
        <time>2019-06-25T09:40:14Z</time>
      </trkpt>
      <trkpt lat="44.38549" lon="5.93476">
        <ele>573</ele>
        <time>2019-06-25T09:40:15Z</time>
      </trkpt>
      <trkpt lat="44.38542" lon="5.9347">
        <ele>572</ele>
        <time>2019-06-25T09:40:16Z</time>
      </trkpt>
      <trkpt lat="44.38536" lon="5.93465">
        <ele>572</ele>
        <time>2019-06-25T09:40:17Z</time>
      </trkpt>
      <trkpt lat="44.38529" lon="5.9346">
        <ele>572</ele>
        <time>2019-06-25T09:40:18Z</time>
      </trkpt>
      <trkpt lat="44.38522" lon="5.93456">
        <ele>572</ele>
        <time>2019-06-25T09:40:19Z</time>
      </trkpt>
      <trkpt lat="44.38515" lon="5.93451">
        <ele>572</ele>
        <time>2019-06-25T09:40:20Z</time>
      </trkpt>
      <trkpt lat="44.38509" lon="5.93446">
        <ele>572</ele>
        <time>2019-06-25T09:40:21Z</time>
      </trkpt>
      <trkpt lat="44.38502" lon="5.93441">
        <ele>572</ele>
        <time>2019-06-25T09:40:22Z</time>
      </trkpt>
      <trkpt lat="44.38496" lon="5.93437">
        <ele>572</ele>
        <time>2019-06-25T09:40:23Z</time>
      </trkpt>
      <trkpt lat="44.38489" lon="5.93433">
        <ele>572</ele>
        <time>2019-06-25T09:40:24Z</time>
      </trkpt>
      <trkpt lat="44.38483" lon="5.93428">
        <ele>572</ele>
        <time>2019-06-25T09:40:25Z</time>
      </trkpt>
      <trkpt lat="44.38477" lon="5.93424">
        <ele>572</ele>
        <time>2019-06-25T09:40:26Z</time>
      </trkpt>
      <trkpt lat="44.38471" lon="5.9342">
        <ele>572</ele>
        <time>2019-06-25T09:40:27Z</time>
      </trkpt>
      <trkpt lat="44.38465" lon="5.93415">
        <ele>572</ele>
        <time>2019-06-25T09:40:28Z</time>
      </trkpt>
      <trkpt lat="44.38459" lon="5.93411">
        <ele>572</ele>
        <time>2019-06-25T09:40:29Z</time>
      </trkpt>
      <trkpt lat="44.38453" lon="5.93407">
        <ele>572</ele>
        <time>2019-06-25T09:40:30Z</time>
      </trkpt>
      <trkpt lat="44.38447" lon="5.93403">
        <ele>572</ele>
        <time>2019-06-25T09:40:31Z</time>
      </trkpt>
      <trkpt lat="44.38441" lon="5.93399">
        <ele>572</ele>
        <time>2019-06-25T09:40:33Z</time>
      </trkpt>
      <trkpt lat="44.38435" lon="5.93394">
        <ele>572</ele>
        <time>2019-06-25T09:40:33Z</time>
      </trkpt>
      <trkpt lat="44.38429" lon="5.9339">
        <ele>572</ele>
        <time>2019-06-25T09:40:34Z</time>
      </trkpt>
      <trkpt lat="44.38423" lon="5.93386">
        <ele>572</ele>
        <time>2019-06-25T09:40:35Z</time>
      </trkpt>
      <trkpt lat="44.38417" lon="5.93382">
        <ele>572</ele>
        <time>2019-06-25T09:40:36Z</time>
      </trkpt>
      <trkpt lat="44.38411" lon="5.93378">
        <ele>572</ele>
        <time>2019-06-25T09:40:37Z</time>
      </trkpt>
      <trkpt lat="44.38405" lon="5.93374">
        <ele>572</ele>
        <time>2019-06-25T09:40:38Z</time>
      </trkpt>
      <trkpt lat="44.384" lon="5.9337">
        <ele>572</ele>
        <time>2019-06-25T09:40:39Z</time>
      </trkpt>
      <trkpt lat="44.38394" lon="5.93366">
        <ele>572</ele>
        <time>2019-06-25T09:40:40Z</time>
      </trkpt>
      <trkpt lat="44.38388" lon="5.93362">
        <ele>572</ele>
        <time>2019-06-25T09:40:41Z</time>
      </trkpt>
      <trkpt lat="44.38383" lon="5.93358">
        <ele>572</ele>
        <time>2019-06-25T09:40:42Z</time>
      </trkpt>
      <trkpt lat="44.38377" lon="5.93354">
        <ele>572</ele>
        <time>2019-06-25T09:40:43Z</time>
      </trkpt>
      <trkpt lat="44.38372" lon="5.93351">
        <ele>572</ele>
        <time>2019-06-25T09:40:45Z</time>
      </trkpt>
      <trkpt lat="44.38366" lon="5.93347">
        <ele>572</ele>
        <time>2019-06-25T09:40:46Z</time>
      </trkpt>
      <trkpt lat="44.38361" lon="5.93343">
        <ele>572</ele>
        <time>2019-06-25T09:40:46Z</time>
      </trkpt>
      <trkpt lat="44.38355" lon="5.93339">
        <ele>572</ele>
        <time>2019-06-25T09:40:47Z</time>
      </trkpt>
      <trkpt lat="44.38349" lon="5.93336">
        <ele>572</ele>
        <time>2019-06-25T09:40:48Z</time>
      </trkpt>
      <trkpt lat="44.38343" lon="5.93332">
        <ele>572</ele>
        <time>2019-06-25T09:40:49Z</time>
      </trkpt>
      <trkpt lat="44.38338" lon="5.93328">
        <ele>572</ele>
        <time>2019-06-25T09:40:50Z</time>
      </trkpt>
      <trkpt lat="44.38332" lon="5.93325">
        <ele>572</ele>
        <time>2019-06-25T09:40:51Z</time>
      </trkpt>
      <trkpt lat="44.38327" lon="5.93321">
        <ele>572</ele>
        <time>2019-06-25T09:40:52Z</time>
      </trkpt>
      <trkpt lat="44.38322" lon="5.93317">
        <ele>572</ele>
        <time>2019-06-25T09:40:53Z</time>
      </trkpt>
      <trkpt lat="44.38316" lon="5.93314">
        <ele>572</ele>
        <time>2019-06-25T09:40:54Z</time>
      </trkpt>
      <trkpt lat="44.38311" lon="5.9331">
        <ele>572</ele>
        <time>2019-06-25T09:40:55Z</time>
      </trkpt>
      <trkpt lat="44.38306" lon="5.93306">
        <ele>572</ele>
        <time>2019-06-25T09:40:56Z</time>
      </trkpt>
      <trkpt lat="44.383" lon="5.93303">
        <ele>572</ele>
        <time>2019-06-25T09:40:57Z</time>
      </trkpt>
      <trkpt lat="44.38295" lon="5.93299">
        <ele>572</ele>
        <time>2019-06-25T09:40:58Z</time>
      </trkpt>
      <trkpt lat="44.38289" lon="5.93296">
        <ele>572</ele>
        <time>2019-06-25T09:40:59Z</time>
      </trkpt>
      <trkpt lat="44.38284" lon="5.93292">
        <ele>572</ele>
        <time>2019-06-25T09:41:01Z</time>
      </trkpt>
      <trkpt lat="44.38279" lon="5.93289">
        <ele>572</ele>
        <time>2019-06-25T09:41:01Z</time>
      </trkpt>
      <trkpt lat="44.38273" lon="5.93286">
        <ele>572</ele>
        <time>2019-06-25T09:41:02Z</time>
      </trkpt>
      <trkpt lat="44.38268" lon="5.93282">
        <ele>572</ele>
        <time>2019-06-25T09:41:03Z</time>
      </trkpt>
      <trkpt lat="44.38263" lon="5.93279">
        <ele>572</ele>
        <time>2019-06-25T09:41:04Z</time>
      </trkpt>
      <trkpt lat="44.38258" lon="5.93275">
        <ele>572</ele>
        <time>2019-06-25T09:41:05Z</time>
      </trkpt>
      <trkpt lat="44.38253" lon="5.93272">
        <ele>572</ele>
        <time>2019-06-25T09:41:06Z</time>
      </trkpt>
      <trkpt lat="44.38248" lon="5.93268">
        <ele>572</ele>
        <time>2019-06-25T09:41:07Z</time>
      </trkpt>
      <trkpt lat="44.38243" lon="5.93265">
        <ele>572</ele>
        <time>2019-06-25T09:41:08Z</time>
      </trkpt>
      <trkpt lat="44.38238" lon="5.93262">
        <ele>572</ele>
        <time>2019-06-25T09:41:09Z</time>
      </trkpt>
      <trkpt lat="44.38233" lon="5.93258">
        <ele>572</ele>
        <time>2019-06-25T09:41:10Z</time>
      </trkpt>
      <trkpt lat="44.38228" lon="5.93255">
        <ele>572</ele>
        <time>2019-06-25T09:41:11Z</time>
      </trkpt>
      <trkpt lat="44.38224" lon="5.93252">
        <ele>572</ele>
        <time>2019-06-25T09:41:12Z</time>
      </trkpt>
      <trkpt lat="44.38219" lon="5.93249">
        <ele>572</ele>
        <time>2019-06-25T09:41:13Z</time>
      </trkpt>
      <trkpt lat="44.38214" lon="5.93245">
        <ele>572</ele>
        <time>2019-06-25T09:41:14Z</time>
      </trkpt>
      <trkpt lat="44.38209" lon="5.93242">
        <ele>572</ele>
        <time>2019-06-25T09:41:15Z</time>
      </trkpt>
      <trkpt lat="44.38204" lon="5.93239">
        <ele>572</ele>
        <time>2019-06-25T09:41:16Z</time>
      </trkpt>
      <trkpt lat="44.382" lon="5.93235">
        <ele>572</ele>
        <time>2019-06-25T09:41:17Z</time>
      </trkpt>
      <trkpt lat="44.38195" lon="5.93232">
        <ele>572</ele>
        <time>2019-06-25T09:41:18Z</time>
      </trkpt>
      <trkpt lat="44.3819" lon="5.93228">
        <ele>572</ele>
        <time>2019-06-25T09:41:19Z</time>
      </trkpt>
      <trkpt lat="44.38185" lon="5.93225">
        <ele>572</ele>
        <time>2019-06-25T09:41:21Z</time>
      </trkpt>
      <trkpt lat="44.3818" lon="5.93222">
        <ele>572</ele>
        <time>2019-06-25T09:41:21Z</time>
      </trkpt>
      <trkpt lat="44.38175" lon="5.93218">
        <ele>572</ele>
        <time>2019-06-25T09:41:22Z</time>
      </trkpt>
      <trkpt lat="44.3817" lon="5.93215">
        <ele>572</ele>
        <time>2019-06-25T09:41:23Z</time>
      </trkpt>
      <trkpt lat="44.38165" lon="5.93211">
        <ele>572</ele>
        <time>2019-06-25T09:41:24Z</time>
      </trkpt>
      <trkpt lat="44.38159" lon="5.93208">
        <ele>572</ele>
        <time>2019-06-25T09:41:25Z</time>
      </trkpt>
      <trkpt lat="44.38154" lon="5.93204">
        <ele>572</ele>
        <time>2019-06-25T09:41:26Z</time>
      </trkpt>
      <trkpt lat="44.38149" lon="5.93201">
        <ele>572</ele>
        <time>2019-06-25T09:41:27Z</time>
      </trkpt>
      <trkpt lat="44.38143" lon="5.93197">
        <ele>572</ele>
        <time>2019-06-25T09:41:28Z</time>
      </trkpt>
      <trkpt lat="44.38138" lon="5.93193">
        <ele>572</ele>
        <time>2019-06-25T09:41:29Z</time>
      </trkpt>
      <trkpt lat="44.38133" lon="5.9319">
        <ele>572</ele>
        <time>2019-06-25T09:41:30Z</time>
      </trkpt>
      <trkpt lat="44.38127" lon="5.93186">
        <ele>572</ele>
        <time>2019-06-25T09:41:31Z</time>
      </trkpt>
      <trkpt lat="44.38122" lon="5.93182">
        <ele>572</ele>
        <time>2019-06-25T09:41:33Z</time>
      </trkpt>
      <trkpt lat="44.38116" lon="5.93178">
        <ele>572</ele>
        <time>2019-06-25T09:41:33Z</time>
      </trkpt>
      <trkpt lat="44.38111" lon="5.93174">
        <ele>572</ele>
        <time>2019-06-25T09:41:34Z</time>
      </trkpt>
      <trkpt lat="44.38105" lon="5.9317">
        <ele>572</ele>
        <time>2019-06-25T09:41:35Z</time>
      </trkpt>
      <trkpt lat="44.381" lon="5.93166">
        <ele>572</ele>
        <time>2019-06-25T09:41:36Z</time>
      </trkpt>
      <trkpt lat="44.38094" lon="5.93161">
        <ele>572</ele>
        <time>2019-06-25T09:41:37Z</time>
      </trkpt>
      <trkpt lat="44.38089" lon="5.93157">
        <ele>572</ele>
        <time>2019-06-25T09:41:38Z</time>
      </trkpt>
      <trkpt lat="44.38083" lon="5.93153">
        <ele>572</ele>
        <time>2019-06-25T09:41:39Z</time>
      </trkpt>
      <trkpt lat="44.38078" lon="5.93149">
        <ele>572</ele>
        <time>2019-06-25T09:41:40Z</time>
      </trkpt>
      <trkpt lat="44.38072" lon="5.93145">
        <ele>572</ele>
        <time>2019-06-25T09:41:41Z</time>
      </trkpt>
      <trkpt lat="44.38067" lon="5.93141">
        <ele>572</ele>
        <time>2019-06-25T09:41:42Z</time>
      </trkpt>
      <trkpt lat="44.38061" lon="5.93137">
        <ele>572</ele>
        <time>2019-06-25T09:41:43Z</time>
      </trkpt>
      <trkpt lat="44.38055" lon="5.93133">
        <ele>572</ele>
        <time>2019-06-25T09:41:44Z</time>
      </trkpt>
      <trkpt lat="44.3805" lon="5.93129">
        <ele>572</ele>
        <time>2019-06-25T09:41:45Z</time>
      </trkpt>
      <trkpt lat="44.38044" lon="5.93125">
        <ele>572</ele>
        <time>2019-06-25T09:41:46Z</time>
      </trkpt>
      <trkpt lat="44.38039" lon="5.93121">
        <ele>572</ele>
        <time>2019-06-25T09:41:47Z</time>
      </trkpt>
      <trkpt lat="44.38034" lon="5.93117">
        <ele>572</ele>
        <time>2019-06-25T09:41:48Z</time>
      </trkpt>
      <trkpt lat="44.38028" lon="5.93113">
        <ele>572</ele>
        <time>2019-06-25T09:41:49Z</time>
      </trkpt>
      <trkpt lat="44.38023" lon="5.93109">
        <ele>572</ele>
        <time>2019-06-25T09:41:50Z</time>
      </trkpt>
      <trkpt lat="44.38018" lon="5.93105">
        <ele>572</ele>
        <time>2019-06-25T09:41:51Z</time>
      </trkpt>
      <trkpt lat="44.38012" lon="5.93101">
        <ele>571</ele>
        <time>2019-06-25T09:41:52Z</time>
      </trkpt>
      <trkpt lat="44.38007" lon="5.93097">
        <ele>571</ele>
        <time>2019-06-25T09:41:53Z</time>
      </trkpt>
      <trkpt lat="44.38002" lon="5.93093">
        <ele>571</ele>
        <time>2019-06-25T09:41:54Z</time>
      </trkpt>
      <trkpt lat="44.37996" lon="5.93089">
        <ele>571</ele>
        <time>2019-06-25T09:41:55Z</time>
      </trkpt>
      <trkpt lat="44.37991" lon="5.93085">
        <ele>571</ele>
        <time>2019-06-25T09:41:56Z</time>
      </trkpt>
      <trkpt lat="44.37985" lon="5.93081">
        <ele>571</ele>
        <time>2019-06-25T09:41:57Z</time>
      </trkpt>
      <trkpt lat="44.3798" lon="5.93077">
        <ele>570</ele>
        <time>2019-06-25T09:41:58Z</time>
      </trkpt>
      <trkpt lat="44.37974" lon="5.93073">
        <ele>570</ele>
        <time>2019-06-25T09:41:59Z</time>
      </trkpt>
      <trkpt lat="44.37969" lon="5.93069">
        <ele>570</ele>
        <time>2019-06-25T09:42:00Z</time>
      </trkpt>
      <trkpt lat="44.37963" lon="5.93065">
        <ele>570</ele>
        <time>2019-06-25T09:42:01Z</time>
      </trkpt>
      <trkpt lat="44.37958" lon="5.93061">
        <ele>570</ele>
        <time>2019-06-25T09:42:02Z</time>
      </trkpt>
      <trkpt lat="44.37952" lon="5.93057">
        <ele>569</ele>
        <time>2019-06-25T09:42:03Z</time>
      </trkpt>
      <trkpt lat="44.37947" lon="5.93053">
        <ele>569</ele>
        <time>2019-06-25T09:42:04Z</time>
      </trkpt>
      <trkpt lat="44.37941" lon="5.93049">
        <ele>569</ele>
        <time>2019-06-25T09:42:05Z</time>
      </trkpt>
      <trkpt lat="44.37936" lon="5.93045">
        <ele>569</ele>
        <time>2019-06-25T09:42:06Z</time>
      </trkpt>
      <trkpt lat="44.3793" lon="5.93041">
        <ele>569</ele>
        <time>2019-06-25T09:42:07Z</time>
      </trkpt>
      <trkpt lat="44.37925" lon="5.93037">
        <ele>569</ele>
        <time>2019-06-25T09:42:08Z</time>
      </trkpt>
      <trkpt lat="44.37919" lon="5.93033">
        <ele>569</ele>
        <time>2019-06-25T09:42:09Z</time>
      </trkpt>
      <trkpt lat="44.37913" lon="5.93029">
        <ele>569</ele>
        <time>2019-06-25T09:42:10Z</time>
      </trkpt>
      <trkpt lat="44.37908" lon="5.93025">
        <ele>569</ele>
        <time>2019-06-25T09:42:11Z</time>
      </trkpt>
      <trkpt lat="44.37902" lon="5.93021">
        <ele>569</ele>
        <time>2019-06-25T09:42:12Z</time>
      </trkpt>
      <trkpt lat="44.37896" lon="5.93017">
        <ele>569</ele>
        <time>2019-06-25T09:42:13Z</time>
      </trkpt>
      <trkpt lat="44.37891" lon="5.93014">
        <ele>569</ele>
        <time>2019-06-25T09:42:14Z</time>
      </trkpt>
      <trkpt lat="44.37885" lon="5.9301">
        <ele>569</ele>
        <time>2019-06-25T09:42:15Z</time>
      </trkpt>
      <trkpt lat="44.3788" lon="5.93006">
        <ele>569</ele>
        <time>2019-06-25T09:42:16Z</time>
      </trkpt>
      <trkpt lat="44.37874" lon="5.93002">
        <ele>569</ele>
        <time>2019-06-25T09:42:17Z</time>
      </trkpt>
      <trkpt lat="44.37869" lon="5.92998">
        <ele>569</ele>
        <time>2019-06-25T09:42:18Z</time>
      </trkpt>
      <trkpt lat="44.37864" lon="5.92995">
        <ele>569</ele>
        <time>2019-06-25T09:42:19Z</time>
      </trkpt>
      <trkpt lat="44.37858" lon="5.92991">
        <ele>569</ele>
        <time>2019-06-25T09:42:20Z</time>
      </trkpt>
      <trkpt lat="44.37853" lon="5.92988">
        <ele>569</ele>
        <time>2019-06-25T09:42:21Z</time>
      </trkpt>
      <trkpt lat="44.37848" lon="5.92984">
        <ele>569</ele>
        <time>2019-06-25T09:42:22Z</time>
      </trkpt>
      <trkpt lat="44.37843" lon="5.92981">
        <ele>569</ele>
        <time>2019-06-25T09:42:23Z</time>
      </trkpt>
      <trkpt lat="44.37838" lon="5.92978">
        <ele>569</ele>
        <time>2019-06-25T09:42:24Z</time>
      </trkpt>
      <trkpt lat="44.37833" lon="5.92974">
        <ele>569</ele>
        <time>2019-06-25T09:42:25Z</time>
      </trkpt>
      <trkpt lat="44.37828" lon="5.92971">
        <ele>569</ele>
        <time>2019-06-25T09:42:26Z</time>
      </trkpt>
      <trkpt lat="44.37822" lon="5.92967">
        <ele>569</ele>
        <time>2019-06-25T09:42:27Z</time>
      </trkpt>
      <trkpt lat="44.37817" lon="5.92963">
        <ele>569</ele>
        <time>2019-06-25T09:42:28Z</time>
      </trkpt>
      <trkpt lat="44.37812" lon="5.9296">
        <ele>569</ele>
        <time>2019-06-25T09:42:29Z</time>
      </trkpt>
      <trkpt lat="44.37807" lon="5.92956">
        <ele>569</ele>
        <time>2019-06-25T09:42:30Z</time>
      </trkpt>
      <trkpt lat="44.37801" lon="5.92953">
        <ele>569</ele>
        <time>2019-06-25T09:42:31Z</time>
      </trkpt>
      <trkpt lat="44.37796" lon="5.92949">
        <ele>569</ele>
        <time>2019-06-25T09:42:33Z</time>
      </trkpt>
      <trkpt lat="44.37791" lon="5.92946">
        <ele>569</ele>
        <time>2019-06-25T09:42:33Z</time>
      </trkpt>
      <trkpt lat="44.37785" lon="5.92942">
        <ele>569</ele>
        <time>2019-06-25T09:42:34Z</time>
      </trkpt>
      <trkpt lat="44.3778" lon="5.92939">
        <ele>569</ele>
        <time>2019-06-25T09:42:35Z</time>
      </trkpt>
      <trkpt lat="44.37775" lon="5.92935">
        <ele>569</ele>
        <time>2019-06-25T09:42:36Z</time>
      </trkpt>
      <trkpt lat="44.3777" lon="5.92931">
        <ele>569</ele>
        <time>2019-06-25T09:42:37Z</time>
      </trkpt>
      <trkpt lat="44.37765" lon="5.92928">
        <ele>569</ele>
        <time>2019-06-25T09:42:38Z</time>
      </trkpt>
      <trkpt lat="44.37759" lon="5.92924">
        <ele>569</ele>
        <time>2019-06-25T09:42:39Z</time>
      </trkpt>
      <trkpt lat="44.37754" lon="5.92921">
        <ele>569</ele>
        <time>2019-06-25T09:42:40Z</time>
      </trkpt>
      <trkpt lat="44.37749" lon="5.92917">
        <ele>569</ele>
        <time>2019-06-25T09:42:41Z</time>
      </trkpt>
      <trkpt lat="44.37744" lon="5.92914">
        <ele>569</ele>
        <time>2019-06-25T09:42:42Z</time>
      </trkpt>
      <trkpt lat="44.37738" lon="5.9291">
        <ele>569</ele>
        <time>2019-06-25T09:42:43Z</time>
      </trkpt>
      <trkpt lat="44.37733" lon="5.92907">
        <ele>569</ele>
        <time>2019-06-25T09:42:44Z</time>
      </trkpt>
      <trkpt lat="44.37728" lon="5.92903">
        <ele>569</ele>
        <time>2019-06-25T09:42:45Z</time>
      </trkpt>
      <trkpt lat="44.37723" lon="5.92899">
        <ele>569</ele>
        <time>2019-06-25T09:42:46Z</time>
      </trkpt>
      <trkpt lat="44.37718" lon="5.92896">
        <ele>569</ele>
        <time>2019-06-25T09:42:47Z</time>
      </trkpt>
      <trkpt lat="44.37713" lon="5.92892">
        <ele>569</ele>
        <time>2019-06-25T09:42:48Z</time>
      </trkpt>
      <trkpt lat="44.37708" lon="5.92888">
        <ele>569</ele>
        <time>2019-06-25T09:42:49Z</time>
      </trkpt>
      <trkpt lat="44.37703" lon="5.92885">
        <ele>569</ele>
        <time>2019-06-25T09:42:50Z</time>
      </trkpt>
      <trkpt lat="44.37698" lon="5.92881">
        <ele>569</ele>
        <time>2019-06-25T09:42:51Z</time>
      </trkpt>
      <trkpt lat="44.37693" lon="5.92878">
        <ele>569</ele>
        <time>2019-06-25T09:42:52Z</time>
      </trkpt>
      <trkpt lat="44.37688" lon="5.92875">
        <ele>569</ele>
        <time>2019-06-25T09:42:53Z</time>
      </trkpt>
      <trkpt lat="44.37683" lon="5.92872">
        <ele>569</ele>
        <time>2019-06-25T09:42:54Z</time>
      </trkpt>
      <trkpt lat="44.37678" lon="5.92869">
        <ele>569</ele>
        <time>2019-06-25T09:42:55Z</time>
      </trkpt>
      <trkpt lat="44.37673" lon="5.92865">
        <ele>569</ele>
        <time>2019-06-25T09:42:56Z</time>
      </trkpt>
      <trkpt lat="44.37669" lon="5.92862">
        <ele>569</ele>
        <time>2019-06-25T09:42:57Z</time>
      </trkpt>
      <trkpt lat="44.37664" lon="5.92859">
        <ele>569</ele>
        <time>2019-06-25T09:42:58Z</time>
      </trkpt>
      <trkpt lat="44.37658" lon="5.92855">
        <ele>569</ele>
        <time>2019-06-25T09:42:59Z</time>
      </trkpt>
      <trkpt lat="44.37654" lon="5.92852">
        <ele>569</ele>
        <time>2019-06-25T09:43:00Z</time>
      </trkpt>
      <trkpt lat="44.37649" lon="5.92849">
        <ele>569</ele>
        <time>2019-06-25T09:43:01Z</time>
      </trkpt>
      <trkpt lat="44.37644" lon="5.92845">
        <ele>569</ele>
        <time>2019-06-25T09:43:02Z</time>
      </trkpt>
      <trkpt lat="44.37639" lon="5.92842">
        <ele>569</ele>
        <time>2019-06-25T09:43:03Z</time>
      </trkpt>
      <trkpt lat="44.37635" lon="5.92839">
        <ele>569</ele>
        <time>2019-06-25T09:43:04Z</time>
      </trkpt>
      <trkpt lat="44.3763" lon="5.92836">
        <ele>569</ele>
        <time>2019-06-25T09:43:05Z</time>
      </trkpt>
      <trkpt lat="44.37625" lon="5.92833">
        <ele>569</ele>
        <time>2019-06-25T09:43:06Z</time>
      </trkpt>
      <trkpt lat="44.3762" lon="5.92829">
        <ele>569</ele>
        <time>2019-06-25T09:43:07Z</time>
      </trkpt>
      <trkpt lat="44.37616" lon="5.92826">
        <ele>569</ele>
        <time>2019-06-25T09:43:08Z</time>
      </trkpt>
      <trkpt lat="44.37611" lon="5.92823">
        <ele>569</ele>
        <time>2019-06-25T09:43:09Z</time>
      </trkpt>
      <trkpt lat="44.37606" lon="5.9282">
        <ele>569</ele>
        <time>2019-06-25T09:43:10Z</time>
      </trkpt>
      <trkpt lat="44.37601" lon="5.92817">
        <ele>569</ele>
        <time>2019-06-25T09:43:11Z</time>
      </trkpt>
      <trkpt lat="44.37597" lon="5.92813">
        <ele>569</ele>
        <time>2019-06-25T09:43:12Z</time>
      </trkpt>
      <trkpt lat="44.37592" lon="5.9281">
        <ele>569</ele>
        <time>2019-06-25T09:43:13Z</time>
      </trkpt>
      <trkpt lat="44.37587" lon="5.92807">
        <ele>569</ele>
        <time>2019-06-25T09:43:15Z</time>
      </trkpt>
      <trkpt lat="44.37583" lon="5.92804">
        <ele>569</ele>
        <time>2019-06-25T09:43:15Z</time>
      </trkpt>
      <trkpt lat="44.37578" lon="5.92801">
        <ele>569</ele>
        <time>2019-06-25T09:43:16Z</time>
      </trkpt>
      <trkpt lat="44.37574" lon="5.92798">
        <ele>569</ele>
        <time>2019-06-25T09:43:17Z</time>
      </trkpt>
      <trkpt lat="44.37569" lon="5.92795">
        <ele>569</ele>
        <time>2019-06-25T09:43:18Z</time>
      </trkpt>
      <trkpt lat="44.37564" lon="5.92791">
        <ele>569</ele>
        <time>2019-06-25T09:43:19Z</time>
      </trkpt>
      <trkpt lat="44.3756" lon="5.92788">
        <ele>569</ele>
        <time>2019-06-25T09:43:20Z</time>
      </trkpt>
      <trkpt lat="44.37555" lon="5.92785">
        <ele>569</ele>
        <time>2019-06-25T09:43:21Z</time>
      </trkpt>
      <trkpt lat="44.37551" lon="5.92782">
        <ele>569</ele>
        <time>2019-06-25T09:43:22Z</time>
      </trkpt>
      <trkpt lat="44.37546" lon="5.92778">
        <ele>569</ele>
        <time>2019-06-25T09:43:23Z</time>
      </trkpt>
      <trkpt lat="44.37542" lon="5.92775">
        <ele>569</ele>
        <time>2019-06-25T09:43:24Z</time>
      </trkpt>
      <trkpt lat="44.37537" lon="5.92772">
        <ele>569</ele>
        <time>2019-06-25T09:43:25Z</time>
      </trkpt>
      <trkpt lat="44.37532" lon="5.92769">
        <ele>569</ele>
        <time>2019-06-25T09:43:26Z</time>
      </trkpt>
      <trkpt lat="44.37527" lon="5.92766">
        <ele>569</ele>
        <time>2019-06-25T09:43:27Z</time>
      </trkpt>
      <trkpt lat="44.37523" lon="5.92763">
        <ele>569</ele>
        <time>2019-06-25T09:43:28Z</time>
      </trkpt>
      <trkpt lat="44.37518" lon="5.9276">
        <ele>569</ele>
        <time>2019-06-25T09:43:29Z</time>
      </trkpt>
      <trkpt lat="44.37513" lon="5.92757">
        <ele>569</ele>
        <time>2019-06-25T09:43:30Z</time>
      </trkpt>
      <trkpt lat="44.37509" lon="5.92753">
        <ele>569</ele>
        <time>2019-06-25T09:43:31Z</time>
      </trkpt>
      <trkpt lat="44.37504" lon="5.9275">
        <ele>569</ele>
        <time>2019-06-25T09:43:33Z</time>
      </trkpt>
      <trkpt lat="44.375" lon="5.92747">
        <ele>569</ele>
        <time>2019-06-25T09:43:33Z</time>
      </trkpt>
      <trkpt lat="44.37495" lon="5.92743">
        <ele>569</ele>
        <time>2019-06-25T09:43:34Z</time>
      </trkpt>
      <trkpt lat="44.3749" lon="5.9274">
        <ele>569</ele>
        <time>2019-06-25T09:43:35Z</time>
      </trkpt>
      <trkpt lat="44.37486" lon="5.92737">
        <ele>569</ele>
        <time>2019-06-25T09:43:36Z</time>
      </trkpt>
      <trkpt lat="44.37481" lon="5.92734">
        <ele>569</ele>
        <time>2019-06-25T09:43:37Z</time>
      </trkpt>
      <trkpt lat="44.37476" lon="5.92731">
        <ele>569</ele>
        <time>2019-06-25T09:43:38Z</time>
      </trkpt>
      <trkpt lat="44.37471" lon="5.92728">
        <ele>569</ele>
        <time>2019-06-25T09:43:39Z</time>
      </trkpt>
      <trkpt lat="44.37467" lon="5.92725">
        <ele>569</ele>
        <time>2019-06-25T09:43:40Z</time>
      </trkpt>
      <trkpt lat="44.37462" lon="5.92722">
        <ele>569</ele>
        <time>2019-06-25T09:43:41Z</time>
      </trkpt>
      <trkpt lat="44.37457" lon="5.92718">
        <ele>569</ele>
        <time>2019-06-25T09:43:42Z</time>
      </trkpt>
      <trkpt lat="44.37452" lon="5.92715">
        <ele>569</ele>
        <time>2019-06-25T09:43:43Z</time>
      </trkpt>
      <trkpt lat="44.37448" lon="5.92712">
        <ele>569</ele>
        <time>2019-06-25T09:43:44Z</time>
      </trkpt>
      <trkpt lat="44.37443" lon="5.92709">
        <ele>569</ele>
        <time>2019-06-25T09:43:45Z</time>
      </trkpt>
      <trkpt lat="44.37438" lon="5.92705">
        <ele>569</ele>
        <time>2019-06-25T09:43:46Z</time>
      </trkpt>
      <trkpt lat="44.37433" lon="5.92702">
        <ele>569</ele>
        <time>2019-06-25T09:43:47Z</time>
      </trkpt>
      <trkpt lat="44.37429" lon="5.92698">
        <ele>569</ele>
        <time>2019-06-25T09:43:48Z</time>
      </trkpt>
      <trkpt lat="44.37423" lon="5.92695">
        <ele>569</ele>
        <time>2019-06-25T09:43:49Z</time>
      </trkpt>
      <trkpt lat="44.37418" lon="5.92692">
        <ele>569</ele>
        <time>2019-06-25T09:43:50Z</time>
      </trkpt>
      <trkpt lat="44.37413" lon="5.92689">
        <ele>569</ele>
        <time>2019-06-25T09:43:51Z</time>
      </trkpt>
      <trkpt lat="44.37408" lon="5.92686">
        <ele>569</ele>
        <time>2019-06-25T09:43:52Z</time>
      </trkpt>
      <trkpt lat="44.37404" lon="5.92682">
        <ele>569</ele>
        <time>2019-06-25T09:43:53Z</time>
      </trkpt>
      <trkpt lat="44.37399" lon="5.92678">
        <ele>569</ele>
        <time>2019-06-25T09:43:54Z</time>
      </trkpt>
      <trkpt lat="44.37394" lon="5.92675">
        <ele>569</ele>
        <time>2019-06-25T09:43:55Z</time>
      </trkpt>
      <trkpt lat="44.37389" lon="5.92671">
        <ele>569</ele>
        <time>2019-06-25T09:43:56Z</time>
      </trkpt>
      <trkpt lat="44.37384" lon="5.92668">
        <ele>569</ele>
        <time>2019-06-25T09:43:57Z</time>
      </trkpt>
      <trkpt lat="44.3738" lon="5.92664">
        <ele>569</ele>
        <time>2019-06-25T09:43:58Z</time>
      </trkpt>
      <trkpt lat="44.37375" lon="5.92661">
        <ele>569</ele>
        <time>2019-06-25T09:43:59Z</time>
      </trkpt>
      <trkpt lat="44.3737" lon="5.92657">
        <ele>569</ele>
        <time>2019-06-25T09:44:00Z</time>
      </trkpt>
      <trkpt lat="44.37365" lon="5.92653">
        <ele>569</ele>
        <time>2019-06-25T09:44:01Z</time>
      </trkpt>
      <trkpt lat="44.3736" lon="5.92649">
        <ele>569</ele>
        <time>2019-06-25T09:44:02Z</time>
      </trkpt>
      <trkpt lat="44.37355" lon="5.92645">
        <ele>569</ele>
        <time>2019-06-25T09:44:03Z</time>
      </trkpt>
      <trkpt lat="44.37349" lon="5.92641">
        <ele>569</ele>
        <time>2019-06-25T09:44:04Z</time>
      </trkpt>
      <trkpt lat="44.37344" lon="5.92636">
        <ele>569</ele>
        <time>2019-06-25T09:44:05Z</time>
      </trkpt>
      <trkpt lat="44.37338" lon="5.92632">
        <ele>569</ele>
        <time>2019-06-25T09:44:06Z</time>
      </trkpt>
      <trkpt lat="44.37333" lon="5.92627">
        <ele>569</ele>
        <time>2019-06-25T09:44:07Z</time>
      </trkpt>
      <trkpt lat="44.37327" lon="5.92623">
        <ele>569</ele>
        <time>2019-06-25T09:44:08Z</time>
      </trkpt>
      <trkpt lat="44.37321" lon="5.92618">
        <ele>569</ele>
        <time>2019-06-25T09:44:09Z</time>
      </trkpt>
      <trkpt lat="44.37315" lon="5.92613">
        <ele>569</ele>
        <time>2019-06-25T09:44:10Z</time>
      </trkpt>
      <trkpt lat="44.37309" lon="5.92608">
        <ele>569</ele>
        <time>2019-06-25T09:44:11Z</time>
      </trkpt>
      <trkpt lat="44.37302" lon="5.92602">
        <ele>569</ele>
        <time>2019-06-25T09:44:12Z</time>
      </trkpt>
      <trkpt lat="44.37296" lon="5.92597">
        <ele>569</ele>
        <time>2019-06-25T09:44:13Z</time>
      </trkpt>
      <trkpt lat="44.3729" lon="5.92591">
        <ele>569</ele>
        <time>2019-06-25T09:44:14Z</time>
      </trkpt>
      <trkpt lat="44.37284" lon="5.92586">
        <ele>569</ele>
        <time>2019-06-25T09:44:15Z</time>
      </trkpt>
      <trkpt lat="44.37277" lon="5.92579">
        <ele>569</ele>
        <time>2019-06-25T09:44:16Z</time>
      </trkpt>
      <trkpt lat="44.37271" lon="5.92573">
        <ele>569</ele>
        <time>2019-06-25T09:44:17Z</time>
      </trkpt>
      <trkpt lat="44.37265" lon="5.92567">
        <ele>569</ele>
        <time>2019-06-25T09:44:18Z</time>
      </trkpt>
      <trkpt lat="44.37259" lon="5.92561">
        <ele>569</ele>
        <time>2019-06-25T09:44:19Z</time>
      </trkpt>
      <trkpt lat="44.37252" lon="5.92555">
        <ele>569</ele>
        <time>2019-06-25T09:44:20Z</time>
      </trkpt>
      <trkpt lat="44.37246" lon="5.92549">
        <ele>569</ele>
        <time>2019-06-25T09:44:21Z</time>
      </trkpt>
      <trkpt lat="44.3724" lon="5.92544">
        <ele>569</ele>
        <time>2019-06-25T09:44:22Z</time>
      </trkpt>
      <trkpt lat="44.37233" lon="5.92538">
        <ele>569</ele>
        <time>2019-06-25T09:44:23Z</time>
      </trkpt>
      <trkpt lat="44.37227" lon="5.92532">
        <ele>569</ele>
        <time>2019-06-25T09:44:24Z</time>
      </trkpt>
      <trkpt lat="44.37221" lon="5.92526">
        <ele>569</ele>
        <time>2019-06-25T09:44:25Z</time>
      </trkpt>
      <trkpt lat="44.37215" lon="5.9252">
        <ele>568</ele>
        <time>2019-06-25T09:44:26Z</time>
      </trkpt>
      <trkpt lat="44.37208" lon="5.92515">
        <ele>568</ele>
        <time>2019-06-25T09:44:27Z</time>
      </trkpt>
      <trkpt lat="44.37202" lon="5.92509">
        <ele>568</ele>
        <time>2019-06-25T09:44:28Z</time>
      </trkpt>
      <trkpt lat="44.37195" lon="5.92503">
        <ele>568</ele>
        <time>2019-06-25T09:44:29Z</time>
      </trkpt>
      <trkpt lat="44.37189" lon="5.92497">
        <ele>568</ele>
        <time>2019-06-25T09:44:30Z</time>
      </trkpt>
      <trkpt lat="44.37183" lon="5.92492">
        <ele>568</ele>
        <time>2019-06-25T09:44:31Z</time>
      </trkpt>
      <trkpt lat="44.37177" lon="5.92487">
        <ele>568</ele>
        <time>2019-06-25T09:44:33Z</time>
      </trkpt>
      <trkpt lat="44.37171" lon="5.92482">
        <ele>568</ele>
        <time>2019-06-25T09:44:33Z</time>
      </trkpt>
      <trkpt lat="44.37165" lon="5.92476">
        <ele>568</ele>
        <time>2019-06-25T09:44:34Z</time>
      </trkpt>
      <trkpt lat="44.37159" lon="5.92471">
        <ele>568</ele>
        <time>2019-06-25T09:44:35Z</time>
      </trkpt>
      <trkpt lat="44.37153" lon="5.92466">
        <ele>568</ele>
        <time>2019-06-25T09:44:36Z</time>
      </trkpt>
      <trkpt lat="44.37147" lon="5.92461">
        <ele>568</ele>
        <time>2019-06-25T09:44:37Z</time>
      </trkpt>
      <trkpt lat="44.37141" lon="5.92456">
        <ele>568</ele>
        <time>2019-06-25T09:44:38Z</time>
      </trkpt>
      <trkpt lat="44.37135" lon="5.92451">
        <ele>568</ele>
        <time>2019-06-25T09:44:39Z</time>
      </trkpt>
      <trkpt lat="44.3713" lon="5.92446">
        <ele>568</ele>
        <time>2019-06-25T09:44:40Z</time>
      </trkpt>
      <trkpt lat="44.37125" lon="5.92441">
        <ele>568</ele>
        <time>2019-06-25T09:44:41Z</time>
      </trkpt>
      <trkpt lat="44.37119" lon="5.92436">
        <ele>568</ele>
        <time>2019-06-25T09:44:42Z</time>
      </trkpt>
      <trkpt lat="44.37114" lon="5.92431">
        <ele>568</ele>
        <time>2019-06-25T09:44:43Z</time>
      </trkpt>
      <trkpt lat="44.37108" lon="5.92426">
        <ele>568</ele>
        <time>2019-06-25T09:44:44Z</time>
      </trkpt>
      <trkpt lat="44.37103" lon="5.92421">
        <ele>568</ele>
        <time>2019-06-25T09:44:45Z</time>
      </trkpt>
      <trkpt lat="44.37097" lon="5.92416">
        <ele>568</ele>
        <time>2019-06-25T09:44:46Z</time>
      </trkpt>
      <trkpt lat="44.37092" lon="5.92412">
        <ele>568</ele>
        <time>2019-06-25T09:44:47Z</time>
      </trkpt>
      <trkpt lat="44.37086" lon="5.92407">
        <ele>568</ele>
        <time>2019-06-25T09:44:48Z</time>
      </trkpt>
      <trkpt lat="44.37081" lon="5.92403">
        <ele>568</ele>
        <time>2019-06-25T09:44:49Z</time>
      </trkpt>
      <trkpt lat="44.37076" lon="5.92399">
        <ele>568</ele>
        <time>2019-06-25T09:44:50Z</time>
      </trkpt>
      <trkpt lat="44.37071" lon="5.92394">
        <ele>568</ele>
        <time>2019-06-25T09:44:51Z</time>
      </trkpt>
      <trkpt lat="44.37066" lon="5.9239">
        <ele>568</ele>
        <time>2019-06-25T09:44:52Z</time>
      </trkpt>
      <trkpt lat="44.3706" lon="5.92386">
        <ele>568</ele>
        <time>2019-06-25T09:44:53Z</time>
      </trkpt>
      <trkpt lat="44.37055" lon="5.92382">
        <ele>568</ele>
        <time>2019-06-25T09:44:54Z</time>
      </trkpt>
      <trkpt lat="44.37051" lon="5.92378">
        <ele>568</ele>
        <time>2019-06-25T09:44:55Z</time>
      </trkpt>
      <trkpt lat="44.37046" lon="5.92374">
        <ele>568</ele>
        <time>2019-06-25T09:44:56Z</time>
      </trkpt>
      <trkpt lat="44.37041" lon="5.9237">
        <ele>568</ele>
        <time>2019-06-25T09:44:57Z</time>
      </trkpt>
      <trkpt lat="44.37037" lon="5.92366">
        <ele>568</ele>
        <time>2019-06-25T09:44:58Z</time>
      </trkpt>
      <trkpt lat="44.37032" lon="5.92362">
        <ele>568</ele>
        <time>2019-06-25T09:44:59Z</time>
      </trkpt>
      <trkpt lat="44.37027" lon="5.92359">
        <ele>568</ele>
        <time>2019-06-25T09:45:00Z</time>
      </trkpt>
      <trkpt lat="44.37023" lon="5.92355">
        <ele>568</ele>
        <time>2019-06-25T09:45:01Z</time>
      </trkpt>
      <trkpt lat="44.37019" lon="5.92351">
        <ele>568</ele>
        <time>2019-06-25T09:45:02Z</time>
      </trkpt>
      <trkpt lat="44.37014" lon="5.92347">
        <ele>568</ele>
        <time>2019-06-25T09:45:03Z</time>
      </trkpt>
      <trkpt lat="44.3701" lon="5.92344">
        <ele>568</ele>
        <time>2019-06-25T09:45:04Z</time>
      </trkpt>
      <trkpt lat="44.37006" lon="5.9234">
        <ele>568</ele>
        <time>2019-06-25T09:45:05Z</time>
      </trkpt>
      <trkpt lat="44.37002" lon="5.92337">
        <ele>568</ele>
        <time>2019-06-25T09:45:06Z</time>
      </trkpt>
      <trkpt lat="44.36998" lon="5.92334">
        <ele>568</ele>
        <time>2019-06-25T09:45:07Z</time>
      </trkpt>
      <trkpt lat="44.36994" lon="5.9233">
        <ele>568</ele>
        <time>2019-06-25T09:45:08Z</time>
      </trkpt>
      <trkpt lat="44.3699" lon="5.92327">
        <ele>568</ele>
        <time>2019-06-25T09:45:09Z</time>
      </trkpt>
      <trkpt lat="44.36986" lon="5.92323">
        <ele>568</ele>
        <time>2019-06-25T09:45:10Z</time>
      </trkpt>
      <trkpt lat="44.36982" lon="5.9232">
        <ele>568</ele>
        <time>2019-06-25T09:45:11Z</time>
      </trkpt>
      <trkpt lat="44.36977" lon="5.92317">
        <ele>568</ele>
        <time>2019-06-25T09:45:12Z</time>
      </trkpt>
      <trkpt lat="44.36974" lon="5.92313">
        <ele>568</ele>
        <time>2019-06-25T09:45:13Z</time>
      </trkpt>
      <trkpt lat="44.3697" lon="5.9231">
        <ele>568</ele>
        <time>2019-06-25T09:45:14Z</time>
      </trkpt>
      <trkpt lat="44.36966" lon="5.92307">
        <ele>568</ele>
        <time>2019-06-25T09:45:15Z</time>
      </trkpt>
      <trkpt lat="44.36962" lon="5.92304">
        <ele>568</ele>
        <time>2019-06-25T09:45:16Z</time>
      </trkpt>
      <trkpt lat="44.36958" lon="5.92301">
        <ele>568</ele>
        <time>2019-06-25T09:45:17Z</time>
      </trkpt>
      <trkpt lat="44.36953" lon="5.92297">
        <ele>568</ele>
        <time>2019-06-25T09:45:18Z</time>
      </trkpt>
      <trkpt lat="44.36949" lon="5.92294">
        <ele>568</ele>
        <time>2019-06-25T09:45:19Z</time>
      </trkpt>
      <trkpt lat="44.36945" lon="5.9229">
        <ele>568</ele>
        <time>2019-06-25T09:45:20Z</time>
      </trkpt>
      <trkpt lat="44.36941" lon="5.92287">
        <ele>568</ele>
        <time>2019-06-25T09:45:21Z</time>
      </trkpt>
      <trkpt lat="44.36937" lon="5.92284">
        <ele>568</ele>
        <time>2019-06-25T09:45:22Z</time>
      </trkpt>
      <trkpt lat="44.36933" lon="5.92281">
        <ele>568</ele>
        <time>2019-06-25T09:45:23Z</time>
      </trkpt>
      <trkpt lat="44.36929" lon="5.92278">
        <ele>568</ele>
        <time>2019-06-25T09:45:24Z</time>
      </trkpt>
      <trkpt lat="44.36925" lon="5.92275">
        <ele>568</ele>
        <time>2019-06-25T09:45:25Z</time>
      </trkpt>
      <trkpt lat="44.36921" lon="5.92271">
        <ele>568</ele>
        <time>2019-06-25T09:45:26Z</time>
      </trkpt>
      <trkpt lat="44.36917" lon="5.92268">
        <ele>568</ele>
        <time>2019-06-25T09:45:27Z</time>
      </trkpt>
      <trkpt lat="44.36913" lon="5.92265">
        <ele>568</ele>
        <time>2019-06-25T09:45:28Z</time>
      </trkpt>
      <trkpt lat="44.36909" lon="5.92262">
        <ele>568</ele>
        <time>2019-06-25T09:45:29Z</time>
      </trkpt>
      <trkpt lat="44.36904" lon="5.9226">
        <ele>568</ele>
        <time>2019-06-25T09:45:30Z</time>
      </trkpt>
      <trkpt lat="44.369" lon="5.92257">
        <ele>568</ele>
        <time>2019-06-25T09:45:31Z</time>
      </trkpt>
      <trkpt lat="44.36896" lon="5.92255">
        <ele>568</ele>
        <time>2019-06-25T09:45:33Z</time>
      </trkpt>
      <trkpt lat="44.36892" lon="5.92252">
        <ele>568</ele>
        <time>2019-06-25T09:45:33Z</time>
      </trkpt>
      <trkpt lat="44.36887" lon="5.9225">
        <ele>568</ele>
        <time>2019-06-25T09:45:34Z</time>
      </trkpt>
      <trkpt lat="44.36883" lon="5.92248">
        <ele>568</ele>
        <time>2019-06-25T09:45:35Z</time>
      </trkpt>
      <trkpt lat="44.36879" lon="5.92246">
        <ele>568</ele>
        <time>2019-06-25T09:45:36Z</time>
      </trkpt>
      <trkpt lat="44.36875" lon="5.92243">
        <ele>568</ele>
        <time>2019-06-25T09:45:37Z</time>
      </trkpt>
      <trkpt lat="44.36871" lon="5.92241">
        <ele>568</ele>
        <time>2019-06-25T09:45:38Z</time>
      </trkpt>
      <trkpt lat="44.36866" lon="5.92238">
        <ele>569</ele>
        <time>2019-06-25T09:45:39Z</time>
      </trkpt>
      <trkpt lat="44.36862" lon="5.92236">
        <ele>569</ele>
        <time>2019-06-25T09:45:40Z</time>
      </trkpt>
      <trkpt lat="44.36858" lon="5.92234">
        <ele>569</ele>
        <time>2019-06-25T09:45:41Z</time>
      </trkpt>
      <trkpt lat="44.36854" lon="5.92231">
        <ele>569</ele>
        <time>2019-06-25T09:45:42Z</time>
      </trkpt>
      <trkpt lat="44.36851" lon="5.92229">
        <ele>569</ele>
        <time>2019-06-25T09:45:43Z</time>
      </trkpt>
      <trkpt lat="44.36848" lon="5.92227">
        <ele>570</ele>
        <time>2019-06-25T09:45:44Z</time>
      </trkpt>
      <trkpt lat="44.36845" lon="5.92225">
        <ele>570</ele>
        <time>2019-06-25T09:45:45Z</time>
      </trkpt>
      <trkpt lat="44.36842" lon="5.92223">
        <ele>570</ele>
        <time>2019-06-25T09:45:46Z</time>
      </trkpt>
      <trkpt lat="44.36839" lon="5.92221">
        <ele>570</ele>
        <time>2019-06-25T09:45:47Z</time>
      </trkpt>
      <trkpt lat="44.36836" lon="5.92219">
        <ele>570</ele>
        <time>2019-06-25T09:45:48Z</time>
      </trkpt>
      <trkpt lat="44.36833" lon="5.92217">
        <ele>570</ele>
        <time>2019-06-25T09:45:49Z</time>
      </trkpt>
      <trkpt lat="44.3683" lon="5.92215">
        <ele>570</ele>
        <time>2019-06-25T09:45:50Z</time>
      </trkpt>
      <trkpt lat="44.36827" lon="5.92214">
        <ele>570</ele>
        <time>2019-06-25T09:45:51Z</time>
      </trkpt>
      <trkpt lat="44.36824" lon="5.92213">
        <ele>571</ele>
        <time>2019-06-25T09:45:52Z</time>
      </trkpt>
      <trkpt lat="44.36821" lon="5.92212">
        <ele>571</ele>
        <time>2019-06-25T09:45:53Z</time>
      </trkpt>
      <trkpt lat="44.36818" lon="5.9221">
        <ele>571</ele>
        <time>2019-06-25T09:45:54Z</time>
      </trkpt>
      <trkpt lat="44.36814" lon="5.92208">
        <ele>571</ele>
        <time>2019-06-25T09:45:55Z</time>
      </trkpt>
      <trkpt lat="44.36809" lon="5.92205">
        <ele>571</ele>
        <time>2019-06-25T09:45:56Z</time>
      </trkpt>
      <trkpt lat="44.36804" lon="5.92203">
        <ele>571</ele>
        <time>2019-06-25T09:45:57Z</time>
      </trkpt>
      <trkpt lat="44.36799" lon="5.922">
        <ele>571</ele>
        <time>2019-06-25T09:45:58Z</time>
      </trkpt>
      <trkpt lat="44.36793" lon="5.92197">
        <ele>571</ele>
        <time>2019-06-25T09:45:59Z</time>
      </trkpt>
      <trkpt lat="44.36786" lon="5.92194">
        <ele>571</ele>
        <time>2019-06-25T09:46:00Z</time>
      </trkpt>
      <trkpt lat="44.3678" lon="5.9219">
        <ele>571</ele>
        <time>2019-06-25T09:46:01Z</time>
      </trkpt>
      <trkpt lat="44.36773" lon="5.92187">
        <ele>571</ele>
        <time>2019-06-25T09:46:02Z</time>
      </trkpt>
      <trkpt lat="44.36766" lon="5.92184">
        <ele>571</ele>
        <time>2019-06-25T09:46:03Z</time>
      </trkpt>
      <trkpt lat="44.36758" lon="5.92182">
        <ele>571</ele>
        <time>2019-06-25T09:46:04Z</time>
      </trkpt>
      <trkpt lat="44.3675" lon="5.92179">
        <ele>571</ele>
        <time>2019-06-25T09:46:05Z</time>
      </trkpt>
      <trkpt lat="44.36743" lon="5.92177">
        <ele>571</ele>
        <time>2019-06-25T09:46:06Z</time>
      </trkpt>
      <trkpt lat="44.36736" lon="5.92175">
        <ele>571</ele>
        <time>2019-06-25T09:46:07Z</time>
      </trkpt>
      <trkpt lat="44.36729" lon="5.92172">
        <ele>571</ele>
        <time>2019-06-25T09:46:08Z</time>
      </trkpt>
      <trkpt lat="44.36723" lon="5.9217">
        <ele>571</ele>
        <time>2019-06-25T09:46:09Z</time>
      </trkpt>
      <trkpt lat="44.36716" lon="5.92169">
        <ele>571</ele>
        <time>2019-06-25T09:46:10Z</time>
      </trkpt>
      <trkpt lat="44.3671" lon="5.92167">
        <ele>571</ele>
        <time>2019-06-25T09:46:11Z</time>
      </trkpt>
      <trkpt lat="44.36703" lon="5.92165">
        <ele>571</ele>
        <time>2019-06-25T09:46:12Z</time>
      </trkpt>
      <trkpt lat="44.36697" lon="5.92164">
        <ele>571</ele>
        <time>2019-06-25T09:46:13Z</time>
      </trkpt>
      <trkpt lat="44.36691" lon="5.92162">
        <ele>571</ele>
        <time>2019-06-25T09:46:14Z</time>
      </trkpt>
      <trkpt lat="44.36684" lon="5.9216">
        <ele>571</ele>
        <time>2019-06-25T09:46:15Z</time>
      </trkpt>
      <trkpt lat="44.36678" lon="5.92158">
        <ele>571</ele>
        <time>2019-06-25T09:46:16Z</time>
      </trkpt>
      <trkpt lat="44.36672" lon="5.92157">
        <ele>571</ele>
        <time>2019-06-25T09:46:17Z</time>
      </trkpt>
      <trkpt lat="44.36666" lon="5.92155">
        <ele>571</ele>
        <time>2019-06-25T09:46:18Z</time>
      </trkpt>
      <trkpt lat="44.3666" lon="5.92154">
        <ele>571</ele>
        <time>2019-06-25T09:46:19Z</time>
      </trkpt>
      <trkpt lat="44.36654" lon="5.92152">
        <ele>571</ele>
        <time>2019-06-25T09:46:20Z</time>
      </trkpt>
      <trkpt lat="44.36649" lon="5.9215">
        <ele>571</ele>
        <time>2019-06-25T09:46:21Z</time>
      </trkpt>
      <trkpt lat="44.36643" lon="5.92148">
        <ele>571</ele>
        <time>2019-06-25T09:46:22Z</time>
      </trkpt>
      <trkpt lat="44.36637" lon="5.92146">
        <ele>571</ele>
        <time>2019-06-25T09:46:23Z</time>
      </trkpt>
      <trkpt lat="44.36631" lon="5.92144">
        <ele>571</ele>
        <time>2019-06-25T09:46:24Z</time>
      </trkpt>
      <trkpt lat="44.36626" lon="5.92142">
        <ele>571</ele>
        <time>2019-06-25T09:46:25Z</time>
      </trkpt>
      <trkpt lat="44.3662" lon="5.92139">
        <ele>571</ele>
        <time>2019-06-25T09:46:26Z</time>
      </trkpt>
      <trkpt lat="44.36615" lon="5.92137">
        <ele>571</ele>
        <time>2019-06-25T09:46:27Z</time>
      </trkpt>
      <trkpt lat="44.36609" lon="5.92134">
        <ele>571</ele>
        <time>2019-06-25T09:46:28Z</time>
      </trkpt>
      <trkpt lat="44.36604" lon="5.92131">
        <ele>571</ele>
        <time>2019-06-25T09:46:29Z</time>
      </trkpt>
      <trkpt lat="44.36598" lon="5.92129">
        <ele>571</ele>
        <time>2019-06-25T09:46:30Z</time>
      </trkpt>
      <trkpt lat="44.36592" lon="5.92126">
        <ele>571</ele>
        <time>2019-06-25T09:46:31Z</time>
      </trkpt>
      <trkpt lat="44.36587" lon="5.92122">
        <ele>571</ele>
        <time>2019-06-25T09:46:33Z</time>
      </trkpt>
      <trkpt lat="44.36581" lon="5.92119">
        <ele>571</ele>
        <time>2019-06-25T09:46:33Z</time>
      </trkpt>
      <trkpt lat="44.36576" lon="5.92116">
        <ele>571</ele>
        <time>2019-06-25T09:46:34Z</time>
      </trkpt>
      <trkpt lat="44.3657" lon="5.92112">
        <ele>571</ele>
        <time>2019-06-25T09:46:35Z</time>
      </trkpt>
      <trkpt lat="44.36565" lon="5.92109">
        <ele>571</ele>
        <time>2019-06-25T09:46:36Z</time>
      </trkpt>
      <trkpt lat="44.36559" lon="5.92105">
        <ele>571</ele>
        <time>2019-06-25T09:46:37Z</time>
      </trkpt>
      <trkpt lat="44.36554" lon="5.92102">
        <ele>571</ele>
        <time>2019-06-25T09:46:38Z</time>
      </trkpt>
      <trkpt lat="44.36548" lon="5.92098">
        <ele>571</ele>
        <time>2019-06-25T09:46:39Z</time>
      </trkpt>
      <trkpt lat="44.36543" lon="5.92095">
        <ele>571</ele>
        <time>2019-06-25T09:46:40Z</time>
      </trkpt>
      <trkpt lat="44.36538" lon="5.92091">
        <ele>571</ele>
        <time>2019-06-25T09:46:41Z</time>
      </trkpt>
      <trkpt lat="44.36532" lon="5.92087">
        <ele>571</ele>
        <time>2019-06-25T09:46:42Z</time>
      </trkpt>
      <trkpt lat="44.36527" lon="5.92083">
        <ele>571</ele>
        <time>2019-06-25T09:46:43Z</time>
      </trkpt>
      <trkpt lat="44.36521" lon="5.92079">
        <ele>571</ele>
        <time>2019-06-25T09:46:44Z</time>
      </trkpt>
      <trkpt lat="44.36516" lon="5.92075">
        <ele>571</ele>
        <time>2019-06-25T09:46:45Z</time>
      </trkpt>
      <trkpt lat="44.36511" lon="5.92071">
        <ele>571</ele>
        <time>2019-06-25T09:46:46Z</time>
      </trkpt>
      <trkpt lat="44.36505" lon="5.92068">
        <ele>571</ele>
        <time>2019-06-25T09:46:47Z</time>
      </trkpt>
      <trkpt lat="44.365" lon="5.92064">
        <ele>571</ele>
        <time>2019-06-25T09:46:48Z</time>
      </trkpt>
      <trkpt lat="44.36494" lon="5.92061">
        <ele>571</ele>
        <time>2019-06-25T09:46:49Z</time>
      </trkpt>
      <trkpt lat="44.36489" lon="5.92057">
        <ele>571</ele>
        <time>2019-06-25T09:46:50Z</time>
      </trkpt>
      <trkpt lat="44.36483" lon="5.92053">
        <ele>571</ele>
        <time>2019-06-25T09:46:51Z</time>
      </trkpt>
      <trkpt lat="44.36478" lon="5.9205">
        <ele>571</ele>
        <time>2019-06-25T09:46:52Z</time>
      </trkpt>
      <trkpt lat="44.36472" lon="5.92046">
        <ele>571</ele>
        <time>2019-06-25T09:46:53Z</time>
      </trkpt>
      <trkpt lat="44.36466" lon="5.92042">
        <ele>571</ele>
        <time>2019-06-25T09:46:54Z</time>
      </trkpt>
      <trkpt lat="44.36461" lon="5.92039">
        <ele>571</ele>
        <time>2019-06-25T09:46:55Z</time>
      </trkpt>
      <trkpt lat="44.36455" lon="5.92035">
        <ele>571</ele>
        <time>2019-06-25T09:46:56Z</time>
      </trkpt>
      <trkpt lat="44.3645" lon="5.92031">
        <ele>571</ele>
        <time>2019-06-25T09:46:57Z</time>
      </trkpt>
      <trkpt lat="44.36445" lon="5.92027">
        <ele>571</ele>
        <time>2019-06-25T09:46:58Z</time>
      </trkpt>
      <trkpt lat="44.3644" lon="5.92023">
        <ele>571</ele>
        <time>2019-06-25T09:46:59Z</time>
      </trkpt>
      <trkpt lat="44.36434" lon="5.92019">
        <ele>571</ele>
        <time>2019-06-25T09:47:00Z</time>
      </trkpt>
      <trkpt lat="44.36429" lon="5.92015">
        <ele>571</ele>
        <time>2019-06-25T09:47:01Z</time>
      </trkpt>
      <trkpt lat="44.36424" lon="5.92012">
        <ele>571</ele>
        <time>2019-06-25T09:47:02Z</time>
      </trkpt>
      <trkpt lat="44.36418" lon="5.92008">
        <ele>571</ele>
        <time>2019-06-25T09:47:03Z</time>
      </trkpt>
      <trkpt lat="44.36413" lon="5.92004">
        <ele>571</ele>
        <time>2019-06-25T09:47:04Z</time>
      </trkpt>
      <trkpt lat="44.36408" lon="5.92">
        <ele>571</ele>
        <time>2019-06-25T09:47:05Z</time>
      </trkpt>
      <trkpt lat="44.36403" lon="5.91997">
        <ele>571</ele>
        <time>2019-06-25T09:47:06Z</time>
      </trkpt>
      <trkpt lat="44.36397" lon="5.91994">
        <ele>571</ele>
        <time>2019-06-25T09:47:07Z</time>
      </trkpt>
      <trkpt lat="44.36392" lon="5.9199">
        <ele>571</ele>
        <time>2019-06-25T09:47:08Z</time>
      </trkpt>
      <trkpt lat="44.36387" lon="5.91986">
        <ele>571</ele>
        <time>2019-06-25T09:47:09Z</time>
      </trkpt>
      <trkpt lat="44.36382" lon="5.91982">
        <ele>571</ele>
        <time>2019-06-25T09:47:10Z</time>
      </trkpt>
      <trkpt lat="44.36376" lon="5.91979">
        <ele>571</ele>
        <time>2019-06-25T09:47:11Z</time>
      </trkpt>
      <trkpt lat="44.36371" lon="5.91975">
        <ele>571</ele>
        <time>2019-06-25T09:47:12Z</time>
      </trkpt>
      <trkpt lat="44.36366" lon="5.91972">
        <ele>571</ele>
        <time>2019-06-25T09:47:13Z</time>
      </trkpt>
      <trkpt lat="44.36361" lon="5.91968">
        <ele>571</ele>
        <time>2019-06-25T09:47:14Z</time>
      </trkpt>
      <trkpt lat="44.36356" lon="5.91965">
        <ele>571</ele>
        <time>2019-06-25T09:47:15Z</time>
      </trkpt>
      <trkpt lat="44.3635" lon="5.91961">
        <ele>571</ele>
        <time>2019-06-25T09:47:16Z</time>
      </trkpt>
      <trkpt lat="44.36345" lon="5.91957">
        <ele>571</ele>
        <time>2019-06-25T09:47:17Z</time>
      </trkpt>
      <trkpt lat="44.3634" lon="5.91954">
        <ele>571</ele>
        <time>2019-06-25T09:47:18Z</time>
      </trkpt>
      <trkpt lat="44.36335" lon="5.9195">
        <ele>571</ele>
        <time>2019-06-25T09:47:19Z</time>
      </trkpt>
      <trkpt lat="44.36329" lon="5.91946">
        <ele>571</ele>
        <time>2019-06-25T09:47:20Z</time>
      </trkpt>
      <trkpt lat="44.36324" lon="5.91943">
        <ele>571</ele>
        <time>2019-06-25T09:47:21Z</time>
      </trkpt>
      <trkpt lat="44.36318" lon="5.91939">
        <ele>571</ele>
        <time>2019-06-25T09:47:22Z</time>
      </trkpt>
      <trkpt lat="44.36313" lon="5.91935">
        <ele>571</ele>
        <time>2019-06-25T09:47:23Z</time>
      </trkpt>
      <trkpt lat="44.36308" lon="5.91932">
        <ele>571</ele>
        <time>2019-06-25T09:47:24Z</time>
      </trkpt>
      <trkpt lat="44.36302" lon="5.91928">
        <ele>571</ele>
        <time>2019-06-25T09:47:25Z</time>
      </trkpt>
      <trkpt lat="44.36297" lon="5.91924">
        <ele>571</ele>
        <time>2019-06-25T09:47:26Z</time>
      </trkpt>
      <trkpt lat="44.36291" lon="5.91921">
        <ele>571</ele>
        <time>2019-06-25T09:47:27Z</time>
      </trkpt>
      <trkpt lat="44.36286" lon="5.91917">
        <ele>571</ele>
        <time>2019-06-25T09:47:28Z</time>
      </trkpt>
      <trkpt lat="44.3628" lon="5.91914">
        <ele>571</ele>
        <time>2019-06-25T09:47:29Z</time>
      </trkpt>
      <trkpt lat="44.36275" lon="5.9191">
        <ele>571</ele>
        <time>2019-06-25T09:47:30Z</time>
      </trkpt>
      <trkpt lat="44.3627" lon="5.91907">
        <ele>571</ele>
        <time>2019-06-25T09:47:31Z</time>
      </trkpt>
      <trkpt lat="44.36265" lon="5.91903">
        <ele>571</ele>
        <time>2019-06-25T09:47:33Z</time>
      </trkpt>
      <trkpt lat="44.36259" lon="5.91899">
        <ele>571</ele>
        <time>2019-06-25T09:47:33Z</time>
      </trkpt>
      <trkpt lat="44.36254" lon="5.91896">
        <ele>571</ele>
        <time>2019-06-25T09:47:34Z</time>
      </trkpt>
      <trkpt lat="44.36249" lon="5.91892">
        <ele>571</ele>
        <time>2019-06-25T09:47:35Z</time>
      </trkpt>
      <trkpt lat="44.36244" lon="5.91889">
        <ele>571</ele>
        <time>2019-06-25T09:47:36Z</time>
      </trkpt>
      <trkpt lat="44.36239" lon="5.91885">
        <ele>571</ele>
        <time>2019-06-25T09:47:37Z</time>
      </trkpt>
      <trkpt lat="44.36234" lon="5.91882">
        <ele>571</ele>
        <time>2019-06-25T09:47:38Z</time>
      </trkpt>
      <trkpt lat="44.36229" lon="5.91878">
        <ele>571</ele>
        <time>2019-06-25T09:47:39Z</time>
      </trkpt>
      <trkpt lat="44.36224" lon="5.91875">
        <ele>571</ele>
        <time>2019-06-25T09:47:40Z</time>
      </trkpt>
      <trkpt lat="44.36219" lon="5.91871">
        <ele>571</ele>
        <time>2019-06-25T09:47:41Z</time>
      </trkpt>
      <trkpt lat="44.36213" lon="5.91868">
        <ele>571</ele>
        <time>2019-06-25T09:47:42Z</time>
      </trkpt>
      <trkpt lat="44.36208" lon="5.91865">
        <ele>571</ele>
        <time>2019-06-25T09:47:43Z</time>
      </trkpt>
      <trkpt lat="44.36203" lon="5.91861">
        <ele>571</ele>
        <time>2019-06-25T09:47:44Z</time>
      </trkpt>
      <trkpt lat="44.36198" lon="5.91857">
        <ele>571</ele>
        <time>2019-06-25T09:47:45Z</time>
      </trkpt>
      <trkpt lat="44.36192" lon="5.91854">
        <ele>571</ele>
        <time>2019-06-25T09:47:46Z</time>
      </trkpt>
      <trkpt lat="44.36187" lon="5.9185">
        <ele>571</ele>
        <time>2019-06-25T09:47:47Z</time>
      </trkpt>
      <trkpt lat="44.36182" lon="5.91847">
        <ele>571</ele>
        <time>2019-06-25T09:47:48Z</time>
      </trkpt>
      <trkpt lat="44.36176" lon="5.91843">
        <ele>571</ele>
        <time>2019-06-25T09:47:49Z</time>
      </trkpt>
      <trkpt lat="44.36171" lon="5.91839">
        <ele>571</ele>
        <time>2019-06-25T09:47:50Z</time>
      </trkpt>
      <trkpt lat="44.36166" lon="5.91836">
        <ele>571</ele>
        <time>2019-06-25T09:47:51Z</time>
      </trkpt>
      <trkpt lat="44.3616" lon="5.91832">
        <ele>571</ele>
        <time>2019-06-25T09:47:52Z</time>
      </trkpt>
      <trkpt lat="44.36155" lon="5.91828">
        <ele>571</ele>
        <time>2019-06-25T09:47:53Z</time>
      </trkpt>
      <trkpt lat="44.36149" lon="5.91824">
        <ele>571</ele>
        <time>2019-06-25T09:47:54Z</time>
      </trkpt>
      <trkpt lat="44.36144" lon="5.9182">
        <ele>571</ele>
        <time>2019-06-25T09:47:55Z</time>
      </trkpt>
      <trkpt lat="44.36138" lon="5.91817">
        <ele>571</ele>
        <time>2019-06-25T09:47:56Z</time>
      </trkpt>
      <trkpt lat="44.36133" lon="5.91813">
        <ele>571</ele>
        <time>2019-06-25T09:47:57Z</time>
      </trkpt>
      <trkpt lat="44.36127" lon="5.91809">
        <ele>571</ele>
        <time>2019-06-25T09:47:58Z</time>
      </trkpt>
      <trkpt lat="44.36122" lon="5.91805">
        <ele>571</ele>
        <time>2019-06-25T09:47:59Z</time>
      </trkpt>
      <trkpt lat="44.36116" lon="5.91801">
        <ele>571</ele>
        <time>2019-06-25T09:48:00Z</time>
      </trkpt>
      <trkpt lat="44.36111" lon="5.91797">
        <ele>571</ele>
        <time>2019-06-25T09:48:01Z</time>
      </trkpt>
      <trkpt lat="44.36105" lon="5.91794">
        <ele>571</ele>
        <time>2019-06-25T09:48:02Z</time>
      </trkpt>
      <trkpt lat="44.36099" lon="5.9179">
        <ele>571</ele>
        <time>2019-06-25T09:48:03Z</time>
      </trkpt>
      <trkpt lat="44.36094" lon="5.91786">
        <ele>571</ele>
        <time>2019-06-25T09:48:04Z</time>
      </trkpt>
      <trkpt lat="44.36088" lon="5.91783">
        <ele>571</ele>
        <time>2019-06-25T09:48:05Z</time>
      </trkpt>
      <trkpt lat="44.36083" lon="5.91778">
        <ele>571</ele>
        <time>2019-06-25T09:48:06Z</time>
      </trkpt>
      <trkpt lat="44.36077" lon="5.91775">
        <ele>571</ele>
        <time>2019-06-25T09:48:07Z</time>
      </trkpt>
      <trkpt lat="44.36071" lon="5.91771">
        <ele>571</ele>
        <time>2019-06-25T09:48:08Z</time>
      </trkpt>
      <trkpt lat="44.36066" lon="5.91767">
        <ele>571</ele>
        <time>2019-06-25T09:48:09Z</time>
      </trkpt>
      <trkpt lat="44.3606" lon="5.91763">
        <ele>571</ele>
        <time>2019-06-25T09:48:10Z</time>
      </trkpt>
      <trkpt lat="44.36055" lon="5.91759">
        <ele>571</ele>
        <time>2019-06-25T09:48:11Z</time>
      </trkpt>
      <trkpt lat="44.36049" lon="5.91754">
        <ele>571</ele>
        <time>2019-06-25T09:48:12Z</time>
      </trkpt>
      <trkpt lat="44.36043" lon="5.9175">
        <ele>571</ele>
        <time>2019-06-25T09:48:13Z</time>
      </trkpt>
      <trkpt lat="44.36038" lon="5.91747">
        <ele>571</ele>
        <time>2019-06-25T09:48:14Z</time>
      </trkpt>
      <trkpt lat="44.36032" lon="5.91743">
        <ele>571</ele>
        <time>2019-06-25T09:48:15Z</time>
      </trkpt>
      <trkpt lat="44.36027" lon="5.91739">
        <ele>571</ele>
        <time>2019-06-25T09:48:16Z</time>
      </trkpt>
      <trkpt lat="44.36021" lon="5.91735">
        <ele>571</ele>
        <time>2019-06-25T09:48:17Z</time>
      </trkpt>
      <trkpt lat="44.36016" lon="5.9173">
        <ele>571</ele>
        <time>2019-06-25T09:48:18Z</time>
      </trkpt>
      <trkpt lat="44.3601" lon="5.91726">
        <ele>571</ele>
        <time>2019-06-25T09:48:19Z</time>
      </trkpt>
      <trkpt lat="44.36004" lon="5.91722">
        <ele>571</ele>
        <time>2019-06-25T09:48:20Z</time>
      </trkpt>
      <trkpt lat="44.35999" lon="5.91718">
        <ele>571</ele>
        <time>2019-06-25T09:48:21Z</time>
      </trkpt>
      <trkpt lat="44.35993" lon="5.91715">
        <ele>571</ele>
        <time>2019-06-25T09:48:22Z</time>
      </trkpt>
      <trkpt lat="44.35987" lon="5.91711">
        <ele>571</ele>
        <time>2019-06-25T09:48:23Z</time>
      </trkpt>
      <trkpt lat="44.35982" lon="5.91707">
        <ele>571</ele>
        <time>2019-06-25T09:48:24Z</time>
      </trkpt>
      <trkpt lat="44.35976" lon="5.91704">
        <ele>571</ele>
        <time>2019-06-25T09:48:25Z</time>
      </trkpt>
      <trkpt lat="44.3597" lon="5.917">
        <ele>571</ele>
        <time>2019-06-25T09:48:26Z</time>
      </trkpt>
      <trkpt lat="44.35965" lon="5.91695">
        <ele>571</ele>
        <time>2019-06-25T09:48:27Z</time>
      </trkpt>
      <trkpt lat="44.35959" lon="5.91691">
        <ele>571</ele>
        <time>2019-06-25T09:48:28Z</time>
      </trkpt>
      <trkpt lat="44.35954" lon="5.91687">
        <ele>571</ele>
        <time>2019-06-25T09:48:29Z</time>
      </trkpt>
      <trkpt lat="44.35948" lon="5.91683">
        <ele>571</ele>
        <time>2019-06-25T09:48:30Z</time>
      </trkpt>
      <trkpt lat="44.35942" lon="5.9168">
        <ele>571</ele>
        <time>2019-06-25T09:48:31Z</time>
      </trkpt>
      <trkpt lat="44.35936" lon="5.91677">
        <ele>571</ele>
        <time>2019-06-25T09:48:33Z</time>
      </trkpt>
      <trkpt lat="44.35931" lon="5.91673">
        <ele>571</ele>
        <time>2019-06-25T09:48:33Z</time>
      </trkpt>
      <trkpt lat="44.35925" lon="5.91669">
        <ele>571</ele>
        <time>2019-06-25T09:48:34Z</time>
      </trkpt>
      <trkpt lat="44.35919" lon="5.91664">
        <ele>571</ele>
        <time>2019-06-25T09:48:35Z</time>
      </trkpt>
      <trkpt lat="44.35914" lon="5.9166">
        <ele>571</ele>
        <time>2019-06-25T09:48:36Z</time>
      </trkpt>
      <trkpt lat="44.35908" lon="5.91656">
        <ele>571</ele>
        <time>2019-06-25T09:48:37Z</time>
      </trkpt>
      <trkpt lat="44.35902" lon="5.91652">
        <ele>571</ele>
        <time>2019-06-25T09:48:38Z</time>
      </trkpt>
      <trkpt lat="44.35896" lon="5.91648">
        <ele>571</ele>
        <time>2019-06-25T09:48:39Z</time>
      </trkpt>
      <trkpt lat="44.35891" lon="5.91644">
        <ele>571</ele>
        <time>2019-06-25T09:48:40Z</time>
      </trkpt>
      <trkpt lat="44.35885" lon="5.91641">
        <ele>571</ele>
        <time>2019-06-25T09:48:41Z</time>
      </trkpt>
      <trkpt lat="44.35879" lon="5.91637">
        <ele>571</ele>
        <time>2019-06-25T09:48:42Z</time>
      </trkpt>
      <trkpt lat="44.35874" lon="5.91633">
        <ele>571</ele>
        <time>2019-06-25T09:48:43Z</time>
      </trkpt>
      <trkpt lat="44.35868" lon="5.91629">
        <ele>571</ele>
        <time>2019-06-25T09:48:44Z</time>
      </trkpt>
      <trkpt lat="44.35862" lon="5.91624">
        <ele>571</ele>
        <time>2019-06-25T09:48:45Z</time>
      </trkpt>
      <trkpt lat="44.35857" lon="5.9162">
        <ele>571</ele>
        <time>2019-06-25T09:48:46Z</time>
      </trkpt>
      <trkpt lat="44.35851" lon="5.91617">
        <ele>571</ele>
        <time>2019-06-25T09:48:47Z</time>
      </trkpt>
      <trkpt lat="44.35846" lon="5.91613">
        <ele>571</ele>
        <time>2019-06-25T09:48:48Z</time>
      </trkpt>
      <trkpt lat="44.3584" lon="5.91609">
        <ele>571</ele>
        <time>2019-06-25T09:48:49Z</time>
      </trkpt>
      <trkpt lat="44.35834" lon="5.91605">
        <ele>571</ele>
        <time>2019-06-25T09:48:50Z</time>
      </trkpt>
      <trkpt lat="44.35829" lon="5.91601">
        <ele>571</ele>
        <time>2019-06-25T09:48:51Z</time>
      </trkpt>
      <trkpt lat="44.35823" lon="5.91598">
        <ele>571</ele>
        <time>2019-06-25T09:48:52Z</time>
      </trkpt>
      <trkpt lat="44.35817" lon="5.91594">
        <ele>571</ele>
        <time>2019-06-25T09:48:53Z</time>
      </trkpt>
      <trkpt lat="44.35812" lon="5.9159">
        <ele>571</ele>
        <time>2019-06-25T09:48:54Z</time>
      </trkpt>
      <trkpt lat="44.35806" lon="5.91586">
        <ele>571</ele>
        <time>2019-06-25T09:48:55Z</time>
      </trkpt>
      <trkpt lat="44.35801" lon="5.91582">
        <ele>571</ele>
        <time>2019-06-25T09:48:56Z</time>
      </trkpt>
      <trkpt lat="44.35795" lon="5.91578">
        <ele>571</ele>
        <time>2019-06-25T09:48:57Z</time>
      </trkpt>
      <trkpt lat="44.35789" lon="5.91574">
        <ele>571</ele>
        <time>2019-06-25T09:48:58Z</time>
      </trkpt>
      <trkpt lat="44.35783" lon="5.9157">
        <ele>571</ele>
        <time>2019-06-25T09:48:59Z</time>
      </trkpt>
      <trkpt lat="44.35777" lon="5.91566">
        <ele>571</ele>
        <time>2019-06-25T09:49:00Z</time>
      </trkpt>
      <trkpt lat="44.35772" lon="5.91562">
        <ele>571</ele>
        <time>2019-06-25T09:49:01Z</time>
      </trkpt>
      <trkpt lat="44.35765" lon="5.91559">
        <ele>571</ele>
        <time>2019-06-25T09:49:02Z</time>
      </trkpt>
      <trkpt lat="44.3576" lon="5.91554">
        <ele>571</ele>
        <time>2019-06-25T09:49:03Z</time>
      </trkpt>
      <trkpt lat="44.35754" lon="5.9155">
        <ele>571</ele>
        <time>2019-06-25T09:49:04Z</time>
      </trkpt>
      <trkpt lat="44.35748" lon="5.91546">
        <ele>571</ele>
        <time>2019-06-25T09:49:05Z</time>
      </trkpt>
      <trkpt lat="44.35743" lon="5.91542">
        <ele>571</ele>
        <time>2019-06-25T09:49:06Z</time>
      </trkpt>
      <trkpt lat="44.35737" lon="5.91538">
        <ele>571</ele>
        <time>2019-06-25T09:49:07Z</time>
      </trkpt>
      <trkpt lat="44.35731" lon="5.91534">
        <ele>571</ele>
        <time>2019-06-25T09:49:08Z</time>
      </trkpt>
      <trkpt lat="44.35725" lon="5.9153">
        <ele>571</ele>
        <time>2019-06-25T09:49:09Z</time>
      </trkpt>
      <trkpt lat="44.3572" lon="5.91526">
        <ele>571</ele>
        <time>2019-06-25T09:49:10Z</time>
      </trkpt>
      <trkpt lat="44.35714" lon="5.91522">
        <ele>571</ele>
        <time>2019-06-25T09:49:11Z</time>
      </trkpt>
      <trkpt lat="44.35708" lon="5.91518">
        <ele>571</ele>
        <time>2019-06-25T09:49:12Z</time>
      </trkpt>
      <trkpt lat="44.35703" lon="5.91514">
        <ele>571</ele>
        <time>2019-06-25T09:49:13Z</time>
      </trkpt>
      <trkpt lat="44.35697" lon="5.9151">
        <ele>571</ele>
        <time>2019-06-25T09:49:14Z</time>
      </trkpt>
      <trkpt lat="44.35691" lon="5.91506">
        <ele>571</ele>
        <time>2019-06-25T09:49:15Z</time>
      </trkpt>
      <trkpt lat="44.35686" lon="5.91502">
        <ele>571</ele>
        <time>2019-06-25T09:49:16Z</time>
      </trkpt>
      <trkpt lat="44.3568" lon="5.91498">
        <ele>571</ele>
        <time>2019-06-25T09:49:17Z</time>
      </trkpt>
      <trkpt lat="44.35675" lon="5.91494">
        <ele>571</ele>
        <time>2019-06-25T09:49:18Z</time>
      </trkpt>
      <trkpt lat="44.35669" lon="5.9149">
        <ele>571</ele>
        <time>2019-06-25T09:49:19Z</time>
      </trkpt>
      <trkpt lat="44.35664" lon="5.91486">
        <ele>571</ele>
        <time>2019-06-25T09:49:20Z</time>
      </trkpt>
      <trkpt lat="44.35658" lon="5.91482">
        <ele>571</ele>
        <time>2019-06-25T09:49:21Z</time>
      </trkpt>
      <trkpt lat="44.35653" lon="5.91478">
        <ele>571</ele>
        <time>2019-06-25T09:49:22Z</time>
      </trkpt>
      <trkpt lat="44.35648" lon="5.91475">
        <ele>571</ele>
        <time>2019-06-25T09:49:23Z</time>
      </trkpt>
      <trkpt lat="44.35642" lon="5.91471">
        <ele>571</ele>
        <time>2019-06-25T09:49:24Z</time>
      </trkpt>
      <trkpt lat="44.35637" lon="5.91467">
        <ele>571</ele>
        <time>2019-06-25T09:49:25Z</time>
      </trkpt>
      <trkpt lat="44.35631" lon="5.91464">
        <ele>571</ele>
        <time>2019-06-25T09:49:26Z</time>
      </trkpt>
      <trkpt lat="44.35626" lon="5.91461">
        <ele>571</ele>
        <time>2019-06-25T09:49:27Z</time>
      </trkpt>
      <trkpt lat="44.3562" lon="5.91458">
        <ele>571</ele>
        <time>2019-06-25T09:49:28Z</time>
      </trkpt>
      <trkpt lat="44.35614" lon="5.91455">
        <ele>571</ele>
        <time>2019-06-25T09:49:29Z</time>
      </trkpt>
      <trkpt lat="44.35609" lon="5.91452">
        <ele>571</ele>
        <time>2019-06-25T09:49:30Z</time>
      </trkpt>
      <trkpt lat="44.35603" lon="5.91448">
        <ele>571</ele>
        <time>2019-06-25T09:49:31Z</time>
      </trkpt>
      <trkpt lat="44.35598" lon="5.91444">
        <ele>571</ele>
        <time>2019-06-25T09:49:33Z</time>
      </trkpt>
      <trkpt lat="44.35593" lon="5.91441">
        <ele>571</ele>
        <time>2019-06-25T09:49:33Z</time>
      </trkpt>
      <trkpt lat="44.35588" lon="5.91437">
        <ele>571</ele>
        <time>2019-06-25T09:49:34Z</time>
      </trkpt>
      <trkpt lat="44.35582" lon="5.91433">
        <ele>571</ele>
        <time>2019-06-25T09:49:35Z</time>
      </trkpt>
      <trkpt lat="44.35577" lon="5.91429">
        <ele>571</ele>
        <time>2019-06-25T09:49:36Z</time>
      </trkpt>
      <trkpt lat="44.35572" lon="5.91425">
        <ele>571</ele>
        <time>2019-06-25T09:49:37Z</time>
      </trkpt>
      <trkpt lat="44.35566" lon="5.91421">
        <ele>571</ele>
        <time>2019-06-25T09:49:38Z</time>
      </trkpt>
      <trkpt lat="44.35561" lon="5.91417">
        <ele>571</ele>
        <time>2019-06-25T09:49:39Z</time>
      </trkpt>
      <trkpt lat="44.35555" lon="5.91413">
        <ele>571</ele>
        <time>2019-06-25T09:49:40Z</time>
      </trkpt>
      <trkpt lat="44.3555" lon="5.91409">
        <ele>571</ele>
        <time>2019-06-25T09:49:41Z</time>
      </trkpt>
      <trkpt lat="44.35544" lon="5.91405">
        <ele>571</ele>
        <time>2019-06-25T09:49:42Z</time>
      </trkpt>
      <trkpt lat="44.35539" lon="5.91402">
        <ele>571</ele>
        <time>2019-06-25T09:49:43Z</time>
      </trkpt>
      <trkpt lat="44.35534" lon="5.91398">
        <ele>571</ele>
        <time>2019-06-25T09:49:44Z</time>
      </trkpt>
      <trkpt lat="44.35528" lon="5.91396">
        <ele>571</ele>
        <time>2019-06-25T09:49:45Z</time>
      </trkpt>
      <trkpt lat="44.35523" lon="5.91393">
        <ele>571</ele>
        <time>2019-06-25T09:49:46Z</time>
      </trkpt>
      <trkpt lat="44.35517" lon="5.9139">
        <ele>572</ele>
        <time>2019-06-25T09:49:47Z</time>
      </trkpt>
      <trkpt lat="44.35512" lon="5.91386">
        <ele>572</ele>
        <time>2019-06-25T09:49:48Z</time>
      </trkpt>
      <trkpt lat="44.35506" lon="5.91383">
        <ele>572</ele>
        <time>2019-06-25T09:49:49Z</time>
      </trkpt>
      <trkpt lat="44.35501" lon="5.9138">
        <ele>572</ele>
        <time>2019-06-25T09:49:50Z</time>
      </trkpt>
      <trkpt lat="44.35495" lon="5.91376">
        <ele>572</ele>
        <time>2019-06-25T09:49:51Z</time>
      </trkpt>
      <trkpt lat="44.3549" lon="5.91373">
        <ele>572</ele>
        <time>2019-06-25T09:49:52Z</time>
      </trkpt>
      <trkpt lat="44.35484" lon="5.91369">
        <ele>572</ele>
        <time>2019-06-25T09:49:53Z</time>
      </trkpt>
      <trkpt lat="44.35478" lon="5.91365">
        <ele>572</ele>
        <time>2019-06-25T09:49:54Z</time>
      </trkpt>
      <trkpt lat="44.35472" lon="5.91362">
        <ele>572</ele>
        <time>2019-06-25T09:49:55Z</time>
      </trkpt>
      <trkpt lat="44.35466" lon="5.91358">
        <ele>572</ele>
        <time>2019-06-25T09:49:56Z</time>
      </trkpt>
      <trkpt lat="44.35461" lon="5.91354">
        <ele>572</ele>
        <time>2019-06-25T09:49:57Z</time>
      </trkpt>
      <trkpt lat="44.35454" lon="5.9135">
        <ele>572</ele>
        <time>2019-06-25T09:49:58Z</time>
      </trkpt>
      <trkpt lat="44.35448" lon="5.91345">
        <ele>572</ele>
        <time>2019-06-25T09:49:59Z</time>
      </trkpt>
      <trkpt lat="44.35442" lon="5.91341">
        <ele>572</ele>
        <time>2019-06-25T09:50:00Z</time>
      </trkpt>
      <trkpt lat="44.35435" lon="5.91336">
        <ele>572</ele>
        <time>2019-06-25T09:50:01Z</time>
      </trkpt>
      <trkpt lat="44.35429" lon="5.91332">
        <ele>572</ele>
        <time>2019-06-25T09:50:02Z</time>
      </trkpt>
      <trkpt lat="44.35423" lon="5.91327">
        <ele>572</ele>
        <time>2019-06-25T09:50:03Z</time>
      </trkpt>
      <trkpt lat="44.35416" lon="5.91323">
        <ele>572</ele>
        <time>2019-06-25T09:50:04Z</time>
      </trkpt>
      <trkpt lat="44.3541" lon="5.91318">
        <ele>572</ele>
        <time>2019-06-25T09:50:05Z</time>
      </trkpt>
      <trkpt lat="44.35404" lon="5.91314">
        <ele>572</ele>
        <time>2019-06-25T09:50:06Z</time>
      </trkpt>
      <trkpt lat="44.35398" lon="5.91309">
        <ele>572</ele>
        <time>2019-06-25T09:50:07Z</time>
      </trkpt>
      <trkpt lat="44.35392" lon="5.91305">
        <ele>572</ele>
        <time>2019-06-25T09:50:08Z</time>
      </trkpt>
      <trkpt lat="44.35387" lon="5.913">
        <ele>572</ele>
        <time>2019-06-25T09:50:09Z</time>
      </trkpt>
      <trkpt lat="44.35381" lon="5.91296">
        <ele>572</ele>
        <time>2019-06-25T09:50:10Z</time>
      </trkpt>
      <trkpt lat="44.35375" lon="5.91291">
        <ele>572</ele>
        <time>2019-06-25T09:50:11Z</time>
      </trkpt>
      <trkpt lat="44.35369" lon="5.91287">
        <ele>572</ele>
        <time>2019-06-25T09:50:12Z</time>
      </trkpt>
      <trkpt lat="44.35363" lon="5.91282">
        <ele>572</ele>
        <time>2019-06-25T09:50:13Z</time>
      </trkpt>
      <trkpt lat="44.35358" lon="5.91278">
        <ele>572</ele>
        <time>2019-06-25T09:50:14Z</time>
      </trkpt>
      <trkpt lat="44.35352" lon="5.91273">
        <ele>572</ele>
        <time>2019-06-25T09:50:15Z</time>
      </trkpt>
      <trkpt lat="44.35345" lon="5.91268">
        <ele>572</ele>
        <time>2019-06-25T09:50:16Z</time>
      </trkpt>
      <trkpt lat="44.3534" lon="5.91263">
        <ele>572</ele>
        <time>2019-06-25T09:50:17Z</time>
      </trkpt>
      <trkpt lat="44.35334" lon="5.91258">
        <ele>572</ele>
        <time>2019-06-25T09:50:18Z</time>
      </trkpt>
      <trkpt lat="44.35328" lon="5.91253">
        <ele>572</ele>
        <time>2019-06-25T09:50:19Z</time>
      </trkpt>
      <trkpt lat="44.35321" lon="5.91248">
        <ele>572</ele>
        <time>2019-06-25T09:50:20Z</time>
      </trkpt>
      <trkpt lat="44.35315" lon="5.91244">
        <ele>572</ele>
        <time>2019-06-25T09:50:21Z</time>
      </trkpt>
      <trkpt lat="44.35309" lon="5.91239">
        <ele>572</ele>
        <time>2019-06-25T09:50:22Z</time>
      </trkpt>
      <trkpt lat="44.35303" lon="5.91234">
        <ele>572</ele>
        <time>2019-06-25T09:50:23Z</time>
      </trkpt>
      <trkpt lat="44.35297" lon="5.9123">
        <ele>572</ele>
        <time>2019-06-25T09:50:24Z</time>
      </trkpt>
      <trkpt lat="44.35291" lon="5.91225">
        <ele>572</ele>
        <time>2019-06-25T09:50:25Z</time>
      </trkpt>
      <trkpt lat="44.35285" lon="5.9122">
        <ele>572</ele>
        <time>2019-06-25T09:50:26Z</time>
      </trkpt>
      <trkpt lat="44.35279" lon="5.91216">
        <ele>572</ele>
        <time>2019-06-25T09:50:27Z</time>
      </trkpt>
      <trkpt lat="44.35273" lon="5.91211">
        <ele>572</ele>
        <time>2019-06-25T09:50:28Z</time>
      </trkpt>
      <trkpt lat="44.35268" lon="5.91206">
        <ele>572</ele>
        <time>2019-06-25T09:50:29Z</time>
      </trkpt>
      <trkpt lat="44.35262" lon="5.91201">
        <ele>572</ele>
        <time>2019-06-25T09:50:30Z</time>
      </trkpt>
      <trkpt lat="44.35256" lon="5.91195">
        <ele>572</ele>
        <time>2019-06-25T09:50:31Z</time>
      </trkpt>
      <trkpt lat="44.3525" lon="5.9119">
        <ele>572</ele>
        <time>2019-06-25T09:50:33Z</time>
      </trkpt>
      <trkpt lat="44.35244" lon="5.91185">
        <ele>572</ele>
        <time>2019-06-25T09:50:33Z</time>
      </trkpt>
      <trkpt lat="44.35238" lon="5.91179">
        <ele>572</ele>
        <time>2019-06-25T09:50:34Z</time>
      </trkpt>
      <trkpt lat="44.35232" lon="5.91174">
        <ele>572</ele>
        <time>2019-06-25T09:50:35Z</time>
      </trkpt>
      <trkpt lat="44.35226" lon="5.91168">
        <ele>572</ele>
        <time>2019-06-25T09:50:36Z</time>
      </trkpt>
      <trkpt lat="44.3522" lon="5.91162">
        <ele>572</ele>
        <time>2019-06-25T09:50:37Z</time>
      </trkpt>
      <trkpt lat="44.35214" lon="5.91157">
        <ele>572</ele>
        <time>2019-06-25T09:50:38Z</time>
      </trkpt>
      <trkpt lat="44.35208" lon="5.91152">
        <ele>572</ele>
        <time>2019-06-25T09:50:39Z</time>
      </trkpt>
      <trkpt lat="44.35202" lon="5.91146">
        <ele>572</ele>
        <time>2019-06-25T09:50:40Z</time>
      </trkpt>
      <trkpt lat="44.35196" lon="5.9114">
        <ele>572</ele>
        <time>2019-06-25T09:50:41Z</time>
      </trkpt>
      <trkpt lat="44.3519" lon="5.91134">
        <ele>572</ele>
        <time>2019-06-25T09:50:42Z</time>
      </trkpt>
      <trkpt lat="44.35183" lon="5.91128">
        <ele>572</ele>
        <time>2019-06-25T09:50:43Z</time>
      </trkpt>
      <trkpt lat="44.35177" lon="5.91123">
        <ele>572</ele>
        <time>2019-06-25T09:50:44Z</time>
      </trkpt>
      <trkpt lat="44.35171" lon="5.91117">
        <ele>572</ele>
        <time>2019-06-25T09:50:45Z</time>
      </trkpt>
      <trkpt lat="44.35165" lon="5.91111">
        <ele>572</ele>
        <time>2019-06-25T09:50:46Z</time>
      </trkpt>
      <trkpt lat="44.35158" lon="5.91105">
        <ele>572</ele>
        <time>2019-06-25T09:50:47Z</time>
      </trkpt>
      <trkpt lat="44.35152" lon="5.91099">
        <ele>572</ele>
        <time>2019-06-25T09:50:48Z</time>
      </trkpt>
      <trkpt lat="44.35145" lon="5.91092">
        <ele>572</ele>
        <time>2019-06-25T09:50:49Z</time>
      </trkpt>
      <trkpt lat="44.35138" lon="5.91086">
        <ele>572</ele>
        <time>2019-06-25T09:50:50Z</time>
      </trkpt>
      <trkpt lat="44.35131" lon="5.9108">
        <ele>571</ele>
        <time>2019-06-25T09:50:51Z</time>
      </trkpt>
      <trkpt lat="44.35124" lon="5.91073">
        <ele>571</ele>
        <time>2019-06-25T09:50:52Z</time>
      </trkpt>
      <trkpt lat="44.35117" lon="5.91067">
        <ele>571</ele>
        <time>2019-06-25T09:50:53Z</time>
      </trkpt>
      <trkpt lat="44.3511" lon="5.9106">
        <ele>570</ele>
        <time>2019-06-25T09:50:54Z</time>
      </trkpt>
      <trkpt lat="44.35104" lon="5.91053">
        <ele>570</ele>
        <time>2019-06-25T09:50:55Z</time>
      </trkpt>
      <trkpt lat="44.35097" lon="5.91046">
        <ele>570</ele>
        <time>2019-06-25T09:50:56Z</time>
      </trkpt>
      <trkpt lat="44.3509" lon="5.9104">
        <ele>570</ele>
        <time>2019-06-25T09:50:57Z</time>
      </trkpt>
      <trkpt lat="44.35083" lon="5.91034">
        <ele>569</ele>
        <time>2019-06-25T09:50:58Z</time>
      </trkpt>
      <trkpt lat="44.35077" lon="5.91027">
        <ele>569</ele>
        <time>2019-06-25T09:50:59Z</time>
      </trkpt>
      <trkpt lat="44.3507" lon="5.91021">
        <ele>569</ele>
        <time>2019-06-25T09:51:00Z</time>
      </trkpt>
      <trkpt lat="44.35063" lon="5.91015">
        <ele>569</ele>
        <time>2019-06-25T09:51:01Z</time>
      </trkpt>
      <trkpt lat="44.35056" lon="5.91009">
        <ele>569</ele>
        <time>2019-06-25T09:51:02Z</time>
      </trkpt>
      <trkpt lat="44.35049" lon="5.91003">
        <ele>568</ele>
        <time>2019-06-25T09:51:03Z</time>
      </trkpt>
      <trkpt lat="44.35043" lon="5.90998">
        <ele>568</ele>
        <time>2019-06-25T09:51:04Z</time>
      </trkpt>
      <trkpt lat="44.35036" lon="5.90991">
        <ele>568</ele>
        <time>2019-06-25T09:51:05Z</time>
      </trkpt>
      <trkpt lat="44.35029" lon="5.90985">
        <ele>568</ele>
        <time>2019-06-25T09:51:06Z</time>
      </trkpt>
      <trkpt lat="44.35022" lon="5.90978">
        <ele>567</ele>
        <time>2019-06-25T09:51:07Z</time>
      </trkpt>
      <trkpt lat="44.35015" lon="5.90972">
        <ele>567</ele>
        <time>2019-06-25T09:51:08Z</time>
      </trkpt>
      <trkpt lat="44.35008" lon="5.90965">
        <ele>567</ele>
        <time>2019-06-25T09:51:09Z</time>
      </trkpt>
      <trkpt lat="44.35001" lon="5.90958">
        <ele>567</ele>
        <time>2019-06-25T09:51:10Z</time>
      </trkpt>
      <trkpt lat="44.34994" lon="5.90952">
        <ele>567</ele>
        <time>2019-06-25T09:51:11Z</time>
      </trkpt>
      <trkpt lat="44.34987" lon="5.90945">
        <ele>567</ele>
        <time>2019-06-25T09:51:12Z</time>
      </trkpt>
      <trkpt lat="44.3498" lon="5.90939">
        <ele>567</ele>
        <time>2019-06-25T09:51:13Z</time>
      </trkpt>
      <trkpt lat="44.34972" lon="5.90932">
        <ele>567</ele>
        <time>2019-06-25T09:51:14Z</time>
      </trkpt>
      <trkpt lat="44.34965" lon="5.90925">
        <ele>566</ele>
        <time>2019-06-25T09:51:15Z</time>
      </trkpt>
      <trkpt lat="44.34958" lon="5.90919">
        <ele>566</ele>
        <time>2019-06-25T09:51:16Z</time>
      </trkpt>
      <trkpt lat="44.3495" lon="5.90912">
        <ele>566</ele>
        <time>2019-06-25T09:51:17Z</time>
      </trkpt>
      <trkpt lat="44.34943" lon="5.90906">
        <ele>566</ele>
        <time>2019-06-25T09:51:18Z</time>
      </trkpt>
      <trkpt lat="44.34936" lon="5.90901">
        <ele>566</ele>
        <time>2019-06-25T09:51:19Z</time>
      </trkpt>
      <trkpt lat="44.34929" lon="5.90896">
        <ele>566</ele>
        <time>2019-06-25T09:51:20Z</time>
      </trkpt>
      <trkpt lat="44.34923" lon="5.90891">
        <ele>566</ele>
        <time>2019-06-25T09:51:21Z</time>
      </trkpt>
      <trkpt lat="44.34917" lon="5.90886">
        <ele>566</ele>
        <time>2019-06-25T09:51:22Z</time>
      </trkpt>
      <trkpt lat="44.3491" lon="5.90881">
        <ele>566</ele>
        <time>2019-06-25T09:51:23Z</time>
      </trkpt>
      <trkpt lat="44.34904" lon="5.90877">
        <ele>566</ele>
        <time>2019-06-25T09:51:24Z</time>
      </trkpt>
      <trkpt lat="44.34898" lon="5.90872">
        <ele>566</ele>
        <time>2019-06-25T09:51:25Z</time>
      </trkpt>
      <trkpt lat="44.34892" lon="5.90868">
        <ele>566</ele>
        <time>2019-06-25T09:51:26Z</time>
      </trkpt>
      <trkpt lat="44.34886" lon="5.90864">
        <ele>566</ele>
        <time>2019-06-25T09:51:27Z</time>
      </trkpt>
      <trkpt lat="44.3488" lon="5.90859">
        <ele>566</ele>
        <time>2019-06-25T09:51:28Z</time>
      </trkpt>
      <trkpt lat="44.34875" lon="5.90855">
        <ele>566</ele>
        <time>2019-06-25T09:51:29Z</time>
      </trkpt>
      <trkpt lat="44.34869" lon="5.9085">
        <ele>566</ele>
        <time>2019-06-25T09:51:30Z</time>
      </trkpt>
      <trkpt lat="44.34864" lon="5.90846">
        <ele>566</ele>
        <time>2019-06-25T09:51:31Z</time>
      </trkpt>
      <trkpt lat="44.34858" lon="5.90842">
        <ele>566</ele>
        <time>2019-06-25T09:51:33Z</time>
      </trkpt>
      <trkpt lat="44.34852" lon="5.90837">
        <ele>566</ele>
        <time>2019-06-25T09:51:33Z</time>
      </trkpt>
      <trkpt lat="44.34847" lon="5.90833">
        <ele>566</ele>
        <time>2019-06-25T09:51:34Z</time>
      </trkpt>
      <trkpt lat="44.34841" lon="5.90828">
        <ele>566</ele>
        <time>2019-06-25T09:51:35Z</time>
      </trkpt>
      <trkpt lat="44.34836" lon="5.90824">
        <ele>566</ele>
        <time>2019-06-25T09:51:36Z</time>
      </trkpt>
      <trkpt lat="44.3483" lon="5.9082">
        <ele>566</ele>
        <time>2019-06-25T09:51:37Z</time>
      </trkpt>
      <trkpt lat="44.34825" lon="5.90815">
        <ele>566</ele>
        <time>2019-06-25T09:51:38Z</time>
      </trkpt>
      <trkpt lat="44.34819" lon="5.90811">
        <ele>566</ele>
        <time>2019-06-25T09:51:39Z</time>
      </trkpt>
      <trkpt lat="44.34814" lon="5.90807">
        <ele>566</ele>
        <time>2019-06-25T09:51:40Z</time>
      </trkpt>
      <trkpt lat="44.34808" lon="5.90802">
        <ele>566</ele>
        <time>2019-06-25T09:51:41Z</time>
      </trkpt>
      <trkpt lat="44.34803" lon="5.90798">
        <ele>566</ele>
        <time>2019-06-25T09:51:42Z</time>
      </trkpt>
      <trkpt lat="44.34797" lon="5.90793">
        <ele>566</ele>
        <time>2019-06-25T09:51:43Z</time>
      </trkpt>
      <trkpt lat="44.34792" lon="5.90789">
        <ele>566</ele>
        <time>2019-06-25T09:51:44Z</time>
      </trkpt>
      <trkpt lat="44.34787" lon="5.90785">
        <ele>566</ele>
        <time>2019-06-25T09:51:45Z</time>
      </trkpt>
      <trkpt lat="44.34781" lon="5.90781">
        <ele>566</ele>
        <time>2019-06-25T09:51:46Z</time>
      </trkpt>
      <trkpt lat="44.34776" lon="5.90777">
        <ele>566</ele>
        <time>2019-06-25T09:51:47Z</time>
      </trkpt>
      <trkpt lat="44.34771" lon="5.90773">
        <ele>566</ele>
        <time>2019-06-25T09:51:48Z</time>
      </trkpt>
      <trkpt lat="44.34766" lon="5.90769">
        <ele>566</ele>
        <time>2019-06-25T09:51:49Z</time>
      </trkpt>
      <trkpt lat="44.34761" lon="5.90765">
        <ele>566</ele>
        <time>2019-06-25T09:51:50Z</time>
      </trkpt>
      <trkpt lat="44.34756" lon="5.90761">
        <ele>566</ele>
        <time>2019-06-25T09:51:51Z</time>
      </trkpt>
      <trkpt lat="44.34752" lon="5.90757">
        <ele>566</ele>
        <time>2019-06-25T09:51:52Z</time>
      </trkpt>
      <trkpt lat="44.34747" lon="5.90753">
        <ele>566</ele>
        <time>2019-06-25T09:51:53Z</time>
      </trkpt>
      <trkpt lat="44.34742" lon="5.90749">
        <ele>566</ele>
        <time>2019-06-25T09:51:54Z</time>
      </trkpt>
      <trkpt lat="44.34737" lon="5.90745">
        <ele>566</ele>
        <time>2019-06-25T09:51:55Z</time>
      </trkpt>
      <trkpt lat="44.34731" lon="5.90741">
        <ele>566</ele>
        <time>2019-06-25T09:51:56Z</time>
      </trkpt>
      <trkpt lat="44.34726" lon="5.90737">
        <ele>566</ele>
        <time>2019-06-25T09:51:57Z</time>
      </trkpt>
      <trkpt lat="44.34721" lon="5.90734">
        <ele>566</ele>
        <time>2019-06-25T09:51:58Z</time>
      </trkpt>
      <trkpt lat="44.34716" lon="5.9073">
        <ele>566</ele>
        <time>2019-06-25T09:51:59Z</time>
      </trkpt>
      <trkpt lat="44.34712" lon="5.90727">
        <ele>566</ele>
        <time>2019-06-25T09:52:00Z</time>
      </trkpt>
      <trkpt lat="44.34707" lon="5.90724">
        <ele>566</ele>
        <time>2019-06-25T09:52:01Z</time>
      </trkpt>
      <trkpt lat="44.34703" lon="5.90721">
        <ele>566</ele>
        <time>2019-06-25T09:52:02Z</time>
      </trkpt>
      <trkpt lat="44.34698" lon="5.90718">
        <ele>566</ele>
        <time>2019-06-25T09:52:03Z</time>
      </trkpt>
      <trkpt lat="44.34693" lon="5.90715">
        <ele>566</ele>
        <time>2019-06-25T09:52:04Z</time>
      </trkpt>
      <trkpt lat="44.34689" lon="5.90713">
        <ele>566</ele>
        <time>2019-06-25T09:52:05Z</time>
      </trkpt>
      <trkpt lat="44.34684" lon="5.9071">
        <ele>566</ele>
        <time>2019-06-25T09:52:06Z</time>
      </trkpt>
      <trkpt lat="44.34681" lon="5.90708">
        <ele>566</ele>
        <time>2019-06-25T09:52:07Z</time>
      </trkpt>
      <trkpt lat="44.34676" lon="5.90705">
        <ele>566</ele>
        <time>2019-06-25T09:52:08Z</time>
      </trkpt>
      <trkpt lat="44.34673" lon="5.90702">
        <ele>566</ele>
        <time>2019-06-25T09:52:09Z</time>
      </trkpt>
      <trkpt lat="44.34668" lon="5.907">
        <ele>566</ele>
        <time>2019-06-25T09:52:10Z</time>
      </trkpt>
      <trkpt lat="44.34665" lon="5.90698">
        <ele>567</ele>
        <time>2019-06-25T09:52:11Z</time>
      </trkpt>
      <trkpt lat="44.34661" lon="5.90695">
        <ele>567</ele>
        <time>2019-06-25T09:52:12Z</time>
      </trkpt>
      <trkpt lat="44.34658" lon="5.90693">
        <ele>567</ele>
        <time>2019-06-25T09:52:13Z</time>
      </trkpt>
      <trkpt lat="44.34654" lon="5.90691">
        <ele>567</ele>
        <time>2019-06-25T09:52:14Z</time>
      </trkpt>
      <trkpt lat="44.3465" lon="5.90689">
        <ele>568</ele>
        <time>2019-06-25T09:52:15Z</time>
      </trkpt>
      <trkpt lat="44.34647" lon="5.90687">
        <ele>568</ele>
        <time>2019-06-25T09:52:16Z</time>
      </trkpt>
      <trkpt lat="44.34643" lon="5.90684">
        <ele>568</ele>
        <time>2019-06-25T09:52:17Z</time>
      </trkpt>
      <trkpt lat="44.3464" lon="5.90681">
        <ele>569</ele>
        <time>2019-06-25T09:52:18Z</time>
      </trkpt>
      <trkpt lat="44.34636" lon="5.90678">
        <ele>569</ele>
        <time>2019-06-25T09:52:19Z</time>
      </trkpt>
      <trkpt lat="44.34632" lon="5.90675">
        <ele>570</ele>
        <time>2019-06-25T09:52:20Z</time>
      </trkpt>
      <trkpt lat="44.34629" lon="5.90672">
        <ele>570</ele>
        <time>2019-06-25T09:52:21Z</time>
      </trkpt>
      <trkpt lat="44.34625" lon="5.9067">
        <ele>570</ele>
        <time>2019-06-25T09:52:22Z</time>
      </trkpt>
      <trkpt lat="44.34621" lon="5.90667">
        <ele>570</ele>
        <time>2019-06-25T09:52:23Z</time>
      </trkpt>
      <trkpt lat="44.34618" lon="5.90664">
        <ele>571</ele>
        <time>2019-06-25T09:52:24Z</time>
      </trkpt>
      <trkpt lat="44.34614" lon="5.90662">
        <ele>571</ele>
        <time>2019-06-25T09:52:25Z</time>
      </trkpt>
      <trkpt lat="44.3461" lon="5.9066">
        <ele>571</ele>
        <time>2019-06-25T09:52:26Z</time>
      </trkpt>
      <trkpt lat="44.34607" lon="5.90657">
        <ele>571</ele>
        <time>2019-06-25T09:52:27Z</time>
      </trkpt>
      <trkpt lat="44.34603" lon="5.90653">
        <ele>571</ele>
        <time>2019-06-25T09:52:28Z</time>
      </trkpt>
      <trkpt lat="44.34599" lon="5.90649">
        <ele>571</ele>
        <time>2019-06-25T09:52:29Z</time>
      </trkpt>
      <trkpt lat="44.34595" lon="5.90646">
        <ele>571</ele>
        <time>2019-06-25T09:52:30Z</time>
      </trkpt>
      <trkpt lat="44.34591" lon="5.90642">
        <ele>571</ele>
        <time>2019-06-25T09:52:31Z</time>
      </trkpt>
      <trkpt lat="44.34587" lon="5.90639">
        <ele>571</ele>
        <time>2019-06-25T09:52:33Z</time>
      </trkpt>
      <trkpt lat="44.34583" lon="5.90635">
        <ele>571</ele>
        <time>2019-06-25T09:52:33Z</time>
      </trkpt>
      <trkpt lat="44.34579" lon="5.90631">
        <ele>571</ele>
        <time>2019-06-25T09:52:34Z</time>
      </trkpt>
      <trkpt lat="44.34574" lon="5.90628">
        <ele>571</ele>
        <time>2019-06-25T09:52:35Z</time>
      </trkpt>
      <trkpt lat="44.3457" lon="5.90624">
        <ele>571</ele>
        <time>2019-06-25T09:52:36Z</time>
      </trkpt>
      <trkpt lat="44.34565" lon="5.9062">
        <ele>571</ele>
        <time>2019-06-25T09:52:37Z</time>
      </trkpt>
      <trkpt lat="44.34561" lon="5.90617">
        <ele>571</ele>
        <time>2019-06-25T09:52:38Z</time>
      </trkpt>
      <trkpt lat="44.34556" lon="5.90613">
        <ele>571</ele>
        <time>2019-06-25T09:52:39Z</time>
      </trkpt>
      <trkpt lat="44.34552" lon="5.90609">
        <ele>571</ele>
        <time>2019-06-25T09:52:40Z</time>
      </trkpt>
      <trkpt lat="44.34547" lon="5.90605">
        <ele>571</ele>
        <time>2019-06-25T09:52:41Z</time>
      </trkpt>
      <trkpt lat="44.34543" lon="5.90601">
        <ele>571</ele>
        <time>2019-06-25T09:52:42Z</time>
      </trkpt>
      <trkpt lat="44.34538" lon="5.90597">
        <ele>571</ele>
        <time>2019-06-25T09:52:43Z</time>
      </trkpt>
      <trkpt lat="44.34533" lon="5.90594">
        <ele>571</ele>
        <time>2019-06-25T09:52:44Z</time>
      </trkpt>
      <trkpt lat="44.34529" lon="5.9059">
        <ele>571</ele>
        <time>2019-06-25T09:52:45Z</time>
      </trkpt>
      <trkpt lat="44.34524" lon="5.90586">
        <ele>571</ele>
        <time>2019-06-25T09:52:46Z</time>
      </trkpt>
      <trkpt lat="44.3452" lon="5.90582">
        <ele>571</ele>
        <time>2019-06-25T09:52:47Z</time>
      </trkpt>
      <trkpt lat="44.34515" lon="5.90578">
        <ele>571</ele>
        <time>2019-06-25T09:52:48Z</time>
      </trkpt>
      <trkpt lat="44.3451" lon="5.90574">
        <ele>571</ele>
        <time>2019-06-25T09:52:49Z</time>
      </trkpt>
      <trkpt lat="44.34505" lon="5.9057">
        <ele>571</ele>
        <time>2019-06-25T09:52:50Z</time>
      </trkpt>
      <trkpt lat="44.34501" lon="5.90566">
        <ele>571</ele>
        <time>2019-06-25T09:52:51Z</time>
      </trkpt>
      <trkpt lat="44.34496" lon="5.90562">
        <ele>571</ele>
        <time>2019-06-25T09:52:52Z</time>
      </trkpt>
      <trkpt lat="44.34491" lon="5.90558">
        <ele>571</ele>
        <time>2019-06-25T09:52:53Z</time>
      </trkpt>
      <trkpt lat="44.34486" lon="5.90555">
        <ele>571</ele>
        <time>2019-06-25T09:52:54Z</time>
      </trkpt>
      <trkpt lat="44.34481" lon="5.90551">
        <ele>571</ele>
        <time>2019-06-25T09:52:55Z</time>
      </trkpt>
      <trkpt lat="44.34476" lon="5.90546">
        <ele>571</ele>
        <time>2019-06-25T09:52:56Z</time>
      </trkpt>
      <trkpt lat="44.34471" lon="5.90542">
        <ele>571</ele>
        <time>2019-06-25T09:52:57Z</time>
      </trkpt>
      <trkpt lat="44.34466" lon="5.90538">
        <ele>571</ele>
        <time>2019-06-25T09:52:58Z</time>
      </trkpt>
      <trkpt lat="44.34461" lon="5.90533">
        <ele>571</ele>
        <time>2019-06-25T09:52:59Z</time>
      </trkpt>
      <trkpt lat="44.34456" lon="5.90529">
        <ele>571</ele>
        <time>2019-06-25T09:53:00Z</time>
      </trkpt>
      <trkpt lat="44.34451" lon="5.90524">
        <ele>572</ele>
        <time>2019-06-25T09:53:01Z</time>
      </trkpt>
      <trkpt lat="44.34446" lon="5.9052">
        <ele>572</ele>
        <time>2019-06-25T09:53:02Z</time>
      </trkpt>
      <trkpt lat="44.34442" lon="5.90516">
        <ele>572</ele>
        <time>2019-06-25T09:53:03Z</time>
      </trkpt>
      <trkpt lat="44.34437" lon="5.90511">
        <ele>572</ele>
        <time>2019-06-25T09:53:04Z</time>
      </trkpt>
      <trkpt lat="44.34433" lon="5.90507">
        <ele>572</ele>
        <time>2019-06-25T09:53:05Z</time>
      </trkpt>
      <trkpt lat="44.34428" lon="5.90502">
        <ele>572</ele>
        <time>2019-06-25T09:53:06Z</time>
      </trkpt>
      <trkpt lat="44.34424" lon="5.90498">
        <ele>572</ele>
        <time>2019-06-25T09:53:07Z</time>
      </trkpt>
      <trkpt lat="44.3442" lon="5.90493">
        <ele>572</ele>
        <time>2019-06-25T09:53:08Z</time>
      </trkpt>
      <trkpt lat="44.34417" lon="5.90488">
        <ele>573</ele>
        <time>2019-06-25T09:53:09Z</time>
      </trkpt>
      <trkpt lat="44.34413" lon="5.90482">
        <ele>573</ele>
        <time>2019-06-25T09:53:10Z</time>
      </trkpt>
      <trkpt lat="44.3441" lon="5.90476">
        <ele>573</ele>
        <time>2019-06-25T09:53:11Z</time>
      </trkpt>
      <trkpt lat="44.34407" lon="5.9047">
        <ele>573</ele>
        <time>2019-06-25T09:53:12Z</time>
      </trkpt>
      <trkpt lat="44.34404" lon="5.90464">
        <ele>573</ele>
        <time>2019-06-25T09:53:13Z</time>
      </trkpt>
      <trkpt lat="44.344" lon="5.9046">
        <ele>573</ele>
        <time>2019-06-25T09:53:14Z</time>
      </trkpt>
      <trkpt lat="44.34396" lon="5.90457">
        <ele>574</ele>
        <time>2019-06-25T09:53:15Z</time>
      </trkpt>
      <trkpt lat="44.34392" lon="5.90454">
        <ele>574</ele>
        <time>2019-06-25T09:53:16Z</time>
      </trkpt>
      <trkpt lat="44.34388" lon="5.90452">
        <ele>574</ele>
        <time>2019-06-25T09:53:17Z</time>
      </trkpt>
      <trkpt lat="44.34383" lon="5.90449">
        <ele>574</ele>
        <time>2019-06-25T09:53:18Z</time>
      </trkpt>
      <trkpt lat="44.34378" lon="5.90447">
        <ele>574</ele>
        <time>2019-06-25T09:53:19Z</time>
      </trkpt>
      <trkpt lat="44.34372" lon="5.90444">
        <ele>574</ele>
        <time>2019-06-25T09:53:20Z</time>
      </trkpt>
      <trkpt lat="44.34366" lon="5.9044">
        <ele>574</ele>
        <time>2019-06-25T09:53:21Z</time>
      </trkpt>
      <trkpt lat="44.3436" lon="5.90436">
        <ele>574</ele>
        <time>2019-06-25T09:53:22Z</time>
      </trkpt>
      <trkpt lat="44.34353" lon="5.90432">
        <ele>574</ele>
        <time>2019-06-25T09:53:23Z</time>
      </trkpt>
      <trkpt lat="44.34346" lon="5.90427">
        <ele>574</ele>
        <time>2019-06-25T09:53:24Z</time>
      </trkpt>
      <trkpt lat="44.34338" lon="5.90422">
        <ele>574</ele>
        <time>2019-06-25T09:53:25Z</time>
      </trkpt>
      <trkpt lat="44.34331" lon="5.90417">
        <ele>574</ele>
        <time>2019-06-25T09:53:26Z</time>
      </trkpt>
      <trkpt lat="44.34324" lon="5.90412">
        <ele>574</ele>
        <time>2019-06-25T09:53:27Z</time>
      </trkpt>
      <trkpt lat="44.34317" lon="5.90406">
        <ele>574</ele>
        <time>2019-06-25T09:53:28Z</time>
      </trkpt>
      <trkpt lat="44.34311" lon="5.904">
        <ele>574</ele>
        <time>2019-06-25T09:53:29Z</time>
      </trkpt>
      <trkpt lat="44.34304" lon="5.90394">
        <ele>574</ele>
        <time>2019-06-25T09:53:30Z</time>
      </trkpt>
      <trkpt lat="44.34298" lon="5.90388">
        <ele>574</ele>
        <time>2019-06-25T09:53:31Z</time>
      </trkpt>
      <trkpt lat="44.34293" lon="5.90382">
        <ele>574</ele>
        <time>2019-06-25T09:53:33Z</time>
      </trkpt>
      <trkpt lat="44.34287" lon="5.90376">
        <ele>574</ele>
        <time>2019-06-25T09:53:33Z</time>
      </trkpt>
      <trkpt lat="44.34281" lon="5.90371">
        <ele>574</ele>
        <time>2019-06-25T09:53:34Z</time>
      </trkpt>
      <trkpt lat="44.34276" lon="5.90365">
        <ele>574</ele>
        <time>2019-06-25T09:53:35Z</time>
      </trkpt>
      <trkpt lat="44.34271" lon="5.90359">
        <ele>574</ele>
        <time>2019-06-25T09:53:36Z</time>
      </trkpt>
      <trkpt lat="44.34267" lon="5.90353">
        <ele>574</ele>
        <time>2019-06-25T09:53:37Z</time>
      </trkpt>
      <trkpt lat="44.34262" lon="5.90348">
        <ele>574</ele>
        <time>2019-06-25T09:53:38Z</time>
      </trkpt>
      <trkpt lat="44.34258" lon="5.90343">
        <ele>574</ele>
        <time>2019-06-25T09:53:39Z</time>
      </trkpt>
      <trkpt lat="44.34253" lon="5.90338">
        <ele>574</ele>
        <time>2019-06-25T09:53:40Z</time>
      </trkpt>
      <trkpt lat="44.3425" lon="5.90333">
        <ele>574</ele>
        <time>2019-06-25T09:53:41Z</time>
      </trkpt>
      <trkpt lat="44.34246" lon="5.90328">
        <ele>574</ele>
        <time>2019-06-25T09:53:42Z</time>
      </trkpt>
      <trkpt lat="44.34243" lon="5.90323">
        <ele>574</ele>
        <time>2019-06-25T09:53:43Z</time>
      </trkpt>
      <trkpt lat="44.34239" lon="5.90319">
        <ele>574</ele>
        <time>2019-06-25T09:53:44Z</time>
      </trkpt>
      <trkpt lat="44.34236" lon="5.90314">
        <ele>574</ele>
        <time>2019-06-25T09:53:45Z</time>
      </trkpt>
      <trkpt lat="44.34233" lon="5.9031">
        <ele>574</ele>
        <time>2019-06-25T09:53:46Z</time>
      </trkpt>
      <trkpt lat="44.34229" lon="5.90306">
        <ele>574</ele>
        <time>2019-06-25T09:53:47Z</time>
      </trkpt>
      <trkpt lat="44.34226" lon="5.90302">
        <ele>574</ele>
        <time>2019-06-25T09:53:48Z</time>
      </trkpt>
      <trkpt lat="44.34223" lon="5.90298">
        <ele>574</ele>
        <time>2019-06-25T09:53:49Z</time>
      </trkpt>
      <trkpt lat="44.3422" lon="5.90294">
        <ele>574</ele>
        <time>2019-06-25T09:53:50Z</time>
      </trkpt>
      <trkpt lat="44.34217" lon="5.9029">
        <ele>575</ele>
        <time>2019-06-25T09:53:51Z</time>
      </trkpt>
      <trkpt lat="44.34214" lon="5.90286">
        <ele>575</ele>
        <time>2019-06-25T09:53:52Z</time>
      </trkpt>
      <trkpt lat="44.34211" lon="5.90282">
        <ele>575</ele>
        <time>2019-06-25T09:53:53Z</time>
      </trkpt>
      <trkpt lat="44.34208" lon="5.90278">
        <ele>575</ele>
        <time>2019-06-25T09:53:54Z</time>
      </trkpt>
      <trkpt lat="44.34204" lon="5.90274">
        <ele>576</ele>
        <time>2019-06-25T09:53:55Z</time>
      </trkpt>
      <trkpt lat="44.34202" lon="5.9027">
        <ele>576</ele>
        <time>2019-06-25T09:53:56Z</time>
      </trkpt>
      <trkpt lat="44.34198" lon="5.90266">
        <ele>576</ele>
        <time>2019-06-25T09:53:57Z</time>
      </trkpt>
      <trkpt lat="44.34195" lon="5.90262">
        <ele>576</ele>
        <time>2019-06-25T09:53:58Z</time>
      </trkpt>
      <trkpt lat="44.34193" lon="5.90259">
        <ele>576</ele>
        <time>2019-06-25T09:53:59Z</time>
      </trkpt>
      <trkpt lat="44.3419" lon="5.90255">
        <ele>576</ele>
        <time>2019-06-25T09:54:00Z</time>
      </trkpt>
      <trkpt lat="44.34187" lon="5.90251">
        <ele>577</ele>
        <time>2019-06-25T09:54:01Z</time>
      </trkpt>
      <trkpt lat="44.34184" lon="5.90248">
        <ele>577</ele>
        <time>2019-06-25T09:54:02Z</time>
      </trkpt>
      <trkpt lat="44.34181" lon="5.90244">
        <ele>577</ele>
        <time>2019-06-25T09:54:03Z</time>
      </trkpt>
      <trkpt lat="44.34178" lon="5.9024">
        <ele>578</ele>
        <time>2019-06-25T09:54:04Z</time>
      </trkpt>
      <trkpt lat="44.34175" lon="5.90235">
        <ele>578</ele>
        <time>2019-06-25T09:54:05Z</time>
      </trkpt>
      <trkpt lat="44.34172" lon="5.90231">
        <ele>578</ele>
        <time>2019-06-25T09:54:06Z</time>
      </trkpt>
      <trkpt lat="44.34169" lon="5.90228">
        <ele>579</ele>
        <time>2019-06-25T09:54:07Z</time>
      </trkpt>
      <trkpt lat="44.34166" lon="5.90225">
        <ele>579</ele>
        <time>2019-06-25T09:54:08Z</time>
      </trkpt>
      <trkpt lat="44.34164" lon="5.90222">
        <ele>580</ele>
        <time>2019-06-25T09:54:09Z</time>
      </trkpt>
      <trkpt lat="44.34161" lon="5.90219">
        <ele>580</ele>
        <time>2019-06-25T09:54:10Z</time>
      </trkpt>
      <trkpt lat="44.34159" lon="5.90216">
        <ele>580</ele>
        <time>2019-06-25T09:54:11Z</time>
      </trkpt>
      <trkpt lat="44.34156" lon="5.90213">
        <ele>580</ele>
        <time>2019-06-25T09:54:12Z</time>
      </trkpt>
      <trkpt lat="44.34154" lon="5.90211">
        <ele>581</ele>
        <time>2019-06-25T09:54:13Z</time>
      </trkpt>
      <trkpt lat="44.34151" lon="5.90208">
        <ele>581</ele>
        <time>2019-06-25T09:54:14Z</time>
      </trkpt>
      <trkpt lat="44.34149" lon="5.90205">
        <ele>581</ele>
        <time>2019-06-25T09:54:15Z</time>
      </trkpt>
      <trkpt lat="44.34146" lon="5.90202">
        <ele>581</ele>
        <time>2019-06-25T09:54:16Z</time>
      </trkpt>
      <trkpt lat="44.34144" lon="5.90199">
        <ele>581</ele>
        <time>2019-06-25T09:54:17Z</time>
      </trkpt>
      <trkpt lat="44.34141" lon="5.90196">
        <ele>582</ele>
        <time>2019-06-25T09:54:18Z</time>
      </trkpt>
      <trkpt lat="44.34139" lon="5.90192">
        <ele>582</ele>
        <time>2019-06-25T09:54:19Z</time>
      </trkpt>
      <trkpt lat="44.34136" lon="5.90189">
        <ele>582</ele>
        <time>2019-06-25T09:54:20Z</time>
      </trkpt>
      <trkpt lat="44.34133" lon="5.90185">
        <ele>582</ele>
        <time>2019-06-25T09:54:21Z</time>
      </trkpt>
      <trkpt lat="44.34129" lon="5.90182">
        <ele>582</ele>
        <time>2019-06-25T09:54:22Z</time>
      </trkpt>
      <trkpt lat="44.34126" lon="5.90179">
        <ele>582</ele>
        <time>2019-06-25T09:54:23Z</time>
      </trkpt>
      <trkpt lat="44.34122" lon="5.90175">
        <ele>582</ele>
        <time>2019-06-25T09:54:24Z</time>
      </trkpt>
      <trkpt lat="44.34119" lon="5.90171">
        <ele>582</ele>
        <time>2019-06-25T09:54:25Z</time>
      </trkpt>
      <trkpt lat="44.34115" lon="5.90168">
        <ele>582</ele>
        <time>2019-06-25T09:54:26Z</time>
      </trkpt>
      <trkpt lat="44.34111" lon="5.90164">
        <ele>582</ele>
        <time>2019-06-25T09:54:27Z</time>
      </trkpt>
      <trkpt lat="44.34107" lon="5.9016">
        <ele>582</ele>
        <time>2019-06-25T09:54:28Z</time>
      </trkpt>
      <trkpt lat="44.34103" lon="5.90155">
        <ele>582</ele>
        <time>2019-06-25T09:54:29Z</time>
      </trkpt>
      <trkpt lat="44.34098" lon="5.90151">
        <ele>582</ele>
        <time>2019-06-25T09:54:30Z</time>
      </trkpt>
      <trkpt lat="44.34094" lon="5.90147">
        <ele>582</ele>
        <time>2019-06-25T09:54:31Z</time>
      </trkpt>
      <trkpt lat="44.34089" lon="5.90142">
        <ele>582</ele>
        <time>2019-06-25T09:54:32Z</time>
      </trkpt>
      <trkpt lat="44.34083" lon="5.90138">
        <ele>582</ele>
        <time>2019-06-25T09:54:33Z</time>
      </trkpt>
      <trkpt lat="44.34077" lon="5.90133">
        <ele>582</ele>
        <time>2019-06-25T09:54:34Z</time>
      </trkpt>
      <trkpt lat="44.34072" lon="5.90128">
        <ele>582</ele>
        <time>2019-06-25T09:54:35Z</time>
      </trkpt>
      <trkpt lat="44.34065" lon="5.90122">
        <ele>582</ele>
        <time>2019-06-25T09:54:36Z</time>
      </trkpt>
      <trkpt lat="44.34059" lon="5.90116">
        <ele>582</ele>
        <time>2019-06-25T09:54:37Z</time>
      </trkpt>
      <trkpt lat="44.34052" lon="5.9011">
        <ele>582</ele>
        <time>2019-06-25T09:54:38Z</time>
      </trkpt>
      <trkpt lat="44.34045" lon="5.90104">
        <ele>582</ele>
        <time>2019-06-25T09:54:39Z</time>
      </trkpt>
      <trkpt lat="44.34037" lon="5.90098">
        <ele>582</ele>
        <time>2019-06-25T09:54:40Z</time>
      </trkpt>
      <trkpt lat="44.3403" lon="5.90091">
        <ele>582</ele>
        <time>2019-06-25T09:54:41Z</time>
      </trkpt>
      <trkpt lat="44.34023" lon="5.90084">
        <ele>582</ele>
        <time>2019-06-25T09:54:42Z</time>
      </trkpt>
      <trkpt lat="44.34015" lon="5.90078">
        <ele>582</ele>
        <time>2019-06-25T09:54:43Z</time>
      </trkpt>
      <trkpt lat="44.34008" lon="5.90071">
        <ele>582</ele>
        <time>2019-06-25T09:54:44Z</time>
      </trkpt>
      <trkpt lat="44.34" lon="5.90063">
        <ele>582</ele>
        <time>2019-06-25T09:54:45Z</time>
      </trkpt>
      <trkpt lat="44.33993" lon="5.90056">
        <ele>581</ele>
        <time>2019-06-25T09:54:46Z</time>
      </trkpt>
      <trkpt lat="44.33986" lon="5.90049">
        <ele>581</ele>
        <time>2019-06-25T09:54:47Z</time>
      </trkpt>
      <trkpt lat="44.33979" lon="5.90041">
        <ele>581</ele>
        <time>2019-06-25T09:54:48Z</time>
      </trkpt>
      <trkpt lat="44.33972" lon="5.90034">
        <ele>580</ele>
        <time>2019-06-25T09:54:49Z</time>
      </trkpt>
      <trkpt lat="44.33965" lon="5.90027">
        <ele>580</ele>
        <time>2019-06-25T09:54:50Z</time>
      </trkpt>
      <trkpt lat="44.33959" lon="5.9002">
        <ele>580</ele>
        <time>2019-06-25T09:54:51Z</time>
      </trkpt>
      <trkpt lat="44.33952" lon="5.90013">
        <ele>580</ele>
        <time>2019-06-25T09:54:52Z</time>
      </trkpt>
      <trkpt lat="44.33947" lon="5.90005">
        <ele>580</ele>
        <time>2019-06-25T09:54:53Z</time>
      </trkpt>
      <trkpt lat="44.33941" lon="5.89999">
        <ele>580</ele>
        <time>2019-06-25T09:54:54Z</time>
      </trkpt>
      <trkpt lat="44.33935" lon="5.89993">
        <ele>580</ele>
        <time>2019-06-25T09:54:55Z</time>
      </trkpt>
      <trkpt lat="44.3393" lon="5.89987">
        <ele>580</ele>
        <time>2019-06-25T09:54:56Z</time>
      </trkpt>
      <trkpt lat="44.33925" lon="5.89982">
        <ele>580</ele>
        <time>2019-06-25T09:54:57Z</time>
      </trkpt>
      <trkpt lat="44.3392" lon="5.89976">
        <ele>580</ele>
        <time>2019-06-25T09:54:58Z</time>
      </trkpt>
      <trkpt lat="44.33915" lon="5.8997">
        <ele>580</ele>
        <time>2019-06-25T09:54:59Z</time>
      </trkpt>
      <trkpt lat="44.3391" lon="5.89965">
        <ele>580</ele>
        <time>2019-06-25T09:55:00Z</time>
      </trkpt>
      <trkpt lat="44.33904" lon="5.89959">
        <ele>580</ele>
        <time>2019-06-25T09:55:01Z</time>
      </trkpt>
      <trkpt lat="44.33898" lon="5.89953">
        <ele>580</ele>
        <time>2019-06-25T09:55:02Z</time>
      </trkpt>
      <trkpt lat="44.33892" lon="5.89948">
        <ele>580</ele>
        <time>2019-06-25T09:55:03Z</time>
      </trkpt>
      <trkpt lat="44.33886" lon="5.89942">
        <ele>580</ele>
        <time>2019-06-25T09:55:04Z</time>
      </trkpt>
      <trkpt lat="44.3388" lon="5.89936">
        <ele>580</ele>
        <time>2019-06-25T09:55:05Z</time>
      </trkpt>
      <trkpt lat="44.33874" lon="5.8993">
        <ele>580</ele>
        <time>2019-06-25T09:55:06Z</time>
      </trkpt>
      <trkpt lat="44.33868" lon="5.89925">
        <ele>580</ele>
        <time>2019-06-25T09:55:07Z</time>
      </trkpt>
      <trkpt lat="44.33862" lon="5.89919">
        <ele>580</ele>
        <time>2019-06-25T09:55:08Z</time>
      </trkpt>
      <trkpt lat="44.33855" lon="5.89913">
        <ele>580</ele>
        <time>2019-06-25T09:55:09Z</time>
      </trkpt>
      <trkpt lat="44.33848" lon="5.89907">
        <ele>580</ele>
        <time>2019-06-25T09:55:10Z</time>
      </trkpt>
      <trkpt lat="44.33841" lon="5.89901">
        <ele>580</ele>
        <time>2019-06-25T09:55:11Z</time>
      </trkpt>
      <trkpt lat="44.33834" lon="5.89896">
        <ele>579</ele>
        <time>2019-06-25T09:55:12Z</time>
      </trkpt>
      <trkpt lat="44.33826" lon="5.8989">
        <ele>579</ele>
        <time>2019-06-25T09:55:13Z</time>
      </trkpt>
      <trkpt lat="44.33818" lon="5.89885">
        <ele>578</ele>
        <time>2019-06-25T09:55:14Z</time>
      </trkpt>
      <trkpt lat="44.3381" lon="5.89879">
        <ele>578</ele>
        <time>2019-06-25T09:55:15Z</time>
      </trkpt>
      <trkpt lat="44.33802" lon="5.89873">
        <ele>577</ele>
        <time>2019-06-25T09:55:16Z</time>
      </trkpt>
      <trkpt lat="44.33793" lon="5.89867">
        <ele>577</ele>
        <time>2019-06-25T09:55:17Z</time>
      </trkpt>
      <trkpt lat="44.33785" lon="5.89861">
        <ele>577</ele>
        <time>2019-06-25T09:55:18Z</time>
      </trkpt>
      <trkpt lat="44.33777" lon="5.89855">
        <ele>576</ele>
        <time>2019-06-25T09:55:19Z</time>
      </trkpt>
      <trkpt lat="44.33769" lon="5.89848">
        <ele>576</ele>
        <time>2019-06-25T09:55:20Z</time>
      </trkpt>
      <trkpt lat="44.33761" lon="5.89841">
        <ele>575</ele>
        <time>2019-06-25T09:55:21Z</time>
      </trkpt>
      <trkpt lat="44.33753" lon="5.89834">
        <ele>575</ele>
        <time>2019-06-25T09:55:22Z</time>
      </trkpt>
      <trkpt lat="44.33745" lon="5.89827">
        <ele>575</ele>
        <time>2019-06-25T09:55:23Z</time>
      </trkpt>
      <trkpt lat="44.33737" lon="5.89821">
        <ele>575</ele>
        <time>2019-06-25T09:55:24Z</time>
      </trkpt>
      <trkpt lat="44.33729" lon="5.89815">
        <ele>575</ele>
        <time>2019-06-25T09:55:25Z</time>
      </trkpt>
      <trkpt lat="44.33722" lon="5.8981">
        <ele>575</ele>
        <time>2019-06-25T09:55:26Z</time>
      </trkpt>
      <trkpt lat="44.33714" lon="5.89805">
        <ele>575</ele>
        <time>2019-06-25T09:55:27Z</time>
      </trkpt>
      <trkpt lat="44.33706" lon="5.898">
        <ele>575</ele>
        <time>2019-06-25T09:55:28Z</time>
      </trkpt>
      <trkpt lat="44.33699" lon="5.89796">
        <ele>575</ele>
        <time>2019-06-25T09:55:29Z</time>
      </trkpt>
      <trkpt lat="44.33692" lon="5.89792">
        <ele>575</ele>
        <time>2019-06-25T09:55:30Z</time>
      </trkpt>
      <trkpt lat="44.33685" lon="5.89789">
        <ele>575</ele>
        <time>2019-06-25T09:55:31Z</time>
      </trkpt>
      <trkpt lat="44.33678" lon="5.89785">
        <ele>575</ele>
        <time>2019-06-25T09:55:33Z</time>
      </trkpt>
      <trkpt lat="44.33672" lon="5.89782">
        <ele>575</ele>
        <time>2019-06-25T09:55:33Z</time>
      </trkpt>
      <trkpt lat="44.33665" lon="5.89779">
        <ele>575</ele>
        <time>2019-06-25T09:55:34Z</time>
      </trkpt>
      <trkpt lat="44.33659" lon="5.89775">
        <ele>575</ele>
        <time>2019-06-25T09:55:35Z</time>
      </trkpt>
      <trkpt lat="44.33652" lon="5.89771">
        <ele>575</ele>
        <time>2019-06-25T09:55:36Z</time>
      </trkpt>
      <trkpt lat="44.33646" lon="5.89768">
        <ele>575</ele>
        <time>2019-06-25T09:55:37Z</time>
      </trkpt>
      <trkpt lat="44.33639" lon="5.89764">
        <ele>575</ele>
        <time>2019-06-25T09:55:38Z</time>
      </trkpt>
      <trkpt lat="44.33633" lon="5.8976">
        <ele>575</ele>
        <time>2019-06-25T09:55:39Z</time>
      </trkpt>
      <trkpt lat="44.33626" lon="5.89757">
        <ele>575</ele>
        <time>2019-06-25T09:55:40Z</time>
      </trkpt>
      <trkpt lat="44.3362" lon="5.89754">
        <ele>575</ele>
        <time>2019-06-25T09:55:41Z</time>
      </trkpt>
      <trkpt lat="44.33613" lon="5.8975">
        <ele>575</ele>
        <time>2019-06-25T09:55:42Z</time>
      </trkpt>
      <trkpt lat="44.33607" lon="5.89747">
        <ele>575</ele>
        <time>2019-06-25T09:55:43Z</time>
      </trkpt>
      <trkpt lat="44.336" lon="5.89744">
        <ele>575</ele>
        <time>2019-06-25T09:55:44Z</time>
      </trkpt>
      <trkpt lat="44.33594" lon="5.89741">
        <ele>575</ele>
        <time>2019-06-25T09:55:45Z</time>
      </trkpt>
      <trkpt lat="44.33587" lon="5.89738">
        <ele>575</ele>
        <time>2019-06-25T09:55:46Z</time>
      </trkpt>
      <trkpt lat="44.33581" lon="5.89734">
        <ele>575</ele>
        <time>2019-06-25T09:55:47Z</time>
      </trkpt>
      <trkpt lat="44.33574" lon="5.89731">
        <ele>575</ele>
        <time>2019-06-25T09:55:48Z</time>
      </trkpt>
      <trkpt lat="44.33567" lon="5.89728">
        <ele>575</ele>
        <time>2019-06-25T09:55:49Z</time>
      </trkpt>
      <trkpt lat="44.33561" lon="5.89725">
        <ele>575</ele>
        <time>2019-06-25T09:55:50Z</time>
      </trkpt>
      <trkpt lat="44.33554" lon="5.89721">
        <ele>575</ele>
        <time>2019-06-25T09:55:51Z</time>
      </trkpt>
      <trkpt lat="44.33547" lon="5.89718">
        <ele>575</ele>
        <time>2019-06-25T09:55:52Z</time>
      </trkpt>
      <trkpt lat="44.33541" lon="5.89714">
        <ele>575</ele>
        <time>2019-06-25T09:55:53Z</time>
      </trkpt>
      <trkpt lat="44.33534" lon="5.89711">
        <ele>575</ele>
        <time>2019-06-25T09:55:54Z</time>
      </trkpt>
      <trkpt lat="44.33527" lon="5.89708">
        <ele>575</ele>
        <time>2019-06-25T09:55:55Z</time>
      </trkpt>
      <trkpt lat="44.3352" lon="5.89705">
        <ele>575</ele>
        <time>2019-06-25T09:55:56Z</time>
      </trkpt>
      <trkpt lat="44.33514" lon="5.89701">
        <ele>575</ele>
        <time>2019-06-25T09:55:57Z</time>
      </trkpt>
      <trkpt lat="44.33507" lon="5.89698">
        <ele>575</ele>
        <time>2019-06-25T09:55:58Z</time>
      </trkpt>
      <trkpt lat="44.335" lon="5.89695">
        <ele>575</ele>
        <time>2019-06-25T09:55:59Z</time>
      </trkpt>
      <trkpt lat="44.33493" lon="5.89691">
        <ele>575</ele>
        <time>2019-06-25T09:56:00Z</time>
      </trkpt>
      <trkpt lat="44.33487" lon="5.89688">
        <ele>575</ele>
        <time>2019-06-25T09:56:01Z</time>
      </trkpt>
      <trkpt lat="44.3348" lon="5.89685">
        <ele>575</ele>
        <time>2019-06-25T09:56:02Z</time>
      </trkpt>
      <trkpt lat="44.33474" lon="5.89682">
        <ele>575</ele>
        <time>2019-06-25T09:56:03Z</time>
      </trkpt>
      <trkpt lat="44.33467" lon="5.89679">
        <ele>575</ele>
        <time>2019-06-25T09:56:04Z</time>
      </trkpt>
      <trkpt lat="44.3346" lon="5.89676">
        <ele>575</ele>
        <time>2019-06-25T09:56:05Z</time>
      </trkpt>
      <trkpt lat="44.33453" lon="5.89673">
        <ele>575</ele>
        <time>2019-06-25T09:56:06Z</time>
      </trkpt>
      <trkpt lat="44.33447" lon="5.8967">
        <ele>575</ele>
        <time>2019-06-25T09:56:07Z</time>
      </trkpt>
      <trkpt lat="44.3344" lon="5.89666">
        <ele>575</ele>
        <time>2019-06-25T09:56:08Z</time>
      </trkpt>
      <trkpt lat="44.33434" lon="5.89662">
        <ele>575</ele>
        <time>2019-06-25T09:56:09Z</time>
      </trkpt>
      <trkpt lat="44.33427" lon="5.89659">
        <ele>575</ele>
        <time>2019-06-25T09:56:10Z</time>
      </trkpt>
      <trkpt lat="44.3342" lon="5.89656">
        <ele>575</ele>
        <time>2019-06-25T09:56:11Z</time>
      </trkpt>
      <trkpt lat="44.33413" lon="5.89653">
        <ele>575</ele>
        <time>2019-06-25T09:56:12Z</time>
      </trkpt>
      <trkpt lat="44.33407" lon="5.8965">
        <ele>575</ele>
        <time>2019-06-25T09:56:13Z</time>
      </trkpt>
      <trkpt lat="44.334" lon="5.89647">
        <ele>575</ele>
        <time>2019-06-25T09:56:14Z</time>
      </trkpt>
      <trkpt lat="44.33393" lon="5.89644">
        <ele>575</ele>
        <time>2019-06-25T09:56:15Z</time>
      </trkpt>
      <trkpt lat="44.33387" lon="5.89641">
        <ele>575</ele>
        <time>2019-06-25T09:56:16Z</time>
      </trkpt>
      <trkpt lat="44.3338" lon="5.89638">
        <ele>575</ele>
        <time>2019-06-25T09:56:17Z</time>
      </trkpt>
      <trkpt lat="44.33373" lon="5.89634">
        <ele>575</ele>
        <time>2019-06-25T09:56:18Z</time>
      </trkpt>
      <trkpt lat="44.33366" lon="5.89632">
        <ele>575</ele>
        <time>2019-06-25T09:56:19Z</time>
      </trkpt>
      <trkpt lat="44.3336" lon="5.89629">
        <ele>575</ele>
        <time>2019-06-25T09:56:20Z</time>
      </trkpt>
      <trkpt lat="44.33353" lon="5.89626">
        <ele>575</ele>
        <time>2019-06-25T09:56:21Z</time>
      </trkpt>
      <trkpt lat="44.33347" lon="5.89623">
        <ele>575</ele>
        <time>2019-06-25T09:56:22Z</time>
      </trkpt>
      <trkpt lat="44.3334" lon="5.8962">
        <ele>575</ele>
        <time>2019-06-25T09:56:23Z</time>
      </trkpt>
      <trkpt lat="44.33334" lon="5.89617">
        <ele>575</ele>
        <time>2019-06-25T09:56:24Z</time>
      </trkpt>
      <trkpt lat="44.33327" lon="5.89615">
        <ele>575</ele>
        <time>2019-06-25T09:56:25Z</time>
      </trkpt>
      <trkpt lat="44.3332" lon="5.89612">
        <ele>575</ele>
        <time>2019-06-25T09:56:26Z</time>
      </trkpt>
      <trkpt lat="44.33314" lon="5.89609">
        <ele>575</ele>
        <time>2019-06-25T09:56:27Z</time>
      </trkpt>
      <trkpt lat="44.33308" lon="5.89607">
        <ele>575</ele>
        <time>2019-06-25T09:56:28Z</time>
      </trkpt>
      <trkpt lat="44.33301" lon="5.89604">
        <ele>575</ele>
        <time>2019-06-25T09:56:29Z</time>
      </trkpt>
      <trkpt lat="44.33295" lon="5.89602">
        <ele>575</ele>
        <time>2019-06-25T09:56:30Z</time>
      </trkpt>
      <trkpt lat="44.33289" lon="5.896">
        <ele>575</ele>
        <time>2019-06-25T09:56:31Z</time>
      </trkpt>
      <trkpt lat="44.33282" lon="5.89597">
        <ele>575</ele>
        <time>2019-06-25T09:56:33Z</time>
      </trkpt>
      <trkpt lat="44.33276" lon="5.89594">
        <ele>575</ele>
        <time>2019-06-25T09:56:33Z</time>
      </trkpt>
      <trkpt lat="44.3327" lon="5.89592">
        <ele>575</ele>
        <time>2019-06-25T09:56:34Z</time>
      </trkpt>
      <trkpt lat="44.33263" lon="5.89589">
        <ele>575</ele>
        <time>2019-06-25T09:56:35Z</time>
      </trkpt>
      <trkpt lat="44.33257" lon="5.89587">
        <ele>575</ele>
        <time>2019-06-25T09:56:36Z</time>
      </trkpt>
      <trkpt lat="44.3325" lon="5.89584">
        <ele>575</ele>
        <time>2019-06-25T09:56:37Z</time>
      </trkpt>
      <trkpt lat="44.33244" lon="5.89582">
        <ele>575</ele>
        <time>2019-06-25T09:56:38Z</time>
      </trkpt>
      <trkpt lat="44.33237" lon="5.89579">
        <ele>575</ele>
        <time>2019-06-25T09:56:39Z</time>
      </trkpt>
      <trkpt lat="44.33231" lon="5.89577">
        <ele>575</ele>
        <time>2019-06-25T09:56:40Z</time>
      </trkpt>
      <trkpt lat="44.33224" lon="5.89574">
        <ele>575</ele>
        <time>2019-06-25T09:56:41Z</time>
      </trkpt>
      <trkpt lat="44.33217" lon="5.89571">
        <ele>575</ele>
        <time>2019-06-25T09:56:42Z</time>
      </trkpt>
      <trkpt lat="44.33211" lon="5.89569">
        <ele>575</ele>
        <time>2019-06-25T09:56:43Z</time>
      </trkpt>
      <trkpt lat="44.33204" lon="5.89567">
        <ele>575</ele>
        <time>2019-06-25T09:56:44Z</time>
      </trkpt>
      <trkpt lat="44.33197" lon="5.89565">
        <ele>575</ele>
        <time>2019-06-25T09:56:45Z</time>
      </trkpt>
      <trkpt lat="44.33191" lon="5.89562">
        <ele>575</ele>
        <time>2019-06-25T09:56:46Z</time>
      </trkpt>
      <trkpt lat="44.33184" lon="5.8956">
        <ele>575</ele>
        <time>2019-06-25T09:56:47Z</time>
      </trkpt>
      <trkpt lat="44.33178" lon="5.89558">
        <ele>575</ele>
        <time>2019-06-25T09:56:48Z</time>
      </trkpt>
      <trkpt lat="44.33171" lon="5.89556">
        <ele>575</ele>
        <time>2019-06-25T09:56:49Z</time>
      </trkpt>
      <trkpt lat="44.33164" lon="5.89553">
        <ele>575</ele>
        <time>2019-06-25T09:56:50Z</time>
      </trkpt>
      <trkpt lat="44.33157" lon="5.89551">
        <ele>575</ele>
        <time>2019-06-25T09:56:51Z</time>
      </trkpt>
      <trkpt lat="44.33151" lon="5.89549">
        <ele>575</ele>
        <time>2019-06-25T09:56:52Z</time>
      </trkpt>
      <trkpt lat="44.33144" lon="5.89547">
        <ele>575</ele>
        <time>2019-06-25T09:56:53Z</time>
      </trkpt>
      <trkpt lat="44.33137" lon="5.89546">
        <ele>575</ele>
        <time>2019-06-25T09:56:54Z</time>
      </trkpt>
      <trkpt lat="44.3313" lon="5.89544">
        <ele>575</ele>
        <time>2019-06-25T09:56:55Z</time>
      </trkpt>
      <trkpt lat="44.33123" lon="5.89542">
        <ele>575</ele>
        <time>2019-06-25T09:56:56Z</time>
      </trkpt>
      <trkpt lat="44.33117" lon="5.8954">
        <ele>575</ele>
        <time>2019-06-25T09:56:57Z</time>
      </trkpt>
      <trkpt lat="44.3311" lon="5.89537">
        <ele>575</ele>
        <time>2019-06-25T09:56:58Z</time>
      </trkpt>
      <trkpt lat="44.33104" lon="5.89535">
        <ele>575</ele>
        <time>2019-06-25T09:56:59Z</time>
      </trkpt>
      <trkpt lat="44.33097" lon="5.89533">
        <ele>575</ele>
        <time>2019-06-25T09:57:00Z</time>
      </trkpt>
      <trkpt lat="44.3309" lon="5.89531">
        <ele>575</ele>
        <time>2019-06-25T09:57:01Z</time>
      </trkpt>
      <trkpt lat="44.33083" lon="5.89529">
        <ele>575</ele>
        <time>2019-06-25T09:57:02Z</time>
      </trkpt>
      <trkpt lat="44.33077" lon="5.89527">
        <ele>575</ele>
        <time>2019-06-25T09:57:03Z</time>
      </trkpt>
      <trkpt lat="44.3307" lon="5.89525">
        <ele>575</ele>
        <time>2019-06-25T09:57:04Z</time>
      </trkpt>
      <trkpt lat="44.33064" lon="5.89523">
        <ele>575</ele>
        <time>2019-06-25T09:57:05Z</time>
      </trkpt>
      <trkpt lat="44.33057" lon="5.89521">
        <ele>575</ele>
        <time>2019-06-25T09:57:06Z</time>
      </trkpt>
      <trkpt lat="44.3305" lon="5.89518">
        <ele>575</ele>
        <time>2019-06-25T09:57:07Z</time>
      </trkpt>
      <trkpt lat="44.33043" lon="5.89516">
        <ele>575</ele>
        <time>2019-06-25T09:57:08Z</time>
      </trkpt>
      <trkpt lat="44.33036" lon="5.89513">
        <ele>575</ele>
        <time>2019-06-25T09:57:09Z</time>
      </trkpt>
      <trkpt lat="44.3303" lon="5.89511">
        <ele>575</ele>
        <time>2019-06-25T09:57:10Z</time>
      </trkpt>
      <trkpt lat="44.33023" lon="5.89508">
        <ele>575</ele>
        <time>2019-06-25T09:57:11Z</time>
      </trkpt>
      <trkpt lat="44.33016" lon="5.89505">
        <ele>575</ele>
        <time>2019-06-25T09:57:12Z</time>
      </trkpt>
      <trkpt lat="44.33009" lon="5.89503">
        <ele>575</ele>
        <time>2019-06-25T09:57:13Z</time>
      </trkpt>
      <trkpt lat="44.33002" lon="5.895">
        <ele>575</ele>
        <time>2019-06-25T09:57:14Z</time>
      </trkpt>
      <trkpt lat="44.32996" lon="5.89497">
        <ele>575</ele>
        <time>2019-06-25T09:57:15Z</time>
      </trkpt>
      <trkpt lat="44.32989" lon="5.89494">
        <ele>575</ele>
        <time>2019-06-25T09:57:16Z</time>
      </trkpt>
      <trkpt lat="44.32982" lon="5.89491">
        <ele>575</ele>
        <time>2019-06-25T09:57:17Z</time>
      </trkpt>
      <trkpt lat="44.32975" lon="5.89488">
        <ele>575</ele>
        <time>2019-06-25T09:57:18Z</time>
      </trkpt>
      <trkpt lat="44.32969" lon="5.89485">
        <ele>575</ele>
        <time>2019-06-25T09:57:19Z</time>
      </trkpt>
      <trkpt lat="44.32962" lon="5.89481">
        <ele>575</ele>
        <time>2019-06-25T09:57:20Z</time>
      </trkpt>
      <trkpt lat="44.32955" lon="5.89478">
        <ele>575</ele>
        <time>2019-06-25T09:57:21Z</time>
      </trkpt>
      <trkpt lat="44.32948" lon="5.89474">
        <ele>575</ele>
        <time>2019-06-25T09:57:22Z</time>
      </trkpt>
      <trkpt lat="44.32942" lon="5.89471">
        <ele>575</ele>
        <time>2019-06-25T09:57:23Z</time>
      </trkpt>
      <trkpt lat="44.32935" lon="5.89468">
        <ele>575</ele>
        <time>2019-06-25T09:57:24Z</time>
      </trkpt>
      <trkpt lat="44.32928" lon="5.89464">
        <ele>575</ele>
        <time>2019-06-25T09:57:25Z</time>
      </trkpt>
      <trkpt lat="44.32922" lon="5.8946">
        <ele>575</ele>
        <time>2019-06-25T09:57:26Z</time>
      </trkpt>
      <trkpt lat="44.32915" lon="5.89455">
        <ele>575</ele>
        <time>2019-06-25T09:57:27Z</time>
      </trkpt>
      <trkpt lat="44.32909" lon="5.89451">
        <ele>575</ele>
        <time>2019-06-25T09:57:28Z</time>
      </trkpt>
      <trkpt lat="44.32903" lon="5.89446">
        <ele>575</ele>
        <time>2019-06-25T09:57:29Z</time>
      </trkpt>
      <trkpt lat="44.32896" lon="5.89442">
        <ele>575</ele>
        <time>2019-06-25T09:57:30Z</time>
      </trkpt>
      <trkpt lat="44.3289" lon="5.89437">
        <ele>575</ele>
        <time>2019-06-25T09:57:31Z</time>
      </trkpt>
      <trkpt lat="44.32883" lon="5.89433">
        <ele>575</ele>
        <time>2019-06-25T09:57:33Z</time>
      </trkpt>
      <trkpt lat="44.32877" lon="5.89428">
        <ele>575</ele>
        <time>2019-06-25T09:57:33Z</time>
      </trkpt>
      <trkpt lat="44.32871" lon="5.89424">
        <ele>575</ele>
        <time>2019-06-25T09:57:34Z</time>
      </trkpt>
      <trkpt lat="44.32864" lon="5.8942">
        <ele>575</ele>
        <time>2019-06-25T09:57:35Z</time>
      </trkpt>
      <trkpt lat="44.32858" lon="5.89415">
        <ele>575</ele>
        <time>2019-06-25T09:57:36Z</time>
      </trkpt>
      <trkpt lat="44.32852" lon="5.89411">
        <ele>575</ele>
        <time>2019-06-25T09:57:37Z</time>
      </trkpt>
      <trkpt lat="44.32846" lon="5.89406">
        <ele>575</ele>
        <time>2019-06-25T09:57:38Z</time>
      </trkpt>
      <trkpt lat="44.32839" lon="5.89402">
        <ele>575</ele>
        <time>2019-06-25T09:57:39Z</time>
      </trkpt>
      <trkpt lat="44.32833" lon="5.89397">
        <ele>575</ele>
        <time>2019-06-25T09:57:40Z</time>
      </trkpt>
      <trkpt lat="44.32827" lon="5.89393">
        <ele>575</ele>
        <time>2019-06-25T09:57:41Z</time>
      </trkpt>
      <trkpt lat="44.3282" lon="5.89388">
        <ele>575</ele>
        <time>2019-06-25T09:57:42Z</time>
      </trkpt>
      <trkpt lat="44.32814" lon="5.89384">
        <ele>575</ele>
        <time>2019-06-25T09:57:43Z</time>
      </trkpt>
      <trkpt lat="44.32808" lon="5.89379">
        <ele>575</ele>
        <time>2019-06-25T09:57:44Z</time>
      </trkpt>
      <trkpt lat="44.32801" lon="5.89375">
        <ele>575</ele>
        <time>2019-06-25T09:57:45Z</time>
      </trkpt>
      <trkpt lat="44.32795" lon="5.8937">
        <ele>575</ele>
        <time>2019-06-25T09:57:46Z</time>
      </trkpt>
      <trkpt lat="44.32788" lon="5.89365">
        <ele>575</ele>
        <time>2019-06-25T09:57:47Z</time>
      </trkpt>
      <trkpt lat="44.32782" lon="5.89361">
        <ele>575</ele>
        <time>2019-06-25T09:57:48Z</time>
      </trkpt>
      <trkpt lat="44.32776" lon="5.89357">
        <ele>575</ele>
        <time>2019-06-25T09:57:49Z</time>
      </trkpt>
      <trkpt lat="44.3277" lon="5.89352">
        <ele>575</ele>
        <time>2019-06-25T09:57:50Z</time>
      </trkpt>
      <trkpt lat="44.32764" lon="5.89348">
        <ele>575</ele>
        <time>2019-06-25T09:57:51Z</time>
      </trkpt>
      <trkpt lat="44.32758" lon="5.89343">
        <ele>575</ele>
        <time>2019-06-25T09:57:52Z</time>
      </trkpt>
      <trkpt lat="44.32751" lon="5.89338">
        <ele>575</ele>
        <time>2019-06-25T09:57:53Z</time>
      </trkpt>
      <trkpt lat="44.32745" lon="5.89334">
        <ele>575</ele>
        <time>2019-06-25T09:57:54Z</time>
      </trkpt>
      <trkpt lat="44.32739" lon="5.89329">
        <ele>575</ele>
        <time>2019-06-25T09:57:55Z</time>
      </trkpt>
      <trkpt lat="44.32733" lon="5.89325">
        <ele>575</ele>
        <time>2019-06-25T09:57:56Z</time>
      </trkpt>
      <trkpt lat="44.32727" lon="5.89321">
        <ele>575</ele>
        <time>2019-06-25T09:57:57Z</time>
      </trkpt>
      <trkpt lat="44.3272" lon="5.89317">
        <ele>575</ele>
        <time>2019-06-25T09:57:58Z</time>
      </trkpt>
      <trkpt lat="44.32714" lon="5.89313">
        <ele>575</ele>
        <time>2019-06-25T09:57:59Z</time>
      </trkpt>
      <trkpt lat="44.32708" lon="5.89309">
        <ele>575</ele>
        <time>2019-06-25T09:58:00Z</time>
      </trkpt>
      <trkpt lat="44.32701" lon="5.89304">
        <ele>575</ele>
        <time>2019-06-25T09:58:01Z</time>
      </trkpt>
      <trkpt lat="44.32695" lon="5.893">
        <ele>575</ele>
        <time>2019-06-25T09:58:02Z</time>
      </trkpt>
      <trkpt lat="44.32689" lon="5.89295">
        <ele>575</ele>
        <time>2019-06-25T09:58:03Z</time>
      </trkpt>
      <trkpt lat="44.32683" lon="5.8929">
        <ele>575</ele>
        <time>2019-06-25T09:58:04Z</time>
      </trkpt>
      <trkpt lat="44.32676" lon="5.89286">
        <ele>575</ele>
        <time>2019-06-25T09:58:05Z</time>
      </trkpt>
      <trkpt lat="44.3267" lon="5.89281">
        <ele>575</ele>
        <time>2019-06-25T09:58:06Z</time>
      </trkpt>
      <trkpt lat="44.32664" lon="5.89276">
        <ele>575</ele>
        <time>2019-06-25T09:58:07Z</time>
      </trkpt>
      <trkpt lat="44.32658" lon="5.89271">
        <ele>575</ele>
        <time>2019-06-25T09:58:08Z</time>
      </trkpt>
      <trkpt lat="44.32652" lon="5.89265">
        <ele>575</ele>
        <time>2019-06-25T09:58:09Z</time>
      </trkpt>
      <trkpt lat="44.32645" lon="5.8926">
        <ele>575</ele>
        <time>2019-06-25T09:58:10Z</time>
      </trkpt>
      <trkpt lat="44.3264" lon="5.89255">
        <ele>575</ele>
        <time>2019-06-25T09:58:11Z</time>
      </trkpt>
      <trkpt lat="44.32634" lon="5.89251">
        <ele>575</ele>
        <time>2019-06-25T09:58:12Z</time>
      </trkpt>
      <trkpt lat="44.32628" lon="5.89247">
        <ele>575</ele>
        <time>2019-06-25T09:58:13Z</time>
      </trkpt>
      <trkpt lat="44.32622" lon="5.89244">
        <ele>575</ele>
        <time>2019-06-25T09:58:14Z</time>
      </trkpt>
      <trkpt lat="44.32616" lon="5.8924">
        <ele>575</ele>
        <time>2019-06-25T09:58:15Z</time>
      </trkpt>
      <trkpt lat="44.32609" lon="5.89236">
        <ele>575</ele>
        <time>2019-06-25T09:58:16Z</time>
      </trkpt>
      <trkpt lat="44.32603" lon="5.89233">
        <ele>575</ele>
        <time>2019-06-25T09:58:17Z</time>
      </trkpt>
      <trkpt lat="44.32596" lon="5.89229">
        <ele>575</ele>
        <time>2019-06-25T09:58:18Z</time>
      </trkpt>
      <trkpt lat="44.32589" lon="5.89225">
        <ele>575</ele>
        <time>2019-06-25T09:58:19Z</time>
      </trkpt>
      <trkpt lat="44.32583" lon="5.89222">
        <ele>575</ele>
        <time>2019-06-25T09:58:20Z</time>
      </trkpt>
      <trkpt lat="44.32576" lon="5.89218">
        <ele>575</ele>
        <time>2019-06-25T09:58:21Z</time>
      </trkpt>
      <trkpt lat="44.32569" lon="5.89215">
        <ele>575</ele>
        <time>2019-06-25T09:58:22Z</time>
      </trkpt>
      <trkpt lat="44.32562" lon="5.89212">
        <ele>575</ele>
        <time>2019-06-25T09:58:23Z</time>
      </trkpt>
      <trkpt lat="44.32555" lon="5.89208">
        <ele>575</ele>
        <time>2019-06-25T09:58:24Z</time>
      </trkpt>
      <trkpt lat="44.32548" lon="5.89205">
        <ele>575</ele>
        <time>2019-06-25T09:58:25Z</time>
      </trkpt>
      <trkpt lat="44.32541" lon="5.89202">
        <ele>575</ele>
        <time>2019-06-25T09:58:26Z</time>
      </trkpt>
      <trkpt lat="44.32534" lon="5.89199">
        <ele>575</ele>
        <time>2019-06-25T09:58:27Z</time>
      </trkpt>
      <trkpt lat="44.32526" lon="5.89196">
        <ele>575</ele>
        <time>2019-06-25T09:58:28Z</time>
      </trkpt>
      <trkpt lat="44.32519" lon="5.89193">
        <ele>575</ele>
        <time>2019-06-25T09:58:29Z</time>
      </trkpt>
      <trkpt lat="44.32511" lon="5.8919">
        <ele>575</ele>
        <time>2019-06-25T09:58:30Z</time>
      </trkpt>
      <trkpt lat="44.32504" lon="5.89188">
        <ele>575</ele>
        <time>2019-06-25T09:58:31Z</time>
      </trkpt>
      <trkpt lat="44.32496" lon="5.89186">
        <ele>575</ele>
        <time>2019-06-25T09:58:33Z</time>
      </trkpt>
      <trkpt lat="44.32488" lon="5.89185">
        <ele>575</ele>
        <time>2019-06-25T09:58:33Z</time>
      </trkpt>
      <trkpt lat="44.32481" lon="5.89182">
        <ele>575</ele>
        <time>2019-06-25T09:58:34Z</time>
      </trkpt>
      <trkpt lat="44.32473" lon="5.8918">
        <ele>575</ele>
        <time>2019-06-25T09:58:35Z</time>
      </trkpt>
      <trkpt lat="44.32466" lon="5.89177">
        <ele>575</ele>
        <time>2019-06-25T09:58:36Z</time>
      </trkpt>
      <trkpt lat="44.32459" lon="5.89175">
        <ele>575</ele>
        <time>2019-06-25T09:58:37Z</time>
      </trkpt>
      <trkpt lat="44.32452" lon="5.89173">
        <ele>575</ele>
        <time>2019-06-25T09:58:38Z</time>
      </trkpt>
      <trkpt lat="44.32444" lon="5.8917">
        <ele>575</ele>
        <time>2019-06-25T09:58:39Z</time>
      </trkpt>
      <trkpt lat="44.32437" lon="5.89168">
        <ele>575</ele>
        <time>2019-06-25T09:58:40Z</time>
      </trkpt>
      <trkpt lat="44.3243" lon="5.89166">
        <ele>575</ele>
        <time>2019-06-25T09:58:41Z</time>
      </trkpt>
      <trkpt lat="44.32423" lon="5.89163">
        <ele>575</ele>
        <time>2019-06-25T09:58:42Z</time>
      </trkpt>
      <trkpt lat="44.32417" lon="5.89161">
        <ele>575</ele>
        <time>2019-06-25T09:58:43Z</time>
      </trkpt>
      <trkpt lat="44.3241" lon="5.89159">
        <ele>575</ele>
        <time>2019-06-25T09:58:44Z</time>
      </trkpt>
      <trkpt lat="44.32403" lon="5.89156">
        <ele>575</ele>
        <time>2019-06-25T09:58:45Z</time>
      </trkpt>
      <trkpt lat="44.32396" lon="5.89154">
        <ele>575</ele>
        <time>2019-06-25T09:58:46Z</time>
      </trkpt>
      <trkpt lat="44.32389" lon="5.89152">
        <ele>575</ele>
        <time>2019-06-25T09:58:47Z</time>
      </trkpt>
      <trkpt lat="44.32383" lon="5.8915">
        <ele>575</ele>
        <time>2019-06-25T09:58:48Z</time>
      </trkpt>
      <trkpt lat="44.32376" lon="5.89148">
        <ele>575</ele>
        <time>2019-06-25T09:58:49Z</time>
      </trkpt>
      <trkpt lat="44.32369" lon="5.89146">
        <ele>575</ele>
        <time>2019-06-25T09:58:50Z</time>
      </trkpt>
      <trkpt lat="44.32362" lon="5.89144">
        <ele>575</ele>
        <time>2019-06-25T09:58:51Z</time>
      </trkpt>
      <trkpt lat="44.32355" lon="5.89142">
        <ele>575</ele>
        <time>2019-06-25T09:58:52Z</time>
      </trkpt>
      <trkpt lat="44.32349" lon="5.8914">
        <ele>575</ele>
        <time>2019-06-25T09:58:53Z</time>
      </trkpt>
      <trkpt lat="44.32342" lon="5.89137">
        <ele>575</ele>
        <time>2019-06-25T09:58:54Z</time>
      </trkpt>
      <trkpt lat="44.32335" lon="5.89135">
        <ele>575</ele>
        <time>2019-06-25T09:58:55Z</time>
      </trkpt>
      <trkpt lat="44.32328" lon="5.89133">
        <ele>575</ele>
        <time>2019-06-25T09:58:56Z</time>
      </trkpt>
      <trkpt lat="44.32322" lon="5.8913">
        <ele>575</ele>
        <time>2019-06-25T09:58:57Z</time>
      </trkpt>
      <trkpt lat="44.32315" lon="5.89128">
        <ele>575</ele>
        <time>2019-06-25T09:58:58Z</time>
      </trkpt>
      <trkpt lat="44.32308" lon="5.89125">
        <ele>575</ele>
        <time>2019-06-25T09:58:59Z</time>
      </trkpt>
      <trkpt lat="44.32301" lon="5.89123">
        <ele>575</ele>
        <time>2019-06-25T09:59:00Z</time>
      </trkpt>
      <trkpt lat="44.32295" lon="5.89122">
        <ele>575</ele>
        <time>2019-06-25T09:59:01Z</time>
      </trkpt>
      <trkpt lat="44.32288" lon="5.89119">
        <ele>575</ele>
        <time>2019-06-25T09:59:02Z</time>
      </trkpt>
      <trkpt lat="44.32281" lon="5.89117">
        <ele>575</ele>
        <time>2019-06-25T09:59:03Z</time>
      </trkpt>
      <trkpt lat="44.32275" lon="5.89115">
        <ele>575</ele>
        <time>2019-06-25T09:59:04Z</time>
      </trkpt>
      <trkpt lat="44.32268" lon="5.89113">
        <ele>575</ele>
        <time>2019-06-25T09:59:05Z</time>
      </trkpt>
      <trkpt lat="44.32261" lon="5.89111">
        <ele>575</ele>
        <time>2019-06-25T09:59:06Z</time>
      </trkpt>
      <trkpt lat="44.32254" lon="5.89109">
        <ele>575</ele>
        <time>2019-06-25T09:59:07Z</time>
      </trkpt>
      <trkpt lat="44.32248" lon="5.89106">
        <ele>575</ele>
        <time>2019-06-25T09:59:08Z</time>
      </trkpt>
      <trkpt lat="44.32241" lon="5.89104">
        <ele>575</ele>
        <time>2019-06-25T09:59:09Z</time>
      </trkpt>
      <trkpt lat="44.32234" lon="5.89102">
        <ele>575</ele>
        <time>2019-06-25T09:59:10Z</time>
      </trkpt>
      <trkpt lat="44.32227" lon="5.891">
        <ele>575</ele>
        <time>2019-06-25T09:59:11Z</time>
      </trkpt>
      <trkpt lat="44.3222" lon="5.89098">
        <ele>575</ele>
        <time>2019-06-25T09:59:12Z</time>
      </trkpt>
      <trkpt lat="44.32214" lon="5.89095">
        <ele>575</ele>
        <time>2019-06-25T09:59:13Z</time>
      </trkpt>
      <trkpt lat="44.32206" lon="5.89093">
        <ele>575</ele>
        <time>2019-06-25T09:59:14Z</time>
      </trkpt>
      <trkpt lat="44.322" lon="5.8909">
        <ele>575</ele>
        <time>2019-06-25T09:59:15Z</time>
      </trkpt>
      <trkpt lat="44.32193" lon="5.89088">
        <ele>575</ele>
        <time>2019-06-25T09:59:16Z</time>
      </trkpt>
      <trkpt lat="44.32185" lon="5.89086">
        <ele>575</ele>
        <time>2019-06-25T09:59:17Z</time>
      </trkpt>
      <trkpt lat="44.32178" lon="5.89083">
        <ele>575</ele>
        <time>2019-06-25T09:59:18Z</time>
      </trkpt>
      <trkpt lat="44.32171" lon="5.89081">
        <ele>575</ele>
        <time>2019-06-25T09:59:19Z</time>
      </trkpt>
      <trkpt lat="44.32164" lon="5.89079">
        <ele>575</ele>
        <time>2019-06-25T09:59:20Z</time>
      </trkpt>
      <trkpt lat="44.32157" lon="5.89077">
        <ele>575</ele>
        <time>2019-06-25T09:59:21Z</time>
      </trkpt>
      <trkpt lat="44.3215" lon="5.89075">
        <ele>575</ele>
        <time>2019-06-25T09:59:22Z</time>
      </trkpt>
      <trkpt lat="44.32142" lon="5.89074">
        <ele>575</ele>
        <time>2019-06-25T09:59:23Z</time>
      </trkpt>
      <trkpt lat="44.32135" lon="5.89072">
        <ele>575</ele>
        <time>2019-06-25T09:59:24Z</time>
      </trkpt>
      <trkpt lat="44.32128" lon="5.8907">
        <ele>575</ele>
        <time>2019-06-25T09:59:25Z</time>
      </trkpt>
      <trkpt lat="44.32121" lon="5.89068">
        <ele>575</ele>
        <time>2019-06-25T09:59:26Z</time>
      </trkpt>
      <trkpt lat="44.32114" lon="5.89067">
        <ele>575</ele>
        <time>2019-06-25T09:59:27Z</time>
      </trkpt>
      <trkpt lat="44.32106" lon="5.89065">
        <ele>575</ele>
        <time>2019-06-25T09:59:28Z</time>
      </trkpt>
      <trkpt lat="44.321" lon="5.89064">
        <ele>575</ele>
        <time>2019-06-25T09:59:29Z</time>
      </trkpt>
      <trkpt lat="44.32093" lon="5.89063">
        <ele>575</ele>
        <time>2019-06-25T09:59:30Z</time>
      </trkpt>
      <trkpt lat="44.32086" lon="5.89062">
        <ele>575</ele>
        <time>2019-06-25T09:59:31Z</time>
      </trkpt>
      <trkpt lat="44.3208" lon="5.89061">
        <ele>575</ele>
        <time>2019-06-25T09:59:32Z</time>
      </trkpt>
      <trkpt lat="44.32073" lon="5.8906">
        <ele>575</ele>
        <time>2019-06-25T09:59:33Z</time>
      </trkpt>
      <trkpt lat="44.32067" lon="5.89059">
        <ele>575</ele>
        <time>2019-06-25T09:59:34Z</time>
      </trkpt>
      <trkpt lat="44.32061" lon="5.89059">
        <ele>575</ele>
        <time>2019-06-25T09:59:35Z</time>
      </trkpt>
      <trkpt lat="44.32055" lon="5.89058">
        <ele>575</ele>
        <time>2019-06-25T09:59:36Z</time>
      </trkpt>
      <trkpt lat="44.32049" lon="5.89056">
        <ele>575</ele>
        <time>2019-06-25T09:59:37Z</time>
      </trkpt>
      <trkpt lat="44.32043" lon="5.89054">
        <ele>575</ele>
        <time>2019-06-25T09:59:38Z</time>
      </trkpt>
      <trkpt lat="44.32037" lon="5.89053">
        <ele>575</ele>
        <time>2019-06-25T09:59:39Z</time>
      </trkpt>
      <trkpt lat="44.32031" lon="5.8905">
        <ele>575</ele>
        <time>2019-06-25T09:59:40Z</time>
      </trkpt>
      <trkpt lat="44.32025" lon="5.89048">
        <ele>575</ele>
        <time>2019-06-25T09:59:41Z</time>
      </trkpt>
      <trkpt lat="44.32019" lon="5.89045">
        <ele>575</ele>
        <time>2019-06-25T09:59:42Z</time>
      </trkpt>
      <trkpt lat="44.32013" lon="5.89041">
        <ele>575</ele>
        <time>2019-06-25T09:59:43Z</time>
      </trkpt>
      <trkpt lat="44.32008" lon="5.89038">
        <ele>575</ele>
        <time>2019-06-25T09:59:44Z</time>
      </trkpt>
      <trkpt lat="44.32002" lon="5.89034">
        <ele>575</ele>
        <time>2019-06-25T09:59:45Z</time>
      </trkpt>
      <trkpt lat="44.31997" lon="5.8903">
        <ele>575</ele>
        <time>2019-06-25T09:59:46Z</time>
      </trkpt>
      <trkpt lat="44.31992" lon="5.89026">
        <ele>575</ele>
        <time>2019-06-25T09:59:47Z</time>
      </trkpt>
      <trkpt lat="44.31988" lon="5.89022">
        <ele>575</ele>
        <time>2019-06-25T09:59:48Z</time>
      </trkpt>
      <trkpt lat="44.31983" lon="5.89018">
        <ele>575</ele>
        <time>2019-06-25T09:59:49Z</time>
      </trkpt>
      <trkpt lat="44.31978" lon="5.89014">
        <ele>575</ele>
        <time>2019-06-25T09:59:50Z</time>
      </trkpt>
      <trkpt lat="44.31974" lon="5.8901">
        <ele>575</ele>
        <time>2019-06-25T09:59:51Z</time>
      </trkpt>
      <trkpt lat="44.31969" lon="5.89006">
        <ele>575</ele>
        <time>2019-06-25T09:59:52Z</time>
      </trkpt>
      <trkpt lat="44.31964" lon="5.89003">
        <ele>575</ele>
        <time>2019-06-25T09:59:53Z</time>
      </trkpt>
      <trkpt lat="44.31959" lon="5.89">
        <ele>575</ele>
        <time>2019-06-25T09:59:54Z</time>
      </trkpt>
      <trkpt lat="44.31954" lon="5.88998">
        <ele>575</ele>
        <time>2019-06-25T09:59:55Z</time>
      </trkpt>
      <trkpt lat="44.31949" lon="5.88995">
        <ele>575</ele>
        <time>2019-06-25T09:59:56Z</time>
      </trkpt>
      <trkpt lat="44.31944" lon="5.88993">
        <ele>575</ele>
        <time>2019-06-25T09:59:57Z</time>
      </trkpt>
      <trkpt lat="44.31938" lon="5.88991">
        <ele>575</ele>
        <time>2019-06-25T09:59:58Z</time>
      </trkpt>
      <trkpt lat="44.31933" lon="5.88989">
        <ele>576</ele>
        <time>2019-06-25T09:59:59Z</time>
      </trkpt>
      <trkpt lat="44.31927" lon="5.88987">
        <ele>576</ele>
        <time>2019-06-25T10:00:00Z</time>
      </trkpt>
      <trkpt lat="44.31922" lon="5.88986">
        <ele>576</ele>
        <time>2019-06-25T10:00:01Z</time>
      </trkpt>
      <trkpt lat="44.31916" lon="5.88986">
        <ele>576</ele>
        <time>2019-06-25T10:00:02Z</time>
      </trkpt>
      <trkpt lat="44.31911" lon="5.88986">
        <ele>576</ele>
        <time>2019-06-25T10:00:03Z</time>
      </trkpt>
      <trkpt lat="44.31905" lon="5.88986">
        <ele>576</ele>
        <time>2019-06-25T10:00:04Z</time>
      </trkpt>
      <trkpt lat="44.319" lon="5.88986">
        <ele>576</ele>
        <time>2019-06-25T10:00:05Z</time>
      </trkpt>
      <trkpt lat="44.31894" lon="5.88986">
        <ele>577</ele>
        <time>2019-06-25T10:00:06Z</time>
      </trkpt>
      <trkpt lat="44.31889" lon="5.88987">
        <ele>577</ele>
        <time>2019-06-25T10:00:07Z</time>
      </trkpt>
      <trkpt lat="44.31883" lon="5.88988">
        <ele>577</ele>
        <time>2019-06-25T10:00:08Z</time>
      </trkpt>
      <trkpt lat="44.31878" lon="5.8899">
        <ele>577</ele>
        <time>2019-06-25T10:00:09Z</time>
      </trkpt>
      <trkpt lat="44.31873" lon="5.88992">
        <ele>578</ele>
        <time>2019-06-25T10:00:10Z</time>
      </trkpt>
      <trkpt lat="44.31867" lon="5.88995">
        <ele>578</ele>
        <time>2019-06-25T10:00:11Z</time>
      </trkpt>
      <trkpt lat="44.31862" lon="5.88998">
        <ele>578</ele>
        <time>2019-06-25T10:00:12Z</time>
      </trkpt>
      <trkpt lat="44.31856" lon="5.89001">
        <ele>578</ele>
        <time>2019-06-25T10:00:13Z</time>
      </trkpt>
      <trkpt lat="44.31851" lon="5.89004">
        <ele>578</ele>
        <time>2019-06-25T10:00:14Z</time>
      </trkpt>
      <trkpt lat="44.31846" lon="5.89007">
        <ele>578</ele>
        <time>2019-06-25T10:00:15Z</time>
      </trkpt>
      <trkpt lat="44.3184" lon="5.8901">
        <ele>579</ele>
        <time>2019-06-25T10:00:16Z</time>
      </trkpt>
      <trkpt lat="44.31835" lon="5.89013">
        <ele>579</ele>
        <time>2019-06-25T10:00:17Z</time>
      </trkpt>
      <trkpt lat="44.3183" lon="5.89017">
        <ele>579</ele>
        <time>2019-06-25T10:00:18Z</time>
      </trkpt>
      <trkpt lat="44.31824" lon="5.89021">
        <ele>579</ele>
        <time>2019-06-25T10:00:19Z</time>
      </trkpt>
      <trkpt lat="44.31819" lon="5.89024">
        <ele>580</ele>
        <time>2019-06-25T10:00:20Z</time>
      </trkpt>
      <trkpt lat="44.31814" lon="5.89028">
        <ele>580</ele>
        <time>2019-06-25T10:00:21Z</time>
      </trkpt>
      <trkpt lat="44.31809" lon="5.89032">
        <ele>580</ele>
        <time>2019-06-25T10:00:22Z</time>
      </trkpt>
      <trkpt lat="44.31803" lon="5.89036">
        <ele>580</ele>
        <time>2019-06-25T10:00:23Z</time>
      </trkpt>
      <trkpt lat="44.31798" lon="5.89039">
        <ele>580</ele>
        <time>2019-06-25T10:00:24Z</time>
      </trkpt>
      <trkpt lat="44.31793" lon="5.89043">
        <ele>581</ele>
        <time>2019-06-25T10:00:25Z</time>
      </trkpt>
      <trkpt lat="44.31788" lon="5.89046">
        <ele>581</ele>
        <time>2019-06-25T10:00:26Z</time>
      </trkpt>
      <trkpt lat="44.31783" lon="5.8905">
        <ele>581</ele>
        <time>2019-06-25T10:00:27Z</time>
      </trkpt>
      <trkpt lat="44.31778" lon="5.89054">
        <ele>581</ele>
        <time>2019-06-25T10:00:28Z</time>
      </trkpt>
      <trkpt lat="44.31773" lon="5.89057">
        <ele>581</ele>
        <time>2019-06-25T10:00:29Z</time>
      </trkpt>
      <trkpt lat="44.31768" lon="5.8906">
        <ele>581</ele>
        <time>2019-06-25T10:00:30Z</time>
      </trkpt>
      <trkpt lat="44.31763" lon="5.89064">
        <ele>582</ele>
        <time>2019-06-25T10:00:31Z</time>
      </trkpt>
      <trkpt lat="44.31758" lon="5.89067">
        <ele>582</ele>
        <time>2019-06-25T10:00:32Z</time>
      </trkpt>
      <trkpt lat="44.31752" lon="5.8907">
        <ele>582</ele>
        <time>2019-06-25T10:00:33Z</time>
      </trkpt>
      <trkpt lat="44.31747" lon="5.89072">
        <ele>582</ele>
        <time>2019-06-25T10:00:34Z</time>
      </trkpt>
      <trkpt lat="44.31742" lon="5.89075">
        <ele>582</ele>
        <time>2019-06-25T10:00:35Z</time>
      </trkpt>
      <trkpt lat="44.31738" lon="5.89078">
        <ele>582</ele>
        <time>2019-06-25T10:00:36Z</time>
      </trkpt>
      <trkpt lat="44.31733" lon="5.8908">
        <ele>583</ele>
        <time>2019-06-25T10:00:37Z</time>
      </trkpt>
      <trkpt lat="44.31728" lon="5.89082">
        <ele>583</ele>
        <time>2019-06-25T10:00:38Z</time>
      </trkpt>
      <trkpt lat="44.31723" lon="5.89083">
        <ele>583</ele>
        <time>2019-06-25T10:00:39Z</time>
      </trkpt>
      <trkpt lat="44.31718" lon="5.89085">
        <ele>583</ele>
        <time>2019-06-25T10:00:40Z</time>
      </trkpt>
      <trkpt lat="44.31713" lon="5.89087">
        <ele>583</ele>
        <time>2019-06-25T10:00:41Z</time>
      </trkpt>
      <trkpt lat="44.31708" lon="5.89088">
        <ele>583</ele>
        <time>2019-06-25T10:00:42Z</time>
      </trkpt>
      <trkpt lat="44.31703" lon="5.8909">
        <ele>584</ele>
        <time>2019-06-25T10:00:43Z</time>
      </trkpt>
      <trkpt lat="44.31698" lon="5.89091">
        <ele>584</ele>
        <time>2019-06-25T10:00:44Z</time>
      </trkpt>
      <trkpt lat="44.31693" lon="5.89092">
        <ele>584</ele>
        <time>2019-06-25T10:00:45Z</time>
      </trkpt>
      <trkpt lat="44.31688" lon="5.89093">
        <ele>584</ele>
        <time>2019-06-25T10:00:46Z</time>
      </trkpt>
      <trkpt lat="44.31683" lon="5.89094">
        <ele>584</ele>
        <time>2019-06-25T10:00:47Z</time>
      </trkpt>
      <trkpt lat="44.31678" lon="5.89094">
        <ele>584</ele>
        <time>2019-06-25T10:00:48Z</time>
      </trkpt>
      <trkpt lat="44.31673" lon="5.89095">
        <ele>585</ele>
        <time>2019-06-25T10:00:49Z</time>
      </trkpt>
      <trkpt lat="44.31668" lon="5.89095">
        <ele>585</ele>
        <time>2019-06-25T10:00:50Z</time>
      </trkpt>
      <trkpt lat="44.31663" lon="5.89095">
        <ele>585</ele>
        <time>2019-06-25T10:00:51Z</time>
      </trkpt>
      <trkpt lat="44.31658" lon="5.89095">
        <ele>585</ele>
        <time>2019-06-25T10:00:52Z</time>
      </trkpt>
      <trkpt lat="44.31653" lon="5.89095">
        <ele>585</ele>
        <time>2019-06-25T10:00:53Z</time>
      </trkpt>
      <trkpt lat="44.31648" lon="5.89095">
        <ele>585</ele>
        <time>2019-06-25T10:00:54Z</time>
      </trkpt>
      <trkpt lat="44.31643" lon="5.89095">
        <ele>585</ele>
        <time>2019-06-25T10:00:55Z</time>
      </trkpt>
      <trkpt lat="44.31638" lon="5.89095">
        <ele>586</ele>
        <time>2019-06-25T10:00:56Z</time>
      </trkpt>
      <trkpt lat="44.31633" lon="5.89095">
        <ele>586</ele>
        <time>2019-06-25T10:00:57Z</time>
      </trkpt>
      <trkpt lat="44.31628" lon="5.89095">
        <ele>586</ele>
        <time>2019-06-25T10:00:58Z</time>
      </trkpt>
      <trkpt lat="44.31624" lon="5.89095">
        <ele>586</ele>
        <time>2019-06-25T10:00:59Z</time>
      </trkpt>
      <trkpt lat="44.31619" lon="5.89095">
        <ele>586</ele>
        <time>2019-06-25T10:01:00Z</time>
      </trkpt>
      <trkpt lat="44.31614" lon="5.89095">
        <ele>586</ele>
        <time>2019-06-25T10:01:01Z</time>
      </trkpt>
      <trkpt lat="44.31609" lon="5.89095">
        <ele>586</ele>
        <time>2019-06-25T10:01:02Z</time>
      </trkpt>
      <trkpt lat="44.31605" lon="5.89095">
        <ele>587</ele>
        <time>2019-06-25T10:01:03Z</time>
      </trkpt>
      <trkpt lat="44.316" lon="5.89095">
        <ele>587</ele>
        <time>2019-06-25T10:01:04Z</time>
      </trkpt>
      <trkpt lat="44.31595" lon="5.89094">
        <ele>587</ele>
        <time>2019-06-25T10:01:05Z</time>
      </trkpt>
      <trkpt lat="44.31591" lon="5.89094">
        <ele>587</ele>
        <time>2019-06-25T10:01:06Z</time>
      </trkpt>
      <trkpt lat="44.31586" lon="5.89094">
        <ele>587</ele>
        <time>2019-06-25T10:01:07Z</time>
      </trkpt>
      <trkpt lat="44.31581" lon="5.89094">
        <ele>587</ele>
        <time>2019-06-25T10:01:08Z</time>
      </trkpt>
      <trkpt lat="44.31577" lon="5.89094">
        <ele>587</ele>
        <time>2019-06-25T10:01:09Z</time>
      </trkpt>
      <trkpt lat="44.31573" lon="5.89094">
        <ele>588</ele>
        <time>2019-06-25T10:01:10Z</time>
      </trkpt>
      <trkpt lat="44.31569" lon="5.89094">
        <ele>588</ele>
        <time>2019-06-25T10:01:11Z</time>
      </trkpt>
      <trkpt lat="44.31564" lon="5.89094">
        <ele>588</ele>
        <time>2019-06-25T10:01:12Z</time>
      </trkpt>
      <trkpt lat="44.31561" lon="5.89094">
        <ele>588</ele>
        <time>2019-06-25T10:01:13Z</time>
      </trkpt>
      <trkpt lat="44.31556" lon="5.89094">
        <ele>588</ele>
        <time>2019-06-25T10:01:14Z</time>
      </trkpt>
      <trkpt lat="44.31553" lon="5.89094">
        <ele>589</ele>
        <time>2019-06-25T10:01:15Z</time>
      </trkpt>
      <trkpt lat="44.31549" lon="5.89094">
        <ele>589</ele>
        <time>2019-06-25T10:01:16Z</time>
      </trkpt>
      <trkpt lat="44.31545" lon="5.89094">
        <ele>589</ele>
        <time>2019-06-25T10:01:17Z</time>
      </trkpt>
      <trkpt lat="44.31541" lon="5.89094">
        <ele>589</ele>
        <time>2019-06-25T10:01:18Z</time>
      </trkpt>
      <trkpt lat="44.31537" lon="5.89094">
        <ele>589</ele>
        <time>2019-06-25T10:01:19Z</time>
      </trkpt>
      <trkpt lat="44.31533" lon="5.89093">
        <ele>589</ele>
        <time>2019-06-25T10:01:20Z</time>
      </trkpt>
      <trkpt lat="44.31529" lon="5.89093">
        <ele>589</ele>
        <time>2019-06-25T10:01:21Z</time>
      </trkpt>
      <trkpt lat="44.31525" lon="5.89093">
        <ele>589</ele>
        <time>2019-06-25T10:01:22Z</time>
      </trkpt>
      <trkpt lat="44.31521" lon="5.89093">
        <ele>589</ele>
        <time>2019-06-25T10:01:23Z</time>
      </trkpt>
      <trkpt lat="44.31517" lon="5.89092">
        <ele>589</ele>
        <time>2019-06-25T10:01:24Z</time>
      </trkpt>
      <trkpt lat="44.31514" lon="5.89089">
        <ele>590</ele>
        <time>2019-06-25T10:01:25Z</time>
      </trkpt>
      <trkpt lat="44.31513" lon="5.89083">
        <ele>590</ele>
        <time>2019-06-25T10:01:26Z</time>
      </trkpt>
      <trkpt lat="44.31513" lon="5.89078">
        <ele>590</ele>
        <time>2019-06-25T10:01:27Z</time>
      </trkpt>
      <trkpt lat="44.31514" lon="5.89072">
        <ele>590</ele>
        <time>2019-06-25T10:01:28Z</time>
      </trkpt>
      <trkpt lat="44.31516" lon="5.89066">
        <ele>590</ele>
        <time>2019-06-25T10:01:29Z</time>
      </trkpt>
      <trkpt lat="44.31518" lon="5.8906">
        <ele>590</ele>
        <time>2019-06-25T10:01:30Z</time>
      </trkpt>
      <trkpt lat="44.3152" lon="5.89054">
        <ele>590</ele>
        <time>2019-06-25T10:01:31Z</time>
      </trkpt>
      <trkpt lat="44.31522" lon="5.89048">
        <ele>590</ele>
        <time>2019-06-25T10:01:32Z</time>
      </trkpt>
      <trkpt lat="44.31523" lon="5.89042">
        <ele>590</ele>
        <time>2019-06-25T10:01:33Z</time>
      </trkpt>
      <trkpt lat="44.31525" lon="5.89036">
        <ele>591</ele>
        <time>2019-06-25T10:01:34Z</time>
      </trkpt>
      <trkpt lat="44.31527" lon="5.89029">
        <ele>591</ele>
        <time>2019-06-25T10:01:35Z</time>
      </trkpt>
      <trkpt lat="44.31529" lon="5.89023">
        <ele>591</ele>
        <time>2019-06-25T10:01:36Z</time>
      </trkpt>
      <trkpt lat="44.31531" lon="5.89017">
        <ele>591</ele>
        <time>2019-06-25T10:01:37Z</time>
      </trkpt>
      <trkpt lat="44.31533" lon="5.89011">
        <ele>591</ele>
        <time>2019-06-25T10:01:38Z</time>
      </trkpt>
      <trkpt lat="44.31535" lon="5.89006">
        <ele>591</ele>
        <time>2019-06-25T10:01:39Z</time>
      </trkpt>
      <trkpt lat="44.31536" lon="5.89">
        <ele>591</ele>
        <time>2019-06-25T10:01:40Z</time>
      </trkpt>
      <trkpt lat="44.31538" lon="5.88995">
        <ele>592</ele>
        <time>2019-06-25T10:01:41Z</time>
      </trkpt>
      <trkpt lat="44.3154" lon="5.88989">
        <ele>592</ele>
        <time>2019-06-25T10:01:42Z</time>
      </trkpt>
      <trkpt lat="44.31542" lon="5.88984">
        <ele>592</ele>
        <time>2019-06-25T10:01:43Z</time>
      </trkpt>
      <trkpt lat="44.31544" lon="5.88978">
        <ele>592</ele>
        <time>2019-06-25T10:01:44Z</time>
      </trkpt>
      <trkpt lat="44.31546" lon="5.88974">
        <ele>592</ele>
        <time>2019-06-25T10:01:45Z</time>
      </trkpt>
      <trkpt lat="44.31547" lon="5.88969">
        <ele>593</ele>
        <time>2019-06-25T10:01:46Z</time>
      </trkpt>
      <trkpt lat="44.31549" lon="5.88964">
        <ele>593</ele>
        <time>2019-06-25T10:01:47Z</time>
      </trkpt>
      <trkpt lat="44.31551" lon="5.88959">
        <ele>593</ele>
        <time>2019-06-25T10:01:48Z</time>
      </trkpt>
      <trkpt lat="44.31552" lon="5.88954">
        <ele>593</ele>
        <time>2019-06-25T10:01:49Z</time>
      </trkpt>
      <trkpt lat="44.31554" lon="5.8895">
        <ele>593</ele>
        <time>2019-06-25T10:01:50Z</time>
      </trkpt>
      <trkpt lat="44.31556" lon="5.88945">
        <ele>593</ele>
        <time>2019-06-25T10:01:51Z</time>
      </trkpt>
      <trkpt lat="44.31557" lon="5.8894">
        <ele>593</ele>
        <time>2019-06-25T10:01:52Z</time>
      </trkpt>
      <trkpt lat="44.31559" lon="5.88936">
        <ele>594</ele>
        <time>2019-06-25T10:01:53Z</time>
      </trkpt>
      <trkpt lat="44.31561" lon="5.88931">
        <ele>594</ele>
        <time>2019-06-25T10:01:54Z</time>
      </trkpt>
      <trkpt lat="44.31563" lon="5.88926">
        <ele>594</ele>
        <time>2019-06-25T10:01:55Z</time>
      </trkpt>
      <trkpt lat="44.31564" lon="5.88922">
        <ele>595</ele>
        <time>2019-06-25T10:01:56Z</time>
      </trkpt>
      <trkpt lat="44.31566" lon="5.88918">
        <ele>595</ele>
        <time>2019-06-25T10:01:57Z</time>
      </trkpt>
      <trkpt lat="44.31567" lon="5.88914">
        <ele>595</ele>
        <time>2019-06-25T10:01:58Z</time>
      </trkpt>
      <trkpt lat="44.31569" lon="5.8891">
        <ele>595</ele>
        <time>2019-06-25T10:01:59Z</time>
      </trkpt>
      <trkpt lat="44.3157" lon="5.88906">
        <ele>596</ele>
        <time>2019-06-25T10:02:00Z</time>
      </trkpt>
      <trkpt lat="44.31572" lon="5.88902">
        <ele>596</ele>
        <time>2019-06-25T10:02:01Z</time>
      </trkpt>
      <trkpt lat="44.31573" lon="5.88898">
        <ele>596</ele>
        <time>2019-06-25T10:02:02Z</time>
      </trkpt>
      <trkpt lat="44.31574" lon="5.88894">
        <ele>596</ele>
        <time>2019-06-25T10:02:03Z</time>
      </trkpt>
      <trkpt lat="44.31576" lon="5.8889">
        <ele>597</ele>
        <time>2019-06-25T10:02:04Z</time>
      </trkpt>
      <trkpt lat="44.31577" lon="5.88886">
        <ele>597</ele>
        <time>2019-06-25T10:02:05Z</time>
      </trkpt>
      <trkpt lat="44.31578" lon="5.88882">
        <ele>597</ele>
        <time>2019-06-25T10:02:06Z</time>
      </trkpt>
      <trkpt lat="44.3158" lon="5.88879">
        <ele>597</ele>
        <time>2019-06-25T10:02:07Z</time>
      </trkpt>
      <trkpt lat="44.31581" lon="5.88874">
        <ele>597</ele>
        <time>2019-06-25T10:02:08Z</time>
      </trkpt>
      <trkpt lat="44.31583" lon="5.88871">
        <ele>597</ele>
        <time>2019-06-25T10:02:09Z</time>
      </trkpt>
      <trkpt lat="44.31584" lon="5.88867">
        <ele>597</ele>
        <time>2019-06-25T10:02:10Z</time>
      </trkpt>
      <trkpt lat="44.31585" lon="5.88863">
        <ele>598</ele>
        <time>2019-06-25T10:02:11Z</time>
      </trkpt>
      <trkpt lat="44.31587" lon="5.88859">
        <ele>598</ele>
        <time>2019-06-25T10:02:12Z</time>
      </trkpt>
      <trkpt lat="44.31588" lon="5.88855">
        <ele>598</ele>
        <time>2019-06-25T10:02:13Z</time>
      </trkpt>
      <trkpt lat="44.3159" lon="5.88851">
        <ele>598</ele>
        <time>2019-06-25T10:02:14Z</time>
      </trkpt>
      <trkpt lat="44.31591" lon="5.88847">
        <ele>598</ele>
        <time>2019-06-25T10:02:15Z</time>
      </trkpt>
      <trkpt lat="44.31592" lon="5.88843">
        <ele>598</ele>
        <time>2019-06-25T10:02:16Z</time>
      </trkpt>
      <trkpt lat="44.31593" lon="5.8884">
        <ele>598</ele>
        <time>2019-06-25T10:02:17Z</time>
      </trkpt>
      <trkpt lat="44.31595" lon="5.88836">
        <ele>598</ele>
        <time>2019-06-25T10:02:18Z</time>
      </trkpt>
      <trkpt lat="44.31597" lon="5.88833">
        <ele>598</ele>
        <time>2019-06-25T10:02:19Z</time>
      </trkpt>
      <trkpt lat="44.31599" lon="5.88829">
        <ele>599</ele>
        <time>2019-06-25T10:02:20Z</time>
      </trkpt>
      <trkpt lat="44.316" lon="5.88825">
        <ele>599</ele>
        <time>2019-06-25T10:02:21Z</time>
      </trkpt>
      <trkpt lat="44.31601" lon="5.88821">
        <ele>599</ele>
        <time>2019-06-25T10:02:22Z</time>
      </trkpt>
      <trkpt lat="44.31602" lon="5.88817">
        <ele>599</ele>
        <time>2019-06-25T10:02:23Z</time>
      </trkpt>
      <trkpt lat="44.31604" lon="5.88814">
        <ele>599</ele>
        <time>2019-06-25T10:02:24Z</time>
      </trkpt>
      <trkpt lat="44.31605" lon="5.8881">
        <ele>600</ele>
        <time>2019-06-25T10:02:25Z</time>
      </trkpt>
      <trkpt lat="44.31607" lon="5.88807">
        <ele>600</ele>
        <time>2019-06-25T10:02:26Z</time>
      </trkpt>
      <trkpt lat="44.31608" lon="5.88803">
        <ele>600</ele>
        <time>2019-06-25T10:02:27Z</time>
      </trkpt>
      <trkpt lat="44.3161" lon="5.888">
        <ele>600</ele>
        <time>2019-06-25T10:02:28Z</time>
      </trkpt>
      <trkpt lat="44.31612" lon="5.88797">
        <ele>601</ele>
        <time>2019-06-25T10:02:29Z</time>
      </trkpt>
      <trkpt lat="44.31613" lon="5.88793">
        <ele>601</ele>
        <time>2019-06-25T10:02:30Z</time>
      </trkpt>
      <trkpt lat="44.31614" lon="5.8879">
        <ele>601</ele>
        <time>2019-06-25T10:02:31Z</time>
      </trkpt>
      <trkpt lat="44.31615" lon="5.88786">
        <ele>601</ele>
        <time>2019-06-25T10:02:32Z</time>
      </trkpt>
      <trkpt lat="44.31617" lon="5.88783">
        <ele>601</ele>
        <time>2019-06-25T10:02:33Z</time>
      </trkpt>
      <trkpt lat="44.31618" lon="5.88779">
        <ele>602</ele>
        <time>2019-06-25T10:02:34Z</time>
      </trkpt>
      <trkpt lat="44.31619" lon="5.88775">
        <ele>602</ele>
        <time>2019-06-25T10:02:35Z</time>
      </trkpt>
      <trkpt lat="44.3162" lon="5.88771">
        <ele>602</ele>
        <time>2019-06-25T10:02:36Z</time>
      </trkpt>
      <trkpt lat="44.31622" lon="5.88767">
        <ele>602</ele>
        <time>2019-06-25T10:02:37Z</time>
      </trkpt>
      <trkpt lat="44.31623" lon="5.88763">
        <ele>602</ele>
        <time>2019-06-25T10:02:38Z</time>
      </trkpt>
      <trkpt lat="44.31624" lon="5.88759">
        <ele>603</ele>
        <time>2019-06-25T10:02:39Z</time>
      </trkpt>
      <trkpt lat="44.31626" lon="5.88755">
        <ele>603</ele>
        <time>2019-06-25T10:02:40Z</time>
      </trkpt>
      <trkpt lat="44.31627" lon="5.88751">
        <ele>603</ele>
        <time>2019-06-25T10:02:41Z</time>
      </trkpt>
      <trkpt lat="44.31629" lon="5.88746">
        <ele>603</ele>
        <time>2019-06-25T10:02:42Z</time>
      </trkpt>
      <trkpt lat="44.31631" lon="5.88742">
        <ele>603</ele>
        <time>2019-06-25T10:02:43Z</time>
      </trkpt>
      <trkpt lat="44.31633" lon="5.88737">
        <ele>603</ele>
        <time>2019-06-25T10:02:44Z</time>
      </trkpt>
      <trkpt lat="44.31634" lon="5.88732">
        <ele>603</ele>
        <time>2019-06-25T10:02:45Z</time>
      </trkpt>
      <trkpt lat="44.31636" lon="5.88727">
        <ele>603</ele>
        <time>2019-06-25T10:02:46Z</time>
      </trkpt>
      <trkpt lat="44.31638" lon="5.88721">
        <ele>603</ele>
        <time>2019-06-25T10:02:47Z</time>
      </trkpt>
      <trkpt lat="44.31639" lon="5.88716">
        <ele>603</ele>
        <time>2019-06-25T10:02:48Z</time>
      </trkpt>
      <trkpt lat="44.31641" lon="5.8871">
        <ele>603</ele>
        <time>2019-06-25T10:02:49Z</time>
      </trkpt>
      <trkpt lat="44.31642" lon="5.88704">
        <ele>603</ele>
        <time>2019-06-25T10:02:50Z</time>
      </trkpt>
      <trkpt lat="44.31644" lon="5.88698">
        <ele>603</ele>
        <time>2019-06-25T10:02:51Z</time>
      </trkpt>
      <trkpt lat="44.31645" lon="5.88692">
        <ele>603</ele>
        <time>2019-06-25T10:02:52Z</time>
      </trkpt>
      <trkpt lat="44.31647" lon="5.88687">
        <ele>603</ele>
        <time>2019-06-25T10:02:53Z</time>
      </trkpt>
      <trkpt lat="44.31648" lon="5.88681">
        <ele>603</ele>
        <time>2019-06-25T10:02:54Z</time>
      </trkpt>
      <trkpt lat="44.31649" lon="5.88675">
        <ele>604</ele>
        <time>2019-06-25T10:02:55Z</time>
      </trkpt>
      <trkpt lat="44.31651" lon="5.8867">
        <ele>604</ele>
        <time>2019-06-25T10:02:56Z</time>
      </trkpt>
      <trkpt lat="44.31652" lon="5.88664">
        <ele>604</ele>
        <time>2019-06-25T10:02:57Z</time>
      </trkpt>
      <trkpt lat="44.31654" lon="5.88659">
        <ele>604</ele>
        <time>2019-06-25T10:02:58Z</time>
      </trkpt>
      <trkpt lat="44.31656" lon="5.88654">
        <ele>605</ele>
        <time>2019-06-25T10:02:59Z</time>
      </trkpt>
      <trkpt lat="44.31657" lon="5.88649">
        <ele>605</ele>
        <time>2019-06-25T10:03:00Z</time>
      </trkpt>
      <trkpt lat="44.31658" lon="5.88644">
        <ele>605</ele>
        <time>2019-06-25T10:03:01Z</time>
      </trkpt>
      <trkpt lat="44.31659" lon="5.88638">
        <ele>605</ele>
        <time>2019-06-25T10:03:02Z</time>
      </trkpt>
      <trkpt lat="44.3166" lon="5.88633">
        <ele>606</ele>
        <time>2019-06-25T10:03:03Z</time>
      </trkpt>
      <trkpt lat="44.31662" lon="5.88629">
        <ele>606</ele>
        <time>2019-06-25T10:03:04Z</time>
      </trkpt>
      <trkpt lat="44.31664" lon="5.88625">
        <ele>606</ele>
        <time>2019-06-25T10:03:05Z</time>
      </trkpt>
      <trkpt lat="44.31667" lon="5.88621">
        <ele>607</ele>
        <time>2019-06-25T10:03:06Z</time>
      </trkpt>
      <trkpt lat="44.31669" lon="5.88618">
        <ele>607</ele>
        <time>2019-06-25T10:03:07Z</time>
      </trkpt>
      <trkpt lat="44.31672" lon="5.88616">
        <ele>607</ele>
        <time>2019-06-25T10:03:08Z</time>
      </trkpt>
      <trkpt lat="44.31675" lon="5.88615">
        <ele>607</ele>
        <time>2019-06-25T10:03:09Z</time>
      </trkpt>
      <trkpt lat="44.31679" lon="5.88614">
        <ele>608</ele>
        <time>2019-06-25T10:03:10Z</time>
      </trkpt>
      <trkpt lat="44.31682" lon="5.88614">
        <ele>608</ele>
        <time>2019-06-25T10:03:11Z</time>
      </trkpt>
      <trkpt lat="44.31685" lon="5.88615">
        <ele>608</ele>
        <time>2019-06-25T10:03:12Z</time>
      </trkpt>
      <trkpt lat="44.31688" lon="5.88616">
        <ele>608</ele>
        <time>2019-06-25T10:03:13Z</time>
      </trkpt>
      <trkpt lat="44.31691" lon="5.88617">
        <ele>609</ele>
        <time>2019-06-25T10:03:14Z</time>
      </trkpt>
      <trkpt lat="44.31694" lon="5.88617">
        <ele>609</ele>
        <time>2019-06-25T10:03:15Z</time>
      </trkpt>
      <trkpt lat="44.31696" lon="5.88618">
        <ele>609</ele>
        <time>2019-06-25T10:03:16Z</time>
      </trkpt>
      <trkpt lat="44.31699" lon="5.88619">
        <ele>609</ele>
        <time>2019-06-25T10:03:17Z</time>
      </trkpt>
      <trkpt lat="44.31701" lon="5.8862">
        <ele>610</ele>
        <time>2019-06-25T10:03:18Z</time>
      </trkpt>
      <trkpt lat="44.31703" lon="5.88621">
        <ele>610</ele>
        <time>2019-06-25T10:03:19Z</time>
      </trkpt>
      <trkpt lat="44.31705" lon="5.88623">
        <ele>610</ele>
        <time>2019-06-25T10:03:20Z</time>
      </trkpt>
      <trkpt lat="44.31707" lon="5.88623">
        <ele>610</ele>
        <time>2019-06-25T10:03:21Z</time>
      </trkpt>
      <trkpt lat="44.31709" lon="5.88623">
        <ele>611</ele>
        <time>2019-06-25T10:03:22Z</time>
      </trkpt>
      <trkpt lat="44.31712" lon="5.88624">
        <ele>611</ele>
        <time>2019-06-25T10:03:23Z</time>
      </trkpt>
      <trkpt lat="44.31713" lon="5.88625">
        <ele>611</ele>
        <time>2019-06-25T10:03:24Z</time>
      </trkpt>
      <trkpt lat="44.31715" lon="5.88626">
        <ele>612</ele>
        <time>2019-06-25T10:03:25Z</time>
      </trkpt>
      <trkpt lat="44.31717" lon="5.88628">
        <ele>612</ele>
        <time>2019-06-25T10:03:26Z</time>
      </trkpt>
      <trkpt lat="44.31718" lon="5.88629">
        <ele>612</ele>
        <time>2019-06-25T10:03:27Z</time>
      </trkpt>
      <trkpt lat="44.31721" lon="5.88629">
        <ele>612</ele>
        <time>2019-06-25T10:03:28Z</time>
      </trkpt>
      <trkpt lat="44.31723" lon="5.88629">
        <ele>613</ele>
        <time>2019-06-25T10:03:29Z</time>
      </trkpt>
      <trkpt lat="44.31725" lon="5.8863">
        <ele>613</ele>
        <time>2019-06-25T10:03:30Z</time>
      </trkpt>
      <trkpt lat="44.31727" lon="5.88631">
        <ele>613</ele>
        <time>2019-06-25T10:03:31Z</time>
      </trkpt>
      <trkpt lat="44.31729" lon="5.88632">
        <ele>613</ele>
        <time>2019-06-25T10:03:32Z</time>
      </trkpt>
      <trkpt lat="44.31731" lon="5.88633">
        <ele>614</ele>
        <time>2019-06-25T10:03:33Z</time>
      </trkpt>
      <trkpt lat="44.31733" lon="5.88633">
        <ele>614</ele>
        <time>2019-06-25T10:03:34Z</time>
      </trkpt>
      <trkpt lat="44.31736" lon="5.88633">
        <ele>614</ele>
        <time>2019-06-25T10:03:35Z</time>
      </trkpt>
      <trkpt lat="44.31739" lon="5.88633">
        <ele>614</ele>
        <time>2019-06-25T10:03:36Z</time>
      </trkpt>
      <trkpt lat="44.31742" lon="5.88632">
        <ele>615</ele>
        <time>2019-06-25T10:03:37Z</time>
      </trkpt>
      <trkpt lat="44.31744" lon="5.88632">
        <ele>615</ele>
        <time>2019-06-25T10:03:38Z</time>
      </trkpt>
      <trkpt lat="44.31747" lon="5.88632">
        <ele>615</ele>
        <time>2019-06-25T10:03:39Z</time>
      </trkpt>
      <trkpt lat="44.3175" lon="5.88631">
        <ele>615</ele>
        <time>2019-06-25T10:03:40Z</time>
      </trkpt>
      <trkpt lat="44.31753" lon="5.88631">
        <ele>616</ele>
        <time>2019-06-25T10:03:41Z</time>
      </trkpt>
      <trkpt lat="44.31755" lon="5.8863">
        <ele>616</ele>
        <time>2019-06-25T10:03:42Z</time>
      </trkpt>
      <trkpt lat="44.31758" lon="5.88629">
        <ele>616</ele>
        <time>2019-06-25T10:03:43Z</time>
      </trkpt>
      <trkpt lat="44.31761" lon="5.88628">
        <ele>617</ele>
        <time>2019-06-25T10:03:44Z</time>
      </trkpt>
      <trkpt lat="44.31763" lon="5.88627">
        <ele>618</ele>
        <time>2019-06-25T10:03:45Z</time>
      </trkpt>
      <trkpt lat="44.31766" lon="5.88626">
        <ele>618</ele>
        <time>2019-06-25T10:03:46Z</time>
      </trkpt>
      <trkpt lat="44.31769" lon="5.88625">
        <ele>619</ele>
        <time>2019-06-25T10:03:47Z</time>
      </trkpt>
      <trkpt lat="44.31771" lon="5.88624">
        <ele>619</ele>
        <time>2019-06-25T10:03:48Z</time>
      </trkpt>
      <trkpt lat="44.31774" lon="5.88623">
        <ele>620</ele>
        <time>2019-06-25T10:03:49Z</time>
      </trkpt>
      <trkpt lat="44.31777" lon="5.88622">
        <ele>620</ele>
        <time>2019-06-25T10:03:50Z</time>
      </trkpt>
      <trkpt lat="44.3178" lon="5.88621">
        <ele>621</ele>
        <time>2019-06-25T10:03:51Z</time>
      </trkpt>
      <trkpt lat="44.31783" lon="5.88619">
        <ele>621</ele>
        <time>2019-06-25T10:03:52Z</time>
      </trkpt>
      <trkpt lat="44.31785" lon="5.88618">
        <ele>621</ele>
        <time>2019-06-25T10:03:53Z</time>
      </trkpt>
      <trkpt lat="44.31788" lon="5.88617">
        <ele>621</ele>
        <time>2019-06-25T10:03:54Z</time>
      </trkpt>
      <trkpt lat="44.31791" lon="5.88615">
        <ele>622</ele>
        <time>2019-06-25T10:03:55Z</time>
      </trkpt>
      <trkpt lat="44.31793" lon="5.88614">
        <ele>622</ele>
        <time>2019-06-25T10:03:56Z</time>
      </trkpt>
      <trkpt lat="44.31796" lon="5.88612">
        <ele>622</ele>
        <time>2019-06-25T10:03:57Z</time>
      </trkpt>
      <trkpt lat="44.31799" lon="5.88611">
        <ele>622</ele>
        <time>2019-06-25T10:03:58Z</time>
      </trkpt>
      <trkpt lat="44.31802" lon="5.8861">
        <ele>622</ele>
        <time>2019-06-25T10:03:59Z</time>
      </trkpt>
      <trkpt lat="44.31805" lon="5.88609">
        <ele>622</ele>
        <time>2019-06-25T10:04:00Z</time>
      </trkpt>
      <trkpt lat="44.31807" lon="5.88609">
        <ele>622</ele>
        <time>2019-06-25T10:04:01Z</time>
      </trkpt>
      <trkpt lat="44.3181" lon="5.88609">
        <ele>623</ele>
        <time>2019-06-25T10:04:02Z</time>
      </trkpt>
      <trkpt lat="44.31813" lon="5.88608">
        <ele>623</ele>
        <time>2019-06-25T10:04:03Z</time>
      </trkpt>
      <trkpt lat="44.31816" lon="5.88607">
        <ele>623</ele>
        <time>2019-06-25T10:04:04Z</time>
      </trkpt>
      <trkpt lat="44.31819" lon="5.88607">
        <ele>623</ele>
        <time>2019-06-25T10:04:05Z</time>
      </trkpt>
      <trkpt lat="44.31822" lon="5.88606">
        <ele>623</ele>
        <time>2019-06-25T10:04:06Z</time>
      </trkpt>
      <trkpt lat="44.31825" lon="5.88605">
        <ele>623</ele>
        <time>2019-06-25T10:04:07Z</time>
      </trkpt>
      <trkpt lat="44.31828" lon="5.88604">
        <ele>623</ele>
        <time>2019-06-25T10:04:08Z</time>
      </trkpt>
      <trkpt lat="44.31831" lon="5.88602">
        <ele>624</ele>
        <time>2019-06-25T10:04:09Z</time>
      </trkpt>
      <trkpt lat="44.31834" lon="5.88601">
        <ele>624</ele>
        <time>2019-06-25T10:04:10Z</time>
      </trkpt>
      <trkpt lat="44.31837" lon="5.886">
        <ele>624</ele>
        <time>2019-06-25T10:04:11Z</time>
      </trkpt>
      <trkpt lat="44.3184" lon="5.88599">
        <ele>624</ele>
        <time>2019-06-25T10:04:12Z</time>
      </trkpt>
      <trkpt lat="44.31844" lon="5.88598">
        <ele>625</ele>
        <time>2019-06-25T10:04:13Z</time>
      </trkpt>
      <trkpt lat="44.31847" lon="5.88597">
        <ele>625</ele>
        <time>2019-06-25T10:04:14Z</time>
      </trkpt>
      <trkpt lat="44.3185" lon="5.88595">
        <ele>625</ele>
        <time>2019-06-25T10:04:15Z</time>
      </trkpt>
      <trkpt lat="44.31853" lon="5.88593">
        <ele>625</ele>
        <time>2019-06-25T10:04:16Z</time>
      </trkpt>
      <trkpt lat="44.31856" lon="5.88591">
        <ele>626</ele>
        <time>2019-06-25T10:04:17Z</time>
      </trkpt>
      <trkpt lat="44.31859" lon="5.88589">
        <ele>626</ele>
        <time>2019-06-25T10:04:18Z</time>
      </trkpt>
      <trkpt lat="44.31862" lon="5.88586">
        <ele>626</ele>
        <time>2019-06-25T10:04:19Z</time>
      </trkpt>
      <trkpt lat="44.31865" lon="5.88584">
        <ele>626</ele>
        <time>2019-06-25T10:04:20Z</time>
      </trkpt>
      <trkpt lat="44.31868" lon="5.88581">
        <ele>626</ele>
        <time>2019-06-25T10:04:21Z</time>
      </trkpt>
      <trkpt lat="44.31871" lon="5.88579">
        <ele>626</ele>
        <time>2019-06-25T10:04:22Z</time>
      </trkpt>
      <trkpt lat="44.31874" lon="5.88576">
        <ele>627</ele>
        <time>2019-06-25T10:04:23Z</time>
      </trkpt>
      <trkpt lat="44.31877" lon="5.88574">
        <ele>627</ele>
        <time>2019-06-25T10:04:24Z</time>
      </trkpt>
      <trkpt lat="44.3188" lon="5.88571">
        <ele>627</ele>
        <time>2019-06-25T10:04:25Z</time>
      </trkpt>
      <trkpt lat="44.31883" lon="5.88568">
        <ele>627</ele>
        <time>2019-06-25T10:04:26Z</time>
      </trkpt>
      <trkpt lat="44.31886" lon="5.88566">
        <ele>627</ele>
        <time>2019-06-25T10:04:27Z</time>
      </trkpt>
      <trkpt lat="44.31889" lon="5.88565">
        <ele>627</ele>
        <time>2019-06-25T10:04:28Z</time>
      </trkpt>
      <trkpt lat="44.31893" lon="5.88563">
        <ele>628</ele>
        <time>2019-06-25T10:04:29Z</time>
      </trkpt>
      <trkpt lat="44.31897" lon="5.88562">
        <ele>628</ele>
        <time>2019-06-25T10:04:30Z</time>
      </trkpt>
      <trkpt lat="44.319" lon="5.8856">
        <ele>628</ele>
        <time>2019-06-25T10:04:31Z</time>
      </trkpt>
      <trkpt lat="44.31904" lon="5.88559">
        <ele>628</ele>
        <time>2019-06-25T10:04:32Z</time>
      </trkpt>
      <trkpt lat="44.31908" lon="5.88558">
        <ele>628</ele>
        <time>2019-06-25T10:04:33Z</time>
      </trkpt>
      <trkpt lat="44.31911" lon="5.88556">
        <ele>628</ele>
        <time>2019-06-25T10:04:34Z</time>
      </trkpt>
      <trkpt lat="44.31915" lon="5.88555">
        <ele>628</ele>
        <time>2019-06-25T10:04:35Z</time>
      </trkpt>
      <trkpt lat="44.31919" lon="5.88554">
        <ele>628</ele>
        <time>2019-06-25T10:04:36Z</time>
      </trkpt>
      <trkpt lat="44.31923" lon="5.88553">
        <ele>629</ele>
        <time>2019-06-25T10:04:37Z</time>
      </trkpt>
      <trkpt lat="44.31926" lon="5.88552">
        <ele>629</ele>
        <time>2019-06-25T10:04:38Z</time>
      </trkpt>
      <trkpt lat="44.3193" lon="5.88552">
        <ele>629</ele>
        <time>2019-06-25T10:04:39Z</time>
      </trkpt>
      <trkpt lat="44.31934" lon="5.88551">
        <ele>629</ele>
        <time>2019-06-25T10:04:40Z</time>
      </trkpt>
      <trkpt lat="44.31937" lon="5.8855">
        <ele>629</ele>
        <time>2019-06-25T10:04:41Z</time>
      </trkpt>
      <trkpt lat="44.31941" lon="5.8855">
        <ele>630</ele>
        <time>2019-06-25T10:04:42Z</time>
      </trkpt>
      <trkpt lat="44.31945" lon="5.88549">
        <ele>630</ele>
        <time>2019-06-25T10:04:43Z</time>
      </trkpt>
      <trkpt lat="44.31949" lon="5.88549">
        <ele>630</ele>
        <time>2019-06-25T10:04:44Z</time>
      </trkpt>
      <trkpt lat="44.31953" lon="5.88549">
        <ele>630</ele>
        <time>2019-06-25T10:04:45Z</time>
      </trkpt>
      <trkpt lat="44.31958" lon="5.88549">
        <ele>630</ele>
        <time>2019-06-25T10:04:46Z</time>
      </trkpt>
      <trkpt lat="44.31962" lon="5.88549">
        <ele>630</ele>
        <time>2019-06-25T10:04:47Z</time>
      </trkpt>
      <trkpt lat="44.31966" lon="5.8855">
        <ele>630</ele>
        <time>2019-06-25T10:04:48Z</time>
      </trkpt>
      <trkpt lat="44.31971" lon="5.8855">
        <ele>630</ele>
        <time>2019-06-25T10:04:49Z</time>
      </trkpt>
      <trkpt lat="44.31975" lon="5.88551">
        <ele>630</ele>
        <time>2019-06-25T10:04:50Z</time>
      </trkpt>
      <trkpt lat="44.31979" lon="5.88552">
        <ele>630</ele>
        <time>2019-06-25T10:04:51Z</time>
      </trkpt>
      <trkpt lat="44.31984" lon="5.88553">
        <ele>630</ele>
        <time>2019-06-25T10:04:52Z</time>
      </trkpt>
      <trkpt lat="44.31988" lon="5.88554">
        <ele>630</ele>
        <time>2019-06-25T10:04:53Z</time>
      </trkpt>
      <trkpt lat="44.31992" lon="5.88556">
        <ele>630</ele>
        <time>2019-06-25T10:04:54Z</time>
      </trkpt>
      <trkpt lat="44.31996" lon="5.88557">
        <ele>630</ele>
        <time>2019-06-25T10:04:55Z</time>
      </trkpt>
      <trkpt lat="44.32001" lon="5.88558">
        <ele>631</ele>
        <time>2019-06-25T10:04:56Z</time>
      </trkpt>
      <trkpt lat="44.32005" lon="5.88559">
        <ele>631</ele>
        <time>2019-06-25T10:04:57Z</time>
      </trkpt>
      <trkpt lat="44.3201" lon="5.88561">
        <ele>631</ele>
        <time>2019-06-25T10:04:58Z</time>
      </trkpt>
      <trkpt lat="44.32014" lon="5.88562">
        <ele>631</ele>
        <time>2019-06-25T10:04:59Z</time>
      </trkpt>
      <trkpt lat="44.32019" lon="5.88562">
        <ele>631</ele>
        <time>2019-06-25T10:05:00Z</time>
      </trkpt>
      <trkpt lat="44.32023" lon="5.88563">
        <ele>631</ele>
        <time>2019-06-25T10:05:01Z</time>
      </trkpt>
      <trkpt lat="44.32027" lon="5.88563">
        <ele>631</ele>
        <time>2019-06-25T10:05:02Z</time>
      </trkpt>
      <trkpt lat="44.32031" lon="5.88562">
        <ele>631</ele>
        <time>2019-06-25T10:05:03Z</time>
      </trkpt>
      <trkpt lat="44.32036" lon="5.88561">
        <ele>632</ele>
        <time>2019-06-25T10:05:04Z</time>
      </trkpt>
      <trkpt lat="44.3204" lon="5.88559">
        <ele>632</ele>
        <time>2019-06-25T10:05:05Z</time>
      </trkpt>
      <trkpt lat="44.32045" lon="5.88557">
        <ele>632</ele>
        <time>2019-06-25T10:05:06Z</time>
      </trkpt>
      <trkpt lat="44.32049" lon="5.88554">
        <ele>632</ele>
        <time>2019-06-25T10:05:07Z</time>
      </trkpt>
      <trkpt lat="44.32053" lon="5.88552">
        <ele>632</ele>
        <time>2019-06-25T10:05:08Z</time>
      </trkpt>
      <trkpt lat="44.32057" lon="5.88549">
        <ele>632</ele>
        <time>2019-06-25T10:05:09Z</time>
      </trkpt>
      <trkpt lat="44.32061" lon="5.88547">
        <ele>633</ele>
        <time>2019-06-25T10:05:10Z</time>
      </trkpt>
      <trkpt lat="44.32066" lon="5.88545">
        <ele>633</ele>
        <time>2019-06-25T10:05:11Z</time>
      </trkpt>
      <trkpt lat="44.3207" lon="5.88542">
        <ele>633</ele>
        <time>2019-06-25T10:05:12Z</time>
      </trkpt>
      <trkpt lat="44.32074" lon="5.8854">
        <ele>633</ele>
        <time>2019-06-25T10:05:13Z</time>
      </trkpt>
      <trkpt lat="44.32079" lon="5.88537">
        <ele>633</ele>
        <time>2019-06-25T10:05:14Z</time>
      </trkpt>
      <trkpt lat="44.32083" lon="5.88535">
        <ele>633</ele>
        <time>2019-06-25T10:05:15Z</time>
      </trkpt>
      <trkpt lat="44.32088" lon="5.88532">
        <ele>633</ele>
        <time>2019-06-25T10:05:16Z</time>
      </trkpt>
      <trkpt lat="44.32092" lon="5.8853">
        <ele>633</ele>
        <time>2019-06-25T10:05:17Z</time>
      </trkpt>
      <trkpt lat="44.32096" lon="5.88527">
        <ele>633</ele>
        <time>2019-06-25T10:05:18Z</time>
      </trkpt>
      <trkpt lat="44.32101" lon="5.88525">
        <ele>634</ele>
        <time>2019-06-25T10:05:19Z</time>
      </trkpt>
      <trkpt lat="44.32106" lon="5.88523">
        <ele>634</ele>
        <time>2019-06-25T10:05:20Z</time>
      </trkpt>
      <trkpt lat="44.3211" lon="5.88521">
        <ele>634</ele>
        <time>2019-06-25T10:05:21Z</time>
      </trkpt>
      <trkpt lat="44.32115" lon="5.88518">
        <ele>634</ele>
        <time>2019-06-25T10:05:22Z</time>
      </trkpt>
      <trkpt lat="44.32119" lon="5.88516">
        <ele>634</ele>
        <time>2019-06-25T10:05:23Z</time>
      </trkpt>
      <trkpt lat="44.32124" lon="5.88513">
        <ele>634</ele>
        <time>2019-06-25T10:05:24Z</time>
      </trkpt>
      <trkpt lat="44.32128" lon="5.8851">
        <ele>634</ele>
        <time>2019-06-25T10:05:25Z</time>
      </trkpt>
      <trkpt lat="44.32133" lon="5.88508">
        <ele>634</ele>
        <time>2019-06-25T10:05:26Z</time>
      </trkpt>
      <trkpt lat="44.32138" lon="5.88505">
        <ele>634</ele>
        <time>2019-06-25T10:05:27Z</time>
      </trkpt>
      <trkpt lat="44.32142" lon="5.88502">
        <ele>634</ele>
        <time>2019-06-25T10:05:28Z</time>
      </trkpt>
      <trkpt lat="44.32146" lon="5.88499">
        <ele>634</ele>
        <time>2019-06-25T10:05:29Z</time>
      </trkpt>
      <trkpt lat="44.32151" lon="5.88496">
        <ele>634</ele>
        <time>2019-06-25T10:05:30Z</time>
      </trkpt>
      <trkpt lat="44.32155" lon="5.88493">
        <ele>635</ele>
        <time>2019-06-25T10:05:31Z</time>
      </trkpt>
      <trkpt lat="44.32159" lon="5.88489">
        <ele>635</ele>
        <time>2019-06-25T10:05:32Z</time>
      </trkpt>
      <trkpt lat="44.32163" lon="5.88485">
        <ele>635</ele>
        <time>2019-06-25T10:05:33Z</time>
      </trkpt>
      <trkpt lat="44.32167" lon="5.88481">
        <ele>635</ele>
        <time>2019-06-25T10:05:34Z</time>
      </trkpt>
      <trkpt lat="44.32171" lon="5.88477">
        <ele>635</ele>
        <time>2019-06-25T10:05:35Z</time>
      </trkpt>
      <trkpt lat="44.32175" lon="5.88473">
        <ele>635</ele>
        <time>2019-06-25T10:05:36Z</time>
      </trkpt>
      <trkpt lat="44.32178" lon="5.88469">
        <ele>636</ele>
        <time>2019-06-25T10:05:37Z</time>
      </trkpt>
      <trkpt lat="44.32182" lon="5.88465">
        <ele>636</ele>
        <time>2019-06-25T10:05:38Z</time>
      </trkpt>
      <trkpt lat="44.32186" lon="5.88461">
        <ele>636</ele>
        <time>2019-06-25T10:05:39Z</time>
      </trkpt>
      <trkpt lat="44.3219" lon="5.88457">
        <ele>636</ele>
        <time>2019-06-25T10:05:40Z</time>
      </trkpt>
      <trkpt lat="44.32193" lon="5.88454">
        <ele>636</ele>
        <time>2019-06-25T10:05:41Z</time>
      </trkpt>
      <trkpt lat="44.32198" lon="5.88451">
        <ele>636</ele>
        <time>2019-06-25T10:05:42Z</time>
      </trkpt>
      <trkpt lat="44.32202" lon="5.88448">
        <ele>637</ele>
        <time>2019-06-25T10:05:43Z</time>
      </trkpt>
      <trkpt lat="44.32206" lon="5.88446">
        <ele>637</ele>
        <time>2019-06-25T10:05:44Z</time>
      </trkpt>
      <trkpt lat="44.32211" lon="5.88443">
        <ele>637</ele>
        <time>2019-06-25T10:05:45Z</time>
      </trkpt>
      <trkpt lat="44.32215" lon="5.88441">
        <ele>637</ele>
        <time>2019-06-25T10:05:46Z</time>
      </trkpt>
      <trkpt lat="44.32219" lon="5.88439">
        <ele>637</ele>
        <time>2019-06-25T10:05:47Z</time>
      </trkpt>
      <trkpt lat="44.32224" lon="5.88437">
        <ele>637</ele>
        <time>2019-06-25T10:05:48Z</time>
      </trkpt>
      <trkpt lat="44.32228" lon="5.88435">
        <ele>638</ele>
        <time>2019-06-25T10:05:49Z</time>
      </trkpt>
      <trkpt lat="44.32233" lon="5.88434">
        <ele>638</ele>
        <time>2019-06-25T10:05:50Z</time>
      </trkpt>
      <trkpt lat="44.32238" lon="5.88432">
        <ele>638</ele>
        <time>2019-06-25T10:05:51Z</time>
      </trkpt>
      <trkpt lat="44.32243" lon="5.88432">
        <ele>638</ele>
        <time>2019-06-25T10:05:52Z</time>
      </trkpt>
      <trkpt lat="44.32247" lon="5.88431">
        <ele>638</ele>
        <time>2019-06-25T10:05:53Z</time>
      </trkpt>
      <trkpt lat="44.32252" lon="5.88431">
        <ele>639</ele>
        <time>2019-06-25T10:05:54Z</time>
      </trkpt>
      <trkpt lat="44.32257" lon="5.88429">
        <ele>639</ele>
        <time>2019-06-25T10:05:55Z</time>
      </trkpt>
      <trkpt lat="44.32262" lon="5.88428">
        <ele>639</ele>
        <time>2019-06-25T10:05:56Z</time>
      </trkpt>
      <trkpt lat="44.32266" lon="5.88427">
        <ele>639</ele>
        <time>2019-06-25T10:05:57Z</time>
      </trkpt>
      <trkpt lat="44.32271" lon="5.88426">
        <ele>640</ele>
        <time>2019-06-25T10:05:58Z</time>
      </trkpt>
      <trkpt lat="44.32276" lon="5.88425">
        <ele>640</ele>
        <time>2019-06-25T10:05:59Z</time>
      </trkpt>
      <trkpt lat="44.3228" lon="5.88423">
        <ele>640</ele>
        <time>2019-06-25T10:06:00Z</time>
      </trkpt>
      <trkpt lat="44.32285" lon="5.88422">
        <ele>641</ele>
        <time>2019-06-25T10:06:01Z</time>
      </trkpt>
      <trkpt lat="44.3229" lon="5.88421">
        <ele>641</ele>
        <time>2019-06-25T10:06:02Z</time>
      </trkpt>
      <trkpt lat="44.32294" lon="5.88419">
        <ele>641</ele>
        <time>2019-06-25T10:06:03Z</time>
      </trkpt>
      <trkpt lat="44.32299" lon="5.88417">
        <ele>641</ele>
        <time>2019-06-25T10:06:04Z</time>
      </trkpt>
      <trkpt lat="44.32302" lon="5.88415">
        <ele>642</ele>
        <time>2019-06-25T10:06:05Z</time>
      </trkpt>
      <trkpt lat="44.32307" lon="5.88412">
        <ele>642</ele>
        <time>2019-06-25T10:06:06Z</time>
      </trkpt>
      <trkpt lat="44.3231" lon="5.88409">
        <ele>642</ele>
        <time>2019-06-25T10:06:07Z</time>
      </trkpt>
      <trkpt lat="44.32314" lon="5.88406">
        <ele>643</ele>
        <time>2019-06-25T10:06:08Z</time>
      </trkpt>
      <trkpt lat="44.32317" lon="5.88402">
        <ele>643</ele>
        <time>2019-06-25T10:06:09Z</time>
      </trkpt>
      <trkpt lat="44.3232" lon="5.88398">
        <ele>643</ele>
        <time>2019-06-25T10:06:10Z</time>
      </trkpt>
      <trkpt lat="44.32323" lon="5.88393">
        <ele>643</ele>
        <time>2019-06-25T10:06:11Z</time>
      </trkpt>
      <trkpt lat="44.32326" lon="5.88388">
        <ele>644</ele>
        <time>2019-06-25T10:06:12Z</time>
      </trkpt>
      <trkpt lat="44.32329" lon="5.88383">
        <ele>644</ele>
        <time>2019-06-25T10:06:13Z</time>
      </trkpt>
      <trkpt lat="44.32331" lon="5.88377">
        <ele>644</ele>
        <time>2019-06-25T10:06:14Z</time>
      </trkpt>
      <trkpt lat="44.32333" lon="5.88372">
        <ele>645</ele>
        <time>2019-06-25T10:06:15Z</time>
      </trkpt>
      <trkpt lat="44.32334" lon="5.88366">
        <ele>645</ele>
        <time>2019-06-25T10:06:16Z</time>
      </trkpt>
      <trkpt lat="44.32336" lon="5.88359">
        <ele>645</ele>
        <time>2019-06-25T10:06:17Z</time>
      </trkpt>
      <trkpt lat="44.32337" lon="5.88353">
        <ele>646</ele>
        <time>2019-06-25T10:06:18Z</time>
      </trkpt>
      <trkpt lat="44.32338" lon="5.88348">
        <ele>646</ele>
        <time>2019-06-25T10:06:19Z</time>
      </trkpt>
      <trkpt lat="44.3234" lon="5.88342">
        <ele>646</ele>
        <time>2019-06-25T10:06:20Z</time>
      </trkpt>
      <trkpt lat="44.32342" lon="5.88336">
        <ele>646</ele>
        <time>2019-06-25T10:06:21Z</time>
      </trkpt>
      <trkpt lat="44.32343" lon="5.8833">
        <ele>646</ele>
        <time>2019-06-25T10:06:22Z</time>
      </trkpt>
      <trkpt lat="44.32345" lon="5.88324">
        <ele>646</ele>
        <time>2019-06-25T10:06:23Z</time>
      </trkpt>
      <trkpt lat="44.32346" lon="5.88318">
        <ele>646</ele>
        <time>2019-06-25T10:06:24Z</time>
      </trkpt>
      <trkpt lat="44.32348" lon="5.88312">
        <ele>646</ele>
        <time>2019-06-25T10:06:25Z</time>
      </trkpt>
      <trkpt lat="44.3235" lon="5.88307">
        <ele>646</ele>
        <time>2019-06-25T10:06:26Z</time>
      </trkpt>
      <trkpt lat="44.32352" lon="5.88301">
        <ele>646</ele>
        <time>2019-06-25T10:06:27Z</time>
      </trkpt>
      <trkpt lat="44.32355" lon="5.88295">
        <ele>646</ele>
        <time>2019-06-25T10:06:28Z</time>
      </trkpt>
      <trkpt lat="44.32357" lon="5.8829">
        <ele>646</ele>
        <time>2019-06-25T10:06:29Z</time>
      </trkpt>
      <trkpt lat="44.32359" lon="5.88284">
        <ele>646</ele>
        <time>2019-06-25T10:06:30Z</time>
      </trkpt>
      <trkpt lat="44.32362" lon="5.88278">
        <ele>646</ele>
        <time>2019-06-25T10:06:31Z</time>
      </trkpt>
      <trkpt lat="44.32364" lon="5.88273">
        <ele>646</ele>
        <time>2019-06-25T10:06:32Z</time>
      </trkpt>
      <trkpt lat="44.32366" lon="5.88267">
        <ele>646</ele>
        <time>2019-06-25T10:06:33Z</time>
      </trkpt>
      <trkpt lat="44.32368" lon="5.88262">
        <ele>646</ele>
        <time>2019-06-25T10:06:34Z</time>
      </trkpt>
      <trkpt lat="44.3237" lon="5.88256">
        <ele>646</ele>
        <time>2019-06-25T10:06:35Z</time>
      </trkpt>
      <trkpt lat="44.32373" lon="5.8825">
        <ele>646</ele>
        <time>2019-06-25T10:06:36Z</time>
      </trkpt>
      <trkpt lat="44.32375" lon="5.88245">
        <ele>646</ele>
        <time>2019-06-25T10:06:37Z</time>
      </trkpt>
      <trkpt lat="44.32378" lon="5.88239">
        <ele>646</ele>
        <time>2019-06-25T10:06:38Z</time>
      </trkpt>
      <trkpt lat="44.3238" lon="5.88234">
        <ele>646</ele>
        <time>2019-06-25T10:06:39Z</time>
      </trkpt>
      <trkpt lat="44.32382" lon="5.88228">
        <ele>646</ele>
        <time>2019-06-25T10:06:40Z</time>
      </trkpt>
      <trkpt lat="44.32384" lon="5.88222">
        <ele>646</ele>
        <time>2019-06-25T10:06:41Z</time>
      </trkpt>
      <trkpt lat="44.32386" lon="5.88215">
        <ele>646</ele>
        <time>2019-06-25T10:06:42Z</time>
      </trkpt>
      <trkpt lat="44.32389" lon="5.88209">
        <ele>646</ele>
        <time>2019-06-25T10:06:43Z</time>
      </trkpt>
      <trkpt lat="44.32392" lon="5.88203">
        <ele>646</ele>
        <time>2019-06-25T10:06:44Z</time>
      </trkpt>
      <trkpt lat="44.32394" lon="5.88196">
        <ele>647</ele>
        <time>2019-06-25T10:06:45Z</time>
      </trkpt>
      <trkpt lat="44.32397" lon="5.88189">
        <ele>647</ele>
        <time>2019-06-25T10:06:46Z</time>
      </trkpt>
      <trkpt lat="44.324" lon="5.8818">
        <ele>647</ele>
        <time>2019-06-25T10:06:47Z</time>
      </trkpt>
      <trkpt lat="44.32402" lon="5.8817">
        <ele>648</ele>
        <time>2019-06-25T10:06:48Z</time>
      </trkpt>
      <trkpt lat="44.32405" lon="5.88161">
        <ele>648</ele>
        <time>2019-06-25T10:06:49Z</time>
      </trkpt>
      <trkpt lat="44.32408" lon="5.88151">
        <ele>648</ele>
        <time>2019-06-25T10:06:50Z</time>
      </trkpt>
      <trkpt lat="44.3241" lon="5.88141">
        <ele>648</ele>
        <time>2019-06-25T10:06:51Z</time>
      </trkpt>
      <trkpt lat="44.32413" lon="5.88131">
        <ele>648</ele>
        <time>2019-06-25T10:06:52Z</time>
      </trkpt>
      <trkpt lat="44.32416" lon="5.88121">
        <ele>648</ele>
        <time>2019-06-25T10:06:53Z</time>
      </trkpt>
      <trkpt lat="44.32418" lon="5.88111">
        <ele>648</ele>
        <time>2019-06-25T10:06:54Z</time>
      </trkpt>
      <trkpt lat="44.32421" lon="5.881">
        <ele>648</ele>
        <time>2019-06-25T10:06:55Z</time>
      </trkpt>
      <trkpt lat="44.32425" lon="5.8809">
        <ele>648</ele>
        <time>2019-06-25T10:06:56Z</time>
      </trkpt>
      <trkpt lat="44.32429" lon="5.88081">
        <ele>648</ele>
        <time>2019-06-25T10:06:57Z</time>
      </trkpt>
      <trkpt lat="44.32434" lon="5.88072">
        <ele>648</ele>
        <time>2019-06-25T10:06:58Z</time>
      </trkpt>
      <trkpt lat="44.32439" lon="5.88063">
        <ele>648</ele>
        <time>2019-06-25T10:06:59Z</time>
      </trkpt>
      <trkpt lat="44.32444" lon="5.88054">
        <ele>648</ele>
        <time>2019-06-25T10:07:00Z</time>
      </trkpt>
      <trkpt lat="44.32449" lon="5.88046">
        <ele>648</ele>
        <time>2019-06-25T10:07:01Z</time>
      </trkpt>
      <trkpt lat="44.32455" lon="5.88038">
        <ele>648</ele>
        <time>2019-06-25T10:07:02Z</time>
      </trkpt>
      <trkpt lat="44.32462" lon="5.8803">
        <ele>647</ele>
        <time>2019-06-25T10:07:03Z</time>
      </trkpt>
      <trkpt lat="44.32468" lon="5.88023">
        <ele>647</ele>
        <time>2019-06-25T10:07:04Z</time>
      </trkpt>
      <trkpt lat="44.32474" lon="5.88015">
        <ele>647</ele>
        <time>2019-06-25T10:07:05Z</time>
      </trkpt>
      <trkpt lat="44.3248" lon="5.88007">
        <ele>647</ele>
        <time>2019-06-25T10:07:06Z</time>
      </trkpt>
      <trkpt lat="44.32486" lon="5.88">
        <ele>647</ele>
        <time>2019-06-25T10:07:07Z</time>
      </trkpt>
      <trkpt lat="44.32491" lon="5.87991">
        <ele>647</ele>
        <time>2019-06-25T10:07:08Z</time>
      </trkpt>
      <trkpt lat="44.32495" lon="5.87982">
        <ele>647</ele>
        <time>2019-06-25T10:07:09Z</time>
      </trkpt>
      <trkpt lat="44.32498" lon="5.87971">
        <ele>647</ele>
        <time>2019-06-25T10:07:10Z</time>
      </trkpt>
      <trkpt lat="44.32501" lon="5.87961">
        <ele>647</ele>
        <time>2019-06-25T10:07:11Z</time>
      </trkpt>
      <trkpt lat="44.32503" lon="5.87949">
        <ele>647</ele>
        <time>2019-06-25T10:07:12Z</time>
      </trkpt>
      <trkpt lat="44.32505" lon="5.87938">
        <ele>647</ele>
        <time>2019-06-25T10:07:13Z</time>
      </trkpt>
      <trkpt lat="44.32506" lon="5.87927">
        <ele>647</ele>
        <time>2019-06-25T10:07:14Z</time>
      </trkpt>
      <trkpt lat="44.32507" lon="5.87915">
        <ele>647</ele>
        <time>2019-06-25T10:07:15Z</time>
      </trkpt>
      <trkpt lat="44.32507" lon="5.87903">
        <ele>647</ele>
        <time>2019-06-25T10:07:16Z</time>
      </trkpt>
      <trkpt lat="44.32508" lon="5.87891">
        <ele>647</ele>
        <time>2019-06-25T10:07:17Z</time>
      </trkpt>
      <trkpt lat="44.32509" lon="5.87879">
        <ele>647</ele>
        <time>2019-06-25T10:07:18Z</time>
      </trkpt>
      <trkpt lat="44.3251" lon="5.87867">
        <ele>647</ele>
        <time>2019-06-25T10:07:19Z</time>
      </trkpt>
      <trkpt lat="44.32511" lon="5.87855">
        <ele>646</ele>
        <time>2019-06-25T10:07:20Z</time>
      </trkpt>
      <trkpt lat="44.32512" lon="5.87843">
        <ele>646</ele>
        <time>2019-06-25T10:07:21Z</time>
      </trkpt>
      <trkpt lat="44.32513" lon="5.8783">
        <ele>646</ele>
        <time>2019-06-25T10:07:22Z</time>
      </trkpt>
      <trkpt lat="44.32514" lon="5.87818">
        <ele>646</ele>
        <time>2019-06-25T10:07:23Z</time>
      </trkpt>
      <trkpt lat="44.32515" lon="5.87805">
        <ele>645</ele>
        <time>2019-06-25T10:07:24Z</time>
      </trkpt>
      <trkpt lat="44.32516" lon="5.87792">
        <ele>645</ele>
        <time>2019-06-25T10:07:25Z</time>
      </trkpt>
      <trkpt lat="44.32517" lon="5.87779">
        <ele>644</ele>
        <time>2019-06-25T10:07:26Z</time>
      </trkpt>
      <trkpt lat="44.32518" lon="5.87766">
        <ele>644</ele>
        <time>2019-06-25T10:07:27Z</time>
      </trkpt>
      <trkpt lat="44.32518" lon="5.87752">
        <ele>643</ele>
        <time>2019-06-25T10:07:28Z</time>
      </trkpt>
      <trkpt lat="44.32519" lon="5.87738">
        <ele>642</ele>
        <time>2019-06-25T10:07:29Z</time>
      </trkpt>
      <trkpt lat="44.3252" lon="5.87723">
        <ele>641</ele>
        <time>2019-06-25T10:07:30Z</time>
      </trkpt>
      <trkpt lat="44.32521" lon="5.87709">
        <ele>640</ele>
        <time>2019-06-25T10:07:31Z</time>
      </trkpt>
      <trkpt lat="44.32521" lon="5.87695">
        <ele>639</ele>
        <time>2019-06-25T10:07:32Z</time>
      </trkpt>
      <trkpt lat="44.32522" lon="5.8768">
        <ele>638</ele>
        <time>2019-06-25T10:07:33Z</time>
      </trkpt>
      <trkpt lat="44.32523" lon="5.87666">
        <ele>637</ele>
        <time>2019-06-25T10:07:34Z</time>
      </trkpt>
      <trkpt lat="44.32524" lon="5.87652">
        <ele>637</ele>
        <time>2019-06-25T10:07:35Z</time>
      </trkpt>
      <trkpt lat="44.32525" lon="5.87639">
        <ele>636</ele>
        <time>2019-06-25T10:07:36Z</time>
      </trkpt>
      <trkpt lat="44.32525" lon="5.87625">
        <ele>635</ele>
        <time>2019-06-25T10:07:37Z</time>
      </trkpt>
      <trkpt lat="44.32526" lon="5.87612">
        <ele>635</ele>
        <time>2019-06-25T10:07:38Z</time>
      </trkpt>
      <trkpt lat="44.32526" lon="5.87599">
        <ele>634</ele>
        <time>2019-06-25T10:07:39Z</time>
      </trkpt>
      <trkpt lat="44.32524" lon="5.87587">
        <ele>634</ele>
        <time>2019-06-25T10:07:40Z</time>
      </trkpt>
      <trkpt lat="44.32521" lon="5.87576">
        <ele>634</ele>
        <time>2019-06-25T10:07:41Z</time>
      </trkpt>
      <trkpt lat="44.32516" lon="5.87565">
        <ele>634</ele>
        <time>2019-06-25T10:07:42Z</time>
      </trkpt>
      <trkpt lat="44.3251" lon="5.87555">
        <ele>633</ele>
        <time>2019-06-25T10:07:43Z</time>
      </trkpt>
      <trkpt lat="44.32503" lon="5.87546">
        <ele>633</ele>
        <time>2019-06-25T10:07:44Z</time>
      </trkpt>
      <trkpt lat="44.32497" lon="5.87537">
        <ele>633</ele>
        <time>2019-06-25T10:07:45Z</time>
      </trkpt>
      <trkpt lat="44.32491" lon="5.87528">
        <ele>632</ele>
        <time>2019-06-25T10:07:46Z</time>
      </trkpt>
      <trkpt lat="44.32484" lon="5.87519">
        <ele>632</ele>
        <time>2019-06-25T10:07:47Z</time>
      </trkpt>
      <trkpt lat="44.32478" lon="5.8751">
        <ele>632</ele>
        <time>2019-06-25T10:07:48Z</time>
      </trkpt>
      <trkpt lat="44.32473" lon="5.87501">
        <ele>632</ele>
        <time>2019-06-25T10:07:49Z</time>
      </trkpt>
      <trkpt lat="44.32468" lon="5.87492">
        <ele>632</ele>
        <time>2019-06-25T10:07:50Z</time>
      </trkpt>
      <trkpt lat="44.32463" lon="5.87483">
        <ele>632</ele>
        <time>2019-06-25T10:07:51Z</time>
      </trkpt>
      <trkpt lat="44.32458" lon="5.87474">
        <ele>632</ele>
        <time>2019-06-25T10:07:52Z</time>
      </trkpt>
      <trkpt lat="44.32453" lon="5.87465">
        <ele>632</ele>
        <time>2019-06-25T10:07:53Z</time>
      </trkpt>
      <trkpt lat="44.32448" lon="5.87455">
        <ele>632</ele>
        <time>2019-06-25T10:07:54Z</time>
      </trkpt>
      <trkpt lat="44.32444" lon="5.87445">
        <ele>631</ele>
        <time>2019-06-25T10:07:55Z</time>
      </trkpt>
      <trkpt lat="44.32441" lon="5.87434">
        <ele>631</ele>
        <time>2019-06-25T10:07:56Z</time>
      </trkpt>
      <trkpt lat="44.32439" lon="5.87423">
        <ele>631</ele>
        <time>2019-06-25T10:07:57Z</time>
      </trkpt>
      <trkpt lat="44.32438" lon="5.87411">
        <ele>631</ele>
        <time>2019-06-25T10:07:58Z</time>
      </trkpt>
      <trkpt lat="44.32439" lon="5.87399">
        <ele>631</ele>
        <time>2019-06-25T10:07:59Z</time>
      </trkpt>
      <trkpt lat="44.32439" lon="5.87388">
        <ele>631</ele>
        <time>2019-06-25T10:08:00Z</time>
      </trkpt>
      <trkpt lat="44.32441" lon="5.87377">
        <ele>631</ele>
        <time>2019-06-25T10:08:01Z</time>
      </trkpt>
      <trkpt lat="44.32442" lon="5.87366">
        <ele>631</ele>
        <time>2019-06-25T10:08:02Z</time>
      </trkpt>
      <trkpt lat="44.32443" lon="5.87355">
        <ele>631</ele>
        <time>2019-06-25T10:08:03Z</time>
      </trkpt>
      <trkpt lat="44.32444" lon="5.87343">
        <ele>631</ele>
        <time>2019-06-25T10:08:04Z</time>
      </trkpt>
      <trkpt lat="44.32446" lon="5.87332">
        <ele>631</ele>
        <time>2019-06-25T10:08:05Z</time>
      </trkpt>
      <trkpt lat="44.32447" lon="5.87321">
        <ele>631</ele>
        <time>2019-06-25T10:08:06Z</time>
      </trkpt>
      <trkpt lat="44.32448" lon="5.8731">
        <ele>631</ele>
        <time>2019-06-25T10:08:07Z</time>
      </trkpt>
      <trkpt lat="44.32449" lon="5.87298">
        <ele>631</ele>
        <time>2019-06-25T10:08:08Z</time>
      </trkpt>
      <trkpt lat="44.3245" lon="5.87287">
        <ele>631</ele>
        <time>2019-06-25T10:08:09Z</time>
      </trkpt>
      <trkpt lat="44.32452" lon="5.87276">
        <ele>631</ele>
        <time>2019-06-25T10:08:10Z</time>
      </trkpt>
      <trkpt lat="44.32453" lon="5.87265">
        <ele>631</ele>
        <time>2019-06-25T10:08:11Z</time>
      </trkpt>
      <trkpt lat="44.32454" lon="5.87254">
        <ele>631</ele>
        <time>2019-06-25T10:08:12Z</time>
      </trkpt>
      <trkpt lat="44.32455" lon="5.87243">
        <ele>631</ele>
        <time>2019-06-25T10:08:13Z</time>
      </trkpt>
      <trkpt lat="44.32458" lon="5.87232">
        <ele>631</ele>
        <time>2019-06-25T10:08:14Z</time>
      </trkpt>
      <trkpt lat="44.32461" lon="5.87222">
        <ele>630</ele>
        <time>2019-06-25T10:08:15Z</time>
      </trkpt>
      <trkpt lat="44.32466" lon="5.87213">
        <ele>630</ele>
        <time>2019-06-25T10:08:16Z</time>
      </trkpt>
      <trkpt lat="44.32471" lon="5.87204">
        <ele>630</ele>
        <time>2019-06-25T10:08:17Z</time>
      </trkpt>
      <trkpt lat="44.32477" lon="5.87197">
        <ele>630</ele>
        <time>2019-06-25T10:08:18Z</time>
      </trkpt>
      <trkpt lat="44.32484" lon="5.87191">
        <ele>629</ele>
        <time>2019-06-25T10:08:19Z</time>
      </trkpt>
      <trkpt lat="44.3249" lon="5.87186">
        <ele>629</ele>
        <time>2019-06-25T10:08:20Z</time>
      </trkpt>
      <trkpt lat="44.32498" lon="5.87181">
        <ele>629</ele>
        <time>2019-06-25T10:08:21Z</time>
      </trkpt>
      <trkpt lat="44.32505" lon="5.87176">
        <ele>629</ele>
        <time>2019-06-25T10:08:22Z</time>
      </trkpt>
      <trkpt lat="44.32513" lon="5.87171">
        <ele>629</ele>
        <time>2019-06-25T10:08:23Z</time>
      </trkpt>
      <trkpt lat="44.32521" lon="5.87165">
        <ele>629</ele>
        <time>2019-06-25T10:08:24Z</time>
      </trkpt>
      <trkpt lat="44.32529" lon="5.8716">
        <ele>629</ele>
        <time>2019-06-25T10:08:25Z</time>
      </trkpt>
      <trkpt lat="44.32537" lon="5.87155">
        <ele>629</ele>
        <time>2019-06-25T10:08:26Z</time>
      </trkpt>
      <trkpt lat="44.32546" lon="5.87149">
        <ele>629</ele>
        <time>2019-06-25T10:08:27Z</time>
      </trkpt>
      <trkpt lat="44.32554" lon="5.87145">
        <ele>629</ele>
        <time>2019-06-25T10:08:28Z</time>
      </trkpt>
      <trkpt lat="44.32563" lon="5.87142">
        <ele>629</ele>
        <time>2019-06-25T10:08:29Z</time>
      </trkpt>
      <trkpt lat="44.32571" lon="5.87139">
        <ele>629</ele>
        <time>2019-06-25T10:08:30Z</time>
      </trkpt>
      <trkpt lat="44.3258" lon="5.87138">
        <ele>629</ele>
        <time>2019-06-25T10:08:31Z</time>
      </trkpt>
      <trkpt lat="44.32589" lon="5.87139">
        <ele>629</ele>
        <time>2019-06-25T10:08:32Z</time>
      </trkpt>
      <trkpt lat="44.32597" lon="5.8714">
        <ele>629</ele>
        <time>2019-06-25T10:08:33Z</time>
      </trkpt>
      <trkpt lat="44.32605" lon="5.87141">
        <ele>629</ele>
        <time>2019-06-25T10:08:34Z</time>
      </trkpt>
      <trkpt lat="44.32613" lon="5.87142">
        <ele>629</ele>
        <time>2019-06-25T10:08:35Z</time>
      </trkpt>
      <trkpt lat="44.32622" lon="5.87142">
        <ele>629</ele>
        <time>2019-06-25T10:08:36Z</time>
      </trkpt>
      <trkpt lat="44.3263" lon="5.87141">
        <ele>629</ele>
        <time>2019-06-25T10:08:37Z</time>
      </trkpt>
      <trkpt lat="44.32637" lon="5.87139">
        <ele>629</ele>
        <time>2019-06-25T10:08:38Z</time>
      </trkpt>
      <trkpt lat="44.32645" lon="5.87135">
        <ele>629</ele>
        <time>2019-06-25T10:08:39Z</time>
      </trkpt>
      <trkpt lat="44.32653" lon="5.87132">
        <ele>629</ele>
        <time>2019-06-25T10:08:40Z</time>
      </trkpt>
      <trkpt lat="44.32661" lon="5.87127">
        <ele>629</ele>
        <time>2019-06-25T10:08:41Z</time>
      </trkpt>
      <trkpt lat="44.32669" lon="5.87122">
        <ele>629</ele>
        <time>2019-06-25T10:08:42Z</time>
      </trkpt>
      <trkpt lat="44.32676" lon="5.87115">
        <ele>629</ele>
        <time>2019-06-25T10:08:43Z</time>
      </trkpt>
      <trkpt lat="44.32682" lon="5.87107">
        <ele>629</ele>
        <time>2019-06-25T10:08:44Z</time>
      </trkpt>
      <trkpt lat="44.32687" lon="5.87097">
        <ele>629</ele>
        <time>2019-06-25T10:08:45Z</time>
      </trkpt>
      <trkpt lat="44.32692" lon="5.87085">
        <ele>629</ele>
        <time>2019-06-25T10:08:46Z</time>
      </trkpt>
      <trkpt lat="44.32695" lon="5.87074">
        <ele>629</ele>
        <time>2019-06-25T10:08:47Z</time>
      </trkpt>
      <trkpt lat="44.32697" lon="5.87061">
        <ele>629</ele>
        <time>2019-06-25T10:08:48Z</time>
      </trkpt>
      <trkpt lat="44.32699" lon="5.87048">
        <ele>629</ele>
        <time>2019-06-25T10:08:49Z</time>
      </trkpt>
      <trkpt lat="44.32702" lon="5.87036">
        <ele>629</ele>
        <time>2019-06-25T10:08:50Z</time>
      </trkpt>
      <trkpt lat="44.32704" lon="5.87023">
        <ele>629</ele>
        <time>2019-06-25T10:08:51Z</time>
      </trkpt>
      <trkpt lat="44.32707" lon="5.8701">
        <ele>629</ele>
        <time>2019-06-25T10:08:52Z</time>
      </trkpt>
      <trkpt lat="44.32709" lon="5.86998">
        <ele>629</ele>
        <time>2019-06-25T10:08:53Z</time>
      </trkpt>
      <trkpt lat="44.32712" lon="5.86985">
        <ele>629</ele>
        <time>2019-06-25T10:08:54Z</time>
      </trkpt>
      <trkpt lat="44.32714" lon="5.86973">
        <ele>629</ele>
        <time>2019-06-25T10:08:55Z</time>
      </trkpt>
      <trkpt lat="44.32717" lon="5.86961">
        <ele>629</ele>
        <time>2019-06-25T10:08:56Z</time>
      </trkpt>
      <trkpt lat="44.32719" lon="5.86949">
        <ele>629</ele>
        <time>2019-06-25T10:08:57Z</time>
      </trkpt>
      <trkpt lat="44.32722" lon="5.86937">
        <ele>629</ele>
        <time>2019-06-25T10:08:58Z</time>
      </trkpt>
      <trkpt lat="44.32725" lon="5.86926">
        <ele>629</ele>
        <time>2019-06-25T10:08:59Z</time>
      </trkpt>
      <trkpt lat="44.32729" lon="5.86914">
        <ele>629</ele>
        <time>2019-06-25T10:09:00Z</time>
      </trkpt>
      <trkpt lat="44.32732" lon="5.86903">
        <ele>629</ele>
        <time>2019-06-25T10:09:01Z</time>
      </trkpt>
      <trkpt lat="44.32735" lon="5.86892">
        <ele>629</ele>
        <time>2019-06-25T10:09:02Z</time>
      </trkpt>
      <trkpt lat="44.32738" lon="5.86881">
        <ele>629</ele>
        <time>2019-06-25T10:09:03Z</time>
      </trkpt>
      <trkpt lat="44.32742" lon="5.8687">
        <ele>629</ele>
        <time>2019-06-25T10:09:04Z</time>
      </trkpt>
      <trkpt lat="44.32745" lon="5.86859">
        <ele>629</ele>
        <time>2019-06-25T10:09:05Z</time>
      </trkpt>
      <trkpt lat="44.32748" lon="5.86848">
        <ele>629</ele>
        <time>2019-06-25T10:09:06Z</time>
      </trkpt>
      <trkpt lat="44.32751" lon="5.86837">
        <ele>629</ele>
        <time>2019-06-25T10:09:07Z</time>
      </trkpt>
      <trkpt lat="44.32753" lon="5.86826">
        <ele>629</ele>
        <time>2019-06-25T10:09:08Z</time>
      </trkpt>
      <trkpt lat="44.32756" lon="5.86815">
        <ele>629</ele>
        <time>2019-06-25T10:09:09Z</time>
      </trkpt>
      <trkpt lat="44.32759" lon="5.86804">
        <ele>629</ele>
        <time>2019-06-25T10:09:10Z</time>
      </trkpt>
      <trkpt lat="44.32761" lon="5.86794">
        <ele>629</ele>
        <time>2019-06-25T10:09:11Z</time>
      </trkpt>
      <trkpt lat="44.32762" lon="5.86783">
        <ele>629</ele>
        <time>2019-06-25T10:09:12Z</time>
      </trkpt>
      <trkpt lat="44.32763" lon="5.86771">
        <ele>629</ele>
        <time>2019-06-25T10:09:13Z</time>
      </trkpt>
      <trkpt lat="44.32764" lon="5.8676">
        <ele>629</ele>
        <time>2019-06-25T10:09:14Z</time>
      </trkpt>
      <trkpt lat="44.32764" lon="5.86749">
        <ele>629</ele>
        <time>2019-06-25T10:09:15Z</time>
      </trkpt>
      <trkpt lat="44.32764" lon="5.86738">
        <ele>629</ele>
        <time>2019-06-25T10:09:16Z</time>
      </trkpt>
      <trkpt lat="44.32763" lon="5.86727">
        <ele>628</ele>
        <time>2019-06-25T10:09:17Z</time>
      </trkpt>
      <trkpt lat="44.32762" lon="5.86715">
        <ele>628</ele>
        <time>2019-06-25T10:09:18Z</time>
      </trkpt>
      <trkpt lat="44.32761" lon="5.86704">
        <ele>628</ele>
        <time>2019-06-25T10:09:19Z</time>
      </trkpt>
      <trkpt lat="44.3276" lon="5.86693">
        <ele>628</ele>
        <time>2019-06-25T10:09:20Z</time>
      </trkpt>
      <trkpt lat="44.32759" lon="5.86682">
        <ele>628</ele>
        <time>2019-06-25T10:09:21Z</time>
      </trkpt>
      <trkpt lat="44.32758" lon="5.86671">
        <ele>628</ele>
        <time>2019-06-25T10:09:22Z</time>
      </trkpt>
      <trkpt lat="44.32756" lon="5.8666">
        <ele>628</ele>
        <time>2019-06-25T10:09:23Z</time>
      </trkpt>
      <trkpt lat="44.32755" lon="5.86649">
        <ele>628</ele>
        <time>2019-06-25T10:09:24Z</time>
      </trkpt>
      <trkpt lat="44.32754" lon="5.86638">
        <ele>628</ele>
        <time>2019-06-25T10:09:25Z</time>
      </trkpt>
      <trkpt lat="44.32753" lon="5.86627">
        <ele>628</ele>
        <time>2019-06-25T10:09:26Z</time>
      </trkpt>
      <trkpt lat="44.32752" lon="5.86617">
        <ele>628</ele>
        <time>2019-06-25T10:09:27Z</time>
      </trkpt>
      <trkpt lat="44.32751" lon="5.86606">
        <ele>628</ele>
        <time>2019-06-25T10:09:28Z</time>
      </trkpt>
      <trkpt lat="44.3275" lon="5.86595">
        <ele>628</ele>
        <time>2019-06-25T10:09:29Z</time>
      </trkpt>
      <trkpt lat="44.3275" lon="5.86584">
        <ele>627</ele>
        <time>2019-06-25T10:09:30Z</time>
      </trkpt>
      <trkpt lat="44.32751" lon="5.86574">
        <ele>627</ele>
        <time>2019-06-25T10:09:31Z</time>
      </trkpt>
      <trkpt lat="44.32753" lon="5.86563">
        <ele>627</ele>
        <time>2019-06-25T10:09:32Z</time>
      </trkpt>
      <trkpt lat="44.32755" lon="5.86553">
        <ele>627</ele>
        <time>2019-06-25T10:09:33Z</time>
      </trkpt>
      <trkpt lat="44.32757" lon="5.86543">
        <ele>627</ele>
        <time>2019-06-25T10:09:34Z</time>
      </trkpt>
      <trkpt lat="44.32761" lon="5.86533">
        <ele>627</ele>
        <time>2019-06-25T10:09:35Z</time>
      </trkpt>
      <trkpt lat="44.32764" lon="5.86524">
        <ele>627</ele>
        <time>2019-06-25T10:09:36Z</time>
      </trkpt>
      <trkpt lat="44.32768" lon="5.86515">
        <ele>627</ele>
        <time>2019-06-25T10:09:37Z</time>
      </trkpt>
      <trkpt lat="44.32772" lon="5.86506">
        <ele>627</ele>
        <time>2019-06-25T10:09:38Z</time>
      </trkpt>
      <trkpt lat="44.32777" lon="5.86498">
        <ele>627</ele>
        <time>2019-06-25T10:09:39Z</time>
      </trkpt>
      <trkpt lat="44.32782" lon="5.8649">
        <ele>626</ele>
        <time>2019-06-25T10:09:40Z</time>
      </trkpt>
      <trkpt lat="44.32788" lon="5.86484">
        <ele>626</ele>
        <time>2019-06-25T10:09:41Z</time>
      </trkpt>
      <trkpt lat="44.32794" lon="5.86478">
        <ele>626</ele>
        <time>2019-06-25T10:09:42Z</time>
      </trkpt>
      <trkpt lat="44.328" lon="5.86473">
        <ele>626</ele>
        <time>2019-06-25T10:09:43Z</time>
      </trkpt>
      <trkpt lat="44.32807" lon="5.86468">
        <ele>625</ele>
        <time>2019-06-25T10:09:44Z</time>
      </trkpt>
      <trkpt lat="44.32813" lon="5.86464">
        <ele>625</ele>
        <time>2019-06-25T10:09:45Z</time>
      </trkpt>
      <trkpt lat="44.32819" lon="5.86459">
        <ele>625</ele>
        <time>2019-06-25T10:09:46Z</time>
      </trkpt>
      <trkpt lat="44.32825" lon="5.86453">
        <ele>625</ele>
        <time>2019-06-25T10:09:47Z</time>
      </trkpt>
      <trkpt lat="44.3283" lon="5.86447">
        <ele>624</ele>
        <time>2019-06-25T10:09:48Z</time>
      </trkpt>
      <trkpt lat="44.32835" lon="5.86439">
        <ele>624</ele>
        <time>2019-06-25T10:09:49Z</time>
      </trkpt>
      <trkpt lat="44.32839" lon="5.86431">
        <ele>624</ele>
        <time>2019-06-25T10:09:50Z</time>
      </trkpt>
      <trkpt lat="44.32841" lon="5.86421">
        <ele>624</ele>
        <time>2019-06-25T10:09:51Z</time>
      </trkpt>
      <trkpt lat="44.32843" lon="5.86411">
        <ele>623</ele>
        <time>2019-06-25T10:09:52Z</time>
      </trkpt>
      <trkpt lat="44.32844" lon="5.86401">
        <ele>623</ele>
        <time>2019-06-25T10:09:53Z</time>
      </trkpt>
      <trkpt lat="44.32845" lon="5.86391">
        <ele>623</ele>
        <time>2019-06-25T10:09:54Z</time>
      </trkpt>
      <trkpt lat="44.32846" lon="5.86381">
        <ele>623</ele>
        <time>2019-06-25T10:09:55Z</time>
      </trkpt>
      <trkpt lat="44.32846" lon="5.86372">
        <ele>623</ele>
        <time>2019-06-25T10:09:56Z</time>
      </trkpt>
      <trkpt lat="44.32847" lon="5.86362">
        <ele>623</ele>
        <time>2019-06-25T10:09:57Z</time>
      </trkpt>
      <trkpt lat="44.32848" lon="5.86352">
        <ele>623</ele>
        <time>2019-06-25T10:09:58Z</time>
      </trkpt>
      <trkpt lat="44.3285" lon="5.86342">
        <ele>623</ele>
        <time>2019-06-25T10:09:59Z</time>
      </trkpt>
      <trkpt lat="44.32852" lon="5.86333">
        <ele>623</ele>
        <time>2019-06-25T10:10:00Z</time>
      </trkpt>
      <trkpt lat="44.32855" lon="5.86324">
        <ele>623</ele>
        <time>2019-06-25T10:10:01Z</time>
      </trkpt>
      <trkpt lat="44.32858" lon="5.86316">
        <ele>623</ele>
        <time>2019-06-25T10:10:02Z</time>
      </trkpt>
      <trkpt lat="44.32862" lon="5.86308">
        <ele>623</ele>
        <time>2019-06-25T10:10:03Z</time>
      </trkpt>
      <trkpt lat="44.32866" lon="5.863">
        <ele>623</ele>
        <time>2019-06-25T10:10:04Z</time>
      </trkpt>
      <trkpt lat="44.3287" lon="5.86292">
        <ele>623</ele>
        <time>2019-06-25T10:10:05Z</time>
      </trkpt>
      <trkpt lat="44.32874" lon="5.86284">
        <ele>623</ele>
        <time>2019-06-25T10:10:06Z</time>
      </trkpt>
      <trkpt lat="44.32879" lon="5.86277">
        <ele>623</ele>
        <time>2019-06-25T10:10:07Z</time>
      </trkpt>
      <trkpt lat="44.32883" lon="5.8627">
        <ele>623</ele>
        <time>2019-06-25T10:10:08Z</time>
      </trkpt>
      <trkpt lat="44.32888" lon="5.86262">
        <ele>623</ele>
        <time>2019-06-25T10:10:09Z</time>
      </trkpt>
      <trkpt lat="44.32893" lon="5.86254">
        <ele>623</ele>
        <time>2019-06-25T10:10:10Z</time>
      </trkpt>
      <trkpt lat="44.32897" lon="5.86246">
        <ele>623</ele>
        <time>2019-06-25T10:10:11Z</time>
      </trkpt>
      <trkpt lat="44.32902" lon="5.86238">
        <ele>623</ele>
        <time>2019-06-25T10:10:12Z</time>
      </trkpt>
      <trkpt lat="44.32906" lon="5.8623">
        <ele>623</ele>
        <time>2019-06-25T10:10:13Z</time>
      </trkpt>
      <trkpt lat="44.32911" lon="5.86222">
        <ele>623</ele>
        <time>2019-06-25T10:10:14Z</time>
      </trkpt>
      <trkpt lat="44.32915" lon="5.86213">
        <ele>623</ele>
        <time>2019-06-25T10:10:15Z</time>
      </trkpt>
      <trkpt lat="44.3292" lon="5.86205">
        <ele>623</ele>
        <time>2019-06-25T10:10:16Z</time>
      </trkpt>
      <trkpt lat="44.32924" lon="5.86197">
        <ele>623</ele>
        <time>2019-06-25T10:10:17Z</time>
      </trkpt>
      <trkpt lat="44.32929" lon="5.86188">
        <ele>623</ele>
        <time>2019-06-25T10:10:18Z</time>
      </trkpt>
      <trkpt lat="44.32933" lon="5.8618">
        <ele>623</ele>
        <time>2019-06-25T10:10:19Z</time>
      </trkpt>
      <trkpt lat="44.32938" lon="5.86171">
        <ele>623</ele>
        <time>2019-06-25T10:10:20Z</time>
      </trkpt>
      <trkpt lat="44.32943" lon="5.86163">
        <ele>623</ele>
        <time>2019-06-25T10:10:21Z</time>
      </trkpt>
      <trkpt lat="44.32948" lon="5.86154">
        <ele>623</ele>
        <time>2019-06-25T10:10:22Z</time>
      </trkpt>
      <trkpt lat="44.32953" lon="5.86145">
        <ele>623</ele>
        <time>2019-06-25T10:10:23Z</time>
      </trkpt>
      <trkpt lat="44.32958" lon="5.86137">
        <ele>623</ele>
        <time>2019-06-25T10:10:24Z</time>
      </trkpt>
      <trkpt lat="44.32963" lon="5.86128">
        <ele>623</ele>
        <time>2019-06-25T10:10:25Z</time>
      </trkpt>
      <trkpt lat="44.32968" lon="5.8612">
        <ele>623</ele>
        <time>2019-06-25T10:10:26Z</time>
      </trkpt>
      <trkpt lat="44.32972" lon="5.86111">
        <ele>623</ele>
        <time>2019-06-25T10:10:27Z</time>
      </trkpt>
      <trkpt lat="44.32977" lon="5.86102">
        <ele>623</ele>
        <time>2019-06-25T10:10:28Z</time>
      </trkpt>
      <trkpt lat="44.32981" lon="5.86093">
        <ele>623</ele>
        <time>2019-06-25T10:10:29Z</time>
      </trkpt>
      <trkpt lat="44.32985" lon="5.86084">
        <ele>623</ele>
        <time>2019-06-25T10:10:30Z</time>
      </trkpt>
      <trkpt lat="44.32988" lon="5.86073">
        <ele>623</ele>
        <time>2019-06-25T10:10:31Z</time>
      </trkpt>
      <trkpt lat="44.32989" lon="5.86062">
        <ele>623</ele>
        <time>2019-06-25T10:10:32Z</time>
      </trkpt>
      <trkpt lat="44.32989" lon="5.86051">
        <ele>623</ele>
        <time>2019-06-25T10:10:33Z</time>
      </trkpt>
      <trkpt lat="44.32987" lon="5.86039">
        <ele>623</ele>
        <time>2019-06-25T10:10:34Z</time>
      </trkpt>
      <trkpt lat="44.32984" lon="5.86028">
        <ele>623</ele>
        <time>2019-06-25T10:10:35Z</time>
      </trkpt>
      <trkpt lat="44.32981" lon="5.86018">
        <ele>623</ele>
        <time>2019-06-25T10:10:36Z</time>
      </trkpt>
      <trkpt lat="44.32977" lon="5.86008">
        <ele>623</ele>
        <time>2019-06-25T10:10:37Z</time>
      </trkpt>
      <trkpt lat="44.32973" lon="5.85998">
        <ele>623</ele>
        <time>2019-06-25T10:10:38Z</time>
      </trkpt>
      <trkpt lat="44.32969" lon="5.85988">
        <ele>623</ele>
        <time>2019-06-25T10:10:39Z</time>
      </trkpt>
      <trkpt lat="44.32964" lon="5.85978">
        <ele>623</ele>
        <time>2019-06-25T10:10:40Z</time>
      </trkpt>
      <trkpt lat="44.3296" lon="5.85968">
        <ele>623</ele>
        <time>2019-06-25T10:10:41Z</time>
      </trkpt>
      <trkpt lat="44.32956" lon="5.85958">
        <ele>622</ele>
        <time>2019-06-25T10:10:42Z</time>
      </trkpt>
      <trkpt lat="44.32953" lon="5.85948">
        <ele>622</ele>
        <time>2019-06-25T10:10:43Z</time>
      </trkpt>
      <trkpt lat="44.32949" lon="5.85937">
        <ele>621</ele>
        <time>2019-06-25T10:10:44Z</time>
      </trkpt>
      <trkpt lat="44.32947" lon="5.85926">
        <ele>621</ele>
        <time>2019-06-25T10:10:45Z</time>
      </trkpt>
      <trkpt lat="44.32946" lon="5.85915">
        <ele>621</ele>
        <time>2019-06-25T10:10:46Z</time>
      </trkpt>
      <trkpt lat="44.32945" lon="5.85904">
        <ele>620</ele>
        <time>2019-06-25T10:10:47Z</time>
      </trkpt>
      <trkpt lat="44.32944" lon="5.85892">
        <ele>620</ele>
        <time>2019-06-25T10:10:48Z</time>
      </trkpt>
      <trkpt lat="44.32944" lon="5.8588">
        <ele>620</ele>
        <time>2019-06-25T10:10:49Z</time>
      </trkpt>
      <trkpt lat="44.32944" lon="5.85869">
        <ele>620</ele>
        <time>2019-06-25T10:10:50Z</time>
      </trkpt>
      <trkpt lat="44.32944" lon="5.85857">
        <ele>620</ele>
        <time>2019-06-25T10:10:51Z</time>
      </trkpt>
      <trkpt lat="44.32944" lon="5.85846">
        <ele>620</ele>
        <time>2019-06-25T10:10:52Z</time>
      </trkpt>
      <trkpt lat="44.32944" lon="5.85835">
        <ele>620</ele>
        <time>2019-06-25T10:10:53Z</time>
      </trkpt>
      <trkpt lat="44.32944" lon="5.85823">
        <ele>619</ele>
        <time>2019-06-25T10:10:54Z</time>
      </trkpt>
      <trkpt lat="44.32945" lon="5.85813">
        <ele>619</ele>
        <time>2019-06-25T10:10:55Z</time>
      </trkpt>
      <trkpt lat="44.32945" lon="5.85801">
        <ele>619</ele>
        <time>2019-06-25T10:10:56Z</time>
      </trkpt>
      <trkpt lat="44.32945" lon="5.8579">
        <ele>619</ele>
        <time>2019-06-25T10:10:57Z</time>
      </trkpt>
      <trkpt lat="44.32945" lon="5.85779">
        <ele>619</ele>
        <time>2019-06-25T10:10:58Z</time>
      </trkpt>
      <trkpt lat="44.32945" lon="5.85768">
        <ele>618</ele>
        <time>2019-06-25T10:10:59Z</time>
      </trkpt>
      <trkpt lat="44.32945" lon="5.85757">
        <ele>618</ele>
        <time>2019-06-25T10:11:00Z</time>
      </trkpt>
      <trkpt lat="44.32945" lon="5.85745">
        <ele>618</ele>
        <time>2019-06-25T10:11:01Z</time>
      </trkpt>
      <trkpt lat="44.32945" lon="5.85734">
        <ele>618</ele>
        <time>2019-06-25T10:11:02Z</time>
      </trkpt>
      <trkpt lat="44.32945" lon="5.85723">
        <ele>617</ele>
        <time>2019-06-25T10:11:03Z</time>
      </trkpt>
      <trkpt lat="44.32945" lon="5.85712">
        <ele>617</ele>
        <time>2019-06-25T10:11:04Z</time>
      </trkpt>
      <trkpt lat="44.32945" lon="5.85702">
        <ele>617</ele>
        <time>2019-06-25T10:11:05Z</time>
      </trkpt>
      <trkpt lat="44.32945" lon="5.85691">
        <ele>617</ele>
        <time>2019-06-25T10:11:06Z</time>
      </trkpt>
      <trkpt lat="44.32946" lon="5.8568">
        <ele>617</ele>
        <time>2019-06-25T10:11:07Z</time>
      </trkpt>
      <trkpt lat="44.32946" lon="5.85669">
        <ele>617</ele>
        <time>2019-06-25T10:11:08Z</time>
      </trkpt>
      <trkpt lat="44.32947" lon="5.85658">
        <ele>617</ele>
        <time>2019-06-25T10:11:09Z</time>
      </trkpt>
      <trkpt lat="44.32947" lon="5.85647">
        <ele>617</ele>
        <time>2019-06-25T10:11:10Z</time>
      </trkpt>
      <trkpt lat="44.32948" lon="5.85636">
        <ele>616</ele>
        <time>2019-06-25T10:11:11Z</time>
      </trkpt>
      <trkpt lat="44.32949" lon="5.85624">
        <ele>616</ele>
        <time>2019-06-25T10:11:12Z</time>
      </trkpt>
      <trkpt lat="44.32949" lon="5.85612">
        <ele>616</ele>
        <time>2019-06-25T10:11:13Z</time>
      </trkpt>
      <trkpt lat="44.3295" lon="5.85601">
        <ele>616</ele>
        <time>2019-06-25T10:11:14Z</time>
      </trkpt>
      <trkpt lat="44.3295" lon="5.85589">
        <ele>616</ele>
        <time>2019-06-25T10:11:15Z</time>
      </trkpt>
      <trkpt lat="44.32951" lon="5.85576">
        <ele>615</ele>
        <time>2019-06-25T10:11:16Z</time>
      </trkpt>
      <trkpt lat="44.32951" lon="5.85565">
        <ele>615</ele>
        <time>2019-06-25T10:11:17Z</time>
      </trkpt>
      <trkpt lat="44.32951" lon="5.85553">
        <ele>615</ele>
        <time>2019-06-25T10:11:18Z</time>
      </trkpt>
      <trkpt lat="44.32951" lon="5.85541">
        <ele>615</ele>
        <time>2019-06-25T10:11:19Z</time>
      </trkpt>
      <trkpt lat="44.32952" lon="5.85529">
        <ele>615</ele>
        <time>2019-06-25T10:11:20Z</time>
      </trkpt>
      <trkpt lat="44.32952" lon="5.85517">
        <ele>615</ele>
        <time>2019-06-25T10:11:21Z</time>
      </trkpt>
      <trkpt lat="44.32952" lon="5.85505">
        <ele>615</ele>
        <time>2019-06-25T10:11:22Z</time>
      </trkpt>
      <trkpt lat="44.32952" lon="5.85494">
        <ele>615</ele>
        <time>2019-06-25T10:11:23Z</time>
      </trkpt>
      <trkpt lat="44.32952" lon="5.85483">
        <ele>615</ele>
        <time>2019-06-25T10:11:24Z</time>
      </trkpt>
      <trkpt lat="44.32952" lon="5.85471">
        <ele>615</ele>
        <time>2019-06-25T10:11:25Z</time>
      </trkpt>
      <trkpt lat="44.32953" lon="5.8546">
        <ele>615</ele>
        <time>2019-06-25T10:11:26Z</time>
      </trkpt>
      <trkpt lat="44.32953" lon="5.85448">
        <ele>615</ele>
        <time>2019-06-25T10:11:27Z</time>
      </trkpt>
      <trkpt lat="44.32953" lon="5.85437">
        <ele>615</ele>
        <time>2019-06-25T10:11:28Z</time>
      </trkpt>
      <trkpt lat="44.32953" lon="5.85425">
        <ele>615</ele>
        <time>2019-06-25T10:11:29Z</time>
      </trkpt>
      <trkpt lat="44.32954" lon="5.85414">
        <ele>615</ele>
        <time>2019-06-25T10:11:30Z</time>
      </trkpt>
      <trkpt lat="44.32954" lon="5.85403">
        <ele>615</ele>
        <time>2019-06-25T10:11:31Z</time>
      </trkpt>
      <trkpt lat="44.32954" lon="5.85392">
        <ele>615</ele>
        <time>2019-06-25T10:11:32Z</time>
      </trkpt>
      <trkpt lat="44.32954" lon="5.85381">
        <ele>615</ele>
        <time>2019-06-25T10:11:33Z</time>
      </trkpt>
      <trkpt lat="44.32954" lon="5.8537">
        <ele>615</ele>
        <time>2019-06-25T10:11:34Z</time>
      </trkpt>
      <trkpt lat="44.32954" lon="5.85358">
        <ele>615</ele>
        <time>2019-06-25T10:11:35Z</time>
      </trkpt>
      <trkpt lat="44.32954" lon="5.85347">
        <ele>615</ele>
        <time>2019-06-25T10:11:36Z</time>
      </trkpt>
      <trkpt lat="44.32954" lon="5.85336">
        <ele>615</ele>
        <time>2019-06-25T10:11:37Z</time>
      </trkpt>
      <trkpt lat="44.32954" lon="5.85325">
        <ele>615</ele>
        <time>2019-06-25T10:11:38Z</time>
      </trkpt>
      <trkpt lat="44.32954" lon="5.85314">
        <ele>615</ele>
        <time>2019-06-25T10:11:39Z</time>
      </trkpt>
      <trkpt lat="44.32954" lon="5.85303">
        <ele>615</ele>
        <time>2019-06-25T10:11:40Z</time>
      </trkpt>
      <trkpt lat="44.32954" lon="5.85292">
        <ele>614</ele>
        <time>2019-06-25T10:11:41Z</time>
      </trkpt>
      <trkpt lat="44.32954" lon="5.85281">
        <ele>614</ele>
        <time>2019-06-25T10:11:42Z</time>
      </trkpt>
      <trkpt lat="44.32954" lon="5.85271">
        <ele>614</ele>
        <time>2019-06-25T10:11:43Z</time>
      </trkpt>
      <trkpt lat="44.32954" lon="5.85261">
        <ele>614</ele>
        <time>2019-06-25T10:11:44Z</time>
      </trkpt>
      <trkpt lat="44.32954" lon="5.85251">
        <ele>614</ele>
        <time>2019-06-25T10:11:45Z</time>
      </trkpt>
      <trkpt lat="44.32955" lon="5.85241">
        <ele>614</ele>
        <time>2019-06-25T10:11:46Z</time>
      </trkpt>
      <trkpt lat="44.32955" lon="5.85231">
        <ele>614</ele>
        <time>2019-06-25T10:11:47Z</time>
      </trkpt>
      <trkpt lat="44.32955" lon="5.85222">
        <ele>614</ele>
        <time>2019-06-25T10:11:48Z</time>
      </trkpt>
      <trkpt lat="44.32955" lon="5.85213">
        <ele>614</ele>
        <time>2019-06-25T10:11:49Z</time>
      </trkpt>
      <trkpt lat="44.32954" lon="5.85203">
        <ele>614</ele>
        <time>2019-06-25T10:11:50Z</time>
      </trkpt>
      <trkpt lat="44.32954" lon="5.85193">
        <ele>614</ele>
        <time>2019-06-25T10:11:51Z</time>
      </trkpt>
      <trkpt lat="44.32954" lon="5.85183">
        <ele>614</ele>
        <time>2019-06-25T10:11:52Z</time>
      </trkpt>
      <trkpt lat="44.32954" lon="5.85174">
        <ele>614</ele>
        <time>2019-06-25T10:11:53Z</time>
      </trkpt>
      <trkpt lat="44.32954" lon="5.85164">
        <ele>614</ele>
        <time>2019-06-25T10:11:54Z</time>
      </trkpt>
      <trkpt lat="44.32954" lon="5.85154">
        <ele>614</ele>
        <time>2019-06-25T10:11:55Z</time>
      </trkpt>
      <trkpt lat="44.32953" lon="5.85145">
        <ele>614</ele>
        <time>2019-06-25T10:11:56Z</time>
      </trkpt>
      <trkpt lat="44.32952" lon="5.85135">
        <ele>614</ele>
        <time>2019-06-25T10:11:57Z</time>
      </trkpt>
      <trkpt lat="44.32951" lon="5.85126">
        <ele>614</ele>
        <time>2019-06-25T10:11:58Z</time>
      </trkpt>
      <trkpt lat="44.32949" lon="5.85116">
        <ele>614</ele>
        <time>2019-06-25T10:11:59Z</time>
      </trkpt>
      <trkpt lat="44.32946" lon="5.85107">
        <ele>614</ele>
        <time>2019-06-25T10:12:00Z</time>
      </trkpt>
      <trkpt lat="44.32943" lon="5.85098">
        <ele>614</ele>
        <time>2019-06-25T10:12:01Z</time>
      </trkpt>
      <trkpt lat="44.32939" lon="5.85089">
        <ele>614</ele>
        <time>2019-06-25T10:12:02Z</time>
      </trkpt>
      <trkpt lat="44.32935" lon="5.85081">
        <ele>614</ele>
        <time>2019-06-25T10:12:03Z</time>
      </trkpt>
      <trkpt lat="44.3293" lon="5.85073">
        <ele>614</ele>
        <time>2019-06-25T10:12:04Z</time>
      </trkpt>
      <trkpt lat="44.32926" lon="5.85066">
        <ele>614</ele>
        <time>2019-06-25T10:12:05Z</time>
      </trkpt>
      <trkpt lat="44.32921" lon="5.85058">
        <ele>614</ele>
        <time>2019-06-25T10:12:06Z</time>
      </trkpt>
      <trkpt lat="44.32916" lon="5.85051">
        <ele>614</ele>
        <time>2019-06-25T10:12:07Z</time>
      </trkpt>
      <trkpt lat="44.32911" lon="5.85044">
        <ele>614</ele>
        <time>2019-06-25T10:12:08Z</time>
      </trkpt>
      <trkpt lat="44.32906" lon="5.85037">
        <ele>614</ele>
        <time>2019-06-25T10:12:09Z</time>
      </trkpt>
      <trkpt lat="44.32901" lon="5.8503">
        <ele>614</ele>
        <time>2019-06-25T10:12:10Z</time>
      </trkpt>
      <trkpt lat="44.32895" lon="5.85024">
        <ele>614</ele>
        <time>2019-06-25T10:12:11Z</time>
      </trkpt>
      <trkpt lat="44.3289" lon="5.85018">
        <ele>614</ele>
        <time>2019-06-25T10:12:12Z</time>
      </trkpt>
      <trkpt lat="44.32883" lon="5.85014">
        <ele>614</ele>
        <time>2019-06-25T10:12:13Z</time>
      </trkpt>
      <trkpt lat="44.32877" lon="5.8501">
        <ele>614</ele>
        <time>2019-06-25T10:12:14Z</time>
      </trkpt>
      <trkpt lat="44.3287" lon="5.85008">
        <ele>614</ele>
        <time>2019-06-25T10:12:15Z</time>
      </trkpt>
      <trkpt lat="44.32863" lon="5.85007">
        <ele>614</ele>
        <time>2019-06-25T10:12:16Z</time>
      </trkpt>
      <trkpt lat="44.32857" lon="5.85008">
        <ele>614</ele>
        <time>2019-06-25T10:12:17Z</time>
      </trkpt>
      <trkpt lat="44.3285" lon="5.8501">
        <ele>614</ele>
        <time>2019-06-25T10:12:18Z</time>
      </trkpt>
      <trkpt lat="44.32843" lon="5.85013">
        <ele>614</ele>
        <time>2019-06-25T10:12:19Z</time>
      </trkpt>
      <trkpt lat="44.32837" lon="5.85016">
        <ele>614</ele>
        <time>2019-06-25T10:12:20Z</time>
      </trkpt>
      <trkpt lat="44.3283" lon="5.85018">
        <ele>614</ele>
        <time>2019-06-25T10:12:21Z</time>
      </trkpt>
      <trkpt lat="44.32823" lon="5.85021">
        <ele>614</ele>
        <time>2019-06-25T10:12:22Z</time>
      </trkpt>
      <trkpt lat="44.32816" lon="5.85023">
        <ele>614</ele>
        <time>2019-06-25T10:12:23Z</time>
      </trkpt>
      <trkpt lat="44.32809" lon="5.85025">
        <ele>614</ele>
        <time>2019-06-25T10:12:24Z</time>
      </trkpt>
      <trkpt lat="44.32801" lon="5.85026">
        <ele>613</ele>
        <time>2019-06-25T10:12:25Z</time>
      </trkpt>
      <trkpt lat="44.32793" lon="5.85025">
        <ele>613</ele>
        <time>2019-06-25T10:12:26Z</time>
      </trkpt>
      <trkpt lat="44.32786" lon="5.85021">
        <ele>613</ele>
        <time>2019-06-25T10:12:27Z</time>
      </trkpt>
      <trkpt lat="44.32779" lon="5.85016">
        <ele>612</ele>
        <time>2019-06-25T10:12:28Z</time>
      </trkpt>
      <trkpt lat="44.32772" lon="5.85008">
        <ele>612</ele>
        <time>2019-06-25T10:12:29Z</time>
      </trkpt>
      <trkpt lat="44.32767" lon="5.84999">
        <ele>611</ele>
        <time>2019-06-25T10:12:30Z</time>
      </trkpt>
      <trkpt lat="44.32764" lon="5.84988">
        <ele>611</ele>
        <time>2019-06-25T10:12:31Z</time>
      </trkpt>
      <trkpt lat="44.32761" lon="5.84976">
        <ele>610</ele>
        <time>2019-06-25T10:12:32Z</time>
      </trkpt>
      <trkpt lat="44.32759" lon="5.84963">
        <ele>610</ele>
        <time>2019-06-25T10:12:33Z</time>
      </trkpt>
      <trkpt lat="44.32758" lon="5.8495">
        <ele>609</ele>
        <time>2019-06-25T10:12:34Z</time>
      </trkpt>
      <trkpt lat="44.32758" lon="5.84937">
        <ele>609</ele>
        <time>2019-06-25T10:12:35Z</time>
      </trkpt>
      <trkpt lat="44.32757" lon="5.84924">
        <ele>608</ele>
        <time>2019-06-25T10:12:36Z</time>
      </trkpt>
      <trkpt lat="44.32758" lon="5.84911">
        <ele>608</ele>
        <time>2019-06-25T10:12:37Z</time>
      </trkpt>
      <trkpt lat="44.32758" lon="5.84898">
        <ele>607</ele>
        <time>2019-06-25T10:12:38Z</time>
      </trkpt>
      <trkpt lat="44.32757" lon="5.84885">
        <ele>607</ele>
        <time>2019-06-25T10:12:39Z</time>
      </trkpt>
      <trkpt lat="44.32757" lon="5.84872">
        <ele>606</ele>
        <time>2019-06-25T10:12:40Z</time>
      </trkpt>
      <trkpt lat="44.32756" lon="5.84859">
        <ele>606</ele>
        <time>2019-06-25T10:12:41Z</time>
      </trkpt>
      <trkpt lat="44.32757" lon="5.84846">
        <ele>605</ele>
        <time>2019-06-25T10:12:42Z</time>
      </trkpt>
      <trkpt lat="44.32757" lon="5.84833">
        <ele>605</ele>
        <time>2019-06-25T10:12:43Z</time>
      </trkpt>
      <trkpt lat="44.32757" lon="5.84821">
        <ele>604</ele>
        <time>2019-06-25T10:12:44Z</time>
      </trkpt>
      <trkpt lat="44.32756" lon="5.84807">
        <ele>604</ele>
        <time>2019-06-25T10:12:45Z</time>
      </trkpt>
      <trkpt lat="44.32756" lon="5.84795">
        <ele>604</ele>
        <time>2019-06-25T10:12:46Z</time>
      </trkpt>
      <trkpt lat="44.32756" lon="5.84782">
        <ele>604</ele>
        <time>2019-06-25T10:12:47Z</time>
      </trkpt>
      <trkpt lat="44.32755" lon="5.84769">
        <ele>604</ele>
        <time>2019-06-25T10:12:48Z</time>
      </trkpt>
      <trkpt lat="44.32755" lon="5.84757">
        <ele>604</ele>
        <time>2019-06-25T10:12:49Z</time>
      </trkpt>
      <trkpt lat="44.32754" lon="5.84744">
        <ele>604</ele>
        <time>2019-06-25T10:12:50Z</time>
      </trkpt>
      <trkpt lat="44.32754" lon="5.84731">
        <ele>604</ele>
        <time>2019-06-25T10:12:51Z</time>
      </trkpt>
      <trkpt lat="44.32753" lon="5.84719">
        <ele>604</ele>
        <time>2019-06-25T10:12:52Z</time>
      </trkpt>
      <trkpt lat="44.32753" lon="5.84706">
        <ele>604</ele>
        <time>2019-06-25T10:12:53Z</time>
      </trkpt>
      <trkpt lat="44.32754" lon="5.84693">
        <ele>604</ele>
        <time>2019-06-25T10:12:54Z</time>
      </trkpt>
      <trkpt lat="44.32755" lon="5.84681">
        <ele>604</ele>
        <time>2019-06-25T10:12:55Z</time>
      </trkpt>
      <trkpt lat="44.32756" lon="5.84668">
        <ele>604</ele>
        <time>2019-06-25T10:12:56Z</time>
      </trkpt>
      <trkpt lat="44.32758" lon="5.84655">
        <ele>604</ele>
        <time>2019-06-25T10:12:57Z</time>
      </trkpt>
      <trkpt lat="44.32761" lon="5.84643">
        <ele>604</ele>
        <time>2019-06-25T10:12:58Z</time>
      </trkpt>
      <trkpt lat="44.32764" lon="5.8463">
        <ele>604</ele>
        <time>2019-06-25T10:12:59Z</time>
      </trkpt>
      <trkpt lat="44.32767" lon="5.84618">
        <ele>604</ele>
        <time>2019-06-25T10:13:00Z</time>
      </trkpt>
      <trkpt lat="44.3277" lon="5.84607">
        <ele>604</ele>
        <time>2019-06-25T10:13:01Z</time>
      </trkpt>
      <trkpt lat="44.32773" lon="5.84594">
        <ele>603</ele>
        <time>2019-06-25T10:13:02Z</time>
      </trkpt>
      <trkpt lat="44.32776" lon="5.84582">
        <ele>603</ele>
        <time>2019-06-25T10:13:03Z</time>
      </trkpt>
      <trkpt lat="44.32779" lon="5.8457">
        <ele>602</ele>
        <time>2019-06-25T10:13:04Z</time>
      </trkpt>
      <trkpt lat="44.32782" lon="5.84558">
        <ele>602</ele>
        <time>2019-06-25T10:13:05Z</time>
      </trkpt>
      <trkpt lat="44.32785" lon="5.84546">
        <ele>602</ele>
        <time>2019-06-25T10:13:06Z</time>
      </trkpt>
      <trkpt lat="44.32788" lon="5.84534">
        <ele>601</ele>
        <time>2019-06-25T10:13:07Z</time>
      </trkpt>
      <trkpt lat="44.32791" lon="5.84521">
        <ele>601</ele>
        <time>2019-06-25T10:13:08Z</time>
      </trkpt>
      <trkpt lat="44.32795" lon="5.84509">
        <ele>601</ele>
        <time>2019-06-25T10:13:09Z</time>
      </trkpt>
      <trkpt lat="44.32798" lon="5.84497">
        <ele>600</ele>
        <time>2019-06-25T10:13:10Z</time>
      </trkpt>
      <trkpt lat="44.32801" lon="5.84484">
        <ele>600</ele>
        <time>2019-06-25T10:13:11Z</time>
      </trkpt>
      <trkpt lat="44.32804" lon="5.84471">
        <ele>600</ele>
        <time>2019-06-25T10:13:12Z</time>
      </trkpt>
      <trkpt lat="44.32806" lon="5.84458">
        <ele>600</ele>
        <time>2019-06-25T10:13:13Z</time>
      </trkpt>
      <trkpt lat="44.32807" lon="5.84444">
        <ele>599</ele>
        <time>2019-06-25T10:13:14Z</time>
      </trkpt>
      <trkpt lat="44.32807" lon="5.8443">
        <ele>599</ele>
        <time>2019-06-25T10:13:15Z</time>
      </trkpt>
      <trkpt lat="44.32806" lon="5.84415">
        <ele>599</ele>
        <time>2019-06-25T10:13:16Z</time>
      </trkpt>
      <trkpt lat="44.32804" lon="5.844">
        <ele>598</ele>
        <time>2019-06-25T10:13:17Z</time>
      </trkpt>
      <trkpt lat="44.32803" lon="5.84385">
        <ele>598</ele>
        <time>2019-06-25T10:13:18Z</time>
      </trkpt>
      <trkpt lat="44.32801" lon="5.8437">
        <ele>597</ele>
        <time>2019-06-25T10:13:19Z</time>
      </trkpt>
      <trkpt lat="44.32799" lon="5.84354">
        <ele>597</ele>
        <time>2019-06-25T10:13:20Z</time>
      </trkpt>
      <trkpt lat="44.32796" lon="5.84339">
        <ele>596</ele>
        <time>2019-06-25T10:13:21Z</time>
      </trkpt>
      <trkpt lat="44.32795" lon="5.84323">
        <ele>596</ele>
        <time>2019-06-25T10:13:22Z</time>
      </trkpt>
      <trkpt lat="44.32793" lon="5.84306">
        <ele>595</ele>
        <time>2019-06-25T10:13:23Z</time>
      </trkpt>
      <trkpt lat="44.32791" lon="5.84291">
        <ele>594</ele>
        <time>2019-06-25T10:13:24Z</time>
      </trkpt>
      <trkpt lat="44.32789" lon="5.84274">
        <ele>594</ele>
        <time>2019-06-25T10:13:25Z</time>
      </trkpt>
      <trkpt lat="44.32787" lon="5.84259">
        <ele>593</ele>
        <time>2019-06-25T10:13:26Z</time>
      </trkpt>
      <trkpt lat="44.32785" lon="5.84242">
        <ele>593</ele>
        <time>2019-06-25T10:13:27Z</time>
      </trkpt>
      <trkpt lat="44.32782" lon="5.84227">
        <ele>592</ele>
        <time>2019-06-25T10:13:28Z</time>
      </trkpt>
      <trkpt lat="44.3278" lon="5.8421">
        <ele>592</ele>
        <time>2019-06-25T10:13:29Z</time>
      </trkpt>
      <trkpt lat="44.32778" lon="5.84194">
        <ele>591</ele>
        <time>2019-06-25T10:13:30Z</time>
      </trkpt>
      <trkpt lat="44.32776" lon="5.84178">
        <ele>591</ele>
        <time>2019-06-25T10:13:31Z</time>
      </trkpt>
      <trkpt lat="44.32774" lon="5.84162">
        <ele>590</ele>
        <time>2019-06-25T10:13:32Z</time>
      </trkpt>
      <trkpt lat="44.32772" lon="5.84146">
        <ele>590</ele>
        <time>2019-06-25T10:13:33Z</time>
      </trkpt>
      <trkpt lat="44.3277" lon="5.84131">
        <ele>590</ele>
        <time>2019-06-25T10:13:34Z</time>
      </trkpt>
      <trkpt lat="44.32768" lon="5.84116">
        <ele>589</ele>
        <time>2019-06-25T10:13:35Z</time>
      </trkpt>
      <trkpt lat="44.32766" lon="5.841">
        <ele>589</ele>
        <time>2019-06-25T10:13:36Z</time>
      </trkpt>
      <trkpt lat="44.32764" lon="5.84086">
        <ele>589</ele>
        <time>2019-06-25T10:13:37Z</time>
      </trkpt>
      <trkpt lat="44.32761" lon="5.84071">
        <ele>588</ele>
        <time>2019-06-25T10:13:38Z</time>
      </trkpt>
      <trkpt lat="44.32757" lon="5.84058">
        <ele>588</ele>
        <time>2019-06-25T10:13:39Z</time>
      </trkpt>
      <trkpt lat="44.32752" lon="5.84047">
        <ele>588</ele>
        <time>2019-06-25T10:13:40Z</time>
      </trkpt>
      <trkpt lat="44.32745" lon="5.84036">
        <ele>588</ele>
        <time>2019-06-25T10:13:41Z</time>
      </trkpt>
      <trkpt lat="44.32738" lon="5.84025">
        <ele>588</ele>
        <time>2019-06-25T10:13:42Z</time>
      </trkpt>
      <trkpt lat="44.32732" lon="5.84015">
        <ele>587</ele>
        <time>2019-06-25T10:13:43Z</time>
      </trkpt>
      <trkpt lat="44.32725" lon="5.84005">
        <ele>587</ele>
        <time>2019-06-25T10:13:44Z</time>
      </trkpt>
      <trkpt lat="44.32719" lon="5.83994">
        <ele>587</ele>
        <time>2019-06-25T10:13:45Z</time>
      </trkpt>
      <trkpt lat="44.32714" lon="5.83983">
        <ele>587</ele>
        <time>2019-06-25T10:13:46Z</time>
      </trkpt>
      <trkpt lat="44.32709" lon="5.83971">
        <ele>586</ele>
        <time>2019-06-25T10:13:47Z</time>
      </trkpt>
      <trkpt lat="44.32706" lon="5.83959">
        <ele>586</ele>
        <time>2019-06-25T10:13:48Z</time>
      </trkpt>
      <trkpt lat="44.32703" lon="5.83947">
        <ele>586</ele>
        <time>2019-06-25T10:13:49Z</time>
      </trkpt>
      <trkpt lat="44.32701" lon="5.83934">
        <ele>586</ele>
        <time>2019-06-25T10:13:50Z</time>
      </trkpt>
      <trkpt lat="44.327" lon="5.83922">
        <ele>586</ele>
        <time>2019-06-25T10:13:51Z</time>
      </trkpt>
      <trkpt lat="44.32699" lon="5.8391">
        <ele>586</ele>
        <time>2019-06-25T10:13:52Z</time>
      </trkpt>
      <trkpt lat="44.32698" lon="5.83898">
        <ele>586</ele>
        <time>2019-06-25T10:13:53Z</time>
      </trkpt>
      <trkpt lat="44.32698" lon="5.83886">
        <ele>586</ele>
        <time>2019-06-25T10:13:54Z</time>
      </trkpt>
      <trkpt lat="44.32697" lon="5.83874">
        <ele>586</ele>
        <time>2019-06-25T10:13:55Z</time>
      </trkpt>
      <trkpt lat="44.32695" lon="5.83862">
        <ele>586</ele>
        <time>2019-06-25T10:13:56Z</time>
      </trkpt>
      <trkpt lat="44.32693" lon="5.83851">
        <ele>586</ele>
        <time>2019-06-25T10:13:57Z</time>
      </trkpt>
      <trkpt lat="44.32691" lon="5.83839">
        <ele>586</ele>
        <time>2019-06-25T10:13:58Z</time>
      </trkpt>
      <trkpt lat="44.32689" lon="5.83828">
        <ele>586</ele>
        <time>2019-06-25T10:13:59Z</time>
      </trkpt>
      <trkpt lat="44.32685" lon="5.83816">
        <ele>586</ele>
        <time>2019-06-25T10:14:00Z</time>
      </trkpt>
      <trkpt lat="44.32683" lon="5.83805">
        <ele>586</ele>
        <time>2019-06-25T10:14:01Z</time>
      </trkpt>
      <trkpt lat="44.3268" lon="5.83794">
        <ele>586</ele>
        <time>2019-06-25T10:14:02Z</time>
      </trkpt>
      <trkpt lat="44.32677" lon="5.83782">
        <ele>586</ele>
        <time>2019-06-25T10:14:03Z</time>
      </trkpt>
      <trkpt lat="44.32674" lon="5.83771">
        <ele>586</ele>
        <time>2019-06-25T10:14:04Z</time>
      </trkpt>
      <trkpt lat="44.32671" lon="5.8376">
        <ele>586</ele>
        <time>2019-06-25T10:14:05Z</time>
      </trkpt>
      <trkpt lat="44.32668" lon="5.83749">
        <ele>586</ele>
        <time>2019-06-25T10:14:06Z</time>
      </trkpt>
      <trkpt lat="44.32666" lon="5.83738">
        <ele>586</ele>
        <time>2019-06-25T10:14:07Z</time>
      </trkpt>
      <trkpt lat="44.32663" lon="5.83727">
        <ele>586</ele>
        <time>2019-06-25T10:14:08Z</time>
      </trkpt>
      <trkpt lat="44.3266" lon="5.83716">
        <ele>586</ele>
        <time>2019-06-25T10:14:09Z</time>
      </trkpt>
      <trkpt lat="44.32657" lon="5.83706">
        <ele>586</ele>
        <time>2019-06-25T10:14:10Z</time>
      </trkpt>
      <trkpt lat="44.32655" lon="5.83696">
        <ele>586</ele>
        <time>2019-06-25T10:14:11Z</time>
      </trkpt>
      <trkpt lat="44.32652" lon="5.83685">
        <ele>586</ele>
        <time>2019-06-25T10:14:12Z</time>
      </trkpt>
      <trkpt lat="44.32649" lon="5.83675">
        <ele>586</ele>
        <time>2019-06-25T10:14:13Z</time>
      </trkpt>
      <trkpt lat="44.32647" lon="5.83666">
        <ele>586</ele>
        <time>2019-06-25T10:14:14Z</time>
      </trkpt>
      <trkpt lat="44.32644" lon="5.83656">
        <ele>586</ele>
        <time>2019-06-25T10:14:15Z</time>
      </trkpt>
      <trkpt lat="44.32642" lon="5.83646">
        <ele>586</ele>
        <time>2019-06-25T10:14:16Z</time>
      </trkpt>
      <trkpt lat="44.32639" lon="5.83636">
        <ele>586</ele>
        <time>2019-06-25T10:14:17Z</time>
      </trkpt>
      <trkpt lat="44.32637" lon="5.83626">
        <ele>586</ele>
        <time>2019-06-25T10:14:18Z</time>
      </trkpt>
      <trkpt lat="44.32635" lon="5.83616">
        <ele>586</ele>
        <time>2019-06-25T10:14:19Z</time>
      </trkpt>
      <trkpt lat="44.32633" lon="5.83606">
        <ele>586</ele>
        <time>2019-06-25T10:14:20Z</time>
      </trkpt>
      <trkpt lat="44.32631" lon="5.83596">
        <ele>586</ele>
        <time>2019-06-25T10:14:21Z</time>
      </trkpt>
      <trkpt lat="44.32629" lon="5.83586">
        <ele>586</ele>
        <time>2019-06-25T10:14:22Z</time>
      </trkpt>
      <trkpt lat="44.32629" lon="5.83575">
        <ele>586</ele>
        <time>2019-06-25T10:14:23Z</time>
      </trkpt>
      <trkpt lat="44.32629" lon="5.83565">
        <ele>586</ele>
        <time>2019-06-25T10:14:24Z</time>
      </trkpt>
      <trkpt lat="44.32629" lon="5.83555">
        <ele>586</ele>
        <time>2019-06-25T10:14:25Z</time>
      </trkpt>
      <trkpt lat="44.32629" lon="5.83545">
        <ele>586</ele>
        <time>2019-06-25T10:14:26Z</time>
      </trkpt>
      <trkpt lat="44.32629" lon="5.83535">
        <ele>586</ele>
        <time>2019-06-25T10:14:27Z</time>
      </trkpt>
      <trkpt lat="44.3263" lon="5.83525">
        <ele>586</ele>
        <time>2019-06-25T10:14:28Z</time>
      </trkpt>
      <trkpt lat="44.32631" lon="5.83516">
        <ele>586</ele>
        <time>2019-06-25T10:14:29Z</time>
      </trkpt>
      <trkpt lat="44.32632" lon="5.83506">
        <ele>586</ele>
        <time>2019-06-25T10:14:30Z</time>
      </trkpt>
      <trkpt lat="44.32632" lon="5.83497">
        <ele>586</ele>
        <time>2019-06-25T10:14:31Z</time>
      </trkpt>
      <trkpt lat="44.32633" lon="5.83487">
        <ele>586</ele>
        <time>2019-06-25T10:14:32Z</time>
      </trkpt>
      <trkpt lat="44.32635" lon="5.83478">
        <ele>586</ele>
        <time>2019-06-25T10:14:33Z</time>
      </trkpt>
      <trkpt lat="44.32636" lon="5.8347">
        <ele>586</ele>
        <time>2019-06-25T10:14:34Z</time>
      </trkpt>
      <trkpt lat="44.32638" lon="5.83461">
        <ele>586</ele>
        <time>2019-06-25T10:14:35Z</time>
      </trkpt>
      <trkpt lat="44.32639" lon="5.83453">
        <ele>586</ele>
        <time>2019-06-25T10:14:36Z</time>
      </trkpt>
      <trkpt lat="44.32641" lon="5.83444">
        <ele>586</ele>
        <time>2019-06-25T10:14:37Z</time>
      </trkpt>
      <trkpt lat="44.32642" lon="5.83435">
        <ele>586</ele>
        <time>2019-06-25T10:14:38Z</time>
      </trkpt>
      <trkpt lat="44.32643" lon="5.83426">
        <ele>586</ele>
        <time>2019-06-25T10:14:39Z</time>
      </trkpt>
      <trkpt lat="44.32645" lon="5.83418">
        <ele>586</ele>
        <time>2019-06-25T10:14:40Z</time>
      </trkpt>
      <trkpt lat="44.32646" lon="5.83408">
        <ele>586</ele>
        <time>2019-06-25T10:14:41Z</time>
      </trkpt>
      <trkpt lat="44.32647" lon="5.83399">
        <ele>586</ele>
        <time>2019-06-25T10:14:42Z</time>
      </trkpt>
      <trkpt lat="44.32648" lon="5.8339">
        <ele>586</ele>
        <time>2019-06-25T10:14:43Z</time>
      </trkpt>
      <trkpt lat="44.3265" lon="5.83381">
        <ele>586</ele>
        <time>2019-06-25T10:14:44Z</time>
      </trkpt>
      <trkpt lat="44.32651" lon="5.83372">
        <ele>586</ele>
        <time>2019-06-25T10:14:45Z</time>
      </trkpt>
      <trkpt lat="44.32652" lon="5.83363">
        <ele>586</ele>
        <time>2019-06-25T10:14:46Z</time>
      </trkpt>
      <trkpt lat="44.32653" lon="5.83354">
        <ele>586</ele>
        <time>2019-06-25T10:14:47Z</time>
      </trkpt>
      <trkpt lat="44.32654" lon="5.83345">
        <ele>586</ele>
        <time>2019-06-25T10:14:48Z</time>
      </trkpt>
      <trkpt lat="44.32655" lon="5.83336">
        <ele>586</ele>
        <time>2019-06-25T10:14:49Z</time>
      </trkpt>
      <trkpt lat="44.32656" lon="5.83327">
        <ele>586</ele>
        <time>2019-06-25T10:14:50Z</time>
      </trkpt>
      <trkpt lat="44.32658" lon="5.83317">
        <ele>586</ele>
        <time>2019-06-25T10:14:51Z</time>
      </trkpt>
      <trkpt lat="44.32659" lon="5.83309">
        <ele>586</ele>
        <time>2019-06-25T10:14:52Z</time>
      </trkpt>
      <trkpt lat="44.3266" lon="5.833">
        <ele>586</ele>
        <time>2019-06-25T10:14:53Z</time>
      </trkpt>
      <trkpt lat="44.3266" lon="5.83292">
        <ele>586</ele>
        <time>2019-06-25T10:14:54Z</time>
      </trkpt>
      <trkpt lat="44.32661" lon="5.83286">
        <ele>586</ele>
        <time>2019-06-25T10:14:55Z</time>
      </trkpt>
      <trkpt lat="44.32661" lon="5.83281">
        <ele>586</ele>
        <time>2019-06-25T10:14:56Z</time>
      </trkpt>
      <trkpt lat="44.32661" lon="5.83277">
        <ele>586</ele>
        <time>2019-06-25T10:14:57Z</time>
      </trkpt>
      <trkpt lat="44.3266" lon="5.83273">
        <ele>586</ele>
        <time>2019-06-25T10:14:58Z</time>
      </trkpt>
      <trkpt lat="44.32658" lon="5.83269">
        <ele>586</ele>
        <time>2019-06-25T10:14:59Z</time>
      </trkpt>
      <trkpt lat="44.32656" lon="5.83265">
        <ele>586</ele>
        <time>2019-06-25T10:15:00Z</time>
      </trkpt>
      <trkpt lat="44.32653" lon="5.83262">
        <ele>586</ele>
        <time>2019-06-25T10:15:01Z</time>
      </trkpt>
      <trkpt lat="44.32649" lon="5.83259">
        <ele>586</ele>
        <time>2019-06-25T10:15:02Z</time>
      </trkpt>
      <trkpt lat="44.32645" lon="5.83256">
        <ele>586</ele>
        <time>2019-06-25T10:15:03Z</time>
      </trkpt>
      <trkpt lat="44.3264" lon="5.83253">
        <ele>586</ele>
        <time>2019-06-25T10:15:04Z</time>
      </trkpt>
      <trkpt lat="44.32634" lon="5.83249">
        <ele>586</ele>
        <time>2019-06-25T10:15:05Z</time>
      </trkpt>
      <trkpt lat="44.32629" lon="5.83245">
        <ele>585</ele>
        <time>2019-06-25T10:15:06Z</time>
      </trkpt>
      <trkpt lat="44.32624" lon="5.83241">
        <ele>584</ele>
        <time>2019-06-25T10:15:07Z</time>
      </trkpt>
      <trkpt lat="44.32618" lon="5.83237">
        <ele>584</ele>
        <time>2019-06-25T10:15:08Z</time>
      </trkpt>
      <trkpt lat="44.32613" lon="5.83233">
        <ele>583</ele>
        <time>2019-06-25T10:15:09Z</time>
      </trkpt>
      <trkpt lat="44.32607" lon="5.83229">
        <ele>582</ele>
        <time>2019-06-25T10:15:10Z</time>
      </trkpt>
      <trkpt lat="44.32601" lon="5.83226">
        <ele>582</ele>
        <time>2019-06-25T10:15:11Z</time>
      </trkpt>
      <trkpt lat="44.32595" lon="5.83222">
        <ele>582</ele>
        <time>2019-06-25T10:15:12Z</time>
      </trkpt>
      <trkpt lat="44.32589" lon="5.83219">
        <ele>582</ele>
        <time>2019-06-25T10:15:13Z</time>
      </trkpt>
      <trkpt lat="44.32583" lon="5.83216">
        <ele>582</ele>
        <time>2019-06-25T10:15:14Z</time>
      </trkpt>
      <trkpt lat="44.32576" lon="5.83213">
        <ele>582</ele>
        <time>2019-06-25T10:15:15Z</time>
      </trkpt>
      <trkpt lat="44.3257" lon="5.83211">
        <ele>582</ele>
        <time>2019-06-25T10:15:16Z</time>
      </trkpt>
      <trkpt lat="44.32564" lon="5.83208">
        <ele>582</ele>
        <time>2019-06-25T10:15:17Z</time>
      </trkpt>
      <trkpt lat="44.32557" lon="5.83205">
        <ele>582</ele>
        <time>2019-06-25T10:15:18Z</time>
      </trkpt>
      <trkpt lat="44.32551" lon="5.83202">
        <ele>582</ele>
        <time>2019-06-25T10:15:19Z</time>
      </trkpt>
      <trkpt lat="44.32544" lon="5.83199">
        <ele>582</ele>
        <time>2019-06-25T10:15:20Z</time>
      </trkpt>
      <trkpt lat="44.32538" lon="5.83196">
        <ele>582</ele>
        <time>2019-06-25T10:15:21Z</time>
      </trkpt>
      <trkpt lat="44.32531" lon="5.83193">
        <ele>582</ele>
        <time>2019-06-25T10:15:22Z</time>
      </trkpt>
      <trkpt lat="44.32525" lon="5.8319">
        <ele>582</ele>
        <time>2019-06-25T10:15:23Z</time>
      </trkpt>
      <trkpt lat="44.32518" lon="5.83188">
        <ele>582</ele>
        <time>2019-06-25T10:15:24Z</time>
      </trkpt>
      <trkpt lat="44.32512" lon="5.83185">
        <ele>582</ele>
        <time>2019-06-25T10:15:25Z</time>
      </trkpt>
      <trkpt lat="44.32505" lon="5.83182">
        <ele>582</ele>
        <time>2019-06-25T10:15:26Z</time>
      </trkpt>
      <trkpt lat="44.32499" lon="5.83179">
        <ele>582</ele>
        <time>2019-06-25T10:15:27Z</time>
      </trkpt>
      <trkpt lat="44.32493" lon="5.83175">
        <ele>582</ele>
        <time>2019-06-25T10:15:28Z</time>
      </trkpt>
      <trkpt lat="44.32486" lon="5.83171">
        <ele>582</ele>
        <time>2019-06-25T10:15:29Z</time>
      </trkpt>
      <trkpt lat="44.3248" lon="5.83167">
        <ele>582</ele>
        <time>2019-06-25T10:15:30Z</time>
      </trkpt>
      <trkpt lat="44.32474" lon="5.83163">
        <ele>582</ele>
        <time>2019-06-25T10:15:31Z</time>
      </trkpt>
      <trkpt lat="44.32469" lon="5.83159">
        <ele>582</ele>
        <time>2019-06-25T10:15:32Z</time>
      </trkpt>
      <trkpt lat="44.32463" lon="5.83155">
        <ele>582</ele>
        <time>2019-06-25T10:15:33Z</time>
      </trkpt>
      <trkpt lat="44.32457" lon="5.83151">
        <ele>582</ele>
        <time>2019-06-25T10:15:34Z</time>
      </trkpt>
      <trkpt lat="44.32452" lon="5.83147">
        <ele>582</ele>
        <time>2019-06-25T10:15:35Z</time>
      </trkpt>
      <trkpt lat="44.32447" lon="5.83142">
        <ele>582</ele>
        <time>2019-06-25T10:15:36Z</time>
      </trkpt>
      <trkpt lat="44.32442" lon="5.83137">
        <ele>582</ele>
        <time>2019-06-25T10:15:37Z</time>
      </trkpt>
      <trkpt lat="44.32437" lon="5.83132">
        <ele>582</ele>
        <time>2019-06-25T10:15:38Z</time>
      </trkpt>
      <trkpt lat="44.32432" lon="5.83127">
        <ele>582</ele>
        <time>2019-06-25T10:15:39Z</time>
      </trkpt>
      <trkpt lat="44.32427" lon="5.83122">
        <ele>582</ele>
        <time>2019-06-25T10:15:40Z</time>
      </trkpt>
      <trkpt lat="44.32422" lon="5.83116">
        <ele>582</ele>
        <time>2019-06-25T10:15:41Z</time>
      </trkpt>
      <trkpt lat="44.32417" lon="5.83111">
        <ele>582</ele>
        <time>2019-06-25T10:15:42Z</time>
      </trkpt>
      <trkpt lat="44.32411" lon="5.83105">
        <ele>582</ele>
        <time>2019-06-25T10:15:43Z</time>
      </trkpt>
      <trkpt lat="44.32407" lon="5.83099">
        <ele>582</ele>
        <time>2019-06-25T10:15:44Z</time>
      </trkpt>
      <trkpt lat="44.32402" lon="5.83092">
        <ele>582</ele>
        <time>2019-06-25T10:15:45Z</time>
      </trkpt>
      <trkpt lat="44.32398" lon="5.83085">
        <ele>582</ele>
        <time>2019-06-25T10:15:46Z</time>
      </trkpt>
      <trkpt lat="44.32394" lon="5.83077">
        <ele>582</ele>
        <time>2019-06-25T10:15:47Z</time>
      </trkpt>
      <trkpt lat="44.3239" lon="5.8307">
        <ele>582</ele>
        <time>2019-06-25T10:15:48Z</time>
      </trkpt>
      <trkpt lat="44.32387" lon="5.83062">
        <ele>582</ele>
        <time>2019-06-25T10:15:49Z</time>
      </trkpt>
      <trkpt lat="44.32384" lon="5.83054">
        <ele>582</ele>
        <time>2019-06-25T10:15:50Z</time>
      </trkpt>
      <trkpt lat="44.32381" lon="5.83047">
        <ele>582</ele>
        <time>2019-06-25T10:15:51Z</time>
      </trkpt>
      <trkpt lat="44.32379" lon="5.8304">
        <ele>582</ele>
        <time>2019-06-25T10:15:52Z</time>
      </trkpt>
      <trkpt lat="44.32377" lon="5.83032">
        <ele>582</ele>
        <time>2019-06-25T10:15:53Z</time>
      </trkpt>
      <trkpt lat="44.32375" lon="5.83025">
        <ele>582</ele>
        <time>2019-06-25T10:15:54Z</time>
      </trkpt>
      <trkpt lat="44.32373" lon="5.83017">
        <ele>582</ele>
        <time>2019-06-25T10:15:55Z</time>
      </trkpt>
      <trkpt lat="44.32371" lon="5.8301">
        <ele>582</ele>
        <time>2019-06-25T10:15:56Z</time>
      </trkpt>
      <trkpt lat="44.32369" lon="5.83003">
        <ele>582</ele>
        <time>2019-06-25T10:15:57Z</time>
      </trkpt>
      <trkpt lat="44.32366" lon="5.82996">
        <ele>582</ele>
        <time>2019-06-25T10:15:58Z</time>
      </trkpt>
      <trkpt lat="44.32363" lon="5.8299">
        <ele>582</ele>
        <time>2019-06-25T10:15:59Z</time>
      </trkpt>
      <trkpt lat="44.32359" lon="5.82983">
        <ele>582</ele>
        <time>2019-06-25T10:16:00Z</time>
      </trkpt>
      <trkpt lat="44.32355" lon="5.82978">
        <ele>582</ele>
        <time>2019-06-25T10:16:01Z</time>
      </trkpt>
      <trkpt lat="44.3235" lon="5.82972">
        <ele>582</ele>
        <time>2019-06-25T10:16:02Z</time>
      </trkpt>
      <trkpt lat="44.32345" lon="5.82967">
        <ele>582</ele>
        <time>2019-06-25T10:16:03Z</time>
      </trkpt>
      <trkpt lat="44.3234" lon="5.82963">
        <ele>582</ele>
        <time>2019-06-25T10:16:04Z</time>
      </trkpt>
      <trkpt lat="44.32334" lon="5.82959">
        <ele>582</ele>
        <time>2019-06-25T10:16:05Z</time>
      </trkpt>
      <trkpt lat="44.32328" lon="5.82955">
        <ele>582</ele>
        <time>2019-06-25T10:16:06Z</time>
      </trkpt>
      <trkpt lat="44.32321" lon="5.82951">
        <ele>582</ele>
        <time>2019-06-25T10:16:07Z</time>
      </trkpt>
      <trkpt lat="44.32315" lon="5.82948">
        <ele>582</ele>
        <time>2019-06-25T10:16:08Z</time>
      </trkpt>
      <trkpt lat="44.32308" lon="5.82944">
        <ele>582</ele>
        <time>2019-06-25T10:16:09Z</time>
      </trkpt>
      <trkpt lat="44.32301" lon="5.82941">
        <ele>582</ele>
        <time>2019-06-25T10:16:10Z</time>
      </trkpt>
      <trkpt lat="44.32294" lon="5.82937">
        <ele>582</ele>
        <time>2019-06-25T10:16:11Z</time>
      </trkpt>
      <trkpt lat="44.32287" lon="5.82934">
        <ele>582</ele>
        <time>2019-06-25T10:16:12Z</time>
      </trkpt>
      <trkpt lat="44.3228" lon="5.82931">
        <ele>581</ele>
        <time>2019-06-25T10:16:13Z</time>
      </trkpt>
      <trkpt lat="44.32272" lon="5.82927">
        <ele>581</ele>
        <time>2019-06-25T10:16:14Z</time>
      </trkpt>
      <trkpt lat="44.32265" lon="5.82924">
        <ele>580</ele>
        <time>2019-06-25T10:16:15Z</time>
      </trkpt>
      <trkpt lat="44.32257" lon="5.8292">
        <ele>580</ele>
        <time>2019-06-25T10:16:16Z</time>
      </trkpt>
      <trkpt lat="44.3225" lon="5.82916">
        <ele>580</ele>
        <time>2019-06-25T10:16:17Z</time>
      </trkpt>
      <trkpt lat="44.32243" lon="5.82913">
        <ele>580</ele>
        <time>2019-06-25T10:16:18Z</time>
      </trkpt>
      <trkpt lat="44.32235" lon="5.82909">
        <ele>579</ele>
        <time>2019-06-25T10:16:19Z</time>
      </trkpt>
      <trkpt lat="44.32227" lon="5.82905">
        <ele>579</ele>
        <time>2019-06-25T10:16:20Z</time>
      </trkpt>
      <trkpt lat="44.3222" lon="5.82901">
        <ele>579</ele>
        <time>2019-06-25T10:16:21Z</time>
      </trkpt>
      <trkpt lat="44.32213" lon="5.82897">
        <ele>578</ele>
        <time>2019-06-25T10:16:22Z</time>
      </trkpt>
      <trkpt lat="44.32205" lon="5.82893">
        <ele>578</ele>
        <time>2019-06-25T10:16:23Z</time>
      </trkpt>
      <trkpt lat="44.32198" lon="5.8289">
        <ele>577</ele>
        <time>2019-06-25T10:16:24Z</time>
      </trkpt>
      <trkpt lat="44.3219" lon="5.82886">
        <ele>576</ele>
        <time>2019-06-25T10:16:25Z</time>
      </trkpt>
      <trkpt lat="44.32183" lon="5.82882">
        <ele>576</ele>
        <time>2019-06-25T10:16:26Z</time>
      </trkpt>
      <trkpt lat="44.32175" lon="5.82878">
        <ele>575</ele>
        <time>2019-06-25T10:16:27Z</time>
      </trkpt>
      <trkpt lat="44.32168" lon="5.82874">
        <ele>575</ele>
        <time>2019-06-25T10:16:28Z</time>
      </trkpt>
      <trkpt lat="44.3216" lon="5.82871">
        <ele>575</ele>
        <time>2019-06-25T10:16:29Z</time>
      </trkpt>
      <trkpt lat="44.32153" lon="5.82867">
        <ele>575</ele>
        <time>2019-06-25T10:16:30Z</time>
      </trkpt>
      <trkpt lat="44.32145" lon="5.82865">
        <ele>575</ele>
        <time>2019-06-25T10:16:31Z</time>
      </trkpt>
      <trkpt lat="44.32137" lon="5.82862">
        <ele>575</ele>
        <time>2019-06-25T10:16:32Z</time>
      </trkpt>
      <trkpt lat="44.32129" lon="5.8286">
        <ele>575</ele>
        <time>2019-06-25T10:16:33Z</time>
      </trkpt>
      <trkpt lat="44.32122" lon="5.82858">
        <ele>575</ele>
        <time>2019-06-25T10:16:34Z</time>
      </trkpt>
      <trkpt lat="44.32114" lon="5.82856">
        <ele>575</ele>
        <time>2019-06-25T10:16:35Z</time>
      </trkpt>
      <trkpt lat="44.32106" lon="5.82853">
        <ele>575</ele>
        <time>2019-06-25T10:16:36Z</time>
      </trkpt>
      <trkpt lat="44.32098" lon="5.82851">
        <ele>575</ele>
        <time>2019-06-25T10:16:37Z</time>
      </trkpt>
      <trkpt lat="44.3209" lon="5.82848">
        <ele>575</ele>
        <time>2019-06-25T10:16:38Z</time>
      </trkpt>
      <trkpt lat="44.32082" lon="5.82844">
        <ele>575</ele>
        <time>2019-06-25T10:16:39Z</time>
      </trkpt>
      <trkpt lat="44.32074" lon="5.8284">
        <ele>575</ele>
        <time>2019-06-25T10:16:40Z</time>
      </trkpt>
      <trkpt lat="44.32066" lon="5.82836">
        <ele>574</ele>
        <time>2019-06-25T10:16:41Z</time>
      </trkpt>
      <trkpt lat="44.32058" lon="5.82831">
        <ele>574</ele>
        <time>2019-06-25T10:16:42Z</time>
      </trkpt>
      <trkpt lat="44.3205" lon="5.82826">
        <ele>573</ele>
        <time>2019-06-25T10:16:43Z</time>
      </trkpt>
      <trkpt lat="44.32041" lon="5.8282">
        <ele>572</ele>
        <time>2019-06-25T10:16:44Z</time>
      </trkpt>
      <trkpt lat="44.32033" lon="5.82815">
        <ele>572</ele>
        <time>2019-06-25T10:16:45Z</time>
      </trkpt>
      <trkpt lat="44.32024" lon="5.82809">
        <ele>571</ele>
        <time>2019-06-25T10:16:46Z</time>
      </trkpt>
      <trkpt lat="44.32015" lon="5.82804">
        <ele>571</ele>
        <time>2019-06-25T10:16:47Z</time>
      </trkpt>
      <trkpt lat="44.32005" lon="5.82799">
        <ele>570</ele>
        <time>2019-06-25T10:16:48Z</time>
      </trkpt>
      <trkpt lat="44.31996" lon="5.82794">
        <ele>570</ele>
        <time>2019-06-25T10:16:49Z</time>
      </trkpt>
      <trkpt lat="44.31986" lon="5.8279">
        <ele>570</ele>
        <time>2019-06-25T10:16:50Z</time>
      </trkpt>
      <trkpt lat="44.31976" lon="5.82786">
        <ele>569</ele>
        <time>2019-06-25T10:16:51Z</time>
      </trkpt>
      <trkpt lat="44.31967" lon="5.82782">
        <ele>568</ele>
        <time>2019-06-25T10:16:52Z</time>
      </trkpt>
      <trkpt lat="44.31957" lon="5.82778">
        <ele>568</ele>
        <time>2019-06-25T10:16:53Z</time>
      </trkpt>
      <trkpt lat="44.31947" lon="5.82775">
        <ele>567</ele>
        <time>2019-06-25T10:16:54Z</time>
      </trkpt>
      <trkpt lat="44.31937" lon="5.82772">
        <ele>567</ele>
        <time>2019-06-25T10:16:55Z</time>
      </trkpt>
      <trkpt lat="44.31927" lon="5.8277">
        <ele>567</ele>
        <time>2019-06-25T10:16:56Z</time>
      </trkpt>
      <trkpt lat="44.31917" lon="5.82769">
        <ele>566</ele>
        <time>2019-06-25T10:16:57Z</time>
      </trkpt>
      <trkpt lat="44.31907" lon="5.82768">
        <ele>566</ele>
        <time>2019-06-25T10:16:58Z</time>
      </trkpt>
      <trkpt lat="44.31897" lon="5.82767">
        <ele>566</ele>
        <time>2019-06-25T10:16:59Z</time>
      </trkpt>
      <trkpt lat="44.31886" lon="5.82767">
        <ele>566</ele>
        <time>2019-06-25T10:17:00Z</time>
      </trkpt>
      <trkpt lat="44.31876" lon="5.82765">
        <ele>566</ele>
        <time>2019-06-25T10:17:01Z</time>
      </trkpt>
      <trkpt lat="44.31866" lon="5.82763">
        <ele>566</ele>
        <time>2019-06-25T10:17:02Z</time>
      </trkpt>
      <trkpt lat="44.31855" lon="5.82761">
        <ele>566</ele>
        <time>2019-06-25T10:17:03Z</time>
      </trkpt>
      <trkpt lat="44.31845" lon="5.82757">
        <ele>566</ele>
        <time>2019-06-25T10:17:04Z</time>
      </trkpt>
      <trkpt lat="44.31835" lon="5.82752">
        <ele>566</ele>
        <time>2019-06-25T10:17:05Z</time>
      </trkpt>
      <trkpt lat="44.31826" lon="5.82746">
        <ele>565</ele>
        <time>2019-06-25T10:17:06Z</time>
      </trkpt>
      <trkpt lat="44.31817" lon="5.82739">
        <ele>565</ele>
        <time>2019-06-25T10:17:07Z</time>
      </trkpt>
      <trkpt lat="44.31808" lon="5.82732">
        <ele>565</ele>
        <time>2019-06-25T10:17:08Z</time>
      </trkpt>
      <trkpt lat="44.318" lon="5.82724">
        <ele>564</ele>
        <time>2019-06-25T10:17:09Z</time>
      </trkpt>
      <trkpt lat="44.31792" lon="5.82716">
        <ele>564</ele>
        <time>2019-06-25T10:17:10Z</time>
      </trkpt>
      <trkpt lat="44.31784" lon="5.82708">
        <ele>564</ele>
        <time>2019-06-25T10:17:11Z</time>
      </trkpt>
      <trkpt lat="44.31776" lon="5.827">
        <ele>564</ele>
        <time>2019-06-25T10:17:12Z</time>
      </trkpt>
      <trkpt lat="44.31768" lon="5.82691">
        <ele>563</ele>
        <time>2019-06-25T10:17:13Z</time>
      </trkpt>
      <trkpt lat="44.31761" lon="5.82683">
        <ele>563</ele>
        <time>2019-06-25T10:17:14Z</time>
      </trkpt>
      <trkpt lat="44.31753" lon="5.82675">
        <ele>562</ele>
        <time>2019-06-25T10:17:15Z</time>
      </trkpt>
      <trkpt lat="44.31745" lon="5.82667">
        <ele>561</ele>
        <time>2019-06-25T10:17:16Z</time>
      </trkpt>
      <trkpt lat="44.31738" lon="5.82659">
        <ele>561</ele>
        <time>2019-06-25T10:17:17Z</time>
      </trkpt>
      <trkpt lat="44.3173" lon="5.82652">
        <ele>560</ele>
        <time>2019-06-25T10:17:18Z</time>
      </trkpt>
      <trkpt lat="44.31723" lon="5.82645">
        <ele>560</ele>
        <time>2019-06-25T10:17:19Z</time>
      </trkpt>
      <trkpt lat="44.31715" lon="5.82637">
        <ele>560</ele>
        <time>2019-06-25T10:17:20Z</time>
      </trkpt>
      <trkpt lat="44.31708" lon="5.8263">
        <ele>560</ele>
        <time>2019-06-25T10:17:21Z</time>
      </trkpt>
      <trkpt lat="44.317" lon="5.82622">
        <ele>560</ele>
        <time>2019-06-25T10:17:22Z</time>
      </trkpt>
      <trkpt lat="44.31693" lon="5.82615">
        <ele>560</ele>
        <time>2019-06-25T10:17:23Z</time>
      </trkpt>
      <trkpt lat="44.31685" lon="5.82608">
        <ele>560</ele>
        <time>2019-06-25T10:17:24Z</time>
      </trkpt>
      <trkpt lat="44.31678" lon="5.826">
        <ele>560</ele>
        <time>2019-06-25T10:17:25Z</time>
      </trkpt>
      <trkpt lat="44.31671" lon="5.82592">
        <ele>560</ele>
        <time>2019-06-25T10:17:26Z</time>
      </trkpt>
      <trkpt lat="44.31664" lon="5.82585">
        <ele>560</ele>
        <time>2019-06-25T10:17:27Z</time>
      </trkpt>
      <trkpt lat="44.31657" lon="5.82578">
        <ele>560</ele>
        <time>2019-06-25T10:17:28Z</time>
      </trkpt>
      <trkpt lat="44.3165" lon="5.82571">
        <ele>560</ele>
        <time>2019-06-25T10:17:29Z</time>
      </trkpt>
      <trkpt lat="44.31643" lon="5.82564">
        <ele>559</ele>
        <time>2019-06-25T10:17:30Z</time>
      </trkpt>
      <trkpt lat="44.31636" lon="5.82557">
        <ele>559</ele>
        <time>2019-06-25T10:17:31Z</time>
      </trkpt>
      <trkpt lat="44.31628" lon="5.82549">
        <ele>559</ele>
        <time>2019-06-25T10:17:32Z</time>
      </trkpt>
      <trkpt lat="44.31622" lon="5.82543">
        <ele>559</ele>
        <time>2019-06-25T10:17:33Z</time>
      </trkpt>
      <trkpt lat="44.31615" lon="5.82537">
        <ele>559</ele>
        <time>2019-06-25T10:17:34Z</time>
      </trkpt>
      <trkpt lat="44.31608" lon="5.8253">
        <ele>559</ele>
        <time>2019-06-25T10:17:35Z</time>
      </trkpt>
      <trkpt lat="44.31601" lon="5.82523">
        <ele>559</ele>
        <time>2019-06-25T10:17:36Z</time>
      </trkpt>
      <trkpt lat="44.31594" lon="5.82516">
        <ele>559</ele>
        <time>2019-06-25T10:17:37Z</time>
      </trkpt>
      <trkpt lat="44.31587" lon="5.8251">
        <ele>559</ele>
        <time>2019-06-25T10:17:38Z</time>
      </trkpt>
      <trkpt lat="44.3158" lon="5.82503">
        <ele>559</ele>
        <time>2019-06-25T10:17:39Z</time>
      </trkpt>
      <trkpt lat="44.31573" lon="5.82495">
        <ele>559</ele>
        <time>2019-06-25T10:17:40Z</time>
      </trkpt>
      <trkpt lat="44.31567" lon="5.82488">
        <ele>559</ele>
        <time>2019-06-25T10:17:41Z</time>
      </trkpt>
      <trkpt lat="44.31561" lon="5.82481">
        <ele>559</ele>
        <time>2019-06-25T10:17:42Z</time>
      </trkpt>
      <trkpt lat="44.31554" lon="5.82474">
        <ele>559</ele>
        <time>2019-06-25T10:17:43Z</time>
      </trkpt>
      <trkpt lat="44.31547" lon="5.82467">
        <ele>559</ele>
        <time>2019-06-25T10:17:44Z</time>
      </trkpt>
      <trkpt lat="44.31541" lon="5.82461">
        <ele>559</ele>
        <time>2019-06-25T10:17:45Z</time>
      </trkpt>
      <trkpt lat="44.31533" lon="5.82454">
        <ele>559</ele>
        <time>2019-06-25T10:17:46Z</time>
      </trkpt>
      <trkpt lat="44.31527" lon="5.82448">
        <ele>559</ele>
        <time>2019-06-25T10:17:47Z</time>
      </trkpt>
      <trkpt lat="44.3152" lon="5.82442">
        <ele>559</ele>
        <time>2019-06-25T10:17:48Z</time>
      </trkpt>
      <trkpt lat="44.31514" lon="5.82436">
        <ele>559</ele>
        <time>2019-06-25T10:17:49Z</time>
      </trkpt>
      <trkpt lat="44.31507" lon="5.8243">
        <ele>559</ele>
        <time>2019-06-25T10:17:50Z</time>
      </trkpt>
      <trkpt lat="44.315" lon="5.82424">
        <ele>559</ele>
        <time>2019-06-25T10:17:51Z</time>
      </trkpt>
      <trkpt lat="44.31494" lon="5.82418">
        <ele>559</ele>
        <time>2019-06-25T10:17:52Z</time>
      </trkpt>
      <trkpt lat="44.31488" lon="5.82412">
        <ele>559</ele>
        <time>2019-06-25T10:17:53Z</time>
      </trkpt>
      <trkpt lat="44.31483" lon="5.82406">
        <ele>560</ele>
        <time>2019-06-25T10:17:54Z</time>
      </trkpt>
      <trkpt lat="44.31478" lon="5.82401">
        <ele>561</ele>
        <time>2019-06-25T10:17:55Z</time>
      </trkpt>
      <trkpt lat="44.31474" lon="5.82395">
        <ele>562</ele>
        <time>2019-06-25T10:17:56Z</time>
      </trkpt>
      <trkpt lat="44.31469" lon="5.8239">
        <ele>563</ele>
        <time>2019-06-25T10:17:57Z</time>
      </trkpt>
      <trkpt lat="44.31465" lon="5.82385">
        <ele>564</ele>
        <time>2019-06-25T10:17:58Z</time>
      </trkpt>
      <trkpt lat="44.31461" lon="5.8238">
        <ele>565</ele>
        <time>2019-06-25T10:17:59Z</time>
      </trkpt>
      <trkpt lat="44.31457" lon="5.82375">
        <ele>566</ele>
        <time>2019-06-25T10:18:00Z</time>
      </trkpt>
      <trkpt lat="44.31453" lon="5.82371">
        <ele>567</ele>
        <time>2019-06-25T10:18:01Z</time>
      </trkpt>
      <trkpt lat="44.3145" lon="5.82368">
        <ele>568</ele>
        <time>2019-06-25T10:18:02Z</time>
      </trkpt>
      <trkpt lat="44.31446" lon="5.82365">
        <ele>569</ele>
        <time>2019-06-25T10:18:03Z</time>
      </trkpt>
      <trkpt lat="44.31443" lon="5.82363">
        <ele>570</ele>
        <time>2019-06-25T10:18:04Z</time>
      </trkpt>
      <trkpt lat="44.3144" lon="5.82361">
        <ele>571</ele>
        <time>2019-06-25T10:18:05Z</time>
      </trkpt>
      <trkpt lat="44.31438" lon="5.82362">
        <ele>572</ele>
        <time>2019-06-25T10:18:06Z</time>
      </trkpt>
      <trkpt lat="44.31436" lon="5.82364">
        <ele>573</ele>
        <time>2019-06-25T10:18:07Z</time>
      </trkpt>
      <trkpt lat="44.31435" lon="5.82367">
        <ele>574</ele>
        <time>2019-06-25T10:18:08Z</time>
      </trkpt>
      <trkpt lat="44.31434" lon="5.82371">
        <ele>575</ele>
        <time>2019-06-25T10:18:09Z</time>
      </trkpt>
      <trkpt lat="44.31433" lon="5.82376">
        <ele>575</ele>
        <time>2019-06-25T10:18:10Z</time>
      </trkpt>
      <trkpt lat="44.31434" lon="5.82381">
        <ele>575</ele>
        <time>2019-06-25T10:18:11Z</time>
      </trkpt>
      <trkpt lat="44.31435" lon="5.82387">
        <ele>575</ele>
        <time>2019-06-25T10:18:12Z</time>
      </trkpt>
      <trkpt lat="44.31437" lon="5.82394">
        <ele>575</ele>
        <time>2019-06-25T10:18:13Z</time>
      </trkpt>
      <trkpt lat="44.31438" lon="5.82401">
        <ele>575</ele>
        <time>2019-06-25T10:18:14Z</time>
      </trkpt>
      <trkpt lat="44.31438" lon="5.82409">
        <ele>575</ele>
        <time>2019-06-25T10:18:15Z</time>
      </trkpt>
      <trkpt lat="44.31438" lon="5.82418">
        <ele>575</ele>
        <time>2019-06-25T10:18:16Z</time>
      </trkpt>
      <trkpt lat="44.31437" lon="5.82427">
        <ele>575</ele>
        <time>2019-06-25T10:18:17Z</time>
      </trkpt>
      <trkpt lat="44.31436" lon="5.82436">
        <ele>575</ele>
        <time>2019-06-25T10:18:18Z</time>
      </trkpt>
      <trkpt lat="44.31435" lon="5.82445">
        <ele>575</ele>
        <time>2019-06-25T10:18:19Z</time>
      </trkpt>
      <trkpt lat="44.31434" lon="5.82455">
        <ele>575</ele>
        <time>2019-06-25T10:18:20Z</time>
      </trkpt>
      <trkpt lat="44.31432" lon="5.82465">
        <ele>574</ele>
        <time>2019-06-25T10:18:21Z</time>
      </trkpt>
      <trkpt lat="44.3143" lon="5.82474">
        <ele>573</ele>
        <time>2019-06-25T10:18:22Z</time>
      </trkpt>
      <trkpt lat="44.31427" lon="5.82483">
        <ele>573</ele>
        <time>2019-06-25T10:18:23Z</time>
      </trkpt>
      <trkpt lat="44.31426" lon="5.82493">
        <ele>572</ele>
        <time>2019-06-25T10:18:24Z</time>
      </trkpt>
      <trkpt lat="44.31423" lon="5.82503">
        <ele>571</ele>
        <time>2019-06-25T10:18:25Z</time>
      </trkpt>
      <trkpt lat="44.31421" lon="5.82513">
        <ele>571</ele>
        <time>2019-06-25T10:18:26Z</time>
      </trkpt>
      <trkpt lat="44.31418" lon="5.82523">
        <ele>571</ele>
        <time>2019-06-25T10:18:27Z</time>
      </trkpt>
      <trkpt lat="44.31416" lon="5.82534">
        <ele>571</ele>
        <time>2019-06-25T10:18:28Z</time>
      </trkpt>
      <trkpt lat="44.31414" lon="5.82544">
        <ele>571</ele>
        <time>2019-06-25T10:18:29Z</time>
      </trkpt>
      <trkpt lat="44.31412" lon="5.82555">
        <ele>570</ele>
        <time>2019-06-25T10:18:30Z</time>
      </trkpt>
      <trkpt lat="44.3141" lon="5.82566">
        <ele>570</ele>
        <time>2019-06-25T10:18:31Z</time>
      </trkpt>
      <trkpt lat="44.31408" lon="5.82577">
        <ele>569</ele>
        <time>2019-06-25T10:18:32Z</time>
      </trkpt>
      <trkpt lat="44.31406" lon="5.82588">
        <ele>568</ele>
        <time>2019-06-25T10:18:33Z</time>
      </trkpt>
      <trkpt lat="44.31404" lon="5.82598">
        <ele>568</ele>
        <time>2019-06-25T10:18:34Z</time>
      </trkpt>
      <trkpt lat="44.31401" lon="5.82609">
        <ele>567</ele>
        <time>2019-06-25T10:18:35Z</time>
      </trkpt>
      <trkpt lat="44.31399" lon="5.82619">
        <ele>567</ele>
        <time>2019-06-25T10:18:36Z</time>
      </trkpt>
      <trkpt lat="44.31396" lon="5.8263">
        <ele>566</ele>
        <time>2019-06-25T10:18:37Z</time>
      </trkpt>
      <trkpt lat="44.31392" lon="5.82639">
        <ele>566</ele>
        <time>2019-06-25T10:18:38Z</time>
      </trkpt>
      <trkpt lat="44.31388" lon="5.82648">
        <ele>566</ele>
        <time>2019-06-25T10:18:39Z</time>
      </trkpt>
      <trkpt lat="44.31383" lon="5.82657">
        <ele>566</ele>
        <time>2019-06-25T10:18:40Z</time>
      </trkpt>
      <trkpt lat="44.31379" lon="5.82665">
        <ele>566</ele>
        <time>2019-06-25T10:18:41Z</time>
      </trkpt>
      <trkpt lat="44.31374" lon="5.82673">
        <ele>566</ele>
        <time>2019-06-25T10:18:42Z</time>
      </trkpt>
      <trkpt lat="44.31369" lon="5.82679">
        <ele>566</ele>
        <time>2019-06-25T10:18:43Z</time>
      </trkpt>
      <trkpt lat="44.31363" lon="5.82685">
        <ele>566</ele>
        <time>2019-06-25T10:18:44Z</time>
      </trkpt>
      <trkpt lat="44.3136" lon="5.82693">
        <ele>566</ele>
        <time>2019-06-25T10:18:45Z</time>
      </trkpt>
      <trkpt lat="44.31359" lon="5.82701">
        <ele>566</ele>
        <time>2019-06-25T10:18:46Z</time>
      </trkpt>
      <trkpt lat="44.31359" lon="5.82709">
        <ele>566</ele>
        <time>2019-06-25T10:18:47Z</time>
      </trkpt>
      <trkpt lat="44.31362" lon="5.82715">
        <ele>566</ele>
        <time>2019-06-25T10:18:48Z</time>
      </trkpt>
      <trkpt lat="44.31366" lon="5.82723">
        <ele>565</ele>
        <time>2019-06-25T10:18:49Z</time>
      </trkpt>
      <trkpt lat="44.31369" lon="5.82731">
        <ele>565</ele>
        <time>2019-06-25T10:18:50Z</time>
      </trkpt>
      <trkpt lat="44.3137" lon="5.8274">
        <ele>565</ele>
        <time>2019-06-25T10:18:51Z</time>
      </trkpt>
      <trkpt lat="44.31371" lon="5.82749">
        <ele>565</ele>
        <time>2019-06-25T10:18:52Z</time>
      </trkpt>
      <trkpt lat="44.31371" lon="5.82758">
        <ele>565</ele>
        <time>2019-06-25T10:18:53Z</time>
      </trkpt>
      <trkpt lat="44.31372" lon="5.82768">
        <ele>565</ele>
        <time>2019-06-25T10:18:54Z</time>
      </trkpt>
      <trkpt lat="44.31374" lon="5.82777">
        <ele>565</ele>
        <time>2019-06-25T10:18:55Z</time>
      </trkpt>
      <trkpt lat="44.31374" lon="5.82786">
        <ele>565</ele>
        <time>2019-06-25T10:18:56Z</time>
      </trkpt>
      <trkpt lat="44.31374" lon="5.82795">
        <ele>565</ele>
        <time>2019-06-25T10:18:57Z</time>
      </trkpt>
      <trkpt lat="44.31373" lon="5.82804">
        <ele>565</ele>
        <time>2019-06-25T10:18:58Z</time>
      </trkpt>
      <trkpt lat="44.31372" lon="5.82814">
        <ele>565</ele>
        <time>2019-06-25T10:18:59Z</time>
      </trkpt>
      <trkpt lat="44.31371" lon="5.82823">
        <ele>565</ele>
        <time>2019-06-25T10:19:00Z</time>
      </trkpt>
      <trkpt lat="44.3137" lon="5.82832">
        <ele>564</ele>
        <time>2019-06-25T10:19:01Z</time>
      </trkpt>
      <trkpt lat="44.31369" lon="5.8284">
        <ele>564</ele>
        <time>2019-06-25T10:19:02Z</time>
      </trkpt>
      <trkpt lat="44.31369" lon="5.8285">
        <ele>564</ele>
        <time>2019-06-25T10:19:03Z</time>
      </trkpt>
      <trkpt lat="44.31367" lon="5.82858">
        <ele>564</ele>
        <time>2019-06-25T10:19:04Z</time>
      </trkpt>
      <trkpt lat="44.31366" lon="5.82867">
        <ele>563</ele>
        <time>2019-06-25T10:19:05Z</time>
      </trkpt>
      <trkpt lat="44.31365" lon="5.82876">
        <ele>563</ele>
        <time>2019-06-25T10:19:06Z</time>
      </trkpt>
      <trkpt lat="44.31364" lon="5.82884">
        <ele>563</ele>
        <time>2019-06-25T10:19:07Z</time>
      </trkpt>
      <trkpt lat="44.31362" lon="5.82893">
        <ele>563</ele>
        <time>2019-06-25T10:19:08Z</time>
      </trkpt>
      <trkpt lat="44.31361" lon="5.82902">
        <ele>562</ele>
        <time>2019-06-25T10:19:09Z</time>
      </trkpt>
      <trkpt lat="44.3136" lon="5.82911">
        <ele>562</ele>
        <time>2019-06-25T10:19:10Z</time>
      </trkpt>
      <trkpt lat="44.31359" lon="5.8292">
        <ele>562</ele>
        <time>2019-06-25T10:19:11Z</time>
      </trkpt>
      <trkpt lat="44.31358" lon="5.82929">
        <ele>562</ele>
        <time>2019-06-25T10:19:12Z</time>
      </trkpt>
      <trkpt lat="44.31357" lon="5.82938">
        <ele>562</ele>
        <time>2019-06-25T10:19:13Z</time>
      </trkpt>
      <trkpt lat="44.31356" lon="5.82946">
        <ele>562</ele>
        <time>2019-06-25T10:19:14Z</time>
      </trkpt>
      <trkpt lat="44.31356" lon="5.82955">
        <ele>562</ele>
        <time>2019-06-25T10:19:15Z</time>
      </trkpt>
      <trkpt lat="44.31354" lon="5.82964">
        <ele>562</ele>
        <time>2019-06-25T10:19:16Z</time>
      </trkpt>
      <trkpt lat="44.31353" lon="5.82972">
        <ele>562</ele>
        <time>2019-06-25T10:19:17Z</time>
      </trkpt>
      <trkpt lat="44.31352" lon="5.82981">
        <ele>562</ele>
        <time>2019-06-25T10:19:18Z</time>
      </trkpt>
      <trkpt lat="44.31351" lon="5.82989">
        <ele>562</ele>
        <time>2019-06-25T10:19:19Z</time>
      </trkpt>
      <trkpt lat="44.3135" lon="5.82997">
        <ele>562</ele>
        <time>2019-06-25T10:19:20Z</time>
      </trkpt>
      <trkpt lat="44.31348" lon="5.83005">
        <ele>562</ele>
        <time>2019-06-25T10:19:21Z</time>
      </trkpt>
      <trkpt lat="44.31348" lon="5.83012">
        <ele>562</ele>
        <time>2019-06-25T10:19:22Z</time>
      </trkpt>
      <trkpt lat="44.31347" lon="5.83019">
        <ele>562</ele>
        <time>2019-06-25T10:19:23Z</time>
      </trkpt>
      <trkpt lat="44.31347" lon="5.83027">
        <ele>562</ele>
        <time>2019-06-25T10:19:24Z</time>
      </trkpt>
      <trkpt lat="44.31346" lon="5.83034">
        <ele>562</ele>
        <time>2019-06-25T10:19:25Z</time>
      </trkpt>
      <trkpt lat="44.31344" lon="5.83041">
        <ele>562</ele>
        <time>2019-06-25T10:19:26Z</time>
      </trkpt>
      <trkpt lat="44.31343" lon="5.83049">
        <ele>562</ele>
        <time>2019-06-25T10:19:27Z</time>
      </trkpt>
      <trkpt lat="44.31341" lon="5.83056">
        <ele>562</ele>
        <time>2019-06-25T10:19:28Z</time>
      </trkpt>
      <trkpt lat="44.3134" lon="5.83064">
        <ele>562</ele>
        <time>2019-06-25T10:19:29Z</time>
      </trkpt>
      <trkpt lat="44.31339" lon="5.83071">
        <ele>562</ele>
        <time>2019-06-25T10:19:30Z</time>
      </trkpt>
      <trkpt lat="44.31339" lon="5.83078">
        <ele>562</ele>
        <time>2019-06-25T10:19:31Z</time>
      </trkpt>
      <trkpt lat="44.31338" lon="5.83085">
        <ele>562</ele>
        <time>2019-06-25T10:19:32Z</time>
      </trkpt>
      <trkpt lat="44.31338" lon="5.83092">
        <ele>562</ele>
        <time>2019-06-25T10:19:33Z</time>
      </trkpt>
      <trkpt lat="44.31339" lon="5.83098">
        <ele>562</ele>
        <time>2019-06-25T10:19:34Z</time>
      </trkpt>
      <trkpt lat="44.31342" lon="5.83103">
        <ele>562</ele>
        <time>2019-06-25T10:19:35Z</time>
      </trkpt>
      <trkpt lat="44.31346" lon="5.83104">
        <ele>562</ele>
        <time>2019-06-25T10:19:36Z</time>
      </trkpt>
      <trkpt lat="44.3135" lon="5.83103">
        <ele>562</ele>
        <time>2019-06-25T10:19:37Z</time>
      </trkpt>
      <trkpt lat="44.31354" lon="5.831">
        <ele>562</ele>
        <time>2019-06-25T10:19:38Z</time>
      </trkpt>
      <trkpt lat="44.31356" lon="5.83094">
        <ele>562</ele>
        <time>2019-06-25T10:19:39Z</time>
      </trkpt>
      <trkpt lat="44.31359" lon="5.83087">
        <ele>562</ele>
        <time>2019-06-25T10:19:40Z</time>
      </trkpt>
      <trkpt lat="44.31361" lon="5.8308">
        <ele>562</ele>
        <time>2019-06-25T10:19:41Z</time>
      </trkpt>
      <trkpt lat="44.31363" lon="5.83073">
        <ele>562</ele>
        <time>2019-06-25T10:19:42Z</time>
      </trkpt>
      <trkpt lat="44.31367" lon="5.83066">
        <ele>562</ele>
        <time>2019-06-25T10:19:43Z</time>
      </trkpt>
      <trkpt lat="44.3137" lon="5.83059">
        <ele>562</ele>
        <time>2019-06-25T10:19:44Z</time>
      </trkpt>
      <trkpt lat="44.31374" lon="5.83053">
        <ele>562</ele>
        <time>2019-06-25T10:19:45Z</time>
      </trkpt>
      <trkpt lat="44.31378" lon="5.83046">
        <ele>562</ele>
        <time>2019-06-25T10:19:46Z</time>
      </trkpt>
      <trkpt lat="44.31382" lon="5.8304">
        <ele>562</ele>
        <time>2019-06-25T10:19:47Z</time>
      </trkpt>
      <trkpt lat="44.31387" lon="5.83033">
        <ele>562</ele>
        <time>2019-06-25T10:19:48Z</time>
      </trkpt>
      <trkpt lat="44.31391" lon="5.83026">
        <ele>562</ele>
        <time>2019-06-25T10:19:49Z</time>
      </trkpt>
      <trkpt lat="44.31396" lon="5.83018">
        <ele>562</ele>
        <time>2019-06-25T10:19:50Z</time>
      </trkpt>
      <trkpt lat="44.31401" lon="5.83011">
        <ele>562</ele>
        <time>2019-06-25T10:19:51Z</time>
      </trkpt>
      <trkpt lat="44.31406" lon="5.83004">
        <ele>562</ele>
        <time>2019-06-25T10:19:52Z</time>
      </trkpt>
      <trkpt lat="44.31411" lon="5.82997">
        <ele>562</ele>
        <time>2019-06-25T10:19:53Z</time>
      </trkpt>
      <trkpt lat="44.31416" lon="5.8299">
        <ele>562</ele>
        <time>2019-06-25T10:19:54Z</time>
      </trkpt>
      <trkpt lat="44.3142" lon="5.82983">
        <ele>562</ele>
        <time>2019-06-25T10:19:55Z</time>
      </trkpt>
      <trkpt lat="44.31425" lon="5.82976">
        <ele>562</ele>
        <time>2019-06-25T10:19:56Z</time>
      </trkpt>
      <trkpt lat="44.3143" lon="5.82969">
        <ele>562</ele>
        <time>2019-06-25T10:19:57Z</time>
      </trkpt>
      <trkpt lat="44.31435" lon="5.82962">
        <ele>562</ele>
        <time>2019-06-25T10:19:58Z</time>
      </trkpt>
      <trkpt lat="44.3144" lon="5.82956">
        <ele>562</ele>
        <time>2019-06-25T10:19:59Z</time>
      </trkpt>
      <trkpt lat="44.31444" lon="5.82948">
        <ele>562</ele>
        <time>2019-06-25T10:20:00Z</time>
      </trkpt>
      <trkpt lat="44.31449" lon="5.82942">
        <ele>562</ele>
        <time>2019-06-25T10:20:01Z</time>
      </trkpt>
      <trkpt lat="44.31453" lon="5.82935">
        <ele>562</ele>
        <time>2019-06-25T10:20:02Z</time>
      </trkpt>
      <trkpt lat="44.31458" lon="5.82929">
        <ele>562</ele>
        <time>2019-06-25T10:20:03Z</time>
      </trkpt>
      <trkpt lat="44.31463" lon="5.82923">
        <ele>562</ele>
        <time>2019-06-25T10:20:04Z</time>
      </trkpt>
      <trkpt lat="44.31467" lon="5.82917">
        <ele>562</ele>
        <time>2019-06-25T10:20:05Z</time>
      </trkpt>
      <trkpt lat="44.31472" lon="5.8291">
        <ele>562</ele>
        <time>2019-06-25T10:20:06Z</time>
      </trkpt>
      <trkpt lat="44.31476" lon="5.82903">
        <ele>563</ele>
        <time>2019-06-25T10:20:07Z</time>
      </trkpt>
      <trkpt lat="44.3148" lon="5.82897">
        <ele>563</ele>
        <time>2019-06-25T10:20:08Z</time>
      </trkpt>
      <trkpt lat="44.31485" lon="5.82891">
        <ele>563</ele>
        <time>2019-06-25T10:20:09Z</time>
      </trkpt>
      <trkpt lat="44.31489" lon="5.82884">
        <ele>563</ele>
        <time>2019-06-25T10:20:10Z</time>
      </trkpt>
      <trkpt lat="44.31494" lon="5.82878">
        <ele>563</ele>
        <time>2019-06-25T10:20:11Z</time>
      </trkpt>
      <trkpt lat="44.31499" lon="5.82873">
        <ele>563</ele>
        <time>2019-06-25T10:20:12Z</time>
      </trkpt>
      <trkpt lat="44.31505" lon="5.82871">
        <ele>563</ele>
        <time>2019-06-25T10:20:13Z</time>
      </trkpt>
      <trkpt lat="44.31511" lon="5.82872">
        <ele>563</ele>
        <time>2019-06-25T10:20:14Z</time>
      </trkpt>
      <trkpt lat="44.31516" lon="5.82875">
        <ele>564</ele>
        <time>2019-06-25T10:20:15Z</time>
      </trkpt>
      <trkpt lat="44.31521" lon="5.8288">
        <ele>564</ele>
        <time>2019-06-25T10:20:16Z</time>
      </trkpt>
      <trkpt lat="44.31525" lon="5.82885">
        <ele>564</ele>
        <time>2019-06-25T10:20:17Z</time>
      </trkpt>
      <trkpt lat="44.31529" lon="5.8289">
        <ele>565</ele>
        <time>2019-06-25T10:20:18Z</time>
      </trkpt>
      <trkpt lat="44.31533" lon="5.82894">
        <ele>565</ele>
        <time>2019-06-25T10:20:19Z</time>
      </trkpt>
      <trkpt lat="44.31536" lon="5.82899">
        <ele>565</ele>
        <time>2019-06-25T10:20:20Z</time>
      </trkpt>
      <trkpt lat="44.3154" lon="5.82903">
        <ele>565</ele>
        <time>2019-06-25T10:20:21Z</time>
      </trkpt>
      <trkpt lat="44.31544" lon="5.82907">
        <ele>565</ele>
        <time>2019-06-25T10:20:22Z</time>
      </trkpt>
      <trkpt lat="44.31548" lon="5.8291">
        <ele>565</ele>
        <time>2019-06-25T10:20:23Z</time>
      </trkpt>
      <trkpt lat="44.31552" lon="5.82913">
        <ele>565</ele>
        <time>2019-06-25T10:20:24Z</time>
      </trkpt>
      <trkpt lat="44.31556" lon="5.82916">
        <ele>565</ele>
        <time>2019-06-25T10:20:25Z</time>
      </trkpt>
      <trkpt lat="44.3156" lon="5.82918">
        <ele>565</ele>
        <time>2019-06-25T10:20:26Z</time>
      </trkpt>
      <trkpt lat="44.31563" lon="5.8292">
        <ele>565</ele>
        <time>2019-06-25T10:20:27Z</time>
      </trkpt>
      <trkpt lat="44.31567" lon="5.82923">
        <ele>565</ele>
        <time>2019-06-25T10:20:28Z</time>
      </trkpt>
      <trkpt lat="44.3157" lon="5.82925">
        <ele>565</ele>
        <time>2019-06-25T10:20:29Z</time>
      </trkpt>
      <trkpt lat="44.31573" lon="5.82927">
        <ele>565</ele>
        <time>2019-06-25T10:20:30Z</time>
      </trkpt>
      <trkpt lat="44.31577" lon="5.82929">
        <ele>565</ele>
        <time>2019-06-25T10:20:31Z</time>
      </trkpt>
      <trkpt lat="44.31581" lon="5.82931">
        <ele>565</ele>
        <time>2019-06-25T10:20:32Z</time>
      </trkpt>
      <trkpt lat="44.31584" lon="5.82934">
        <ele>565</ele>
        <time>2019-06-25T10:20:33Z</time>
      </trkpt>
      <trkpt lat="44.31587" lon="5.82936">
        <ele>565</ele>
        <time>2019-06-25T10:20:34Z</time>
      </trkpt>
      <trkpt lat="44.3159" lon="5.82938">
        <ele>565</ele>
        <time>2019-06-25T10:20:35Z</time>
      </trkpt>
      <trkpt lat="44.31592" lon="5.82941">
        <ele>565</ele>
        <time>2019-06-25T10:20:36Z</time>
      </trkpt>
      <trkpt lat="44.31594" lon="5.82943">
        <ele>565</ele>
        <time>2019-06-25T10:20:37Z</time>
      </trkpt>
      <trkpt lat="44.31597" lon="5.82944">
        <ele>565</ele>
        <time>2019-06-25T10:20:38Z</time>
      </trkpt>
      <trkpt lat="44.31599" lon="5.82945">
        <ele>565</ele>
        <time>2019-06-25T10:20:39Z</time>
      </trkpt>
      <trkpt lat="44.31597" lon="5.82944">
        <ele>568</ele>
        <time>2019-06-25T10:20:54Z</time>
      </trkpt>
      <trkpt lat="44.31598" lon="5.82943">
        <ele>570</ele>
        <time>2019-06-25T10:20:58Z</time>
      </trkpt>
    </trkseg>
  </trk>
</gpx>